<?xml version="1.0" encoding="UTF-8"?>
<gpx xmlns="http://www.topografix.com/GPX/1/1" xmlns:gpsies="https://www.gpsies.com/GPX/1/0" creator="GPSies https://www.gpsies.com - Fimmv&amp;#246;r&amp;#240;uh&amp;#225;ls" version="1.1" xmlns:xsi="http://www.w3.org/2001/XMLSchema-instance" xsi:schemaLocation="http://www.topografix.com/GPX/1/1 http://www.topografix.com/GPX/1/1/gpx.xsd https://www.gpsies.com/GPX/1/0 https://www.gpsies.com/gpsies.xsd">
  <metadata>
    <name>Fimmvörðuháls</name>
    <author>
      <name>Birran</name>
      <link href="https://www.gpsies.com/mapUser.do?username=Birran">
        <text>Birran on GPSies.com</text>
        <type>GPSiesUserOnWeb</type>
      </link>
    </author>
    <link href="https://www.gpsies.com/map.do?fileId=csdoqtxbgwpyagzw">
      <text>Fimmvörðuháls on GPSies.com</text>
      <type>trackOnWeb</type>
    </link>
    <time>2019-08-05T18:43:34Z</time>
    <extensions>
      <gpsies:property>one-way trip</gpsies:property>
      <gpsies:trackLengthMeter>21664.72685043535</gpsies:trackLengthMeter>
      <gpsies:totalAscentMeter>1008.5999755859375</gpsies:totalAscentMeter>
      <gpsies:totalDescentMeter>1251.5999813079834</gpsies:totalDescentMeter>
      <gpsies:minHeightMeter>30.600000381469727</gpsies:minHeightMeter>
      <gpsies:maxHeightMeter>1066.199951171875</gpsies:maxHeightMeter>
    </extensions>
  </metadata>
  <trk>
    <name>Fimmvörðuháls on GPSies.com</name>
    <link href="https://www.gpsies.com/map.do?fileId=csdoqtxbgwpyagzw">
      <type>trackOnWeb</type>
    </link>
    <link href="https://www.gpsies.com/charts/cs/map/csdoqtxbgwpyagzw_map.png">
      <type>elevationChartUrlMap</type>
    </link>
    <link href="https://www.gpsies.com/charts/cs/mapThumb/csdoqtxbgwpyagzw_mapThumb.png">
      <type>elevationChartUrlMapThumb</type>
    </link>
    <link href="https://www.gpsies.com/charts/cs/tab/csdoqtxbgwpyagzw_tab.png">
      <type>elevationChartUrlTab</type>
    </link>
    <trkseg>
      <trkpt lat="63.67653560" lon="-19.4685234">
        <ele>273.60000</ele>
        <time>2010-01-01T00:00:00Z</time>
      </trkpt>
      <trkpt lat="63.67653510" lon="-19.4685018">
        <ele>273.60000</ele>
        <time>2010-01-01T00:00:00Z</time>
      </trkpt>
      <trkpt lat="63.67652160" lon="-19.4681722">
        <ele>274.60000</ele>
        <time>2010-01-01T00:00:06Z</time>
      </trkpt>
      <trkpt lat="63.67651140" lon="-19.4681198">
        <ele>274.60000</ele>
        <time>2010-01-01T00:00:07Z</time>
      </trkpt>
      <trkpt lat="63.67650240" lon="-19.4680448">
        <ele>274.60000</ele>
        <time>2010-01-01T00:00:08Z</time>
      </trkpt>
      <trkpt lat="63.67647870" lon="-19.4679776">
        <ele>274.60000</ele>
        <time>2010-01-01T00:00:10Z</time>
      </trkpt>
      <trkpt lat="63.67646540" lon="-19.4679183">
        <ele>274.60000</ele>
        <time>2010-01-01T00:00:11Z</time>
      </trkpt>
      <trkpt lat="63.67646000" lon="-19.4678689">
        <ele>274.60000</ele>
        <time>2010-01-01T00:00:12Z</time>
      </trkpt>
      <trkpt lat="63.67644520" lon="-19.4677989">
        <ele>274.60000</ele>
        <time>2010-01-01T00:00:13Z</time>
      </trkpt>
      <trkpt lat="63.67643360" lon="-19.4677394">
        <ele>274.60000</ele>
        <time>2010-01-01T00:00:14Z</time>
      </trkpt>
      <trkpt lat="63.67642800" lon="-19.4676987">
        <ele>275.00000</ele>
        <time>2010-01-01T00:00:15Z</time>
      </trkpt>
      <trkpt lat="63.67640800" lon="-19.4676486">
        <ele>275.39999</ele>
        <time>2010-01-01T00:00:16Z</time>
      </trkpt>
      <trkpt lat="63.67639570" lon="-19.4675902">
        <ele>275.79998</ele>
        <time>2010-01-01T00:00:17Z</time>
      </trkpt>
      <trkpt lat="63.67638160" lon="-19.4675337">
        <ele>276.20001</ele>
        <time>2010-01-01T00:00:19Z</time>
      </trkpt>
      <trkpt lat="63.67637220" lon="-19.4674699">
        <ele>276.60000</ele>
        <time>2010-01-01T00:00:20Z</time>
      </trkpt>
      <trkpt lat="63.67638090" lon="-19.4674043">
        <ele>277.00000</ele>
        <time>2010-01-01T00:00:21Z</time>
      </trkpt>
      <trkpt lat="63.67640090" lon="-19.4673656">
        <ele>277.39999</ele>
        <time>2010-01-01T00:00:22Z</time>
      </trkpt>
      <trkpt lat="63.67643040" lon="-19.4672268">
        <ele>277.79998</ele>
        <time>2010-01-01T00:00:25Z</time>
      </trkpt>
      <trkpt lat="63.67640270" lon="-19.4672618">
        <ele>278.00000</ele>
        <time>2010-01-01T00:00:26Z</time>
      </trkpt>
      <trkpt lat="63.67638470" lon="-19.4671186">
        <ele>278.60000</ele>
        <time>2010-01-01T00:00:29Z</time>
      </trkpt>
      <trkpt lat="63.67637700" lon="-19.4670675">
        <ele>278.79998</ele>
        <time>2010-01-01T00:00:30Z</time>
      </trkpt>
      <trkpt lat="63.67636630" lon="-19.4670100">
        <ele>279.00000</ele>
        <time>2010-01-01T00:00:31Z</time>
      </trkpt>
      <trkpt lat="63.67635270" lon="-19.4669680">
        <ele>279.60000</ele>
        <time>2010-01-01T00:00:32Z</time>
      </trkpt>
      <trkpt lat="63.67634860" lon="-19.4669254">
        <ele>280.00000</ele>
        <time>2010-01-01T00:00:32Z</time>
      </trkpt>
      <trkpt lat="63.67635170" lon="-19.4668902">
        <ele>280.39999</ele>
        <time>2010-01-01T00:00:33Z</time>
      </trkpt>
      <trkpt lat="63.67635170" lon="-19.4668542">
        <ele>280.79998</ele>
        <time>2010-01-01T00:00:34Z</time>
      </trkpt>
      <trkpt lat="63.67635530" lon="-19.4667976">
        <ele>281.39999</ele>
        <time>2010-01-01T00:00:35Z</time>
      </trkpt>
      <trkpt lat="63.67636140" lon="-19.4667449">
        <ele>282.00000</ele>
        <time>2010-01-01T00:00:36Z</time>
      </trkpt>
      <trkpt lat="63.67636570" lon="-19.4666938">
        <ele>282.39999</ele>
        <time>2010-01-01T00:00:37Z</time>
      </trkpt>
      <trkpt lat="63.67636170" lon="-19.4666543">
        <ele>282.79998</ele>
        <time>2010-01-01T00:00:37Z</time>
      </trkpt>
      <trkpt lat="63.67634760" lon="-19.4666232">
        <ele>283.00000</ele>
        <time>2010-01-01T00:00:38Z</time>
      </trkpt>
      <trkpt lat="63.67633210" lon="-19.4665815">
        <ele>283.39999</ele>
        <time>2010-01-01T00:00:39Z</time>
      </trkpt>
      <trkpt lat="63.67631260" lon="-19.4665460">
        <ele>283.79998</ele>
        <time>2010-01-01T00:00:40Z</time>
      </trkpt>
      <trkpt lat="63.67629470" lon="-19.4665097">
        <ele>284.39999</ele>
        <time>2010-01-01T00:00:41Z</time>
      </trkpt>
      <trkpt lat="63.67628690" lon="-19.4664739">
        <ele>284.79998</ele>
        <time>2010-01-01T00:00:42Z</time>
      </trkpt>
      <trkpt lat="63.67628320" lon="-19.4664402">
        <ele>285.20001</ele>
        <time>2010-01-01T00:00:42Z</time>
      </trkpt>
      <trkpt lat="63.67627050" lon="-19.4663993">
        <ele>285.39999</ele>
        <time>2010-01-01T00:00:43Z</time>
      </trkpt>
      <trkpt lat="63.67626010" lon="-19.4663636">
        <ele>285.79998</ele>
        <time>2010-01-01T00:00:44Z</time>
      </trkpt>
      <trkpt lat="63.67625350" lon="-19.4663398">
        <ele>286.20001</ele>
        <time>2010-01-01T00:00:44Z</time>
      </trkpt>
      <trkpt lat="63.67624810" lon="-19.4663195">
        <ele>286.79998</ele>
        <time>2010-01-01T00:00:45Z</time>
      </trkpt>
      <trkpt lat="63.67624130" lon="-19.4663035">
        <ele>287.20001</ele>
        <time>2010-01-01T00:00:45Z</time>
      </trkpt>
      <trkpt lat="63.67623120" lon="-19.4662935">
        <ele>287.79998</ele>
        <time>2010-01-01T00:00:46Z</time>
      </trkpt>
      <trkpt lat="63.67622120" lon="-19.4662894">
        <ele>288.20001</ele>
        <time>2010-01-01T00:00:46Z</time>
      </trkpt>
      <trkpt lat="63.67621050" lon="-19.4662836">
        <ele>288.79998</ele>
        <time>2010-01-01T00:00:47Z</time>
      </trkpt>
      <trkpt lat="63.67620250" lon="-19.4662723">
        <ele>289.39999</ele>
        <time>2010-01-01T00:00:47Z</time>
      </trkpt>
      <trkpt lat="63.67619620" lon="-19.4662572">
        <ele>289.79998</ele>
        <time>2010-01-01T00:00:47Z</time>
      </trkpt>
      <trkpt lat="63.67619360" lon="-19.4662336">
        <ele>290.39999</ele>
        <time>2010-01-01T00:00:48Z</time>
      </trkpt>
      <trkpt lat="63.67619510" lon="-19.4662124">
        <ele>290.79998</ele>
        <time>2010-01-01T00:00:48Z</time>
      </trkpt>
      <trkpt lat="63.67619870" lon="-19.4661906">
        <ele>291.20001</ele>
        <time>2010-01-01T00:00:49Z</time>
      </trkpt>
      <trkpt lat="63.67620350" lon="-19.4661691">
        <ele>291.79998</ele>
        <time>2010-01-01T00:00:49Z</time>
      </trkpt>
      <trkpt lat="63.67620510" lon="-19.4661462">
        <ele>292.20001</ele>
        <time>2010-01-01T00:00:49Z</time>
      </trkpt>
      <trkpt lat="63.67620460" lon="-19.4661151">
        <ele>292.60000</ele>
        <time>2010-01-01T00:00:50Z</time>
      </trkpt>
      <trkpt lat="63.67620100" lon="-19.4660912">
        <ele>293.20001</ele>
        <time>2010-01-01T00:00:50Z</time>
      </trkpt>
      <trkpt lat="63.67619480" lon="-19.4660684">
        <ele>293.60000</ele>
        <time>2010-01-01T00:00:51Z</time>
      </trkpt>
      <trkpt lat="63.67619090" lon="-19.4660438">
        <ele>294.20001</ele>
        <time>2010-01-01T00:00:51Z</time>
      </trkpt>
      <trkpt lat="63.67618540" lon="-19.4660214">
        <ele>294.60000</ele>
        <time>2010-01-01T00:00:52Z</time>
      </trkpt>
      <trkpt lat="63.67617800" lon="-19.4660009">
        <ele>295.00000</ele>
        <time>2010-01-01T00:00:52Z</time>
      </trkpt>
      <trkpt lat="63.67616720" lon="-19.4659752">
        <ele>295.60000</ele>
        <time>2010-01-01T00:00:53Z</time>
      </trkpt>
      <trkpt lat="63.67615730" lon="-19.4659218">
        <ele>296.00000</ele>
        <time>2010-01-01T00:00:54Z</time>
      </trkpt>
      <trkpt lat="63.67615490" lon="-19.4658963">
        <ele>296.39999</ele>
        <time>2010-01-01T00:00:54Z</time>
      </trkpt>
      <trkpt lat="63.67615030" lon="-19.4658708">
        <ele>296.79998</ele>
        <time>2010-01-01T00:00:55Z</time>
      </trkpt>
      <trkpt lat="63.67614570" lon="-19.4658497">
        <ele>297.20001</ele>
        <time>2010-01-01T00:00:55Z</time>
      </trkpt>
      <trkpt lat="63.67614060" lon="-19.4658215">
        <ele>297.60000</ele>
        <time>2010-01-01T00:00:56Z</time>
      </trkpt>
      <trkpt lat="63.67613680" lon="-19.4657955">
        <ele>297.79998</ele>
        <time>2010-01-01T00:00:56Z</time>
      </trkpt>
      <trkpt lat="63.67613500" lon="-19.4657664">
        <ele>298.00000</ele>
        <time>2010-01-01T00:00:57Z</time>
      </trkpt>
      <trkpt lat="63.67613220" lon="-19.4657367">
        <ele>298.39999</ele>
        <time>2010-01-01T00:00:57Z</time>
      </trkpt>
      <trkpt lat="63.67612950" lon="-19.4657079">
        <ele>298.79998</ele>
        <time>2010-01-01T00:00:58Z</time>
      </trkpt>
      <trkpt lat="63.67612740" lon="-19.4656793">
        <ele>299.20001</ele>
        <time>2010-01-01T00:00:58Z</time>
      </trkpt>
      <trkpt lat="63.67612880" lon="-19.4656442">
        <ele>299.79998</ele>
        <time>2010-01-01T00:00:59Z</time>
      </trkpt>
      <trkpt lat="63.67613180" lon="-19.4656161">
        <ele>300.00000</ele>
        <time>2010-01-01T00:01:00Z</time>
      </trkpt>
      <trkpt lat="63.67613100" lon="-19.4655871">
        <ele>300.39999</ele>
        <time>2010-01-01T00:01:00Z</time>
      </trkpt>
      <trkpt lat="63.67612920" lon="-19.4655602">
        <ele>300.79998</ele>
        <time>2010-01-01T00:01:01Z</time>
      </trkpt>
      <trkpt lat="63.67612630" lon="-19.4655285">
        <ele>301.20001</ele>
        <time>2010-01-01T00:01:01Z</time>
      </trkpt>
      <trkpt lat="63.67612390" lon="-19.4655007">
        <ele>301.60000</ele>
        <time>2010-01-01T00:01:02Z</time>
      </trkpt>
      <trkpt lat="63.67612260" lon="-19.4654762">
        <ele>301.79998</ele>
        <time>2010-01-01T00:01:02Z</time>
      </trkpt>
      <trkpt lat="63.67612070" lon="-19.4654496">
        <ele>302.20001</ele>
        <time>2010-01-01T00:01:03Z</time>
      </trkpt>
      <trkpt lat="63.67611960" lon="-19.4654241">
        <ele>302.60000</ele>
        <time>2010-01-01T00:01:03Z</time>
      </trkpt>
      <trkpt lat="63.67611910" lon="-19.4653961">
        <ele>303.00000</ele>
        <time>2010-01-01T00:01:03Z</time>
      </trkpt>
      <trkpt lat="63.67611710" lon="-19.4653661">
        <ele>303.39999</ele>
        <time>2010-01-01T00:01:04Z</time>
      </trkpt>
      <trkpt lat="63.67611450" lon="-19.4653363">
        <ele>303.79998</ele>
        <time>2010-01-01T00:01:05Z</time>
      </trkpt>
      <trkpt lat="63.67611350" lon="-19.4653388">
        <ele>304.00000</ele>
        <time>2010-01-01T00:01:05Z</time>
      </trkpt>
      <trkpt lat="63.67610760" lon="-19.4652896">
        <ele>304.39999</ele>
        <time>2010-01-01T00:01:06Z</time>
      </trkpt>
      <trkpt lat="63.67609640" lon="-19.4652136">
        <ele>304.79998</ele>
        <time>2010-01-01T00:01:07Z</time>
      </trkpt>
      <trkpt lat="63.67609070" lon="-19.4651615">
        <ele>305.20001</ele>
        <time>2010-01-01T00:01:08Z</time>
      </trkpt>
      <trkpt lat="63.67609270" lon="-19.4651128">
        <ele>305.60000</ele>
        <time>2010-01-01T00:01:09Z</time>
      </trkpt>
      <trkpt lat="63.67609240" lon="-19.4650786">
        <ele>305.79998</ele>
        <time>2010-01-01T00:01:09Z</time>
      </trkpt>
      <trkpt lat="63.67609070" lon="-19.4649990">
        <ele>306.00000</ele>
        <time>2010-01-01T00:01:11Z</time>
      </trkpt>
      <trkpt lat="63.67608830" lon="-19.4649737">
        <ele>306.39999</ele>
        <time>2010-01-01T00:01:11Z</time>
      </trkpt>
      <trkpt lat="63.67609020" lon="-19.4649392">
        <ele>306.79998</ele>
        <time>2010-01-01T00:01:12Z</time>
      </trkpt>
      <trkpt lat="63.67610410" lon="-19.4648722">
        <ele>307.00000</ele>
        <time>2010-01-01T00:01:13Z</time>
      </trkpt>
      <trkpt lat="63.67611590" lon="-19.4648181">
        <ele>307.39999</ele>
        <time>2010-01-01T00:01:14Z</time>
      </trkpt>
      <trkpt lat="63.67612680" lon="-19.4647558">
        <ele>307.79998</ele>
        <time>2010-01-01T00:01:15Z</time>
      </trkpt>
      <trkpt lat="63.67613840" lon="-19.4646890">
        <ele>308.39999</ele>
        <time>2010-01-01T00:01:17Z</time>
      </trkpt>
      <trkpt lat="63.67614610" lon="-19.4646291">
        <ele>308.79998</ele>
        <time>2010-01-01T00:01:18Z</time>
      </trkpt>
      <trkpt lat="63.67614930" lon="-19.4645675">
        <ele>309.39999</ele>
        <time>2010-01-01T00:01:19Z</time>
      </trkpt>
      <trkpt lat="63.67614730" lon="-19.4644981">
        <ele>309.79998</ele>
        <time>2010-01-01T00:01:20Z</time>
      </trkpt>
      <trkpt lat="63.67614790" lon="-19.4644404">
        <ele>310.00000</ele>
        <time>2010-01-01T00:01:21Z</time>
      </trkpt>
      <trkpt lat="63.67614860" lon="-19.4643192">
        <ele>310.00000</ele>
        <time>2010-01-01T00:01:23Z</time>
      </trkpt>
      <trkpt lat="63.67616370" lon="-19.4641829">
        <ele>310.00000</ele>
        <time>2010-01-01T00:01:26Z</time>
      </trkpt>
      <trkpt lat="63.67616900" lon="-19.4641361">
        <ele>310.00000</ele>
        <time>2010-01-01T00:01:27Z</time>
      </trkpt>
      <trkpt lat="63.67616500" lon="-19.4640879">
        <ele>310.00000</ele>
        <time>2010-01-01T00:01:28Z</time>
      </trkpt>
      <trkpt lat="63.67615430" lon="-19.4640436">
        <ele>310.39999</ele>
        <time>2010-01-01T00:01:28Z</time>
      </trkpt>
      <trkpt lat="63.67614600" lon="-19.4639902">
        <ele>310.79998</ele>
        <time>2010-01-01T00:01:29Z</time>
      </trkpt>
      <trkpt lat="63.67614110" lon="-19.4639509">
        <ele>311.20001</ele>
        <time>2010-01-01T00:01:30Z</time>
      </trkpt>
      <trkpt lat="63.67613820" lon="-19.4639146">
        <ele>311.60000</ele>
        <time>2010-01-01T00:01:31Z</time>
      </trkpt>
      <trkpt lat="63.67613580" lon="-19.4638879">
        <ele>312.00000</ele>
        <time>2010-01-01T00:01:31Z</time>
      </trkpt>
      <trkpt lat="63.67613290" lon="-19.4638632">
        <ele>312.39999</ele>
        <time>2010-01-01T00:01:32Z</time>
      </trkpt>
      <trkpt lat="63.67612780" lon="-19.4638387">
        <ele>312.79998</ele>
        <time>2010-01-01T00:01:32Z</time>
      </trkpt>
      <trkpt lat="63.67612470" lon="-19.4638157">
        <ele>313.20001</ele>
        <time>2010-01-01T00:01:33Z</time>
      </trkpt>
      <trkpt lat="63.67612140" lon="-19.4637941">
        <ele>313.60000</ele>
        <time>2010-01-01T00:01:33Z</time>
      </trkpt>
      <trkpt lat="63.67611700" lon="-19.4637686">
        <ele>314.20001</ele>
        <time>2010-01-01T00:01:34Z</time>
      </trkpt>
      <trkpt lat="63.67611080" lon="-19.4637442">
        <ele>314.39999</ele>
        <time>2010-01-01T00:01:34Z</time>
      </trkpt>
      <trkpt lat="63.67610410" lon="-19.4637212">
        <ele>314.79998</ele>
        <time>2010-01-01T00:01:35Z</time>
      </trkpt>
      <trkpt lat="63.67609910" lon="-19.4636994">
        <ele>315.20001</ele>
        <time>2010-01-01T00:01:35Z</time>
      </trkpt>
      <trkpt lat="63.67609530" lon="-19.4636801">
        <ele>315.60000</ele>
        <time>2010-01-01T00:01:35Z</time>
      </trkpt>
      <trkpt lat="63.67608970" lon="-19.4636620">
        <ele>316.00000</ele>
        <time>2010-01-01T00:01:36Z</time>
      </trkpt>
      <trkpt lat="63.67608390" lon="-19.4636408">
        <ele>316.39999</ele>
        <time>2010-01-01T00:01:36Z</time>
      </trkpt>
      <trkpt lat="63.67608040" lon="-19.4636188">
        <ele>316.79998</ele>
        <time>2010-01-01T00:01:37Z</time>
      </trkpt>
      <trkpt lat="63.67607700" lon="-19.4635994">
        <ele>317.20001</ele>
        <time>2010-01-01T00:01:37Z</time>
      </trkpt>
      <trkpt lat="63.67607280" lon="-19.4635761">
        <ele>317.60000</ele>
        <time>2010-01-01T00:01:37Z</time>
      </trkpt>
      <trkpt lat="63.67606840" lon="-19.4635534">
        <ele>318.00000</ele>
        <time>2010-01-01T00:01:38Z</time>
      </trkpt>
      <trkpt lat="63.67606520" lon="-19.4635364">
        <ele>318.20001</ele>
        <time>2010-01-01T00:01:38Z</time>
      </trkpt>
      <trkpt lat="63.67606180" lon="-19.4635157">
        <ele>318.39999</ele>
        <time>2010-01-01T00:01:39Z</time>
      </trkpt>
      <trkpt lat="63.67605890" lon="-19.4634958">
        <ele>318.79998</ele>
        <time>2010-01-01T00:01:39Z</time>
      </trkpt>
      <trkpt lat="63.67605480" lon="-19.4634705">
        <ele>319.20001</ele>
        <time>2010-01-01T00:01:39Z</time>
      </trkpt>
      <trkpt lat="63.67605070" lon="-19.4634470">
        <ele>319.79998</ele>
        <time>2010-01-01T00:01:40Z</time>
      </trkpt>
      <trkpt lat="63.67604750" lon="-19.4634242">
        <ele>320.20001</ele>
        <time>2010-01-01T00:01:40Z</time>
      </trkpt>
      <trkpt lat="63.67604510" lon="-19.4634038">
        <ele>320.20001</ele>
        <time>2010-01-01T00:01:41Z</time>
      </trkpt>
      <trkpt lat="63.67604220" lon="-19.4633786">
        <ele>320.79998</ele>
        <time>2010-01-01T00:01:41Z</time>
      </trkpt>
      <trkpt lat="63.67603740" lon="-19.4633539">
        <ele>321.20001</ele>
        <time>2010-01-01T00:01:42Z</time>
      </trkpt>
      <trkpt lat="63.67603210" lon="-19.4633290">
        <ele>321.60000</ele>
        <time>2010-01-01T00:01:42Z</time>
      </trkpt>
      <trkpt lat="63.67602980" lon="-19.4633022">
        <ele>322.00000</ele>
        <time>2010-01-01T00:01:43Z</time>
      </trkpt>
      <trkpt lat="63.67601990" lon="-19.4632756">
        <ele>322.39999</ele>
        <time>2010-01-01T00:01:43Z</time>
      </trkpt>
      <trkpt lat="63.67600680" lon="-19.4632498">
        <ele>322.60000</ele>
        <time>2010-01-01T00:01:44Z</time>
      </trkpt>
      <trkpt lat="63.67599480" lon="-19.4632246">
        <ele>323.00000</ele>
        <time>2010-01-01T00:01:45Z</time>
      </trkpt>
      <trkpt lat="63.67598420" lon="-19.4632122">
        <ele>323.39999</ele>
        <time>2010-01-01T00:01:45Z</time>
      </trkpt>
      <trkpt lat="63.67597250" lon="-19.4632056">
        <ele>323.79998</ele>
        <time>2010-01-01T00:01:46Z</time>
      </trkpt>
      <trkpt lat="63.67596380" lon="-19.4632070">
        <ele>324.20001</ele>
        <time>2010-01-01T00:01:46Z</time>
      </trkpt>
      <trkpt lat="63.67595430" lon="-19.4632174">
        <ele>324.39999</ele>
        <time>2010-01-01T00:01:46Z</time>
      </trkpt>
      <trkpt lat="63.67589480" lon="-19.4632660">
        <ele>324.79998</ele>
        <time>2010-01-01T00:01:49Z</time>
      </trkpt>
      <trkpt lat="63.67588240" lon="-19.4632726">
        <ele>325.20001</ele>
        <time>2010-01-01T00:01:49Z</time>
      </trkpt>
      <trkpt lat="63.67587150" lon="-19.4632687">
        <ele>325.60000</ele>
        <time>2010-01-01T00:01:50Z</time>
      </trkpt>
      <trkpt lat="63.67586270" lon="-19.4632530">
        <ele>326.00000</ele>
        <time>2010-01-01T00:01:50Z</time>
      </trkpt>
      <trkpt lat="63.67585380" lon="-19.4632361">
        <ele>326.39999</ele>
        <time>2010-01-01T00:01:51Z</time>
      </trkpt>
      <trkpt lat="63.67584510" lon="-19.4632216">
        <ele>326.79998</ele>
        <time>2010-01-01T00:01:51Z</time>
      </trkpt>
      <trkpt lat="63.67583580" lon="-19.4632004">
        <ele>327.20001</ele>
        <time>2010-01-01T00:01:52Z</time>
      </trkpt>
      <trkpt lat="63.67582760" lon="-19.4631769">
        <ele>327.60000</ele>
        <time>2010-01-01T00:01:52Z</time>
      </trkpt>
      <trkpt lat="63.67581970" lon="-19.4631554">
        <ele>328.00000</ele>
        <time>2010-01-01T00:01:53Z</time>
      </trkpt>
      <trkpt lat="63.67581150" lon="-19.4631389">
        <ele>328.39999</ele>
        <time>2010-01-01T00:01:53Z</time>
      </trkpt>
      <trkpt lat="63.67580360" lon="-19.4631281">
        <ele>328.60000</ele>
        <time>2010-01-01T00:01:54Z</time>
      </trkpt>
      <trkpt lat="63.67578650" lon="-19.4631022">
        <ele>328.79998</ele>
        <time>2010-01-01T00:01:54Z</time>
      </trkpt>
      <trkpt lat="63.67577880" lon="-19.4630918">
        <ele>329.20001</ele>
        <time>2010-01-01T00:01:55Z</time>
      </trkpt>
      <trkpt lat="63.67577150" lon="-19.4630840">
        <ele>329.60000</ele>
        <time>2010-01-01T00:01:55Z</time>
      </trkpt>
      <trkpt lat="63.67576270" lon="-19.4630787">
        <ele>330.00000</ele>
        <time>2010-01-01T00:01:55Z</time>
      </trkpt>
      <trkpt lat="63.67575210" lon="-19.4630779">
        <ele>330.39999</ele>
        <time>2010-01-01T00:01:56Z</time>
      </trkpt>
      <trkpt lat="63.67574100" lon="-19.4630713">
        <ele>330.79998</ele>
        <time>2010-01-01T00:01:56Z</time>
      </trkpt>
      <trkpt lat="63.67573070" lon="-19.4630661">
        <ele>330.79998</ele>
        <time>2010-01-01T00:01:57Z</time>
      </trkpt>
      <trkpt lat="63.67572140" lon="-19.4630638">
        <ele>331.20001</ele>
        <time>2010-01-01T00:01:57Z</time>
      </trkpt>
      <trkpt lat="63.67571490" lon="-19.4630626">
        <ele>331.60000</ele>
        <time>2010-01-01T00:01:57Z</time>
      </trkpt>
      <trkpt lat="63.67570530" lon="-19.4630591">
        <ele>332.00000</ele>
        <time>2010-01-01T00:01:58Z</time>
      </trkpt>
      <trkpt lat="63.67569490" lon="-19.4630617">
        <ele>332.39999</ele>
        <time>2010-01-01T00:01:58Z</time>
      </trkpt>
      <trkpt lat="63.67568450" lon="-19.4630718">
        <ele>332.79998</ele>
        <time>2010-01-01T00:01:59Z</time>
      </trkpt>
      <trkpt lat="63.67567310" lon="-19.4630796">
        <ele>333.20001</ele>
        <time>2010-01-01T00:01:59Z</time>
      </trkpt>
      <trkpt lat="63.67566440" lon="-19.4630865">
        <ele>333.60000</ele>
        <time>2010-01-01T00:01:59Z</time>
      </trkpt>
      <trkpt lat="63.67565580" lon="-19.4630896">
        <ele>334.00000</ele>
        <time>2010-01-01T00:02:00Z</time>
      </trkpt>
      <trkpt lat="63.67564960" lon="-19.4630812">
        <ele>334.39999</ele>
        <time>2010-01-01T00:02:00Z</time>
      </trkpt>
      <trkpt lat="63.67565010" lon="-19.4630589">
        <ele>334.79998</ele>
        <time>2010-01-01T00:02:00Z</time>
      </trkpt>
      <trkpt lat="63.67564980" lon="-19.4630343">
        <ele>335.00000</ele>
        <time>2010-01-01T00:02:01Z</time>
      </trkpt>
      <trkpt lat="63.67565040" lon="-19.4630105">
        <ele>335.39999</ele>
        <time>2010-01-01T00:02:01Z</time>
      </trkpt>
      <trkpt lat="63.67565340" lon="-19.4629739">
        <ele>335.79998</ele>
        <time>2010-01-01T00:02:02Z</time>
      </trkpt>
      <trkpt lat="63.67565900" lon="-19.4629393">
        <ele>336.20001</ele>
        <time>2010-01-01T00:02:03Z</time>
      </trkpt>
      <trkpt lat="63.67566750" lon="-19.4629002">
        <ele>336.60000</ele>
        <time>2010-01-01T00:02:03Z</time>
      </trkpt>
      <trkpt lat="63.67567550" lon="-19.4628736">
        <ele>336.79998</ele>
        <time>2010-01-01T00:02:04Z</time>
      </trkpt>
      <trkpt lat="63.67568460" lon="-19.4628562">
        <ele>336.79998</ele>
        <time>2010-01-01T00:02:04Z</time>
      </trkpt>
      <trkpt lat="63.67569460" lon="-19.4628390">
        <ele>337.20001</ele>
        <time>2010-01-01T00:02:05Z</time>
      </trkpt>
      <trkpt lat="63.67570630" lon="-19.4628220">
        <ele>337.79998</ele>
        <time>2010-01-01T00:02:06Z</time>
      </trkpt>
      <trkpt lat="63.67572150" lon="-19.4628048">
        <ele>338.20001</ele>
        <time>2010-01-01T00:02:06Z</time>
      </trkpt>
      <trkpt lat="63.67573750" lon="-19.4627903">
        <ele>338.60000</ele>
        <time>2010-01-01T00:02:07Z</time>
      </trkpt>
      <trkpt lat="63.67575250" lon="-19.4627748">
        <ele>339.00000</ele>
        <time>2010-01-01T00:02:08Z</time>
      </trkpt>
      <trkpt lat="63.67576680" lon="-19.4627546">
        <ele>339.00000</ele>
        <time>2010-01-01T00:02:08Z</time>
      </trkpt>
      <trkpt lat="63.67578940" lon="-19.4627115">
        <ele>339.00000</ele>
        <time>2010-01-01T00:02:09Z</time>
      </trkpt>
      <trkpt lat="63.67582260" lon="-19.4626504">
        <ele>339.39999</ele>
        <time>2010-01-01T00:02:11Z</time>
      </trkpt>
      <trkpt lat="63.67583740" lon="-19.4626127">
        <ele>339.60000</ele>
        <time>2010-01-01T00:02:12Z</time>
      </trkpt>
      <trkpt lat="63.67584200" lon="-19.4625952">
        <ele>340.00000</ele>
        <time>2010-01-01T00:02:12Z</time>
      </trkpt>
      <trkpt lat="63.67584970" lon="-19.4625710">
        <ele>340.39999</ele>
        <time>2010-01-01T00:02:13Z</time>
      </trkpt>
      <trkpt lat="63.67585500" lon="-19.4625506">
        <ele>340.79998</ele>
        <time>2010-01-01T00:02:13Z</time>
      </trkpt>
      <trkpt lat="63.67586010" lon="-19.4625248">
        <ele>341.20001</ele>
        <time>2010-01-01T00:02:14Z</time>
      </trkpt>
      <trkpt lat="63.67586240" lon="-19.4624951">
        <ele>341.60000</ele>
        <time>2010-01-01T00:02:14Z</time>
      </trkpt>
      <trkpt lat="63.67586710" lon="-19.4624662">
        <ele>342.20001</ele>
        <time>2010-01-01T00:02:15Z</time>
      </trkpt>
      <trkpt lat="63.67587200" lon="-19.4624417">
        <ele>342.60000</ele>
        <time>2010-01-01T00:02:15Z</time>
      </trkpt>
      <trkpt lat="63.67587640" lon="-19.4624176">
        <ele>343.00000</ele>
        <time>2010-01-01T00:02:16Z</time>
      </trkpt>
      <trkpt lat="63.67588060" lon="-19.4623907">
        <ele>343.20001</ele>
        <time>2010-01-01T00:02:16Z</time>
      </trkpt>
      <trkpt lat="63.67588290" lon="-19.4623612">
        <ele>343.00000</ele>
        <time>2010-01-01T00:02:17Z</time>
      </trkpt>
      <trkpt lat="63.67588060" lon="-19.4622998">
        <ele>343.39999</ele>
        <time>2010-01-01T00:02:18Z</time>
      </trkpt>
      <trkpt lat="63.67587850" lon="-19.4622701">
        <ele>344.00000</ele>
        <time>2010-01-01T00:02:19Z</time>
      </trkpt>
      <trkpt lat="63.67587660" lon="-19.4622380">
        <ele>344.39999</ele>
        <time>2010-01-01T00:02:19Z</time>
      </trkpt>
      <trkpt lat="63.67587140" lon="-19.4622024">
        <ele>344.79998</ele>
        <time>2010-01-01T00:02:20Z</time>
      </trkpt>
      <trkpt lat="63.67586880" lon="-19.4621719">
        <ele>345.20001</ele>
        <time>2010-01-01T00:02:20Z</time>
      </trkpt>
      <trkpt lat="63.67585990" lon="-19.4620747">
        <ele>345.20001</ele>
        <time>2010-01-01T00:02:22Z</time>
      </trkpt>
      <trkpt lat="63.67586090" lon="-19.4620433">
        <ele>345.60000</ele>
        <time>2010-01-01T00:02:23Z</time>
      </trkpt>
      <trkpt lat="63.67586280" lon="-19.4620112">
        <ele>346.20001</ele>
        <time>2010-01-01T00:02:23Z</time>
      </trkpt>
      <trkpt lat="63.67586630" lon="-19.4619799">
        <ele>346.60000</ele>
        <time>2010-01-01T00:02:24Z</time>
      </trkpt>
      <trkpt lat="63.67587100" lon="-19.4619483">
        <ele>346.79998</ele>
        <time>2010-01-01T00:02:24Z</time>
      </trkpt>
      <trkpt lat="63.67587880" lon="-19.4618995">
        <ele>347.20001</ele>
        <time>2010-01-01T00:02:25Z</time>
      </trkpt>
      <trkpt lat="63.67588950" lon="-19.4618308">
        <ele>347.20001</ele>
        <time>2010-01-01T00:02:27Z</time>
      </trkpt>
      <trkpt lat="63.67590330" lon="-19.4617792">
        <ele>347.20001</ele>
        <time>2010-01-01T00:02:28Z</time>
      </trkpt>
      <trkpt lat="63.67592260" lon="-19.4617423">
        <ele>347.20001</ele>
        <time>2010-01-01T00:02:29Z</time>
      </trkpt>
      <trkpt lat="63.67594610" lon="-19.4616947">
        <ele>347.20001</ele>
        <time>2010-01-01T00:02:30Z</time>
      </trkpt>
      <trkpt lat="63.67596310" lon="-19.4616346">
        <ele>347.20001</ele>
        <time>2010-01-01T00:02:31Z</time>
      </trkpt>
      <trkpt lat="63.67597080" lon="-19.4615948">
        <ele>347.20001</ele>
        <time>2010-01-01T00:02:32Z</time>
      </trkpt>
      <trkpt lat="63.67598500" lon="-19.4615476">
        <ele>347.20001</ele>
        <time>2010-01-01T00:02:33Z</time>
      </trkpt>
      <trkpt lat="63.67599730" lon="-19.4615012">
        <ele>347.20001</ele>
        <time>2010-01-01T00:02:34Z</time>
      </trkpt>
      <trkpt lat="63.67600030" lon="-19.4614665">
        <ele>347.20001</ele>
        <time>2010-01-01T00:02:35Z</time>
      </trkpt>
      <trkpt lat="63.67599770" lon="-19.4614272">
        <ele>347.20001</ele>
        <time>2010-01-01T00:02:35Z</time>
      </trkpt>
      <trkpt lat="63.67599110" lon="-19.4613763">
        <ele>347.39999</ele>
        <time>2010-01-01T00:02:36Z</time>
      </trkpt>
      <trkpt lat="63.67597360" lon="-19.4613296">
        <ele>347.79998</ele>
        <time>2010-01-01T00:02:37Z</time>
      </trkpt>
      <trkpt lat="63.67596340" lon="-19.4612931">
        <ele>348.20001</ele>
        <time>2010-01-01T00:02:38Z</time>
      </trkpt>
      <trkpt lat="63.67596630" lon="-19.4612535">
        <ele>348.60000</ele>
        <time>2010-01-01T00:02:39Z</time>
      </trkpt>
      <trkpt lat="63.67597700" lon="-19.4612182">
        <ele>349.00000</ele>
        <time>2010-01-01T00:02:40Z</time>
      </trkpt>
      <trkpt lat="63.67597360" lon="-19.4611852">
        <ele>349.20001</ele>
        <time>2010-01-01T00:02:40Z</time>
      </trkpt>
      <trkpt lat="63.67597320" lon="-19.4611577">
        <ele>349.39999</ele>
        <time>2010-01-01T00:02:41Z</time>
      </trkpt>
      <trkpt lat="63.67597030" lon="-19.4611164">
        <ele>349.79998</ele>
        <time>2010-01-01T00:02:41Z</time>
      </trkpt>
      <trkpt lat="63.67596580" lon="-19.4610757">
        <ele>350.20001</ele>
        <time>2010-01-01T00:02:42Z</time>
      </trkpt>
      <trkpt lat="63.67595920" lon="-19.4610222">
        <ele>350.79998</ele>
        <time>2010-01-01T00:02:43Z</time>
      </trkpt>
      <trkpt lat="63.67595690" lon="-19.4609744">
        <ele>351.20001</ele>
        <time>2010-01-01T00:02:44Z</time>
      </trkpt>
      <trkpt lat="63.67597150" lon="-19.4609265">
        <ele>351.20001</ele>
        <time>2010-01-01T00:02:45Z</time>
      </trkpt>
      <trkpt lat="63.67599810" lon="-19.4609070">
        <ele>351.39999</ele>
        <time>2010-01-01T00:02:46Z</time>
      </trkpt>
      <trkpt lat="63.67600360" lon="-19.4609011">
        <ele>351.20001</ele>
        <time>2010-01-01T00:02:46Z</time>
      </trkpt>
      <trkpt lat="63.67599790" lon="-19.4609073">
        <ele>351.60000</ele>
        <time>2010-01-01T00:02:47Z</time>
      </trkpt>
      <trkpt lat="63.67600070" lon="-19.4608647">
        <ele>352.00000</ele>
        <time>2010-01-01T00:02:47Z</time>
      </trkpt>
      <trkpt lat="63.67600840" lon="-19.4608203">
        <ele>352.60000</ele>
        <time>2010-01-01T00:02:48Z</time>
      </trkpt>
      <trkpt lat="63.67601720" lon="-19.4607318">
        <ele>353.00000</ele>
        <time>2010-01-01T00:02:50Z</time>
      </trkpt>
      <trkpt lat="63.67600360" lon="-19.4606572">
        <ele>353.39999</ele>
        <time>2010-01-01T00:02:51Z</time>
      </trkpt>
      <trkpt lat="63.67598800" lon="-19.4605789">
        <ele>353.39999</ele>
        <time>2010-01-01T00:02:53Z</time>
      </trkpt>
      <trkpt lat="63.67597440" lon="-19.4605172">
        <ele>353.39999</ele>
        <time>2010-01-01T00:02:54Z</time>
      </trkpt>
      <trkpt lat="63.67596640" lon="-19.4604313">
        <ele>353.39999</ele>
        <time>2010-01-01T00:02:56Z</time>
      </trkpt>
      <trkpt lat="63.67592920" lon="-19.4602529">
        <ele>353.39999</ele>
        <time>2010-01-01T00:02:59Z</time>
      </trkpt>
      <trkpt lat="63.67582820" lon="-19.4602466">
        <ele>353.39999</ele>
        <time>2010-01-01T00:03:03Z</time>
      </trkpt>
      <trkpt lat="63.67578660" lon="-19.4602066">
        <ele>353.39999</ele>
        <time>2010-01-01T00:03:05Z</time>
      </trkpt>
      <trkpt lat="63.67577330" lon="-19.4601772">
        <ele>353.39999</ele>
        <time>2010-01-01T00:03:06Z</time>
      </trkpt>
      <trkpt lat="63.67577040" lon="-19.4601377">
        <ele>353.39999</ele>
        <time>2010-01-01T00:03:06Z</time>
      </trkpt>
      <trkpt lat="63.67576430" lon="-19.4601070">
        <ele>353.39999</ele>
        <time>2010-01-01T00:03:07Z</time>
      </trkpt>
      <trkpt lat="63.67575710" lon="-19.4600801">
        <ele>353.79998</ele>
        <time>2010-01-01T00:03:08Z</time>
      </trkpt>
      <trkpt lat="63.67575300" lon="-19.4600464">
        <ele>354.20001</ele>
        <time>2010-01-01T00:03:08Z</time>
      </trkpt>
      <trkpt lat="63.67573880" lon="-19.4600135">
        <ele>354.60000</ele>
        <time>2010-01-01T00:03:09Z</time>
      </trkpt>
      <trkpt lat="63.67571890" lon="-19.4599797">
        <ele>355.00000</ele>
        <time>2010-01-01T00:03:10Z</time>
      </trkpt>
      <trkpt lat="63.67570800" lon="-19.4599524">
        <ele>355.39999</ele>
        <time>2010-01-01T00:03:11Z</time>
      </trkpt>
      <trkpt lat="63.67569170" lon="-19.4599250">
        <ele>355.60000</ele>
        <time>2010-01-01T00:03:11Z</time>
      </trkpt>
      <trkpt lat="63.67567870" lon="-19.4598821">
        <ele>355.79998</ele>
        <time>2010-01-01T00:03:12Z</time>
      </trkpt>
      <trkpt lat="63.67567670" lon="-19.4598423">
        <ele>356.20001</ele>
        <time>2010-01-01T00:03:13Z</time>
      </trkpt>
      <trkpt lat="63.67567920" lon="-19.4597952">
        <ele>356.60000</ele>
        <time>2010-01-01T00:03:14Z</time>
      </trkpt>
      <trkpt lat="63.67568770" lon="-19.4597519">
        <ele>357.00000</ele>
        <time>2010-01-01T00:03:15Z</time>
      </trkpt>
      <trkpt lat="63.67569490" lon="-19.4597218">
        <ele>357.60000</ele>
        <time>2010-01-01T00:03:15Z</time>
      </trkpt>
      <trkpt lat="63.67570740" lon="-19.4596857">
        <ele>358.00000</ele>
        <time>2010-01-01T00:03:16Z</time>
      </trkpt>
      <trkpt lat="63.67571910" lon="-19.4596407">
        <ele>358.39999</ele>
        <time>2010-01-01T00:03:17Z</time>
      </trkpt>
      <trkpt lat="63.67573150" lon="-19.4595973">
        <ele>358.79998</ele>
        <time>2010-01-01T00:03:18Z</time>
      </trkpt>
      <trkpt lat="63.67574360" lon="-19.4595535">
        <ele>359.20001</ele>
        <time>2010-01-01T00:03:19Z</time>
      </trkpt>
      <trkpt lat="63.67575520" lon="-19.4594947">
        <ele>359.60000</ele>
        <time>2010-01-01T00:03:20Z</time>
      </trkpt>
      <trkpt lat="63.67576260" lon="-19.4594258">
        <ele>359.60000</ele>
        <time>2010-01-01T00:03:21Z</time>
      </trkpt>
      <trkpt lat="63.67577340" lon="-19.4593678">
        <ele>359.60000</ele>
        <time>2010-01-01T00:03:22Z</time>
      </trkpt>
      <trkpt lat="63.67577940" lon="-19.4592928">
        <ele>359.60000</ele>
        <time>2010-01-01T00:03:24Z</time>
      </trkpt>
      <trkpt lat="63.67578390" lon="-19.4592334">
        <ele>359.60000</ele>
        <time>2010-01-01T00:03:25Z</time>
      </trkpt>
      <trkpt lat="63.67578710" lon="-19.4591797">
        <ele>359.39999</ele>
        <time>2010-01-01T00:03:26Z</time>
      </trkpt>
      <trkpt lat="63.67579620" lon="-19.4590893">
        <ele>359.39999</ele>
        <time>2010-01-01T00:03:27Z</time>
      </trkpt>
      <trkpt lat="63.67580740" lon="-19.4590452">
        <ele>359.39999</ele>
        <time>2010-01-01T00:03:28Z</time>
      </trkpt>
      <trkpt lat="63.67582440" lon="-19.4589833">
        <ele>359.60000</ele>
        <time>2010-01-01T00:03:30Z</time>
      </trkpt>
      <trkpt lat="63.67583530" lon="-19.4589477">
        <ele>359.60000</ele>
        <time>2010-01-01T00:03:30Z</time>
      </trkpt>
      <trkpt lat="63.67584230" lon="-19.4589120">
        <ele>359.60000</ele>
        <time>2010-01-01T00:03:31Z</time>
      </trkpt>
      <trkpt lat="63.67585390" lon="-19.4588857">
        <ele>359.60000</ele>
        <time>2010-01-01T00:03:32Z</time>
      </trkpt>
      <trkpt lat="63.67586170" lon="-19.4588576">
        <ele>359.60000</ele>
        <time>2010-01-01T00:03:32Z</time>
      </trkpt>
      <trkpt lat="63.67587090" lon="-19.4588217">
        <ele>360.00000</ele>
        <time>2010-01-01T00:03:33Z</time>
      </trkpt>
      <trkpt lat="63.67587560" lon="-19.4588002">
        <ele>360.39999</ele>
        <time>2010-01-01T00:03:34Z</time>
      </trkpt>
      <trkpt lat="63.67588230" lon="-19.4587791">
        <ele>360.79998</ele>
        <time>2010-01-01T00:03:34Z</time>
      </trkpt>
      <trkpt lat="63.67588860" lon="-19.4587595">
        <ele>361.20001</ele>
        <time>2010-01-01T00:03:34Z</time>
      </trkpt>
      <trkpt lat="63.67589390" lon="-19.4587395">
        <ele>361.60000</ele>
        <time>2010-01-01T00:03:35Z</time>
      </trkpt>
      <trkpt lat="63.67589950" lon="-19.4587203">
        <ele>362.00000</ele>
        <time>2010-01-01T00:03:35Z</time>
      </trkpt>
      <trkpt lat="63.67590800" lon="-19.4586898">
        <ele>362.60000</ele>
        <time>2010-01-01T00:03:36Z</time>
      </trkpt>
      <trkpt lat="63.67592180" lon="-19.4586344">
        <ele>363.00000</ele>
        <time>2010-01-01T00:03:37Z</time>
      </trkpt>
      <trkpt lat="63.67593060" lon="-19.4586115">
        <ele>363.60000</ele>
        <time>2010-01-01T00:03:38Z</time>
      </trkpt>
      <trkpt lat="63.67593710" lon="-19.4585883">
        <ele>363.60000</ele>
        <time>2010-01-01T00:03:38Z</time>
      </trkpt>
      <trkpt lat="63.67594940" lon="-19.4585366">
        <ele>364.00000</ele>
        <time>2010-01-01T00:03:39Z</time>
      </trkpt>
      <trkpt lat="63.67595830" lon="-19.4585140">
        <ele>364.39999</ele>
        <time>2010-01-01T00:03:40Z</time>
      </trkpt>
      <trkpt lat="63.67597250" lon="-19.4584928">
        <ele>364.79998</ele>
        <time>2010-01-01T00:03:40Z</time>
      </trkpt>
      <trkpt lat="63.67598640" lon="-19.4584744">
        <ele>365.20001</ele>
        <time>2010-01-01T00:03:41Z</time>
      </trkpt>
      <trkpt lat="63.67599270" lon="-19.4584292">
        <ele>365.60000</ele>
        <time>2010-01-01T00:03:42Z</time>
      </trkpt>
      <trkpt lat="63.67598630" lon="-19.4583959">
        <ele>365.60000</ele>
        <time>2010-01-01T00:03:42Z</time>
      </trkpt>
      <trkpt lat="63.67598450" lon="-19.4582771">
        <ele>365.60000</ele>
        <time>2010-01-01T00:03:45Z</time>
      </trkpt>
      <trkpt lat="63.67600150" lon="-19.4582369">
        <ele>365.60000</ele>
        <time>2010-01-01T00:03:46Z</time>
      </trkpt>
      <trkpt lat="63.67601090" lon="-19.4582174">
        <ele>366.00000</ele>
        <time>2010-01-01T00:03:46Z</time>
      </trkpt>
      <trkpt lat="63.67601830" lon="-19.4581915">
        <ele>366.39999</ele>
        <time>2010-01-01T00:03:47Z</time>
      </trkpt>
      <trkpt lat="63.67602340" lon="-19.4581707">
        <ele>366.79998</ele>
        <time>2010-01-01T00:03:47Z</time>
      </trkpt>
      <trkpt lat="63.67602460" lon="-19.4581391">
        <ele>367.20001</ele>
        <time>2010-01-01T00:03:48Z</time>
      </trkpt>
      <trkpt lat="63.67602390" lon="-19.4581180">
        <ele>367.60000</ele>
        <time>2010-01-01T00:03:48Z</time>
      </trkpt>
      <trkpt lat="63.67601610" lon="-19.4580911">
        <ele>367.60000</ele>
        <time>2010-01-01T00:03:49Z</time>
      </trkpt>
      <trkpt lat="63.67600410" lon="-19.4580702">
        <ele>367.79998</ele>
        <time>2010-01-01T00:03:49Z</time>
      </trkpt>
      <trkpt lat="63.67599570" lon="-19.4580391">
        <ele>367.60000</ele>
        <time>2010-01-01T00:03:50Z</time>
      </trkpt>
      <trkpt lat="63.67599880" lon="-19.4579434">
        <ele>367.79998</ele>
        <time>2010-01-01T00:03:51Z</time>
      </trkpt>
      <trkpt lat="63.67600520" lon="-19.4579156">
        <ele>368.20001</ele>
        <time>2010-01-01T00:03:52Z</time>
      </trkpt>
      <trkpt lat="63.67601110" lon="-19.4578827">
        <ele>368.60000</ele>
        <time>2010-01-01T00:03:53Z</time>
      </trkpt>
      <trkpt lat="63.67601730" lon="-19.4578552">
        <ele>369.00000</ele>
        <time>2010-01-01T00:03:53Z</time>
      </trkpt>
      <trkpt lat="63.67602060" lon="-19.4578229">
        <ele>369.39999</ele>
        <time>2010-01-01T00:03:54Z</time>
      </trkpt>
      <trkpt lat="63.67601350" lon="-19.4577729">
        <ele>369.79998</ele>
        <time>2010-01-01T00:03:55Z</time>
      </trkpt>
      <trkpt lat="63.67600710" lon="-19.4577480">
        <ele>369.79998</ele>
        <time>2010-01-01T00:03:55Z</time>
      </trkpt>
      <trkpt lat="63.67597880" lon="-19.4576438">
        <ele>370.00000</ele>
        <time>2010-01-01T00:03:57Z</time>
      </trkpt>
      <trkpt lat="63.67597490" lon="-19.4576176">
        <ele>370.39999</ele>
        <time>2010-01-01T00:03:58Z</time>
      </trkpt>
      <trkpt lat="63.67597110" lon="-19.4575885">
        <ele>370.79998</ele>
        <time>2010-01-01T00:03:58Z</time>
      </trkpt>
      <trkpt lat="63.67596700" lon="-19.4575589">
        <ele>371.20001</ele>
        <time>2010-01-01T00:03:59Z</time>
      </trkpt>
      <trkpt lat="63.67596570" lon="-19.4575271">
        <ele>371.60000</ele>
        <time>2010-01-01T00:04:00Z</time>
      </trkpt>
      <trkpt lat="63.67596280" lon="-19.4574892">
        <ele>371.79998</ele>
        <time>2010-01-01T00:04:00Z</time>
      </trkpt>
      <trkpt lat="63.67596090" lon="-19.4573574">
        <ele>371.79998</ele>
        <time>2010-01-01T00:04:03Z</time>
      </trkpt>
      <trkpt lat="63.67596220" lon="-19.4573231">
        <ele>372.20001</ele>
        <time>2010-01-01T00:04:03Z</time>
      </trkpt>
      <trkpt lat="63.67596180" lon="-19.4572934">
        <ele>372.60000</ele>
        <time>2010-01-01T00:04:04Z</time>
      </trkpt>
      <trkpt lat="63.67596100" lon="-19.4572668">
        <ele>373.20001</ele>
        <time>2010-01-01T00:04:04Z</time>
      </trkpt>
      <trkpt lat="63.67595550" lon="-19.4572435">
        <ele>373.60000</ele>
        <time>2010-01-01T00:04:05Z</time>
      </trkpt>
      <trkpt lat="63.67594490" lon="-19.4572329">
        <ele>373.79998</ele>
        <time>2010-01-01T00:04:05Z</time>
      </trkpt>
      <trkpt lat="63.67591980" lon="-19.4572006">
        <ele>373.79998</ele>
        <time>2010-01-01T00:04:06Z</time>
      </trkpt>
      <trkpt lat="63.67586710" lon="-19.4571080">
        <ele>374.20001</ele>
        <time>2010-01-01T00:04:09Z</time>
      </trkpt>
      <trkpt lat="63.67586340" lon="-19.4570839">
        <ele>374.60000</ele>
        <time>2010-01-01T00:04:09Z</time>
      </trkpt>
      <trkpt lat="63.67585590" lon="-19.4570648">
        <ele>375.00000</ele>
        <time>2010-01-01T00:04:10Z</time>
      </trkpt>
      <trkpt lat="63.67584470" lon="-19.4570528">
        <ele>375.39999</ele>
        <time>2010-01-01T00:04:10Z</time>
      </trkpt>
      <trkpt lat="63.67583410" lon="-19.4570163">
        <ele>376.00000</ele>
        <time>2010-01-01T00:04:11Z</time>
      </trkpt>
      <trkpt lat="63.67583030" lon="-19.4569731">
        <ele>376.00000</ele>
        <time>2010-01-01T00:04:12Z</time>
      </trkpt>
      <trkpt lat="63.67581980" lon="-19.4569263">
        <ele>376.20001</ele>
        <time>2010-01-01T00:04:13Z</time>
      </trkpt>
      <trkpt lat="63.67582160" lon="-19.4568964">
        <ele>376.60000</ele>
        <time>2010-01-01T00:04:13Z</time>
      </trkpt>
      <trkpt lat="63.67581980" lon="-19.4568684">
        <ele>377.00000</ele>
        <time>2010-01-01T00:04:14Z</time>
      </trkpt>
      <trkpt lat="63.67581510" lon="-19.4568347">
        <ele>377.39999</ele>
        <time>2010-01-01T00:04:15Z</time>
      </trkpt>
      <trkpt lat="63.67581370" lon="-19.4568009">
        <ele>377.79998</ele>
        <time>2010-01-01T00:04:15Z</time>
      </trkpt>
      <trkpt lat="63.67582660" lon="-19.4567247">
        <ele>377.79998</ele>
        <time>2010-01-01T00:04:17Z</time>
      </trkpt>
      <trkpt lat="63.67582280" lon="-19.4566891">
        <ele>377.79998</ele>
        <time>2010-01-01T00:04:17Z</time>
      </trkpt>
      <trkpt lat="63.67581060" lon="-19.4566315">
        <ele>377.79998</ele>
        <time>2010-01-01T00:04:18Z</time>
      </trkpt>
      <trkpt lat="63.67579510" lon="-19.4565830">
        <ele>377.79998</ele>
        <time>2010-01-01T00:04:19Z</time>
      </trkpt>
      <trkpt lat="63.67578540" lon="-19.4565395">
        <ele>377.79998</ele>
        <time>2010-01-01T00:04:20Z</time>
      </trkpt>
      <trkpt lat="63.67577930" lon="-19.4564785">
        <ele>377.79998</ele>
        <time>2010-01-01T00:04:21Z</time>
      </trkpt>
      <trkpt lat="63.67578290" lon="-19.4564173">
        <ele>377.79998</ele>
        <time>2010-01-01T00:04:22Z</time>
      </trkpt>
      <trkpt lat="63.67578720" lon="-19.4563466">
        <ele>377.79998</ele>
        <time>2010-01-01T00:04:24Z</time>
      </trkpt>
      <trkpt lat="63.67577360" lon="-19.4562742">
        <ele>377.79998</ele>
        <time>2010-01-01T00:04:25Z</time>
      </trkpt>
      <trkpt lat="63.67576160" lon="-19.4562218">
        <ele>377.79998</ele>
        <time>2010-01-01T00:04:26Z</time>
      </trkpt>
      <trkpt lat="63.67574820" lon="-19.4561765">
        <ele>377.79998</ele>
        <time>2010-01-01T00:04:27Z</time>
      </trkpt>
      <trkpt lat="63.67574240" lon="-19.4561388">
        <ele>377.79998</ele>
        <time>2010-01-01T00:04:28Z</time>
      </trkpt>
      <trkpt lat="63.67573530" lon="-19.4560791">
        <ele>377.79998</ele>
        <time>2010-01-01T00:04:29Z</time>
      </trkpt>
      <trkpt lat="63.67573060" lon="-19.4560231">
        <ele>377.79998</ele>
        <time>2010-01-01T00:04:30Z</time>
      </trkpt>
      <trkpt lat="63.67572080" lon="-19.4559659">
        <ele>377.79998</ele>
        <time>2010-01-01T00:04:31Z</time>
      </trkpt>
      <trkpt lat="63.67571460" lon="-19.4558975">
        <ele>377.79998</ele>
        <time>2010-01-01T00:04:32Z</time>
      </trkpt>
      <trkpt lat="63.67571710" lon="-19.4558448">
        <ele>377.79998</ele>
        <time>2010-01-01T00:04:33Z</time>
      </trkpt>
      <trkpt lat="63.67570680" lon="-19.4557858">
        <ele>377.79998</ele>
        <time>2010-01-01T00:04:34Z</time>
      </trkpt>
      <trkpt lat="63.67569460" lon="-19.4557365">
        <ele>377.79998</ele>
        <time>2010-01-01T00:04:35Z</time>
      </trkpt>
      <trkpt lat="63.67569050" lon="-19.4556883">
        <ele>377.79998</ele>
        <time>2010-01-01T00:04:36Z</time>
      </trkpt>
      <trkpt lat="63.67569790" lon="-19.4556379">
        <ele>377.79998</ele>
        <time>2010-01-01T00:04:37Z</time>
      </trkpt>
      <trkpt lat="63.67569020" lon="-19.4555872">
        <ele>377.79998</ele>
        <time>2010-01-01T00:04:38Z</time>
      </trkpt>
      <trkpt lat="63.67568090" lon="-19.4555527">
        <ele>377.79998</ele>
        <time>2010-01-01T00:04:39Z</time>
      </trkpt>
      <trkpt lat="63.67567840" lon="-19.4555130">
        <ele>378.00000</ele>
        <time>2010-01-01T00:04:40Z</time>
      </trkpt>
      <trkpt lat="63.67566750" lon="-19.4554686">
        <ele>377.79998</ele>
        <time>2010-01-01T00:04:40Z</time>
      </trkpt>
      <trkpt lat="63.67564570" lon="-19.4554173">
        <ele>378.00000</ele>
        <time>2010-01-01T00:04:42Z</time>
      </trkpt>
      <trkpt lat="63.67563210" lon="-19.4553859">
        <ele>378.39999</ele>
        <time>2010-01-01T00:04:43Z</time>
      </trkpt>
      <trkpt lat="63.67560970" lon="-19.4553482">
        <ele>378.79998</ele>
        <time>2010-01-01T00:04:44Z</time>
      </trkpt>
      <trkpt lat="63.67558930" lon="-19.4552949">
        <ele>379.20001</ele>
        <time>2010-01-01T00:04:45Z</time>
      </trkpt>
      <trkpt lat="63.67557190" lon="-19.4552612">
        <ele>379.60000</ele>
        <time>2010-01-01T00:04:46Z</time>
      </trkpt>
      <trkpt lat="63.67554860" lon="-19.4552425">
        <ele>379.79998</ele>
        <time>2010-01-01T00:04:47Z</time>
      </trkpt>
      <trkpt lat="63.67553170" lon="-19.4552066">
        <ele>379.79998</ele>
        <time>2010-01-01T00:04:48Z</time>
      </trkpt>
      <trkpt lat="63.67552440" lon="-19.4551592">
        <ele>379.79998</ele>
        <time>2010-01-01T00:04:49Z</time>
      </trkpt>
      <trkpt lat="63.67550900" lon="-19.4550751">
        <ele>380.00000</ele>
        <time>2010-01-01T00:04:50Z</time>
      </trkpt>
      <trkpt lat="63.67548660" lon="-19.4550327">
        <ele>379.79998</ele>
        <time>2010-01-01T00:04:51Z</time>
      </trkpt>
      <trkpt lat="63.67546560" lon="-19.4550018">
        <ele>380.39999</ele>
        <time>2010-01-01T00:04:52Z</time>
      </trkpt>
      <trkpt lat="63.67544320" lon="-19.4549585">
        <ele>380.79998</ele>
        <time>2010-01-01T00:04:54Z</time>
      </trkpt>
      <trkpt lat="63.67542720" lon="-19.4549168">
        <ele>381.20001</ele>
        <time>2010-01-01T00:04:55Z</time>
      </trkpt>
      <trkpt lat="63.67540460" lon="-19.4548725">
        <ele>381.39999</ele>
        <time>2010-01-01T00:04:56Z</time>
      </trkpt>
      <trkpt lat="63.67538040" lon="-19.4548274">
        <ele>381.79998</ele>
        <time>2010-01-01T00:04:57Z</time>
      </trkpt>
      <trkpt lat="63.67536960" lon="-19.4547925">
        <ele>381.79998</ele>
        <time>2010-01-01T00:04:58Z</time>
      </trkpt>
      <trkpt lat="63.67535930" lon="-19.4547732">
        <ele>381.79998</ele>
        <time>2010-01-01T00:04:58Z</time>
      </trkpt>
      <trkpt lat="63.67534470" lon="-19.4547734">
        <ele>381.79998</ele>
        <time>2010-01-01T00:04:59Z</time>
      </trkpt>
      <trkpt lat="63.67530590" lon="-19.4547421">
        <ele>382.00000</ele>
        <time>2010-01-01T00:05:01Z</time>
      </trkpt>
      <trkpt lat="63.67530560" lon="-19.4547399">
        <ele>381.79998</ele>
        <time>2010-01-01T00:05:01Z</time>
      </trkpt>
      <trkpt lat="63.67530070" lon="-19.4547258">
        <ele>382.60000</ele>
        <time>2010-01-01T00:05:01Z</time>
      </trkpt>
      <trkpt lat="63.67529850" lon="-19.4547094">
        <ele>382.79998</ele>
        <time>2010-01-01T00:05:01Z</time>
      </trkpt>
      <trkpt lat="63.67529910" lon="-19.4547003">
        <ele>383.39999</ele>
        <time>2010-01-01T00:05:01Z</time>
      </trkpt>
      <trkpt lat="63.67528860" lon="-19.4546897">
        <ele>383.60000</ele>
        <time>2010-01-01T00:05:02Z</time>
      </trkpt>
      <trkpt lat="63.67528190" lon="-19.4546843">
        <ele>384.00000</ele>
        <time>2010-01-01T00:05:02Z</time>
      </trkpt>
      <trkpt lat="63.67526830" lon="-19.4546690">
        <ele>384.20001</ele>
        <time>2010-01-01T00:05:03Z</time>
      </trkpt>
      <trkpt lat="63.67526320" lon="-19.4546622">
        <ele>384.60000</ele>
        <time>2010-01-01T00:05:03Z</time>
      </trkpt>
      <trkpt lat="63.67525890" lon="-19.4546575">
        <ele>385.00000</ele>
        <time>2010-01-01T00:05:03Z</time>
      </trkpt>
      <trkpt lat="63.67525380" lon="-19.4546581">
        <ele>385.39999</ele>
        <time>2010-01-01T00:05:03Z</time>
      </trkpt>
      <trkpt lat="63.67525000" lon="-19.4546545">
        <ele>385.79998</ele>
        <time>2010-01-01T00:05:04Z</time>
      </trkpt>
      <trkpt lat="63.67523900" lon="-19.4546378">
        <ele>386.20001</ele>
        <time>2010-01-01T00:05:04Z</time>
      </trkpt>
      <trkpt lat="63.67523150" lon="-19.4546451">
        <ele>386.79998</ele>
        <time>2010-01-01T00:05:04Z</time>
      </trkpt>
      <trkpt lat="63.67521940" lon="-19.4546429">
        <ele>387.20001</ele>
        <time>2010-01-01T00:05:05Z</time>
      </trkpt>
      <trkpt lat="63.67520900" lon="-19.4546420">
        <ele>387.60000</ele>
        <time>2010-01-01T00:05:05Z</time>
      </trkpt>
      <trkpt lat="63.67519510" lon="-19.4546305">
        <ele>388.00000</ele>
        <time>2010-01-01T00:05:06Z</time>
      </trkpt>
      <trkpt lat="63.67517870" lon="-19.4545959">
        <ele>388.39999</ele>
        <time>2010-01-01T00:05:07Z</time>
      </trkpt>
      <trkpt lat="63.67517290" lon="-19.4545802">
        <ele>388.79998</ele>
        <time>2010-01-01T00:05:07Z</time>
      </trkpt>
      <trkpt lat="63.67516750" lon="-19.4545588">
        <ele>389.20001</ele>
        <time>2010-01-01T00:05:08Z</time>
      </trkpt>
      <trkpt lat="63.67516250" lon="-19.4545452">
        <ele>389.60000</ele>
        <time>2010-01-01T00:05:08Z</time>
      </trkpt>
      <trkpt lat="63.67515460" lon="-19.4545376">
        <ele>390.00000</ele>
        <time>2010-01-01T00:05:08Z</time>
      </trkpt>
      <trkpt lat="63.67514680" lon="-19.4545360">
        <ele>390.00000</ele>
        <time>2010-01-01T00:05:09Z</time>
      </trkpt>
      <trkpt lat="63.67513410" lon="-19.4545351">
        <ele>390.20001</ele>
        <time>2010-01-01T00:05:09Z</time>
      </trkpt>
      <trkpt lat="63.67512320" lon="-19.4545332">
        <ele>390.60000</ele>
        <time>2010-01-01T00:05:09Z</time>
      </trkpt>
      <trkpt lat="63.67511300" lon="-19.4545294">
        <ele>391.00000</ele>
        <time>2010-01-01T00:05:10Z</time>
      </trkpt>
      <trkpt lat="63.67510370" lon="-19.4545261">
        <ele>391.60000</ele>
        <time>2010-01-01T00:05:10Z</time>
      </trkpt>
      <trkpt lat="63.67509610" lon="-19.4545311">
        <ele>392.00000</ele>
        <time>2010-01-01T00:05:11Z</time>
      </trkpt>
      <trkpt lat="63.67508830" lon="-19.4545389">
        <ele>392.20001</ele>
        <time>2010-01-01T00:05:11Z</time>
      </trkpt>
      <trkpt lat="63.67508220" lon="-19.4545440">
        <ele>392.79998</ele>
        <time>2010-01-01T00:05:11Z</time>
      </trkpt>
      <trkpt lat="63.67507300" lon="-19.4545549">
        <ele>393.20001</ele>
        <time>2010-01-01T00:05:12Z</time>
      </trkpt>
      <trkpt lat="63.67506760" lon="-19.4545612">
        <ele>393.60000</ele>
        <time>2010-01-01T00:05:12Z</time>
      </trkpt>
      <trkpt lat="63.67505990" lon="-19.4545746">
        <ele>393.79998</ele>
        <time>2010-01-01T00:05:12Z</time>
      </trkpt>
      <trkpt lat="63.67504670" lon="-19.4546094">
        <ele>394.20001</ele>
        <time>2010-01-01T00:05:13Z</time>
      </trkpt>
      <trkpt lat="63.67502970" lon="-19.4546363">
        <ele>394.20001</ele>
        <time>2010-01-01T00:05:14Z</time>
      </trkpt>
      <trkpt lat="63.67502400" lon="-19.4546376">
        <ele>394.20001</ele>
        <time>2010-01-01T00:05:14Z</time>
      </trkpt>
      <trkpt lat="63.67499290" lon="-19.4546428">
        <ele>394.60000</ele>
        <time>2010-01-01T00:05:15Z</time>
      </trkpt>
      <trkpt lat="63.67498430" lon="-19.4546477">
        <ele>395.00000</ele>
        <time>2010-01-01T00:05:16Z</time>
      </trkpt>
      <trkpt lat="63.67497090" lon="-19.4546306">
        <ele>395.39999</ele>
        <time>2010-01-01T00:05:16Z</time>
      </trkpt>
      <trkpt lat="63.67495360" lon="-19.4546121">
        <ele>396.00000</ele>
        <time>2010-01-01T00:05:17Z</time>
      </trkpt>
      <trkpt lat="63.67494940" lon="-19.4545744">
        <ele>396.39999</ele>
        <time>2010-01-01T00:05:18Z</time>
      </trkpt>
      <trkpt lat="63.67493630" lon="-19.4545448">
        <ele>396.39999</ele>
        <time>2010-01-01T00:05:19Z</time>
      </trkpt>
      <trkpt lat="63.67493090" lon="-19.4545255">
        <ele>396.39999</ele>
        <time>2010-01-01T00:05:19Z</time>
      </trkpt>
      <trkpt lat="63.67492750" lon="-19.4545114">
        <ele>397.00000</ele>
        <time>2010-01-01T00:05:19Z</time>
      </trkpt>
      <trkpt lat="63.67492120" lon="-19.4544840">
        <ele>397.60000</ele>
        <time>2010-01-01T00:05:20Z</time>
      </trkpt>
      <trkpt lat="63.67491530" lon="-19.4544685">
        <ele>398.00000</ele>
        <time>2010-01-01T00:05:20Z</time>
      </trkpt>
      <trkpt lat="63.67490760" lon="-19.4544632">
        <ele>398.39999</ele>
        <time>2010-01-01T00:05:20Z</time>
      </trkpt>
      <trkpt lat="63.67489910" lon="-19.4544484">
        <ele>399.00000</ele>
        <time>2010-01-01T00:05:21Z</time>
      </trkpt>
      <trkpt lat="63.67489210" lon="-19.4544192">
        <ele>399.60000</ele>
        <time>2010-01-01T00:05:21Z</time>
      </trkpt>
      <trkpt lat="63.67488800" lon="-19.4543960">
        <ele>400.20001</ele>
        <time>2010-01-01T00:05:22Z</time>
      </trkpt>
      <trkpt lat="63.67488240" lon="-19.4543753">
        <ele>400.60000</ele>
        <time>2010-01-01T00:05:22Z</time>
      </trkpt>
      <trkpt lat="63.67487730" lon="-19.4543494">
        <ele>401.00000</ele>
        <time>2010-01-01T00:05:23Z</time>
      </trkpt>
      <trkpt lat="63.67487240" lon="-19.4543346">
        <ele>401.39999</ele>
        <time>2010-01-01T00:05:23Z</time>
      </trkpt>
      <trkpt lat="63.67486760" lon="-19.4543240">
        <ele>401.79998</ele>
        <time>2010-01-01T00:05:23Z</time>
      </trkpt>
      <trkpt lat="63.67486190" lon="-19.4543152">
        <ele>402.20001</ele>
        <time>2010-01-01T00:05:24Z</time>
      </trkpt>
      <trkpt lat="63.67486240" lon="-19.4543184">
        <ele>402.79998</ele>
        <time>2010-01-01T00:05:24Z</time>
      </trkpt>
      <trkpt lat="63.67485330" lon="-19.4543053">
        <ele>403.20001</ele>
        <time>2010-01-01T00:05:24Z</time>
      </trkpt>
      <trkpt lat="63.67493610" lon="-19.4539796">
        <ele>410.79998</ele>
        <time>2010-01-01T00:05:31Z</time>
      </trkpt>
      <trkpt lat="63.67493680" lon="-19.4539424">
        <ele>411.20001</ele>
        <time>2010-01-01T00:05:32Z</time>
      </trkpt>
      <trkpt lat="63.67493200" lon="-19.4539146">
        <ele>411.20001</ele>
        <time>2010-01-01T00:05:32Z</time>
      </trkpt>
      <trkpt lat="63.67492210" lon="-19.4538863">
        <ele>411.39999</ele>
        <time>2010-01-01T00:05:33Z</time>
      </trkpt>
      <trkpt lat="63.67490740" lon="-19.4538595">
        <ele>411.39999</ele>
        <time>2010-01-01T00:05:33Z</time>
      </trkpt>
      <trkpt lat="63.67489570" lon="-19.4538312">
        <ele>411.60000</ele>
        <time>2010-01-01T00:05:34Z</time>
      </trkpt>
      <trkpt lat="63.67488260" lon="-19.4537779">
        <ele>412.00000</ele>
        <time>2010-01-01T00:05:35Z</time>
      </trkpt>
      <trkpt lat="63.67486990" lon="-19.4537262">
        <ele>412.39999</ele>
        <time>2010-01-01T00:05:36Z</time>
      </trkpt>
      <trkpt lat="63.67485360" lon="-19.4536853">
        <ele>412.79998</ele>
        <time>2010-01-01T00:05:37Z</time>
      </trkpt>
      <trkpt lat="63.67483550" lon="-19.4536494">
        <ele>413.20001</ele>
        <time>2010-01-01T00:05:38Z</time>
      </trkpt>
      <trkpt lat="63.67481730" lon="-19.4536172">
        <ele>413.39999</ele>
        <time>2010-01-01T00:05:39Z</time>
      </trkpt>
      <trkpt lat="63.67480080" lon="-19.4535703">
        <ele>413.39999</ele>
        <time>2010-01-01T00:05:40Z</time>
      </trkpt>
      <trkpt lat="63.67478370" lon="-19.4535345">
        <ele>413.39999</ele>
        <time>2010-01-01T00:05:41Z</time>
      </trkpt>
      <trkpt lat="63.67476820" lon="-19.4534943">
        <ele>413.20001</ele>
        <time>2010-01-01T00:05:42Z</time>
      </trkpt>
      <trkpt lat="63.67474950" lon="-19.4534485">
        <ele>413.79998</ele>
        <time>2010-01-01T00:05:43Z</time>
      </trkpt>
      <trkpt lat="63.67473310" lon="-19.4534095">
        <ele>414.20001</ele>
        <time>2010-01-01T00:05:44Z</time>
      </trkpt>
      <trkpt lat="63.67471520" lon="-19.4533698">
        <ele>414.60000</ele>
        <time>2010-01-01T00:05:45Z</time>
      </trkpt>
      <trkpt lat="63.67470020" lon="-19.4533227">
        <ele>415.00000</ele>
        <time>2010-01-01T00:05:46Z</time>
      </trkpt>
      <trkpt lat="63.67468040" lon="-19.4532926">
        <ele>415.20001</ele>
        <time>2010-01-01T00:05:47Z</time>
      </trkpt>
      <trkpt lat="63.67465750" lon="-19.4532593">
        <ele>415.39999</ele>
        <time>2010-01-01T00:05:48Z</time>
      </trkpt>
      <trkpt lat="63.67463560" lon="-19.4532162">
        <ele>415.39999</ele>
        <time>2010-01-01T00:05:49Z</time>
      </trkpt>
      <trkpt lat="63.67461880" lon="-19.4531759">
        <ele>415.39999</ele>
        <time>2010-01-01T00:05:50Z</time>
      </trkpt>
      <trkpt lat="63.67460470" lon="-19.4531360">
        <ele>415.60000</ele>
        <time>2010-01-01T00:05:51Z</time>
      </trkpt>
      <trkpt lat="63.67458740" lon="-19.4530986">
        <ele>416.00000</ele>
        <time>2010-01-01T00:05:52Z</time>
      </trkpt>
      <trkpt lat="63.67457080" lon="-19.4530702">
        <ele>416.39999</ele>
        <time>2010-01-01T00:05:53Z</time>
      </trkpt>
      <trkpt lat="63.67455090" lon="-19.4530361">
        <ele>416.79998</ele>
        <time>2010-01-01T00:05:54Z</time>
      </trkpt>
      <trkpt lat="63.67452830" lon="-19.4529984">
        <ele>417.20001</ele>
        <time>2010-01-01T00:05:55Z</time>
      </trkpt>
      <trkpt lat="63.67451340" lon="-19.4529580">
        <ele>417.39999</ele>
        <time>2010-01-01T00:05:56Z</time>
      </trkpt>
      <trkpt lat="63.67449630" lon="-19.4529176">
        <ele>417.39999</ele>
        <time>2010-01-01T00:05:57Z</time>
      </trkpt>
      <trkpt lat="63.67447870" lon="-19.4528788">
        <ele>417.39999</ele>
        <time>2010-01-01T00:05:58Z</time>
      </trkpt>
      <trkpt lat="63.67446620" lon="-19.4528363">
        <ele>417.60000</ele>
        <time>2010-01-01T00:05:59Z</time>
      </trkpt>
      <trkpt lat="63.67445170" lon="-19.4527828">
        <ele>418.00000</ele>
        <time>2010-01-01T00:06:00Z</time>
      </trkpt>
      <trkpt lat="63.67444150" lon="-19.4527342">
        <ele>418.39999</ele>
        <time>2010-01-01T00:06:01Z</time>
      </trkpt>
      <trkpt lat="63.67442970" lon="-19.4526753">
        <ele>419.00000</ele>
        <time>2010-01-01T00:06:02Z</time>
      </trkpt>
      <trkpt lat="63.67441860" lon="-19.4526231">
        <ele>419.39999</ele>
        <time>2010-01-01T00:06:03Z</time>
      </trkpt>
      <trkpt lat="63.67440610" lon="-19.4525752">
        <ele>419.39999</ele>
        <time>2010-01-01T00:06:04Z</time>
      </trkpt>
      <trkpt lat="63.67439970" lon="-19.4525338">
        <ele>419.39999</ele>
        <time>2010-01-01T00:06:05Z</time>
      </trkpt>
      <trkpt lat="63.67438960" lon="-19.4524666">
        <ele>419.39999</ele>
        <time>2010-01-01T00:06:06Z</time>
      </trkpt>
      <trkpt lat="63.67437070" lon="-19.4524192">
        <ele>419.79998</ele>
        <time>2010-01-01T00:06:07Z</time>
      </trkpt>
      <trkpt lat="63.67434830" lon="-19.4523529">
        <ele>420.20001</ele>
        <time>2010-01-01T00:06:09Z</time>
      </trkpt>
      <trkpt lat="63.67433040" lon="-19.4522936">
        <ele>420.60000</ele>
        <time>2010-01-01T00:06:10Z</time>
      </trkpt>
      <trkpt lat="63.67430660" lon="-19.4521950">
        <ele>421.00000</ele>
        <time>2010-01-01T00:06:12Z</time>
      </trkpt>
      <trkpt lat="63.67428900" lon="-19.4521289">
        <ele>421.20001</ele>
        <time>2010-01-01T00:06:14Z</time>
      </trkpt>
      <trkpt lat="63.67427190" lon="-19.4520599">
        <ele>421.39999</ele>
        <time>2010-01-01T00:06:15Z</time>
      </trkpt>
      <trkpt lat="63.67426260" lon="-19.4520074">
        <ele>421.39999</ele>
        <time>2010-01-01T00:06:16Z</time>
      </trkpt>
      <trkpt lat="63.67425150" lon="-19.4519628">
        <ele>421.39999</ele>
        <time>2010-01-01T00:06:17Z</time>
      </trkpt>
      <trkpt lat="63.67423440" lon="-19.4518764">
        <ele>421.39999</ele>
        <time>2010-01-01T00:06:18Z</time>
      </trkpt>
      <trkpt lat="63.67423280" lon="-19.4518383">
        <ele>421.39999</ele>
        <time>2010-01-01T00:06:19Z</time>
      </trkpt>
      <trkpt lat="63.67422820" lon="-19.4517835">
        <ele>421.39999</ele>
        <time>2010-01-01T00:06:20Z</time>
      </trkpt>
      <trkpt lat="63.67422150" lon="-19.4517333">
        <ele>421.39999</ele>
        <time>2010-01-01T00:06:21Z</time>
      </trkpt>
      <trkpt lat="63.67421430" lon="-19.4516948">
        <ele>421.39999</ele>
        <time>2010-01-01T00:06:22Z</time>
      </trkpt>
      <trkpt lat="63.67420650" lon="-19.4516524">
        <ele>421.39999</ele>
        <time>2010-01-01T00:06:23Z</time>
      </trkpt>
      <trkpt lat="63.67420000" lon="-19.4516042">
        <ele>421.39999</ele>
        <time>2010-01-01T00:06:24Z</time>
      </trkpt>
      <trkpt lat="63.67419320" lon="-19.4515677">
        <ele>421.60000</ele>
        <time>2010-01-01T00:06:24Z</time>
      </trkpt>
      <trkpt lat="63.67418440" lon="-19.4515400">
        <ele>421.39999</ele>
        <time>2010-01-01T00:06:25Z</time>
      </trkpt>
      <trkpt lat="63.67417650" lon="-19.4515064">
        <ele>421.39999</ele>
        <time>2010-01-01T00:06:26Z</time>
      </trkpt>
      <trkpt lat="63.67416660" lon="-19.4514003">
        <ele>421.39999</ele>
        <time>2010-01-01T00:06:27Z</time>
      </trkpt>
      <trkpt lat="63.67416080" lon="-19.4513434">
        <ele>421.39999</ele>
        <time>2010-01-01T00:06:28Z</time>
      </trkpt>
      <trkpt lat="63.67416050" lon="-19.4513034">
        <ele>421.39999</ele>
        <time>2010-01-01T00:06:29Z</time>
      </trkpt>
      <trkpt lat="63.67416100" lon="-19.4512806">
        <ele>420.79998</ele>
        <time>2010-01-01T00:06:30Z</time>
      </trkpt>
      <trkpt lat="63.67415720" lon="-19.4512571">
        <ele>420.39999</ele>
        <time>2010-01-01T00:06:30Z</time>
      </trkpt>
      <trkpt lat="63.67414550" lon="-19.4512358">
        <ele>420.00000</ele>
        <time>2010-01-01T00:06:31Z</time>
      </trkpt>
      <trkpt lat="63.67412670" lon="-19.4512024">
        <ele>419.60000</ele>
        <time>2010-01-01T00:06:32Z</time>
      </trkpt>
      <trkpt lat="63.67411930" lon="-19.4511605">
        <ele>419.39999</ele>
        <time>2010-01-01T00:06:32Z</time>
      </trkpt>
      <trkpt lat="63.67412010" lon="-19.4510209">
        <ele>419.20001</ele>
        <time>2010-01-01T00:06:35Z</time>
      </trkpt>
      <trkpt lat="63.67410950" lon="-19.4509688">
        <ele>418.79998</ele>
        <time>2010-01-01T00:06:36Z</time>
      </trkpt>
      <trkpt lat="63.67409620" lon="-19.4509388">
        <ele>418.39999</ele>
        <time>2010-01-01T00:06:37Z</time>
      </trkpt>
      <trkpt lat="63.67408430" lon="-19.4508953">
        <ele>418.00000</ele>
        <time>2010-01-01T00:06:38Z</time>
      </trkpt>
      <trkpt lat="63.67407240" lon="-19.4508433">
        <ele>417.60000</ele>
        <time>2010-01-01T00:06:39Z</time>
      </trkpt>
      <trkpt lat="63.67405590" lon="-19.4507815">
        <ele>417.20001</ele>
        <time>2010-01-01T00:06:40Z</time>
      </trkpt>
      <trkpt lat="63.67405130" lon="-19.4506632">
        <ele>417.20001</ele>
        <time>2010-01-01T00:06:42Z</time>
      </trkpt>
      <trkpt lat="63.67405110" lon="-19.4506054">
        <ele>416.79998</ele>
        <time>2010-01-01T00:06:43Z</time>
      </trkpt>
      <trkpt lat="63.67404260" lon="-19.4505414">
        <ele>416.39999</ele>
        <time>2010-01-01T00:06:44Z</time>
      </trkpt>
      <trkpt lat="63.67403230" lon="-19.4505152">
        <ele>416.00000</ele>
        <time>2010-01-01T00:06:45Z</time>
      </trkpt>
      <trkpt lat="63.67401650" lon="-19.4505091">
        <ele>415.60000</ele>
        <time>2010-01-01T00:06:45Z</time>
      </trkpt>
      <trkpt lat="63.67400450" lon="-19.4505052">
        <ele>415.39999</ele>
        <time>2010-01-01T00:06:46Z</time>
      </trkpt>
      <trkpt lat="63.67399850" lon="-19.4505044">
        <ele>415.20001</ele>
        <time>2010-01-01T00:06:46Z</time>
      </trkpt>
      <trkpt lat="63.67399040" lon="-19.4505186">
        <ele>415.39999</ele>
        <time>2010-01-01T00:06:47Z</time>
      </trkpt>
      <trkpt lat="63.67397510" lon="-19.4505141">
        <ele>415.79998</ele>
        <time>2010-01-01T00:06:47Z</time>
      </trkpt>
      <trkpt lat="63.67397700" lon="-19.4504757">
        <ele>416.39999</ele>
        <time>2010-01-01T00:06:48Z</time>
      </trkpt>
      <trkpt lat="63.67397620" lon="-19.4504313">
        <ele>416.79998</ele>
        <time>2010-01-01T00:06:49Z</time>
      </trkpt>
      <trkpt lat="63.67397100" lon="-19.4503633">
        <ele>417.20001</ele>
        <time>2010-01-01T00:06:50Z</time>
      </trkpt>
      <trkpt lat="63.67397020" lon="-19.4503159">
        <ele>417.60000</ele>
        <time>2010-01-01T00:06:51Z</time>
      </trkpt>
      <trkpt lat="63.67395660" lon="-19.4502597">
        <ele>417.60000</ele>
        <time>2010-01-01T00:06:52Z</time>
      </trkpt>
      <trkpt lat="63.67394820" lon="-19.4501984">
        <ele>417.60000</ele>
        <time>2010-01-01T00:06:53Z</time>
      </trkpt>
      <trkpt lat="63.67394160" lon="-19.4501326">
        <ele>417.60000</ele>
        <time>2010-01-01T00:06:54Z</time>
      </trkpt>
      <trkpt lat="63.67392380" lon="-19.4500652">
        <ele>417.20001</ele>
        <time>2010-01-01T00:06:56Z</time>
      </trkpt>
      <trkpt lat="63.67390940" lon="-19.4500136">
        <ele>416.79998</ele>
        <time>2010-01-01T00:06:57Z</time>
      </trkpt>
      <trkpt lat="63.67389620" lon="-19.4499612">
        <ele>416.20001</ele>
        <time>2010-01-01T00:06:58Z</time>
      </trkpt>
      <trkpt lat="63.67389400" lon="-19.4499140">
        <ele>416.00000</ele>
        <time>2010-01-01T00:06:59Z</time>
      </trkpt>
      <trkpt lat="63.67389210" lon="-19.4498609">
        <ele>415.60000</ele>
        <time>2010-01-01T00:07:00Z</time>
      </trkpt>
      <trkpt lat="63.67388920" lon="-19.4497950">
        <ele>415.39999</ele>
        <time>2010-01-01T00:07:01Z</time>
      </trkpt>
      <trkpt lat="63.67388020" lon="-19.4497334">
        <ele>415.39999</ele>
        <time>2010-01-01T00:07:02Z</time>
      </trkpt>
      <trkpt lat="63.67387540" lon="-19.4496869">
        <ele>415.60000</ele>
        <time>2010-01-01T00:07:03Z</time>
      </trkpt>
      <trkpt lat="63.67386160" lon="-19.4496414">
        <ele>415.60000</ele>
        <time>2010-01-01T00:07:04Z</time>
      </trkpt>
      <trkpt lat="63.67384010" lon="-19.4495890">
        <ele>415.60000</ele>
        <time>2010-01-01T00:07:05Z</time>
      </trkpt>
      <trkpt lat="63.67382110" lon="-19.4495431">
        <ele>415.60000</ele>
        <time>2010-01-01T00:07:06Z</time>
      </trkpt>
      <trkpt lat="63.67380150" lon="-19.4495088">
        <ele>415.60000</ele>
        <time>2010-01-01T00:07:07Z</time>
      </trkpt>
      <trkpt lat="63.67380470" lon="-19.4494647">
        <ele>415.60000</ele>
        <time>2010-01-01T00:07:08Z</time>
      </trkpt>
      <trkpt lat="63.67379840" lon="-19.4494279">
        <ele>415.60000</ele>
        <time>2010-01-01T00:07:09Z</time>
      </trkpt>
      <trkpt lat="63.67379550" lon="-19.4493984">
        <ele>415.60000</ele>
        <time>2010-01-01T00:07:09Z</time>
      </trkpt>
      <trkpt lat="63.67379160" lon="-19.4493715">
        <ele>415.60000</ele>
        <time>2010-01-01T00:07:10Z</time>
      </trkpt>
      <trkpt lat="63.67377210" lon="-19.4493077">
        <ele>415.60000</ele>
        <time>2010-01-01T00:07:11Z</time>
      </trkpt>
      <trkpt lat="63.67377200" lon="-19.4492751">
        <ele>416.20001</ele>
        <time>2010-01-01T00:07:12Z</time>
      </trkpt>
      <trkpt lat="63.67377050" lon="-19.4492568">
        <ele>416.60000</ele>
        <time>2010-01-01T00:07:12Z</time>
      </trkpt>
      <trkpt lat="63.67376400" lon="-19.4492371">
        <ele>417.20001</ele>
        <time>2010-01-01T00:07:12Z</time>
      </trkpt>
      <trkpt lat="63.67375630" lon="-19.4492195">
        <ele>417.60000</ele>
        <time>2010-01-01T00:07:13Z</time>
      </trkpt>
      <trkpt lat="63.67374920" lon="-19.4492095">
        <ele>418.00000</ele>
        <time>2010-01-01T00:07:13Z</time>
      </trkpt>
      <trkpt lat="63.67374440" lon="-19.4491977">
        <ele>418.39999</ele>
        <time>2010-01-01T00:07:13Z</time>
      </trkpt>
      <trkpt lat="63.67373940" lon="-19.4491831">
        <ele>418.79998</ele>
        <time>2010-01-01T00:07:14Z</time>
      </trkpt>
      <trkpt lat="63.67373630" lon="-19.4491740">
        <ele>419.00000</ele>
        <time>2010-01-01T00:07:14Z</time>
      </trkpt>
      <trkpt lat="63.67372190" lon="-19.4491168">
        <ele>419.39999</ele>
        <time>2010-01-01T00:07:15Z</time>
      </trkpt>
      <trkpt lat="63.67368840" lon="-19.4490219">
        <ele>421.39999</ele>
        <time>2010-01-01T00:07:17Z</time>
      </trkpt>
      <trkpt lat="63.67368370" lon="-19.4489905">
        <ele>421.60000</ele>
        <time>2010-01-01T00:07:18Z</time>
      </trkpt>
      <trkpt lat="63.67367820" lon="-19.4489586">
        <ele>422.20001</ele>
        <time>2010-01-01T00:07:18Z</time>
      </trkpt>
      <trkpt lat="63.67367180" lon="-19.4489268">
        <ele>422.60000</ele>
        <time>2010-01-01T00:07:19Z</time>
      </trkpt>
      <trkpt lat="63.67366470" lon="-19.4489158">
        <ele>423.00000</ele>
        <time>2010-01-01T00:07:19Z</time>
      </trkpt>
      <trkpt lat="63.67365250" lon="-19.4488997">
        <ele>423.60000</ele>
        <time>2010-01-01T00:07:20Z</time>
      </trkpt>
      <trkpt lat="63.67364110" lon="-19.4488907">
        <ele>424.00000</ele>
        <time>2010-01-01T00:07:20Z</time>
      </trkpt>
      <trkpt lat="63.67360500" lon="-19.4488631">
        <ele>424.39999</ele>
        <time>2010-01-01T00:07:22Z</time>
      </trkpt>
      <trkpt lat="63.67359270" lon="-19.4488532">
        <ele>424.79998</ele>
        <time>2010-01-01T00:07:23Z</time>
      </trkpt>
      <trkpt lat="63.67358100" lon="-19.4488463">
        <ele>425.20001</ele>
        <time>2010-01-01T00:07:23Z</time>
      </trkpt>
      <trkpt lat="63.67356570" lon="-19.4488375">
        <ele>425.60000</ele>
        <time>2010-01-01T00:07:24Z</time>
      </trkpt>
      <trkpt lat="63.67355180" lon="-19.4488301">
        <ele>426.00000</ele>
        <time>2010-01-01T00:07:24Z</time>
      </trkpt>
      <trkpt lat="63.67351750" lon="-19.4488066">
        <ele>426.39999</ele>
        <time>2010-01-01T00:07:26Z</time>
      </trkpt>
      <trkpt lat="63.67350580" lon="-19.4487901">
        <ele>426.79998</ele>
        <time>2010-01-01T00:07:26Z</time>
      </trkpt>
      <trkpt lat="63.67349570" lon="-19.4487630">
        <ele>427.20001</ele>
        <time>2010-01-01T00:07:27Z</time>
      </trkpt>
      <trkpt lat="63.67348510" lon="-19.4487112">
        <ele>427.60000</ele>
        <time>2010-01-01T00:07:28Z</time>
      </trkpt>
      <trkpt lat="63.67347490" lon="-19.4486499">
        <ele>428.00000</ele>
        <time>2010-01-01T00:07:29Z</time>
      </trkpt>
      <trkpt lat="63.67345890" lon="-19.4485724">
        <ele>428.00000</ele>
        <time>2010-01-01T00:07:31Z</time>
      </trkpt>
      <trkpt lat="63.67344510" lon="-19.4485100">
        <ele>428.00000</ele>
        <time>2010-01-01T00:07:32Z</time>
      </trkpt>
      <trkpt lat="63.67342120" lon="-19.4484655">
        <ele>428.00000</ele>
        <time>2010-01-01T00:07:33Z</time>
      </trkpt>
      <trkpt lat="63.67341670" lon="-19.4484078">
        <ele>428.00000</ele>
        <time>2010-01-01T00:07:34Z</time>
      </trkpt>
      <trkpt lat="63.67342550" lon="-19.4483516">
        <ele>428.00000</ele>
        <time>2010-01-01T00:07:35Z</time>
      </trkpt>
      <trkpt lat="63.67342440" lon="-19.4483020">
        <ele>428.00000</ele>
        <time>2010-01-01T00:07:36Z</time>
      </trkpt>
      <trkpt lat="63.67341930" lon="-19.4482363">
        <ele>428.00000</ele>
        <time>2010-01-01T00:07:37Z</time>
      </trkpt>
      <trkpt lat="63.67342280" lon="-19.4481862">
        <ele>428.00000</ele>
        <time>2010-01-01T00:07:38Z</time>
      </trkpt>
      <trkpt lat="63.67342030" lon="-19.4481335">
        <ele>428.00000</ele>
        <time>2010-01-01T00:07:39Z</time>
      </trkpt>
      <trkpt lat="63.67340690" lon="-19.4480822">
        <ele>428.00000</ele>
        <time>2010-01-01T00:07:40Z</time>
      </trkpt>
      <trkpt lat="63.67340180" lon="-19.4480426">
        <ele>428.00000</ele>
        <time>2010-01-01T00:07:41Z</time>
      </trkpt>
      <trkpt lat="63.67339540" lon="-19.4479976">
        <ele>428.00000</ele>
        <time>2010-01-01T00:07:42Z</time>
      </trkpt>
      <trkpt lat="63.67340010" lon="-19.4479734">
        <ele>428.00000</ele>
        <time>2010-01-01T00:07:42Z</time>
      </trkpt>
      <trkpt lat="63.67340660" lon="-19.4479479">
        <ele>428.00000</ele>
        <time>2010-01-01T00:07:43Z</time>
      </trkpt>
      <trkpt lat="63.67341140" lon="-19.4479212">
        <ele>428.20001</ele>
        <time>2010-01-01T00:07:43Z</time>
      </trkpt>
      <trkpt lat="63.67341350" lon="-19.4478970">
        <ele>428.60000</ele>
        <time>2010-01-01T00:07:44Z</time>
      </trkpt>
      <trkpt lat="63.67341150" lon="-19.4478696">
        <ele>429.20001</ele>
        <time>2010-01-01T00:07:44Z</time>
      </trkpt>
      <trkpt lat="63.67340900" lon="-19.4478503">
        <ele>429.39999</ele>
        <time>2010-01-01T00:07:44Z</time>
      </trkpt>
      <trkpt lat="63.67340330" lon="-19.4478213">
        <ele>429.79998</ele>
        <time>2010-01-01T00:07:45Z</time>
      </trkpt>
      <trkpt lat="63.67339920" lon="-19.4477975">
        <ele>430.20001</ele>
        <time>2010-01-01T00:07:45Z</time>
      </trkpt>
      <trkpt lat="63.67339790" lon="-19.4477722">
        <ele>430.60000</ele>
        <time>2010-01-01T00:07:46Z</time>
      </trkpt>
      <trkpt lat="63.67340000" lon="-19.4477390">
        <ele>431.00000</ele>
        <time>2010-01-01T00:07:46Z</time>
      </trkpt>
      <trkpt lat="63.67340220" lon="-19.4477170">
        <ele>431.39999</ele>
        <time>2010-01-01T00:07:47Z</time>
      </trkpt>
      <trkpt lat="63.67340140" lon="-19.4476999">
        <ele>431.79998</ele>
        <time>2010-01-01T00:07:47Z</time>
      </trkpt>
      <trkpt lat="63.67339850" lon="-19.4476753">
        <ele>432.20001</ele>
        <time>2010-01-01T00:07:48Z</time>
      </trkpt>
      <trkpt lat="63.67339390" lon="-19.4476536">
        <ele>432.20001</ele>
        <time>2010-01-01T00:07:48Z</time>
      </trkpt>
      <trkpt lat="63.67339190" lon="-19.4476308">
        <ele>432.60000</ele>
        <time>2010-01-01T00:07:48Z</time>
      </trkpt>
      <trkpt lat="63.67339080" lon="-19.4476033">
        <ele>433.00000</ele>
        <time>2010-01-01T00:07:49Z</time>
      </trkpt>
      <trkpt lat="63.67339060" lon="-19.4475883">
        <ele>433.39999</ele>
        <time>2010-01-01T00:07:49Z</time>
      </trkpt>
      <trkpt lat="63.67339170" lon="-19.4475743">
        <ele>433.79998</ele>
        <time>2010-01-01T00:07:49Z</time>
      </trkpt>
      <trkpt lat="63.67339060" lon="-19.4475540">
        <ele>434.20001</ele>
        <time>2010-01-01T00:07:50Z</time>
      </trkpt>
      <trkpt lat="63.67338860" lon="-19.4475348">
        <ele>434.60000</ele>
        <time>2010-01-01T00:07:50Z</time>
      </trkpt>
      <trkpt lat="63.67338590" lon="-19.4475207">
        <ele>435.00000</ele>
        <time>2010-01-01T00:07:50Z</time>
      </trkpt>
      <trkpt lat="63.67338130" lon="-19.4474968">
        <ele>435.39999</ele>
        <time>2010-01-01T00:07:51Z</time>
      </trkpt>
      <trkpt lat="63.67337420" lon="-19.4474775">
        <ele>435.79998</ele>
        <time>2010-01-01T00:07:51Z</time>
      </trkpt>
      <trkpt lat="63.67336760" lon="-19.4474616">
        <ele>436.20001</ele>
        <time>2010-01-01T00:07:52Z</time>
      </trkpt>
      <trkpt lat="63.67336590" lon="-19.4474462">
        <ele>436.39999</ele>
        <time>2010-01-01T00:07:52Z</time>
      </trkpt>
      <trkpt lat="63.67336330" lon="-19.4474314">
        <ele>436.60000</ele>
        <time>2010-01-01T00:07:52Z</time>
      </trkpt>
      <trkpt lat="63.67336030" lon="-19.4474037">
        <ele>437.00000</ele>
        <time>2010-01-01T00:07:53Z</time>
      </trkpt>
      <trkpt lat="63.67335910" lon="-19.4473755">
        <ele>437.60000</ele>
        <time>2010-01-01T00:07:53Z</time>
      </trkpt>
      <trkpt lat="63.67335030" lon="-19.4473588">
        <ele>438.00000</ele>
        <time>2010-01-01T00:07:54Z</time>
      </trkpt>
      <trkpt lat="63.67334930" lon="-19.4473378">
        <ele>438.39999</ele>
        <time>2010-01-01T00:07:54Z</time>
      </trkpt>
      <trkpt lat="63.67334770" lon="-19.4473113">
        <ele>438.60000</ele>
        <time>2010-01-01T00:07:55Z</time>
      </trkpt>
      <trkpt lat="63.67335020" lon="-19.4472932">
        <ele>438.79998</ele>
        <time>2010-01-01T00:07:55Z</time>
      </trkpt>
      <trkpt lat="63.67335650" lon="-19.4472650">
        <ele>439.20001</ele>
        <time>2010-01-01T00:07:56Z</time>
      </trkpt>
      <trkpt lat="63.67336110" lon="-19.4472460">
        <ele>439.79998</ele>
        <time>2010-01-01T00:07:56Z</time>
      </trkpt>
      <trkpt lat="63.67336020" lon="-19.4472324">
        <ele>440.20001</ele>
        <time>2010-01-01T00:07:56Z</time>
      </trkpt>
      <trkpt lat="63.67336910" lon="-19.4472093">
        <ele>440.60000</ele>
        <time>2010-01-01T00:07:57Z</time>
      </trkpt>
      <trkpt lat="63.67336610" lon="-19.4472053">
        <ele>440.79998</ele>
        <time>2010-01-01T00:07:57Z</time>
      </trkpt>
      <trkpt lat="63.67337400" lon="-19.4472092">
        <ele>441.20001</ele>
        <time>2010-01-01T00:07:57Z</time>
      </trkpt>
      <trkpt lat="63.67337810" lon="-19.4472029">
        <ele>441.60000</ele>
        <time>2010-01-01T00:07:57Z</time>
      </trkpt>
      <trkpt lat="63.67307010" lon="-19.4468206">
        <ele>453.00000</ele>
        <time>2010-01-01T00:08:11Z</time>
      </trkpt>
      <trkpt lat="63.67306220" lon="-19.4467933">
        <ele>453.20001</ele>
        <time>2010-01-01T00:08:12Z</time>
      </trkpt>
      <trkpt lat="63.67303670" lon="-19.4467143">
        <ele>453.39999</ele>
        <time>2010-01-01T00:08:14Z</time>
      </trkpt>
      <trkpt lat="63.67303160" lon="-19.4466864">
        <ele>453.79998</ele>
        <time>2010-01-01T00:08:14Z</time>
      </trkpt>
      <trkpt lat="63.67302740" lon="-19.4466651">
        <ele>454.39999</ele>
        <time>2010-01-01T00:08:15Z</time>
      </trkpt>
      <trkpt lat="63.67301810" lon="-19.4466472">
        <ele>454.60000</ele>
        <time>2010-01-01T00:08:15Z</time>
      </trkpt>
      <trkpt lat="63.67300410" lon="-19.4466078">
        <ele>455.20001</ele>
        <time>2010-01-01T00:08:16Z</time>
      </trkpt>
      <trkpt lat="63.67299290" lon="-19.4465795">
        <ele>455.39999</ele>
        <time>2010-01-01T00:08:17Z</time>
      </trkpt>
      <trkpt lat="63.67294330" lon="-19.4464419">
        <ele>455.39999</ele>
        <time>2010-01-01T00:08:20Z</time>
      </trkpt>
      <trkpt lat="63.67288620" lon="-19.4463531">
        <ele>455.39999</ele>
        <time>2010-01-01T00:08:23Z</time>
      </trkpt>
      <trkpt lat="63.67286190" lon="-19.4463137">
        <ele>456.00000</ele>
        <time>2010-01-01T00:08:24Z</time>
      </trkpt>
      <trkpt lat="63.67284200" lon="-19.4462840">
        <ele>456.39999</ele>
        <time>2010-01-01T00:08:25Z</time>
      </trkpt>
      <trkpt lat="63.67282130" lon="-19.4462502">
        <ele>456.79998</ele>
        <time>2010-01-01T00:08:26Z</time>
      </trkpt>
      <trkpt lat="63.67280570" lon="-19.4462173">
        <ele>457.20001</ele>
        <time>2010-01-01T00:08:27Z</time>
      </trkpt>
      <trkpt lat="63.67278810" lon="-19.4461888">
        <ele>457.60000</ele>
        <time>2010-01-01T00:08:28Z</time>
      </trkpt>
      <trkpt lat="63.67277200" lon="-19.4461773">
        <ele>458.00000</ele>
        <time>2010-01-01T00:08:28Z</time>
      </trkpt>
      <trkpt lat="63.67275170" lon="-19.4461623">
        <ele>458.39999</ele>
        <time>2010-01-01T00:08:29Z</time>
      </trkpt>
      <trkpt lat="63.67273530" lon="-19.4461447">
        <ele>459.00000</ele>
        <time>2010-01-01T00:08:30Z</time>
      </trkpt>
      <trkpt lat="63.67271740" lon="-19.4461194">
        <ele>459.20001</ele>
        <time>2010-01-01T00:08:31Z</time>
      </trkpt>
      <trkpt lat="63.67269500" lon="-19.4460836">
        <ele>459.60000</ele>
        <time>2010-01-01T00:08:32Z</time>
      </trkpt>
      <trkpt lat="63.67268000" lon="-19.4460500">
        <ele>460.00000</ele>
        <time>2010-01-01T00:08:33Z</time>
      </trkpt>
      <trkpt lat="63.67266990" lon="-19.4460249">
        <ele>460.39999</ele>
        <time>2010-01-01T00:08:33Z</time>
      </trkpt>
      <trkpt lat="63.67265140" lon="-19.4459918">
        <ele>460.79998</ele>
        <time>2010-01-01T00:08:34Z</time>
      </trkpt>
      <trkpt lat="63.67263590" lon="-19.4459725">
        <ele>461.20001</ele>
        <time>2010-01-01T00:08:35Z</time>
      </trkpt>
      <trkpt lat="63.67261830" lon="-19.4459444">
        <ele>461.60000</ele>
        <time>2010-01-01T00:08:36Z</time>
      </trkpt>
      <trkpt lat="63.67259870" lon="-19.4459119">
        <ele>461.60000</ele>
        <time>2010-01-01T00:08:37Z</time>
      </trkpt>
      <trkpt lat="63.67258440" lon="-19.4458823">
        <ele>461.60000</ele>
        <time>2010-01-01T00:08:38Z</time>
      </trkpt>
      <trkpt lat="63.67257280" lon="-19.4458566">
        <ele>461.79998</ele>
        <time>2010-01-01T00:08:38Z</time>
      </trkpt>
      <trkpt lat="63.67255300" lon="-19.4458215">
        <ele>462.20001</ele>
        <time>2010-01-01T00:08:39Z</time>
      </trkpt>
      <trkpt lat="63.67253530" lon="-19.4457930">
        <ele>462.60000</ele>
        <time>2010-01-01T00:08:40Z</time>
      </trkpt>
      <trkpt lat="63.67251800" lon="-19.4457632">
        <ele>463.20001</ele>
        <time>2010-01-01T00:08:41Z</time>
      </trkpt>
      <trkpt lat="63.67250230" lon="-19.4457286">
        <ele>463.60000</ele>
        <time>2010-01-01T00:08:42Z</time>
      </trkpt>
      <trkpt lat="63.67248430" lon="-19.4456991">
        <ele>463.79998</ele>
        <time>2010-01-01T00:08:43Z</time>
      </trkpt>
      <trkpt lat="63.67247350" lon="-19.4456755">
        <ele>463.79998</ele>
        <time>2010-01-01T00:08:43Z</time>
      </trkpt>
      <trkpt lat="63.67245520" lon="-19.4456303">
        <ele>464.00000</ele>
        <time>2010-01-01T00:08:44Z</time>
      </trkpt>
      <trkpt lat="63.67243160" lon="-19.4456020">
        <ele>464.60000</ele>
        <time>2010-01-01T00:08:45Z</time>
      </trkpt>
      <trkpt lat="63.67241610" lon="-19.4455649">
        <ele>465.00000</ele>
        <time>2010-01-01T00:08:46Z</time>
      </trkpt>
      <trkpt lat="63.67240200" lon="-19.4455188">
        <ele>465.39999</ele>
        <time>2010-01-01T00:08:47Z</time>
      </trkpt>
      <trkpt lat="63.67238920" lon="-19.4454881">
        <ele>465.79998</ele>
        <time>2010-01-01T00:08:48Z</time>
      </trkpt>
      <trkpt lat="63.67237080" lon="-19.4454551">
        <ele>466.00000</ele>
        <time>2010-01-01T00:08:49Z</time>
      </trkpt>
      <trkpt lat="63.67235320" lon="-19.4454039">
        <ele>466.00000</ele>
        <time>2010-01-01T00:08:50Z</time>
      </trkpt>
      <trkpt lat="63.67234180" lon="-19.4453561">
        <ele>466.00000</ele>
        <time>2010-01-01T00:08:51Z</time>
      </trkpt>
      <trkpt lat="63.67232760" lon="-19.4453076">
        <ele>466.00000</ele>
        <time>2010-01-01T00:08:52Z</time>
      </trkpt>
      <trkpt lat="63.67232010" lon="-19.4452583">
        <ele>466.39999</ele>
        <time>2010-01-01T00:08:53Z</time>
      </trkpt>
      <trkpt lat="63.67230920" lon="-19.4451987">
        <ele>466.79998</ele>
        <time>2010-01-01T00:08:54Z</time>
      </trkpt>
      <trkpt lat="63.67230600" lon="-19.4451624">
        <ele>467.20001</ele>
        <time>2010-01-01T00:08:55Z</time>
      </trkpt>
      <trkpt lat="63.67229950" lon="-19.4451213">
        <ele>467.79998</ele>
        <time>2010-01-01T00:08:56Z</time>
      </trkpt>
      <trkpt lat="63.67229030" lon="-19.4450851">
        <ele>468.00000</ele>
        <time>2010-01-01T00:08:56Z</time>
      </trkpt>
      <trkpt lat="63.67228790" lon="-19.4450486">
        <ele>468.20001</ele>
        <time>2010-01-01T00:08:57Z</time>
      </trkpt>
      <trkpt lat="63.67228450" lon="-19.4449868">
        <ele>468.00000</ele>
        <time>2010-01-01T00:08:58Z</time>
      </trkpt>
      <trkpt lat="63.67227800" lon="-19.4448998">
        <ele>468.39999</ele>
        <time>2010-01-01T00:09:00Z</time>
      </trkpt>
      <trkpt lat="63.67226950" lon="-19.4448159">
        <ele>468.79998</ele>
        <time>2010-01-01T00:09:01Z</time>
      </trkpt>
      <trkpt lat="63.67226410" lon="-19.4447687">
        <ele>469.00000</ele>
        <time>2010-01-01T00:09:02Z</time>
      </trkpt>
      <trkpt lat="63.67225920" lon="-19.4447076">
        <ele>469.39999</ele>
        <time>2010-01-01T00:09:03Z</time>
      </trkpt>
      <trkpt lat="63.67225060" lon="-19.4446524">
        <ele>469.79998</ele>
        <time>2010-01-01T00:09:04Z</time>
      </trkpt>
      <trkpt lat="63.67224480" lon="-19.4446031">
        <ele>470.20001</ele>
        <time>2010-01-01T00:09:05Z</time>
      </trkpt>
      <trkpt lat="63.67222150" lon="-19.4444111">
        <ele>470.20001</ele>
        <time>2010-01-01T00:09:09Z</time>
      </trkpt>
      <trkpt lat="63.67221210" lon="-19.4443515">
        <ele>470.20001</ele>
        <time>2010-01-01T00:09:10Z</time>
      </trkpt>
      <trkpt lat="63.67219880" lon="-19.4443046">
        <ele>470.20001</ele>
        <time>2010-01-01T00:09:11Z</time>
      </trkpt>
      <trkpt lat="63.67219150" lon="-19.4442527">
        <ele>470.60000</ele>
        <time>2010-01-01T00:09:12Z</time>
      </trkpt>
      <trkpt lat="63.67219090" lon="-19.4441975">
        <ele>470.79998</ele>
        <time>2010-01-01T00:09:13Z</time>
      </trkpt>
      <trkpt lat="63.67218830" lon="-19.4441377">
        <ele>471.20001</ele>
        <time>2010-01-01T00:09:14Z</time>
      </trkpt>
      <trkpt lat="63.67218630" lon="-19.4440885">
        <ele>471.60000</ele>
        <time>2010-01-01T00:09:15Z</time>
      </trkpt>
      <trkpt lat="63.67217850" lon="-19.4440301">
        <ele>472.00000</ele>
        <time>2010-01-01T00:09:16Z</time>
      </trkpt>
      <trkpt lat="63.67216460" lon="-19.4439898">
        <ele>472.20001</ele>
        <time>2010-01-01T00:09:17Z</time>
      </trkpt>
      <trkpt lat="63.67215310" lon="-19.4439577">
        <ele>472.20001</ele>
        <time>2010-01-01T00:09:17Z</time>
      </trkpt>
      <trkpt lat="63.67212460" lon="-19.4438896">
        <ele>472.20001</ele>
        <time>2010-01-01T00:09:19Z</time>
      </trkpt>
      <trkpt lat="63.67210660" lon="-19.4438431">
        <ele>472.20001</ele>
        <time>2010-01-01T00:09:20Z</time>
      </trkpt>
      <trkpt lat="63.67208150" lon="-19.4437787">
        <ele>472.20001</ele>
        <time>2010-01-01T00:09:22Z</time>
      </trkpt>
      <trkpt lat="63.67206800" lon="-19.4437210">
        <ele>472.00000</ele>
        <time>2010-01-01T00:09:23Z</time>
      </trkpt>
      <trkpt lat="63.67204190" lon="-19.4436558">
        <ele>471.79998</ele>
        <time>2010-01-01T00:09:24Z</time>
      </trkpt>
      <trkpt lat="63.67202880" lon="-19.4436385">
        <ele>471.39999</ele>
        <time>2010-01-01T00:09:25Z</time>
      </trkpt>
      <trkpt lat="63.67200730" lon="-19.4436185">
        <ele>471.00000</ele>
        <time>2010-01-01T00:09:26Z</time>
      </trkpt>
      <trkpt lat="63.67198570" lon="-19.4436162">
        <ele>470.39999</ele>
        <time>2010-01-01T00:09:27Z</time>
      </trkpt>
      <trkpt lat="63.67196850" lon="-19.4436246">
        <ele>469.79998</ele>
        <time>2010-01-01T00:09:28Z</time>
      </trkpt>
      <trkpt lat="63.67193740" lon="-19.4436163">
        <ele>469.20001</ele>
        <time>2010-01-01T00:09:29Z</time>
      </trkpt>
      <trkpt lat="63.67192380" lon="-19.4436046">
        <ele>468.79998</ele>
        <time>2010-01-01T00:09:29Z</time>
      </trkpt>
      <trkpt lat="63.67190440" lon="-19.4435961">
        <ele>468.20001</ele>
        <time>2010-01-01T00:09:30Z</time>
      </trkpt>
      <trkpt lat="63.67187380" lon="-19.4436048">
        <ele>468.20001</ele>
        <time>2010-01-01T00:09:31Z</time>
      </trkpt>
      <trkpt lat="63.67185380" lon="-19.4436033">
        <ele>468.60000</ele>
        <time>2010-01-01T00:09:32Z</time>
      </trkpt>
      <trkpt lat="63.67182740" lon="-19.4436032">
        <ele>469.00000</ele>
        <time>2010-01-01T00:09:33Z</time>
      </trkpt>
      <trkpt lat="63.67180210" lon="-19.4435960">
        <ele>469.39999</ele>
        <time>2010-01-01T00:09:34Z</time>
      </trkpt>
      <trkpt lat="63.67177940" lon="-19.4435986">
        <ele>469.79998</ele>
        <time>2010-01-01T00:09:35Z</time>
      </trkpt>
      <trkpt lat="63.67176520" lon="-19.4435871">
        <ele>470.20001</ele>
        <time>2010-01-01T00:09:36Z</time>
      </trkpt>
      <trkpt lat="63.67174660" lon="-19.4435424">
        <ele>470.20001</ele>
        <time>2010-01-01T00:09:37Z</time>
      </trkpt>
      <trkpt lat="63.67172570" lon="-19.4435178">
        <ele>470.20001</ele>
        <time>2010-01-01T00:09:38Z</time>
      </trkpt>
      <trkpt lat="63.67170360" lon="-19.4435252">
        <ele>470.20001</ele>
        <time>2010-01-01T00:09:39Z</time>
      </trkpt>
      <trkpt lat="63.67168800" lon="-19.4435164">
        <ele>470.20001</ele>
        <time>2010-01-01T00:09:39Z</time>
      </trkpt>
      <trkpt lat="63.67167920" lon="-19.4435110">
        <ele>470.20001</ele>
        <time>2010-01-01T00:09:40Z</time>
      </trkpt>
      <trkpt lat="63.67167490" lon="-19.4435321">
        <ele>470.20001</ele>
        <time>2010-01-01T00:09:40Z</time>
      </trkpt>
      <trkpt lat="63.67166650" lon="-19.4435982">
        <ele>470.20001</ele>
        <time>2010-01-01T00:09:41Z</time>
      </trkpt>
      <trkpt lat="63.67165930" lon="-19.4436436">
        <ele>470.00000</ele>
        <time>2010-01-01T00:09:42Z</time>
      </trkpt>
      <trkpt lat="63.67165830" lon="-19.4436964">
        <ele>470.00000</ele>
        <time>2010-01-01T00:09:43Z</time>
      </trkpt>
      <trkpt lat="63.67165160" lon="-19.4437367">
        <ele>470.20001</ele>
        <time>2010-01-01T00:09:44Z</time>
      </trkpt>
      <trkpt lat="63.67164060" lon="-19.4438163">
        <ele>470.20001</ele>
        <time>2010-01-01T00:09:45Z</time>
      </trkpt>
      <trkpt lat="63.67162460" lon="-19.4438659">
        <ele>470.20001</ele>
        <time>2010-01-01T00:09:47Z</time>
      </trkpt>
      <trkpt lat="63.67160730" lon="-19.4438970">
        <ele>470.20001</ele>
        <time>2010-01-01T00:09:47Z</time>
      </trkpt>
      <trkpt lat="63.67158960" lon="-19.4439220">
        <ele>470.20001</ele>
        <time>2010-01-01T00:09:48Z</time>
      </trkpt>
      <trkpt lat="63.67157110" lon="-19.4439375">
        <ele>470.39999</ele>
        <time>2010-01-01T00:09:49Z</time>
      </trkpt>
      <trkpt lat="63.67154640" lon="-19.4439529">
        <ele>471.00000</ele>
        <time>2010-01-01T00:09:50Z</time>
      </trkpt>
      <trkpt lat="63.67152500" lon="-19.4439607">
        <ele>471.20001</ele>
        <time>2010-01-01T00:09:51Z</time>
      </trkpt>
      <trkpt lat="63.67149370" lon="-19.4439627">
        <ele>471.60000</ele>
        <time>2010-01-01T00:09:52Z</time>
      </trkpt>
      <trkpt lat="63.67147660" lon="-19.4439710">
        <ele>472.00000</ele>
        <time>2010-01-01T00:09:53Z</time>
      </trkpt>
      <trkpt lat="63.67146310" lon="-19.4439775">
        <ele>472.39999</ele>
        <time>2010-01-01T00:09:53Z</time>
      </trkpt>
      <trkpt lat="63.67144300" lon="-19.4439753">
        <ele>472.39999</ele>
        <time>2010-01-01T00:09:54Z</time>
      </trkpt>
      <trkpt lat="63.67142380" lon="-19.4439699">
        <ele>472.79998</ele>
        <time>2010-01-01T00:09:55Z</time>
      </trkpt>
      <trkpt lat="63.67140390" lon="-19.4439648">
        <ele>473.00000</ele>
        <time>2010-01-01T00:09:56Z</time>
      </trkpt>
      <trkpt lat="63.67135580" lon="-19.4439275">
        <ele>474.20001</ele>
        <time>2010-01-01T00:09:58Z</time>
      </trkpt>
      <trkpt lat="63.67133480" lon="-19.4439066">
        <ele>474.39999</ele>
        <time>2010-01-01T00:09:59Z</time>
      </trkpt>
      <trkpt lat="63.67133800" lon="-19.4438921">
        <ele>475.00000</ele>
        <time>2010-01-01T00:09:59Z</time>
      </trkpt>
      <trkpt lat="63.67132130" lon="-19.4438600">
        <ele>475.60000</ele>
        <time>2010-01-01T00:10:00Z</time>
      </trkpt>
      <trkpt lat="63.67131070" lon="-19.4438425">
        <ele>476.20001</ele>
        <time>2010-01-01T00:10:00Z</time>
      </trkpt>
      <trkpt lat="63.67129640" lon="-19.4438172">
        <ele>476.60000</ele>
        <time>2010-01-01T00:10:01Z</time>
      </trkpt>
      <trkpt lat="63.67129030" lon="-19.4437984">
        <ele>477.20001</ele>
        <time>2010-01-01T00:10:02Z</time>
      </trkpt>
      <trkpt lat="63.67128230" lon="-19.4437789">
        <ele>477.60000</ele>
        <time>2010-01-01T00:10:02Z</time>
      </trkpt>
      <trkpt lat="63.67126910" lon="-19.4437504">
        <ele>477.79998</ele>
        <time>2010-01-01T00:10:03Z</time>
      </trkpt>
      <trkpt lat="63.67126020" lon="-19.4437281">
        <ele>478.39999</ele>
        <time>2010-01-01T00:10:03Z</time>
      </trkpt>
      <trkpt lat="63.67125110" lon="-19.4436665">
        <ele>478.39999</ele>
        <time>2010-01-01T00:10:04Z</time>
      </trkpt>
      <trkpt lat="63.67126890" lon="-19.4436308">
        <ele>478.60000</ele>
        <time>2010-01-01T00:10:05Z</time>
      </trkpt>
      <trkpt lat="63.67127240" lon="-19.4436071">
        <ele>479.00000</ele>
        <time>2010-01-01T00:10:06Z</time>
      </trkpt>
      <trkpt lat="63.67128140" lon="-19.4435836">
        <ele>479.39999</ele>
        <time>2010-01-01T00:10:06Z</time>
      </trkpt>
      <trkpt lat="63.67129280" lon="-19.4435698">
        <ele>479.79998</ele>
        <time>2010-01-01T00:10:07Z</time>
      </trkpt>
      <trkpt lat="63.67130780" lon="-19.4435540">
        <ele>480.20001</ele>
        <time>2010-01-01T00:10:08Z</time>
      </trkpt>
      <trkpt lat="63.67131920" lon="-19.4435368">
        <ele>480.39999</ele>
        <time>2010-01-01T00:10:08Z</time>
      </trkpt>
      <trkpt lat="63.67132210" lon="-19.4435254">
        <ele>480.60000</ele>
        <time>2010-01-01T00:10:08Z</time>
      </trkpt>
      <trkpt lat="63.67131890" lon="-19.4435334">
        <ele>481.00000</ele>
        <time>2010-01-01T00:10:09Z</time>
      </trkpt>
      <trkpt lat="63.67131870" lon="-19.4435360">
        <ele>481.39999</ele>
        <time>2010-01-01T00:10:09Z</time>
      </trkpt>
      <trkpt lat="63.67131770" lon="-19.4435360">
        <ele>481.79998</ele>
        <time>2010-01-01T00:10:09Z</time>
      </trkpt>
      <trkpt lat="63.67133270" lon="-19.4431346">
        <ele>483.39999</ele>
        <time>2010-01-01T00:10:16Z</time>
      </trkpt>
      <trkpt lat="63.67133470" lon="-19.4431210">
        <ele>483.79998</ele>
        <time>2010-01-01T00:10:16Z</time>
      </trkpt>
      <trkpt lat="63.67132930" lon="-19.4430879">
        <ele>484.39999</ele>
        <time>2010-01-01T00:10:17Z</time>
      </trkpt>
      <trkpt lat="63.67132330" lon="-19.4430601">
        <ele>485.00000</ele>
        <time>2010-01-01T00:10:17Z</time>
      </trkpt>
      <trkpt lat="63.67131990" lon="-19.4430341">
        <ele>485.60000</ele>
        <time>2010-01-01T00:10:18Z</time>
      </trkpt>
      <trkpt lat="63.67131550" lon="-19.4430060">
        <ele>486.20001</ele>
        <time>2010-01-01T00:10:18Z</time>
      </trkpt>
      <trkpt lat="63.67131710" lon="-19.4429745">
        <ele>486.60000</ele>
        <time>2010-01-01T00:10:19Z</time>
      </trkpt>
      <trkpt lat="63.67132210" lon="-19.4429390">
        <ele>487.20001</ele>
        <time>2010-01-01T00:10:19Z</time>
      </trkpt>
      <trkpt lat="63.67133210" lon="-19.4429111">
        <ele>487.79998</ele>
        <time>2010-01-01T00:10:20Z</time>
      </trkpt>
      <trkpt lat="63.67134510" lon="-19.4428908">
        <ele>488.20001</ele>
        <time>2010-01-01T00:10:21Z</time>
      </trkpt>
      <trkpt lat="63.67136230" lon="-19.4428688">
        <ele>488.60000</ele>
        <time>2010-01-01T00:10:22Z</time>
      </trkpt>
      <trkpt lat="63.67138490" lon="-19.4428215">
        <ele>488.79998</ele>
        <time>2010-01-01T00:10:23Z</time>
      </trkpt>
      <trkpt lat="63.67139190" lon="-19.4427569">
        <ele>489.00000</ele>
        <time>2010-01-01T00:10:24Z</time>
      </trkpt>
      <trkpt lat="63.67140550" lon="-19.4426694">
        <ele>489.39999</ele>
        <time>2010-01-01T00:10:26Z</time>
      </trkpt>
      <trkpt lat="63.67141480" lon="-19.4426088">
        <ele>489.79998</ele>
        <time>2010-01-01T00:10:27Z</time>
      </trkpt>
      <trkpt lat="63.67142600" lon="-19.4425575">
        <ele>490.20001</ele>
        <time>2010-01-01T00:10:28Z</time>
      </trkpt>
      <trkpt lat="63.67142700" lon="-19.4425187">
        <ele>490.60000</ele>
        <time>2010-01-01T00:10:28Z</time>
      </trkpt>
      <trkpt lat="63.67143070" lon="-19.4424319">
        <ele>490.60000</ele>
        <time>2010-01-01T00:10:30Z</time>
      </trkpt>
      <trkpt lat="63.67143270" lon="-19.4422580">
        <ele>491.00000</ele>
        <time>2010-01-01T00:10:33Z</time>
      </trkpt>
      <trkpt lat="63.67142840" lon="-19.4422360">
        <ele>491.39999</ele>
        <time>2010-01-01T00:10:34Z</time>
      </trkpt>
      <trkpt lat="63.67142760" lon="-19.4422258">
        <ele>491.79998</ele>
        <time>2010-01-01T00:10:34Z</time>
      </trkpt>
      <trkpt lat="63.67142520" lon="-19.4422141">
        <ele>492.20001</ele>
        <time>2010-01-01T00:10:34Z</time>
      </trkpt>
      <trkpt lat="63.67142110" lon="-19.4421948">
        <ele>492.60000</ele>
        <time>2010-01-01T00:10:34Z</time>
      </trkpt>
      <trkpt lat="63.67142380" lon="-19.4421720">
        <ele>492.79998</ele>
        <time>2010-01-01T00:10:35Z</time>
      </trkpt>
      <trkpt lat="63.67142690" lon="-19.4421634">
        <ele>492.79998</ele>
        <time>2010-01-01T00:10:35Z</time>
      </trkpt>
      <trkpt lat="63.67142990" lon="-19.4421528">
        <ele>493.20001</ele>
        <time>2010-01-01T00:10:35Z</time>
      </trkpt>
      <trkpt lat="63.67143630" lon="-19.4421413">
        <ele>493.79998</ele>
        <time>2010-01-01T00:10:35Z</time>
      </trkpt>
      <trkpt lat="63.67144290" lon="-19.4421321">
        <ele>494.00000</ele>
        <time>2010-01-01T00:10:36Z</time>
      </trkpt>
      <trkpt lat="63.67144970" lon="-19.4421268">
        <ele>494.39999</ele>
        <time>2010-01-01T00:10:36Z</time>
      </trkpt>
      <trkpt lat="63.67145370" lon="-19.4421182">
        <ele>494.79998</ele>
        <time>2010-01-01T00:10:36Z</time>
      </trkpt>
      <trkpt lat="63.67145630" lon="-19.4420910">
        <ele>495.00000</ele>
        <time>2010-01-01T00:10:37Z</time>
      </trkpt>
      <trkpt lat="63.67145890" lon="-19.4420776">
        <ele>495.39999</ele>
        <time>2010-01-01T00:10:37Z</time>
      </trkpt>
      <trkpt lat="63.67146270" lon="-19.4420604">
        <ele>495.79998</ele>
        <time>2010-01-01T00:10:37Z</time>
      </trkpt>
      <trkpt lat="63.67146780" lon="-19.4420485">
        <ele>496.20001</ele>
        <time>2010-01-01T00:10:38Z</time>
      </trkpt>
      <trkpt lat="63.67147070" lon="-19.4420474">
        <ele>496.39999</ele>
        <time>2010-01-01T00:10:38Z</time>
      </trkpt>
      <trkpt lat="63.67147110" lon="-19.4420383">
        <ele>496.79998</ele>
        <time>2010-01-01T00:10:38Z</time>
      </trkpt>
      <trkpt lat="63.67156940" lon="-19.4412736">
        <ele>509.60000</ele>
        <time>2010-01-01T00:10:52Z</time>
      </trkpt>
      <trkpt lat="63.67157000" lon="-19.4412432">
        <ele>510.00000</ele>
        <time>2010-01-01T00:10:53Z</time>
      </trkpt>
      <trkpt lat="63.67157030" lon="-19.4412090">
        <ele>510.20001</ele>
        <time>2010-01-01T00:10:53Z</time>
      </trkpt>
      <trkpt lat="63.67157070" lon="-19.4411819">
        <ele>510.39999</ele>
        <time>2010-01-01T00:10:54Z</time>
      </trkpt>
      <trkpt lat="63.67156900" lon="-19.4411569">
        <ele>510.79998</ele>
        <time>2010-01-01T00:10:54Z</time>
      </trkpt>
      <trkpt lat="63.67156580" lon="-19.4411275">
        <ele>511.20001</ele>
        <time>2010-01-01T00:10:55Z</time>
      </trkpt>
      <trkpt lat="63.67156490" lon="-19.4410955">
        <ele>511.39999</ele>
        <time>2010-01-01T00:10:55Z</time>
      </trkpt>
      <trkpt lat="63.67155600" lon="-19.4410037">
        <ele>511.79998</ele>
        <time>2010-01-01T00:10:57Z</time>
      </trkpt>
      <trkpt lat="63.67155170" lon="-19.4409724">
        <ele>512.20001</ele>
        <time>2010-01-01T00:10:58Z</time>
      </trkpt>
      <trkpt lat="63.67154800" lon="-19.4409408">
        <ele>512.59997</ele>
        <time>2010-01-01T00:10:58Z</time>
      </trkpt>
      <trkpt lat="63.67154510" lon="-19.4409145">
        <ele>513.00000</ele>
        <time>2010-01-01T00:10:59Z</time>
      </trkpt>
      <trkpt lat="63.67154040" lon="-19.4408852">
        <ele>513.40002</ele>
        <time>2010-01-01T00:10:59Z</time>
      </trkpt>
      <trkpt lat="63.67154080" lon="-19.4408207">
        <ele>513.40002</ele>
        <time>2010-01-01T00:11:00Z</time>
      </trkpt>
      <trkpt lat="63.67154440" lon="-19.4407606">
        <ele>513.40002</ele>
        <time>2010-01-01T00:11:01Z</time>
      </trkpt>
      <trkpt lat="63.67154430" lon="-19.4407287">
        <ele>513.79998</ele>
        <time>2010-01-01T00:11:02Z</time>
      </trkpt>
      <trkpt lat="63.67154660" lon="-19.4406929">
        <ele>514.20001</ele>
        <time>2010-01-01T00:11:03Z</time>
      </trkpt>
      <trkpt lat="63.67154640" lon="-19.4406587">
        <ele>514.59997</ele>
        <time>2010-01-01T00:11:03Z</time>
      </trkpt>
      <trkpt lat="63.67154870" lon="-19.4406297">
        <ele>515.00000</ele>
        <time>2010-01-01T00:11:04Z</time>
      </trkpt>
      <trkpt lat="63.67154980" lon="-19.4405961">
        <ele>515.40002</ele>
        <time>2010-01-01T00:11:04Z</time>
      </trkpt>
      <trkpt lat="63.67155540" lon="-19.4404574">
        <ele>515.40002</ele>
        <time>2010-01-01T00:11:07Z</time>
      </trkpt>
      <trkpt lat="63.67156720" lon="-19.4403291">
        <ele>515.40002</ele>
        <time>2010-01-01T00:11:09Z</time>
      </trkpt>
      <trkpt lat="63.67157130" lon="-19.4402977">
        <ele>516.00000</ele>
        <time>2010-01-01T00:11:10Z</time>
      </trkpt>
      <trkpt lat="63.67157470" lon="-19.4402652">
        <ele>516.40002</ele>
        <time>2010-01-01T00:11:10Z</time>
      </trkpt>
      <trkpt lat="63.67157240" lon="-19.4402336">
        <ele>516.79998</ele>
        <time>2010-01-01T00:11:11Z</time>
      </trkpt>
      <trkpt lat="63.67156360" lon="-19.4402120">
        <ele>517.20001</ele>
        <time>2010-01-01T00:11:11Z</time>
      </trkpt>
      <trkpt lat="63.67155620" lon="-19.4401892">
        <ele>517.40002</ele>
        <time>2010-01-01T00:11:12Z</time>
      </trkpt>
      <trkpt lat="63.67155670" lon="-19.4401816">
        <ele>517.40002</ele>
        <time>2010-01-01T00:11:12Z</time>
      </trkpt>
      <trkpt lat="63.67155080" lon="-19.4401365">
        <ele>517.40002</ele>
        <time>2010-01-01T00:11:13Z</time>
      </trkpt>
      <trkpt lat="63.67154410" lon="-19.4401072">
        <ele>517.40002</ele>
        <time>2010-01-01T00:11:13Z</time>
      </trkpt>
      <trkpt lat="63.67153450" lon="-19.4400787">
        <ele>517.59997</ele>
        <time>2010-01-01T00:11:14Z</time>
      </trkpt>
      <trkpt lat="63.67152730" lon="-19.4400537">
        <ele>518.00000</ele>
        <time>2010-01-01T00:11:15Z</time>
      </trkpt>
      <trkpt lat="63.67151970" lon="-19.4400268">
        <ele>518.40002</ele>
        <time>2010-01-01T00:11:15Z</time>
      </trkpt>
      <trkpt lat="63.67151310" lon="-19.4400047">
        <ele>518.59997</ele>
        <time>2010-01-01T00:11:16Z</time>
      </trkpt>
      <trkpt lat="63.67150550" lon="-19.4399719">
        <ele>519.00000</ele>
        <time>2010-01-01T00:11:16Z</time>
      </trkpt>
      <trkpt lat="63.67150110" lon="-19.4399433">
        <ele>519.40002</ele>
        <time>2010-01-01T00:11:17Z</time>
      </trkpt>
      <trkpt lat="63.67149500" lon="-19.4399199">
        <ele>519.40002</ele>
        <time>2010-01-01T00:11:17Z</time>
      </trkpt>
      <trkpt lat="63.67148620" lon="-19.4398942">
        <ele>519.59997</ele>
        <time>2010-01-01T00:11:18Z</time>
      </trkpt>
      <trkpt lat="63.67147890" lon="-19.4398688">
        <ele>519.59997</ele>
        <time>2010-01-01T00:11:18Z</time>
      </trkpt>
      <trkpt lat="63.67147260" lon="-19.4398419">
        <ele>520.00000</ele>
        <time>2010-01-01T00:11:19Z</time>
      </trkpt>
      <trkpt lat="63.67146530" lon="-19.4398126">
        <ele>520.20001</ele>
        <time>2010-01-01T00:11:20Z</time>
      </trkpt>
      <trkpt lat="63.67145760" lon="-19.4397910">
        <ele>520.59997</ele>
        <time>2010-01-01T00:11:20Z</time>
      </trkpt>
      <trkpt lat="63.67145050" lon="-19.4397648">
        <ele>520.79998</ele>
        <time>2010-01-01T00:11:21Z</time>
      </trkpt>
      <trkpt lat="63.67144710" lon="-19.4397384">
        <ele>521.20001</ele>
        <time>2010-01-01T00:11:21Z</time>
      </trkpt>
      <trkpt lat="63.67144310" lon="-19.4397109">
        <ele>521.59997</ele>
        <time>2010-01-01T00:11:22Z</time>
      </trkpt>
      <trkpt lat="63.67144060" lon="-19.4396832">
        <ele>521.79998</ele>
        <time>2010-01-01T00:11:22Z</time>
      </trkpt>
      <trkpt lat="63.67143950" lon="-19.4396601">
        <ele>522.20001</ele>
        <time>2010-01-01T00:11:23Z</time>
      </trkpt>
      <trkpt lat="63.67143690" lon="-19.4396325">
        <ele>522.59997</ele>
        <time>2010-01-01T00:11:23Z</time>
      </trkpt>
      <trkpt lat="63.67143440" lon="-19.4396056">
        <ele>523.00000</ele>
        <time>2010-01-01T00:11:23Z</time>
      </trkpt>
      <trkpt lat="63.67143010" lon="-19.4395795">
        <ele>523.40002</ele>
        <time>2010-01-01T00:11:24Z</time>
      </trkpt>
      <trkpt lat="63.67142730" lon="-19.4395503">
        <ele>523.79998</ele>
        <time>2010-01-01T00:11:25Z</time>
      </trkpt>
      <trkpt lat="63.67142640" lon="-19.4395223">
        <ele>524.20001</ele>
        <time>2010-01-01T00:11:25Z</time>
      </trkpt>
      <trkpt lat="63.67142180" lon="-19.4394895">
        <ele>524.59997</ele>
        <time>2010-01-01T00:11:26Z</time>
      </trkpt>
      <trkpt lat="63.67141780" lon="-19.4394601">
        <ele>525.00000</ele>
        <time>2010-01-01T00:11:26Z</time>
      </trkpt>
      <trkpt lat="63.67141370" lon="-19.4394213">
        <ele>525.40002</ele>
        <time>2010-01-01T00:11:27Z</time>
      </trkpt>
      <trkpt lat="63.67140880" lon="-19.4393942">
        <ele>525.59997</ele>
        <time>2010-01-01T00:11:27Z</time>
      </trkpt>
      <trkpt lat="63.67137730" lon="-19.4392421">
        <ele>525.59997</ele>
        <time>2010-01-01T00:11:30Z</time>
      </trkpt>
      <trkpt lat="63.67133510" lon="-19.4391407">
        <ele>526.00000</ele>
        <time>2010-01-01T00:11:33Z</time>
      </trkpt>
      <trkpt lat="63.67132700" lon="-19.4391100">
        <ele>526.40002</ele>
        <time>2010-01-01T00:11:33Z</time>
      </trkpt>
      <trkpt lat="63.67131740" lon="-19.4390901">
        <ele>526.79998</ele>
        <time>2010-01-01T00:11:34Z</time>
      </trkpt>
      <trkpt lat="63.67131090" lon="-19.4390739">
        <ele>527.20001</ele>
        <time>2010-01-01T00:11:34Z</time>
      </trkpt>
      <trkpt lat="63.67130640" lon="-19.4390507">
        <ele>527.59997</ele>
        <time>2010-01-01T00:11:35Z</time>
      </trkpt>
      <trkpt lat="63.67130120" lon="-19.4390288">
        <ele>528.00000</ele>
        <time>2010-01-01T00:11:35Z</time>
      </trkpt>
      <trkpt lat="63.67129930" lon="-19.4390054">
        <ele>528.40002</ele>
        <time>2010-01-01T00:11:36Z</time>
      </trkpt>
      <trkpt lat="63.67129410" lon="-19.4389869">
        <ele>529.00000</ele>
        <time>2010-01-01T00:11:36Z</time>
      </trkpt>
      <trkpt lat="63.67128730" lon="-19.4389748">
        <ele>529.20001</ele>
        <time>2010-01-01T00:11:36Z</time>
      </trkpt>
      <trkpt lat="63.67127960" lon="-19.4389491">
        <ele>529.59997</ele>
        <time>2010-01-01T00:11:37Z</time>
      </trkpt>
      <trkpt lat="63.67127420" lon="-19.4389274">
        <ele>529.59997</ele>
        <time>2010-01-01T00:11:37Z</time>
      </trkpt>
      <trkpt lat="63.67125760" lon="-19.4388541">
        <ele>529.79998</ele>
        <time>2010-01-01T00:11:39Z</time>
      </trkpt>
      <trkpt lat="63.67125220" lon="-19.4388347">
        <ele>529.59997</ele>
        <time>2010-01-01T00:11:39Z</time>
      </trkpt>
      <trkpt lat="63.67124650" lon="-19.4388057">
        <ele>529.59997</ele>
        <time>2010-01-01T00:11:40Z</time>
      </trkpt>
      <trkpt lat="63.67123850" lon="-19.4387818">
        <ele>529.79998</ele>
        <time>2010-01-01T00:11:40Z</time>
      </trkpt>
      <trkpt lat="63.67123390" lon="-19.4387539">
        <ele>530.00000</ele>
        <time>2010-01-01T00:11:41Z</time>
      </trkpt>
      <trkpt lat="63.67123240" lon="-19.4387321">
        <ele>530.40002</ele>
        <time>2010-01-01T00:11:41Z</time>
      </trkpt>
      <trkpt lat="63.67122100" lon="-19.4387194">
        <ele>530.59997</ele>
        <time>2010-01-01T00:11:42Z</time>
      </trkpt>
      <trkpt lat="63.67121810" lon="-19.4386937">
        <ele>531.00000</ele>
        <time>2010-01-01T00:11:42Z</time>
      </trkpt>
      <trkpt lat="63.67121620" lon="-19.4386639">
        <ele>531.40002</ele>
        <time>2010-01-01T00:11:43Z</time>
      </trkpt>
      <trkpt lat="63.67121320" lon="-19.4386391">
        <ele>531.59997</ele>
        <time>2010-01-01T00:11:43Z</time>
      </trkpt>
      <trkpt lat="63.67120940" lon="-19.4386055">
        <ele>531.79998</ele>
        <time>2010-01-01T00:11:44Z</time>
      </trkpt>
      <trkpt lat="63.67119790" lon="-19.4385232">
        <ele>532.00000</ele>
        <time>2010-01-01T00:11:45Z</time>
      </trkpt>
      <trkpt lat="63.67119010" lon="-19.4384961">
        <ele>532.59997</ele>
        <time>2010-01-01T00:11:46Z</time>
      </trkpt>
      <trkpt lat="63.67118970" lon="-19.4384683">
        <ele>533.00000</ele>
        <time>2010-01-01T00:11:47Z</time>
      </trkpt>
      <trkpt lat="63.67118610" lon="-19.4384401">
        <ele>533.40002</ele>
        <time>2010-01-01T00:11:47Z</time>
      </trkpt>
      <trkpt lat="63.67118500" lon="-19.4384093">
        <ele>533.79998</ele>
        <time>2010-01-01T00:11:48Z</time>
      </trkpt>
      <trkpt lat="63.67118100" lon="-19.4383825">
        <ele>533.79998</ele>
        <time>2010-01-01T00:11:48Z</time>
      </trkpt>
      <trkpt lat="63.67115360" lon="-19.4382387">
        <ele>534.20001</ele>
        <time>2010-01-01T00:11:51Z</time>
      </trkpt>
      <trkpt lat="63.67114820" lon="-19.4382133">
        <ele>534.59997</ele>
        <time>2010-01-01T00:11:51Z</time>
      </trkpt>
      <trkpt lat="63.67114380" lon="-19.4381859">
        <ele>535.00000</ele>
        <time>2010-01-01T00:11:52Z</time>
      </trkpt>
      <trkpt lat="63.67113640" lon="-19.4381554">
        <ele>535.40002</ele>
        <time>2010-01-01T00:11:52Z</time>
      </trkpt>
      <trkpt lat="63.67112860" lon="-19.4381313">
        <ele>535.79998</ele>
        <time>2010-01-01T00:11:53Z</time>
      </trkpt>
      <trkpt lat="63.67112710" lon="-19.4380901">
        <ele>536.00000</ele>
        <time>2010-01-01T00:11:54Z</time>
      </trkpt>
      <trkpt lat="63.67111330" lon="-19.4380141">
        <ele>536.20001</ele>
        <time>2010-01-01T00:11:55Z</time>
      </trkpt>
      <trkpt lat="63.67110860" lon="-19.4379896">
        <ele>536.59997</ele>
        <time>2010-01-01T00:11:56Z</time>
      </trkpt>
      <trkpt lat="63.67110500" lon="-19.4379641">
        <ele>537.00000</ele>
        <time>2010-01-01T00:11:56Z</time>
      </trkpt>
      <trkpt lat="63.67109950" lon="-19.4379389">
        <ele>537.59997</ele>
        <time>2010-01-01T00:11:57Z</time>
      </trkpt>
      <trkpt lat="63.67109190" lon="-19.4379180">
        <ele>538.00000</ele>
        <time>2010-01-01T00:11:57Z</time>
      </trkpt>
      <trkpt lat="63.67108630" lon="-19.4379010">
        <ele>538.20001</ele>
        <time>2010-01-01T00:11:58Z</time>
      </trkpt>
      <trkpt lat="63.67106280" lon="-19.4378375">
        <ele>538.20001</ele>
        <time>2010-01-01T00:11:59Z</time>
      </trkpt>
      <trkpt lat="63.67104220" lon="-19.4377552">
        <ele>538.59997</ele>
        <time>2010-01-01T00:12:01Z</time>
      </trkpt>
      <trkpt lat="63.67103870" lon="-19.4377238">
        <ele>539.00000</ele>
        <time>2010-01-01T00:12:01Z</time>
      </trkpt>
      <trkpt lat="63.67103400" lon="-19.4376927">
        <ele>539.40002</ele>
        <time>2010-01-01T00:12:02Z</time>
      </trkpt>
      <trkpt lat="63.67102990" lon="-19.4376692">
        <ele>539.59997</ele>
        <time>2010-01-01T00:12:02Z</time>
      </trkpt>
      <trkpt lat="63.67102460" lon="-19.4376421">
        <ele>540.00000</ele>
        <time>2010-01-01T00:12:03Z</time>
      </trkpt>
      <trkpt lat="63.67101840" lon="-19.4376154">
        <ele>540.20001</ele>
        <time>2010-01-01T00:12:03Z</time>
      </trkpt>
      <trkpt lat="63.67101520" lon="-19.4375845">
        <ele>540.20001</ele>
        <time>2010-01-01T00:12:04Z</time>
      </trkpt>
      <trkpt lat="63.67101270" lon="-19.4375552">
        <ele>540.20001</ele>
        <time>2010-01-01T00:12:04Z</time>
      </trkpt>
      <trkpt lat="63.67101050" lon="-19.4375302">
        <ele>540.20001</ele>
        <time>2010-01-01T00:12:05Z</time>
      </trkpt>
      <trkpt lat="63.67100730" lon="-19.4375029">
        <ele>540.59997</ele>
        <time>2010-01-01T00:12:05Z</time>
      </trkpt>
      <trkpt lat="63.67100550" lon="-19.4374766">
        <ele>540.79998</ele>
        <time>2010-01-01T00:12:06Z</time>
      </trkpt>
      <trkpt lat="63.67100350" lon="-19.4374466">
        <ele>541.00000</ele>
        <time>2010-01-01T00:12:06Z</time>
      </trkpt>
      <trkpt lat="63.67100000" lon="-19.4374209">
        <ele>541.40002</ele>
        <time>2010-01-01T00:12:07Z</time>
      </trkpt>
      <trkpt lat="63.67099530" lon="-19.4373918">
        <ele>541.59997</ele>
        <time>2010-01-01T00:12:07Z</time>
      </trkpt>
      <trkpt lat="63.67099040" lon="-19.4373648">
        <ele>542.00000</ele>
        <time>2010-01-01T00:12:08Z</time>
      </trkpt>
      <trkpt lat="63.67098380" lon="-19.4373397">
        <ele>542.20001</ele>
        <time>2010-01-01T00:12:08Z</time>
      </trkpt>
      <trkpt lat="63.67096650" lon="-19.4372814">
        <ele>542.59997</ele>
        <time>2010-01-01T00:12:10Z</time>
      </trkpt>
      <trkpt lat="63.67096010" lon="-19.4372574">
        <ele>543.00000</ele>
        <time>2010-01-01T00:12:10Z</time>
      </trkpt>
      <trkpt lat="63.67095050" lon="-19.4372319">
        <ele>543.40002</ele>
        <time>2010-01-01T00:12:11Z</time>
      </trkpt>
      <trkpt lat="63.67094570" lon="-19.4372043">
        <ele>543.79998</ele>
        <time>2010-01-01T00:12:11Z</time>
      </trkpt>
      <trkpt lat="63.67094130" lon="-19.4371761">
        <ele>544.20001</ele>
        <time>2010-01-01T00:12:12Z</time>
      </trkpt>
      <trkpt lat="63.67093200" lon="-19.4370833">
        <ele>544.40002</ele>
        <time>2010-01-01T00:12:14Z</time>
      </trkpt>
      <trkpt lat="63.67092660" lon="-19.4370593">
        <ele>544.79998</ele>
        <time>2010-01-01T00:12:14Z</time>
      </trkpt>
      <trkpt lat="63.67092440" lon="-19.4370330">
        <ele>545.20001</ele>
        <time>2010-01-01T00:12:14Z</time>
      </trkpt>
      <trkpt lat="63.67092440" lon="-19.4370048">
        <ele>545.59997</ele>
        <time>2010-01-01T00:12:15Z</time>
      </trkpt>
      <trkpt lat="63.67092350" lon="-19.4369739">
        <ele>546.00000</ele>
        <time>2010-01-01T00:12:16Z</time>
      </trkpt>
      <trkpt lat="63.67092090" lon="-19.4369395">
        <ele>546.20001</ele>
        <time>2010-01-01T00:12:16Z</time>
      </trkpt>
      <trkpt lat="63.67090990" lon="-19.4368397">
        <ele>546.59997</ele>
        <time>2010-01-01T00:12:18Z</time>
      </trkpt>
      <trkpt lat="63.67090110" lon="-19.4368080">
        <ele>547.00000</ele>
        <time>2010-01-01T00:12:19Z</time>
      </trkpt>
      <trkpt lat="63.67089400" lon="-19.4367836">
        <ele>547.40002</ele>
        <time>2010-01-01T00:12:19Z</time>
      </trkpt>
      <trkpt lat="63.67088630" lon="-19.4367619">
        <ele>547.79998</ele>
        <time>2010-01-01T00:12:20Z</time>
      </trkpt>
      <trkpt lat="63.67087800" lon="-19.4367403">
        <ele>548.20001</ele>
        <time>2010-01-01T00:12:20Z</time>
      </trkpt>
      <trkpt lat="63.67085830" lon="-19.4366728">
        <ele>548.40002</ele>
        <time>2010-01-01T00:12:22Z</time>
      </trkpt>
      <trkpt lat="63.67085350" lon="-19.4366441">
        <ele>548.79998</ele>
        <time>2010-01-01T00:12:22Z</time>
      </trkpt>
      <trkpt lat="63.67084790" lon="-19.4366329">
        <ele>549.20001</ele>
        <time>2010-01-01T00:12:22Z</time>
      </trkpt>
      <trkpt lat="63.67084320" lon="-19.4366122">
        <ele>549.59997</ele>
        <time>2010-01-01T00:12:23Z</time>
      </trkpt>
      <trkpt lat="63.67083750" lon="-19.4365967">
        <ele>550.00000</ele>
        <time>2010-01-01T00:12:23Z</time>
      </trkpt>
      <trkpt lat="63.67082470" lon="-19.4365719">
        <ele>550.20001</ele>
        <time>2010-01-01T00:12:24Z</time>
      </trkpt>
      <trkpt lat="63.67081460" lon="-19.4365204">
        <ele>550.59997</ele>
        <time>2010-01-01T00:12:25Z</time>
      </trkpt>
      <trkpt lat="63.67081260" lon="-19.4364972">
        <ele>551.00000</ele>
        <time>2010-01-01T00:12:25Z</time>
      </trkpt>
      <trkpt lat="63.67080760" lon="-19.4364723">
        <ele>551.40002</ele>
        <time>2010-01-01T00:12:26Z</time>
      </trkpt>
      <trkpt lat="63.67080080" lon="-19.4364469">
        <ele>551.59997</ele>
        <time>2010-01-01T00:12:26Z</time>
      </trkpt>
      <trkpt lat="63.67079650" lon="-19.4364323">
        <ele>552.00000</ele>
        <time>2010-01-01T00:12:27Z</time>
      </trkpt>
      <trkpt lat="63.67079220" lon="-19.4364060">
        <ele>552.40002</ele>
        <time>2010-01-01T00:12:27Z</time>
      </trkpt>
      <trkpt lat="63.67078730" lon="-19.4363278">
        <ele>552.79998</ele>
        <time>2010-01-01T00:12:29Z</time>
      </trkpt>
      <trkpt lat="63.67078000" lon="-19.4362998">
        <ele>553.20001</ele>
        <time>2010-01-01T00:12:29Z</time>
      </trkpt>
      <trkpt lat="63.67077440" lon="-19.4362801">
        <ele>553.40002</ele>
        <time>2010-01-01T00:12:30Z</time>
      </trkpt>
      <trkpt lat="63.67077070" lon="-19.4362575">
        <ele>553.79998</ele>
        <time>2010-01-01T00:12:30Z</time>
      </trkpt>
      <trkpt lat="63.67076910" lon="-19.4362268">
        <ele>554.00000</ele>
        <time>2010-01-01T00:12:31Z</time>
      </trkpt>
      <trkpt lat="63.67076640" lon="-19.4362018">
        <ele>554.20001</ele>
        <time>2010-01-01T00:12:31Z</time>
      </trkpt>
      <trkpt lat="63.67076080" lon="-19.4361791">
        <ele>554.40002</ele>
        <time>2010-01-01T00:12:31Z</time>
      </trkpt>
      <trkpt lat="63.67075930" lon="-19.4361492">
        <ele>554.59997</ele>
        <time>2010-01-01T00:12:32Z</time>
      </trkpt>
      <trkpt lat="63.67076130" lon="-19.4361445">
        <ele>554.59997</ele>
        <time>2010-01-01T00:12:32Z</time>
      </trkpt>
      <trkpt lat="63.67076030" lon="-19.4361067">
        <ele>555.20001</ele>
        <time>2010-01-01T00:12:33Z</time>
      </trkpt>
      <trkpt lat="63.67075880" lon="-19.4360793">
        <ele>555.59997</ele>
        <time>2010-01-01T00:12:33Z</time>
      </trkpt>
      <trkpt lat="63.67075560" lon="-19.4360527">
        <ele>556.00000</ele>
        <time>2010-01-01T00:12:34Z</time>
      </trkpt>
      <trkpt lat="63.67075330" lon="-19.4360296">
        <ele>556.40002</ele>
        <time>2010-01-01T00:12:34Z</time>
      </trkpt>
      <trkpt lat="63.67074880" lon="-19.4360030">
        <ele>556.59997</ele>
        <time>2010-01-01T00:12:35Z</time>
      </trkpt>
      <trkpt lat="63.67074340" lon="-19.4359771">
        <ele>557.00000</ele>
        <time>2010-01-01T00:12:35Z</time>
      </trkpt>
      <trkpt lat="63.67073480" lon="-19.4359531">
        <ele>557.40002</ele>
        <time>2010-01-01T00:12:36Z</time>
      </trkpt>
      <trkpt lat="63.67072710" lon="-19.4359331">
        <ele>557.79998</ele>
        <time>2010-01-01T00:12:36Z</time>
      </trkpt>
      <trkpt lat="63.67071940" lon="-19.4359043">
        <ele>558.20001</ele>
        <time>2010-01-01T00:12:37Z</time>
      </trkpt>
      <trkpt lat="63.67071350" lon="-19.4358805">
        <ele>558.59997</ele>
        <time>2010-01-01T00:12:37Z</time>
      </trkpt>
      <trkpt lat="63.67069910" lon="-19.4357924">
        <ele>558.79998</ele>
        <time>2010-01-01T00:12:39Z</time>
      </trkpt>
      <trkpt lat="63.67069500" lon="-19.4357676">
        <ele>559.20001</ele>
        <time>2010-01-01T00:12:39Z</time>
      </trkpt>
      <trkpt lat="63.67069030" lon="-19.4357379">
        <ele>559.59997</ele>
        <time>2010-01-01T00:12:40Z</time>
      </trkpt>
      <trkpt lat="63.67068350" lon="-19.4357085">
        <ele>560.00000</ele>
        <time>2010-01-01T00:12:41Z</time>
      </trkpt>
      <trkpt lat="63.67067580" lon="-19.4356703">
        <ele>560.40002</ele>
        <time>2010-01-01T00:12:41Z</time>
      </trkpt>
      <trkpt lat="63.67067140" lon="-19.4356376">
        <ele>560.59997</ele>
        <time>2010-01-01T00:12:42Z</time>
      </trkpt>
      <trkpt lat="63.67064940" lon="-19.4355666">
        <ele>560.59997</ele>
        <time>2010-01-01T00:12:43Z</time>
      </trkpt>
      <trkpt lat="63.67064120" lon="-19.4355098">
        <ele>560.59997</ele>
        <time>2010-01-01T00:12:44Z</time>
      </trkpt>
      <trkpt lat="63.67063040" lon="-19.4354705">
        <ele>560.59997</ele>
        <time>2010-01-01T00:12:45Z</time>
      </trkpt>
      <trkpt lat="63.67061890" lon="-19.4354301">
        <ele>560.59997</ele>
        <time>2010-01-01T00:12:46Z</time>
      </trkpt>
      <trkpt lat="63.67060630" lon="-19.4353793">
        <ele>560.59997</ele>
        <time>2010-01-01T00:12:47Z</time>
      </trkpt>
      <trkpt lat="63.67055590" lon="-19.4351502">
        <ele>560.59997</ele>
        <time>2010-01-01T00:12:52Z</time>
      </trkpt>
      <trkpt lat="63.67054340" lon="-19.4351007">
        <ele>560.59997</ele>
        <time>2010-01-01T00:12:53Z</time>
      </trkpt>
      <trkpt lat="63.67053540" lon="-19.4350515">
        <ele>560.59997</ele>
        <time>2010-01-01T00:12:54Z</time>
      </trkpt>
      <trkpt lat="63.67051950" lon="-19.4349919">
        <ele>560.79998</ele>
        <time>2010-01-01T00:12:55Z</time>
      </trkpt>
      <trkpt lat="63.67050760" lon="-19.4349297">
        <ele>561.00000</ele>
        <time>2010-01-01T00:12:56Z</time>
      </trkpt>
      <trkpt lat="63.67049910" lon="-19.4348914">
        <ele>561.40002</ele>
        <time>2010-01-01T00:12:57Z</time>
      </trkpt>
      <trkpt lat="63.67048110" lon="-19.4348508">
        <ele>561.59997</ele>
        <time>2010-01-01T00:12:58Z</time>
      </trkpt>
      <trkpt lat="63.67046570" lon="-19.4348032">
        <ele>562.00000</ele>
        <time>2010-01-01T00:12:59Z</time>
      </trkpt>
      <trkpt lat="63.67045760" lon="-19.4347671">
        <ele>562.20001</ele>
        <time>2010-01-01T00:13:00Z</time>
      </trkpt>
      <trkpt lat="63.67044280" lon="-19.4347248">
        <ele>562.59997</ele>
        <time>2010-01-01T00:13:01Z</time>
      </trkpt>
      <trkpt lat="63.67042630" lon="-19.4346841">
        <ele>562.79998</ele>
        <time>2010-01-01T00:13:02Z</time>
      </trkpt>
      <trkpt lat="63.67041530" lon="-19.4346466">
        <ele>562.79998</ele>
        <time>2010-01-01T00:13:02Z</time>
      </trkpt>
      <trkpt lat="63.67040650" lon="-19.4345960">
        <ele>562.79998</ele>
        <time>2010-01-01T00:13:03Z</time>
      </trkpt>
      <trkpt lat="63.67038210" lon="-19.4345501">
        <ele>562.79998</ele>
        <time>2010-01-01T00:13:05Z</time>
      </trkpt>
      <trkpt lat="63.67037360" lon="-19.4345168">
        <ele>562.79998</ele>
        <time>2010-01-01T00:13:05Z</time>
      </trkpt>
      <trkpt lat="63.67036790" lon="-19.4344856">
        <ele>563.20001</ele>
        <time>2010-01-01T00:13:06Z</time>
      </trkpt>
      <trkpt lat="63.67036110" lon="-19.4344323">
        <ele>563.40002</ele>
        <time>2010-01-01T00:13:07Z</time>
      </trkpt>
      <trkpt lat="63.67035330" lon="-19.4343851">
        <ele>563.79998</ele>
        <time>2010-01-01T00:13:08Z</time>
      </trkpt>
      <trkpt lat="63.67035120" lon="-19.4343649">
        <ele>564.20001</ele>
        <time>2010-01-01T00:13:08Z</time>
      </trkpt>
      <trkpt lat="63.67034430" lon="-19.4343032">
        <ele>564.59997</ele>
        <time>2010-01-01T00:13:09Z</time>
      </trkpt>
      <trkpt lat="63.67034130" lon="-19.4342506">
        <ele>564.79998</ele>
        <time>2010-01-01T00:13:10Z</time>
      </trkpt>
      <trkpt lat="63.67032750" lon="-19.4342143">
        <ele>565.00000</ele>
        <time>2010-01-01T00:13:11Z</time>
      </trkpt>
      <trkpt lat="63.67032180" lon="-19.4341784">
        <ele>565.40002</ele>
        <time>2010-01-01T00:13:12Z</time>
      </trkpt>
      <trkpt lat="63.67030820" lon="-19.4341221">
        <ele>565.79998</ele>
        <time>2010-01-01T00:13:13Z</time>
      </trkpt>
      <trkpt lat="63.67030110" lon="-19.4340895">
        <ele>566.20001</ele>
        <time>2010-01-01T00:13:14Z</time>
      </trkpt>
      <trkpt lat="63.67028970" lon="-19.4340408">
        <ele>566.59997</ele>
        <time>2010-01-01T00:13:15Z</time>
      </trkpt>
      <trkpt lat="63.67028190" lon="-19.4339918">
        <ele>566.79998</ele>
        <time>2010-01-01T00:13:15Z</time>
      </trkpt>
      <trkpt lat="63.67027580" lon="-19.4339506">
        <ele>566.79998</ele>
        <time>2010-01-01T00:13:16Z</time>
      </trkpt>
      <trkpt lat="63.67025590" lon="-19.4338589">
        <ele>567.00000</ele>
        <time>2010-01-01T00:13:18Z</time>
      </trkpt>
      <trkpt lat="63.67024610" lon="-19.4338127">
        <ele>567.40002</ele>
        <time>2010-01-01T00:13:19Z</time>
      </trkpt>
      <trkpt lat="63.67023470" lon="-19.4337735">
        <ele>568.00000</ele>
        <time>2010-01-01T00:13:20Z</time>
      </trkpt>
      <trkpt lat="63.67022780" lon="-19.4337279">
        <ele>568.20001</ele>
        <time>2010-01-01T00:13:21Z</time>
      </trkpt>
      <trkpt lat="63.67021540" lon="-19.4336952">
        <ele>568.59997</ele>
        <time>2010-01-01T00:13:21Z</time>
      </trkpt>
      <trkpt lat="63.67020600" lon="-19.4336492">
        <ele>569.00000</ele>
        <time>2010-01-01T00:13:22Z</time>
      </trkpt>
      <trkpt lat="63.67018860" lon="-19.4335384">
        <ele>569.00000</ele>
        <time>2010-01-01T00:13:24Z</time>
      </trkpt>
      <trkpt lat="63.67018200" lon="-19.4335150">
        <ele>569.20001</ele>
        <time>2010-01-01T00:13:25Z</time>
      </trkpt>
      <trkpt lat="63.67018350" lon="-19.4334615">
        <ele>569.59997</ele>
        <time>2010-01-01T00:13:26Z</time>
      </trkpt>
      <trkpt lat="63.67018120" lon="-19.4334078">
        <ele>569.79998</ele>
        <time>2010-01-01T00:13:27Z</time>
      </trkpt>
      <trkpt lat="63.67016740" lon="-19.4333664">
        <ele>570.40002</ele>
        <time>2010-01-01T00:13:28Z</time>
      </trkpt>
      <trkpt lat="63.67015720" lon="-19.4333247">
        <ele>570.79998</ele>
        <time>2010-01-01T00:13:29Z</time>
      </trkpt>
      <trkpt lat="63.67015140" lon="-19.4332730">
        <ele>571.00000</ele>
        <time>2010-01-01T00:13:29Z</time>
      </trkpt>
      <trkpt lat="63.67013740" lon="-19.4332439">
        <ele>571.00000</ele>
        <time>2010-01-01T00:13:30Z</time>
      </trkpt>
      <trkpt lat="63.67013200" lon="-19.4332028">
        <ele>571.00000</ele>
        <time>2010-01-01T00:13:31Z</time>
      </trkpt>
      <trkpt lat="63.67012430" lon="-19.4331540">
        <ele>571.40002</ele>
        <time>2010-01-01T00:13:32Z</time>
      </trkpt>
      <trkpt lat="63.67011540" lon="-19.4331133">
        <ele>571.79998</ele>
        <time>2010-01-01T00:13:33Z</time>
      </trkpt>
      <trkpt lat="63.67011160" lon="-19.4330710">
        <ele>572.00000</ele>
        <time>2010-01-01T00:13:34Z</time>
      </trkpt>
      <trkpt lat="63.67009830" lon="-19.4330229">
        <ele>572.59997</ele>
        <time>2010-01-01T00:13:35Z</time>
      </trkpt>
      <trkpt lat="63.67008540" lon="-19.4330000">
        <ele>573.00000</ele>
        <time>2010-01-01T00:13:35Z</time>
      </trkpt>
      <trkpt lat="63.67007850" lon="-19.4329555">
        <ele>573.00000</ele>
        <time>2010-01-01T00:13:36Z</time>
      </trkpt>
      <trkpt lat="63.67006710" lon="-19.4329075">
        <ele>573.00000</ele>
        <time>2010-01-01T00:13:37Z</time>
      </trkpt>
      <trkpt lat="63.67005890" lon="-19.4328763">
        <ele>573.00000</ele>
        <time>2010-01-01T00:13:38Z</time>
      </trkpt>
      <trkpt lat="63.67004910" lon="-19.4328240">
        <ele>573.20001</ele>
        <time>2010-01-01T00:13:39Z</time>
      </trkpt>
      <trkpt lat="63.67003850" lon="-19.4327812">
        <ele>573.40002</ele>
        <time>2010-01-01T00:13:39Z</time>
      </trkpt>
      <trkpt lat="63.67002220" lon="-19.4327334">
        <ele>573.79998</ele>
        <time>2010-01-01T00:13:41Z</time>
      </trkpt>
      <trkpt lat="63.67000540" lon="-19.4326829">
        <ele>574.00000</ele>
        <time>2010-01-01T00:13:42Z</time>
      </trkpt>
      <trkpt lat="63.66999310" lon="-19.4326419">
        <ele>574.40002</ele>
        <time>2010-01-01T00:13:43Z</time>
      </trkpt>
      <trkpt lat="63.66998600" lon="-19.4325997">
        <ele>574.59997</ele>
        <time>2010-01-01T00:13:43Z</time>
      </trkpt>
      <trkpt lat="63.66997500" lon="-19.4325429">
        <ele>575.00000</ele>
        <time>2010-01-01T00:13:44Z</time>
      </trkpt>
      <trkpt lat="63.66996720" lon="-19.4325100">
        <ele>575.20001</ele>
        <time>2010-01-01T00:13:45Z</time>
      </trkpt>
      <trkpt lat="63.66996260" lon="-19.4324549">
        <ele>575.20001</ele>
        <time>2010-01-01T00:13:46Z</time>
      </trkpt>
      <trkpt lat="63.66995620" lon="-19.4324053">
        <ele>575.59997</ele>
        <time>2010-01-01T00:13:47Z</time>
      </trkpt>
      <trkpt lat="63.66994650" lon="-19.4323543">
        <ele>576.00000</ele>
        <time>2010-01-01T00:13:48Z</time>
      </trkpt>
      <trkpt lat="63.66993770" lon="-19.4323049">
        <ele>576.40002</ele>
        <time>2010-01-01T00:13:49Z</time>
      </trkpt>
      <trkpt lat="63.66992850" lon="-19.4322503">
        <ele>576.79998</ele>
        <time>2010-01-01T00:13:50Z</time>
      </trkpt>
      <trkpt lat="63.66992040" lon="-19.4322091">
        <ele>577.20001</ele>
        <time>2010-01-01T00:13:51Z</time>
      </trkpt>
      <trkpt lat="63.66991050" lon="-19.4321718">
        <ele>577.20001</ele>
        <time>2010-01-01T00:13:52Z</time>
      </trkpt>
      <trkpt lat="63.66988720" lon="-19.4321303">
        <ele>577.20001</ele>
        <time>2010-01-01T00:13:53Z</time>
      </trkpt>
      <trkpt lat="63.66986620" lon="-19.4320392">
        <ele>577.20001</ele>
        <time>2010-01-01T00:13:55Z</time>
      </trkpt>
      <trkpt lat="63.66983620" lon="-19.4318953">
        <ele>577.20001</ele>
        <time>2010-01-01T00:13:57Z</time>
      </trkpt>
      <trkpt lat="63.66982420" lon="-19.4318672">
        <ele>577.59997</ele>
        <time>2010-01-01T00:13:58Z</time>
      </trkpt>
      <trkpt lat="63.66981700" lon="-19.4318164">
        <ele>578.00000</ele>
        <time>2010-01-01T00:13:59Z</time>
      </trkpt>
      <trkpt lat="63.66980560" lon="-19.4317657">
        <ele>578.40002</ele>
        <time>2010-01-01T00:14:00Z</time>
      </trkpt>
      <trkpt lat="63.66979390" lon="-19.4317312">
        <ele>578.79998</ele>
        <time>2010-01-01T00:14:01Z</time>
      </trkpt>
      <trkpt lat="63.66977690" lon="-19.4316952">
        <ele>579.40002</ele>
        <time>2010-01-01T00:14:02Z</time>
      </trkpt>
      <trkpt lat="63.66975400" lon="-19.4316515">
        <ele>579.40002</ele>
        <time>2010-01-01T00:14:03Z</time>
      </trkpt>
      <trkpt lat="63.66974370" lon="-19.4316089">
        <ele>579.40002</ele>
        <time>2010-01-01T00:14:04Z</time>
      </trkpt>
      <trkpt lat="63.66972400" lon="-19.4315616">
        <ele>579.40002</ele>
        <time>2010-01-01T00:14:05Z</time>
      </trkpt>
      <trkpt lat="63.66971030" lon="-19.4315055">
        <ele>579.40002</ele>
        <time>2010-01-01T00:14:06Z</time>
      </trkpt>
      <trkpt lat="63.66969210" lon="-19.4314596">
        <ele>579.40002</ele>
        <time>2010-01-01T00:14:07Z</time>
      </trkpt>
      <trkpt lat="63.66967140" lon="-19.4314162">
        <ele>579.40002</ele>
        <time>2010-01-01T00:14:08Z</time>
      </trkpt>
      <trkpt lat="63.66964660" lon="-19.4313623">
        <ele>579.20001</ele>
        <time>2010-01-01T00:14:10Z</time>
      </trkpt>
      <trkpt lat="63.66963330" lon="-19.4313235">
        <ele>579.40002</ele>
        <time>2010-01-01T00:14:11Z</time>
      </trkpt>
      <trkpt lat="63.66961210" lon="-19.4312730">
        <ele>579.40002</ele>
        <time>2010-01-01T00:14:12Z</time>
      </trkpt>
      <trkpt lat="63.66958730" lon="-19.4312404">
        <ele>579.20001</ele>
        <time>2010-01-01T00:14:13Z</time>
      </trkpt>
      <trkpt lat="63.66956680" lon="-19.4312066">
        <ele>579.40002</ele>
        <time>2010-01-01T00:14:14Z</time>
      </trkpt>
      <trkpt lat="63.66954750" lon="-19.4311601">
        <ele>579.20001</ele>
        <time>2010-01-01T00:14:15Z</time>
      </trkpt>
      <trkpt lat="63.66953120" lon="-19.4311260">
        <ele>579.40002</ele>
        <time>2010-01-01T00:14:16Z</time>
      </trkpt>
      <trkpt lat="63.66951030" lon="-19.4310881">
        <ele>579.40002</ele>
        <time>2010-01-01T00:14:17Z</time>
      </trkpt>
      <trkpt lat="63.66948740" lon="-19.4310322">
        <ele>579.40002</ele>
        <time>2010-01-01T00:14:18Z</time>
      </trkpt>
      <trkpt lat="63.66946990" lon="-19.4310001">
        <ele>579.59997</ele>
        <time>2010-01-01T00:14:19Z</time>
      </trkpt>
      <trkpt lat="63.66945210" lon="-19.4309616">
        <ele>580.00000</ele>
        <time>2010-01-01T00:14:20Z</time>
      </trkpt>
      <trkpt lat="63.66943830" lon="-19.4309151">
        <ele>580.40002</ele>
        <time>2010-01-01T00:14:21Z</time>
      </trkpt>
      <trkpt lat="63.66942370" lon="-19.4308921">
        <ele>580.59997</ele>
        <time>2010-01-01T00:14:22Z</time>
      </trkpt>
      <trkpt lat="63.66940670" lon="-19.4308519">
        <ele>581.00000</ele>
        <time>2010-01-01T00:14:23Z</time>
      </trkpt>
      <trkpt lat="63.66938500" lon="-19.4308187">
        <ele>581.20001</ele>
        <time>2010-01-01T00:14:24Z</time>
      </trkpt>
      <trkpt lat="63.66936720" lon="-19.4307938">
        <ele>581.40002</ele>
        <time>2010-01-01T00:14:25Z</time>
      </trkpt>
      <trkpt lat="63.66934530" lon="-19.4307563">
        <ele>581.40002</ele>
        <time>2010-01-01T00:14:26Z</time>
      </trkpt>
      <trkpt lat="63.66932440" lon="-19.4307331">
        <ele>581.40002</ele>
        <time>2010-01-01T00:14:27Z</time>
      </trkpt>
      <trkpt lat="63.66930250" lon="-19.4307046">
        <ele>581.40002</ele>
        <time>2010-01-01T00:14:28Z</time>
      </trkpt>
      <trkpt lat="63.66928320" lon="-19.4306713">
        <ele>581.40002</ele>
        <time>2010-01-01T00:14:29Z</time>
      </trkpt>
      <trkpt lat="63.66926840" lon="-19.4306400">
        <ele>581.40002</ele>
        <time>2010-01-01T00:14:30Z</time>
      </trkpt>
      <trkpt lat="63.66924410" lon="-19.4306086">
        <ele>581.59997</ele>
        <time>2010-01-01T00:14:31Z</time>
      </trkpt>
      <trkpt lat="63.66922720" lon="-19.4305675">
        <ele>581.79998</ele>
        <time>2010-01-01T00:14:32Z</time>
      </trkpt>
      <trkpt lat="63.66920470" lon="-19.4305348">
        <ele>582.20001</ele>
        <time>2010-01-01T00:14:33Z</time>
      </trkpt>
      <trkpt lat="63.66918250" lon="-19.4304876">
        <ele>582.40002</ele>
        <time>2010-01-01T00:14:34Z</time>
      </trkpt>
      <trkpt lat="63.66916640" lon="-19.4304582">
        <ele>582.79998</ele>
        <time>2010-01-01T00:14:35Z</time>
      </trkpt>
      <trkpt lat="63.66914550" lon="-19.4304231">
        <ele>583.40002</ele>
        <time>2010-01-01T00:14:36Z</time>
      </trkpt>
      <trkpt lat="63.66912570" lon="-19.4303867">
        <ele>583.40002</ele>
        <time>2010-01-01T00:14:37Z</time>
      </trkpt>
      <trkpt lat="63.66903820" lon="-19.4302567">
        <ele>583.40002</ele>
        <time>2010-01-01T00:14:41Z</time>
      </trkpt>
      <trkpt lat="63.66899810" lon="-19.4301896">
        <ele>583.40002</ele>
        <time>2010-01-01T00:14:43Z</time>
      </trkpt>
      <trkpt lat="63.66898000" lon="-19.4301626">
        <ele>583.59997</ele>
        <time>2010-01-01T00:14:44Z</time>
      </trkpt>
      <trkpt lat="63.66896120" lon="-19.4301319">
        <ele>584.00000</ele>
        <time>2010-01-01T00:14:45Z</time>
      </trkpt>
      <trkpt lat="63.66894130" lon="-19.4300925">
        <ele>584.40002</ele>
        <time>2010-01-01T00:14:46Z</time>
      </trkpt>
      <trkpt lat="63.66892280" lon="-19.4300753">
        <ele>584.59997</ele>
        <time>2010-01-01T00:14:47Z</time>
      </trkpt>
      <trkpt lat="63.66889300" lon="-19.4300565">
        <ele>585.20001</ele>
        <time>2010-01-01T00:14:48Z</time>
      </trkpt>
      <trkpt lat="63.66886630" lon="-19.4300260">
        <ele>585.59997</ele>
        <time>2010-01-01T00:14:49Z</time>
      </trkpt>
      <trkpt lat="63.66879980" lon="-19.4299398">
        <ele>585.59997</ele>
        <time>2010-01-01T00:14:52Z</time>
      </trkpt>
      <trkpt lat="63.66878100" lon="-19.4299193">
        <ele>585.59997</ele>
        <time>2010-01-01T00:14:53Z</time>
      </trkpt>
      <trkpt lat="63.66871460" lon="-19.4298872">
        <ele>585.59997</ele>
        <time>2010-01-01T00:14:56Z</time>
      </trkpt>
      <trkpt lat="63.66870010" lon="-19.4298713">
        <ele>585.59997</ele>
        <time>2010-01-01T00:14:57Z</time>
      </trkpt>
      <trkpt lat="63.66867920" lon="-19.4298377">
        <ele>585.59997</ele>
        <time>2010-01-01T00:14:58Z</time>
      </trkpt>
      <trkpt lat="63.66866130" lon="-19.4298207">
        <ele>585.79998</ele>
        <time>2010-01-01T00:14:58Z</time>
      </trkpt>
      <trkpt lat="63.66863960" lon="-19.4298027">
        <ele>586.20001</ele>
        <time>2010-01-01T00:14:59Z</time>
      </trkpt>
      <trkpt lat="63.66861610" lon="-19.4297797">
        <ele>586.79998</ele>
        <time>2010-01-01T00:15:00Z</time>
      </trkpt>
      <trkpt lat="63.66860300" lon="-19.4297713">
        <ele>587.00000</ele>
        <time>2010-01-01T00:15:01Z</time>
      </trkpt>
      <trkpt lat="63.66858340" lon="-19.4297518">
        <ele>587.40002</ele>
        <time>2010-01-01T00:15:02Z</time>
      </trkpt>
      <trkpt lat="63.66855820" lon="-19.4297365">
        <ele>588.00000</ele>
        <time>2010-01-01T00:15:03Z</time>
      </trkpt>
      <trkpt lat="63.66853460" lon="-19.4297290">
        <ele>587.79998</ele>
        <time>2010-01-01T00:15:04Z</time>
      </trkpt>
      <trkpt lat="63.66850820" lon="-19.4297144">
        <ele>587.79998</ele>
        <time>2010-01-01T00:15:05Z</time>
      </trkpt>
      <trkpt lat="63.66848520" lon="-19.4296849">
        <ele>588.20001</ele>
        <time>2010-01-01T00:15:06Z</time>
      </trkpt>
      <trkpt lat="63.66845360" lon="-19.4296562">
        <ele>588.40002</ele>
        <time>2010-01-01T00:15:07Z</time>
      </trkpt>
      <trkpt lat="63.66843360" lon="-19.4296232">
        <ele>588.79998</ele>
        <time>2010-01-01T00:15:08Z</time>
      </trkpt>
      <trkpt lat="63.66841940" lon="-19.4295797">
        <ele>589.00000</ele>
        <time>2010-01-01T00:15:09Z</time>
      </trkpt>
      <trkpt lat="63.66840270" lon="-19.4295600">
        <ele>589.20001</ele>
        <time>2010-01-01T00:15:10Z</time>
      </trkpt>
      <trkpt lat="63.66838220" lon="-19.4295237">
        <ele>589.59997</ele>
        <time>2010-01-01T00:15:11Z</time>
      </trkpt>
      <trkpt lat="63.66836090" lon="-19.4294751">
        <ele>589.79998</ele>
        <time>2010-01-01T00:15:12Z</time>
      </trkpt>
      <trkpt lat="63.66834170" lon="-19.4294419">
        <ele>589.79998</ele>
        <time>2010-01-01T00:15:13Z</time>
      </trkpt>
      <trkpt lat="63.66832360" lon="-19.4294174">
        <ele>589.79998</ele>
        <time>2010-01-01T00:15:14Z</time>
      </trkpt>
      <trkpt lat="63.66828890" lon="-19.4293719">
        <ele>589.79998</ele>
        <time>2010-01-01T00:15:16Z</time>
      </trkpt>
      <trkpt lat="63.66829700" lon="-19.4293808">
        <ele>589.79998</ele>
        <time>2010-01-01T00:15:16Z</time>
      </trkpt>
      <trkpt lat="63.66821890" lon="-19.4292808">
        <ele>589.79998</ele>
        <time>2010-01-01T00:15:20Z</time>
      </trkpt>
      <trkpt lat="63.66819900" lon="-19.4292620">
        <ele>589.79998</ele>
        <time>2010-01-01T00:15:20Z</time>
      </trkpt>
      <trkpt lat="63.66818180" lon="-19.4292333">
        <ele>589.79998</ele>
        <time>2010-01-01T00:15:21Z</time>
      </trkpt>
      <trkpt lat="63.66816240" lon="-19.4291941">
        <ele>589.79998</ele>
        <time>2010-01-01T00:15:22Z</time>
      </trkpt>
      <trkpt lat="63.66813720" lon="-19.4291589">
        <ele>589.79998</ele>
        <time>2010-01-01T00:15:24Z</time>
      </trkpt>
      <trkpt lat="63.66811740" lon="-19.4291348">
        <ele>590.00000</ele>
        <time>2010-01-01T00:15:24Z</time>
      </trkpt>
      <trkpt lat="63.66809660" lon="-19.4291157">
        <ele>590.59997</ele>
        <time>2010-01-01T00:15:25Z</time>
      </trkpt>
      <trkpt lat="63.66807330" lon="-19.4290936">
        <ele>590.79998</ele>
        <time>2010-01-01T00:15:26Z</time>
      </trkpt>
      <trkpt lat="63.66805030" lon="-19.4290668">
        <ele>591.20001</ele>
        <time>2010-01-01T00:15:27Z</time>
      </trkpt>
      <trkpt lat="63.66802940" lon="-19.4290370">
        <ele>591.40002</ele>
        <time>2010-01-01T00:15:28Z</time>
      </trkpt>
      <trkpt lat="63.66799930" lon="-19.4290145">
        <ele>591.79998</ele>
        <time>2010-01-01T00:15:30Z</time>
      </trkpt>
      <trkpt lat="63.66797670" lon="-19.4289921">
        <ele>591.79998</ele>
        <time>2010-01-01T00:15:31Z</time>
      </trkpt>
      <trkpt lat="63.66795420" lon="-19.4289728">
        <ele>591.79998</ele>
        <time>2010-01-01T00:15:32Z</time>
      </trkpt>
      <trkpt lat="63.66792890" lon="-19.4289363">
        <ele>591.79998</ele>
        <time>2010-01-01T00:15:33Z</time>
      </trkpt>
      <trkpt lat="63.66790850" lon="-19.4289063">
        <ele>591.79998</ele>
        <time>2010-01-01T00:15:34Z</time>
      </trkpt>
      <trkpt lat="63.66788690" lon="-19.4288644">
        <ele>591.79998</ele>
        <time>2010-01-01T00:15:35Z</time>
      </trkpt>
      <trkpt lat="63.66786690" lon="-19.4288066">
        <ele>591.79998</ele>
        <time>2010-01-01T00:15:36Z</time>
      </trkpt>
      <trkpt lat="63.66785280" lon="-19.4287712">
        <ele>591.79998</ele>
        <time>2010-01-01T00:15:37Z</time>
      </trkpt>
      <trkpt lat="63.66783560" lon="-19.4287232">
        <ele>591.79998</ele>
        <time>2010-01-01T00:15:38Z</time>
      </trkpt>
      <trkpt lat="63.66781950" lon="-19.4286704">
        <ele>591.79998</ele>
        <time>2010-01-01T00:15:39Z</time>
      </trkpt>
      <trkpt lat="63.66780500" lon="-19.4286346">
        <ele>591.79998</ele>
        <time>2010-01-01T00:15:40Z</time>
      </trkpt>
      <trkpt lat="63.66778840" lon="-19.4285941">
        <ele>591.79998</ele>
        <time>2010-01-01T00:15:41Z</time>
      </trkpt>
      <trkpt lat="63.66777170" lon="-19.4285480">
        <ele>591.79998</ele>
        <time>2010-01-01T00:15:42Z</time>
      </trkpt>
      <trkpt lat="63.66775900" lon="-19.4285149">
        <ele>591.79998</ele>
        <time>2010-01-01T00:15:43Z</time>
      </trkpt>
      <trkpt lat="63.66774030" lon="-19.4284837">
        <ele>591.79998</ele>
        <time>2010-01-01T00:15:44Z</time>
      </trkpt>
      <trkpt lat="63.66770750" lon="-19.4284779">
        <ele>592.00000</ele>
        <time>2010-01-01T00:15:45Z</time>
      </trkpt>
      <trkpt lat="63.66768830" lon="-19.4284905">
        <ele>591.79998</ele>
        <time>2010-01-01T00:15:46Z</time>
      </trkpt>
      <trkpt lat="63.66767260" lon="-19.4284904">
        <ele>592.00000</ele>
        <time>2010-01-01T00:15:47Z</time>
      </trkpt>
      <trkpt lat="63.66764580" lon="-19.4284963">
        <ele>591.79998</ele>
        <time>2010-01-01T00:15:48Z</time>
      </trkpt>
      <trkpt lat="63.66763520" lon="-19.4285128">
        <ele>592.00000</ele>
        <time>2010-01-01T00:15:48Z</time>
      </trkpt>
      <trkpt lat="63.66762580" lon="-19.4285292">
        <ele>592.00000</ele>
        <time>2010-01-01T00:15:49Z</time>
      </trkpt>
      <trkpt lat="63.66761780" lon="-19.4285401">
        <ele>592.00000</ele>
        <time>2010-01-01T00:15:49Z</time>
      </trkpt>
      <trkpt lat="63.66760820" lon="-19.4285496">
        <ele>592.40002</ele>
        <time>2010-01-01T00:15:50Z</time>
      </trkpt>
      <trkpt lat="63.66759670" lon="-19.4285542">
        <ele>592.79998</ele>
        <time>2010-01-01T00:15:50Z</time>
      </trkpt>
      <trkpt lat="63.66758620" lon="-19.4285522">
        <ele>593.20001</ele>
        <time>2010-01-01T00:15:50Z</time>
      </trkpt>
      <trkpt lat="63.66757530" lon="-19.4285441">
        <ele>593.79998</ele>
        <time>2010-01-01T00:15:51Z</time>
      </trkpt>
      <trkpt lat="63.66756500" lon="-19.4285359">
        <ele>594.40002</ele>
        <time>2010-01-01T00:15:51Z</time>
      </trkpt>
      <trkpt lat="63.66755430" lon="-19.4285266">
        <ele>595.00000</ele>
        <time>2010-01-01T00:15:52Z</time>
      </trkpt>
      <trkpt lat="63.66754230" lon="-19.4285224">
        <ele>595.59997</ele>
        <time>2010-01-01T00:15:52Z</time>
      </trkpt>
      <trkpt lat="63.66753160" lon="-19.4285187">
        <ele>595.79998</ele>
        <time>2010-01-01T00:15:53Z</time>
      </trkpt>
      <trkpt lat="63.66750880" lon="-19.4285138">
        <ele>596.20001</ele>
        <time>2010-01-01T00:15:54Z</time>
      </trkpt>
      <trkpt lat="63.66749660" lon="-19.4285177">
        <ele>596.59997</ele>
        <time>2010-01-01T00:15:54Z</time>
      </trkpt>
      <trkpt lat="63.66748530" lon="-19.4285214">
        <ele>597.00000</ele>
        <time>2010-01-01T00:15:55Z</time>
      </trkpt>
      <trkpt lat="63.66747090" lon="-19.4285203">
        <ele>597.40002</ele>
        <time>2010-01-01T00:15:55Z</time>
      </trkpt>
      <trkpt lat="63.66745810" lon="-19.4285175">
        <ele>597.79998</ele>
        <time>2010-01-01T00:15:56Z</time>
      </trkpt>
      <trkpt lat="63.66744650" lon="-19.4285105">
        <ele>598.00000</ele>
        <time>2010-01-01T00:15:56Z</time>
      </trkpt>
      <trkpt lat="63.66741300" lon="-19.4285115">
        <ele>598.00000</ele>
        <time>2010-01-01T00:15:57Z</time>
      </trkpt>
      <trkpt lat="63.66740290" lon="-19.4285170">
        <ele>598.40002</ele>
        <time>2010-01-01T00:15:58Z</time>
      </trkpt>
      <trkpt lat="63.66739080" lon="-19.4285147">
        <ele>598.79998</ele>
        <time>2010-01-01T00:15:58Z</time>
      </trkpt>
      <trkpt lat="63.66737880" lon="-19.4285096">
        <ele>599.20001</ele>
        <time>2010-01-01T00:15:59Z</time>
      </trkpt>
      <trkpt lat="63.66736410" lon="-19.4285067">
        <ele>599.59997</ele>
        <time>2010-01-01T00:15:59Z</time>
      </trkpt>
      <trkpt lat="63.66735190" lon="-19.4285114">
        <ele>600.00000</ele>
        <time>2010-01-01T00:16:00Z</time>
      </trkpt>
      <trkpt lat="63.66731140" lon="-19.4285286">
        <ele>600.00000</ele>
        <time>2010-01-01T00:16:02Z</time>
      </trkpt>
      <trkpt lat="63.66729640" lon="-19.4285361">
        <ele>600.20001</ele>
        <time>2010-01-01T00:16:02Z</time>
      </trkpt>
      <trkpt lat="63.66728290" lon="-19.4285428">
        <ele>600.59997</ele>
        <time>2010-01-01T00:16:03Z</time>
      </trkpt>
      <trkpt lat="63.66726800" lon="-19.4285503">
        <ele>601.00000</ele>
        <time>2010-01-01T00:16:03Z</time>
      </trkpt>
      <trkpt lat="63.66725460" lon="-19.4285583">
        <ele>601.40002</ele>
        <time>2010-01-01T00:16:04Z</time>
      </trkpt>
      <trkpt lat="63.66723980" lon="-19.4285638">
        <ele>601.59997</ele>
        <time>2010-01-01T00:16:05Z</time>
      </trkpt>
      <trkpt lat="63.66722540" lon="-19.4285638">
        <ele>601.79998</ele>
        <time>2010-01-01T00:16:05Z</time>
      </trkpt>
      <trkpt lat="63.66721370" lon="-19.4285623">
        <ele>602.00000</ele>
        <time>2010-01-01T00:16:06Z</time>
      </trkpt>
      <trkpt lat="63.66716150" lon="-19.4285492">
        <ele>602.00000</ele>
        <time>2010-01-01T00:16:08Z</time>
      </trkpt>
      <trkpt lat="63.66709590" lon="-19.4285565">
        <ele>602.40002</ele>
        <time>2010-01-01T00:16:10Z</time>
      </trkpt>
      <trkpt lat="63.66708550" lon="-19.4285509">
        <ele>602.79998</ele>
        <time>2010-01-01T00:16:11Z</time>
      </trkpt>
      <trkpt lat="63.66707330" lon="-19.4285455">
        <ele>603.20001</ele>
        <time>2010-01-01T00:16:11Z</time>
      </trkpt>
      <trkpt lat="63.66705940" lon="-19.4285395">
        <ele>603.59997</ele>
        <time>2010-01-01T00:16:12Z</time>
      </trkpt>
      <trkpt lat="63.66704690" lon="-19.4285315">
        <ele>604.00000</ele>
        <time>2010-01-01T00:16:12Z</time>
      </trkpt>
      <trkpt lat="63.66697610" lon="-19.4284665">
        <ele>604.00000</ele>
        <time>2010-01-01T00:16:15Z</time>
      </trkpt>
      <trkpt lat="63.66694000" lon="-19.4284505">
        <ele>604.40002</ele>
        <time>2010-01-01T00:16:17Z</time>
      </trkpt>
      <trkpt lat="63.66692760" lon="-19.4284556">
        <ele>604.79998</ele>
        <time>2010-01-01T00:16:17Z</time>
      </trkpt>
      <trkpt lat="63.66691670" lon="-19.4284649">
        <ele>605.20001</ele>
        <time>2010-01-01T00:16:18Z</time>
      </trkpt>
      <trkpt lat="63.66690300" lon="-19.4284781">
        <ele>605.59997</ele>
        <time>2010-01-01T00:16:18Z</time>
      </trkpt>
      <trkpt lat="63.66688990" lon="-19.4284888">
        <ele>606.00000</ele>
        <time>2010-01-01T00:16:19Z</time>
      </trkpt>
      <trkpt lat="63.66687580" lon="-19.4284893">
        <ele>606.20001</ele>
        <time>2010-01-01T00:16:20Z</time>
      </trkpt>
      <trkpt lat="63.66681610" lon="-19.4284675">
        <ele>606.20001</ele>
        <time>2010-01-01T00:16:22Z</time>
      </trkpt>
      <trkpt lat="63.66679040" lon="-19.4284591">
        <ele>606.20001</ele>
        <time>2010-01-01T00:16:23Z</time>
      </trkpt>
      <trkpt lat="63.66677730" lon="-19.4284529">
        <ele>606.59997</ele>
        <time>2010-01-01T00:16:24Z</time>
      </trkpt>
      <trkpt lat="63.66676450" lon="-19.4284443">
        <ele>607.20001</ele>
        <time>2010-01-01T00:16:24Z</time>
      </trkpt>
      <trkpt lat="63.66675120" lon="-19.4284377">
        <ele>607.59997</ele>
        <time>2010-01-01T00:16:25Z</time>
      </trkpt>
      <trkpt lat="63.66673960" lon="-19.4284350">
        <ele>608.00000</ele>
        <time>2010-01-01T00:16:25Z</time>
      </trkpt>
      <trkpt lat="63.66672830" lon="-19.4284388">
        <ele>608.20001</ele>
        <time>2010-01-01T00:16:26Z</time>
      </trkpt>
      <trkpt lat="63.66670530" lon="-19.4284496">
        <ele>608.20001</ele>
        <time>2010-01-01T00:16:27Z</time>
      </trkpt>
      <trkpt lat="63.66667980" lon="-19.4284487">
        <ele>608.40002</ele>
        <time>2010-01-01T00:16:28Z</time>
      </trkpt>
      <trkpt lat="63.66666780" lon="-19.4284466">
        <ele>608.59997</ele>
        <time>2010-01-01T00:16:28Z</time>
      </trkpt>
      <trkpt lat="63.66665490" lon="-19.4284416">
        <ele>608.79998</ele>
        <time>2010-01-01T00:16:29Z</time>
      </trkpt>
      <trkpt lat="63.66664080" lon="-19.4284368">
        <ele>609.20001</ele>
        <time>2010-01-01T00:16:29Z</time>
      </trkpt>
      <trkpt lat="63.66662730" lon="-19.4284290">
        <ele>609.40002</ele>
        <time>2010-01-01T00:16:30Z</time>
      </trkpt>
      <trkpt lat="63.66661380" lon="-19.4284229">
        <ele>609.79998</ele>
        <time>2010-01-01T00:16:30Z</time>
      </trkpt>
      <trkpt lat="63.66659940" lon="-19.4284128">
        <ele>610.00000</ele>
        <time>2010-01-01T00:16:31Z</time>
      </trkpt>
      <trkpt lat="63.66658570" lon="-19.4284043">
        <ele>610.40002</ele>
        <time>2010-01-01T00:16:31Z</time>
      </trkpt>
      <trkpt lat="63.66657390" lon="-19.4283992">
        <ele>610.20001</ele>
        <time>2010-01-01T00:16:32Z</time>
      </trkpt>
      <trkpt lat="63.66654910" lon="-19.4283915">
        <ele>610.59997</ele>
        <time>2010-01-01T00:16:33Z</time>
      </trkpt>
      <trkpt lat="63.66652520" lon="-19.4284074">
        <ele>611.00000</ele>
        <time>2010-01-01T00:16:34Z</time>
      </trkpt>
      <trkpt lat="63.66649660" lon="-19.4284229">
        <ele>611.40002</ele>
        <time>2010-01-01T00:16:35Z</time>
      </trkpt>
      <trkpt lat="63.66647010" lon="-19.4284432">
        <ele>611.79998</ele>
        <time>2010-01-01T00:16:36Z</time>
      </trkpt>
      <trkpt lat="63.66644440" lon="-19.4284719">
        <ele>612.40002</ele>
        <time>2010-01-01T00:16:37Z</time>
      </trkpt>
      <trkpt lat="63.66634140" lon="-19.4285335">
        <ele>612.40002</ele>
        <time>2010-01-01T00:16:42Z</time>
      </trkpt>
      <trkpt lat="63.66625700" lon="-19.4285205">
        <ele>612.40002</ele>
        <time>2010-01-01T00:16:45Z</time>
      </trkpt>
      <trkpt lat="63.66622770" lon="-19.4285112">
        <ele>612.40002</ele>
        <time>2010-01-01T00:16:46Z</time>
      </trkpt>
      <trkpt lat="63.66619840" lon="-19.4285016">
        <ele>612.40002</ele>
        <time>2010-01-01T00:16:47Z</time>
      </trkpt>
      <trkpt lat="63.66616840" lon="-19.4284929">
        <ele>612.40002</ele>
        <time>2010-01-01T00:16:49Z</time>
      </trkpt>
      <trkpt lat="63.66613840" lon="-19.4284711">
        <ele>612.40002</ele>
        <time>2010-01-01T00:16:50Z</time>
      </trkpt>
      <trkpt lat="63.66611060" lon="-19.4284510">
        <ele>612.40002</ele>
        <time>2010-01-01T00:16:51Z</time>
      </trkpt>
      <trkpt lat="63.66608210" lon="-19.4284302">
        <ele>612.40002</ele>
        <time>2010-01-01T00:16:52Z</time>
      </trkpt>
      <trkpt lat="63.66605680" lon="-19.4284003">
        <ele>612.40002</ele>
        <time>2010-01-01T00:16:53Z</time>
      </trkpt>
      <trkpt lat="63.66603020" lon="-19.4283757">
        <ele>612.20001</ele>
        <time>2010-01-01T00:16:54Z</time>
      </trkpt>
      <trkpt lat="63.66600270" lon="-19.4283486">
        <ele>612.20001</ele>
        <time>2010-01-01T00:16:56Z</time>
      </trkpt>
      <trkpt lat="63.66597970" lon="-19.4283151">
        <ele>612.40002</ele>
        <time>2010-01-01T00:16:57Z</time>
      </trkpt>
      <trkpt lat="63.66595310" lon="-19.4282685">
        <ele>612.40002</ele>
        <time>2010-01-01T00:16:58Z</time>
      </trkpt>
      <trkpt lat="63.66593150" lon="-19.4282287">
        <ele>612.40002</ele>
        <time>2010-01-01T00:16:59Z</time>
      </trkpt>
      <trkpt lat="63.66589160" lon="-19.4281088">
        <ele>612.40002</ele>
        <time>2010-01-01T00:17:02Z</time>
      </trkpt>
      <trkpt lat="63.66587890" lon="-19.4280664">
        <ele>612.40002</ele>
        <time>2010-01-01T00:17:03Z</time>
      </trkpt>
      <trkpt lat="63.66586150" lon="-19.4280131">
        <ele>612.40002</ele>
        <time>2010-01-01T00:17:04Z</time>
      </trkpt>
      <trkpt lat="63.66584210" lon="-19.4279586">
        <ele>612.40002</ele>
        <time>2010-01-01T00:17:05Z</time>
      </trkpt>
      <trkpt lat="63.66582750" lon="-19.4279110">
        <ele>612.40002</ele>
        <time>2010-01-01T00:17:06Z</time>
      </trkpt>
      <trkpt lat="63.66580660" lon="-19.4278663">
        <ele>612.40002</ele>
        <time>2010-01-01T00:17:07Z</time>
      </trkpt>
      <trkpt lat="63.66578640" lon="-19.4278289">
        <ele>612.40002</ele>
        <time>2010-01-01T00:17:08Z</time>
      </trkpt>
      <trkpt lat="63.66576210" lon="-19.4277868">
        <ele>612.59997</ele>
        <time>2010-01-01T00:17:10Z</time>
      </trkpt>
      <trkpt lat="63.66574510" lon="-19.4277378">
        <ele>613.00000</ele>
        <time>2010-01-01T00:17:11Z</time>
      </trkpt>
      <trkpt lat="63.66572740" lon="-19.4276863">
        <ele>613.40002</ele>
        <time>2010-01-01T00:17:12Z</time>
      </trkpt>
      <trkpt lat="63.66573370" lon="-19.4276211">
        <ele>614.00000</ele>
        <time>2010-01-01T00:17:13Z</time>
      </trkpt>
      <trkpt lat="63.66574390" lon="-19.4275649">
        <ele>614.20001</ele>
        <time>2010-01-01T00:17:14Z</time>
      </trkpt>
      <trkpt lat="63.66574470" lon="-19.4275055">
        <ele>614.40002</ele>
        <time>2010-01-01T00:17:15Z</time>
      </trkpt>
      <trkpt lat="63.66575170" lon="-19.4274196">
        <ele>614.40002</ele>
        <time>2010-01-01T00:17:17Z</time>
      </trkpt>
      <trkpt lat="63.66574870" lon="-19.4273722">
        <ele>614.59997</ele>
        <time>2010-01-01T00:17:18Z</time>
      </trkpt>
      <trkpt lat="63.66574130" lon="-19.4273111">
        <ele>614.40002</ele>
        <time>2010-01-01T00:17:19Z</time>
      </trkpt>
      <trkpt lat="63.66572380" lon="-19.4272499">
        <ele>614.40002</ele>
        <time>2010-01-01T00:17:20Z</time>
      </trkpt>
      <trkpt lat="63.66571460" lon="-19.4271956">
        <ele>614.40002</ele>
        <time>2010-01-01T00:17:21Z</time>
      </trkpt>
      <trkpt lat="63.66569600" lon="-19.4271217">
        <ele>614.40002</ele>
        <time>2010-01-01T00:17:23Z</time>
      </trkpt>
      <trkpt lat="63.66567190" lon="-19.4270720">
        <ele>614.40002</ele>
        <time>2010-01-01T00:17:24Z</time>
      </trkpt>
      <trkpt lat="63.66564380" lon="-19.4270397">
        <ele>613.79998</ele>
        <time>2010-01-01T00:17:25Z</time>
      </trkpt>
      <trkpt lat="63.66561900" lon="-19.4270383">
        <ele>613.59997</ele>
        <time>2010-01-01T00:17:26Z</time>
      </trkpt>
      <trkpt lat="63.66559780" lon="-19.4270401">
        <ele>613.00000</ele>
        <time>2010-01-01T00:17:27Z</time>
      </trkpt>
      <trkpt lat="63.66557110" lon="-19.4270469">
        <ele>612.40002</ele>
        <time>2010-01-01T00:17:28Z</time>
      </trkpt>
      <trkpt lat="63.66555090" lon="-19.4270507">
        <ele>612.40002</ele>
        <time>2010-01-01T00:17:29Z</time>
      </trkpt>
      <trkpt lat="63.66553130" lon="-19.4270630">
        <ele>612.00000</ele>
        <time>2010-01-01T00:17:30Z</time>
      </trkpt>
      <trkpt lat="63.66550680" lon="-19.4270814">
        <ele>611.79998</ele>
        <time>2010-01-01T00:17:31Z</time>
      </trkpt>
      <trkpt lat="63.66548880" lon="-19.4271035">
        <ele>612.00000</ele>
        <time>2010-01-01T00:17:32Z</time>
      </trkpt>
      <trkpt lat="63.66547430" lon="-19.4271246">
        <ele>612.00000</ele>
        <time>2010-01-01T00:17:32Z</time>
      </trkpt>
      <trkpt lat="63.66540930" lon="-19.4271691">
        <ele>612.00000</ele>
        <time>2010-01-01T00:17:35Z</time>
      </trkpt>
      <trkpt lat="63.66532610" lon="-19.4271810">
        <ele>612.20001</ele>
        <time>2010-01-01T00:17:38Z</time>
      </trkpt>
      <trkpt lat="63.66530120" lon="-19.4271713">
        <ele>612.59997</ele>
        <time>2010-01-01T00:17:39Z</time>
      </trkpt>
      <trkpt lat="63.66527720" lon="-19.4271510">
        <ele>613.00000</ele>
        <time>2010-01-01T00:17:40Z</time>
      </trkpt>
      <trkpt lat="63.66524290" lon="-19.4271401">
        <ele>613.40002</ele>
        <time>2010-01-01T00:17:42Z</time>
      </trkpt>
      <trkpt lat="63.66521670" lon="-19.4271476">
        <ele>613.79998</ele>
        <time>2010-01-01T00:17:43Z</time>
      </trkpt>
      <trkpt lat="63.66518340" lon="-19.4271520">
        <ele>614.20001</ele>
        <time>2010-01-01T00:17:44Z</time>
      </trkpt>
      <trkpt lat="63.66515400" lon="-19.4271505">
        <ele>614.20001</ele>
        <time>2010-01-01T00:17:45Z</time>
      </trkpt>
      <trkpt lat="63.66505720" lon="-19.4272424">
        <ele>614.20001</ele>
        <time>2010-01-01T00:17:50Z</time>
      </trkpt>
      <trkpt lat="63.66502020" lon="-19.4272837">
        <ele>614.40002</ele>
        <time>2010-01-01T00:17:51Z</time>
      </trkpt>
      <trkpt lat="63.66500230" lon="-19.4273026">
        <ele>614.20001</ele>
        <time>2010-01-01T00:17:52Z</time>
      </trkpt>
      <trkpt lat="63.66495020" lon="-19.4273138">
        <ele>614.20001</ele>
        <time>2010-01-01T00:17:54Z</time>
      </trkpt>
      <trkpt lat="63.66487110" lon="-19.4273393">
        <ele>614.40002</ele>
        <time>2010-01-01T00:17:57Z</time>
      </trkpt>
      <trkpt lat="63.66484660" lon="-19.4273222">
        <ele>614.79998</ele>
        <time>2010-01-01T00:17:58Z</time>
      </trkpt>
      <trkpt lat="63.66481930" lon="-19.4273190">
        <ele>615.20001</ele>
        <time>2010-01-01T00:17:59Z</time>
      </trkpt>
      <trkpt lat="63.66480120" lon="-19.4273195">
        <ele>615.59997</ele>
        <time>2010-01-01T00:18:00Z</time>
      </trkpt>
      <trkpt lat="63.66477420" lon="-19.4273188">
        <ele>616.00000</ele>
        <time>2010-01-01T00:18:01Z</time>
      </trkpt>
      <trkpt lat="63.66474800" lon="-19.4273170">
        <ele>616.40002</ele>
        <time>2010-01-01T00:18:02Z</time>
      </trkpt>
      <trkpt lat="63.66472430" lon="-19.4273314">
        <ele>616.40002</ele>
        <time>2010-01-01T00:18:03Z</time>
      </trkpt>
      <trkpt lat="63.66469880" lon="-19.4273378">
        <ele>616.40002</ele>
        <time>2010-01-01T00:18:04Z</time>
      </trkpt>
      <trkpt lat="63.66467560" lon="-19.4273399">
        <ele>616.40002</ele>
        <time>2010-01-01T00:18:05Z</time>
      </trkpt>
      <trkpt lat="63.66464800" lon="-19.4273494">
        <ele>616.40002</ele>
        <time>2010-01-01T00:18:06Z</time>
      </trkpt>
      <trkpt lat="63.66462290" lon="-19.4273584">
        <ele>616.40002</ele>
        <time>2010-01-01T00:18:07Z</time>
      </trkpt>
      <trkpt lat="63.66459920" lon="-19.4273718">
        <ele>616.40002</ele>
        <time>2010-01-01T00:18:08Z</time>
      </trkpt>
      <trkpt lat="63.66457930" lon="-19.4273816">
        <ele>616.59997</ele>
        <time>2010-01-01T00:18:09Z</time>
      </trkpt>
      <trkpt lat="63.66455670" lon="-19.4273810">
        <ele>616.79998</ele>
        <time>2010-01-01T00:18:10Z</time>
      </trkpt>
      <trkpt lat="63.66452640" lon="-19.4273743">
        <ele>617.20001</ele>
        <time>2010-01-01T00:18:11Z</time>
      </trkpt>
      <trkpt lat="63.66450280" lon="-19.4273634">
        <ele>617.59997</ele>
        <time>2010-01-01T00:18:12Z</time>
      </trkpt>
      <trkpt lat="63.66447670" lon="-19.4273627">
        <ele>617.79998</ele>
        <time>2010-01-01T00:18:13Z</time>
      </trkpt>
      <trkpt lat="63.66445300" lon="-19.4273730">
        <ele>618.00000</ele>
        <time>2010-01-01T00:18:14Z</time>
      </trkpt>
      <trkpt lat="63.66443470" lon="-19.4273735">
        <ele>618.40002</ele>
        <time>2010-01-01T00:18:15Z</time>
      </trkpt>
      <trkpt lat="63.66441240" lon="-19.4273780">
        <ele>618.40002</ele>
        <time>2010-01-01T00:18:16Z</time>
      </trkpt>
      <trkpt lat="63.66432740" lon="-19.4273726">
        <ele>618.59997</ele>
        <time>2010-01-01T00:18:19Z</time>
      </trkpt>
      <trkpt lat="63.66431020" lon="-19.4273991">
        <ele>619.00000</ele>
        <time>2010-01-01T00:18:20Z</time>
      </trkpt>
      <trkpt lat="63.66429040" lon="-19.4274211">
        <ele>619.40002</ele>
        <time>2010-01-01T00:18:21Z</time>
      </trkpt>
      <trkpt lat="63.66426990" lon="-19.4274414">
        <ele>619.79998</ele>
        <time>2010-01-01T00:18:22Z</time>
      </trkpt>
      <trkpt lat="63.66425990" lon="-19.4274605">
        <ele>620.20001</ele>
        <time>2010-01-01T00:18:22Z</time>
      </trkpt>
      <trkpt lat="63.66425340" lon="-19.4274815">
        <ele>620.40002</ele>
        <time>2010-01-01T00:18:23Z</time>
      </trkpt>
      <trkpt lat="63.66425160" lon="-19.4275059">
        <ele>620.40002</ele>
        <time>2010-01-01T00:18:23Z</time>
      </trkpt>
      <trkpt lat="63.66421410" lon="-19.4275621">
        <ele>620.79998</ele>
        <time>2010-01-01T00:18:25Z</time>
      </trkpt>
      <trkpt lat="63.66420160" lon="-19.4275738">
        <ele>621.20001</ele>
        <time>2010-01-01T00:18:26Z</time>
      </trkpt>
      <trkpt lat="63.66419020" lon="-19.4275890">
        <ele>621.79998</ele>
        <time>2010-01-01T00:18:26Z</time>
      </trkpt>
      <trkpt lat="63.66418150" lon="-19.4276086">
        <ele>622.20001</ele>
        <time>2010-01-01T00:18:27Z</time>
      </trkpt>
      <trkpt lat="63.66417250" lon="-19.4276299">
        <ele>622.59997</ele>
        <time>2010-01-01T00:18:27Z</time>
      </trkpt>
      <trkpt lat="63.66413090" lon="-19.4276737">
        <ele>622.59997</ele>
        <time>2010-01-01T00:18:29Z</time>
      </trkpt>
      <trkpt lat="63.66412460" lon="-19.4276913">
        <ele>622.59997</ele>
        <time>2010-01-01T00:18:29Z</time>
      </trkpt>
      <trkpt lat="63.66410750" lon="-19.4276989">
        <ele>622.59997</ele>
        <time>2010-01-01T00:18:30Z</time>
      </trkpt>
      <trkpt lat="63.66409400" lon="-19.4276970">
        <ele>622.59997</ele>
        <time>2010-01-01T00:18:31Z</time>
      </trkpt>
      <trkpt lat="63.66408260" lon="-19.4276946">
        <ele>623.00000</ele>
        <time>2010-01-01T00:18:31Z</time>
      </trkpt>
      <trkpt lat="63.66406950" lon="-19.4276961">
        <ele>623.40002</ele>
        <time>2010-01-01T00:18:32Z</time>
      </trkpt>
      <trkpt lat="63.66405790" lon="-19.4276975">
        <ele>623.79998</ele>
        <time>2010-01-01T00:18:32Z</time>
      </trkpt>
      <trkpt lat="63.66405020" lon="-19.4276949">
        <ele>624.20001</ele>
        <time>2010-01-01T00:18:32Z</time>
      </trkpt>
      <trkpt lat="63.66404140" lon="-19.4276933">
        <ele>624.59997</ele>
        <time>2010-01-01T00:18:33Z</time>
      </trkpt>
      <trkpt lat="63.66403160" lon="-19.4277014">
        <ele>624.59997</ele>
        <time>2010-01-01T00:18:33Z</time>
      </trkpt>
      <trkpt lat="63.66402050" lon="-19.4277067">
        <ele>624.79998</ele>
        <time>2010-01-01T00:18:34Z</time>
      </trkpt>
      <trkpt lat="63.66401060" lon="-19.4277114">
        <ele>625.20001</ele>
        <time>2010-01-01T00:18:34Z</time>
      </trkpt>
      <trkpt lat="63.66399870" lon="-19.4277190">
        <ele>625.59997</ele>
        <time>2010-01-01T00:18:35Z</time>
      </trkpt>
      <trkpt lat="63.66398890" lon="-19.4277226">
        <ele>626.00000</ele>
        <time>2010-01-01T00:18:35Z</time>
      </trkpt>
      <trkpt lat="63.66397750" lon="-19.4277202">
        <ele>626.40002</ele>
        <time>2010-01-01T00:18:35Z</time>
      </trkpt>
      <trkpt lat="63.66396580" lon="-19.4277172">
        <ele>626.79998</ele>
        <time>2010-01-01T00:18:36Z</time>
      </trkpt>
      <trkpt lat="63.66395710" lon="-19.4277164">
        <ele>626.79998</ele>
        <time>2010-01-01T00:18:36Z</time>
      </trkpt>
      <trkpt lat="63.66394640" lon="-19.4277174">
        <ele>627.00000</ele>
        <time>2010-01-01T00:18:37Z</time>
      </trkpt>
      <trkpt lat="63.66393450" lon="-19.4277142">
        <ele>627.20001</ele>
        <time>2010-01-01T00:18:37Z</time>
      </trkpt>
      <trkpt lat="63.66392280" lon="-19.4277113">
        <ele>627.59997</ele>
        <time>2010-01-01T00:18:38Z</time>
      </trkpt>
      <trkpt lat="63.66391030" lon="-19.4277123">
        <ele>628.00000</ele>
        <time>2010-01-01T00:18:38Z</time>
      </trkpt>
      <trkpt lat="63.66389830" lon="-19.4277154">
        <ele>628.40002</ele>
        <time>2010-01-01T00:18:39Z</time>
      </trkpt>
      <trkpt lat="63.66388730" lon="-19.4277092">
        <ele>628.79998</ele>
        <time>2010-01-01T00:18:39Z</time>
      </trkpt>
      <trkpt lat="63.66386050" lon="-19.4277120">
        <ele>629.00000</ele>
        <time>2010-01-01T00:18:40Z</time>
      </trkpt>
      <trkpt lat="63.66385440" lon="-19.4277136">
        <ele>629.59997</ele>
        <time>2010-01-01T00:18:40Z</time>
      </trkpt>
      <trkpt lat="63.66384490" lon="-19.4277112">
        <ele>630.00000</ele>
        <time>2010-01-01T00:18:41Z</time>
      </trkpt>
      <trkpt lat="63.66383660" lon="-19.4277100">
        <ele>630.40002</ele>
        <time>2010-01-01T00:18:41Z</time>
      </trkpt>
      <trkpt lat="63.66382750" lon="-19.4277104">
        <ele>630.79998</ele>
        <time>2010-01-01T00:18:41Z</time>
      </trkpt>
      <trkpt lat="63.66381770" lon="-19.4277054">
        <ele>631.00000</ele>
        <time>2010-01-01T00:18:42Z</time>
      </trkpt>
      <trkpt lat="63.66380860" lon="-19.4276910">
        <ele>631.20001</ele>
        <time>2010-01-01T00:18:42Z</time>
      </trkpt>
      <trkpt lat="63.66379640" lon="-19.4276743">
        <ele>631.59997</ele>
        <time>2010-01-01T00:18:43Z</time>
      </trkpt>
      <trkpt lat="63.66378630" lon="-19.4276734">
        <ele>632.00000</ele>
        <time>2010-01-01T00:18:43Z</time>
      </trkpt>
      <trkpt lat="63.66377490" lon="-19.4276722">
        <ele>632.40002</ele>
        <time>2010-01-01T00:18:44Z</time>
      </trkpt>
      <trkpt lat="63.66376450" lon="-19.4276719">
        <ele>632.79998</ele>
        <time>2010-01-01T00:18:44Z</time>
      </trkpt>
      <trkpt lat="63.66375290" lon="-19.4276648">
        <ele>633.00000</ele>
        <time>2010-01-01T00:18:45Z</time>
      </trkpt>
      <trkpt lat="63.66373440" lon="-19.4276602">
        <ele>633.40002</ele>
        <time>2010-01-01T00:18:45Z</time>
      </trkpt>
      <trkpt lat="63.66372880" lon="-19.4276632">
        <ele>633.79998</ele>
        <time>2010-01-01T00:18:46Z</time>
      </trkpt>
      <trkpt lat="63.66371850" lon="-19.4276674">
        <ele>634.20001</ele>
        <time>2010-01-01T00:18:46Z</time>
      </trkpt>
      <trkpt lat="63.66370840" lon="-19.4276670">
        <ele>634.59997</ele>
        <time>2010-01-01T00:18:46Z</time>
      </trkpt>
      <trkpt lat="63.66368860" lon="-19.4276604">
        <ele>635.00000</ele>
        <time>2010-01-01T00:18:47Z</time>
      </trkpt>
      <trkpt lat="63.66367910" lon="-19.4276474">
        <ele>635.40002</ele>
        <time>2010-01-01T00:18:48Z</time>
      </trkpt>
      <trkpt lat="63.66366620" lon="-19.4276430">
        <ele>635.79998</ele>
        <time>2010-01-01T00:18:48Z</time>
      </trkpt>
      <trkpt lat="63.66365390" lon="-19.4276476">
        <ele>636.20001</ele>
        <time>2010-01-01T00:18:49Z</time>
      </trkpt>
      <trkpt lat="63.66364480" lon="-19.4276542">
        <ele>636.59997</ele>
        <time>2010-01-01T00:18:49Z</time>
      </trkpt>
      <trkpt lat="63.66363450" lon="-19.4276565">
        <ele>637.00000</ele>
        <time>2010-01-01T00:18:49Z</time>
      </trkpt>
      <trkpt lat="63.66362130" lon="-19.4276670">
        <ele>637.20001</ele>
        <time>2010-01-01T00:18:50Z</time>
      </trkpt>
      <trkpt lat="63.66358620" lon="-19.4276542">
        <ele>637.40002</ele>
        <time>2010-01-01T00:18:51Z</time>
      </trkpt>
      <trkpt lat="63.66357580" lon="-19.4276510">
        <ele>637.79998</ele>
        <time>2010-01-01T00:18:52Z</time>
      </trkpt>
      <trkpt lat="63.66356570" lon="-19.4276516">
        <ele>638.20001</ele>
        <time>2010-01-01T00:18:52Z</time>
      </trkpt>
      <trkpt lat="63.66355610" lon="-19.4276581">
        <ele>638.59997</ele>
        <time>2010-01-01T00:18:53Z</time>
      </trkpt>
      <trkpt lat="63.66354340" lon="-19.4276656">
        <ele>639.00000</ele>
        <time>2010-01-01T00:18:53Z</time>
      </trkpt>
      <trkpt lat="63.66353040" lon="-19.4276705">
        <ele>639.20001</ele>
        <time>2010-01-01T00:18:54Z</time>
      </trkpt>
      <trkpt lat="63.66350290" lon="-19.4276591">
        <ele>639.59997</ele>
        <time>2010-01-01T00:18:55Z</time>
      </trkpt>
      <trkpt lat="63.66349540" lon="-19.4276405">
        <ele>640.00000</ele>
        <time>2010-01-01T00:18:55Z</time>
      </trkpt>
      <trkpt lat="63.66348630" lon="-19.4276322">
        <ele>640.40002</ele>
        <time>2010-01-01T00:18:56Z</time>
      </trkpt>
      <trkpt lat="63.66347560" lon="-19.4276277">
        <ele>640.79998</ele>
        <time>2010-01-01T00:18:56Z</time>
      </trkpt>
      <trkpt lat="63.66346520" lon="-19.4276292">
        <ele>641.20001</ele>
        <time>2010-01-01T00:18:57Z</time>
      </trkpt>
      <trkpt lat="63.66345150" lon="-19.4276336">
        <ele>641.40002</ele>
        <time>2010-01-01T00:18:57Z</time>
      </trkpt>
      <trkpt lat="63.66342550" lon="-19.4276333">
        <ele>641.40002</ele>
        <time>2010-01-01T00:18:58Z</time>
      </trkpt>
      <trkpt lat="63.66340350" lon="-19.4276445">
        <ele>641.59997</ele>
        <time>2010-01-01T00:18:59Z</time>
      </trkpt>
      <trkpt lat="63.66338930" lon="-19.4276428">
        <ele>642.20001</ele>
        <time>2010-01-01T00:19:00Z</time>
      </trkpt>
      <trkpt lat="63.66337670" lon="-19.4276465">
        <ele>642.40002</ele>
        <time>2010-01-01T00:19:00Z</time>
      </trkpt>
      <trkpt lat="63.66336160" lon="-19.4276342">
        <ele>642.79998</ele>
        <time>2010-01-01T00:19:01Z</time>
      </trkpt>
      <trkpt lat="63.66335060" lon="-19.4276227">
        <ele>643.20001</ele>
        <time>2010-01-01T00:19:01Z</time>
      </trkpt>
      <trkpt lat="63.66333830" lon="-19.4276143">
        <ele>643.40002</ele>
        <time>2010-01-01T00:19:02Z</time>
      </trkpt>
      <trkpt lat="63.66330960" lon="-19.4275902">
        <ele>643.59997</ele>
        <time>2010-01-01T00:19:03Z</time>
      </trkpt>
      <trkpt lat="63.66329700" lon="-19.4275802">
        <ele>644.00000</ele>
        <time>2010-01-01T00:19:04Z</time>
      </trkpt>
      <trkpt lat="63.66328540" lon="-19.4275662">
        <ele>644.40002</ele>
        <time>2010-01-01T00:19:04Z</time>
      </trkpt>
      <trkpt lat="63.66327240" lon="-19.4275527">
        <ele>644.79998</ele>
        <time>2010-01-01T00:19:05Z</time>
      </trkpt>
      <trkpt lat="63.66326000" lon="-19.4275489">
        <ele>645.20001</ele>
        <time>2010-01-01T00:19:05Z</time>
      </trkpt>
      <trkpt lat="63.66324650" lon="-19.4275442">
        <ele>645.59997</ele>
        <time>2010-01-01T00:19:06Z</time>
      </trkpt>
      <trkpt lat="63.66322080" lon="-19.4275340">
        <ele>646.00000</ele>
        <time>2010-01-01T00:19:07Z</time>
      </trkpt>
      <trkpt lat="63.66320780" lon="-19.4275283">
        <ele>646.40002</ele>
        <time>2010-01-01T00:19:07Z</time>
      </trkpt>
      <trkpt lat="63.66319340" lon="-19.4275229">
        <ele>646.79998</ele>
        <time>2010-01-01T00:19:08Z</time>
      </trkpt>
      <trkpt lat="63.66318390" lon="-19.4275097">
        <ele>647.20001</ele>
        <time>2010-01-01T00:19:08Z</time>
      </trkpt>
      <trkpt lat="63.66317320" lon="-19.4275009">
        <ele>647.59997</ele>
        <time>2010-01-01T00:19:09Z</time>
      </trkpt>
      <trkpt lat="63.66314930" lon="-19.4274963">
        <ele>647.79998</ele>
        <time>2010-01-01T00:19:10Z</time>
      </trkpt>
      <trkpt lat="63.66313830" lon="-19.4274956">
        <ele>648.20001</ele>
        <time>2010-01-01T00:19:10Z</time>
      </trkpt>
      <trkpt lat="63.66312740" lon="-19.4274911">
        <ele>648.59997</ele>
        <time>2010-01-01T00:19:11Z</time>
      </trkpt>
      <trkpt lat="63.66311540" lon="-19.4274797">
        <ele>649.00000</ele>
        <time>2010-01-01T00:19:11Z</time>
      </trkpt>
      <trkpt lat="63.66310780" lon="-19.4274752">
        <ele>649.20001</ele>
        <time>2010-01-01T00:19:11Z</time>
      </trkpt>
      <trkpt lat="63.66309160" lon="-19.4274584">
        <ele>649.79998</ele>
        <time>2010-01-01T00:19:12Z</time>
      </trkpt>
      <trkpt lat="63.66306410" lon="-19.4274305">
        <ele>649.79998</ele>
        <time>2010-01-01T00:19:13Z</time>
      </trkpt>
      <trkpt lat="63.66305130" lon="-19.4274287">
        <ele>650.00000</ele>
        <time>2010-01-01T00:19:14Z</time>
      </trkpt>
      <trkpt lat="63.66303730" lon="-19.4274275">
        <ele>650.40002</ele>
        <time>2010-01-01T00:19:14Z</time>
      </trkpt>
      <trkpt lat="63.66299220" lon="-19.4274199">
        <ele>651.20001</ele>
        <time>2010-01-01T00:19:16Z</time>
      </trkpt>
      <trkpt lat="63.66298130" lon="-19.4274152">
        <ele>651.59997</ele>
        <time>2010-01-01T00:19:17Z</time>
      </trkpt>
      <trkpt lat="63.66296790" lon="-19.4274087">
        <ele>651.79998</ele>
        <time>2010-01-01T00:19:17Z</time>
      </trkpt>
      <trkpt lat="63.66294130" lon="-19.4274075">
        <ele>652.00000</ele>
        <time>2010-01-01T00:19:18Z</time>
      </trkpt>
      <trkpt lat="63.66292940" lon="-19.4274053">
        <ele>652.40002</ele>
        <time>2010-01-01T00:19:19Z</time>
      </trkpt>
      <trkpt lat="63.66291720" lon="-19.4274054">
        <ele>652.79998</ele>
        <time>2010-01-01T00:19:19Z</time>
      </trkpt>
      <trkpt lat="63.66290360" lon="-19.4274014">
        <ele>653.20001</ele>
        <time>2010-01-01T00:19:20Z</time>
      </trkpt>
      <trkpt lat="63.66288920" lon="-19.4273959">
        <ele>653.59997</ele>
        <time>2010-01-01T00:19:20Z</time>
      </trkpt>
      <trkpt lat="63.66287910" lon="-19.4273857">
        <ele>653.79998</ele>
        <time>2010-01-01T00:19:21Z</time>
      </trkpt>
      <trkpt lat="63.66283890" lon="-19.4273640">
        <ele>653.79998</ele>
        <time>2010-01-01T00:19:22Z</time>
      </trkpt>
      <trkpt lat="63.66282810" lon="-19.4273558">
        <ele>654.20001</ele>
        <time>2010-01-01T00:19:23Z</time>
      </trkpt>
      <trkpt lat="63.66281410" lon="-19.4273478">
        <ele>654.59997</ele>
        <time>2010-01-01T00:19:23Z</time>
      </trkpt>
      <trkpt lat="63.66280340" lon="-19.4273393">
        <ele>655.00000</ele>
        <time>2010-01-01T00:19:24Z</time>
      </trkpt>
      <trkpt lat="63.66279120" lon="-19.4273342">
        <ele>655.40002</ele>
        <time>2010-01-01T00:19:24Z</time>
      </trkpt>
      <trkpt lat="63.66277800" lon="-19.4273355">
        <ele>655.79998</ele>
        <time>2010-01-01T00:19:25Z</time>
      </trkpt>
      <trkpt lat="63.66276480" lon="-19.4273319">
        <ele>655.79998</ele>
        <time>2010-01-01T00:19:26Z</time>
      </trkpt>
      <trkpt lat="63.66273850" lon="-19.4273213">
        <ele>655.79998</ele>
        <time>2010-01-01T00:19:27Z</time>
      </trkpt>
      <trkpt lat="63.66271610" lon="-19.4273129">
        <ele>656.20001</ele>
        <time>2010-01-01T00:19:27Z</time>
      </trkpt>
      <trkpt lat="63.66270170" lon="-19.4273037">
        <ele>656.79998</ele>
        <time>2010-01-01T00:19:28Z</time>
      </trkpt>
      <trkpt lat="63.66269330" lon="-19.4272927">
        <ele>657.20001</ele>
        <time>2010-01-01T00:19:28Z</time>
      </trkpt>
      <trkpt lat="63.66268800" lon="-19.4272797">
        <ele>657.59997</ele>
        <time>2010-01-01T00:19:29Z</time>
      </trkpt>
      <trkpt lat="63.66267780" lon="-19.4272723">
        <ele>658.00000</ele>
        <time>2010-01-01T00:19:29Z</time>
      </trkpt>
      <trkpt lat="63.66266850" lon="-19.4272543">
        <ele>658.00000</ele>
        <time>2010-01-01T00:19:30Z</time>
      </trkpt>
      <trkpt lat="63.66264100" lon="-19.4272011">
        <ele>658.40002</ele>
        <time>2010-01-01T00:19:31Z</time>
      </trkpt>
      <trkpt lat="63.66263780" lon="-19.4271802">
        <ele>658.79998</ele>
        <time>2010-01-01T00:19:32Z</time>
      </trkpt>
      <trkpt lat="63.66263260" lon="-19.4271595">
        <ele>659.20001</ele>
        <time>2010-01-01T00:19:32Z</time>
      </trkpt>
      <trkpt lat="63.66262810" lon="-19.4271357">
        <ele>659.59997</ele>
        <time>2010-01-01T00:19:32Z</time>
      </trkpt>
      <trkpt lat="63.66262700" lon="-19.4271186">
        <ele>660.00000</ele>
        <time>2010-01-01T00:19:33Z</time>
      </trkpt>
      <trkpt lat="63.66262190" lon="-19.4270987">
        <ele>660.00000</ele>
        <time>2010-01-01T00:19:33Z</time>
      </trkpt>
      <trkpt lat="63.66261510" lon="-19.4270879">
        <ele>660.00000</ele>
        <time>2010-01-01T00:19:33Z</time>
      </trkpt>
      <trkpt lat="63.66259650" lon="-19.4270906">
        <ele>660.20001</ele>
        <time>2010-01-01T00:19:34Z</time>
      </trkpt>
      <trkpt lat="63.66258560" lon="-19.4270742">
        <ele>660.59997</ele>
        <time>2010-01-01T00:19:35Z</time>
      </trkpt>
      <trkpt lat="63.66257610" lon="-19.4270705">
        <ele>661.00000</ele>
        <time>2010-01-01T00:19:35Z</time>
      </trkpt>
      <trkpt lat="63.66256720" lon="-19.4270652">
        <ele>661.40002</ele>
        <time>2010-01-01T00:19:36Z</time>
      </trkpt>
      <trkpt lat="63.66255610" lon="-19.4270574">
        <ele>661.79998</ele>
        <time>2010-01-01T00:19:36Z</time>
      </trkpt>
      <trkpt lat="63.66254620" lon="-19.4270421">
        <ele>662.00000</ele>
        <time>2010-01-01T00:19:36Z</time>
      </trkpt>
      <trkpt lat="63.66251580" lon="-19.4270098">
        <ele>662.00000</ele>
        <time>2010-01-01T00:19:38Z</time>
      </trkpt>
      <trkpt lat="63.66250900" lon="-19.4270020">
        <ele>662.00000</ele>
        <time>2010-01-01T00:19:38Z</time>
      </trkpt>
      <trkpt lat="63.66249600" lon="-19.4270075">
        <ele>662.40002</ele>
        <time>2010-01-01T00:19:39Z</time>
      </trkpt>
      <trkpt lat="63.66248250" lon="-19.4270096">
        <ele>662.79998</ele>
        <time>2010-01-01T00:19:39Z</time>
      </trkpt>
      <trkpt lat="63.66246640" lon="-19.4270221">
        <ele>663.40002</ele>
        <time>2010-01-01T00:19:40Z</time>
      </trkpt>
      <trkpt lat="63.66245440" lon="-19.4270217">
        <ele>663.79998</ele>
        <time>2010-01-01T00:19:40Z</time>
      </trkpt>
      <trkpt lat="63.66244380" lon="-19.4270186">
        <ele>664.20001</ele>
        <time>2010-01-01T00:19:41Z</time>
      </trkpt>
      <trkpt lat="63.66243100" lon="-19.4270016">
        <ele>664.20001</ele>
        <time>2010-01-01T00:19:41Z</time>
      </trkpt>
      <trkpt lat="63.66239210" lon="-19.4269795">
        <ele>664.59997</ele>
        <time>2010-01-01T00:19:43Z</time>
      </trkpt>
      <trkpt lat="63.66237990" lon="-19.4269762">
        <ele>665.00000</ele>
        <time>2010-01-01T00:19:43Z</time>
      </trkpt>
      <trkpt lat="63.66236850" lon="-19.4269759">
        <ele>665.40002</ele>
        <time>2010-01-01T00:19:44Z</time>
      </trkpt>
      <trkpt lat="63.66236030" lon="-19.4269743">
        <ele>665.79998</ele>
        <time>2010-01-01T00:19:44Z</time>
      </trkpt>
      <trkpt lat="63.66235190" lon="-19.4269823">
        <ele>666.20001</ele>
        <time>2010-01-01T00:19:45Z</time>
      </trkpt>
      <trkpt lat="63.66231620" lon="-19.4270003">
        <ele>666.59997</ele>
        <time>2010-01-01T00:19:46Z</time>
      </trkpt>
      <trkpt lat="63.66230390" lon="-19.4270021">
        <ele>667.00000</ele>
        <time>2010-01-01T00:19:47Z</time>
      </trkpt>
      <trkpt lat="63.66229520" lon="-19.4270038">
        <ele>667.40002</ele>
        <time>2010-01-01T00:19:47Z</time>
      </trkpt>
      <trkpt lat="63.66228390" lon="-19.4270133">
        <ele>668.00000</ele>
        <time>2010-01-01T00:19:47Z</time>
      </trkpt>
      <trkpt lat="63.66227390" lon="-19.4270103">
        <ele>668.20001</ele>
        <time>2010-01-01T00:19:48Z</time>
      </trkpt>
      <trkpt lat="63.66226440" lon="-19.4269993">
        <ele>668.20001</ele>
        <time>2010-01-01T00:19:48Z</time>
      </trkpt>
      <trkpt lat="63.66225650" lon="-19.4269933">
        <ele>668.59997</ele>
        <time>2010-01-01T00:19:49Z</time>
      </trkpt>
      <trkpt lat="63.66225440" lon="-19.4269948">
        <ele>669.00000</ele>
        <time>2010-01-01T00:19:49Z</time>
      </trkpt>
      <trkpt lat="63.66224110" lon="-19.4270042">
        <ele>669.40002</ele>
        <time>2010-01-01T00:19:49Z</time>
      </trkpt>
      <trkpt lat="63.66223030" lon="-19.4269959">
        <ele>669.79998</ele>
        <time>2010-01-01T00:19:50Z</time>
      </trkpt>
      <trkpt lat="63.66221760" lon="-19.4269917">
        <ele>670.20001</ele>
        <time>2010-01-01T00:19:50Z</time>
      </trkpt>
      <trkpt lat="63.66220950" lon="-19.4269906">
        <ele>670.20001</ele>
        <time>2010-01-01T00:19:51Z</time>
      </trkpt>
      <trkpt lat="63.66220070" lon="-19.4269992">
        <ele>670.59997</ele>
        <time>2010-01-01T00:19:51Z</time>
      </trkpt>
      <trkpt lat="63.66218940" lon="-19.4270060">
        <ele>671.00000</ele>
        <time>2010-01-01T00:19:51Z</time>
      </trkpt>
      <trkpt lat="63.66217960" lon="-19.4270036">
        <ele>671.40002</ele>
        <time>2010-01-01T00:19:52Z</time>
      </trkpt>
      <trkpt lat="63.66216530" lon="-19.4269938">
        <ele>671.79998</ele>
        <time>2010-01-01T00:19:52Z</time>
      </trkpt>
      <trkpt lat="63.66215550" lon="-19.4269825">
        <ele>672.20001</ele>
        <time>2010-01-01T00:19:53Z</time>
      </trkpt>
      <trkpt lat="63.66214510" lon="-19.4269770">
        <ele>672.40002</ele>
        <time>2010-01-01T00:19:53Z</time>
      </trkpt>
      <trkpt lat="63.66213850" lon="-19.4269712">
        <ele>672.40002</ele>
        <time>2010-01-01T00:19:54Z</time>
      </trkpt>
      <trkpt lat="63.66213200" lon="-19.4269642">
        <ele>673.00000</ele>
        <time>2010-01-01T00:19:54Z</time>
      </trkpt>
      <trkpt lat="63.66212170" lon="-19.4269569">
        <ele>673.20001</ele>
        <time>2010-01-01T00:19:54Z</time>
      </trkpt>
      <trkpt lat="63.66211210" lon="-19.4269464">
        <ele>673.59997</ele>
        <time>2010-01-01T00:19:55Z</time>
      </trkpt>
      <trkpt lat="63.66210080" lon="-19.4269420">
        <ele>674.00000</ele>
        <time>2010-01-01T00:19:55Z</time>
      </trkpt>
      <trkpt lat="63.66209210" lon="-19.4269445">
        <ele>674.40002</ele>
        <time>2010-01-01T00:19:55Z</time>
      </trkpt>
      <trkpt lat="63.66208040" lon="-19.4269423">
        <ele>674.40002</ele>
        <time>2010-01-01T00:19:56Z</time>
      </trkpt>
      <trkpt lat="63.66206790" lon="-19.4269303">
        <ele>674.59997</ele>
        <time>2010-01-01T00:19:56Z</time>
      </trkpt>
      <trkpt lat="63.66205750" lon="-19.4269208">
        <ele>675.00000</ele>
        <time>2010-01-01T00:19:57Z</time>
      </trkpt>
      <trkpt lat="63.66204590" lon="-19.4269215">
        <ele>675.40002</ele>
        <time>2010-01-01T00:19:57Z</time>
      </trkpt>
      <trkpt lat="63.66203450" lon="-19.4269243">
        <ele>675.79998</ele>
        <time>2010-01-01T00:19:58Z</time>
      </trkpt>
      <trkpt lat="63.66202160" lon="-19.4269266">
        <ele>676.20001</ele>
        <time>2010-01-01T00:19:58Z</time>
      </trkpt>
      <trkpt lat="63.66200810" lon="-19.4269282">
        <ele>676.40002</ele>
        <time>2010-01-01T00:19:59Z</time>
      </trkpt>
      <trkpt lat="63.66199560" lon="-19.4269245">
        <ele>676.59997</ele>
        <time>2010-01-01T00:19:59Z</time>
      </trkpt>
      <trkpt lat="63.66198500" lon="-19.4269217">
        <ele>677.00000</ele>
        <time>2010-01-01T00:20:00Z</time>
      </trkpt>
      <trkpt lat="63.66197130" lon="-19.4269061">
        <ele>677.59997</ele>
        <time>2010-01-01T00:20:00Z</time>
      </trkpt>
      <trkpt lat="63.66196250" lon="-19.4269010">
        <ele>677.79998</ele>
        <time>2010-01-01T00:20:01Z</time>
      </trkpt>
      <trkpt lat="63.66195260" lon="-19.4268990">
        <ele>678.20001</ele>
        <time>2010-01-01T00:20:01Z</time>
      </trkpt>
      <trkpt lat="63.66194120" lon="-19.4268913">
        <ele>678.59997</ele>
        <time>2010-01-01T00:20:02Z</time>
      </trkpt>
      <trkpt lat="63.66193170" lon="-19.4268777">
        <ele>678.40002</ele>
        <time>2010-01-01T00:20:02Z</time>
      </trkpt>
      <trkpt lat="63.66191590" lon="-19.4268570">
        <ele>678.59997</ele>
        <time>2010-01-01T00:20:03Z</time>
      </trkpt>
      <trkpt lat="63.66190980" lon="-19.4268492">
        <ele>679.00000</ele>
        <time>2010-01-01T00:20:03Z</time>
      </trkpt>
      <trkpt lat="63.66189750" lon="-19.4268415">
        <ele>679.40002</ele>
        <time>2010-01-01T00:20:04Z</time>
      </trkpt>
      <trkpt lat="63.66187810" lon="-19.4268226">
        <ele>680.00000</ele>
        <time>2010-01-01T00:20:05Z</time>
      </trkpt>
      <trkpt lat="63.66186920" lon="-19.4268094">
        <ele>680.40002</ele>
        <time>2010-01-01T00:20:05Z</time>
      </trkpt>
      <trkpt lat="63.66185740" lon="-19.4268021">
        <ele>680.59997</ele>
        <time>2010-01-01T00:20:05Z</time>
      </trkpt>
      <trkpt lat="63.66184240" lon="-19.4267899">
        <ele>680.59997</ele>
        <time>2010-01-01T00:20:06Z</time>
      </trkpt>
      <trkpt lat="63.66184060" lon="-19.4267913">
        <ele>681.00000</ele>
        <time>2010-01-01T00:20:06Z</time>
      </trkpt>
      <trkpt lat="63.66183270" lon="-19.4267856">
        <ele>681.40002</ele>
        <time>2010-01-01T00:20:06Z</time>
      </trkpt>
      <trkpt lat="63.66182190" lon="-19.4267719">
        <ele>681.79998</ele>
        <time>2010-01-01T00:20:07Z</time>
      </trkpt>
      <trkpt lat="63.66181120" lon="-19.4267577">
        <ele>682.40002</ele>
        <time>2010-01-01T00:20:07Z</time>
      </trkpt>
      <trkpt lat="63.66180130" lon="-19.4267396">
        <ele>682.59997</ele>
        <time>2010-01-01T00:20:08Z</time>
      </trkpt>
      <trkpt lat="63.66178530" lon="-19.4267173">
        <ele>682.79998</ele>
        <time>2010-01-01T00:20:09Z</time>
      </trkpt>
      <trkpt lat="63.66177580" lon="-19.4267126">
        <ele>683.40002</ele>
        <time>2010-01-01T00:20:09Z</time>
      </trkpt>
      <trkpt lat="63.66176650" lon="-19.4266994">
        <ele>683.79998</ele>
        <time>2010-01-01T00:20:10Z</time>
      </trkpt>
      <trkpt lat="63.66175460" lon="-19.4266925">
        <ele>684.20001</ele>
        <time>2010-01-01T00:20:10Z</time>
      </trkpt>
      <trkpt lat="63.66174180" lon="-19.4266878">
        <ele>684.59997</ele>
        <time>2010-01-01T00:20:11Z</time>
      </trkpt>
      <trkpt lat="63.66173090" lon="-19.4266779">
        <ele>684.59997</ele>
        <time>2010-01-01T00:20:11Z</time>
      </trkpt>
      <trkpt lat="63.66171730" lon="-19.4266734">
        <ele>684.79998</ele>
        <time>2010-01-01T00:20:12Z</time>
      </trkpt>
      <trkpt lat="63.66170680" lon="-19.4266774">
        <ele>685.20001</ele>
        <time>2010-01-01T00:20:12Z</time>
      </trkpt>
      <trkpt lat="63.66169290" lon="-19.4266759">
        <ele>685.59997</ele>
        <time>2010-01-01T00:20:13Z</time>
      </trkpt>
      <trkpt lat="63.66168060" lon="-19.4266705">
        <ele>686.00000</ele>
        <time>2010-01-01T00:20:13Z</time>
      </trkpt>
      <trkpt lat="63.66167130" lon="-19.4266632">
        <ele>686.40002</ele>
        <time>2010-01-01T00:20:13Z</time>
      </trkpt>
      <trkpt lat="63.66166070" lon="-19.4266589">
        <ele>686.79998</ele>
        <time>2010-01-01T00:20:14Z</time>
      </trkpt>
      <trkpt lat="63.66161740" lon="-19.4266237">
        <ele>687.00000</ele>
        <time>2010-01-01T00:20:16Z</time>
      </trkpt>
      <trkpt lat="63.66161010" lon="-19.4266127">
        <ele>687.40002</ele>
        <time>2010-01-01T00:20:16Z</time>
      </trkpt>
      <trkpt lat="63.66160550" lon="-19.4266055">
        <ele>687.79998</ele>
        <time>2010-01-01T00:20:16Z</time>
      </trkpt>
      <trkpt lat="63.66159060" lon="-19.4265871">
        <ele>688.20001</ele>
        <time>2010-01-01T00:20:17Z</time>
      </trkpt>
      <trkpt lat="63.66158530" lon="-19.4265734">
        <ele>688.59997</ele>
        <time>2010-01-01T00:20:17Z</time>
      </trkpt>
      <trkpt lat="63.66157390" lon="-19.4265659">
        <ele>688.79998</ele>
        <time>2010-01-01T00:20:18Z</time>
      </trkpt>
      <trkpt lat="63.66156210" lon="-19.4265627">
        <ele>689.20001</ele>
        <time>2010-01-01T00:20:18Z</time>
      </trkpt>
      <trkpt lat="63.66155030" lon="-19.4265745">
        <ele>689.59997</ele>
        <time>2010-01-01T00:20:19Z</time>
      </trkpt>
      <trkpt lat="63.66153690" lon="-19.4265800">
        <ele>690.00000</ele>
        <time>2010-01-01T00:20:19Z</time>
      </trkpt>
      <trkpt lat="63.66152420" lon="-19.4265824">
        <ele>690.40002</ele>
        <time>2010-01-01T00:20:20Z</time>
      </trkpt>
      <trkpt lat="63.66151200" lon="-19.4265757">
        <ele>690.79998</ele>
        <time>2010-01-01T00:20:20Z</time>
      </trkpt>
      <trkpt lat="63.66148740" lon="-19.4265594">
        <ele>690.79998</ele>
        <time>2010-01-01T00:20:21Z</time>
      </trkpt>
      <trkpt lat="63.66144240" lon="-19.4265386">
        <ele>691.00000</ele>
        <time>2010-01-01T00:20:23Z</time>
      </trkpt>
      <trkpt lat="63.66143250" lon="-19.4265400">
        <ele>691.40002</ele>
        <time>2010-01-01T00:20:24Z</time>
      </trkpt>
      <trkpt lat="63.66141590" lon="-19.4265362">
        <ele>691.79998</ele>
        <time>2010-01-01T00:20:24Z</time>
      </trkpt>
      <trkpt lat="63.66141080" lon="-19.4265368">
        <ele>692.20001</ele>
        <time>2010-01-01T00:20:24Z</time>
      </trkpt>
      <trkpt lat="63.66139730" lon="-19.4265177">
        <ele>692.59997</ele>
        <time>2010-01-01T00:20:25Z</time>
      </trkpt>
      <trkpt lat="63.66139150" lon="-19.4265010">
        <ele>693.00000</ele>
        <time>2010-01-01T00:20:25Z</time>
      </trkpt>
      <trkpt lat="63.66135950" lon="-19.4264721">
        <ele>693.20001</ele>
        <time>2010-01-01T00:20:27Z</time>
      </trkpt>
      <trkpt lat="63.66134950" lon="-19.4264657">
        <ele>693.59997</ele>
        <time>2010-01-01T00:20:27Z</time>
      </trkpt>
      <trkpt lat="63.66133860" lon="-19.4264509">
        <ele>694.00000</ele>
        <time>2010-01-01T00:20:28Z</time>
      </trkpt>
      <trkpt lat="63.66133130" lon="-19.4264348">
        <ele>694.40002</ele>
        <time>2010-01-01T00:20:28Z</time>
      </trkpt>
      <trkpt lat="63.66132110" lon="-19.4264232">
        <ele>695.00000</ele>
        <time>2010-01-01T00:20:29Z</time>
      </trkpt>
      <trkpt lat="63.66131200" lon="-19.4264095">
        <ele>695.00000</ele>
        <time>2010-01-01T00:20:29Z</time>
      </trkpt>
      <trkpt lat="63.66128000" lon="-19.4263996">
        <ele>695.40002</ele>
        <time>2010-01-01T00:20:30Z</time>
      </trkpt>
      <trkpt lat="63.66126670" lon="-19.4263948">
        <ele>695.79998</ele>
        <time>2010-01-01T00:20:31Z</time>
      </trkpt>
      <trkpt lat="63.66125570" lon="-19.4263913">
        <ele>696.20001</ele>
        <time>2010-01-01T00:20:31Z</time>
      </trkpt>
      <trkpt lat="63.66124120" lon="-19.4263909">
        <ele>696.59997</ele>
        <time>2010-01-01T00:20:32Z</time>
      </trkpt>
      <trkpt lat="63.66123070" lon="-19.4263778">
        <ele>697.00000</ele>
        <time>2010-01-01T00:20:32Z</time>
      </trkpt>
      <trkpt lat="63.66120880" lon="-19.4263349">
        <ele>697.00000</ele>
        <time>2010-01-01T00:20:34Z</time>
      </trkpt>
      <trkpt lat="63.66119980" lon="-19.4263289">
        <ele>697.40002</ele>
        <time>2010-01-01T00:20:34Z</time>
      </trkpt>
      <trkpt lat="63.66118860" lon="-19.4263229">
        <ele>697.79998</ele>
        <time>2010-01-01T00:20:34Z</time>
      </trkpt>
      <trkpt lat="63.66117830" lon="-19.4263178">
        <ele>698.20001</ele>
        <time>2010-01-01T00:20:35Z</time>
      </trkpt>
      <trkpt lat="63.66116680" lon="-19.4263126">
        <ele>698.59997</ele>
        <time>2010-01-01T00:20:35Z</time>
      </trkpt>
      <trkpt lat="63.66115450" lon="-19.4262983">
        <ele>699.00000</ele>
        <time>2010-01-01T00:20:36Z</time>
      </trkpt>
      <trkpt lat="63.66112940" lon="-19.4262653">
        <ele>699.20001</ele>
        <time>2010-01-01T00:20:37Z</time>
      </trkpt>
      <trkpt lat="63.66112120" lon="-19.4262468">
        <ele>699.59997</ele>
        <time>2010-01-01T00:20:38Z</time>
      </trkpt>
      <trkpt lat="63.66111190" lon="-19.4262453">
        <ele>700.00000</ele>
        <time>2010-01-01T00:20:38Z</time>
      </trkpt>
      <trkpt lat="63.66110000" lon="-19.4262360">
        <ele>700.59997</ele>
        <time>2010-01-01T00:20:38Z</time>
      </trkpt>
      <trkpt lat="63.66109010" lon="-19.4262183">
        <ele>701.00000</ele>
        <time>2010-01-01T00:20:39Z</time>
      </trkpt>
      <trkpt lat="63.66108330" lon="-19.4262100">
        <ele>701.00000</ele>
        <time>2010-01-01T00:20:39Z</time>
      </trkpt>
      <trkpt lat="63.66107650" lon="-19.4262017">
        <ele>701.40002</ele>
        <time>2010-01-01T00:20:40Z</time>
      </trkpt>
      <trkpt lat="63.66106420" lon="-19.4261944">
        <ele>701.79998</ele>
        <time>2010-01-01T00:20:40Z</time>
      </trkpt>
      <trkpt lat="63.66105560" lon="-19.4261965">
        <ele>702.20001</ele>
        <time>2010-01-01T00:20:40Z</time>
      </trkpt>
      <trkpt lat="63.66104220" lon="-19.4261875">
        <ele>702.59997</ele>
        <time>2010-01-01T00:20:41Z</time>
      </trkpt>
      <trkpt lat="63.66103290" lon="-19.4261780">
        <ele>703.00000</ele>
        <time>2010-01-01T00:20:41Z</time>
      </trkpt>
      <trkpt lat="63.66102640" lon="-19.4261700">
        <ele>703.00000</ele>
        <time>2010-01-01T00:20:42Z</time>
      </trkpt>
      <trkpt lat="63.66098150" lon="-19.4261510">
        <ele>703.40002</ele>
        <time>2010-01-01T00:20:43Z</time>
      </trkpt>
      <trkpt lat="63.66096910" lon="-19.4261567">
        <ele>703.79998</ele>
        <time>2010-01-01T00:20:44Z</time>
      </trkpt>
      <trkpt lat="63.66095590" lon="-19.4261493">
        <ele>704.20001</ele>
        <time>2010-01-01T00:20:45Z</time>
      </trkpt>
      <trkpt lat="63.66094940" lon="-19.4261343">
        <ele>704.59997</ele>
        <time>2010-01-01T00:20:45Z</time>
      </trkpt>
      <trkpt lat="63.66093830" lon="-19.4261244">
        <ele>705.00000</ele>
        <time>2010-01-01T00:20:45Z</time>
      </trkpt>
      <trkpt lat="63.66088130" lon="-19.4261074">
        <ele>705.40002</ele>
        <time>2010-01-01T00:20:48Z</time>
      </trkpt>
      <trkpt lat="63.66087680" lon="-19.4261054">
        <ele>705.79998</ele>
        <time>2010-01-01T00:20:48Z</time>
      </trkpt>
      <trkpt lat="63.66086680" lon="-19.4261019">
        <ele>706.20001</ele>
        <time>2010-01-01T00:20:48Z</time>
      </trkpt>
      <trkpt lat="63.66085830" lon="-19.4260975">
        <ele>706.59997</ele>
        <time>2010-01-01T00:20:49Z</time>
      </trkpt>
      <trkpt lat="63.66084720" lon="-19.4260913">
        <ele>707.00000</ele>
        <time>2010-01-01T00:20:49Z</time>
      </trkpt>
      <trkpt lat="63.66083640" lon="-19.4260799">
        <ele>707.20001</ele>
        <time>2010-01-01T00:20:50Z</time>
      </trkpt>
      <trkpt lat="63.66081870" lon="-19.4260517">
        <ele>707.40002</ele>
        <time>2010-01-01T00:20:50Z</time>
      </trkpt>
      <trkpt lat="63.66080950" lon="-19.4260474">
        <ele>707.79998</ele>
        <time>2010-01-01T00:20:51Z</time>
      </trkpt>
      <trkpt lat="63.66079690" lon="-19.4260389">
        <ele>708.20001</ele>
        <time>2010-01-01T00:20:51Z</time>
      </trkpt>
      <trkpt lat="63.66078940" lon="-19.4260322">
        <ele>708.59997</ele>
        <time>2010-01-01T00:20:52Z</time>
      </trkpt>
      <trkpt lat="63.66078080" lon="-19.4260281">
        <ele>709.20001</ele>
        <time>2010-01-01T00:20:52Z</time>
      </trkpt>
      <trkpt lat="63.66077100" lon="-19.4260251">
        <ele>709.20001</ele>
        <time>2010-01-01T00:20:52Z</time>
      </trkpt>
      <trkpt lat="63.66075860" lon="-19.4260186">
        <ele>709.20001</ele>
        <time>2010-01-01T00:20:53Z</time>
      </trkpt>
      <trkpt lat="63.66075030" lon="-19.4260159">
        <ele>709.59997</ele>
        <time>2010-01-01T00:20:53Z</time>
      </trkpt>
      <trkpt lat="63.66073980" lon="-19.4260120">
        <ele>710.00000</ele>
        <time>2010-01-01T00:20:54Z</time>
      </trkpt>
      <trkpt lat="63.66072650" lon="-19.4260036">
        <ele>710.40002</ele>
        <time>2010-01-01T00:20:54Z</time>
      </trkpt>
      <trkpt lat="63.66071760" lon="-19.4260028">
        <ele>710.79998</ele>
        <time>2010-01-01T00:20:55Z</time>
      </trkpt>
      <trkpt lat="63.66070580" lon="-19.4260045">
        <ele>711.20001</ele>
        <time>2010-01-01T00:20:55Z</time>
      </trkpt>
      <trkpt lat="63.66070000" lon="-19.4259977">
        <ele>711.20001</ele>
        <time>2010-01-01T00:20:55Z</time>
      </trkpt>
      <trkpt lat="63.66069150" lon="-19.4260044">
        <ele>711.20001</ele>
        <time>2010-01-01T00:20:56Z</time>
      </trkpt>
      <trkpt lat="63.66066790" lon="-19.4259857">
        <ele>711.40002</ele>
        <time>2010-01-01T00:20:57Z</time>
      </trkpt>
      <trkpt lat="63.66065920" lon="-19.4259634">
        <ele>711.79998</ele>
        <time>2010-01-01T00:20:57Z</time>
      </trkpt>
      <trkpt lat="63.66064390" lon="-19.4259182">
        <ele>711.79998</ele>
        <time>2010-01-01T00:20:58Z</time>
      </trkpt>
      <trkpt lat="63.66063420" lon="-19.4259228">
        <ele>712.59997</ele>
        <time>2010-01-01T00:20:59Z</time>
      </trkpt>
      <trkpt lat="63.66062470" lon="-19.4259204">
        <ele>713.20001</ele>
        <time>2010-01-01T00:20:59Z</time>
      </trkpt>
      <trkpt lat="63.66061420" lon="-19.4259214">
        <ele>713.40002</ele>
        <time>2010-01-01T00:20:59Z</time>
      </trkpt>
      <trkpt lat="63.66060270" lon="-19.4259193">
        <ele>713.59997</ele>
        <time>2010-01-01T00:21:00Z</time>
      </trkpt>
      <trkpt lat="63.66059290" lon="-19.4259142">
        <ele>714.00000</ele>
        <time>2010-01-01T00:21:00Z</time>
      </trkpt>
      <trkpt lat="63.66059250" lon="-19.4258980">
        <ele>714.40002</ele>
        <time>2010-01-01T00:21:01Z</time>
      </trkpt>
      <trkpt lat="63.66058590" lon="-19.4258787">
        <ele>714.79998</ele>
        <time>2010-01-01T00:21:01Z</time>
      </trkpt>
      <trkpt lat="63.66057780" lon="-19.4258814">
        <ele>715.20001</ele>
        <time>2010-01-01T00:21:01Z</time>
      </trkpt>
      <trkpt lat="63.66056740" lon="-19.4258816">
        <ele>715.40002</ele>
        <time>2010-01-01T00:21:02Z</time>
      </trkpt>
      <trkpt lat="63.66055000" lon="-19.4258826">
        <ele>715.59997</ele>
        <time>2010-01-01T00:21:02Z</time>
      </trkpt>
      <trkpt lat="63.66054310" lon="-19.4258721">
        <ele>716.00000</ele>
        <time>2010-01-01T00:21:03Z</time>
      </trkpt>
      <trkpt lat="63.66053880" lon="-19.4258649">
        <ele>716.40002</ele>
        <time>2010-01-01T00:21:03Z</time>
      </trkpt>
      <trkpt lat="63.66053170" lon="-19.4258540">
        <ele>717.00000</ele>
        <time>2010-01-01T00:21:03Z</time>
      </trkpt>
      <trkpt lat="63.66052600" lon="-19.4258438">
        <ele>717.40002</ele>
        <time>2010-01-01T00:21:04Z</time>
      </trkpt>
      <trkpt lat="63.66051960" lon="-19.4258488">
        <ele>717.59997</ele>
        <time>2010-01-01T00:21:04Z</time>
      </trkpt>
      <trkpt lat="63.66050310" lon="-19.4258811">
        <ele>717.79998</ele>
        <time>2010-01-01T00:21:05Z</time>
      </trkpt>
      <trkpt lat="63.66049010" lon="-19.4258896">
        <ele>718.40002</ele>
        <time>2010-01-01T00:21:05Z</time>
      </trkpt>
      <trkpt lat="63.66047990" lon="-19.4258981">
        <ele>718.79998</ele>
        <time>2010-01-01T00:21:06Z</time>
      </trkpt>
      <trkpt lat="63.66047000" lon="-19.4259059">
        <ele>719.20001</ele>
        <time>2010-01-01T00:21:06Z</time>
      </trkpt>
      <trkpt lat="63.66045810" lon="-19.4259057">
        <ele>719.59997</ele>
        <time>2010-01-01T00:21:07Z</time>
      </trkpt>
      <trkpt lat="63.66044880" lon="-19.4258991">
        <ele>719.79998</ele>
        <time>2010-01-01T00:21:07Z</time>
      </trkpt>
      <trkpt lat="63.66041090" lon="-19.4258849">
        <ele>720.20001</ele>
        <time>2010-01-01T00:21:09Z</time>
      </trkpt>
      <trkpt lat="63.66040030" lon="-19.4258728">
        <ele>720.79998</ele>
        <time>2010-01-01T00:21:09Z</time>
      </trkpt>
      <trkpt lat="63.66039030" lon="-19.4258536">
        <ele>721.20001</ele>
        <time>2010-01-01T00:21:10Z</time>
      </trkpt>
      <trkpt lat="63.66038360" lon="-19.4258438">
        <ele>721.59997</ele>
        <time>2010-01-01T00:21:10Z</time>
      </trkpt>
      <trkpt lat="63.66037690" lon="-19.4258358">
        <ele>722.00000</ele>
        <time>2010-01-01T00:21:10Z</time>
      </trkpt>
      <trkpt lat="63.66036330" lon="-19.4258407">
        <ele>722.40002</ele>
        <time>2010-01-01T00:21:11Z</time>
      </trkpt>
      <trkpt lat="63.66035270" lon="-19.4258396">
        <ele>722.79998</ele>
        <time>2010-01-01T00:21:11Z</time>
      </trkpt>
      <trkpt lat="63.66034090" lon="-19.4258398">
        <ele>723.20001</ele>
        <time>2010-01-01T00:21:12Z</time>
      </trkpt>
      <trkpt lat="63.66033320" lon="-19.4258374">
        <ele>723.59997</ele>
        <time>2010-01-01T00:21:12Z</time>
      </trkpt>
      <trkpt lat="63.66032420" lon="-19.4258379">
        <ele>724.00000</ele>
        <time>2010-01-01T00:21:12Z</time>
      </trkpt>
      <trkpt lat="63.66031000" lon="-19.4258401">
        <ele>724.20001</ele>
        <time>2010-01-01T00:21:13Z</time>
      </trkpt>
      <trkpt lat="63.66029650" lon="-19.4258346">
        <ele>724.20001</ele>
        <time>2010-01-01T00:21:13Z</time>
      </trkpt>
      <trkpt lat="63.66028720" lon="-19.4258217">
        <ele>724.59997</ele>
        <time>2010-01-01T00:21:14Z</time>
      </trkpt>
      <trkpt lat="63.66027760" lon="-19.4258150">
        <ele>725.00000</ele>
        <time>2010-01-01T00:21:14Z</time>
      </trkpt>
      <trkpt lat="63.66027450" lon="-19.4258111">
        <ele>725.59997</ele>
        <time>2010-01-01T00:21:14Z</time>
      </trkpt>
      <trkpt lat="63.66027890" lon="-19.4258158">
        <ele>726.00000</ele>
        <time>2010-01-01T00:21:15Z</time>
      </trkpt>
      <trkpt lat="63.66026610" lon="-19.4258027">
        <ele>726.20001</ele>
        <time>2010-01-01T00:21:15Z</time>
      </trkpt>
      <trkpt lat="63.66023420" lon="-19.4257945">
        <ele>726.40002</ele>
        <time>2010-01-01T00:21:16Z</time>
      </trkpt>
      <trkpt lat="63.66022750" lon="-19.4257939">
        <ele>726.79998</ele>
        <time>2010-01-01T00:21:17Z</time>
      </trkpt>
      <trkpt lat="63.66021780" lon="-19.4257976">
        <ele>727.20001</ele>
        <time>2010-01-01T00:21:17Z</time>
      </trkpt>
      <trkpt lat="63.66020710" lon="-19.4257943">
        <ele>727.59997</ele>
        <time>2010-01-01T00:21:18Z</time>
      </trkpt>
      <trkpt lat="63.66019430" lon="-19.4257825">
        <ele>728.00000</ele>
        <time>2010-01-01T00:21:18Z</time>
      </trkpt>
      <trkpt lat="63.66018820" lon="-19.4257729">
        <ele>728.20001</ele>
        <time>2010-01-01T00:21:18Z</time>
      </trkpt>
      <trkpt lat="63.66018140" lon="-19.4257732">
        <ele>728.20001</ele>
        <time>2010-01-01T00:21:19Z</time>
      </trkpt>
      <trkpt lat="63.66017320" lon="-19.4257617">
        <ele>728.40002</ele>
        <time>2010-01-01T00:21:19Z</time>
      </trkpt>
      <trkpt lat="63.66016540" lon="-19.4257542">
        <ele>729.00000</ele>
        <time>2010-01-01T00:21:19Z</time>
      </trkpt>
      <trkpt lat="63.66016430" lon="-19.4257509">
        <ele>729.20001</ele>
        <time>2010-01-01T00:21:19Z</time>
      </trkpt>
      <trkpt lat="63.66015620" lon="-19.4257441">
        <ele>729.59997</ele>
        <time>2010-01-01T00:21:20Z</time>
      </trkpt>
      <trkpt lat="63.66014750" lon="-19.4257317">
        <ele>730.00000</ele>
        <time>2010-01-01T00:21:20Z</time>
      </trkpt>
      <trkpt lat="63.66014160" lon="-19.4257270">
        <ele>730.20001</ele>
        <time>2010-01-01T00:21:20Z</time>
      </trkpt>
      <trkpt lat="63.66013190" lon="-19.4257250">
        <ele>730.40002</ele>
        <time>2010-01-01T00:21:21Z</time>
      </trkpt>
      <trkpt lat="63.66011990" lon="-19.4257282">
        <ele>730.59997</ele>
        <time>2010-01-01T00:21:21Z</time>
      </trkpt>
      <trkpt lat="63.66010870" lon="-19.4257306">
        <ele>731.00000</ele>
        <time>2010-01-01T00:21:22Z</time>
      </trkpt>
      <trkpt lat="63.66009760" lon="-19.4257278">
        <ele>731.40002</ele>
        <time>2010-01-01T00:21:22Z</time>
      </trkpt>
      <trkpt lat="63.66008580" lon="-19.4257263">
        <ele>731.79998</ele>
        <time>2010-01-01T00:21:23Z</time>
      </trkpt>
      <trkpt lat="63.66008300" lon="-19.4257247">
        <ele>732.20001</ele>
        <time>2010-01-01T00:21:23Z</time>
      </trkpt>
      <trkpt lat="63.66005740" lon="-19.4257002">
        <ele>732.59997</ele>
        <time>2010-01-01T00:21:24Z</time>
      </trkpt>
      <trkpt lat="63.66005630" lon="-19.4256864">
        <ele>733.00000</ele>
        <time>2010-01-01T00:21:24Z</time>
      </trkpt>
      <trkpt lat="63.66005350" lon="-19.4256818">
        <ele>733.40002</ele>
        <time>2010-01-01T00:21:24Z</time>
      </trkpt>
      <trkpt lat="63.66005240" lon="-19.4256813">
        <ele>733.79998</ele>
        <time>2010-01-01T00:21:24Z</time>
      </trkpt>
      <trkpt lat="63.66004030" lon="-19.4256793">
        <ele>734.20001</ele>
        <time>2010-01-01T00:21:25Z</time>
      </trkpt>
      <trkpt lat="63.66003110" lon="-19.4256783">
        <ele>734.40002</ele>
        <time>2010-01-01T00:21:25Z</time>
      </trkpt>
      <trkpt lat="63.66002470" lon="-19.4256827">
        <ele>734.59997</ele>
        <time>2010-01-01T00:21:25Z</time>
      </trkpt>
      <trkpt lat="63.66001410" lon="-19.4257003">
        <ele>735.00000</ele>
        <time>2010-01-01T00:21:26Z</time>
      </trkpt>
      <trkpt lat="63.66000410" lon="-19.4256972">
        <ele>735.40002</ele>
        <time>2010-01-01T00:21:26Z</time>
      </trkpt>
      <trkpt lat="63.65999090" lon="-19.4256938">
        <ele>735.79998</ele>
        <time>2010-01-01T00:21:27Z</time>
      </trkpt>
      <trkpt lat="63.65998100" lon="-19.4257015">
        <ele>736.20001</ele>
        <time>2010-01-01T00:21:27Z</time>
      </trkpt>
      <trkpt lat="63.65996840" lon="-19.4257001">
        <ele>736.40002</ele>
        <time>2010-01-01T00:21:28Z</time>
      </trkpt>
      <trkpt lat="63.65996090" lon="-19.4256900">
        <ele>736.40002</ele>
        <time>2010-01-01T00:21:28Z</time>
      </trkpt>
      <trkpt lat="63.65994240" lon="-19.4256808">
        <ele>736.40002</ele>
        <time>2010-01-01T00:21:29Z</time>
      </trkpt>
      <trkpt lat="63.65992230" lon="-19.4256612">
        <ele>736.59997</ele>
        <time>2010-01-01T00:21:30Z</time>
      </trkpt>
      <trkpt lat="63.65991380" lon="-19.4256498">
        <ele>737.00000</ele>
        <time>2010-01-01T00:21:30Z</time>
      </trkpt>
      <trkpt lat="63.65990840" lon="-19.4256438">
        <ele>737.40002</ele>
        <time>2010-01-01T00:21:30Z</time>
      </trkpt>
      <trkpt lat="63.65989950" lon="-19.4256355">
        <ele>738.00000</ele>
        <time>2010-01-01T00:21:31Z</time>
      </trkpt>
      <trkpt lat="63.65989250" lon="-19.4256264">
        <ele>738.20001</ele>
        <time>2010-01-01T00:21:31Z</time>
      </trkpt>
      <trkpt lat="63.65988550" lon="-19.4256231">
        <ele>738.40002</ele>
        <time>2010-01-01T00:21:31Z</time>
      </trkpt>
      <trkpt lat="63.65987990" lon="-19.4256270">
        <ele>738.40002</ele>
        <time>2010-01-01T00:21:32Z</time>
      </trkpt>
      <trkpt lat="63.65986940" lon="-19.4256315">
        <ele>738.79998</ele>
        <time>2010-01-01T00:21:32Z</time>
      </trkpt>
      <trkpt lat="63.65986350" lon="-19.4256264">
        <ele>739.20001</ele>
        <time>2010-01-01T00:21:32Z</time>
      </trkpt>
      <trkpt lat="63.65984860" lon="-19.4256389">
        <ele>739.79998</ele>
        <time>2010-01-01T00:21:33Z</time>
      </trkpt>
      <trkpt lat="63.65984270" lon="-19.4256352">
        <ele>740.00000</ele>
        <time>2010-01-01T00:21:33Z</time>
      </trkpt>
      <trkpt lat="63.65983780" lon="-19.4256397">
        <ele>740.59997</ele>
        <time>2010-01-01T00:21:33Z</time>
      </trkpt>
      <trkpt lat="63.65982620" lon="-19.4256423">
        <ele>740.59997</ele>
        <time>2010-01-01T00:21:34Z</time>
      </trkpt>
      <trkpt lat="63.65981920" lon="-19.4256472">
        <ele>741.00000</ele>
        <time>2010-01-01T00:21:34Z</time>
      </trkpt>
      <trkpt lat="63.65981470" lon="-19.4256414">
        <ele>741.40002</ele>
        <time>2010-01-01T00:21:34Z</time>
      </trkpt>
      <trkpt lat="63.65981060" lon="-19.4256353">
        <ele>741.79998</ele>
        <time>2010-01-01T00:21:35Z</time>
      </trkpt>
      <trkpt lat="63.65980460" lon="-19.4256247">
        <ele>742.20001</ele>
        <time>2010-01-01T00:21:35Z</time>
      </trkpt>
      <trkpt lat="63.65980030" lon="-19.4256252">
        <ele>742.59997</ele>
        <time>2010-01-01T00:21:35Z</time>
      </trkpt>
      <trkpt lat="63.65977640" lon="-19.4256175">
        <ele>743.00000</ele>
        <time>2010-01-01T00:21:36Z</time>
      </trkpt>
      <trkpt lat="63.65976610" lon="-19.4256265">
        <ele>743.40002</ele>
        <time>2010-01-01T00:21:37Z</time>
      </trkpt>
      <trkpt lat="63.65975970" lon="-19.4256268">
        <ele>743.79998</ele>
        <time>2010-01-01T00:21:37Z</time>
      </trkpt>
      <trkpt lat="63.65975360" lon="-19.4256349">
        <ele>744.20001</ele>
        <time>2010-01-01T00:21:37Z</time>
      </trkpt>
      <trkpt lat="63.65974580" lon="-19.4256420">
        <ele>744.79998</ele>
        <time>2010-01-01T00:21:37Z</time>
      </trkpt>
      <trkpt lat="63.65973580" lon="-19.4256314">
        <ele>744.79998</ele>
        <time>2010-01-01T00:21:38Z</time>
      </trkpt>
      <trkpt lat="63.65973030" lon="-19.4256024">
        <ele>745.20001</ele>
        <time>2010-01-01T00:21:38Z</time>
      </trkpt>
      <trkpt lat="63.65973060" lon="-19.4255946">
        <ele>745.59997</ele>
        <time>2010-01-01T00:21:39Z</time>
      </trkpt>
      <trkpt lat="63.65972770" lon="-19.4255863">
        <ele>746.00000</ele>
        <time>2010-01-01T00:21:39Z</time>
      </trkpt>
      <trkpt lat="63.65963820" lon="-19.4256098">
        <ele>751.00000</ele>
        <time>2010-01-01T00:21:42Z</time>
      </trkpt>
      <trkpt lat="63.65963780" lon="-19.4256083">
        <ele>750.79998</ele>
        <time>2010-01-01T00:21:42Z</time>
      </trkpt>
      <trkpt lat="63.65962860" lon="-19.4256019">
        <ele>751.00000</ele>
        <time>2010-01-01T00:21:43Z</time>
      </trkpt>
      <trkpt lat="63.65962360" lon="-19.4256076">
        <ele>751.40002</ele>
        <time>2010-01-01T00:21:43Z</time>
      </trkpt>
      <trkpt lat="63.65961990" lon="-19.4256096">
        <ele>751.59997</ele>
        <time>2010-01-01T00:21:43Z</time>
      </trkpt>
      <trkpt lat="63.65961330" lon="-19.4256186">
        <ele>752.20001</ele>
        <time>2010-01-01T00:21:43Z</time>
      </trkpt>
      <trkpt lat="63.65960550" lon="-19.4256257">
        <ele>752.59997</ele>
        <time>2010-01-01T00:21:44Z</time>
      </trkpt>
      <trkpt lat="63.65960180" lon="-19.4256209">
        <ele>753.00000</ele>
        <time>2010-01-01T00:21:44Z</time>
      </trkpt>
      <trkpt lat="63.65959590" lon="-19.4256256">
        <ele>753.20001</ele>
        <time>2010-01-01T00:21:44Z</time>
      </trkpt>
      <trkpt lat="63.65959280" lon="-19.4256282">
        <ele>753.40002</ele>
        <time>2010-01-01T00:21:44Z</time>
      </trkpt>
      <trkpt lat="63.65945670" lon="-19.4256285">
        <ele>761.20001</ele>
        <time>2010-01-01T00:21:50Z</time>
      </trkpt>
      <trkpt lat="63.65945250" lon="-19.4256302">
        <ele>761.40002</ele>
        <time>2010-01-01T00:21:50Z</time>
      </trkpt>
      <trkpt lat="63.65944990" lon="-19.4256379">
        <ele>761.59997</ele>
        <time>2010-01-01T00:21:50Z</time>
      </trkpt>
      <trkpt lat="63.65944530" lon="-19.4256450">
        <ele>762.00000</ele>
        <time>2010-01-01T00:21:50Z</time>
      </trkpt>
      <trkpt lat="63.65929790" lon="-19.4255612">
        <ele>771.79998</ele>
        <time>2010-01-01T00:21:56Z</time>
      </trkpt>
      <trkpt lat="63.65928960" lon="-19.4255511">
        <ele>772.00000</ele>
        <time>2010-01-01T00:21:57Z</time>
      </trkpt>
      <trkpt lat="63.65927380" lon="-19.4255581">
        <ele>772.20001</ele>
        <time>2010-01-01T00:21:57Z</time>
      </trkpt>
      <trkpt lat="63.65926250" lon="-19.4255601">
        <ele>772.59997</ele>
        <time>2010-01-01T00:21:58Z</time>
      </trkpt>
      <trkpt lat="63.65925670" lon="-19.4255691">
        <ele>773.00000</ele>
        <time>2010-01-01T00:21:58Z</time>
      </trkpt>
      <trkpt lat="63.65925180" lon="-19.4255681">
        <ele>773.40002</ele>
        <time>2010-01-01T00:21:58Z</time>
      </trkpt>
      <trkpt lat="63.65924590" lon="-19.4255734">
        <ele>774.00000</ele>
        <time>2010-01-01T00:21:59Z</time>
      </trkpt>
      <trkpt lat="63.65924170" lon="-19.4255655">
        <ele>774.00000</ele>
        <time>2010-01-01T00:21:59Z</time>
      </trkpt>
      <trkpt lat="63.65923810" lon="-19.4255541">
        <ele>774.40002</ele>
        <time>2010-01-01T00:21:59Z</time>
      </trkpt>
      <trkpt lat="63.65923620" lon="-19.4255450">
        <ele>774.79998</ele>
        <time>2010-01-01T00:21:59Z</time>
      </trkpt>
      <trkpt lat="63.65923930" lon="-19.4255386">
        <ele>775.20001</ele>
        <time>2010-01-01T00:21:59Z</time>
      </trkpt>
      <trkpt lat="63.65923840" lon="-19.4255192">
        <ele>775.59997</ele>
        <time>2010-01-01T00:22:00Z</time>
      </trkpt>
      <trkpt lat="63.65923650" lon="-19.4255304">
        <ele>776.00000</ele>
        <time>2010-01-01T00:22:00Z</time>
      </trkpt>
      <trkpt lat="63.65925970" lon="-19.4254987">
        <ele>776.40002</ele>
        <time>2010-01-01T00:22:01Z</time>
      </trkpt>
      <trkpt lat="63.65926810" lon="-19.4254932">
        <ele>776.79998</ele>
        <time>2010-01-01T00:22:01Z</time>
      </trkpt>
      <trkpt lat="63.65927600" lon="-19.4254869">
        <ele>777.20001</ele>
        <time>2010-01-01T00:22:02Z</time>
      </trkpt>
      <trkpt lat="63.65928320" lon="-19.4254812">
        <ele>777.59997</ele>
        <time>2010-01-01T00:22:02Z</time>
      </trkpt>
      <trkpt lat="63.65929000" lon="-19.4254601">
        <ele>778.00000</ele>
        <time>2010-01-01T00:22:03Z</time>
      </trkpt>
      <trkpt lat="63.65929780" lon="-19.4254431">
        <ele>778.40002</ele>
        <time>2010-01-01T00:22:03Z</time>
      </trkpt>
      <trkpt lat="63.65929640" lon="-19.4254294">
        <ele>778.20001</ele>
        <time>2010-01-01T00:22:03Z</time>
      </trkpt>
      <trkpt lat="63.65928980" lon="-19.4254237">
        <ele>778.20001</ele>
        <time>2010-01-01T00:22:04Z</time>
      </trkpt>
      <trkpt lat="63.65928200" lon="-19.4254182">
        <ele>778.40002</ele>
        <time>2010-01-01T00:22:04Z</time>
      </trkpt>
      <trkpt lat="63.65927710" lon="-19.4254191">
        <ele>778.79998</ele>
        <time>2010-01-01T00:22:04Z</time>
      </trkpt>
      <trkpt lat="63.65927080" lon="-19.4254309">
        <ele>779.00000</ele>
        <time>2010-01-01T00:22:04Z</time>
      </trkpt>
      <trkpt lat="63.65926520" lon="-19.4254511">
        <ele>779.40002</ele>
        <time>2010-01-01T00:22:05Z</time>
      </trkpt>
      <trkpt lat="63.65925840" lon="-19.4254724">
        <ele>780.00000</ele>
        <time>2010-01-01T00:22:05Z</time>
      </trkpt>
      <trkpt lat="63.65924760" lon="-19.4254836">
        <ele>780.40002</ele>
        <time>2010-01-01T00:22:06Z</time>
      </trkpt>
      <trkpt lat="63.65923850" lon="-19.4255068">
        <ele>780.59997</ele>
        <time>2010-01-01T00:22:06Z</time>
      </trkpt>
      <trkpt lat="63.65923150" lon="-19.4255252">
        <ele>781.00000</ele>
        <time>2010-01-01T00:22:07Z</time>
      </trkpt>
      <trkpt lat="63.65922390" lon="-19.4255449">
        <ele>781.40002</ele>
        <time>2010-01-01T00:22:07Z</time>
      </trkpt>
      <trkpt lat="63.65921930" lon="-19.4255606">
        <ele>781.79998</ele>
        <time>2010-01-01T00:22:08Z</time>
      </trkpt>
      <trkpt lat="63.65921280" lon="-19.4255726">
        <ele>782.20001</ele>
        <time>2010-01-01T00:22:08Z</time>
      </trkpt>
      <trkpt lat="63.65920940" lon="-19.4255836">
        <ele>782.40002</ele>
        <time>2010-01-01T00:22:08Z</time>
      </trkpt>
      <trkpt lat="63.65919210" lon="-19.4255942">
        <ele>782.59997</ele>
        <time>2010-01-01T00:22:09Z</time>
      </trkpt>
      <trkpt lat="63.65918020" lon="-19.4255918">
        <ele>783.00000</ele>
        <time>2010-01-01T00:22:09Z</time>
      </trkpt>
      <trkpt lat="63.65916960" lon="-19.4255920">
        <ele>783.40002</ele>
        <time>2010-01-01T00:22:10Z</time>
      </trkpt>
      <trkpt lat="63.65916040" lon="-19.4255889">
        <ele>783.79998</ele>
        <time>2010-01-01T00:22:10Z</time>
      </trkpt>
      <trkpt lat="63.65915140" lon="-19.4255917">
        <ele>784.40002</ele>
        <time>2010-01-01T00:22:10Z</time>
      </trkpt>
      <trkpt lat="63.65914450" lon="-19.4255995">
        <ele>784.40002</ele>
        <time>2010-01-01T00:22:11Z</time>
      </trkpt>
      <trkpt lat="63.65911280" lon="-19.4255931">
        <ele>784.59997</ele>
        <time>2010-01-01T00:22:12Z</time>
      </trkpt>
      <trkpt lat="63.65910150" lon="-19.4255848">
        <ele>785.00000</ele>
        <time>2010-01-01T00:22:13Z</time>
      </trkpt>
      <trkpt lat="63.65909010" lon="-19.4255925">
        <ele>785.40002</ele>
        <time>2010-01-01T00:22:13Z</time>
      </trkpt>
      <trkpt lat="63.65907650" lon="-19.4255971">
        <ele>785.79998</ele>
        <time>2010-01-01T00:22:14Z</time>
      </trkpt>
      <trkpt lat="63.65906320" lon="-19.4255951">
        <ele>786.20001</ele>
        <time>2010-01-01T00:22:14Z</time>
      </trkpt>
      <trkpt lat="63.65904960" lon="-19.4255903">
        <ele>786.59997</ele>
        <time>2010-01-01T00:22:15Z</time>
      </trkpt>
      <trkpt lat="63.65903720" lon="-19.4255850">
        <ele>786.59997</ele>
        <time>2010-01-01T00:22:15Z</time>
      </trkpt>
      <trkpt lat="63.65892220" lon="-19.4255382">
        <ele>786.59997</ele>
        <time>2010-01-01T00:22:20Z</time>
      </trkpt>
      <trkpt lat="63.65889580" lon="-19.4255432">
        <ele>786.79998</ele>
        <time>2010-01-01T00:22:21Z</time>
      </trkpt>
      <trkpt lat="63.65888240" lon="-19.4255458">
        <ele>787.20001</ele>
        <time>2010-01-01T00:22:21Z</time>
      </trkpt>
      <trkpt lat="63.65887040" lon="-19.4255480">
        <ele>787.59997</ele>
        <time>2010-01-01T00:22:22Z</time>
      </trkpt>
      <trkpt lat="63.65885780" lon="-19.4255514">
        <ele>788.00000</ele>
        <time>2010-01-01T00:22:22Z</time>
      </trkpt>
      <trkpt lat="63.65884660" lon="-19.4255561">
        <ele>788.40002</ele>
        <time>2010-01-01T00:22:23Z</time>
      </trkpt>
      <trkpt lat="63.65883550" lon="-19.4255600">
        <ele>788.40002</ele>
        <time>2010-01-01T00:22:23Z</time>
      </trkpt>
      <trkpt lat="63.65881220" lon="-19.4255837">
        <ele>788.79998</ele>
        <time>2010-01-01T00:22:24Z</time>
      </trkpt>
      <trkpt lat="63.65877820" lon="-19.4255910">
        <ele>788.59997</ele>
        <time>2010-01-01T00:22:26Z</time>
      </trkpt>
      <trkpt lat="63.65875650" lon="-19.4255897">
        <ele>788.59997</ele>
        <time>2010-01-01T00:22:27Z</time>
      </trkpt>
      <trkpt lat="63.65871140" lon="-19.4255734">
        <ele>788.79998</ele>
        <time>2010-01-01T00:22:28Z</time>
      </trkpt>
      <trkpt lat="63.65868650" lon="-19.4255691">
        <ele>789.20001</ele>
        <time>2010-01-01T00:22:29Z</time>
      </trkpt>
      <trkpt lat="63.65866040" lon="-19.4255683">
        <ele>789.59997</ele>
        <time>2010-01-01T00:22:30Z</time>
      </trkpt>
      <trkpt lat="63.65863670" lon="-19.4255790">
        <ele>790.00000</ele>
        <time>2010-01-01T00:22:31Z</time>
      </trkpt>
      <trkpt lat="63.65861820" lon="-19.4255968">
        <ele>790.20001</ele>
        <time>2010-01-01T00:22:32Z</time>
      </trkpt>
      <trkpt lat="63.65859380" lon="-19.4256041">
        <ele>790.79998</ele>
        <time>2010-01-01T00:22:33Z</time>
      </trkpt>
      <trkpt lat="63.65855200" lon="-19.4255841">
        <ele>790.79998</ele>
        <time>2010-01-01T00:22:35Z</time>
      </trkpt>
      <trkpt lat="63.65853320" lon="-19.4255626">
        <ele>791.00000</ele>
        <time>2010-01-01T00:22:36Z</time>
      </trkpt>
      <trkpt lat="63.65851660" lon="-19.4255568">
        <ele>791.40002</ele>
        <time>2010-01-01T00:22:36Z</time>
      </trkpt>
      <trkpt lat="63.65849520" lon="-19.4255646">
        <ele>791.59997</ele>
        <time>2010-01-01T00:22:37Z</time>
      </trkpt>
      <trkpt lat="63.65847520" lon="-19.4255764">
        <ele>792.00000</ele>
        <time>2010-01-01T00:22:38Z</time>
      </trkpt>
      <trkpt lat="63.65845530" lon="-19.4255879">
        <ele>792.00000</ele>
        <time>2010-01-01T00:22:39Z</time>
      </trkpt>
      <trkpt lat="63.65843470" lon="-19.4255595">
        <ele>792.59997</ele>
        <time>2010-01-01T00:22:40Z</time>
      </trkpt>
      <trkpt lat="63.65841800" lon="-19.4255463">
        <ele>793.00000</ele>
        <time>2010-01-01T00:22:41Z</time>
      </trkpt>
      <trkpt lat="63.65840010" lon="-19.4255336">
        <ele>793.59997</ele>
        <time>2010-01-01T00:22:41Z</time>
      </trkpt>
      <trkpt lat="63.65837920" lon="-19.4255268">
        <ele>794.00000</ele>
        <time>2010-01-01T00:22:42Z</time>
      </trkpt>
      <trkpt lat="63.65836120" lon="-19.4255323">
        <ele>794.40002</ele>
        <time>2010-01-01T00:22:43Z</time>
      </trkpt>
      <trkpt lat="63.65834230" lon="-19.4255400">
        <ele>794.59997</ele>
        <time>2010-01-01T00:22:44Z</time>
      </trkpt>
      <trkpt lat="63.65832440" lon="-19.4255816">
        <ele>795.00000</ele>
        <time>2010-01-01T00:22:45Z</time>
      </trkpt>
      <trkpt lat="63.65830370" lon="-19.4256167">
        <ele>795.00000</ele>
        <time>2010-01-01T00:22:46Z</time>
      </trkpt>
      <trkpt lat="63.65828430" lon="-19.4256471">
        <ele>795.40002</ele>
        <time>2010-01-01T00:22:47Z</time>
      </trkpt>
      <trkpt lat="63.65826040" lon="-19.4256808">
        <ele>795.79998</ele>
        <time>2010-01-01T00:22:48Z</time>
      </trkpt>
      <trkpt lat="63.65824000" lon="-19.4257084">
        <ele>796.20001</ele>
        <time>2010-01-01T00:22:49Z</time>
      </trkpt>
      <trkpt lat="63.65822060" lon="-19.4257363">
        <ele>796.59997</ele>
        <time>2010-01-01T00:22:50Z</time>
      </trkpt>
      <trkpt lat="63.65820180" lon="-19.4257723">
        <ele>797.00000</ele>
        <time>2010-01-01T00:22:51Z</time>
      </trkpt>
      <trkpt lat="63.65818430" lon="-19.4258073">
        <ele>797.00000</ele>
        <time>2010-01-01T00:22:52Z</time>
      </trkpt>
      <trkpt lat="63.65816260" lon="-19.4258232">
        <ele>797.00000</ele>
        <time>2010-01-01T00:22:53Z</time>
      </trkpt>
      <trkpt lat="63.65814210" lon="-19.4258367">
        <ele>797.00000</ele>
        <time>2010-01-01T00:22:53Z</time>
      </trkpt>
      <trkpt lat="63.65812420" lon="-19.4258547">
        <ele>797.00000</ele>
        <time>2010-01-01T00:22:54Z</time>
      </trkpt>
      <trkpt lat="63.65810410" lon="-19.4258661">
        <ele>797.00000</ele>
        <time>2010-01-01T00:22:55Z</time>
      </trkpt>
      <trkpt lat="63.65808210" lon="-19.4258781">
        <ele>797.00000</ele>
        <time>2010-01-01T00:22:56Z</time>
      </trkpt>
      <trkpt lat="63.65806190" lon="-19.4258930">
        <ele>797.00000</ele>
        <time>2010-01-01T00:22:57Z</time>
      </trkpt>
      <trkpt lat="63.65803640" lon="-19.4258995">
        <ele>797.40002</ele>
        <time>2010-01-01T00:22:58Z</time>
      </trkpt>
      <trkpt lat="63.65801410" lon="-19.4259059">
        <ele>797.79998</ele>
        <time>2010-01-01T00:22:59Z</time>
      </trkpt>
      <trkpt lat="63.65798860" lon="-19.4259091">
        <ele>798.20001</ele>
        <time>2010-01-01T00:23:00Z</time>
      </trkpt>
      <trkpt lat="63.65796550" lon="-19.4259086">
        <ele>798.59997</ele>
        <time>2010-01-01T00:23:01Z</time>
      </trkpt>
      <trkpt lat="63.65794150" lon="-19.4259160">
        <ele>799.00000</ele>
        <time>2010-01-01T00:23:02Z</time>
      </trkpt>
      <trkpt lat="63.65792070" lon="-19.4259280">
        <ele>799.00000</ele>
        <time>2010-01-01T00:23:02Z</time>
      </trkpt>
      <trkpt lat="63.65789780" lon="-19.4259424">
        <ele>799.00000</ele>
        <time>2010-01-01T00:23:03Z</time>
      </trkpt>
      <trkpt lat="63.65787680" lon="-19.4259613">
        <ele>799.00000</ele>
        <time>2010-01-01T00:23:04Z</time>
      </trkpt>
      <trkpt lat="63.65784920" lon="-19.4259852">
        <ele>799.00000</ele>
        <time>2010-01-01T00:23:06Z</time>
      </trkpt>
      <trkpt lat="63.65782530" lon="-19.4260017">
        <ele>799.00000</ele>
        <time>2010-01-01T00:23:07Z</time>
      </trkpt>
      <trkpt lat="63.65779580" lon="-19.4260253">
        <ele>799.00000</ele>
        <time>2010-01-01T00:23:08Z</time>
      </trkpt>
      <trkpt lat="63.65776910" lon="-19.4260421">
        <ele>799.00000</ele>
        <time>2010-01-01T00:23:09Z</time>
      </trkpt>
      <trkpt lat="63.65774500" lon="-19.4260634">
        <ele>799.20001</ele>
        <time>2010-01-01T00:23:10Z</time>
      </trkpt>
      <trkpt lat="63.65771450" lon="-19.4260840">
        <ele>799.79998</ele>
        <time>2010-01-01T00:23:11Z</time>
      </trkpt>
      <trkpt lat="63.65768680" lon="-19.4260980">
        <ele>800.20001</ele>
        <time>2010-01-01T00:23:12Z</time>
      </trkpt>
      <trkpt lat="63.65766180" lon="-19.4261091">
        <ele>800.40002</ele>
        <time>2010-01-01T00:23:13Z</time>
      </trkpt>
      <trkpt lat="63.65763150" lon="-19.4261175">
        <ele>800.59997</ele>
        <time>2010-01-01T00:23:15Z</time>
      </trkpt>
      <trkpt lat="63.65760620" lon="-19.4261279">
        <ele>801.00000</ele>
        <time>2010-01-01T00:23:16Z</time>
      </trkpt>
      <trkpt lat="63.65757980" lon="-19.4261402">
        <ele>801.00000</ele>
        <time>2010-01-01T00:23:17Z</time>
      </trkpt>
      <trkpt lat="63.65755190" lon="-19.4261597">
        <ele>801.20001</ele>
        <time>2010-01-01T00:23:18Z</time>
      </trkpt>
      <trkpt lat="63.65752730" lon="-19.4261800">
        <ele>801.20001</ele>
        <time>2010-01-01T00:23:19Z</time>
      </trkpt>
      <trkpt lat="63.65750240" lon="-19.4262024">
        <ele>801.20001</ele>
        <time>2010-01-01T00:23:20Z</time>
      </trkpt>
      <trkpt lat="63.65747670" lon="-19.4262083">
        <ele>801.00000</ele>
        <time>2010-01-01T00:23:21Z</time>
      </trkpt>
      <trkpt lat="63.65745060" lon="-19.4262256">
        <ele>801.20001</ele>
        <time>2010-01-01T00:23:22Z</time>
      </trkpt>
      <trkpt lat="63.65742780" lon="-19.4262442">
        <ele>801.20001</ele>
        <time>2010-01-01T00:23:23Z</time>
      </trkpt>
      <trkpt lat="63.65740790" lon="-19.4262693">
        <ele>801.20001</ele>
        <time>2010-01-01T00:23:24Z</time>
      </trkpt>
      <trkpt lat="63.65738890" lon="-19.4262959">
        <ele>801.40002</ele>
        <time>2010-01-01T00:23:25Z</time>
      </trkpt>
      <trkpt lat="63.65736180" lon="-19.4263167">
        <ele>802.00000</ele>
        <time>2010-01-01T00:23:26Z</time>
      </trkpt>
      <trkpt lat="63.65733840" lon="-19.4263377">
        <ele>802.40002</ele>
        <time>2010-01-01T00:23:27Z</time>
      </trkpt>
      <trkpt lat="63.65731430" lon="-19.4263647">
        <ele>802.79998</ele>
        <time>2010-01-01T00:23:28Z</time>
      </trkpt>
      <trkpt lat="63.65729100" lon="-19.4263934">
        <ele>803.20001</ele>
        <time>2010-01-01T00:23:29Z</time>
      </trkpt>
      <trkpt lat="63.65726870" lon="-19.4264135">
        <ele>803.20001</ele>
        <time>2010-01-01T00:23:30Z</time>
      </trkpt>
      <trkpt lat="63.65724130" lon="-19.4264320">
        <ele>803.20001</ele>
        <time>2010-01-01T00:23:31Z</time>
      </trkpt>
      <trkpt lat="63.65719510" lon="-19.4264588">
        <ele>803.20001</ele>
        <time>2010-01-01T00:23:33Z</time>
      </trkpt>
      <trkpt lat="63.65716940" lon="-19.4264694">
        <ele>803.20001</ele>
        <time>2010-01-01T00:23:34Z</time>
      </trkpt>
      <trkpt lat="63.65714750" lon="-19.4264758">
        <ele>803.20001</ele>
        <time>2010-01-01T00:23:35Z</time>
      </trkpt>
      <trkpt lat="63.65712310" lon="-19.4264926">
        <ele>803.20001</ele>
        <time>2010-01-01T00:23:36Z</time>
      </trkpt>
      <trkpt lat="63.65709610" lon="-19.4265074">
        <ele>803.20001</ele>
        <time>2010-01-01T00:23:37Z</time>
      </trkpt>
      <trkpt lat="63.65707030" lon="-19.4265229">
        <ele>803.20001</ele>
        <time>2010-01-01T00:23:38Z</time>
      </trkpt>
      <trkpt lat="63.65702690" lon="-19.4265438">
        <ele>803.20001</ele>
        <time>2010-01-01T00:23:40Z</time>
      </trkpt>
      <trkpt lat="63.65700040" lon="-19.4265483">
        <ele>803.79998</ele>
        <time>2010-01-01T00:23:41Z</time>
      </trkpt>
      <trkpt lat="63.65697350" lon="-19.4265563">
        <ele>804.20001</ele>
        <time>2010-01-01T00:23:42Z</time>
      </trkpt>
      <trkpt lat="63.65695120" lon="-19.4265727">
        <ele>804.59997</ele>
        <time>2010-01-01T00:23:43Z</time>
      </trkpt>
      <trkpt lat="63.65693020" lon="-19.4265954">
        <ele>805.00000</ele>
        <time>2010-01-01T00:23:44Z</time>
      </trkpt>
      <trkpt lat="63.65690640" lon="-19.4266152">
        <ele>805.20001</ele>
        <time>2010-01-01T00:23:45Z</time>
      </trkpt>
      <trkpt lat="63.65688360" lon="-19.4266322">
        <ele>805.20001</ele>
        <time>2010-01-01T00:23:46Z</time>
      </trkpt>
      <trkpt lat="63.65686210" lon="-19.4266512">
        <ele>805.20001</ele>
        <time>2010-01-01T00:23:47Z</time>
      </trkpt>
      <trkpt lat="63.65683770" lon="-19.4266643">
        <ele>805.20001</ele>
        <time>2010-01-01T00:23:48Z</time>
      </trkpt>
      <trkpt lat="63.65681820" lon="-19.4266821">
        <ele>805.20001</ele>
        <time>2010-01-01T00:23:49Z</time>
      </trkpt>
      <trkpt lat="63.65679730" lon="-19.4266993">
        <ele>805.20001</ele>
        <time>2010-01-01T00:23:50Z</time>
      </trkpt>
      <trkpt lat="63.65676780" lon="-19.4267219">
        <ele>805.20001</ele>
        <time>2010-01-01T00:23:51Z</time>
      </trkpt>
      <trkpt lat="63.65674160" lon="-19.4267405">
        <ele>805.20001</ele>
        <time>2010-01-01T00:23:52Z</time>
      </trkpt>
      <trkpt lat="63.65671430" lon="-19.4267590">
        <ele>805.20001</ele>
        <time>2010-01-01T00:23:53Z</time>
      </trkpt>
      <trkpt lat="63.65666680" lon="-19.4267846">
        <ele>805.20001</ele>
        <time>2010-01-01T00:23:55Z</time>
      </trkpt>
      <trkpt lat="63.65664070" lon="-19.4267954">
        <ele>805.20001</ele>
        <time>2010-01-01T00:23:56Z</time>
      </trkpt>
      <trkpt lat="63.65661260" lon="-19.4268128">
        <ele>805.20001</ele>
        <time>2010-01-01T00:23:57Z</time>
      </trkpt>
      <trkpt lat="63.65659100" lon="-19.4268309">
        <ele>805.20001</ele>
        <time>2010-01-01T00:23:58Z</time>
      </trkpt>
      <trkpt lat="63.65656390" lon="-19.4268667">
        <ele>805.20001</ele>
        <time>2010-01-01T00:24:00Z</time>
      </trkpt>
      <trkpt lat="63.65654190" lon="-19.4268976">
        <ele>805.40002</ele>
        <time>2010-01-01T00:24:01Z</time>
      </trkpt>
      <trkpt lat="63.65651660" lon="-19.4269209">
        <ele>805.79998</ele>
        <time>2010-01-01T00:24:02Z</time>
      </trkpt>
      <trkpt lat="63.65649200" lon="-19.4269321">
        <ele>806.20001</ele>
        <time>2010-01-01T00:24:03Z</time>
      </trkpt>
      <trkpt lat="63.65646590" lon="-19.4269471">
        <ele>806.59997</ele>
        <time>2010-01-01T00:24:04Z</time>
      </trkpt>
      <trkpt lat="63.65643670" lon="-19.4269443">
        <ele>807.00000</ele>
        <time>2010-01-01T00:24:05Z</time>
      </trkpt>
      <trkpt lat="63.65641210" lon="-19.4269451">
        <ele>807.20001</ele>
        <time>2010-01-01T00:24:06Z</time>
      </trkpt>
      <trkpt lat="63.65636070" lon="-19.4269747">
        <ele>807.20001</ele>
        <time>2010-01-01T00:24:08Z</time>
      </trkpt>
      <trkpt lat="63.65622290" lon="-19.4270869">
        <ele>807.20001</ele>
        <time>2010-01-01T00:24:14Z</time>
      </trkpt>
      <trkpt lat="63.65620640" lon="-19.4271155">
        <ele>807.20001</ele>
        <time>2010-01-01T00:24:15Z</time>
      </trkpt>
      <trkpt lat="63.65616480" lon="-19.4271776">
        <ele>807.59997</ele>
        <time>2010-01-01T00:24:17Z</time>
      </trkpt>
      <trkpt lat="63.65614200" lon="-19.4272070">
        <ele>808.00000</ele>
        <time>2010-01-01T00:24:18Z</time>
      </trkpt>
      <trkpt lat="63.65611950" lon="-19.4272353">
        <ele>808.40002</ele>
        <time>2010-01-01T00:24:19Z</time>
      </trkpt>
      <trkpt lat="63.65609140" lon="-19.4272624">
        <ele>808.79998</ele>
        <time>2010-01-01T00:24:20Z</time>
      </trkpt>
      <trkpt lat="63.65606800" lon="-19.4272770">
        <ele>809.20001</ele>
        <time>2010-01-01T00:24:21Z</time>
      </trkpt>
      <trkpt lat="63.65603950" lon="-19.4272864">
        <ele>809.20001</ele>
        <time>2010-01-01T00:24:22Z</time>
      </trkpt>
      <trkpt lat="63.65601000" lon="-19.4273072">
        <ele>809.20001</ele>
        <time>2010-01-01T00:24:23Z</time>
      </trkpt>
      <trkpt lat="63.65598720" lon="-19.4273269">
        <ele>809.20001</ele>
        <time>2010-01-01T00:24:24Z</time>
      </trkpt>
      <trkpt lat="63.65596180" lon="-19.4273496">
        <ele>809.20001</ele>
        <time>2010-01-01T00:24:26Z</time>
      </trkpt>
      <trkpt lat="63.65593560" lon="-19.4273731">
        <ele>809.20001</ele>
        <time>2010-01-01T00:24:27Z</time>
      </trkpt>
      <trkpt lat="63.65590860" lon="-19.4274008">
        <ele>809.20001</ele>
        <time>2010-01-01T00:24:28Z</time>
      </trkpt>
      <trkpt lat="63.65589400" lon="-19.4273950">
        <ele>809.20001</ele>
        <time>2010-01-01T00:24:28Z</time>
      </trkpt>
      <trkpt lat="63.65585630" lon="-19.4274102">
        <ele>809.20001</ele>
        <time>2010-01-01T00:24:30Z</time>
      </trkpt>
      <trkpt lat="63.65583430" lon="-19.4274259">
        <ele>809.20001</ele>
        <time>2010-01-01T00:24:31Z</time>
      </trkpt>
      <trkpt lat="63.65581440" lon="-19.4274465">
        <ele>809.20001</ele>
        <time>2010-01-01T00:24:32Z</time>
      </trkpt>
      <trkpt lat="63.65579350" lon="-19.4274832">
        <ele>809.20001</ele>
        <time>2010-01-01T00:24:33Z</time>
      </trkpt>
      <trkpt lat="63.65577410" lon="-19.4275233">
        <ele>809.20001</ele>
        <time>2010-01-01T00:24:34Z</time>
      </trkpt>
      <trkpt lat="63.65575020" lon="-19.4275694">
        <ele>809.20001</ele>
        <time>2010-01-01T00:24:35Z</time>
      </trkpt>
      <trkpt lat="63.65573320" lon="-19.4276149">
        <ele>809.20001</ele>
        <time>2010-01-01T00:24:36Z</time>
      </trkpt>
      <trkpt lat="63.65571370" lon="-19.4276506">
        <ele>809.20001</ele>
        <time>2010-01-01T00:24:37Z</time>
      </trkpt>
      <trkpt lat="63.65568200" lon="-19.4276762">
        <ele>809.20001</ele>
        <time>2010-01-01T00:24:39Z</time>
      </trkpt>
      <trkpt lat="63.65565100" lon="-19.4276702">
        <ele>809.20001</ele>
        <time>2010-01-01T00:24:40Z</time>
      </trkpt>
      <trkpt lat="63.65562050" lon="-19.4276637">
        <ele>809.20001</ele>
        <time>2010-01-01T00:24:41Z</time>
      </trkpt>
      <trkpt lat="63.65558440" lon="-19.4276526">
        <ele>809.20001</ele>
        <time>2010-01-01T00:24:43Z</time>
      </trkpt>
      <trkpt lat="63.65555520" lon="-19.4276499">
        <ele>809.20001</ele>
        <time>2010-01-01T00:24:44Z</time>
      </trkpt>
      <trkpt lat="63.65552360" lon="-19.4276475">
        <ele>809.20001</ele>
        <time>2010-01-01T00:24:45Z</time>
      </trkpt>
      <trkpt lat="63.65548820" lon="-19.4276439">
        <ele>809.20001</ele>
        <time>2010-01-01T00:24:46Z</time>
      </trkpt>
      <trkpt lat="63.65546000" lon="-19.4276377">
        <ele>809.20001</ele>
        <time>2010-01-01T00:24:47Z</time>
      </trkpt>
      <trkpt lat="63.65543160" lon="-19.4276299">
        <ele>809.20001</ele>
        <time>2010-01-01T00:24:49Z</time>
      </trkpt>
      <trkpt lat="63.65540490" lon="-19.4276271">
        <ele>809.20001</ele>
        <time>2010-01-01T00:24:50Z</time>
      </trkpt>
      <trkpt lat="63.65525280" lon="-19.4276755">
        <ele>809.20001</ele>
        <time>2010-01-01T00:24:56Z</time>
      </trkpt>
      <trkpt lat="63.65513560" lon="-19.4277479">
        <ele>809.20001</ele>
        <time>2010-01-01T00:25:01Z</time>
      </trkpt>
      <trkpt lat="63.65507760" lon="-19.4277791">
        <ele>809.20001</ele>
        <time>2010-01-01T00:25:03Z</time>
      </trkpt>
      <trkpt lat="63.65504710" lon="-19.4278000">
        <ele>809.20001</ele>
        <time>2010-01-01T00:25:04Z</time>
      </trkpt>
      <trkpt lat="63.65501730" lon="-19.4278158">
        <ele>809.20001</ele>
        <time>2010-01-01T00:25:06Z</time>
      </trkpt>
      <trkpt lat="63.65499200" lon="-19.4278333">
        <ele>809.20001</ele>
        <time>2010-01-01T00:25:07Z</time>
      </trkpt>
      <trkpt lat="63.65496550" lon="-19.4278438">
        <ele>809.20001</ele>
        <time>2010-01-01T00:25:08Z</time>
      </trkpt>
      <trkpt lat="63.65493840" lon="-19.4278510">
        <ele>809.20001</ele>
        <time>2010-01-01T00:25:09Z</time>
      </trkpt>
      <trkpt lat="63.65491180" lon="-19.4278588">
        <ele>809.20001</ele>
        <time>2010-01-01T00:25:10Z</time>
      </trkpt>
      <trkpt lat="63.65488110" lon="-19.4278585">
        <ele>809.20001</ele>
        <time>2010-01-01T00:25:11Z</time>
      </trkpt>
      <trkpt lat="63.65485400" lon="-19.4278624">
        <ele>809.20001</ele>
        <time>2010-01-01T00:25:12Z</time>
      </trkpt>
      <trkpt lat="63.65482880" lon="-19.4278775">
        <ele>809.20001</ele>
        <time>2010-01-01T00:25:13Z</time>
      </trkpt>
      <trkpt lat="63.65479770" lon="-19.4279008">
        <ele>809.20001</ele>
        <time>2010-01-01T00:25:15Z</time>
      </trkpt>
      <trkpt lat="63.65476920" lon="-19.4279230">
        <ele>809.20001</ele>
        <time>2010-01-01T00:25:16Z</time>
      </trkpt>
      <trkpt lat="63.65474290" lon="-19.4279405">
        <ele>809.20001</ele>
        <time>2010-01-01T00:25:17Z</time>
      </trkpt>
      <trkpt lat="63.65471320" lon="-19.4279550">
        <ele>809.20001</ele>
        <time>2010-01-01T00:25:18Z</time>
      </trkpt>
      <trkpt lat="63.65468950" lon="-19.4279611">
        <ele>809.20001</ele>
        <time>2010-01-01T00:25:19Z</time>
      </trkpt>
      <trkpt lat="63.65466030" lon="-19.4279663">
        <ele>809.20001</ele>
        <time>2010-01-01T00:25:20Z</time>
      </trkpt>
      <trkpt lat="63.65463320" lon="-19.4279663">
        <ele>809.20001</ele>
        <time>2010-01-01T00:25:21Z</time>
      </trkpt>
      <trkpt lat="63.65461140" lon="-19.4279774">
        <ele>809.20001</ele>
        <time>2010-01-01T00:25:22Z</time>
      </trkpt>
      <trkpt lat="63.65458690" lon="-19.4279915">
        <ele>809.20001</ele>
        <time>2010-01-01T00:25:23Z</time>
      </trkpt>
      <trkpt lat="63.65456130" lon="-19.4280102">
        <ele>809.20001</ele>
        <time>2010-01-01T00:25:24Z</time>
      </trkpt>
      <trkpt lat="63.65453780" lon="-19.4280293">
        <ele>809.20001</ele>
        <time>2010-01-01T00:25:25Z</time>
      </trkpt>
      <trkpt lat="63.65451520" lon="-19.4280609">
        <ele>809.59997</ele>
        <time>2010-01-01T00:25:26Z</time>
      </trkpt>
      <trkpt lat="63.65448520" lon="-19.4280847">
        <ele>810.00000</ele>
        <time>2010-01-01T00:25:28Z</time>
      </trkpt>
      <trkpt lat="63.65446270" lon="-19.4280987">
        <ele>810.40002</ele>
        <time>2010-01-01T00:25:29Z</time>
      </trkpt>
      <trkpt lat="63.65444540" lon="-19.4281238">
        <ele>810.79998</ele>
        <time>2010-01-01T00:25:29Z</time>
      </trkpt>
      <trkpt lat="63.65441860" lon="-19.4281607">
        <ele>811.20001</ele>
        <time>2010-01-01T00:25:31Z</time>
      </trkpt>
      <trkpt lat="63.65439750" lon="-19.4281824">
        <ele>811.20001</ele>
        <time>2010-01-01T00:25:32Z</time>
      </trkpt>
      <trkpt lat="63.65438000" lon="-19.4281979">
        <ele>811.20001</ele>
        <time>2010-01-01T00:25:32Z</time>
      </trkpt>
      <trkpt lat="63.65436110" lon="-19.4282096">
        <ele>811.20001</ele>
        <time>2010-01-01T00:25:33Z</time>
      </trkpt>
      <trkpt lat="63.65434380" lon="-19.4282173">
        <ele>811.20001</ele>
        <time>2010-01-01T00:25:34Z</time>
      </trkpt>
      <trkpt lat="63.65432500" lon="-19.4282289">
        <ele>811.20001</ele>
        <time>2010-01-01T00:25:35Z</time>
      </trkpt>
      <trkpt lat="63.65430050" lon="-19.4282416">
        <ele>811.40002</ele>
        <time>2010-01-01T00:25:36Z</time>
      </trkpt>
      <trkpt lat="63.65427620" lon="-19.4282384">
        <ele>811.40002</ele>
        <time>2010-01-01T00:25:37Z</time>
      </trkpt>
      <trkpt lat="63.65424610" lon="-19.4282377">
        <ele>811.20001</ele>
        <time>2010-01-01T00:25:38Z</time>
      </trkpt>
      <trkpt lat="63.65421790" lon="-19.4282394">
        <ele>811.20001</ele>
        <time>2010-01-01T00:25:39Z</time>
      </trkpt>
      <trkpt lat="63.65419110" lon="-19.4282409">
        <ele>811.40002</ele>
        <time>2010-01-01T00:25:40Z</time>
      </trkpt>
      <trkpt lat="63.65416670" lon="-19.4282475">
        <ele>811.40002</ele>
        <time>2010-01-01T00:25:41Z</time>
      </trkpt>
      <trkpt lat="63.65414060" lon="-19.4282554">
        <ele>811.40002</ele>
        <time>2010-01-01T00:25:42Z</time>
      </trkpt>
      <trkpt lat="63.65411650" lon="-19.4282679">
        <ele>811.59997</ele>
        <time>2010-01-01T00:25:43Z</time>
      </trkpt>
      <trkpt lat="63.65409390" lon="-19.4282818">
        <ele>811.79998</ele>
        <time>2010-01-01T00:25:44Z</time>
      </trkpt>
      <trkpt lat="63.65406550" lon="-19.4282891">
        <ele>812.20001</ele>
        <time>2010-01-01T00:25:45Z</time>
      </trkpt>
      <trkpt lat="63.65404020" lon="-19.4282961">
        <ele>812.59997</ele>
        <time>2010-01-01T00:25:46Z</time>
      </trkpt>
      <trkpt lat="63.65401460" lon="-19.4283002">
        <ele>813.00000</ele>
        <time>2010-01-01T00:25:47Z</time>
      </trkpt>
      <trkpt lat="63.65398500" lon="-19.4283162">
        <ele>813.40002</ele>
        <time>2010-01-01T00:25:48Z</time>
      </trkpt>
      <trkpt lat="63.65396310" lon="-19.4283290">
        <ele>813.40002</ele>
        <time>2010-01-01T00:25:49Z</time>
      </trkpt>
      <trkpt lat="63.65393070" lon="-19.4283346">
        <ele>813.40002</ele>
        <time>2010-01-01T00:25:51Z</time>
      </trkpt>
      <trkpt lat="63.65390530" lon="-19.4283416">
        <ele>813.40002</ele>
        <time>2010-01-01T00:25:52Z</time>
      </trkpt>
      <trkpt lat="63.65388240" lon="-19.4283414">
        <ele>813.40002</ele>
        <time>2010-01-01T00:25:53Z</time>
      </trkpt>
      <trkpt lat="63.65385790" lon="-19.4283525">
        <ele>813.40002</ele>
        <time>2010-01-01T00:25:54Z</time>
      </trkpt>
      <trkpt lat="63.65383600" lon="-19.4283645">
        <ele>813.40002</ele>
        <time>2010-01-01T00:25:54Z</time>
      </trkpt>
      <trkpt lat="63.65381310" lon="-19.4283753">
        <ele>813.40002</ele>
        <time>2010-01-01T00:25:55Z</time>
      </trkpt>
      <trkpt lat="63.65378740" lon="-19.4283886">
        <ele>813.40002</ele>
        <time>2010-01-01T00:25:56Z</time>
      </trkpt>
      <trkpt lat="63.65376120" lon="-19.4284044">
        <ele>813.40002</ele>
        <time>2010-01-01T00:25:57Z</time>
      </trkpt>
      <trkpt lat="63.65374070" lon="-19.4284185">
        <ele>813.40002</ele>
        <time>2010-01-01T00:25:58Z</time>
      </trkpt>
      <trkpt lat="63.65369760" lon="-19.4284302">
        <ele>813.40002</ele>
        <time>2010-01-01T00:26:00Z</time>
      </trkpt>
      <trkpt lat="63.65367480" lon="-19.4284338">
        <ele>813.40002</ele>
        <time>2010-01-01T00:26:01Z</time>
      </trkpt>
      <trkpt lat="63.65365300" lon="-19.4284364">
        <ele>813.40002</ele>
        <time>2010-01-01T00:26:02Z</time>
      </trkpt>
      <trkpt lat="63.65362690" lon="-19.4284318">
        <ele>813.40002</ele>
        <time>2010-01-01T00:26:03Z</time>
      </trkpt>
      <trkpt lat="63.65359950" lon="-19.4284266">
        <ele>813.40002</ele>
        <time>2010-01-01T00:26:04Z</time>
      </trkpt>
      <trkpt lat="63.65357520" lon="-19.4284363">
        <ele>813.40002</ele>
        <time>2010-01-01T00:26:05Z</time>
      </trkpt>
      <trkpt lat="63.65354450" lon="-19.4284632">
        <ele>813.40002</ele>
        <time>2010-01-01T00:26:06Z</time>
      </trkpt>
      <trkpt lat="63.65351720" lon="-19.4284865">
        <ele>813.40002</ele>
        <time>2010-01-01T00:26:08Z</time>
      </trkpt>
      <trkpt lat="63.65349240" lon="-19.4284998">
        <ele>813.40002</ele>
        <time>2010-01-01T00:26:09Z</time>
      </trkpt>
      <trkpt lat="63.65343790" lon="-19.4285242">
        <ele>813.40002</ele>
        <time>2010-01-01T00:26:11Z</time>
      </trkpt>
      <trkpt lat="63.65341160" lon="-19.4285401">
        <ele>813.40002</ele>
        <time>2010-01-01T00:26:12Z</time>
      </trkpt>
      <trkpt lat="63.65338160" lon="-19.4285578">
        <ele>813.40002</ele>
        <time>2010-01-01T00:26:13Z</time>
      </trkpt>
      <trkpt lat="63.65334970" lon="-19.4285782">
        <ele>813.40002</ele>
        <time>2010-01-01T00:26:14Z</time>
      </trkpt>
      <trkpt lat="63.65332040" lon="-19.4285948">
        <ele>813.40002</ele>
        <time>2010-01-01T00:26:16Z</time>
      </trkpt>
      <trkpt lat="63.65329160" lon="-19.4286072">
        <ele>813.40002</ele>
        <time>2010-01-01T00:26:17Z</time>
      </trkpt>
      <trkpt lat="63.65326560" lon="-19.4286232">
        <ele>813.20001</ele>
        <time>2010-01-01T00:26:18Z</time>
      </trkpt>
      <trkpt lat="63.65323770" lon="-19.4286341">
        <ele>813.40002</ele>
        <time>2010-01-01T00:26:19Z</time>
      </trkpt>
      <trkpt lat="63.65321140" lon="-19.4286478">
        <ele>813.40002</ele>
        <time>2010-01-01T00:26:20Z</time>
      </trkpt>
      <trkpt lat="63.65318720" lon="-19.4286669">
        <ele>813.40002</ele>
        <time>2010-01-01T00:26:21Z</time>
      </trkpt>
      <trkpt lat="63.65315780" lon="-19.4286801">
        <ele>813.40002</ele>
        <time>2010-01-01T00:26:22Z</time>
      </trkpt>
      <trkpt lat="63.65313260" lon="-19.4286903">
        <ele>813.40002</ele>
        <time>2010-01-01T00:26:23Z</time>
      </trkpt>
      <trkpt lat="63.65310230" lon="-19.4287151">
        <ele>813.40002</ele>
        <time>2010-01-01T00:26:25Z</time>
      </trkpt>
      <trkpt lat="63.65307390" lon="-19.4287296">
        <ele>813.40002</ele>
        <time>2010-01-01T00:26:26Z</time>
      </trkpt>
      <trkpt lat="63.65304940" lon="-19.4287485">
        <ele>813.40002</ele>
        <time>2010-01-01T00:26:27Z</time>
      </trkpt>
      <trkpt lat="63.65301560" lon="-19.4287698">
        <ele>813.40002</ele>
        <time>2010-01-01T00:26:28Z</time>
      </trkpt>
      <trkpt lat="63.65298430" lon="-19.4287885">
        <ele>813.40002</ele>
        <time>2010-01-01T00:26:30Z</time>
      </trkpt>
      <trkpt lat="63.65295780" lon="-19.4287968">
        <ele>813.40002</ele>
        <time>2010-01-01T00:26:31Z</time>
      </trkpt>
      <trkpt lat="63.65293520" lon="-19.4288065">
        <ele>813.40002</ele>
        <time>2010-01-01T00:26:32Z</time>
      </trkpt>
      <trkpt lat="63.65291290" lon="-19.4288150">
        <ele>813.40002</ele>
        <time>2010-01-01T00:26:32Z</time>
      </trkpt>
      <trkpt lat="63.65280240" lon="-19.4288849">
        <ele>813.40002</ele>
        <time>2010-01-01T00:26:37Z</time>
      </trkpt>
      <trkpt lat="63.65277160" lon="-19.4289033">
        <ele>813.79998</ele>
        <time>2010-01-01T00:26:38Z</time>
      </trkpt>
      <trkpt lat="63.65274010" lon="-19.4289166">
        <ele>814.20001</ele>
        <time>2010-01-01T00:26:40Z</time>
      </trkpt>
      <trkpt lat="63.65271200" lon="-19.4289223">
        <ele>814.40002</ele>
        <time>2010-01-01T00:26:41Z</time>
      </trkpt>
      <trkpt lat="63.65267910" lon="-19.4289325">
        <ele>814.59997</ele>
        <time>2010-01-01T00:26:42Z</time>
      </trkpt>
      <trkpt lat="63.65265020" lon="-19.4289476">
        <ele>815.00000</ele>
        <time>2010-01-01T00:26:43Z</time>
      </trkpt>
      <trkpt lat="63.65262370" lon="-19.4289609">
        <ele>815.20001</ele>
        <time>2010-01-01T00:26:44Z</time>
      </trkpt>
      <trkpt lat="63.65258990" lon="-19.4289692">
        <ele>815.40002</ele>
        <time>2010-01-01T00:26:46Z</time>
      </trkpt>
      <trkpt lat="63.65252690" lon="-19.4289980">
        <ele>815.40002</ele>
        <time>2010-01-01T00:26:48Z</time>
      </trkpt>
      <trkpt lat="63.65249530" lon="-19.4290149">
        <ele>815.40002</ele>
        <time>2010-01-01T00:26:50Z</time>
      </trkpt>
      <trkpt lat="63.65246360" lon="-19.4290343">
        <ele>815.40002</ele>
        <time>2010-01-01T00:26:51Z</time>
      </trkpt>
      <trkpt lat="63.65225660" lon="-19.4291296">
        <ele>815.40002</ele>
        <time>2010-01-01T00:26:59Z</time>
      </trkpt>
      <trkpt lat="63.65222950" lon="-19.4291494">
        <ele>815.40002</ele>
        <time>2010-01-01T00:27:00Z</time>
      </trkpt>
      <trkpt lat="63.65219820" lon="-19.4291663">
        <ele>815.40002</ele>
        <time>2010-01-01T00:27:02Z</time>
      </trkpt>
      <trkpt lat="63.65217230" lon="-19.4291768">
        <ele>815.40002</ele>
        <time>2010-01-01T00:27:03Z</time>
      </trkpt>
      <trkpt lat="63.65214210" lon="-19.4291832">
        <ele>815.40002</ele>
        <time>2010-01-01T00:27:04Z</time>
      </trkpt>
      <trkpt lat="63.65210880" lon="-19.4291917">
        <ele>815.40002</ele>
        <time>2010-01-01T00:27:05Z</time>
      </trkpt>
      <trkpt lat="63.65208030" lon="-19.4292020">
        <ele>815.40002</ele>
        <time>2010-01-01T00:27:07Z</time>
      </trkpt>
      <trkpt lat="63.65205030" lon="-19.4292155">
        <ele>815.40002</ele>
        <time>2010-01-01T00:27:08Z</time>
      </trkpt>
      <trkpt lat="63.65202090" lon="-19.4292213">
        <ele>815.40002</ele>
        <time>2010-01-01T00:27:09Z</time>
      </trkpt>
      <trkpt lat="63.65199750" lon="-19.4292266">
        <ele>815.40002</ele>
        <time>2010-01-01T00:27:10Z</time>
      </trkpt>
      <trkpt lat="63.65196520" lon="-19.4292346">
        <ele>815.40002</ele>
        <time>2010-01-01T00:27:11Z</time>
      </trkpt>
      <trkpt lat="63.65193780" lon="-19.4292542">
        <ele>815.40002</ele>
        <time>2010-01-01T00:27:12Z</time>
      </trkpt>
      <trkpt lat="63.65191300" lon="-19.4292832">
        <ele>815.40002</ele>
        <time>2010-01-01T00:27:13Z</time>
      </trkpt>
      <trkpt lat="63.65188610" lon="-19.4293181">
        <ele>815.40002</ele>
        <time>2010-01-01T00:27:15Z</time>
      </trkpt>
      <trkpt lat="63.65186800" lon="-19.4293335">
        <ele>815.40002</ele>
        <time>2010-01-01T00:27:15Z</time>
      </trkpt>
      <trkpt lat="63.65184380" lon="-19.4293493">
        <ele>815.40002</ele>
        <time>2010-01-01T00:27:16Z</time>
      </trkpt>
      <trkpt lat="63.65181150" lon="-19.4293594">
        <ele>815.40002</ele>
        <time>2010-01-01T00:27:18Z</time>
      </trkpt>
      <trkpt lat="63.65178530" lon="-19.4293623">
        <ele>815.40002</ele>
        <time>2010-01-01T00:27:19Z</time>
      </trkpt>
      <trkpt lat="63.65175980" lon="-19.4293683">
        <ele>815.40002</ele>
        <time>2010-01-01T00:27:20Z</time>
      </trkpt>
      <trkpt lat="63.65173660" lon="-19.4293726">
        <ele>815.40002</ele>
        <time>2010-01-01T00:27:21Z</time>
      </trkpt>
      <trkpt lat="63.65171250" lon="-19.4293813">
        <ele>815.40002</ele>
        <time>2010-01-01T00:27:22Z</time>
      </trkpt>
      <trkpt lat="63.65169320" lon="-19.4293880">
        <ele>815.40002</ele>
        <time>2010-01-01T00:27:23Z</time>
      </trkpt>
      <trkpt lat="63.65166500" lon="-19.4293916">
        <ele>815.40002</ele>
        <time>2010-01-01T00:27:24Z</time>
      </trkpt>
      <trkpt lat="63.65164090" lon="-19.4293957">
        <ele>815.40002</ele>
        <time>2010-01-01T00:27:25Z</time>
      </trkpt>
      <trkpt lat="63.65159080" lon="-19.4294062">
        <ele>815.40002</ele>
        <time>2010-01-01T00:27:27Z</time>
      </trkpt>
      <trkpt lat="63.65156770" lon="-19.4294153">
        <ele>815.79998</ele>
        <time>2010-01-01T00:27:28Z</time>
      </trkpt>
      <trkpt lat="63.65154410" lon="-19.4294243">
        <ele>816.00000</ele>
        <time>2010-01-01T00:27:29Z</time>
      </trkpt>
      <trkpt lat="63.65151540" lon="-19.4294292">
        <ele>816.40002</ele>
        <time>2010-01-01T00:27:30Z</time>
      </trkpt>
      <trkpt lat="63.65149350" lon="-19.4294332">
        <ele>816.79998</ele>
        <time>2010-01-01T00:27:31Z</time>
      </trkpt>
      <trkpt lat="63.65146860" lon="-19.4294440">
        <ele>817.00000</ele>
        <time>2010-01-01T00:27:32Z</time>
      </trkpt>
      <trkpt lat="63.65143920" lon="-19.4294426">
        <ele>817.40002</ele>
        <time>2010-01-01T00:27:33Z</time>
      </trkpt>
      <trkpt lat="63.65133960" lon="-19.4294879">
        <ele>817.40002</ele>
        <time>2010-01-01T00:27:37Z</time>
      </trkpt>
      <trkpt lat="63.65131370" lon="-19.4294975">
        <ele>817.40002</ele>
        <time>2010-01-01T00:27:38Z</time>
      </trkpt>
      <trkpt lat="63.65128730" lon="-19.4295125">
        <ele>817.40002</ele>
        <time>2010-01-01T00:27:39Z</time>
      </trkpt>
      <trkpt lat="63.65126370" lon="-19.4295253">
        <ele>817.40002</ele>
        <time>2010-01-01T00:27:40Z</time>
      </trkpt>
      <trkpt lat="63.65124030" lon="-19.4295434">
        <ele>817.40002</ele>
        <time>2010-01-01T00:27:41Z</time>
      </trkpt>
      <trkpt lat="63.65121260" lon="-19.4295665">
        <ele>817.40002</ele>
        <time>2010-01-01T00:27:42Z</time>
      </trkpt>
      <trkpt lat="63.65118870" lon="-19.4295825">
        <ele>817.40002</ele>
        <time>2010-01-01T00:27:43Z</time>
      </trkpt>
      <trkpt lat="63.65116140" lon="-19.4295958">
        <ele>817.40002</ele>
        <time>2010-01-01T00:27:44Z</time>
      </trkpt>
      <trkpt lat="63.65113580" lon="-19.4296066">
        <ele>817.40002</ele>
        <time>2010-01-01T00:27:45Z</time>
      </trkpt>
      <trkpt lat="63.65111310" lon="-19.4296113">
        <ele>817.40002</ele>
        <time>2010-01-01T00:27:46Z</time>
      </trkpt>
      <trkpt lat="63.65108600" lon="-19.4296234">
        <ele>817.40002</ele>
        <time>2010-01-01T00:27:47Z</time>
      </trkpt>
      <trkpt lat="63.65106060" lon="-19.4296301">
        <ele>817.40002</ele>
        <time>2010-01-01T00:27:48Z</time>
      </trkpt>
      <trkpt lat="63.65103300" lon="-19.4296413">
        <ele>817.40002</ele>
        <time>2010-01-01T00:27:49Z</time>
      </trkpt>
      <trkpt lat="63.65100460" lon="-19.4296539">
        <ele>817.40002</ele>
        <time>2010-01-01T00:27:51Z</time>
      </trkpt>
      <trkpt lat="63.65097740" lon="-19.4296663">
        <ele>817.40002</ele>
        <time>2010-01-01T00:27:52Z</time>
      </trkpt>
      <trkpt lat="63.65094690" lon="-19.4296790">
        <ele>817.79998</ele>
        <time>2010-01-01T00:27:53Z</time>
      </trkpt>
      <trkpt lat="63.65092240" lon="-19.4296861">
        <ele>818.20001</ele>
        <time>2010-01-01T00:27:54Z</time>
      </trkpt>
      <trkpt lat="63.65089290" lon="-19.4296984">
        <ele>818.59997</ele>
        <time>2010-01-01T00:27:55Z</time>
      </trkpt>
      <trkpt lat="63.65086420" lon="-19.4297143">
        <ele>819.00000</ele>
        <time>2010-01-01T00:27:56Z</time>
      </trkpt>
      <trkpt lat="63.65083890" lon="-19.4297325">
        <ele>819.40002</ele>
        <time>2010-01-01T00:27:57Z</time>
      </trkpt>
      <trkpt lat="63.65081320" lon="-19.4297485">
        <ele>819.40002</ele>
        <time>2010-01-01T00:27:58Z</time>
      </trkpt>
      <trkpt lat="63.65078530" lon="-19.4297623">
        <ele>819.40002</ele>
        <time>2010-01-01T00:28:00Z</time>
      </trkpt>
      <trkpt lat="63.65076180" lon="-19.4297750">
        <ele>819.40002</ele>
        <time>2010-01-01T00:28:01Z</time>
      </trkpt>
      <trkpt lat="63.65073110" lon="-19.4297871">
        <ele>819.40002</ele>
        <time>2010-01-01T00:28:02Z</time>
      </trkpt>
      <trkpt lat="63.65070000" lon="-19.4298024">
        <ele>819.40002</ele>
        <time>2010-01-01T00:28:03Z</time>
      </trkpt>
      <trkpt lat="63.65066670" lon="-19.4298190">
        <ele>819.40002</ele>
        <time>2010-01-01T00:28:04Z</time>
      </trkpt>
      <trkpt lat="63.65063460" lon="-19.4298296">
        <ele>819.40002</ele>
        <time>2010-01-01T00:28:06Z</time>
      </trkpt>
      <trkpt lat="63.65060530" lon="-19.4298437">
        <ele>819.40002</ele>
        <time>2010-01-01T00:28:07Z</time>
      </trkpt>
      <trkpt lat="63.65057960" lon="-19.4298606">
        <ele>819.40002</ele>
        <time>2010-01-01T00:28:08Z</time>
      </trkpt>
      <trkpt lat="63.65052200" lon="-19.4298998">
        <ele>819.40002</ele>
        <time>2010-01-01T00:28:10Z</time>
      </trkpt>
      <trkpt lat="63.65049220" lon="-19.4299259">
        <ele>819.40002</ele>
        <time>2010-01-01T00:28:12Z</time>
      </trkpt>
      <trkpt lat="63.65045850" lon="-19.4299489">
        <ele>819.40002</ele>
        <time>2010-01-01T00:28:13Z</time>
      </trkpt>
      <trkpt lat="63.65042990" lon="-19.4299676">
        <ele>819.40002</ele>
        <time>2010-01-01T00:28:14Z</time>
      </trkpt>
      <trkpt lat="63.65040510" lon="-19.4299800">
        <ele>819.40002</ele>
        <time>2010-01-01T00:28:15Z</time>
      </trkpt>
      <trkpt lat="63.65037100" lon="-19.4299915">
        <ele>819.40002</ele>
        <time>2010-01-01T00:28:17Z</time>
      </trkpt>
      <trkpt lat="63.65034360" lon="-19.4300078">
        <ele>819.40002</ele>
        <time>2010-01-01T00:28:18Z</time>
      </trkpt>
      <trkpt lat="63.65031690" lon="-19.4300311">
        <ele>819.40002</ele>
        <time>2010-01-01T00:28:19Z</time>
      </trkpt>
      <trkpt lat="63.65029130" lon="-19.4300572">
        <ele>819.40002</ele>
        <time>2010-01-01T00:28:20Z</time>
      </trkpt>
      <trkpt lat="63.65026800" lon="-19.4300836">
        <ele>819.40002</ele>
        <time>2010-01-01T00:28:21Z</time>
      </trkpt>
      <trkpt lat="63.65023880" lon="-19.4301151">
        <ele>819.40002</ele>
        <time>2010-01-01T00:28:22Z</time>
      </trkpt>
      <trkpt lat="63.65020670" lon="-19.4301404">
        <ele>819.40002</ele>
        <time>2010-01-01T00:28:24Z</time>
      </trkpt>
      <trkpt lat="63.65017770" lon="-19.4301632">
        <ele>819.40002</ele>
        <time>2010-01-01T00:28:25Z</time>
      </trkpt>
      <trkpt lat="63.65015220" lon="-19.4301899">
        <ele>819.40002</ele>
        <time>2010-01-01T00:28:26Z</time>
      </trkpt>
      <trkpt lat="63.65012770" lon="-19.4302124">
        <ele>819.40002</ele>
        <time>2010-01-01T00:28:27Z</time>
      </trkpt>
      <trkpt lat="63.65009730" lon="-19.4302351">
        <ele>819.40002</ele>
        <time>2010-01-01T00:28:29Z</time>
      </trkpt>
      <trkpt lat="63.65007120" lon="-19.4302439">
        <ele>819.40002</ele>
        <time>2010-01-01T00:28:30Z</time>
      </trkpt>
      <trkpt lat="63.65004350" lon="-19.4302547">
        <ele>819.40002</ele>
        <time>2010-01-01T00:28:31Z</time>
      </trkpt>
      <trkpt lat="63.65001590" lon="-19.4302795">
        <ele>819.40002</ele>
        <time>2010-01-01T00:28:32Z</time>
      </trkpt>
      <trkpt lat="63.64999270" lon="-19.4303085">
        <ele>819.40002</ele>
        <time>2010-01-01T00:28:33Z</time>
      </trkpt>
      <trkpt lat="63.64996430" lon="-19.4303401">
        <ele>819.40002</ele>
        <time>2010-01-01T00:28:34Z</time>
      </trkpt>
      <trkpt lat="63.64993530" lon="-19.4303588">
        <ele>819.40002</ele>
        <time>2010-01-01T00:28:35Z</time>
      </trkpt>
      <trkpt lat="63.64991180" lon="-19.4303759">
        <ele>819.40002</ele>
        <time>2010-01-01T00:28:36Z</time>
      </trkpt>
      <trkpt lat="63.64988280" lon="-19.4303984">
        <ele>819.40002</ele>
        <time>2010-01-01T00:28:38Z</time>
      </trkpt>
      <trkpt lat="63.64985970" lon="-19.4304124">
        <ele>819.40002</ele>
        <time>2010-01-01T00:28:39Z</time>
      </trkpt>
      <trkpt lat="63.64982950" lon="-19.4304264">
        <ele>819.40002</ele>
        <time>2010-01-01T00:28:40Z</time>
      </trkpt>
      <trkpt lat="63.64979820" lon="-19.4304251">
        <ele>819.40002</ele>
        <time>2010-01-01T00:28:41Z</time>
      </trkpt>
      <trkpt lat="63.64976850" lon="-19.4304277">
        <ele>819.59997</ele>
        <time>2010-01-01T00:28:42Z</time>
      </trkpt>
      <trkpt lat="63.64974200" lon="-19.4304421">
        <ele>819.40002</ele>
        <time>2010-01-01T00:28:43Z</time>
      </trkpt>
      <trkpt lat="63.64971100" lon="-19.4304645">
        <ele>819.40002</ele>
        <time>2010-01-01T00:28:45Z</time>
      </trkpt>
      <trkpt lat="63.64968930" lon="-19.4304959">
        <ele>819.40002</ele>
        <time>2010-01-01T00:28:46Z</time>
      </trkpt>
      <trkpt lat="63.64967340" lon="-19.4305316">
        <ele>819.40002</ele>
        <time>2010-01-01T00:28:47Z</time>
      </trkpt>
      <trkpt lat="63.64966400" lon="-19.4305805">
        <ele>819.40002</ele>
        <time>2010-01-01T00:28:48Z</time>
      </trkpt>
      <trkpt lat="63.64965550" lon="-19.4306289">
        <ele>819.40002</ele>
        <time>2010-01-01T00:28:48Z</time>
      </trkpt>
      <trkpt lat="63.64963870" lon="-19.4306664">
        <ele>819.40002</ele>
        <time>2010-01-01T00:28:49Z</time>
      </trkpt>
      <trkpt lat="63.64961060" lon="-19.4306994">
        <ele>819.59997</ele>
        <time>2010-01-01T00:28:51Z</time>
      </trkpt>
      <trkpt lat="63.64959000" lon="-19.4307074">
        <ele>819.59997</ele>
        <time>2010-01-01T00:28:52Z</time>
      </trkpt>
      <trkpt lat="63.64956620" lon="-19.4307127">
        <ele>819.59997</ele>
        <time>2010-01-01T00:28:52Z</time>
      </trkpt>
      <trkpt lat="63.64954670" lon="-19.4307236">
        <ele>819.40002</ele>
        <time>2010-01-01T00:28:53Z</time>
      </trkpt>
      <trkpt lat="63.64952680" lon="-19.4307307">
        <ele>819.59997</ele>
        <time>2010-01-01T00:28:54Z</time>
      </trkpt>
      <trkpt lat="63.64950340" lon="-19.4307335">
        <ele>819.59997</ele>
        <time>2010-01-01T00:28:55Z</time>
      </trkpt>
      <trkpt lat="63.64948610" lon="-19.4307285">
        <ele>819.59997</ele>
        <time>2010-01-01T00:28:56Z</time>
      </trkpt>
      <trkpt lat="63.64946750" lon="-19.4307203">
        <ele>819.59997</ele>
        <time>2010-01-01T00:28:56Z</time>
      </trkpt>
      <trkpt lat="63.64944720" lon="-19.4307145">
        <ele>819.59997</ele>
        <time>2010-01-01T00:28:57Z</time>
      </trkpt>
      <trkpt lat="63.64942820" lon="-19.4307110">
        <ele>819.59997</ele>
        <time>2010-01-01T00:28:58Z</time>
      </trkpt>
      <trkpt lat="63.64941000" lon="-19.4307105">
        <ele>819.59997</ele>
        <time>2010-01-01T00:28:59Z</time>
      </trkpt>
      <trkpt lat="63.64939030" lon="-19.4307141">
        <ele>820.00000</ele>
        <time>2010-01-01T00:29:00Z</time>
      </trkpt>
      <trkpt lat="63.64936920" lon="-19.4307254">
        <ele>820.40002</ele>
        <time>2010-01-01T00:29:00Z</time>
      </trkpt>
      <trkpt lat="63.64934920" lon="-19.4307358">
        <ele>820.79998</ele>
        <time>2010-01-01T00:29:01Z</time>
      </trkpt>
      <trkpt lat="63.64932650" lon="-19.4307445">
        <ele>821.20001</ele>
        <time>2010-01-01T00:29:02Z</time>
      </trkpt>
      <trkpt lat="63.64930190" lon="-19.4307514">
        <ele>821.59997</ele>
        <time>2010-01-01T00:29:03Z</time>
      </trkpt>
      <trkpt lat="63.64927890" lon="-19.4307537">
        <ele>821.59997</ele>
        <time>2010-01-01T00:29:04Z</time>
      </trkpt>
      <trkpt lat="63.64923080" lon="-19.4307576">
        <ele>821.59997</ele>
        <time>2010-01-01T00:29:06Z</time>
      </trkpt>
      <trkpt lat="63.64921000" lon="-19.4307603">
        <ele>821.59997</ele>
        <time>2010-01-01T00:29:07Z</time>
      </trkpt>
      <trkpt lat="63.64903710" lon="-19.4307841">
        <ele>821.59997</ele>
        <time>2010-01-01T00:29:14Z</time>
      </trkpt>
      <trkpt lat="63.64892410" lon="-19.4307809">
        <ele>822.00000</ele>
        <time>2010-01-01T00:29:18Z</time>
      </trkpt>
      <trkpt lat="63.64890280" lon="-19.4307782">
        <ele>822.40002</ele>
        <time>2010-01-01T00:29:19Z</time>
      </trkpt>
      <trkpt lat="63.64888460" lon="-19.4307661">
        <ele>822.79998</ele>
        <time>2010-01-01T00:29:20Z</time>
      </trkpt>
      <trkpt lat="63.64887530" lon="-19.4307590">
        <ele>823.20001</ele>
        <time>2010-01-01T00:29:20Z</time>
      </trkpt>
      <trkpt lat="63.64886470" lon="-19.4307603">
        <ele>823.59997</ele>
        <time>2010-01-01T00:29:21Z</time>
      </trkpt>
      <trkpt lat="63.64885770" lon="-19.4307732">
        <ele>823.59997</ele>
        <time>2010-01-01T00:29:21Z</time>
      </trkpt>
      <trkpt lat="63.64884070" lon="-19.4307970">
        <ele>823.59997</ele>
        <time>2010-01-01T00:29:22Z</time>
      </trkpt>
      <trkpt lat="63.64885830" lon="-19.4308315">
        <ele>823.59997</ele>
        <time>2010-01-01T00:29:23Z</time>
      </trkpt>
      <trkpt lat="63.64883050" lon="-19.4308523">
        <ele>823.59997</ele>
        <time>2010-01-01T00:29:24Z</time>
      </trkpt>
      <trkpt lat="63.64881250" lon="-19.4308342">
        <ele>823.40002</ele>
        <time>2010-01-01T00:29:25Z</time>
      </trkpt>
      <trkpt lat="63.64880980" lon="-19.4308525">
        <ele>823.20001</ele>
        <time>2010-01-01T00:29:25Z</time>
      </trkpt>
      <trkpt lat="63.64880800" lon="-19.4308610">
        <ele>822.79998</ele>
        <time>2010-01-01T00:29:25Z</time>
      </trkpt>
      <trkpt lat="63.64880080" lon="-19.4308800">
        <ele>822.40002</ele>
        <time>2010-01-01T00:29:26Z</time>
      </trkpt>
      <trkpt lat="63.64878940" lon="-19.4308836">
        <ele>822.00000</ele>
        <time>2010-01-01T00:29:26Z</time>
      </trkpt>
      <trkpt lat="63.64878260" lon="-19.4308825">
        <ele>821.59997</ele>
        <time>2010-01-01T00:29:27Z</time>
      </trkpt>
      <trkpt lat="63.64877590" lon="-19.4308719">
        <ele>821.59997</ele>
        <time>2010-01-01T00:29:27Z</time>
      </trkpt>
      <trkpt lat="63.64875930" lon="-19.4309019">
        <ele>821.20001</ele>
        <time>2010-01-01T00:29:28Z</time>
      </trkpt>
      <trkpt lat="63.64875590" lon="-19.4309213">
        <ele>820.79998</ele>
        <time>2010-01-01T00:29:28Z</time>
      </trkpt>
      <trkpt lat="63.64875480" lon="-19.4309409">
        <ele>820.20001</ele>
        <time>2010-01-01T00:29:28Z</time>
      </trkpt>
      <trkpt lat="63.64875350" lon="-19.4309587">
        <ele>820.00000</ele>
        <time>2010-01-01T00:29:29Z</time>
      </trkpt>
      <trkpt lat="63.64875940" lon="-19.4309783">
        <ele>819.59997</ele>
        <time>2010-01-01T00:29:29Z</time>
      </trkpt>
      <trkpt lat="63.64876640" lon="-19.4310052">
        <ele>819.20001</ele>
        <time>2010-01-01T00:29:30Z</time>
      </trkpt>
      <trkpt lat="63.64875840" lon="-19.4310220">
        <ele>818.79998</ele>
        <time>2010-01-01T00:29:30Z</time>
      </trkpt>
      <trkpt lat="63.64874770" lon="-19.4310486">
        <ele>818.40002</ele>
        <time>2010-01-01T00:29:31Z</time>
      </trkpt>
      <trkpt lat="63.64873690" lon="-19.4310817">
        <ele>818.00000</ele>
        <time>2010-01-01T00:29:32Z</time>
      </trkpt>
      <trkpt lat="63.64872520" lon="-19.4311334">
        <ele>817.59997</ele>
        <time>2010-01-01T00:29:33Z</time>
      </trkpt>
      <trkpt lat="63.64871140" lon="-19.4311891">
        <ele>817.00000</ele>
        <time>2010-01-01T00:29:34Z</time>
      </trkpt>
      <trkpt lat="63.64869000" lon="-19.4312533">
        <ele>816.59997</ele>
        <time>2010-01-01T00:29:35Z</time>
      </trkpt>
      <trkpt lat="63.64866260" lon="-19.4313124">
        <ele>816.00000</ele>
        <time>2010-01-01T00:29:37Z</time>
      </trkpt>
      <trkpt lat="63.64864470" lon="-19.4313689">
        <ele>815.40002</ele>
        <time>2010-01-01T00:29:38Z</time>
      </trkpt>
      <trkpt lat="63.64862830" lon="-19.4314174">
        <ele>814.79998</ele>
        <time>2010-01-01T00:29:39Z</time>
      </trkpt>
      <trkpt lat="63.64861570" lon="-19.4314526">
        <ele>814.00000</ele>
        <time>2010-01-01T00:29:40Z</time>
      </trkpt>
      <trkpt lat="63.64861110" lon="-19.4314749">
        <ele>813.40002</ele>
        <time>2010-01-01T00:29:40Z</time>
      </trkpt>
      <trkpt lat="63.64860910" lon="-19.4315058">
        <ele>812.59997</ele>
        <time>2010-01-01T00:29:41Z</time>
      </trkpt>
      <trkpt lat="63.64860390" lon="-19.4315270">
        <ele>811.79998</ele>
        <time>2010-01-01T00:29:41Z</time>
      </trkpt>
      <trkpt lat="63.64859870" lon="-19.4315434">
        <ele>811.00000</ele>
        <time>2010-01-01T00:29:42Z</time>
      </trkpt>
      <trkpt lat="63.64858130" lon="-19.4315862">
        <ele>811.20001</ele>
        <time>2010-01-01T00:29:43Z</time>
      </trkpt>
      <trkpt lat="63.64857660" lon="-19.4315999">
        <ele>811.59997</ele>
        <time>2010-01-01T00:29:43Z</time>
      </trkpt>
      <trkpt lat="63.64857120" lon="-19.4316118">
        <ele>812.00000</ele>
        <time>2010-01-01T00:29:43Z</time>
      </trkpt>
      <trkpt lat="63.64856630" lon="-19.4316232">
        <ele>812.40002</ele>
        <time>2010-01-01T00:29:43Z</time>
      </trkpt>
      <trkpt lat="63.64856280" lon="-19.4316370">
        <ele>813.00000</ele>
        <time>2010-01-01T00:29:44Z</time>
      </trkpt>
      <trkpt lat="63.64855740" lon="-19.4316523">
        <ele>813.00000</ele>
        <time>2010-01-01T00:29:44Z</time>
      </trkpt>
      <trkpt lat="63.64854340" lon="-19.4316755">
        <ele>813.40002</ele>
        <time>2010-01-01T00:29:45Z</time>
      </trkpt>
      <trkpt lat="63.64853650" lon="-19.4316849">
        <ele>813.79998</ele>
        <time>2010-01-01T00:29:45Z</time>
      </trkpt>
      <trkpt lat="63.64853170" lon="-19.4316883">
        <ele>814.20001</ele>
        <time>2010-01-01T00:29:45Z</time>
      </trkpt>
      <trkpt lat="63.64852420" lon="-19.4317030">
        <ele>814.59997</ele>
        <time>2010-01-01T00:29:46Z</time>
      </trkpt>
      <trkpt lat="63.64851850" lon="-19.4317169">
        <ele>815.00000</ele>
        <time>2010-01-01T00:29:46Z</time>
      </trkpt>
      <trkpt lat="63.64850920" lon="-19.4317381">
        <ele>815.20001</ele>
        <time>2010-01-01T00:29:47Z</time>
      </trkpt>
      <trkpt lat="63.64850290" lon="-19.4317450">
        <ele>815.59997</ele>
        <time>2010-01-01T00:29:47Z</time>
      </trkpt>
      <trkpt lat="63.64849700" lon="-19.4317590">
        <ele>816.20001</ele>
        <time>2010-01-01T00:29:47Z</time>
      </trkpt>
      <trkpt lat="63.64849540" lon="-19.4317714">
        <ele>816.59997</ele>
        <time>2010-01-01T00:29:47Z</time>
      </trkpt>
      <trkpt lat="63.64849190" lon="-19.4317831">
        <ele>817.00000</ele>
        <time>2010-01-01T00:29:48Z</time>
      </trkpt>
      <trkpt lat="63.64848590" lon="-19.4317908">
        <ele>817.20001</ele>
        <time>2010-01-01T00:29:48Z</time>
      </trkpt>
      <trkpt lat="63.64847650" lon="-19.4317952">
        <ele>817.20001</ele>
        <time>2010-01-01T00:29:48Z</time>
      </trkpt>
      <trkpt lat="63.64847040" lon="-19.4318007">
        <ele>817.40002</ele>
        <time>2010-01-01T00:29:49Z</time>
      </trkpt>
      <trkpt lat="63.64846500" lon="-19.4318068">
        <ele>817.79998</ele>
        <time>2010-01-01T00:29:49Z</time>
      </trkpt>
      <trkpt lat="63.64846050" lon="-19.4318141">
        <ele>818.20001</ele>
        <time>2010-01-01T00:29:49Z</time>
      </trkpt>
      <trkpt lat="63.64845710" lon="-19.4318325">
        <ele>818.59997</ele>
        <time>2010-01-01T00:29:49Z</time>
      </trkpt>
      <trkpt lat="63.64845530" lon="-19.4318417">
        <ele>819.00000</ele>
        <time>2010-01-01T00:29:50Z</time>
      </trkpt>
      <trkpt lat="63.64845300" lon="-19.4318572">
        <ele>819.20001</ele>
        <time>2010-01-01T00:29:50Z</time>
      </trkpt>
      <trkpt lat="63.64843980" lon="-19.4318876">
        <ele>819.40002</ele>
        <time>2010-01-01T00:29:51Z</time>
      </trkpt>
      <trkpt lat="63.64843340" lon="-19.4318930">
        <ele>819.79998</ele>
        <time>2010-01-01T00:29:51Z</time>
      </trkpt>
      <trkpt lat="63.64842840" lon="-19.4318971">
        <ele>820.00000</ele>
        <time>2010-01-01T00:29:51Z</time>
      </trkpt>
      <trkpt lat="63.64842530" lon="-19.4319040">
        <ele>820.59997</ele>
        <time>2010-01-01T00:29:51Z</time>
      </trkpt>
      <trkpt lat="63.64841860" lon="-19.4319064">
        <ele>821.00000</ele>
        <time>2010-01-01T00:29:52Z</time>
      </trkpt>
      <trkpt lat="63.64841210" lon="-19.4319149">
        <ele>821.40002</ele>
        <time>2010-01-01T00:29:52Z</time>
      </trkpt>
      <trkpt lat="63.64840820" lon="-19.4319293">
        <ele>821.59997</ele>
        <time>2010-01-01T00:29:52Z</time>
      </trkpt>
      <trkpt lat="63.64840040" lon="-19.4319335">
        <ele>822.20001</ele>
        <time>2010-01-01T00:29:52Z</time>
      </trkpt>
      <trkpt lat="63.64838950" lon="-19.4319297">
        <ele>822.40002</ele>
        <time>2010-01-01T00:29:53Z</time>
      </trkpt>
      <trkpt lat="63.64838240" lon="-19.4319296">
        <ele>823.00000</ele>
        <time>2010-01-01T00:29:53Z</time>
      </trkpt>
      <trkpt lat="63.64837540" lon="-19.4319287">
        <ele>823.40002</ele>
        <time>2010-01-01T00:29:53Z</time>
      </trkpt>
      <trkpt lat="63.64837610" lon="-19.4319373">
        <ele>823.40002</ele>
        <time>2010-01-01T00:29:54Z</time>
      </trkpt>
      <trkpt lat="63.64837490" lon="-19.4319657">
        <ele>823.79998</ele>
        <time>2010-01-01T00:29:54Z</time>
      </trkpt>
      <trkpt lat="63.64837720" lon="-19.4319792">
        <ele>824.20001</ele>
        <time>2010-01-01T00:29:54Z</time>
      </trkpt>
      <trkpt lat="63.64837530" lon="-19.4319901">
        <ele>824.59997</ele>
        <time>2010-01-01T00:29:55Z</time>
      </trkpt>
      <trkpt lat="63.64837000" lon="-19.4320102">
        <ele>825.00000</ele>
        <time>2010-01-01T00:29:55Z</time>
      </trkpt>
      <trkpt lat="63.64835960" lon="-19.4320189">
        <ele>825.40002</ele>
        <time>2010-01-01T00:29:55Z</time>
      </trkpt>
      <trkpt lat="63.64834840" lon="-19.4320169">
        <ele>825.59997</ele>
        <time>2010-01-01T00:29:56Z</time>
      </trkpt>
      <trkpt lat="63.64834420" lon="-19.4320189">
        <ele>825.59997</ele>
        <time>2010-01-01T00:29:56Z</time>
      </trkpt>
      <trkpt lat="63.64833720" lon="-19.4320296">
        <ele>826.00000</ele>
        <time>2010-01-01T00:29:56Z</time>
      </trkpt>
      <trkpt lat="63.64833240" lon="-19.4320449">
        <ele>826.40002</ele>
        <time>2010-01-01T00:29:57Z</time>
      </trkpt>
      <trkpt lat="63.64832720" lon="-19.4320628">
        <ele>826.79998</ele>
        <time>2010-01-01T00:29:57Z</time>
      </trkpt>
      <trkpt lat="63.64832470" lon="-19.4320600">
        <ele>827.20001</ele>
        <time>2010-01-01T00:29:57Z</time>
      </trkpt>
      <trkpt lat="63.64831820" lon="-19.4320875">
        <ele>827.59997</ele>
        <time>2010-01-01T00:29:58Z</time>
      </trkpt>
      <trkpt lat="63.64829240" lon="-19.4321336">
        <ele>827.79998</ele>
        <time>2010-01-01T00:29:59Z</time>
      </trkpt>
      <trkpt lat="63.64828640" lon="-19.4321503">
        <ele>828.20001</ele>
        <time>2010-01-01T00:30:00Z</time>
      </trkpt>
      <trkpt lat="63.64827990" lon="-19.4321729">
        <ele>828.59997</ele>
        <time>2010-01-01T00:30:00Z</time>
      </trkpt>
      <trkpt lat="63.64827270" lon="-19.4321868">
        <ele>829.00000</ele>
        <time>2010-01-01T00:30:00Z</time>
      </trkpt>
      <trkpt lat="63.64826520" lon="-19.4321925">
        <ele>829.40002</ele>
        <time>2010-01-01T00:30:01Z</time>
      </trkpt>
      <trkpt lat="63.64825770" lon="-19.4321974">
        <ele>829.59997</ele>
        <time>2010-01-01T00:30:01Z</time>
      </trkpt>
      <trkpt lat="63.64824700" lon="-19.4322003">
        <ele>829.59997</ele>
        <time>2010-01-01T00:30:01Z</time>
      </trkpt>
      <trkpt lat="63.64823780" lon="-19.4322029">
        <ele>830.20001</ele>
        <time>2010-01-01T00:30:02Z</time>
      </trkpt>
      <trkpt lat="63.64823310" lon="-19.4322071">
        <ele>830.59997</ele>
        <time>2010-01-01T00:30:02Z</time>
      </trkpt>
      <trkpt lat="63.64822230" lon="-19.4322105">
        <ele>831.00000</ele>
        <time>2010-01-01T00:30:02Z</time>
      </trkpt>
      <trkpt lat="63.64821390" lon="-19.4322159">
        <ele>831.40002</ele>
        <time>2010-01-01T00:30:03Z</time>
      </trkpt>
      <trkpt lat="63.64820700" lon="-19.4322279">
        <ele>831.59997</ele>
        <time>2010-01-01T00:30:03Z</time>
      </trkpt>
      <trkpt lat="63.64819050" lon="-19.4322680">
        <ele>831.79998</ele>
        <time>2010-01-01T00:30:04Z</time>
      </trkpt>
      <trkpt lat="63.64818480" lon="-19.4322904">
        <ele>832.20001</ele>
        <time>2010-01-01T00:30:05Z</time>
      </trkpt>
      <trkpt lat="63.64818170" lon="-19.4323153">
        <ele>832.59997</ele>
        <time>2010-01-01T00:30:05Z</time>
      </trkpt>
      <trkpt lat="63.64817620" lon="-19.4323296">
        <ele>833.00000</ele>
        <time>2010-01-01T00:30:05Z</time>
      </trkpt>
      <trkpt lat="63.64816900" lon="-19.4323398">
        <ele>833.40002</ele>
        <time>2010-01-01T00:30:06Z</time>
      </trkpt>
      <trkpt lat="63.64816210" lon="-19.4323523">
        <ele>833.59997</ele>
        <time>2010-01-01T00:30:06Z</time>
      </trkpt>
      <trkpt lat="63.64815940" lon="-19.4323635">
        <ele>833.59997</ele>
        <time>2010-01-01T00:30:06Z</time>
      </trkpt>
      <trkpt lat="63.64815250" lon="-19.4323764">
        <ele>833.59997</ele>
        <time>2010-01-01T00:30:07Z</time>
      </trkpt>
      <trkpt lat="63.64814910" lon="-19.4323875">
        <ele>833.59997</ele>
        <time>2010-01-01T00:30:07Z</time>
      </trkpt>
      <trkpt lat="63.64814070" lon="-19.4323969">
        <ele>833.59997</ele>
        <time>2010-01-01T00:30:07Z</time>
      </trkpt>
      <trkpt lat="63.64811380" lon="-19.4324560">
        <ele>834.00000</ele>
        <time>2010-01-01T00:30:09Z</time>
      </trkpt>
      <trkpt lat="63.64810730" lon="-19.4324719">
        <ele>834.59997</ele>
        <time>2010-01-01T00:30:09Z</time>
      </trkpt>
      <trkpt lat="63.64810100" lon="-19.4324859">
        <ele>834.79998</ele>
        <time>2010-01-01T00:30:10Z</time>
      </trkpt>
      <trkpt lat="63.64809520" lon="-19.4325007">
        <ele>835.40002</ele>
        <time>2010-01-01T00:30:10Z</time>
      </trkpt>
      <trkpt lat="63.64809200" lon="-19.4325119">
        <ele>835.59997</ele>
        <time>2010-01-01T00:30:10Z</time>
      </trkpt>
      <trkpt lat="63.64809030" lon="-19.4325396">
        <ele>835.59997</ele>
        <time>2010-01-01T00:30:11Z</time>
      </trkpt>
      <trkpt lat="63.64808130" lon="-19.4325722">
        <ele>835.59997</ele>
        <time>2010-01-01T00:30:11Z</time>
      </trkpt>
      <trkpt lat="63.64805970" lon="-19.4326258">
        <ele>835.59997</ele>
        <time>2010-01-01T00:30:13Z</time>
      </trkpt>
      <trkpt lat="63.64803930" lon="-19.4326721">
        <ele>835.59997</ele>
        <time>2010-01-01T00:30:14Z</time>
      </trkpt>
      <trkpt lat="63.64803580" lon="-19.4326656">
        <ele>835.59997</ele>
        <time>2010-01-01T00:30:14Z</time>
      </trkpt>
      <trkpt lat="63.64802990" lon="-19.4326668">
        <ele>835.59997</ele>
        <time>2010-01-01T00:30:14Z</time>
      </trkpt>
      <trkpt lat="63.64799790" lon="-19.4326670">
        <ele>835.59997</ele>
        <time>2010-01-01T00:30:15Z</time>
      </trkpt>
      <trkpt lat="63.64799170" lon="-19.4326605">
        <ele>835.59997</ele>
        <time>2010-01-01T00:30:16Z</time>
      </trkpt>
      <trkpt lat="63.64798610" lon="-19.4326549">
        <ele>835.59997</ele>
        <time>2010-01-01T00:30:16Z</time>
      </trkpt>
      <trkpt lat="63.64797980" lon="-19.4326472">
        <ele>836.00000</ele>
        <time>2010-01-01T00:30:16Z</time>
      </trkpt>
      <trkpt lat="63.64797200" lon="-19.4326306">
        <ele>836.40002</ele>
        <time>2010-01-01T00:30:17Z</time>
      </trkpt>
      <trkpt lat="63.64797560" lon="-19.4326362">
        <ele>836.79998</ele>
        <time>2010-01-01T00:30:17Z</time>
      </trkpt>
      <trkpt lat="63.64796400" lon="-19.4326244">
        <ele>837.40002</ele>
        <time>2010-01-01T00:30:17Z</time>
      </trkpt>
      <trkpt lat="63.64796730" lon="-19.4326253">
        <ele>837.79998</ele>
        <time>2010-01-01T00:30:17Z</time>
      </trkpt>
      <trkpt lat="63.64796190" lon="-19.4326230">
        <ele>838.20001</ele>
        <time>2010-01-01T00:30:18Z</time>
      </trkpt>
      <trkpt lat="63.64795580" lon="-19.4326202">
        <ele>838.59997</ele>
        <time>2010-01-01T00:30:18Z</time>
      </trkpt>
      <trkpt lat="63.64794810" lon="-19.4326232">
        <ele>839.00000</ele>
        <time>2010-01-01T00:30:18Z</time>
      </trkpt>
      <trkpt lat="63.64794430" lon="-19.4326256">
        <ele>839.40002</ele>
        <time>2010-01-01T00:30:18Z</time>
      </trkpt>
      <trkpt lat="63.64793980" lon="-19.4326263">
        <ele>839.79998</ele>
        <time>2010-01-01T00:30:19Z</time>
      </trkpt>
      <trkpt lat="63.64793650" lon="-19.4326406">
        <ele>840.00000</ele>
        <time>2010-01-01T00:30:19Z</time>
      </trkpt>
      <trkpt lat="63.64792750" lon="-19.4326502">
        <ele>840.00000</ele>
        <time>2010-01-01T00:30:19Z</time>
      </trkpt>
      <trkpt lat="63.64791610" lon="-19.4326530">
        <ele>840.40002</ele>
        <time>2010-01-01T00:30:20Z</time>
      </trkpt>
      <trkpt lat="63.64790990" lon="-19.4326542">
        <ele>840.79998</ele>
        <time>2010-01-01T00:30:20Z</time>
      </trkpt>
      <trkpt lat="63.64790400" lon="-19.4326631">
        <ele>841.40002</ele>
        <time>2010-01-01T00:30:20Z</time>
      </trkpt>
      <trkpt lat="63.64789530" lon="-19.4326803">
        <ele>841.79998</ele>
        <time>2010-01-01T00:30:21Z</time>
      </trkpt>
      <trkpt lat="63.64788800" lon="-19.4326914">
        <ele>842.20001</ele>
        <time>2010-01-01T00:30:21Z</time>
      </trkpt>
      <trkpt lat="63.64787980" lon="-19.4327164">
        <ele>842.40002</ele>
        <time>2010-01-01T00:30:22Z</time>
      </trkpt>
      <trkpt lat="63.64786980" lon="-19.4327654">
        <ele>842.79998</ele>
        <time>2010-01-01T00:30:23Z</time>
      </trkpt>
      <trkpt lat="63.64785500" lon="-19.4328119">
        <ele>843.20001</ele>
        <time>2010-01-01T00:30:24Z</time>
      </trkpt>
      <trkpt lat="63.64783390" lon="-19.4328561">
        <ele>843.59997</ele>
        <time>2010-01-01T00:30:25Z</time>
      </trkpt>
      <trkpt lat="63.64781660" lon="-19.4328976">
        <ele>844.00000</ele>
        <time>2010-01-01T00:30:26Z</time>
      </trkpt>
      <trkpt lat="63.64779610" lon="-19.4329406">
        <ele>844.20001</ele>
        <time>2010-01-01T00:30:27Z</time>
      </trkpt>
      <trkpt lat="63.64778140" lon="-19.4329823">
        <ele>844.20001</ele>
        <time>2010-01-01T00:30:28Z</time>
      </trkpt>
      <trkpt lat="63.64768500" lon="-19.4332820">
        <ele>844.20001</ele>
        <time>2010-01-01T00:30:34Z</time>
      </trkpt>
      <trkpt lat="63.64765710" lon="-19.4333217">
        <ele>844.20001</ele>
        <time>2010-01-01T00:30:36Z</time>
      </trkpt>
      <trkpt lat="63.64762810" lon="-19.4333510">
        <ele>844.20001</ele>
        <time>2010-01-01T00:30:37Z</time>
      </trkpt>
      <trkpt lat="63.64760220" lon="-19.4333885">
        <ele>844.20001</ele>
        <time>2010-01-01T00:30:38Z</time>
      </trkpt>
      <trkpt lat="63.64757490" lon="-19.4334315">
        <ele>844.40002</ele>
        <time>2010-01-01T00:30:40Z</time>
      </trkpt>
      <trkpt lat="63.64754420" lon="-19.4334782">
        <ele>844.79998</ele>
        <time>2010-01-01T00:30:41Z</time>
      </trkpt>
      <trkpt lat="63.64752090" lon="-19.4335147">
        <ele>845.20001</ele>
        <time>2010-01-01T00:30:42Z</time>
      </trkpt>
      <trkpt lat="63.64750100" lon="-19.4335581">
        <ele>845.59997</ele>
        <time>2010-01-01T00:30:43Z</time>
      </trkpt>
      <trkpt lat="63.64748610" lon="-19.4336060">
        <ele>846.00000</ele>
        <time>2010-01-01T00:30:44Z</time>
      </trkpt>
      <trkpt lat="63.64747520" lon="-19.4336512">
        <ele>846.20001</ele>
        <time>2010-01-01T00:30:45Z</time>
      </trkpt>
      <trkpt lat="63.64746450" lon="-19.4336956">
        <ele>846.20001</ele>
        <time>2010-01-01T00:30:46Z</time>
      </trkpt>
      <trkpt lat="63.64745510" lon="-19.4337371">
        <ele>846.20001</ele>
        <time>2010-01-01T00:30:47Z</time>
      </trkpt>
      <trkpt lat="63.64744680" lon="-19.4337827">
        <ele>846.20001</ele>
        <time>2010-01-01T00:30:48Z</time>
      </trkpt>
      <trkpt lat="63.64744520" lon="-19.4338279">
        <ele>846.20001</ele>
        <time>2010-01-01T00:30:49Z</time>
      </trkpt>
      <trkpt lat="63.64744880" lon="-19.4338715">
        <ele>846.20001</ele>
        <time>2010-01-01T00:30:49Z</time>
      </trkpt>
      <trkpt lat="63.64745830" lon="-19.4339249">
        <ele>846.20001</ele>
        <time>2010-01-01T00:30:50Z</time>
      </trkpt>
      <trkpt lat="63.64746470" lon="-19.4339652">
        <ele>846.20001</ele>
        <time>2010-01-01T00:30:51Z</time>
      </trkpt>
      <trkpt lat="63.64746050" lon="-19.4340009">
        <ele>846.20001</ele>
        <time>2010-01-01T00:30:52Z</time>
      </trkpt>
      <trkpt lat="63.64744970" lon="-19.4340389">
        <ele>846.20001</ele>
        <time>2010-01-01T00:30:53Z</time>
      </trkpt>
      <trkpt lat="63.64744210" lon="-19.4340733">
        <ele>846.20001</ele>
        <time>2010-01-01T00:30:53Z</time>
      </trkpt>
      <trkpt lat="63.64744050" lon="-19.4341142">
        <ele>846.59997</ele>
        <time>2010-01-01T00:30:54Z</time>
      </trkpt>
      <trkpt lat="63.64743460" lon="-19.4341561">
        <ele>847.20001</ele>
        <time>2010-01-01T00:30:55Z</time>
      </trkpt>
      <trkpt lat="63.64741690" lon="-19.4341941">
        <ele>847.59997</ele>
        <time>2010-01-01T00:30:56Z</time>
      </trkpt>
      <trkpt lat="63.64739890" lon="-19.4342166">
        <ele>848.00000</ele>
        <time>2010-01-01T00:30:57Z</time>
      </trkpt>
      <trkpt lat="63.64738130" lon="-19.4342337">
        <ele>848.40002</ele>
        <time>2010-01-01T00:30:57Z</time>
      </trkpt>
      <trkpt lat="63.64733700" lon="-19.4343216">
        <ele>848.40002</ele>
        <time>2010-01-01T00:31:00Z</time>
      </trkpt>
      <trkpt lat="63.64727310" lon="-19.4344768">
        <ele>848.59997</ele>
        <time>2010-01-01T00:31:04Z</time>
      </trkpt>
      <trkpt lat="63.64725310" lon="-19.4345033">
        <ele>848.79998</ele>
        <time>2010-01-01T00:31:05Z</time>
      </trkpt>
      <trkpt lat="63.64723010" lon="-19.4345284">
        <ele>849.20001</ele>
        <time>2010-01-01T00:31:06Z</time>
      </trkpt>
      <trkpt lat="63.64721740" lon="-19.4345702">
        <ele>849.40002</ele>
        <time>2010-01-01T00:31:06Z</time>
      </trkpt>
      <trkpt lat="63.64721120" lon="-19.4346246">
        <ele>849.79998</ele>
        <time>2010-01-01T00:31:07Z</time>
      </trkpt>
      <trkpt lat="63.64720730" lon="-19.4346780">
        <ele>850.20001</ele>
        <time>2010-01-01T00:31:08Z</time>
      </trkpt>
      <trkpt lat="63.64719620" lon="-19.4347245">
        <ele>850.40002</ele>
        <time>2010-01-01T00:31:09Z</time>
      </trkpt>
      <trkpt lat="63.64718700" lon="-19.4347620">
        <ele>850.40002</ele>
        <time>2010-01-01T00:31:10Z</time>
      </trkpt>
      <trkpt lat="63.64717660" lon="-19.4347997">
        <ele>850.40002</ele>
        <time>2010-01-01T00:31:11Z</time>
      </trkpt>
      <trkpt lat="63.64716190" lon="-19.4348337">
        <ele>850.40002</ele>
        <time>2010-01-01T00:31:12Z</time>
      </trkpt>
      <trkpt lat="63.64714840" lon="-19.4348505">
        <ele>850.40002</ele>
        <time>2010-01-01T00:31:12Z</time>
      </trkpt>
      <trkpt lat="63.64713360" lon="-19.4348679">
        <ele>850.40002</ele>
        <time>2010-01-01T00:31:13Z</time>
      </trkpt>
      <trkpt lat="63.64711730" lon="-19.4348873">
        <ele>850.40002</ele>
        <time>2010-01-01T00:31:14Z</time>
      </trkpt>
      <trkpt lat="63.64710380" lon="-19.4349023">
        <ele>850.79998</ele>
        <time>2010-01-01T00:31:14Z</time>
      </trkpt>
      <trkpt lat="63.64708760" lon="-19.4349235">
        <ele>851.40002</ele>
        <time>2010-01-01T00:31:15Z</time>
      </trkpt>
      <trkpt lat="63.64706770" lon="-19.4349427">
        <ele>851.79998</ele>
        <time>2010-01-01T00:31:16Z</time>
      </trkpt>
      <trkpt lat="63.64705060" lon="-19.4349636">
        <ele>852.20001</ele>
        <time>2010-01-01T00:31:17Z</time>
      </trkpt>
      <trkpt lat="63.64703490" lon="-19.4349856">
        <ele>852.20001</ele>
        <time>2010-01-01T00:31:17Z</time>
      </trkpt>
      <trkpt lat="63.64702210" lon="-19.4350105">
        <ele>852.59997</ele>
        <time>2010-01-01T00:31:18Z</time>
      </trkpt>
      <trkpt lat="63.64700780" lon="-19.4350412">
        <ele>852.59997</ele>
        <time>2010-01-01T00:31:19Z</time>
      </trkpt>
      <trkpt lat="63.64700120" lon="-19.4350709">
        <ele>852.59997</ele>
        <time>2010-01-01T00:31:20Z</time>
      </trkpt>
      <trkpt lat="63.64698940" lon="-19.4350968">
        <ele>852.79998</ele>
        <time>2010-01-01T00:31:20Z</time>
      </trkpt>
      <trkpt lat="63.64697930" lon="-19.4351087">
        <ele>853.20001</ele>
        <time>2010-01-01T00:31:21Z</time>
      </trkpt>
      <trkpt lat="63.64697170" lon="-19.4351203">
        <ele>853.59997</ele>
        <time>2010-01-01T00:31:21Z</time>
      </trkpt>
      <trkpt lat="63.64696140" lon="-19.4351364">
        <ele>854.00000</ele>
        <time>2010-01-01T00:31:22Z</time>
      </trkpt>
      <trkpt lat="63.64695060" lon="-19.4351476">
        <ele>854.40002</ele>
        <time>2010-01-01T00:31:22Z</time>
      </trkpt>
      <trkpt lat="63.64693910" lon="-19.4351586">
        <ele>854.59997</ele>
        <time>2010-01-01T00:31:23Z</time>
      </trkpt>
      <trkpt lat="63.64690540" lon="-19.4351978">
        <ele>854.79998</ele>
        <time>2010-01-01T00:31:24Z</time>
      </trkpt>
      <trkpt lat="63.64689250" lon="-19.4352028">
        <ele>855.20001</ele>
        <time>2010-01-01T00:31:25Z</time>
      </trkpt>
      <trkpt lat="63.64688390" lon="-19.4352093">
        <ele>855.59997</ele>
        <time>2010-01-01T00:31:25Z</time>
      </trkpt>
      <trkpt lat="63.64687320" lon="-19.4352175">
        <ele>856.00000</ele>
        <time>2010-01-01T00:31:25Z</time>
      </trkpt>
      <trkpt lat="63.64686370" lon="-19.4352281">
        <ele>856.59997</ele>
        <time>2010-01-01T00:31:26Z</time>
      </trkpt>
      <trkpt lat="63.64685520" lon="-19.4352337">
        <ele>856.59997</ele>
        <time>2010-01-01T00:31:26Z</time>
      </trkpt>
      <trkpt lat="63.64684590" lon="-19.4352489">
        <ele>856.59997</ele>
        <time>2010-01-01T00:31:27Z</time>
      </trkpt>
      <trkpt lat="63.64683680" lon="-19.4352635">
        <ele>856.59997</ele>
        <time>2010-01-01T00:31:27Z</time>
      </trkpt>
      <trkpt lat="63.64682660" lon="-19.4352783">
        <ele>856.59997</ele>
        <time>2010-01-01T00:31:28Z</time>
      </trkpt>
      <trkpt lat="63.64681790" lon="-19.4352910">
        <ele>856.59997</ele>
        <time>2010-01-01T00:31:28Z</time>
      </trkpt>
      <trkpt lat="63.64680970" lon="-19.4353039">
        <ele>856.79998</ele>
        <time>2010-01-01T00:31:28Z</time>
      </trkpt>
      <trkpt lat="63.64678990" lon="-19.4353378">
        <ele>857.20001</ele>
        <time>2010-01-01T00:31:29Z</time>
      </trkpt>
      <trkpt lat="63.64677750" lon="-19.4353563">
        <ele>857.59997</ele>
        <time>2010-01-01T00:31:30Z</time>
      </trkpt>
      <trkpt lat="63.64676920" lon="-19.4353733">
        <ele>858.00000</ele>
        <time>2010-01-01T00:31:30Z</time>
      </trkpt>
      <trkpt lat="63.64676240" lon="-19.4353936">
        <ele>858.40002</ele>
        <time>2010-01-01T00:31:31Z</time>
      </trkpt>
      <trkpt lat="63.64675630" lon="-19.4354134">
        <ele>858.59997</ele>
        <time>2010-01-01T00:31:31Z</time>
      </trkpt>
      <trkpt lat="63.64673240" lon="-19.4354572">
        <ele>858.59997</ele>
        <time>2010-01-01T00:31:33Z</time>
      </trkpt>
      <trkpt lat="63.64672520" lon="-19.4354782">
        <ele>859.00000</ele>
        <time>2010-01-01T00:31:33Z</time>
      </trkpt>
      <trkpt lat="63.64671730" lon="-19.4354967">
        <ele>859.40002</ele>
        <time>2010-01-01T00:31:33Z</time>
      </trkpt>
      <trkpt lat="63.64671240" lon="-19.4355206">
        <ele>859.79998</ele>
        <time>2010-01-01T00:31:34Z</time>
      </trkpt>
      <trkpt lat="63.64670930" lon="-19.4355451">
        <ele>860.20001</ele>
        <time>2010-01-01T00:31:34Z</time>
      </trkpt>
      <trkpt lat="63.64670710" lon="-19.4355649">
        <ele>860.59997</ele>
        <time>2010-01-01T00:31:35Z</time>
      </trkpt>
      <trkpt lat="63.64670160" lon="-19.4355932">
        <ele>860.59997</ele>
        <time>2010-01-01T00:31:35Z</time>
      </trkpt>
      <trkpt lat="63.64669250" lon="-19.4356162">
        <ele>860.59997</ele>
        <time>2010-01-01T00:31:36Z</time>
      </trkpt>
      <trkpt lat="63.64667440" lon="-19.4357048">
        <ele>860.79998</ele>
        <time>2010-01-01T00:31:38Z</time>
      </trkpt>
      <trkpt lat="63.64666650" lon="-19.4357279">
        <ele>860.79998</ele>
        <time>2010-01-01T00:31:38Z</time>
      </trkpt>
      <trkpt lat="63.64665870" lon="-19.4357420">
        <ele>861.00000</ele>
        <time>2010-01-01T00:31:38Z</time>
      </trkpt>
      <trkpt lat="63.64664990" lon="-19.4357530">
        <ele>861.20001</ele>
        <time>2010-01-01T00:31:39Z</time>
      </trkpt>
      <trkpt lat="63.64663970" lon="-19.4357621">
        <ele>861.59997</ele>
        <time>2010-01-01T00:31:39Z</time>
      </trkpt>
      <trkpt lat="63.64663040" lon="-19.4357767">
        <ele>861.79998</ele>
        <time>2010-01-01T00:31:40Z</time>
      </trkpt>
      <trkpt lat="63.64662460" lon="-19.4357902">
        <ele>862.00000</ele>
        <time>2010-01-01T00:31:40Z</time>
      </trkpt>
      <trkpt lat="63.64661600" lon="-19.4358043">
        <ele>862.40002</ele>
        <time>2010-01-01T00:31:41Z</time>
      </trkpt>
      <trkpt lat="63.64660750" lon="-19.4358174">
        <ele>862.59997</ele>
        <time>2010-01-01T00:31:41Z</time>
      </trkpt>
      <trkpt lat="63.64659880" lon="-19.4358295">
        <ele>862.79998</ele>
        <time>2010-01-01T00:31:41Z</time>
      </trkpt>
      <trkpt lat="63.64658270" lon="-19.4358446">
        <ele>862.79998</ele>
        <time>2010-01-01T00:31:42Z</time>
      </trkpt>
      <trkpt lat="63.64657440" lon="-19.4358546">
        <ele>863.20001</ele>
        <time>2010-01-01T00:31:42Z</time>
      </trkpt>
      <trkpt lat="63.64656480" lon="-19.4358676">
        <ele>863.40002</ele>
        <time>2010-01-01T00:31:43Z</time>
      </trkpt>
      <trkpt lat="63.64655930" lon="-19.4358769">
        <ele>863.79998</ele>
        <time>2010-01-01T00:31:43Z</time>
      </trkpt>
      <trkpt lat="63.64655110" lon="-19.4358905">
        <ele>864.20001</ele>
        <time>2010-01-01T00:31:44Z</time>
      </trkpt>
      <trkpt lat="63.64654380" lon="-19.4359035">
        <ele>864.59997</ele>
        <time>2010-01-01T00:31:44Z</time>
      </trkpt>
      <trkpt lat="63.64653700" lon="-19.4359152">
        <ele>864.79998</ele>
        <time>2010-01-01T00:31:44Z</time>
      </trkpt>
      <trkpt lat="63.64652890" lon="-19.4359250">
        <ele>865.20001</ele>
        <time>2010-01-01T00:31:45Z</time>
      </trkpt>
      <trkpt lat="63.64652060" lon="-19.4359357">
        <ele>865.59997</ele>
        <time>2010-01-01T00:31:45Z</time>
      </trkpt>
      <trkpt lat="63.64651170" lon="-19.4359492">
        <ele>866.00000</ele>
        <time>2010-01-01T00:31:45Z</time>
      </trkpt>
      <trkpt lat="63.64650450" lon="-19.4359624">
        <ele>866.40002</ele>
        <time>2010-01-01T00:31:46Z</time>
      </trkpt>
      <trkpt lat="63.64649840" lon="-19.4359694">
        <ele>866.79998</ele>
        <time>2010-01-01T00:31:46Z</time>
      </trkpt>
      <trkpt lat="63.64649210" lon="-19.4359789">
        <ele>866.79998</ele>
        <time>2010-01-01T00:31:46Z</time>
      </trkpt>
      <trkpt lat="63.64647430" lon="-19.4360102">
        <ele>867.20001</ele>
        <time>2010-01-01T00:31:47Z</time>
      </trkpt>
      <trkpt lat="63.64646770" lon="-19.4360227">
        <ele>867.59997</ele>
        <time>2010-01-01T00:31:48Z</time>
      </trkpt>
      <trkpt lat="63.64645790" lon="-19.4360382">
        <ele>868.00000</ele>
        <time>2010-01-01T00:31:48Z</time>
      </trkpt>
      <trkpt lat="63.64645220" lon="-19.4360416">
        <ele>868.40002</ele>
        <time>2010-01-01T00:31:48Z</time>
      </trkpt>
      <trkpt lat="63.64644560" lon="-19.4360373">
        <ele>868.79998</ele>
        <time>2010-01-01T00:31:49Z</time>
      </trkpt>
      <trkpt lat="63.64643630" lon="-19.4360398">
        <ele>869.00000</ele>
        <time>2010-01-01T00:31:49Z</time>
      </trkpt>
      <trkpt lat="63.64642830" lon="-19.4360496">
        <ele>869.00000</ele>
        <time>2010-01-01T00:31:49Z</time>
      </trkpt>
      <trkpt lat="63.64642420" lon="-19.4360647">
        <ele>869.20001</ele>
        <time>2010-01-01T00:31:50Z</time>
      </trkpt>
      <trkpt lat="63.64641790" lon="-19.4360859">
        <ele>869.59997</ele>
        <time>2010-01-01T00:31:50Z</time>
      </trkpt>
      <trkpt lat="63.64641100" lon="-19.4361077">
        <ele>870.20001</ele>
        <time>2010-01-01T00:31:51Z</time>
      </trkpt>
      <trkpt lat="63.64640660" lon="-19.4361272">
        <ele>870.40002</ele>
        <time>2010-01-01T00:31:51Z</time>
      </trkpt>
      <trkpt lat="63.64639810" lon="-19.4361434">
        <ele>870.79998</ele>
        <time>2010-01-01T00:31:51Z</time>
      </trkpt>
      <trkpt lat="63.64638780" lon="-19.4361517">
        <ele>871.20001</ele>
        <time>2010-01-01T00:31:52Z</time>
      </trkpt>
      <trkpt lat="63.64638210" lon="-19.4361542">
        <ele>871.00000</ele>
        <time>2010-01-01T00:31:52Z</time>
      </trkpt>
      <trkpt lat="63.64637540" lon="-19.4361618">
        <ele>871.00000</ele>
        <time>2010-01-01T00:31:52Z</time>
      </trkpt>
      <trkpt lat="63.64636710" lon="-19.4361757">
        <ele>871.20001</ele>
        <time>2010-01-01T00:31:53Z</time>
      </trkpt>
      <trkpt lat="63.64636000" lon="-19.4361853">
        <ele>871.59997</ele>
        <time>2010-01-01T00:31:53Z</time>
      </trkpt>
      <trkpt lat="63.64634830" lon="-19.4362013">
        <ele>872.00000</ele>
        <time>2010-01-01T00:31:54Z</time>
      </trkpt>
      <trkpt lat="63.64634290" lon="-19.4362119">
        <ele>872.40002</ele>
        <time>2010-01-01T00:31:54Z</time>
      </trkpt>
      <trkpt lat="63.64633640" lon="-19.4362159">
        <ele>872.79998</ele>
        <time>2010-01-01T00:31:54Z</time>
      </trkpt>
      <trkpt lat="63.64633000" lon="-19.4362275">
        <ele>873.00000</ele>
        <time>2010-01-01T00:31:55Z</time>
      </trkpt>
      <trkpt lat="63.64632070" lon="-19.4362426">
        <ele>873.00000</ele>
        <time>2010-01-01T00:31:55Z</time>
      </trkpt>
      <trkpt lat="63.64631340" lon="-19.4362581">
        <ele>873.20001</ele>
        <time>2010-01-01T00:31:55Z</time>
      </trkpt>
      <trkpt lat="63.64630610" lon="-19.4362686">
        <ele>873.40002</ele>
        <time>2010-01-01T00:31:56Z</time>
      </trkpt>
      <trkpt lat="63.64629780" lon="-19.4362739">
        <ele>873.79998</ele>
        <time>2010-01-01T00:31:56Z</time>
      </trkpt>
      <trkpt lat="63.64628920" lon="-19.4362810">
        <ele>874.00000</ele>
        <time>2010-01-01T00:31:57Z</time>
      </trkpt>
      <trkpt lat="63.64627980" lon="-19.4362962">
        <ele>874.59997</ele>
        <time>2010-01-01T00:31:57Z</time>
      </trkpt>
      <trkpt lat="63.64627290" lon="-19.4363138">
        <ele>875.00000</ele>
        <time>2010-01-01T00:31:57Z</time>
      </trkpt>
      <trkpt lat="63.64626720" lon="-19.4363223">
        <ele>875.00000</ele>
        <time>2010-01-01T00:31:58Z</time>
      </trkpt>
      <trkpt lat="63.64624620" lon="-19.4363734">
        <ele>875.40002</ele>
        <time>2010-01-01T00:31:59Z</time>
      </trkpt>
      <trkpt lat="63.64624150" lon="-19.4363878">
        <ele>875.79998</ele>
        <time>2010-01-01T00:31:59Z</time>
      </trkpt>
      <trkpt lat="63.64624180" lon="-19.4363956">
        <ele>876.00000</ele>
        <time>2010-01-01T00:31:59Z</time>
      </trkpt>
      <trkpt lat="63.64623820" lon="-19.4364127">
        <ele>876.40002</ele>
        <time>2010-01-01T00:32:00Z</time>
      </trkpt>
      <trkpt lat="63.64623790" lon="-19.4364226">
        <ele>876.79998</ele>
        <time>2010-01-01T00:32:00Z</time>
      </trkpt>
      <trkpt lat="63.64623000" lon="-19.4364370">
        <ele>877.20001</ele>
        <time>2010-01-01T00:32:00Z</time>
      </trkpt>
      <trkpt lat="63.64622530" lon="-19.4364412">
        <ele>877.59997</ele>
        <time>2010-01-01T00:32:00Z</time>
      </trkpt>
      <trkpt lat="63.64621780" lon="-19.4364494">
        <ele>878.00000</ele>
        <time>2010-01-01T00:32:01Z</time>
      </trkpt>
      <trkpt lat="63.64621020" lon="-19.4364614">
        <ele>878.40002</ele>
        <time>2010-01-01T00:32:01Z</time>
      </trkpt>
      <trkpt lat="63.64620660" lon="-19.4364775">
        <ele>878.79998</ele>
        <time>2010-01-01T00:32:02Z</time>
      </trkpt>
      <trkpt lat="63.64620020" lon="-19.4364936">
        <ele>879.40002</ele>
        <time>2010-01-01T00:32:02Z</time>
      </trkpt>
      <trkpt lat="63.64618570" lon="-19.4365220">
        <ele>879.40002</ele>
        <time>2010-01-01T00:32:03Z</time>
      </trkpt>
      <trkpt lat="63.64618030" lon="-19.4365350">
        <ele>879.79998</ele>
        <time>2010-01-01T00:32:03Z</time>
      </trkpt>
      <trkpt lat="63.64617620" lon="-19.4365500">
        <ele>880.20001</ele>
        <time>2010-01-01T00:32:03Z</time>
      </trkpt>
      <trkpt lat="63.64616910" lon="-19.4365652">
        <ele>880.79998</ele>
        <time>2010-01-01T00:32:04Z</time>
      </trkpt>
      <trkpt lat="63.64616170" lon="-19.4365764">
        <ele>881.20001</ele>
        <time>2010-01-01T00:32:04Z</time>
      </trkpt>
      <trkpt lat="63.64615220" lon="-19.4365880">
        <ele>881.40002</ele>
        <time>2010-01-01T00:32:04Z</time>
      </trkpt>
      <trkpt lat="63.64613620" lon="-19.4366063">
        <ele>881.79998</ele>
        <time>2010-01-01T00:32:05Z</time>
      </trkpt>
      <trkpt lat="63.64612860" lon="-19.4366184">
        <ele>882.20001</ele>
        <time>2010-01-01T00:32:06Z</time>
      </trkpt>
      <trkpt lat="63.64612000" lon="-19.4366301">
        <ele>882.59997</ele>
        <time>2010-01-01T00:32:06Z</time>
      </trkpt>
      <trkpt lat="63.64611730" lon="-19.4366453">
        <ele>883.00000</ele>
        <time>2010-01-01T00:32:06Z</time>
      </trkpt>
      <trkpt lat="63.64611210" lon="-19.4366652">
        <ele>883.40002</ele>
        <time>2010-01-01T00:32:07Z</time>
      </trkpt>
      <trkpt lat="63.64609810" lon="-19.4366915">
        <ele>883.79998</ele>
        <time>2010-01-01T00:32:07Z</time>
      </trkpt>
      <trkpt lat="63.64608950" lon="-19.4366949">
        <ele>884.20001</ele>
        <time>2010-01-01T00:32:08Z</time>
      </trkpt>
      <trkpt lat="63.64608260" lon="-19.4366971">
        <ele>884.59997</ele>
        <time>2010-01-01T00:32:08Z</time>
      </trkpt>
      <trkpt lat="63.64607260" lon="-19.4366991">
        <ele>885.00000</ele>
        <time>2010-01-01T00:32:08Z</time>
      </trkpt>
      <trkpt lat="63.64606670" lon="-19.4367075">
        <ele>885.40002</ele>
        <time>2010-01-01T00:32:09Z</time>
      </trkpt>
      <trkpt lat="63.64605720" lon="-19.4367178">
        <ele>885.40002</ele>
        <time>2010-01-01T00:32:09Z</time>
      </trkpt>
      <trkpt lat="63.64603780" lon="-19.4367224">
        <ele>885.59997</ele>
        <time>2010-01-01T00:32:10Z</time>
      </trkpt>
      <trkpt lat="63.64603160" lon="-19.4367272">
        <ele>886.00000</ele>
        <time>2010-01-01T00:32:10Z</time>
      </trkpt>
      <trkpt lat="63.64602460" lon="-19.4367318">
        <ele>886.40002</ele>
        <time>2010-01-01T00:32:10Z</time>
      </trkpt>
      <trkpt lat="63.64601780" lon="-19.4367406">
        <ele>886.79998</ele>
        <time>2010-01-01T00:32:11Z</time>
      </trkpt>
      <trkpt lat="63.64601490" lon="-19.4367545">
        <ele>887.20001</ele>
        <time>2010-01-01T00:32:11Z</time>
      </trkpt>
      <trkpt lat="63.64601130" lon="-19.4367640">
        <ele>887.59997</ele>
        <time>2010-01-01T00:32:11Z</time>
      </trkpt>
      <trkpt lat="63.64598550" lon="-19.4367893">
        <ele>887.79998</ele>
        <time>2010-01-01T00:32:12Z</time>
      </trkpt>
      <trkpt lat="63.64597960" lon="-19.4367954">
        <ele>888.20001</ele>
        <time>2010-01-01T00:32:13Z</time>
      </trkpt>
      <trkpt lat="63.64597490" lon="-19.4367964">
        <ele>888.40002</ele>
        <time>2010-01-01T00:32:13Z</time>
      </trkpt>
      <trkpt lat="63.64596710" lon="-19.4368023">
        <ele>888.79998</ele>
        <time>2010-01-01T00:32:13Z</time>
      </trkpt>
      <trkpt lat="63.64596300" lon="-19.4368063">
        <ele>889.20001</ele>
        <time>2010-01-01T00:32:13Z</time>
      </trkpt>
      <trkpt lat="63.64596240" lon="-19.4368116">
        <ele>889.40002</ele>
        <time>2010-01-01T00:32:13Z</time>
      </trkpt>
      <trkpt lat="63.64595530" lon="-19.4368145">
        <ele>889.79998</ele>
        <time>2010-01-01T00:32:14Z</time>
      </trkpt>
      <trkpt lat="63.64594810" lon="-19.4368190">
        <ele>889.79998</ele>
        <time>2010-01-01T00:32:14Z</time>
      </trkpt>
      <trkpt lat="63.64594120" lon="-19.4368257">
        <ele>889.79998</ele>
        <time>2010-01-01T00:32:14Z</time>
      </trkpt>
      <trkpt lat="63.64593680" lon="-19.4368319">
        <ele>890.40002</ele>
        <time>2010-01-01T00:32:15Z</time>
      </trkpt>
      <trkpt lat="63.64592930" lon="-19.4368344">
        <ele>890.79998</ele>
        <time>2010-01-01T00:32:15Z</time>
      </trkpt>
      <trkpt lat="63.64592330" lon="-19.4368407">
        <ele>891.20001</ele>
        <time>2010-01-01T00:32:15Z</time>
      </trkpt>
      <trkpt lat="63.64591830" lon="-19.4368461">
        <ele>891.59997</ele>
        <time>2010-01-01T00:32:15Z</time>
      </trkpt>
      <trkpt lat="63.64591450" lon="-19.4368512">
        <ele>891.79998</ele>
        <time>2010-01-01T00:32:16Z</time>
      </trkpt>
      <trkpt lat="63.64590840" lon="-19.4368597">
        <ele>891.79998</ele>
        <time>2010-01-01T00:32:16Z</time>
      </trkpt>
      <trkpt lat="63.64590240" lon="-19.4368682">
        <ele>892.20001</ele>
        <time>2010-01-01T00:32:16Z</time>
      </trkpt>
      <trkpt lat="63.64589520" lon="-19.4368785">
        <ele>892.59997</ele>
        <time>2010-01-01T00:32:16Z</time>
      </trkpt>
      <trkpt lat="63.64588940" lon="-19.4368829">
        <ele>893.00000</ele>
        <time>2010-01-01T00:32:17Z</time>
      </trkpt>
      <trkpt lat="63.64588410" lon="-19.4368865">
        <ele>893.59997</ele>
        <time>2010-01-01T00:32:17Z</time>
      </trkpt>
      <trkpt lat="63.64586820" lon="-19.4368912">
        <ele>893.79998</ele>
        <time>2010-01-01T00:32:18Z</time>
      </trkpt>
      <trkpt lat="63.64587380" lon="-19.4368855">
        <ele>893.79998</ele>
        <time>2010-01-01T00:32:18Z</time>
      </trkpt>
      <trkpt lat="63.64587140" lon="-19.4368836">
        <ele>894.20001</ele>
        <time>2010-01-01T00:32:18Z</time>
      </trkpt>
      <trkpt lat="63.64585910" lon="-19.4368899">
        <ele>894.59997</ele>
        <time>2010-01-01T00:32:18Z</time>
      </trkpt>
      <trkpt lat="63.64586010" lon="-19.4368973">
        <ele>895.00000</ele>
        <time>2010-01-01T00:32:19Z</time>
      </trkpt>
      <trkpt lat="63.64585370" lon="-19.4368997">
        <ele>895.40002</ele>
        <time>2010-01-01T00:32:19Z</time>
      </trkpt>
      <trkpt lat="63.64584650" lon="-19.4369043">
        <ele>895.79998</ele>
        <time>2010-01-01T00:32:19Z</time>
      </trkpt>
      <trkpt lat="63.64583820" lon="-19.4369075">
        <ele>895.79998</ele>
        <time>2010-01-01T00:32:19Z</time>
      </trkpt>
      <trkpt lat="63.64583260" lon="-19.4369087">
        <ele>896.00000</ele>
        <time>2010-01-01T00:32:20Z</time>
      </trkpt>
      <trkpt lat="63.64582640" lon="-19.4369131">
        <ele>896.40002</ele>
        <time>2010-01-01T00:32:20Z</time>
      </trkpt>
      <trkpt lat="63.64582040" lon="-19.4369170">
        <ele>896.79998</ele>
        <time>2010-01-01T00:32:20Z</time>
      </trkpt>
      <trkpt lat="63.64580850" lon="-19.4369266">
        <ele>897.20001</ele>
        <time>2010-01-01T00:32:21Z</time>
      </trkpt>
      <trkpt lat="63.64580620" lon="-19.4369337">
        <ele>897.59997</ele>
        <time>2010-01-01T00:32:21Z</time>
      </trkpt>
      <trkpt lat="63.64580260" lon="-19.4369266">
        <ele>897.79998</ele>
        <time>2010-01-01T00:32:21Z</time>
      </trkpt>
      <trkpt lat="63.64577360" lon="-19.4369580">
        <ele>898.00000</ele>
        <time>2010-01-01T00:32:22Z</time>
      </trkpt>
      <trkpt lat="63.64576510" lon="-19.4369527">
        <ele>898.40002</ele>
        <time>2010-01-01T00:32:23Z</time>
      </trkpt>
      <trkpt lat="63.64576520" lon="-19.4369618">
        <ele>898.59997</ele>
        <time>2010-01-01T00:32:23Z</time>
      </trkpt>
      <trkpt lat="63.64576180" lon="-19.4369580">
        <ele>898.79998</ele>
        <time>2010-01-01T00:32:23Z</time>
      </trkpt>
      <trkpt lat="63.64575300" lon="-19.4369605">
        <ele>899.20001</ele>
        <time>2010-01-01T00:32:23Z</time>
      </trkpt>
      <trkpt lat="63.64574970" lon="-19.4369729">
        <ele>899.59997</ele>
        <time>2010-01-01T00:32:24Z</time>
      </trkpt>
      <trkpt lat="63.64574660" lon="-19.4369735">
        <ele>899.79998</ele>
        <time>2010-01-01T00:32:24Z</time>
      </trkpt>
      <trkpt lat="63.64573580" lon="-19.4369796">
        <ele>900.20001</ele>
        <time>2010-01-01T00:32:24Z</time>
      </trkpt>
      <trkpt lat="63.64573660" lon="-19.4369831">
        <ele>900.59997</ele>
        <time>2010-01-01T00:32:24Z</time>
      </trkpt>
      <trkpt lat="63.64572950" lon="-19.4369839">
        <ele>900.79998</ele>
        <time>2010-01-01T00:32:25Z</time>
      </trkpt>
      <trkpt lat="63.64572250" lon="-19.4369869">
        <ele>901.00000</ele>
        <time>2010-01-01T00:32:25Z</time>
      </trkpt>
      <trkpt lat="63.64571930" lon="-19.4369940">
        <ele>901.40002</ele>
        <time>2010-01-01T00:32:25Z</time>
      </trkpt>
      <trkpt lat="63.64571300" lon="-19.4370069">
        <ele>901.59997</ele>
        <time>2010-01-01T00:32:25Z</time>
      </trkpt>
      <trkpt lat="63.64570450" lon="-19.4370112">
        <ele>901.79998</ele>
        <time>2010-01-01T00:32:26Z</time>
      </trkpt>
      <trkpt lat="63.64569980" lon="-19.4370141">
        <ele>902.00000</ele>
        <time>2010-01-01T00:32:26Z</time>
      </trkpt>
      <trkpt lat="63.64569620" lon="-19.4370116">
        <ele>902.00000</ele>
        <time>2010-01-01T00:32:26Z</time>
      </trkpt>
      <trkpt lat="63.64569280" lon="-19.4370134">
        <ele>902.00000</ele>
        <time>2010-01-01T00:32:26Z</time>
      </trkpt>
      <trkpt lat="63.64568730" lon="-19.4370136">
        <ele>902.20001</ele>
        <time>2010-01-01T00:32:26Z</time>
      </trkpt>
      <trkpt lat="63.64568250" lon="-19.4370151">
        <ele>902.59997</ele>
        <time>2010-01-01T00:32:27Z</time>
      </trkpt>
      <trkpt lat="63.64567980" lon="-19.4370238">
        <ele>903.00000</ele>
        <time>2010-01-01T00:32:27Z</time>
      </trkpt>
      <trkpt lat="63.64567570" lon="-19.4370250">
        <ele>903.40002</ele>
        <time>2010-01-01T00:32:27Z</time>
      </trkpt>
      <trkpt lat="63.64567050" lon="-19.4370346">
        <ele>903.59997</ele>
        <time>2010-01-01T00:32:27Z</time>
      </trkpt>
      <trkpt lat="63.64566990" lon="-19.4370349">
        <ele>903.79998</ele>
        <time>2010-01-01T00:32:27Z</time>
      </trkpt>
      <trkpt lat="63.64565510" lon="-19.4370574">
        <ele>904.20001</ele>
        <time>2010-01-01T00:32:28Z</time>
      </trkpt>
      <trkpt lat="63.64565000" lon="-19.4370566">
        <ele>904.59997</ele>
        <time>2010-01-01T00:32:28Z</time>
      </trkpt>
      <trkpt lat="63.64564350" lon="-19.4370620">
        <ele>905.20001</ele>
        <time>2010-01-01T00:32:28Z</time>
      </trkpt>
      <trkpt lat="63.64563910" lon="-19.4370725">
        <ele>905.59997</ele>
        <time>2010-01-01T00:32:29Z</time>
      </trkpt>
      <trkpt lat="63.64563410" lon="-19.4370742">
        <ele>906.00000</ele>
        <time>2010-01-01T00:32:29Z</time>
      </trkpt>
      <trkpt lat="63.64560750" lon="-19.4370972">
        <ele>906.40002</ele>
        <time>2010-01-01T00:32:30Z</time>
      </trkpt>
      <trkpt lat="63.64560780" lon="-19.4371004">
        <ele>906.79998</ele>
        <time>2010-01-01T00:32:30Z</time>
      </trkpt>
      <trkpt lat="63.64559950" lon="-19.4371037">
        <ele>907.20001</ele>
        <time>2010-01-01T00:32:30Z</time>
      </trkpt>
      <trkpt lat="63.64559470" lon="-19.4371058">
        <ele>907.59997</ele>
        <time>2010-01-01T00:32:31Z</time>
      </trkpt>
      <trkpt lat="63.64559090" lon="-19.4371101">
        <ele>908.00000</ele>
        <time>2010-01-01T00:32:31Z</time>
      </trkpt>
      <trkpt lat="63.64557670" lon="-19.4371271">
        <ele>908.00000</ele>
        <time>2010-01-01T00:32:31Z</time>
      </trkpt>
      <trkpt lat="63.64556860" lon="-19.4371282">
        <ele>908.20001</ele>
        <time>2010-01-01T00:32:32Z</time>
      </trkpt>
      <trkpt lat="63.64556150" lon="-19.4371320">
        <ele>908.59997</ele>
        <time>2010-01-01T00:32:32Z</time>
      </trkpt>
      <trkpt lat="63.64555840" lon="-19.4371258">
        <ele>909.00000</ele>
        <time>2010-01-01T00:32:32Z</time>
      </trkpt>
      <trkpt lat="63.64554540" lon="-19.4371217">
        <ele>909.40002</ele>
        <time>2010-01-01T00:32:33Z</time>
      </trkpt>
      <trkpt lat="63.64553840" lon="-19.4371317">
        <ele>910.00000</ele>
        <time>2010-01-01T00:32:33Z</time>
      </trkpt>
      <trkpt lat="63.64553840" lon="-19.4371343">
        <ele>910.00000</ele>
        <time>2010-01-01T00:32:33Z</time>
      </trkpt>
      <trkpt lat="63.64552140" lon="-19.4371478">
        <ele>910.00000</ele>
        <time>2010-01-01T00:32:34Z</time>
      </trkpt>
      <trkpt lat="63.64550860" lon="-19.4371591">
        <ele>910.40002</ele>
        <time>2010-01-01T00:32:34Z</time>
      </trkpt>
      <trkpt lat="63.64550520" lon="-19.4371683">
        <ele>910.79998</ele>
        <time>2010-01-01T00:32:35Z</time>
      </trkpt>
      <trkpt lat="63.64549870" lon="-19.4371771">
        <ele>911.20001</ele>
        <time>2010-01-01T00:32:35Z</time>
      </trkpt>
      <trkpt lat="63.64549330" lon="-19.4371811">
        <ele>911.59997</ele>
        <time>2010-01-01T00:32:35Z</time>
      </trkpt>
      <trkpt lat="63.64548770" lon="-19.4371825">
        <ele>912.00000</ele>
        <time>2010-01-01T00:32:35Z</time>
      </trkpt>
      <trkpt lat="63.64548220" lon="-19.4371883">
        <ele>912.00000</ele>
        <time>2010-01-01T00:32:36Z</time>
      </trkpt>
      <trkpt lat="63.64546530" lon="-19.4371965">
        <ele>912.00000</ele>
        <time>2010-01-01T00:32:36Z</time>
      </trkpt>
      <trkpt lat="63.64545080" lon="-19.4372131">
        <ele>912.40002</ele>
        <time>2010-01-01T00:32:37Z</time>
      </trkpt>
      <trkpt lat="63.64544510" lon="-19.4372196">
        <ele>912.79998</ele>
        <time>2010-01-01T00:32:37Z</time>
      </trkpt>
      <trkpt lat="63.64543800" lon="-19.4372264">
        <ele>913.20001</ele>
        <time>2010-01-01T00:32:37Z</time>
      </trkpt>
      <trkpt lat="63.64543040" lon="-19.4372400">
        <ele>913.40002</ele>
        <time>2010-01-01T00:32:38Z</time>
      </trkpt>
      <trkpt lat="63.64542530" lon="-19.4372524">
        <ele>913.79998</ele>
        <time>2010-01-01T00:32:38Z</time>
      </trkpt>
      <trkpt lat="63.64542080" lon="-19.4372581">
        <ele>914.20001</ele>
        <time>2010-01-01T00:32:38Z</time>
      </trkpt>
      <trkpt lat="63.64540350" lon="-19.4372710">
        <ele>914.20001</ele>
        <time>2010-01-01T00:32:39Z</time>
      </trkpt>
      <trkpt lat="63.64539900" lon="-19.4372763">
        <ele>914.59997</ele>
        <time>2010-01-01T00:32:39Z</time>
      </trkpt>
      <trkpt lat="63.64539260" lon="-19.4372778">
        <ele>915.20001</ele>
        <time>2010-01-01T00:32:40Z</time>
      </trkpt>
      <trkpt lat="63.64538530" lon="-19.4372690">
        <ele>915.59997</ele>
        <time>2010-01-01T00:32:40Z</time>
      </trkpt>
      <trkpt lat="63.64537820" lon="-19.4372691">
        <ele>916.00000</ele>
        <time>2010-01-01T00:32:40Z</time>
      </trkpt>
      <trkpt lat="63.64537750" lon="-19.4372664">
        <ele>916.00000</ele>
        <time>2010-01-01T00:32:40Z</time>
      </trkpt>
      <trkpt lat="63.64537070" lon="-19.4372597">
        <ele>916.20001</ele>
        <time>2010-01-01T00:32:41Z</time>
      </trkpt>
      <trkpt lat="63.64536540" lon="-19.4372693">
        <ele>916.20001</ele>
        <time>2010-01-01T00:32:41Z</time>
      </trkpt>
      <trkpt lat="63.64536190" lon="-19.4372794">
        <ele>916.40002</ele>
        <time>2010-01-01T00:32:41Z</time>
      </trkpt>
      <trkpt lat="63.64535570" lon="-19.4372856">
        <ele>916.79998</ele>
        <time>2010-01-01T00:32:41Z</time>
      </trkpt>
      <trkpt lat="63.64534660" lon="-19.4372964">
        <ele>917.20001</ele>
        <time>2010-01-01T00:32:42Z</time>
      </trkpt>
      <trkpt lat="63.64533750" lon="-19.4372994">
        <ele>917.59997</ele>
        <time>2010-01-01T00:32:42Z</time>
      </trkpt>
      <trkpt lat="63.64532960" lon="-19.4373079">
        <ele>918.00000</ele>
        <time>2010-01-01T00:32:42Z</time>
      </trkpt>
      <trkpt lat="63.64532430" lon="-19.4373074">
        <ele>918.20001</ele>
        <time>2010-01-01T00:32:43Z</time>
      </trkpt>
      <trkpt lat="63.64531820" lon="-19.4373097">
        <ele>918.20001</ele>
        <time>2010-01-01T00:32:43Z</time>
      </trkpt>
      <trkpt lat="63.64530350" lon="-19.4372431">
        <ele>918.59997</ele>
        <time>2010-01-01T00:32:44Z</time>
      </trkpt>
      <trkpt lat="63.64530130" lon="-19.4372177">
        <ele>919.00000</ele>
        <time>2010-01-01T00:32:45Z</time>
      </trkpt>
      <trkpt lat="63.64530010" lon="-19.4372035">
        <ele>919.40002</ele>
        <time>2010-01-01T00:32:45Z</time>
      </trkpt>
      <trkpt lat="63.64530100" lon="-19.4371799">
        <ele>919.79998</ele>
        <time>2010-01-01T00:32:45Z</time>
      </trkpt>
      <trkpt lat="63.64529870" lon="-19.4371521">
        <ele>920.20001</ele>
        <time>2010-01-01T00:32:46Z</time>
      </trkpt>
      <trkpt lat="63.64529670" lon="-19.4371314">
        <ele>920.40002</ele>
        <time>2010-01-01T00:32:46Z</time>
      </trkpt>
      <trkpt lat="63.64529500" lon="-19.4371072">
        <ele>920.40002</ele>
        <time>2010-01-01T00:32:47Z</time>
      </trkpt>
      <trkpt lat="63.64529180" lon="-19.4370888">
        <ele>920.79998</ele>
        <time>2010-01-01T00:32:47Z</time>
      </trkpt>
      <trkpt lat="63.64528870" lon="-19.4370745">
        <ele>921.20001</ele>
        <time>2010-01-01T00:32:47Z</time>
      </trkpt>
      <trkpt lat="63.64528130" lon="-19.4370727">
        <ele>921.59997</ele>
        <time>2010-01-01T00:32:48Z</time>
      </trkpt>
      <trkpt lat="63.64527970" lon="-19.4370748">
        <ele>922.00000</ele>
        <time>2010-01-01T00:32:48Z</time>
      </trkpt>
      <trkpt lat="63.64527150" lon="-19.4370712">
        <ele>922.20001</ele>
        <time>2010-01-01T00:32:48Z</time>
      </trkpt>
      <trkpt lat="63.64526230" lon="-19.4370733">
        <ele>922.40002</ele>
        <time>2010-01-01T00:32:48Z</time>
      </trkpt>
      <trkpt lat="63.64524780" lon="-19.4370854">
        <ele>922.59997</ele>
        <time>2010-01-01T00:32:49Z</time>
      </trkpt>
      <trkpt lat="63.64524540" lon="-19.4370913">
        <ele>923.00000</ele>
        <time>2010-01-01T00:32:49Z</time>
      </trkpt>
      <trkpt lat="63.64523300" lon="-19.4371048">
        <ele>923.20001</ele>
        <time>2010-01-01T00:32:50Z</time>
      </trkpt>
      <trkpt lat="63.64522250" lon="-19.4371084">
        <ele>923.59997</ele>
        <time>2010-01-01T00:32:50Z</time>
      </trkpt>
      <trkpt lat="63.64521760" lon="-19.4371087">
        <ele>924.00000</ele>
        <time>2010-01-01T00:32:50Z</time>
      </trkpt>
      <trkpt lat="63.64520640" lon="-19.4371112">
        <ele>924.20001</ele>
        <time>2010-01-01T00:32:51Z</time>
      </trkpt>
      <trkpt lat="63.64520180" lon="-19.4371118">
        <ele>924.40002</ele>
        <time>2010-01-01T00:32:51Z</time>
      </trkpt>
      <trkpt lat="63.64519940" lon="-19.4371053">
        <ele>924.59997</ele>
        <time>2010-01-01T00:32:51Z</time>
      </trkpt>
      <trkpt lat="63.64519080" lon="-19.4371095">
        <ele>925.00000</ele>
        <time>2010-01-01T00:32:51Z</time>
      </trkpt>
      <trkpt lat="63.64518600" lon="-19.4371095">
        <ele>925.20001</ele>
        <time>2010-01-01T00:32:52Z</time>
      </trkpt>
      <trkpt lat="63.64518330" lon="-19.4371031">
        <ele>925.59997</ele>
        <time>2010-01-01T00:32:52Z</time>
      </trkpt>
      <trkpt lat="63.64517540" lon="-19.4371017">
        <ele>926.00000</ele>
        <time>2010-01-01T00:32:52Z</time>
      </trkpt>
      <trkpt lat="63.64517050" lon="-19.4371040">
        <ele>926.40002</ele>
        <time>2010-01-01T00:32:52Z</time>
      </trkpt>
      <trkpt lat="63.64516670" lon="-19.4371053">
        <ele>926.59997</ele>
        <time>2010-01-01T00:32:52Z</time>
      </trkpt>
      <trkpt lat="63.64516350" lon="-19.4371084">
        <ele>926.79998</ele>
        <time>2010-01-01T00:32:53Z</time>
      </trkpt>
      <trkpt lat="63.64515940" lon="-19.4371178">
        <ele>927.20001</ele>
        <time>2010-01-01T00:32:53Z</time>
      </trkpt>
      <trkpt lat="63.64515260" lon="-19.4371225">
        <ele>927.59997</ele>
        <time>2010-01-01T00:32:53Z</time>
      </trkpt>
      <trkpt lat="63.64514130" lon="-19.4371266">
        <ele>928.00000</ele>
        <time>2010-01-01T00:32:54Z</time>
      </trkpt>
      <trkpt lat="63.64513280" lon="-19.4371236">
        <ele>928.40002</ele>
        <time>2010-01-01T00:32:54Z</time>
      </trkpt>
      <trkpt lat="63.64512470" lon="-19.4371223">
        <ele>928.59997</ele>
        <time>2010-01-01T00:32:54Z</time>
      </trkpt>
      <trkpt lat="63.64512120" lon="-19.4371267">
        <ele>928.59997</ele>
        <time>2010-01-01T00:32:54Z</time>
      </trkpt>
      <trkpt lat="63.64510380" lon="-19.4371399">
        <ele>929.00000</ele>
        <time>2010-01-01T00:32:55Z</time>
      </trkpt>
      <trkpt lat="63.64509530" lon="-19.4371365">
        <ele>929.40002</ele>
        <time>2010-01-01T00:32:55Z</time>
      </trkpt>
      <trkpt lat="63.64508790" lon="-19.4371314">
        <ele>929.79998</ele>
        <time>2010-01-01T00:32:56Z</time>
      </trkpt>
      <trkpt lat="63.64507970" lon="-19.4371268">
        <ele>930.20001</ele>
        <time>2010-01-01T00:32:56Z</time>
      </trkpt>
      <trkpt lat="63.64507150" lon="-19.4371219">
        <ele>930.59997</ele>
        <time>2010-01-01T00:32:56Z</time>
      </trkpt>
      <trkpt lat="63.64506540" lon="-19.4371126">
        <ele>930.59997</ele>
        <time>2010-01-01T00:32:57Z</time>
      </trkpt>
      <trkpt lat="63.64505790" lon="-19.4371024">
        <ele>931.00000</ele>
        <time>2010-01-01T00:32:57Z</time>
      </trkpt>
      <trkpt lat="63.64504910" lon="-19.4370934">
        <ele>931.40002</ele>
        <time>2010-01-01T00:32:58Z</time>
      </trkpt>
      <trkpt lat="63.64503860" lon="-19.4370825">
        <ele>931.79998</ele>
        <time>2010-01-01T00:32:58Z</time>
      </trkpt>
      <trkpt lat="63.64503020" lon="-19.4370785">
        <ele>932.20001</ele>
        <time>2010-01-01T00:32:58Z</time>
      </trkpt>
      <trkpt lat="63.64503050" lon="-19.4370827">
        <ele>932.59997</ele>
        <time>2010-01-01T00:32:58Z</time>
      </trkpt>
      <trkpt lat="63.64501880" lon="-19.4370797">
        <ele>932.59997</ele>
        <time>2010-01-01T00:32:59Z</time>
      </trkpt>
      <trkpt lat="63.64499920" lon="-19.4370779">
        <ele>933.00000</ele>
        <time>2010-01-01T00:33:00Z</time>
      </trkpt>
      <trkpt lat="63.64499220" lon="-19.4370824">
        <ele>933.40002</ele>
        <time>2010-01-01T00:33:00Z</time>
      </trkpt>
      <trkpt lat="63.64498480" lon="-19.4370836">
        <ele>933.79998</ele>
        <time>2010-01-01T00:33:00Z</time>
      </trkpt>
      <trkpt lat="63.64497580" lon="-19.4370851">
        <ele>934.20001</ele>
        <time>2010-01-01T00:33:01Z</time>
      </trkpt>
      <trkpt lat="63.64496710" lon="-19.4370868">
        <ele>934.59997</ele>
        <time>2010-01-01T00:33:01Z</time>
      </trkpt>
      <trkpt lat="63.64495630" lon="-19.4370857">
        <ele>934.79998</ele>
        <time>2010-01-01T00:33:01Z</time>
      </trkpt>
      <trkpt lat="63.64492340" lon="-19.4371077">
        <ele>934.79998</ele>
        <time>2010-01-01T00:33:03Z</time>
      </trkpt>
      <trkpt lat="63.64491580" lon="-19.4371152">
        <ele>935.20001</ele>
        <time>2010-01-01T00:33:03Z</time>
      </trkpt>
      <trkpt lat="63.64490780" lon="-19.4371303">
        <ele>935.59997</ele>
        <time>2010-01-01T00:33:04Z</time>
      </trkpt>
      <trkpt lat="63.64489910" lon="-19.4371418">
        <ele>936.00000</ele>
        <time>2010-01-01T00:33:04Z</time>
      </trkpt>
      <trkpt lat="63.64489060" lon="-19.4371488">
        <ele>936.20001</ele>
        <time>2010-01-01T00:33:04Z</time>
      </trkpt>
      <trkpt lat="63.64488190" lon="-19.4371464">
        <ele>936.40002</ele>
        <time>2010-01-01T00:33:05Z</time>
      </trkpt>
      <trkpt lat="63.64487510" lon="-19.4371440">
        <ele>936.79998</ele>
        <time>2010-01-01T00:33:05Z</time>
      </trkpt>
      <trkpt lat="63.64484970" lon="-19.4371315">
        <ele>936.79998</ele>
        <time>2010-01-01T00:33:06Z</time>
      </trkpt>
      <trkpt lat="63.64484430" lon="-19.4371332">
        <ele>936.79998</ele>
        <time>2010-01-01T00:33:06Z</time>
      </trkpt>
      <trkpt lat="63.64483600" lon="-19.4371365">
        <ele>937.20001</ele>
        <time>2010-01-01T00:33:06Z</time>
      </trkpt>
      <trkpt lat="63.64483010" lon="-19.4371421">
        <ele>937.79998</ele>
        <time>2010-01-01T00:33:07Z</time>
      </trkpt>
      <trkpt lat="63.64482500" lon="-19.4371566">
        <ele>938.20001</ele>
        <time>2010-01-01T00:33:07Z</time>
      </trkpt>
      <trkpt lat="63.64482040" lon="-19.4371729">
        <ele>938.59997</ele>
        <time>2010-01-01T00:33:07Z</time>
      </trkpt>
      <trkpt lat="63.64481390" lon="-19.4371807">
        <ele>938.79998</ele>
        <time>2010-01-01T00:33:08Z</time>
      </trkpt>
      <trkpt lat="63.64480130" lon="-19.4371931">
        <ele>939.20001</ele>
        <time>2010-01-01T00:33:08Z</time>
      </trkpt>
      <trkpt lat="63.64479450" lon="-19.4371986">
        <ele>939.59997</ele>
        <time>2010-01-01T00:33:09Z</time>
      </trkpt>
      <trkpt lat="63.64479350" lon="-19.4372001">
        <ele>940.00000</ele>
        <time>2010-01-01T00:33:09Z</time>
      </trkpt>
      <trkpt lat="63.64478320" lon="-19.4372062">
        <ele>940.40002</ele>
        <time>2010-01-01T00:33:09Z</time>
      </trkpt>
      <trkpt lat="63.64477800" lon="-19.4372124">
        <ele>940.79998</ele>
        <time>2010-01-01T00:33:09Z</time>
      </trkpt>
      <trkpt lat="63.64477830" lon="-19.4372112">
        <ele>941.20001</ele>
        <time>2010-01-01T00:33:09Z</time>
      </trkpt>
      <trkpt lat="63.64476680" lon="-19.4372223">
        <ele>941.00000</ele>
        <time>2010-01-01T00:33:10Z</time>
      </trkpt>
      <trkpt lat="63.64476140" lon="-19.4372276">
        <ele>941.00000</ele>
        <time>2010-01-01T00:33:10Z</time>
      </trkpt>
      <trkpt lat="63.64475500" lon="-19.4372338">
        <ele>941.00000</ele>
        <time>2010-01-01T00:33:10Z</time>
      </trkpt>
      <trkpt lat="63.64474530" lon="-19.4372431">
        <ele>941.00000</ele>
        <time>2010-01-01T00:33:11Z</time>
      </trkpt>
      <trkpt lat="63.64474450" lon="-19.4372375">
        <ele>940.79998</ele>
        <time>2010-01-01T00:33:11Z</time>
      </trkpt>
      <trkpt lat="63.64473400" lon="-19.4372451">
        <ele>941.20001</ele>
        <time>2010-01-01T00:33:11Z</time>
      </trkpt>
      <trkpt lat="63.64472380" lon="-19.4372499">
        <ele>941.40002</ele>
        <time>2010-01-01T00:33:12Z</time>
      </trkpt>
      <trkpt lat="63.64472690" lon="-19.4372498">
        <ele>942.00000</ele>
        <time>2010-01-01T00:33:12Z</time>
      </trkpt>
      <trkpt lat="63.64471860" lon="-19.4372517">
        <ele>942.20001</ele>
        <time>2010-01-01T00:33:12Z</time>
      </trkpt>
      <trkpt lat="63.64471220" lon="-19.4372545">
        <ele>942.59997</ele>
        <time>2010-01-01T00:33:12Z</time>
      </trkpt>
      <trkpt lat="63.64470800" lon="-19.4372587">
        <ele>943.00000</ele>
        <time>2010-01-01T00:33:13Z</time>
      </trkpt>
      <trkpt lat="63.64470320" lon="-19.4372623">
        <ele>943.40002</ele>
        <time>2010-01-01T00:33:13Z</time>
      </trkpt>
      <trkpt lat="63.64469800" lon="-19.4372649">
        <ele>943.79998</ele>
        <time>2010-01-01T00:33:13Z</time>
      </trkpt>
      <trkpt lat="63.64469510" lon="-19.4372666">
        <ele>944.40002</ele>
        <time>2010-01-01T00:33:13Z</time>
      </trkpt>
      <trkpt lat="63.64468840" lon="-19.4372659">
        <ele>945.00000</ele>
        <time>2010-01-01T00:33:13Z</time>
      </trkpt>
      <trkpt lat="63.64467550" lon="-19.4372721">
        <ele>945.00000</ele>
        <time>2010-01-01T00:33:14Z</time>
      </trkpt>
      <trkpt lat="63.64467050" lon="-19.4372787">
        <ele>945.20001</ele>
        <time>2010-01-01T00:33:14Z</time>
      </trkpt>
      <trkpt lat="63.64466590" lon="-19.4372713">
        <ele>945.59997</ele>
        <time>2010-01-01T00:33:14Z</time>
      </trkpt>
      <trkpt lat="63.64465990" lon="-19.4372723">
        <ele>946.00000</ele>
        <time>2010-01-01T00:33:15Z</time>
      </trkpt>
      <trkpt lat="63.64465550" lon="-19.4372692">
        <ele>946.40002</ele>
        <time>2010-01-01T00:33:15Z</time>
      </trkpt>
      <trkpt lat="63.64465210" lon="-19.4372716">
        <ele>946.79998</ele>
        <time>2010-01-01T00:33:15Z</time>
      </trkpt>
      <trkpt lat="63.64464870" lon="-19.4372732">
        <ele>947.00000</ele>
        <time>2010-01-01T00:33:15Z</time>
      </trkpt>
      <trkpt lat="63.64464760" lon="-19.4372789">
        <ele>947.00000</ele>
        <time>2010-01-01T00:33:15Z</time>
      </trkpt>
      <trkpt lat="63.64463710" lon="-19.4372902">
        <ele>947.40002</ele>
        <time>2010-01-01T00:33:16Z</time>
      </trkpt>
      <trkpt lat="63.64463120" lon="-19.4372967">
        <ele>947.79998</ele>
        <time>2010-01-01T00:33:16Z</time>
      </trkpt>
      <trkpt lat="63.64462850" lon="-19.4372972">
        <ele>948.20001</ele>
        <time>2010-01-01T00:33:16Z</time>
      </trkpt>
      <trkpt lat="63.64462180" lon="-19.4372939">
        <ele>948.59997</ele>
        <time>2010-01-01T00:33:16Z</time>
      </trkpt>
      <trkpt lat="63.64461740" lon="-19.4372862">
        <ele>949.00000</ele>
        <time>2010-01-01T00:33:17Z</time>
      </trkpt>
      <trkpt lat="63.64461500" lon="-19.4372798">
        <ele>949.00000</ele>
        <time>2010-01-01T00:33:17Z</time>
      </trkpt>
      <trkpt lat="63.64461090" lon="-19.4372804">
        <ele>949.00000</ele>
        <time>2010-01-01T00:33:17Z</time>
      </trkpt>
      <trkpt lat="63.64460650" lon="-19.4372799">
        <ele>949.00000</ele>
        <time>2010-01-01T00:33:17Z</time>
      </trkpt>
      <trkpt lat="63.64460180" lon="-19.4372833">
        <ele>949.40002</ele>
        <time>2010-01-01T00:33:17Z</time>
      </trkpt>
      <trkpt lat="63.64460290" lon="-19.4372851">
        <ele>949.79998</ele>
        <time>2010-01-01T00:33:17Z</time>
      </trkpt>
      <trkpt lat="63.64459680" lon="-19.4372926">
        <ele>950.20001</ele>
        <time>2010-01-01T00:33:18Z</time>
      </trkpt>
      <trkpt lat="63.64458970" lon="-19.4372985">
        <ele>950.59997</ele>
        <time>2010-01-01T00:33:18Z</time>
      </trkpt>
      <trkpt lat="63.64458330" lon="-19.4373026">
        <ele>951.20001</ele>
        <time>2010-01-01T00:33:18Z</time>
      </trkpt>
      <trkpt lat="63.64455160" lon="-19.4373156">
        <ele>951.40002</ele>
        <time>2010-01-01T00:33:19Z</time>
      </trkpt>
      <trkpt lat="63.64454850" lon="-19.4373158">
        <ele>951.79998</ele>
        <time>2010-01-01T00:33:20Z</time>
      </trkpt>
      <trkpt lat="63.64454300" lon="-19.4373186">
        <ele>952.20001</ele>
        <time>2010-01-01T00:33:20Z</time>
      </trkpt>
      <trkpt lat="63.64453770" lon="-19.4373207">
        <ele>952.40002</ele>
        <time>2010-01-01T00:33:20Z</time>
      </trkpt>
      <trkpt lat="63.64453100" lon="-19.4373252">
        <ele>952.59997</ele>
        <time>2010-01-01T00:33:20Z</time>
      </trkpt>
      <trkpt lat="63.64452590" lon="-19.4373290">
        <ele>953.20001</ele>
        <time>2010-01-01T00:33:20Z</time>
      </trkpt>
      <trkpt lat="63.64450670" lon="-19.4373405">
        <ele>953.40002</ele>
        <time>2010-01-01T00:33:21Z</time>
      </trkpt>
      <trkpt lat="63.64450230" lon="-19.4373445">
        <ele>953.79998</ele>
        <time>2010-01-01T00:33:21Z</time>
      </trkpt>
      <trkpt lat="63.64449800" lon="-19.4373533">
        <ele>954.20001</ele>
        <time>2010-01-01T00:33:22Z</time>
      </trkpt>
      <trkpt lat="63.64449480" lon="-19.4373558">
        <ele>954.40002</ele>
        <time>2010-01-01T00:33:22Z</time>
      </trkpt>
      <trkpt lat="63.64449050" lon="-19.4373550">
        <ele>954.59997</ele>
        <time>2010-01-01T00:33:22Z</time>
      </trkpt>
      <trkpt lat="63.64448450" lon="-19.4373586">
        <ele>955.00000</ele>
        <time>2010-01-01T00:33:22Z</time>
      </trkpt>
      <trkpt lat="63.64448010" lon="-19.4373635">
        <ele>955.20001</ele>
        <time>2010-01-01T00:33:22Z</time>
      </trkpt>
      <trkpt lat="63.64447160" lon="-19.4373682">
        <ele>955.59997</ele>
        <time>2010-01-01T00:33:23Z</time>
      </trkpt>
      <trkpt lat="63.64446750" lon="-19.4373751">
        <ele>956.00000</ele>
        <time>2010-01-01T00:33:23Z</time>
      </trkpt>
      <trkpt lat="63.64446200" lon="-19.4373804">
        <ele>956.40002</ele>
        <time>2010-01-01T00:33:23Z</time>
      </trkpt>
      <trkpt lat="63.64445570" lon="-19.4373850">
        <ele>956.79998</ele>
        <time>2010-01-01T00:33:24Z</time>
      </trkpt>
      <trkpt lat="63.64445380" lon="-19.4373829">
        <ele>957.20001</ele>
        <time>2010-01-01T00:33:24Z</time>
      </trkpt>
      <trkpt lat="63.64444680" lon="-19.4373874">
        <ele>957.20001</ele>
        <time>2010-01-01T00:33:24Z</time>
      </trkpt>
      <trkpt lat="63.64443840" lon="-19.4374061">
        <ele>957.59997</ele>
        <time>2010-01-01T00:33:24Z</time>
      </trkpt>
      <trkpt lat="63.64443250" lon="-19.4374105">
        <ele>958.00000</ele>
        <time>2010-01-01T00:33:25Z</time>
      </trkpt>
      <trkpt lat="63.64443200" lon="-19.4374093">
        <ele>958.40002</ele>
        <time>2010-01-01T00:33:25Z</time>
      </trkpt>
      <trkpt lat="63.64442320" lon="-19.4374113">
        <ele>958.79998</ele>
        <time>2010-01-01T00:33:25Z</time>
      </trkpt>
      <trkpt lat="63.64441580" lon="-19.4374134">
        <ele>959.20001</ele>
        <time>2010-01-01T00:33:25Z</time>
      </trkpt>
      <trkpt lat="63.64441390" lon="-19.4374093">
        <ele>959.40002</ele>
        <time>2010-01-01T00:33:25Z</time>
      </trkpt>
      <trkpt lat="63.64439990" lon="-19.4374198">
        <ele>959.40002</ele>
        <time>2010-01-01T00:33:26Z</time>
      </trkpt>
      <trkpt lat="63.64439520" lon="-19.4374291">
        <ele>959.79998</ele>
        <time>2010-01-01T00:33:26Z</time>
      </trkpt>
      <trkpt lat="63.64438950" lon="-19.4374372">
        <ele>960.20001</ele>
        <time>2010-01-01T00:33:26Z</time>
      </trkpt>
      <trkpt lat="63.64438430" lon="-19.4374444">
        <ele>960.79998</ele>
        <time>2010-01-01T00:33:27Z</time>
      </trkpt>
      <trkpt lat="63.64437910" lon="-19.4374403">
        <ele>961.00000</ele>
        <time>2010-01-01T00:33:27Z</time>
      </trkpt>
      <trkpt lat="63.64437290" lon="-19.4374439">
        <ele>961.40002</ele>
        <time>2010-01-01T00:33:27Z</time>
      </trkpt>
      <trkpt lat="63.64435200" lon="-19.4374484">
        <ele>961.79998</ele>
        <time>2010-01-01T00:33:28Z</time>
      </trkpt>
      <trkpt lat="63.64434560" lon="-19.4374552">
        <ele>962.20001</ele>
        <time>2010-01-01T00:33:28Z</time>
      </trkpt>
      <trkpt lat="63.64434210" lon="-19.4374604">
        <ele>962.59997</ele>
        <time>2010-01-01T00:33:28Z</time>
      </trkpt>
      <trkpt lat="63.64433770" lon="-19.4374581">
        <ele>963.00000</ele>
        <time>2010-01-01T00:33:29Z</time>
      </trkpt>
      <trkpt lat="63.64433100" lon="-19.4374616">
        <ele>963.40002</ele>
        <time>2010-01-01T00:33:29Z</time>
      </trkpt>
      <trkpt lat="63.64432570" lon="-19.4374631">
        <ele>963.40002</ele>
        <time>2010-01-01T00:33:29Z</time>
      </trkpt>
      <trkpt lat="63.64430900" lon="-19.4374693">
        <ele>963.59997</ele>
        <time>2010-01-01T00:33:30Z</time>
      </trkpt>
      <trkpt lat="63.64430500" lon="-19.4374710">
        <ele>963.79998</ele>
        <time>2010-01-01T00:33:30Z</time>
      </trkpt>
      <trkpt lat="63.64429520" lon="-19.4374750">
        <ele>964.40002</ele>
        <time>2010-01-01T00:33:30Z</time>
      </trkpt>
      <trkpt lat="63.64429290" lon="-19.4374743">
        <ele>964.79998</ele>
        <time>2010-01-01T00:33:30Z</time>
      </trkpt>
      <trkpt lat="63.64428820" lon="-19.4374778">
        <ele>965.00000</ele>
        <time>2010-01-01T00:33:31Z</time>
      </trkpt>
      <trkpt lat="63.64428170" lon="-19.4374781">
        <ele>965.40002</ele>
        <time>2010-01-01T00:33:31Z</time>
      </trkpt>
      <trkpt lat="63.64426150" lon="-19.4374821">
        <ele>965.40002</ele>
        <time>2010-01-01T00:33:32Z</time>
      </trkpt>
      <trkpt lat="63.64425580" lon="-19.4374808">
        <ele>965.59997</ele>
        <time>2010-01-01T00:33:32Z</time>
      </trkpt>
      <trkpt lat="63.64424950" lon="-19.4374814">
        <ele>966.00000</ele>
        <time>2010-01-01T00:33:32Z</time>
      </trkpt>
      <trkpt lat="63.64424390" lon="-19.4374866">
        <ele>966.40002</ele>
        <time>2010-01-01T00:33:32Z</time>
      </trkpt>
      <trkpt lat="63.64424210" lon="-19.4374877">
        <ele>966.59997</ele>
        <time>2010-01-01T00:33:33Z</time>
      </trkpt>
      <trkpt lat="63.64423620" lon="-19.4374943">
        <ele>967.00000</ele>
        <time>2010-01-01T00:33:33Z</time>
      </trkpt>
      <trkpt lat="63.64422990" lon="-19.4374969">
        <ele>967.40002</ele>
        <time>2010-01-01T00:33:33Z</time>
      </trkpt>
      <trkpt lat="63.64422650" lon="-19.4374983">
        <ele>967.40002</ele>
        <time>2010-01-01T00:33:33Z</time>
      </trkpt>
      <trkpt lat="63.64422270" lon="-19.4374996">
        <ele>967.59997</ele>
        <time>2010-01-01T00:33:33Z</time>
      </trkpt>
      <trkpt lat="63.64421540" lon="-19.4375084">
        <ele>968.20001</ele>
        <time>2010-01-01T00:33:34Z</time>
      </trkpt>
      <trkpt lat="63.64421250" lon="-19.4375063">
        <ele>968.59997</ele>
        <time>2010-01-01T00:33:34Z</time>
      </trkpt>
      <trkpt lat="63.64420510" lon="-19.4375149">
        <ele>969.00000</ele>
        <time>2010-01-01T00:33:34Z</time>
      </trkpt>
      <trkpt lat="63.64419930" lon="-19.4375219">
        <ele>969.40002</ele>
        <time>2010-01-01T00:33:34Z</time>
      </trkpt>
      <trkpt lat="63.64419670" lon="-19.4375257">
        <ele>969.40002</ele>
        <time>2010-01-01T00:33:35Z</time>
      </trkpt>
      <trkpt lat="63.64418300" lon="-19.4375362">
        <ele>969.79998</ele>
        <time>2010-01-01T00:33:35Z</time>
      </trkpt>
      <trkpt lat="63.64417670" lon="-19.4375439">
        <ele>970.20001</ele>
        <time>2010-01-01T00:33:35Z</time>
      </trkpt>
      <trkpt lat="63.64417100" lon="-19.4375523">
        <ele>970.79998</ele>
        <time>2010-01-01T00:33:36Z</time>
      </trkpt>
      <trkpt lat="63.64416980" lon="-19.4375513">
        <ele>971.20001</ele>
        <time>2010-01-01T00:33:36Z</time>
      </trkpt>
      <trkpt lat="63.64416310" lon="-19.4375679">
        <ele>971.59997</ele>
        <time>2010-01-01T00:33:36Z</time>
      </trkpt>
      <trkpt lat="63.64415560" lon="-19.4375782">
        <ele>971.59997</ele>
        <time>2010-01-01T00:33:36Z</time>
      </trkpt>
      <trkpt lat="63.64414450" lon="-19.4376002">
        <ele>972.00000</ele>
        <time>2010-01-01T00:33:37Z</time>
      </trkpt>
      <trkpt lat="63.64414110" lon="-19.4376114">
        <ele>972.40002</ele>
        <time>2010-01-01T00:33:37Z</time>
      </trkpt>
      <trkpt lat="63.64413560" lon="-19.4376171">
        <ele>972.79998</ele>
        <time>2010-01-01T00:33:38Z</time>
      </trkpt>
      <trkpt lat="63.64413480" lon="-19.4376153">
        <ele>973.20001</ele>
        <time>2010-01-01T00:33:38Z</time>
      </trkpt>
      <trkpt lat="63.64412700" lon="-19.4376152">
        <ele>973.59997</ele>
        <time>2010-01-01T00:33:38Z</time>
      </trkpt>
      <trkpt lat="63.64411540" lon="-19.4376167">
        <ele>973.79998</ele>
        <time>2010-01-01T00:33:38Z</time>
      </trkpt>
      <trkpt lat="63.64411260" lon="-19.4376267">
        <ele>974.20001</ele>
        <time>2010-01-01T00:33:39Z</time>
      </trkpt>
      <trkpt lat="63.64411010" lon="-19.4376257">
        <ele>974.20001</ele>
        <time>2010-01-01T00:33:39Z</time>
      </trkpt>
      <trkpt lat="63.64410400" lon="-19.4376382">
        <ele>974.79998</ele>
        <time>2010-01-01T00:33:39Z</time>
      </trkpt>
      <trkpt lat="63.64409850" lon="-19.4376430">
        <ele>975.20001</ele>
        <time>2010-01-01T00:33:39Z</time>
      </trkpt>
      <trkpt lat="63.64409470" lon="-19.4376376">
        <ele>975.59997</ele>
        <time>2010-01-01T00:33:39Z</time>
      </trkpt>
      <trkpt lat="63.64408970" lon="-19.4376285">
        <ele>975.59997</ele>
        <time>2010-01-01T00:33:40Z</time>
      </trkpt>
      <trkpt lat="63.64408400" lon="-19.4376195">
        <ele>975.79998</ele>
        <time>2010-01-01T00:33:40Z</time>
      </trkpt>
      <trkpt lat="63.64407810" lon="-19.4376053">
        <ele>975.59997</ele>
        <time>2010-01-01T00:33:40Z</time>
      </trkpt>
      <trkpt lat="63.64407750" lon="-19.4375929">
        <ele>975.79998</ele>
        <time>2010-01-01T00:33:41Z</time>
      </trkpt>
      <trkpt lat="63.64407600" lon="-19.4375931">
        <ele>976.20001</ele>
        <time>2010-01-01T00:33:41Z</time>
      </trkpt>
      <trkpt lat="63.64407240" lon="-19.4375874">
        <ele>976.59997</ele>
        <time>2010-01-01T00:33:41Z</time>
      </trkpt>
      <trkpt lat="63.64406750" lon="-19.4375761">
        <ele>976.79998</ele>
        <time>2010-01-01T00:33:41Z</time>
      </trkpt>
      <trkpt lat="63.64405990" lon="-19.4375710">
        <ele>977.20001</ele>
        <time>2010-01-01T00:33:41Z</time>
      </trkpt>
      <trkpt lat="63.64405630" lon="-19.4375718">
        <ele>977.40002</ele>
        <time>2010-01-01T00:33:42Z</time>
      </trkpt>
      <trkpt lat="63.64404590" lon="-19.4375715">
        <ele>977.59997</ele>
        <time>2010-01-01T00:33:42Z</time>
      </trkpt>
      <trkpt lat="63.64403940" lon="-19.4375695">
        <ele>977.79998</ele>
        <time>2010-01-01T00:33:42Z</time>
      </trkpt>
      <trkpt lat="63.64401550" lon="-19.4375728">
        <ele>978.20001</ele>
        <time>2010-01-01T00:33:43Z</time>
      </trkpt>
      <trkpt lat="63.64400750" lon="-19.4375713">
        <ele>978.59997</ele>
        <time>2010-01-01T00:33:43Z</time>
      </trkpt>
      <trkpt lat="63.64400070" lon="-19.4375742">
        <ele>979.00000</ele>
        <time>2010-01-01T00:33:44Z</time>
      </trkpt>
      <trkpt lat="63.64399530" lon="-19.4375749">
        <ele>979.40002</ele>
        <time>2010-01-01T00:33:44Z</time>
      </trkpt>
      <trkpt lat="63.64398840" lon="-19.4375722">
        <ele>979.79998</ele>
        <time>2010-01-01T00:33:44Z</time>
      </trkpt>
      <trkpt lat="63.64398160" lon="-19.4375720">
        <ele>980.20001</ele>
        <time>2010-01-01T00:33:45Z</time>
      </trkpt>
      <trkpt lat="63.64397920" lon="-19.4375724">
        <ele>980.59997</ele>
        <time>2010-01-01T00:33:45Z</time>
      </trkpt>
      <trkpt lat="63.64396950" lon="-19.4375782">
        <ele>981.00000</ele>
        <time>2010-01-01T00:33:45Z</time>
      </trkpt>
      <trkpt lat="63.64396010" lon="-19.4375878">
        <ele>981.59997</ele>
        <time>2010-01-01T00:33:45Z</time>
      </trkpt>
      <trkpt lat="63.64395420" lon="-19.4375940">
        <ele>982.00000</ele>
        <time>2010-01-01T00:33:46Z</time>
      </trkpt>
      <trkpt lat="63.64393930" lon="-19.4375995">
        <ele>982.20001</ele>
        <time>2010-01-01T00:33:46Z</time>
      </trkpt>
      <trkpt lat="63.64393680" lon="-19.4376021">
        <ele>982.59997</ele>
        <time>2010-01-01T00:33:46Z</time>
      </trkpt>
      <trkpt lat="63.64392670" lon="-19.4376065">
        <ele>983.20001</ele>
        <time>2010-01-01T00:33:47Z</time>
      </trkpt>
      <trkpt lat="63.64391960" lon="-19.4376119">
        <ele>983.59997</ele>
        <time>2010-01-01T00:33:47Z</time>
      </trkpt>
      <trkpt lat="63.64391440" lon="-19.4376198">
        <ele>984.00000</ele>
        <time>2010-01-01T00:33:47Z</time>
      </trkpt>
      <trkpt lat="63.64390590" lon="-19.4376194">
        <ele>984.20001</ele>
        <time>2010-01-01T00:33:48Z</time>
      </trkpt>
      <trkpt lat="63.64389370" lon="-19.4376110">
        <ele>984.59997</ele>
        <time>2010-01-01T00:33:48Z</time>
      </trkpt>
      <trkpt lat="63.64388450" lon="-19.4376050">
        <ele>985.00000</ele>
        <time>2010-01-01T00:33:49Z</time>
      </trkpt>
      <trkpt lat="63.64387760" lon="-19.4376031">
        <ele>985.40002</ele>
        <time>2010-01-01T00:33:49Z</time>
      </trkpt>
      <trkpt lat="63.64387180" lon="-19.4376026">
        <ele>985.79998</ele>
        <time>2010-01-01T00:33:49Z</time>
      </trkpt>
      <trkpt lat="63.64386690" lon="-19.4376017">
        <ele>986.20001</ele>
        <time>2010-01-01T00:33:49Z</time>
      </trkpt>
      <trkpt lat="63.64384940" lon="-19.4375941">
        <ele>986.40002</ele>
        <time>2010-01-01T00:33:50Z</time>
      </trkpt>
      <trkpt lat="63.64384090" lon="-19.4375925">
        <ele>986.79998</ele>
        <time>2010-01-01T00:33:50Z</time>
      </trkpt>
      <trkpt lat="63.64383450" lon="-19.4375938">
        <ele>987.20001</ele>
        <time>2010-01-01T00:33:51Z</time>
      </trkpt>
      <trkpt lat="63.64382900" lon="-19.4375930">
        <ele>987.59997</ele>
        <time>2010-01-01T00:33:51Z</time>
      </trkpt>
      <trkpt lat="63.64382460" lon="-19.4375903">
        <ele>987.79998</ele>
        <time>2010-01-01T00:33:51Z</time>
      </trkpt>
      <trkpt lat="63.64381660" lon="-19.4375983">
        <ele>988.20001</ele>
        <time>2010-01-01T00:33:51Z</time>
      </trkpt>
      <trkpt lat="63.64381240" lon="-19.4376104">
        <ele>988.20001</ele>
        <time>2010-01-01T00:33:52Z</time>
      </trkpt>
      <trkpt lat="63.64380200" lon="-19.4376355">
        <ele>988.59997</ele>
        <time>2010-01-01T00:33:52Z</time>
      </trkpt>
      <trkpt lat="63.64379650" lon="-19.4376506">
        <ele>989.00000</ele>
        <time>2010-01-01T00:33:53Z</time>
      </trkpt>
      <trkpt lat="63.64379480" lon="-19.4376550">
        <ele>989.20001</ele>
        <time>2010-01-01T00:33:53Z</time>
      </trkpt>
      <trkpt lat="63.64378820" lon="-19.4376693">
        <ele>989.59997</ele>
        <time>2010-01-01T00:33:53Z</time>
      </trkpt>
      <trkpt lat="63.64378190" lon="-19.4376799">
        <ele>989.79998</ele>
        <time>2010-01-01T00:33:53Z</time>
      </trkpt>
      <trkpt lat="63.64377710" lon="-19.4376935">
        <ele>990.20001</ele>
        <time>2010-01-01T00:33:54Z</time>
      </trkpt>
      <trkpt lat="63.64377330" lon="-19.4377041">
        <ele>990.40002</ele>
        <time>2010-01-01T00:33:54Z</time>
      </trkpt>
      <trkpt lat="63.64376700" lon="-19.4377180">
        <ele>990.59997</ele>
        <time>2010-01-01T00:33:54Z</time>
      </trkpt>
      <trkpt lat="63.64376060" lon="-19.4377295">
        <ele>991.00000</ele>
        <time>2010-01-01T00:33:55Z</time>
      </trkpt>
      <trkpt lat="63.64375530" lon="-19.4377410">
        <ele>991.20001</ele>
        <time>2010-01-01T00:33:55Z</time>
      </trkpt>
      <trkpt lat="63.64375140" lon="-19.4377521">
        <ele>991.40002</ele>
        <time>2010-01-01T00:33:55Z</time>
      </trkpt>
      <trkpt lat="63.64374650" lon="-19.4377643">
        <ele>991.79998</ele>
        <time>2010-01-01T00:33:55Z</time>
      </trkpt>
      <trkpt lat="63.64374340" lon="-19.4377807">
        <ele>992.00000</ele>
        <time>2010-01-01T00:33:56Z</time>
      </trkpt>
      <trkpt lat="63.64374290" lon="-19.4377978">
        <ele>992.20001</ele>
        <time>2010-01-01T00:33:56Z</time>
      </trkpt>
      <trkpt lat="63.64374330" lon="-19.4378143">
        <ele>992.40002</ele>
        <time>2010-01-01T00:33:56Z</time>
      </trkpt>
      <trkpt lat="63.64374120" lon="-19.4378263">
        <ele>992.79998</ele>
        <time>2010-01-01T00:33:57Z</time>
      </trkpt>
      <trkpt lat="63.64372690" lon="-19.4378335">
        <ele>993.40002</ele>
        <time>2010-01-01T00:33:57Z</time>
      </trkpt>
      <trkpt lat="63.64371810" lon="-19.4378331">
        <ele>993.79998</ele>
        <time>2010-01-01T00:33:58Z</time>
      </trkpt>
      <trkpt lat="63.64371040" lon="-19.4378316">
        <ele>994.20001</ele>
        <time>2010-01-01T00:33:58Z</time>
      </trkpt>
      <trkpt lat="63.64370290" lon="-19.4378248">
        <ele>994.20001</ele>
        <time>2010-01-01T00:33:58Z</time>
      </trkpt>
      <trkpt lat="63.64369480" lon="-19.4378152">
        <ele>994.40002</ele>
        <time>2010-01-01T00:33:59Z</time>
      </trkpt>
      <trkpt lat="63.64369010" lon="-19.4378188">
        <ele>995.00000</ele>
        <time>2010-01-01T00:33:59Z</time>
      </trkpt>
      <trkpt lat="63.64368780" lon="-19.4378326">
        <ele>995.40002</ele>
        <time>2010-01-01T00:33:59Z</time>
      </trkpt>
      <trkpt lat="63.64368430" lon="-19.4378502">
        <ele>995.79998</ele>
        <time>2010-01-01T00:33:59Z</time>
      </trkpt>
      <trkpt lat="63.64368130" lon="-19.4378627">
        <ele>996.20001</ele>
        <time>2010-01-01T00:34:00Z</time>
      </trkpt>
      <trkpt lat="63.64367910" lon="-19.4378743">
        <ele>996.40002</ele>
        <time>2010-01-01T00:34:00Z</time>
      </trkpt>
      <trkpt lat="63.64366760" lon="-19.4379117">
        <ele>996.59997</ele>
        <time>2010-01-01T00:34:01Z</time>
      </trkpt>
      <trkpt lat="63.64366100" lon="-19.4379220">
        <ele>997.00000</ele>
        <time>2010-01-01T00:34:01Z</time>
      </trkpt>
      <trkpt lat="63.64365130" lon="-19.4379281">
        <ele>997.59997</ele>
        <time>2010-01-01T00:34:01Z</time>
      </trkpt>
      <trkpt lat="63.64364280" lon="-19.4379244">
        <ele>998.00000</ele>
        <time>2010-01-01T00:34:02Z</time>
      </trkpt>
      <trkpt lat="63.64363370" lon="-19.4379170">
        <ele>998.40002</ele>
        <time>2010-01-01T00:34:02Z</time>
      </trkpt>
      <trkpt lat="63.64362440" lon="-19.4379120">
        <ele>998.40002</ele>
        <time>2010-01-01T00:34:02Z</time>
      </trkpt>
      <trkpt lat="63.64360170" lon="-19.4379120">
        <ele>999.00000</ele>
        <time>2010-01-01T00:34:03Z</time>
      </trkpt>
      <trkpt lat="63.64359090" lon="-19.4379109">
        <ele>999.40002</ele>
        <time>2010-01-01T00:34:04Z</time>
      </trkpt>
      <trkpt lat="63.64357920" lon="-19.4379097">
        <ele>999.59997</ele>
        <time>2010-01-01T00:34:04Z</time>
      </trkpt>
      <trkpt lat="63.64357290" lon="-19.4379176">
        <ele>999.79998</ele>
        <time>2010-01-01T00:34:05Z</time>
      </trkpt>
      <trkpt lat="63.64356520" lon="-19.4379304">
        <ele>1000.2000</ele>
        <time>2010-01-01T00:34:05Z</time>
      </trkpt>
      <trkpt lat="63.64355570" lon="-19.4379444">
        <ele>1000.5999</ele>
        <time>2010-01-01T00:34:05Z</time>
      </trkpt>
      <trkpt lat="63.64354480" lon="-19.4379556">
        <ele>1000.5999</ele>
        <time>2010-01-01T00:34:06Z</time>
      </trkpt>
      <trkpt lat="63.64353360" lon="-19.4379634">
        <ele>1000.5999</ele>
        <time>2010-01-01T00:34:06Z</time>
      </trkpt>
      <trkpt lat="63.64352140" lon="-19.4379713">
        <ele>1000.5999</ele>
        <time>2010-01-01T00:34:07Z</time>
      </trkpt>
      <trkpt lat="63.64351080" lon="-19.4379730">
        <ele>1001.0000</ele>
        <time>2010-01-01T00:34:07Z</time>
      </trkpt>
      <trkpt lat="63.64350160" lon="-19.4379766">
        <ele>1001.4000</ele>
        <time>2010-01-01T00:34:08Z</time>
      </trkpt>
      <trkpt lat="63.64349190" lon="-19.4379836">
        <ele>1001.7999</ele>
        <time>2010-01-01T00:34:08Z</time>
      </trkpt>
      <trkpt lat="63.64348140" lon="-19.4379915">
        <ele>1002.4000</ele>
        <time>2010-01-01T00:34:09Z</time>
      </trkpt>
      <trkpt lat="63.64347210" lon="-19.4380008">
        <ele>1002.5999</ele>
        <time>2010-01-01T00:34:09Z</time>
      </trkpt>
      <trkpt lat="63.64346320" lon="-19.4380146">
        <ele>1002.5999</ele>
        <time>2010-01-01T00:34:09Z</time>
      </trkpt>
      <trkpt lat="63.64344110" lon="-19.4380636">
        <ele>1002.7999</ele>
        <time>2010-01-01T00:34:11Z</time>
      </trkpt>
      <trkpt lat="63.64343630" lon="-19.4380765">
        <ele>1003.0000</ele>
        <time>2010-01-01T00:34:11Z</time>
      </trkpt>
      <trkpt lat="63.64342970" lon="-19.4380938">
        <ele>1003.4000</ele>
        <time>2010-01-01T00:34:11Z</time>
      </trkpt>
      <trkpt lat="63.64342240" lon="-19.4381086">
        <ele>1003.7999</ele>
        <time>2010-01-01T00:34:12Z</time>
      </trkpt>
      <trkpt lat="63.64341360" lon="-19.4381246">
        <ele>1004.0000</ele>
        <time>2010-01-01T00:34:12Z</time>
      </trkpt>
      <trkpt lat="63.64340650" lon="-19.4381382">
        <ele>1004.4000</ele>
        <time>2010-01-01T00:34:13Z</time>
      </trkpt>
      <trkpt lat="63.64340010" lon="-19.4381504">
        <ele>1004.5999</ele>
        <time>2010-01-01T00:34:13Z</time>
      </trkpt>
      <trkpt lat="63.64337840" lon="-19.4382320">
        <ele>1005.0000</ele>
        <time>2010-01-01T00:34:15Z</time>
      </trkpt>
      <trkpt lat="63.64337520" lon="-19.4382508">
        <ele>1005.4000</ele>
        <time>2010-01-01T00:34:15Z</time>
      </trkpt>
      <trkpt lat="63.64337010" lon="-19.4382695">
        <ele>1005.7999</ele>
        <time>2010-01-01T00:34:15Z</time>
      </trkpt>
      <trkpt lat="63.64336320" lon="-19.4382851">
        <ele>1006.2000</ele>
        <time>2010-01-01T00:34:16Z</time>
      </trkpt>
      <trkpt lat="63.64335450" lon="-19.4382963">
        <ele>1006.5999</ele>
        <time>2010-01-01T00:34:16Z</time>
      </trkpt>
      <trkpt lat="63.64334590" lon="-19.4383062">
        <ele>1006.7999</ele>
        <time>2010-01-01T00:34:16Z</time>
      </trkpt>
      <trkpt lat="63.64331760" lon="-19.4383740">
        <ele>1007.2000</ele>
        <time>2010-01-01T00:34:18Z</time>
      </trkpt>
      <trkpt lat="63.64331210" lon="-19.4384003">
        <ele>1007.5999</ele>
        <time>2010-01-01T00:34:19Z</time>
      </trkpt>
      <trkpt lat="63.64330730" lon="-19.4384277">
        <ele>1008.0000</ele>
        <time>2010-01-01T00:34:19Z</time>
      </trkpt>
      <trkpt lat="63.64329810" lon="-19.4384521">
        <ele>1008.4000</ele>
        <time>2010-01-01T00:34:20Z</time>
      </trkpt>
      <trkpt lat="63.64328860" lon="-19.4384708">
        <ele>1008.7999</ele>
        <time>2010-01-01T00:34:20Z</time>
      </trkpt>
      <trkpt lat="63.64324150" lon="-19.4385070">
        <ele>1008.7999</ele>
        <time>2010-01-01T00:34:22Z</time>
      </trkpt>
      <trkpt lat="63.64322840" lon="-19.4385089">
        <ele>1009.0000</ele>
        <time>2010-01-01T00:34:23Z</time>
      </trkpt>
      <trkpt lat="63.64321560" lon="-19.4385105">
        <ele>1009.4000</ele>
        <time>2010-01-01T00:34:23Z</time>
      </trkpt>
      <trkpt lat="63.64320340" lon="-19.4385125">
        <ele>1009.7999</ele>
        <time>2010-01-01T00:34:24Z</time>
      </trkpt>
      <trkpt lat="63.64319230" lon="-19.4385152">
        <ele>1010.4000</ele>
        <time>2010-01-01T00:34:24Z</time>
      </trkpt>
      <trkpt lat="63.64318150" lon="-19.4385198">
        <ele>1010.7999</ele>
        <time>2010-01-01T00:34:25Z</time>
      </trkpt>
      <trkpt lat="63.64317080" lon="-19.4385304">
        <ele>1011.0000</ele>
        <time>2010-01-01T00:34:25Z</time>
      </trkpt>
      <trkpt lat="63.64314180" lon="-19.4385719">
        <ele>1011.2000</ele>
        <time>2010-01-01T00:34:26Z</time>
      </trkpt>
      <trkpt lat="63.64313110" lon="-19.4385845">
        <ele>1011.5999</ele>
        <time>2010-01-01T00:34:27Z</time>
      </trkpt>
      <trkpt lat="63.64312110" lon="-19.4385916">
        <ele>1012.0000</ele>
        <time>2010-01-01T00:34:27Z</time>
      </trkpt>
      <trkpt lat="63.64311170" lon="-19.4385982">
        <ele>1012.2000</ele>
        <time>2010-01-01T00:34:28Z</time>
      </trkpt>
      <trkpt lat="63.64310240" lon="-19.4386063">
        <ele>1012.5999</ele>
        <time>2010-01-01T00:34:28Z</time>
      </trkpt>
      <trkpt lat="63.64309390" lon="-19.4386147">
        <ele>1013.0000</ele>
        <time>2010-01-01T00:34:29Z</time>
      </trkpt>
      <trkpt lat="63.64308270" lon="-19.4386254">
        <ele>1013.0000</ele>
        <time>2010-01-01T00:34:29Z</time>
      </trkpt>
      <trkpt lat="63.64306030" lon="-19.4386472">
        <ele>1013.2000</ele>
        <time>2010-01-01T00:34:30Z</time>
      </trkpt>
      <trkpt lat="63.64305020" lon="-19.4386581">
        <ele>1013.4000</ele>
        <time>2010-01-01T00:34:30Z</time>
      </trkpt>
      <trkpt lat="63.64304000" lon="-19.4386701">
        <ele>1013.5999</ele>
        <time>2010-01-01T00:34:31Z</time>
      </trkpt>
      <trkpt lat="63.64302740" lon="-19.4386872">
        <ele>1014.0000</ele>
        <time>2010-01-01T00:34:32Z</time>
      </trkpt>
      <trkpt lat="63.64301570" lon="-19.4387045">
        <ele>1014.2000</ele>
        <time>2010-01-01T00:34:32Z</time>
      </trkpt>
      <trkpt lat="63.64300490" lon="-19.4387210">
        <ele>1014.5999</ele>
        <time>2010-01-01T00:34:33Z</time>
      </trkpt>
      <trkpt lat="63.64299420" lon="-19.4387360">
        <ele>1014.7999</ele>
        <time>2010-01-01T00:34:33Z</time>
      </trkpt>
      <trkpt lat="63.64298390" lon="-19.4387508">
        <ele>1015.2000</ele>
        <time>2010-01-01T00:34:34Z</time>
      </trkpt>
      <trkpt lat="63.64296540" lon="-19.4387844">
        <ele>1015.4000</ele>
        <time>2010-01-01T00:34:35Z</time>
      </trkpt>
      <trkpt lat="63.64295720" lon="-19.4387982">
        <ele>1015.7999</ele>
        <time>2010-01-01T00:34:35Z</time>
      </trkpt>
      <trkpt lat="63.64294980" lon="-19.4388111">
        <ele>1016.2000</ele>
        <time>2010-01-01T00:34:35Z</time>
      </trkpt>
      <trkpt lat="63.64294260" lon="-19.4388230">
        <ele>1016.5999</ele>
        <time>2010-01-01T00:34:36Z</time>
      </trkpt>
      <trkpt lat="63.64293510" lon="-19.4388353">
        <ele>1017.0000</ele>
        <time>2010-01-01T00:34:36Z</time>
      </trkpt>
      <trkpt lat="63.64292740" lon="-19.4388491">
        <ele>1017.2000</ele>
        <time>2010-01-01T00:34:36Z</time>
      </trkpt>
      <trkpt lat="63.64292050" lon="-19.4388658">
        <ele>1017.5999</ele>
        <time>2010-01-01T00:34:37Z</time>
      </trkpt>
      <trkpt lat="63.64291250" lon="-19.4388848">
        <ele>1018.0000</ele>
        <time>2010-01-01T00:34:37Z</time>
      </trkpt>
      <trkpt lat="63.64290440" lon="-19.4389002">
        <ele>1018.4000</ele>
        <time>2010-01-01T00:34:38Z</time>
      </trkpt>
      <trkpt lat="63.64289580" lon="-19.4389163">
        <ele>1018.7999</ele>
        <time>2010-01-01T00:34:38Z</time>
      </trkpt>
      <trkpt lat="63.64288830" lon="-19.4389319">
        <ele>1019.2000</ele>
        <time>2010-01-01T00:34:39Z</time>
      </trkpt>
      <trkpt lat="63.64286830" lon="-19.4389931">
        <ele>1019.4000</ele>
        <time>2010-01-01T00:34:40Z</time>
      </trkpt>
      <trkpt lat="63.64286170" lon="-19.4390147">
        <ele>1019.7999</ele>
        <time>2010-01-01T00:34:40Z</time>
      </trkpt>
      <trkpt lat="63.64285520" lon="-19.4390340">
        <ele>1020.2000</ele>
        <time>2010-01-01T00:34:41Z</time>
      </trkpt>
      <trkpt lat="63.64284860" lon="-19.4390526">
        <ele>1020.4000</ele>
        <time>2010-01-01T00:34:41Z</time>
      </trkpt>
      <trkpt lat="63.64284030" lon="-19.4390723">
        <ele>1021.0000</ele>
        <time>2010-01-01T00:34:42Z</time>
      </trkpt>
      <trkpt lat="63.64283290" lon="-19.4390893">
        <ele>1021.4000</ele>
        <time>2010-01-01T00:34:42Z</time>
      </trkpt>
      <trkpt lat="63.64282260" lon="-19.4391083">
        <ele>1021.4000</ele>
        <time>2010-01-01T00:34:43Z</time>
      </trkpt>
      <trkpt lat="63.64280380" lon="-19.4391378">
        <ele>1021.7999</ele>
        <time>2010-01-01T00:34:44Z</time>
      </trkpt>
      <trkpt lat="63.64279320" lon="-19.4391442">
        <ele>1022.2000</ele>
        <time>2010-01-01T00:34:44Z</time>
      </trkpt>
      <trkpt lat="63.64278070" lon="-19.4391494">
        <ele>1022.5999</ele>
        <time>2010-01-01T00:34:45Z</time>
      </trkpt>
      <trkpt lat="63.64276700" lon="-19.4391525">
        <ele>1022.7999</ele>
        <time>2010-01-01T00:34:45Z</time>
      </trkpt>
      <trkpt lat="63.64275290" lon="-19.4391538">
        <ele>1023.4000</ele>
        <time>2010-01-01T00:34:46Z</time>
      </trkpt>
      <trkpt lat="63.64273960" lon="-19.4391561">
        <ele>1023.4000</ele>
        <time>2010-01-01T00:34:46Z</time>
      </trkpt>
      <trkpt lat="63.64271400" lon="-19.4391599">
        <ele>1023.5999</ele>
        <time>2010-01-01T00:34:47Z</time>
      </trkpt>
      <trkpt lat="63.64270030" lon="-19.4391651">
        <ele>1023.7999</ele>
        <time>2010-01-01T00:34:48Z</time>
      </trkpt>
      <trkpt lat="63.64268730" lon="-19.4391659">
        <ele>1024.1999</ele>
        <time>2010-01-01T00:34:48Z</time>
      </trkpt>
      <trkpt lat="63.64267480" lon="-19.4391677">
        <ele>1024.4000</ele>
        <time>2010-01-01T00:34:49Z</time>
      </trkpt>
      <trkpt lat="63.64266230" lon="-19.4391737">
        <ele>1024.8000</ele>
        <time>2010-01-01T00:34:49Z</time>
      </trkpt>
      <trkpt lat="63.64264980" lon="-19.4391821">
        <ele>1025.0000</ele>
        <time>2010-01-01T00:34:50Z</time>
      </trkpt>
      <trkpt lat="63.64263610" lon="-19.4391924">
        <ele>1025.4000</ele>
        <time>2010-01-01T00:34:50Z</time>
      </trkpt>
      <trkpt lat="63.64262090" lon="-19.4392009">
        <ele>1025.5999</ele>
        <time>2010-01-01T00:34:51Z</time>
      </trkpt>
      <trkpt lat="63.64260650" lon="-19.4392035">
        <ele>1025.5999</ele>
        <time>2010-01-01T00:34:52Z</time>
      </trkpt>
      <trkpt lat="63.64257860" lon="-19.4391953">
        <ele>1025.5999</ele>
        <time>2010-01-01T00:34:53Z</time>
      </trkpt>
      <trkpt lat="63.64256430" lon="-19.4391880">
        <ele>1026.0000</ele>
        <time>2010-01-01T00:34:53Z</time>
      </trkpt>
      <trkpt lat="63.64255140" lon="-19.4391834">
        <ele>1026.4000</ele>
        <time>2010-01-01T00:34:54Z</time>
      </trkpt>
      <trkpt lat="63.64253660" lon="-19.4391786">
        <ele>1026.8000</ele>
        <time>2010-01-01T00:34:54Z</time>
      </trkpt>
      <trkpt lat="63.64252310" lon="-19.4391754">
        <ele>1027.1999</ele>
        <time>2010-01-01T00:34:55Z</time>
      </trkpt>
      <trkpt lat="63.64251170" lon="-19.4391785">
        <ele>1027.5999</ele>
        <time>2010-01-01T00:34:55Z</time>
      </trkpt>
      <trkpt lat="63.64249850" lon="-19.4391864">
        <ele>1027.5999</ele>
        <time>2010-01-01T00:34:56Z</time>
      </trkpt>
      <trkpt lat="63.64241840" lon="-19.4391636">
        <ele>1028.0000</ele>
        <time>2010-01-01T00:34:59Z</time>
      </trkpt>
      <trkpt lat="63.64239840" lon="-19.4391549">
        <ele>1028.4000</ele>
        <time>2010-01-01T00:35:00Z</time>
      </trkpt>
      <trkpt lat="63.64237890" lon="-19.4391525">
        <ele>1028.8000</ele>
        <time>2010-01-01T00:35:01Z</time>
      </trkpt>
      <trkpt lat="63.64236200" lon="-19.4391590">
        <ele>1029.1999</ele>
        <time>2010-01-01T00:35:02Z</time>
      </trkpt>
      <trkpt lat="63.64234710" lon="-19.4391702">
        <ele>1029.5999</ele>
        <time>2010-01-01T00:35:02Z</time>
      </trkpt>
      <trkpt lat="63.64231980" lon="-19.4391828">
        <ele>1029.5999</ele>
        <time>2010-01-01T00:35:03Z</time>
      </trkpt>
      <trkpt lat="63.64230640" lon="-19.4391747">
        <ele>1029.5999</ele>
        <time>2010-01-01T00:35:04Z</time>
      </trkpt>
      <trkpt lat="63.64229560" lon="-19.4391598">
        <ele>1029.5999</ele>
        <time>2010-01-01T00:35:04Z</time>
      </trkpt>
      <trkpt lat="63.64228530" lon="-19.4391439">
        <ele>1029.8000</ele>
        <time>2010-01-01T00:35:05Z</time>
      </trkpt>
      <trkpt lat="63.64227500" lon="-19.4391447">
        <ele>1029.5999</ele>
        <time>2010-01-01T00:35:05Z</time>
      </trkpt>
      <trkpt lat="63.64226370" lon="-19.4391461">
        <ele>1030.1999</ele>
        <time>2010-01-01T00:35:06Z</time>
      </trkpt>
      <trkpt lat="63.64225270" lon="-19.4391472">
        <ele>1030.5999</ele>
        <time>2010-01-01T00:35:06Z</time>
      </trkpt>
      <trkpt lat="63.64224070" lon="-19.4391545">
        <ele>1031.0000</ele>
        <time>2010-01-01T00:35:07Z</time>
      </trkpt>
      <trkpt lat="63.64223010" lon="-19.4391591">
        <ele>1031.4000</ele>
        <time>2010-01-01T00:35:07Z</time>
      </trkpt>
      <trkpt lat="63.64221960" lon="-19.4391622">
        <ele>1031.8000</ele>
        <time>2010-01-01T00:35:08Z</time>
      </trkpt>
      <trkpt lat="63.64218700" lon="-19.4391621">
        <ele>1031.8000</ele>
        <time>2010-01-01T00:35:09Z</time>
      </trkpt>
      <trkpt lat="63.64214300" lon="-19.4391520">
        <ele>1032.0000</ele>
        <time>2010-01-01T00:35:11Z</time>
      </trkpt>
      <trkpt lat="63.64213000" lon="-19.4391497">
        <ele>1032.4000</ele>
        <time>2010-01-01T00:35:11Z</time>
      </trkpt>
      <trkpt lat="63.64211810" lon="-19.4391422">
        <ele>1032.8000</ele>
        <time>2010-01-01T00:35:12Z</time>
      </trkpt>
      <trkpt lat="63.64210540" lon="-19.4391348">
        <ele>1033.0000</ele>
        <time>2010-01-01T00:35:12Z</time>
      </trkpt>
      <trkpt lat="63.64209460" lon="-19.4391333">
        <ele>1033.4000</ele>
        <time>2010-01-01T00:35:13Z</time>
      </trkpt>
      <trkpt lat="63.64208470" lon="-19.4391355">
        <ele>1033.8000</ele>
        <time>2010-01-01T00:35:13Z</time>
      </trkpt>
      <trkpt lat="63.64207340" lon="-19.4391388">
        <ele>1033.8000</ele>
        <time>2010-01-01T00:35:13Z</time>
      </trkpt>
      <trkpt lat="63.64201450" lon="-19.4391349">
        <ele>1033.8000</ele>
        <time>2010-01-01T00:35:16Z</time>
      </trkpt>
      <trkpt lat="63.64200370" lon="-19.4391384">
        <ele>1034.0000</ele>
        <time>2010-01-01T00:35:16Z</time>
      </trkpt>
      <trkpt lat="63.64199310" lon="-19.4391499">
        <ele>1034.4000</ele>
        <time>2010-01-01T00:35:17Z</time>
      </trkpt>
      <trkpt lat="63.64198210" lon="-19.4391629">
        <ele>1034.8000</ele>
        <time>2010-01-01T00:35:17Z</time>
      </trkpt>
      <trkpt lat="63.64197000" lon="-19.4391744">
        <ele>1035.1999</ele>
        <time>2010-01-01T00:35:18Z</time>
      </trkpt>
      <trkpt lat="63.64195740" lon="-19.4391841">
        <ele>1035.5999</ele>
        <time>2010-01-01T00:35:18Z</time>
      </trkpt>
      <trkpt lat="63.64194450" lon="-19.4391933">
        <ele>1035.8000</ele>
        <time>2010-01-01T00:35:19Z</time>
      </trkpt>
      <trkpt lat="63.64188130" lon="-19.4391799">
        <ele>1036.1999</ele>
        <time>2010-01-01T00:35:21Z</time>
      </trkpt>
      <trkpt lat="63.64186810" lon="-19.4391711">
        <ele>1036.4000</ele>
        <time>2010-01-01T00:35:22Z</time>
      </trkpt>
      <trkpt lat="63.64185560" lon="-19.4391576">
        <ele>1037.0000</ele>
        <time>2010-01-01T00:35:22Z</time>
      </trkpt>
      <trkpt lat="63.64184200" lon="-19.4391493">
        <ele>1037.4000</ele>
        <time>2010-01-01T00:35:23Z</time>
      </trkpt>
      <trkpt lat="63.64183040" lon="-19.4391395">
        <ele>1037.8000</ele>
        <time>2010-01-01T00:35:23Z</time>
      </trkpt>
      <trkpt lat="63.64182010" lon="-19.4391301">
        <ele>1038.0000</ele>
        <time>2010-01-01T00:35:24Z</time>
      </trkpt>
      <trkpt lat="63.64179730" lon="-19.4391183">
        <ele>1038.0000</ele>
        <time>2010-01-01T00:35:25Z</time>
      </trkpt>
      <trkpt lat="63.64176920" lon="-19.4391179">
        <ele>1038.0000</ele>
        <time>2010-01-01T00:35:26Z</time>
      </trkpt>
      <trkpt lat="63.64174290" lon="-19.4391018">
        <ele>1038.0000</ele>
        <time>2010-01-01T00:35:27Z</time>
      </trkpt>
      <trkpt lat="63.64172930" lon="-19.4390901">
        <ele>1038.1999</ele>
        <time>2010-01-01T00:35:28Z</time>
      </trkpt>
      <trkpt lat="63.64171690" lon="-19.4390782">
        <ele>1038.8000</ele>
        <time>2010-01-01T00:35:28Z</time>
      </trkpt>
      <trkpt lat="63.64170520" lon="-19.4390619">
        <ele>1039.1999</ele>
        <time>2010-01-01T00:35:29Z</time>
      </trkpt>
      <trkpt lat="63.64169190" lon="-19.4390441">
        <ele>1039.8000</ele>
        <time>2010-01-01T00:35:29Z</time>
      </trkpt>
      <trkpt lat="63.64167520" lon="-19.4390222">
        <ele>1040.1999</ele>
        <time>2010-01-01T00:35:30Z</time>
      </trkpt>
      <trkpt lat="63.64165600" lon="-19.4390109">
        <ele>1040.1999</ele>
        <time>2010-01-01T00:35:31Z</time>
      </trkpt>
      <trkpt lat="63.64161310" lon="-19.4389807">
        <ele>1040.1999</ele>
        <time>2010-01-01T00:35:33Z</time>
      </trkpt>
      <trkpt lat="63.64160830" lon="-19.4389754">
        <ele>1040.1999</ele>
        <time>2010-01-01T00:35:33Z</time>
      </trkpt>
      <trkpt lat="63.64152900" lon="-19.4388334">
        <ele>1040.4000</ele>
        <time>2010-01-01T00:35:37Z</time>
      </trkpt>
      <trkpt lat="63.64150960" lon="-19.4388116">
        <ele>1040.8000</ele>
        <time>2010-01-01T00:35:38Z</time>
      </trkpt>
      <trkpt lat="63.64148810" lon="-19.4387873">
        <ele>1041.1999</ele>
        <time>2010-01-01T00:35:39Z</time>
      </trkpt>
      <trkpt lat="63.64146480" lon="-19.4387607">
        <ele>1041.4000</ele>
        <time>2010-01-01T00:35:40Z</time>
      </trkpt>
      <trkpt lat="63.64144200" lon="-19.4387338">
        <ele>1041.8000</ele>
        <time>2010-01-01T00:35:41Z</time>
      </trkpt>
      <trkpt lat="63.64141710" lon="-19.4387096">
        <ele>1042.1999</ele>
        <time>2010-01-01T00:35:42Z</time>
      </trkpt>
      <trkpt lat="63.64139140" lon="-19.4386874">
        <ele>1042.1999</ele>
        <time>2010-01-01T00:35:43Z</time>
      </trkpt>
      <trkpt lat="63.64136670" lon="-19.4386647">
        <ele>1042.1999</ele>
        <time>2010-01-01T00:35:44Z</time>
      </trkpt>
      <trkpt lat="63.64134260" lon="-19.4386414">
        <ele>1042.1999</ele>
        <time>2010-01-01T00:35:45Z</time>
      </trkpt>
      <trkpt lat="63.64131970" lon="-19.4386108">
        <ele>1042.1999</ele>
        <time>2010-01-01T00:35:46Z</time>
      </trkpt>
      <trkpt lat="63.64129610" lon="-19.4385707">
        <ele>1042.4000</ele>
        <time>2010-01-01T00:35:47Z</time>
      </trkpt>
      <trkpt lat="63.64127520" lon="-19.4385332">
        <ele>1042.8000</ele>
        <time>2010-01-01T00:35:49Z</time>
      </trkpt>
      <trkpt lat="63.64124730" lon="-19.4384906">
        <ele>1043.1999</ele>
        <time>2010-01-01T00:35:50Z</time>
      </trkpt>
      <trkpt lat="63.64121920" lon="-19.4384596">
        <ele>1043.5999</ele>
        <time>2010-01-01T00:35:51Z</time>
      </trkpt>
      <trkpt lat="63.64119130" lon="-19.4384341">
        <ele>1044.0000</ele>
        <time>2010-01-01T00:35:52Z</time>
      </trkpt>
      <trkpt lat="63.64116400" lon="-19.4384059">
        <ele>1044.1999</ele>
        <time>2010-01-01T00:35:54Z</time>
      </trkpt>
      <trkpt lat="63.64113670" lon="-19.4383799">
        <ele>1044.1999</ele>
        <time>2010-01-01T00:35:55Z</time>
      </trkpt>
      <trkpt lat="63.64111080" lon="-19.4383541">
        <ele>1044.1999</ele>
        <time>2010-01-01T00:35:56Z</time>
      </trkpt>
      <trkpt lat="63.64108190" lon="-19.4383281">
        <ele>1044.1999</ele>
        <time>2010-01-01T00:35:57Z</time>
      </trkpt>
      <trkpt lat="63.64105760" lon="-19.4383089">
        <ele>1044.1999</ele>
        <time>2010-01-01T00:35:58Z</time>
      </trkpt>
      <trkpt lat="63.64102860" lon="-19.4382803">
        <ele>1044.1999</ele>
        <time>2010-01-01T00:35:59Z</time>
      </trkpt>
      <trkpt lat="63.64100050" lon="-19.4382530">
        <ele>1044.1999</ele>
        <time>2010-01-01T00:36:01Z</time>
      </trkpt>
      <trkpt lat="63.64094000" lon="-19.4382027">
        <ele>1044.1999</ele>
        <time>2010-01-01T00:36:03Z</time>
      </trkpt>
      <trkpt lat="63.64091270" lon="-19.4381918">
        <ele>1044.1999</ele>
        <time>2010-01-01T00:36:04Z</time>
      </trkpt>
      <trkpt lat="63.64076870" lon="-19.4381534">
        <ele>1044.1999</ele>
        <time>2010-01-01T00:36:10Z</time>
      </trkpt>
      <trkpt lat="63.64074630" lon="-19.4381978">
        <ele>1044.1999</ele>
        <time>2010-01-01T00:36:11Z</time>
      </trkpt>
      <trkpt lat="63.64070480" lon="-19.4382706">
        <ele>1044.1999</ele>
        <time>2010-01-01T00:36:13Z</time>
      </trkpt>
      <trkpt lat="63.64066030" lon="-19.4383577">
        <ele>1043.8000</ele>
        <time>2010-01-01T00:36:16Z</time>
      </trkpt>
      <trkpt lat="63.64064020" lon="-19.4384017">
        <ele>1043.5999</ele>
        <time>2010-01-01T00:36:17Z</time>
      </trkpt>
      <trkpt lat="63.64061580" lon="-19.4384537">
        <ele>1043.1999</ele>
        <time>2010-01-01T00:36:18Z</time>
      </trkpt>
      <trkpt lat="63.64059130" lon="-19.4384929">
        <ele>1042.8000</ele>
        <time>2010-01-01T00:36:19Z</time>
      </trkpt>
      <trkpt lat="63.64056120" lon="-19.4385235">
        <ele>1042.1999</ele>
        <time>2010-01-01T00:36:21Z</time>
      </trkpt>
      <trkpt lat="63.64053380" lon="-19.4385564">
        <ele>1042.0000</ele>
        <time>2010-01-01T00:36:22Z</time>
      </trkpt>
      <trkpt lat="63.64050400" lon="-19.4385967">
        <ele>1041.8000</ele>
        <time>2010-01-01T00:36:23Z</time>
      </trkpt>
      <trkpt lat="63.64048100" lon="-19.4386184">
        <ele>1041.4000</ele>
        <time>2010-01-01T00:36:24Z</time>
      </trkpt>
      <trkpt lat="63.64045230" lon="-19.4386391">
        <ele>1040.8000</ele>
        <time>2010-01-01T00:36:26Z</time>
      </trkpt>
      <trkpt lat="63.64042750" lon="-19.4386706">
        <ele>1040.4000</ele>
        <time>2010-01-01T00:36:27Z</time>
      </trkpt>
      <trkpt lat="63.64041300" lon="-19.4387065">
        <ele>1040.0000</ele>
        <time>2010-01-01T00:36:28Z</time>
      </trkpt>
      <trkpt lat="63.64039870" lon="-19.4387526">
        <ele>1039.5999</ele>
        <time>2010-01-01T00:36:29Z</time>
      </trkpt>
      <trkpt lat="63.64038360" lon="-19.4387948">
        <ele>1039.5999</ele>
        <time>2010-01-01T00:36:30Z</time>
      </trkpt>
      <trkpt lat="63.64037220" lon="-19.4388347">
        <ele>1039.5999</ele>
        <time>2010-01-01T00:36:30Z</time>
      </trkpt>
      <trkpt lat="63.64035720" lon="-19.4388847">
        <ele>1039.4000</ele>
        <time>2010-01-01T00:36:32Z</time>
      </trkpt>
      <trkpt lat="63.64034470" lon="-19.4389245">
        <ele>1039.1999</ele>
        <time>2010-01-01T00:36:32Z</time>
      </trkpt>
      <trkpt lat="63.64032980" lon="-19.4389722">
        <ele>1038.8000</ele>
        <time>2010-01-01T00:36:33Z</time>
      </trkpt>
      <trkpt lat="63.64031250" lon="-19.4390261">
        <ele>1038.4000</ele>
        <time>2010-01-01T00:36:35Z</time>
      </trkpt>
      <trkpt lat="63.64029770" lon="-19.4390815">
        <ele>1038.1999</ele>
        <time>2010-01-01T00:36:36Z</time>
      </trkpt>
      <trkpt lat="63.64028990" lon="-19.4391328">
        <ele>1037.8000</ele>
        <time>2010-01-01T00:36:37Z</time>
      </trkpt>
      <trkpt lat="63.64028490" lon="-19.4391915">
        <ele>1037.4000</ele>
        <time>2010-01-01T00:36:38Z</time>
      </trkpt>
      <trkpt lat="63.64027850" lon="-19.4392315">
        <ele>1037.4000</ele>
        <time>2010-01-01T00:36:39Z</time>
      </trkpt>
      <trkpt lat="63.64026560" lon="-19.4392695">
        <ele>1037.4000</ele>
        <time>2010-01-01T00:36:39Z</time>
      </trkpt>
      <trkpt lat="63.64023590" lon="-19.4393597">
        <ele>1037.4000</ele>
        <time>2010-01-01T00:36:41Z</time>
      </trkpt>
      <trkpt lat="63.64018340" lon="-19.4395182">
        <ele>1037.4000</ele>
        <time>2010-01-01T00:36:45Z</time>
      </trkpt>
      <trkpt lat="63.64016170" lon="-19.4395719">
        <ele>1037.4000</ele>
        <time>2010-01-01T00:36:46Z</time>
      </trkpt>
      <trkpt lat="63.64005430" lon="-19.4398906">
        <ele>1037.4000</ele>
        <time>2010-01-01T00:36:53Z</time>
      </trkpt>
      <trkpt lat="63.63997870" lon="-19.4401754">
        <ele>1037.4000</ele>
        <time>2010-01-01T00:36:59Z</time>
      </trkpt>
      <trkpt lat="63.63996730" lon="-19.4404268">
        <ele>1037.4000</ele>
        <time>2010-01-01T00:37:04Z</time>
      </trkpt>
      <trkpt lat="63.63996550" lon="-19.4404880">
        <ele>1037.4000</ele>
        <time>2010-01-01T00:37:05Z</time>
      </trkpt>
      <trkpt lat="63.63996240" lon="-19.4405388">
        <ele>1037.4000</ele>
        <time>2010-01-01T00:37:06Z</time>
      </trkpt>
      <trkpt lat="63.63995860" lon="-19.4406001">
        <ele>1037.4000</ele>
        <time>2010-01-01T00:37:07Z</time>
      </trkpt>
      <trkpt lat="63.63995910" lon="-19.4406604">
        <ele>1037.4000</ele>
        <time>2010-01-01T00:37:08Z</time>
      </trkpt>
      <trkpt lat="63.63996160" lon="-19.4407209">
        <ele>1037.4000</ele>
        <time>2010-01-01T00:37:09Z</time>
      </trkpt>
      <trkpt lat="63.63995650" lon="-19.4407794">
        <ele>1037.4000</ele>
        <time>2010-01-01T00:37:10Z</time>
      </trkpt>
      <trkpt lat="63.63993940" lon="-19.4409526">
        <ele>1037.4000</ele>
        <time>2010-01-01T00:37:13Z</time>
      </trkpt>
      <trkpt lat="63.63993670" lon="-19.4411086">
        <ele>1037.4000</ele>
        <time>2010-01-01T00:37:16Z</time>
      </trkpt>
      <trkpt lat="63.63994290" lon="-19.4411577">
        <ele>1037.4000</ele>
        <time>2010-01-01T00:37:17Z</time>
      </trkpt>
      <trkpt lat="63.63995240" lon="-19.4412046">
        <ele>1037.4000</ele>
        <time>2010-01-01T00:37:18Z</time>
      </trkpt>
      <trkpt lat="63.63999460" lon="-19.4413880">
        <ele>1037.4000</ele>
        <time>2010-01-01T00:37:21Z</time>
      </trkpt>
      <trkpt lat="63.64002560" lon="-19.4414478">
        <ele>1037.4000</ele>
        <time>2010-01-01T00:37:23Z</time>
      </trkpt>
      <trkpt lat="63.64002070" lon="-19.4414600">
        <ele>1037.4000</ele>
        <time>2010-01-01T00:37:23Z</time>
      </trkpt>
      <trkpt lat="63.64000630" lon="-19.4414626">
        <ele>1037.4000</ele>
        <time>2010-01-01T00:37:24Z</time>
      </trkpt>
      <trkpt lat="63.63993090" lon="-19.4415045">
        <ele>1037.4000</ele>
        <time>2010-01-01T00:37:27Z</time>
      </trkpt>
      <trkpt lat="63.63990240" lon="-19.4415369">
        <ele>1037.4000</ele>
        <time>2010-01-01T00:37:28Z</time>
      </trkpt>
      <trkpt lat="63.63987150" lon="-19.4415814">
        <ele>1037.0000</ele>
        <time>2010-01-01T00:37:30Z</time>
      </trkpt>
      <trkpt lat="63.63983620" lon="-19.4416411">
        <ele>1036.5999</ele>
        <time>2010-01-01T00:37:32Z</time>
      </trkpt>
      <trkpt lat="63.63980500" lon="-19.4416984">
        <ele>1036.4000</ele>
        <time>2010-01-01T00:37:33Z</time>
      </trkpt>
      <trkpt lat="63.63977670" lon="-19.4417598">
        <ele>1035.5999</ele>
        <time>2010-01-01T00:37:35Z</time>
      </trkpt>
      <trkpt lat="63.63974730" lon="-19.4418189">
        <ele>1034.5999</ele>
        <time>2010-01-01T00:37:36Z</time>
      </trkpt>
      <trkpt lat="63.63971940" lon="-19.4418783">
        <ele>1033.8000</ele>
        <time>2010-01-01T00:37:38Z</time>
      </trkpt>
      <trkpt lat="63.63969720" lon="-19.4419352">
        <ele>1032.8000</ele>
        <time>2010-01-01T00:37:39Z</time>
      </trkpt>
      <trkpt lat="63.63967820" lon="-19.4419885">
        <ele>1032.0000</ele>
        <time>2010-01-01T00:37:40Z</time>
      </trkpt>
      <trkpt lat="63.63965770" lon="-19.4420389">
        <ele>1031.4000</ele>
        <time>2010-01-01T00:37:42Z</time>
      </trkpt>
      <trkpt lat="63.63963620" lon="-19.4420849">
        <ele>1030.8000</ele>
        <time>2010-01-01T00:37:43Z</time>
      </trkpt>
      <trkpt lat="63.63961420" lon="-19.4421283">
        <ele>1030.1999</ele>
        <time>2010-01-01T00:37:44Z</time>
      </trkpt>
      <trkpt lat="63.63959160" lon="-19.4421744">
        <ele>1029.5999</ele>
        <time>2010-01-01T00:37:45Z</time>
      </trkpt>
      <trkpt lat="63.63957400" lon="-19.4422181">
        <ele>1029.1999</ele>
        <time>2010-01-01T00:37:46Z</time>
      </trkpt>
      <trkpt lat="63.63955680" lon="-19.4422691">
        <ele>1029.0000</ele>
        <time>2010-01-01T00:37:47Z</time>
      </trkpt>
      <trkpt lat="63.63953800" lon="-19.4423154">
        <ele>1029.0000</ele>
        <time>2010-01-01T00:37:49Z</time>
      </trkpt>
      <trkpt lat="63.63951910" lon="-19.4423565">
        <ele>1028.8000</ele>
        <time>2010-01-01T00:37:50Z</time>
      </trkpt>
      <trkpt lat="63.63950200" lon="-19.4423953">
        <ele>1028.4000</ele>
        <time>2010-01-01T00:37:51Z</time>
      </trkpt>
      <trkpt lat="63.63948620" lon="-19.4424315">
        <ele>1028.0000</ele>
        <time>2010-01-01T00:37:51Z</time>
      </trkpt>
      <trkpt lat="63.63946830" lon="-19.4424727">
        <ele>1027.5999</ele>
        <time>2010-01-01T00:37:52Z</time>
      </trkpt>
      <trkpt lat="63.63945390" lon="-19.4425040">
        <ele>1027.1999</ele>
        <time>2010-01-01T00:37:53Z</time>
      </trkpt>
      <trkpt lat="63.63944120" lon="-19.4425367">
        <ele>1027.1999</ele>
        <time>2010-01-01T00:37:54Z</time>
      </trkpt>
      <trkpt lat="63.63941800" lon="-19.4425575">
        <ele>1027.0000</ele>
        <time>2010-01-01T00:37:55Z</time>
      </trkpt>
      <trkpt lat="63.63938100" lon="-19.4426407">
        <ele>1027.0000</ele>
        <time>2010-01-01T00:37:57Z</time>
      </trkpt>
      <trkpt lat="63.63930190" lon="-19.4428319">
        <ele>1027.0000</ele>
        <time>2010-01-01T00:38:02Z</time>
      </trkpt>
      <trkpt lat="63.63929310" lon="-19.4428531">
        <ele>1027.0000</ele>
        <time>2010-01-01T00:38:02Z</time>
      </trkpt>
      <trkpt lat="63.63928170" lon="-19.4428815">
        <ele>1027.0000</ele>
        <time>2010-01-01T00:38:03Z</time>
      </trkpt>
      <trkpt lat="63.63927050" lon="-19.4429206">
        <ele>1027.1999</ele>
        <time>2010-01-01T00:38:04Z</time>
      </trkpt>
      <trkpt lat="63.63925930" lon="-19.4429513">
        <ele>1027.5999</ele>
        <time>2010-01-01T00:38:04Z</time>
      </trkpt>
      <trkpt lat="63.63924850" lon="-19.4429788">
        <ele>1028.0000</ele>
        <time>2010-01-01T00:38:05Z</time>
      </trkpt>
      <trkpt lat="63.63923750" lon="-19.4430040">
        <ele>1028.4000</ele>
        <time>2010-01-01T00:38:06Z</time>
      </trkpt>
      <trkpt lat="63.63922270" lon="-19.4430307">
        <ele>1028.8000</ele>
        <time>2010-01-01T00:38:07Z</time>
      </trkpt>
      <trkpt lat="63.63920570" lon="-19.4430588">
        <ele>1029.1999</ele>
        <time>2010-01-01T00:38:07Z</time>
      </trkpt>
      <trkpt lat="63.63918680" lon="-19.4430846">
        <ele>1029.1999</ele>
        <time>2010-01-01T00:38:08Z</time>
      </trkpt>
      <trkpt lat="63.63916900" lon="-19.4431022">
        <ele>1029.1999</ele>
        <time>2010-01-01T00:38:09Z</time>
      </trkpt>
      <trkpt lat="63.63911100" lon="-19.4431826">
        <ele>1029.1999</ele>
        <time>2010-01-01T00:38:12Z</time>
      </trkpt>
      <trkpt lat="63.63909390" lon="-19.4432054">
        <ele>1029.1999</ele>
        <time>2010-01-01T00:38:13Z</time>
      </trkpt>
      <trkpt lat="63.63894790" lon="-19.4433233">
        <ele>1029.1999</ele>
        <time>2010-01-01T00:38:19Z</time>
      </trkpt>
      <trkpt lat="63.63888280" lon="-19.4433703">
        <ele>1029.4000</ele>
        <time>2010-01-01T00:38:22Z</time>
      </trkpt>
      <trkpt lat="63.63886670" lon="-19.4433831">
        <ele>1029.8000</ele>
        <time>2010-01-01T00:38:22Z</time>
      </trkpt>
      <trkpt lat="63.63885140" lon="-19.4433944">
        <ele>1030.4000</ele>
        <time>2010-01-01T00:38:23Z</time>
      </trkpt>
      <trkpt lat="63.63883240" lon="-19.4434109">
        <ele>1030.8000</ele>
        <time>2010-01-01T00:38:24Z</time>
      </trkpt>
      <trkpt lat="63.63881340" lon="-19.4434250">
        <ele>1031.1999</ele>
        <time>2010-01-01T00:38:24Z</time>
      </trkpt>
      <trkpt lat="63.63874950" lon="-19.4434836">
        <ele>1031.1999</ele>
        <time>2010-01-01T00:38:27Z</time>
      </trkpt>
      <trkpt lat="63.63872730" lon="-19.4435018">
        <ele>1031.1999</ele>
        <time>2010-01-01T00:38:28Z</time>
      </trkpt>
      <trkpt lat="63.63867200" lon="-19.4435188">
        <ele>1031.1999</ele>
        <time>2010-01-01T00:38:30Z</time>
      </trkpt>
      <trkpt lat="63.63861260" lon="-19.4434733">
        <ele>1031.1999</ele>
        <time>2010-01-01T00:38:33Z</time>
      </trkpt>
      <trkpt lat="63.63855920" lon="-19.4433881">
        <ele>1031.4000</ele>
        <time>2010-01-01T00:38:36Z</time>
      </trkpt>
      <trkpt lat="63.63854950" lon="-19.4433685">
        <ele>1031.8000</ele>
        <time>2010-01-01T00:38:36Z</time>
      </trkpt>
      <trkpt lat="63.63853940" lon="-19.4433460">
        <ele>1032.0000</ele>
        <time>2010-01-01T00:38:37Z</time>
      </trkpt>
      <trkpt lat="63.63853160" lon="-19.4433244">
        <ele>1032.4000</ele>
        <time>2010-01-01T00:38:37Z</time>
      </trkpt>
      <trkpt lat="63.63852400" lon="-19.4433090">
        <ele>1032.8000</ele>
        <time>2010-01-01T00:38:38Z</time>
      </trkpt>
      <trkpt lat="63.63851520" lon="-19.4432919">
        <ele>1033.1999</ele>
        <time>2010-01-01T00:38:38Z</time>
      </trkpt>
      <trkpt lat="63.63848230" lon="-19.4432419">
        <ele>1033.1999</ele>
        <time>2010-01-01T00:38:40Z</time>
      </trkpt>
      <trkpt lat="63.63846190" lon="-19.4432049">
        <ele>1033.1999</ele>
        <time>2010-01-01T00:38:41Z</time>
      </trkpt>
      <trkpt lat="63.63842090" lon="-19.4431070">
        <ele>1033.1999</ele>
        <time>2010-01-01T00:38:43Z</time>
      </trkpt>
      <trkpt lat="63.63836900" lon="-19.4430089">
        <ele>1033.4000</ele>
        <time>2010-01-01T00:38:46Z</time>
      </trkpt>
      <trkpt lat="63.63835570" lon="-19.4429953">
        <ele>1033.8000</ele>
        <time>2010-01-01T00:38:46Z</time>
      </trkpt>
      <trkpt lat="63.63834340" lon="-19.4429785">
        <ele>1034.1999</ele>
        <time>2010-01-01T00:38:47Z</time>
      </trkpt>
      <trkpt lat="63.63833290" lon="-19.4429598">
        <ele>1034.5999</ele>
        <time>2010-01-01T00:38:47Z</time>
      </trkpt>
      <trkpt lat="63.63832260" lon="-19.4429395">
        <ele>1035.0000</ele>
        <time>2010-01-01T00:38:48Z</time>
      </trkpt>
      <trkpt lat="63.63831340" lon="-19.4429167">
        <ele>1035.1999</ele>
        <time>2010-01-01T00:38:49Z</time>
      </trkpt>
      <trkpt lat="63.63829560" lon="-19.4428648">
        <ele>1035.1999</ele>
        <time>2010-01-01T00:38:50Z</time>
      </trkpt>
      <trkpt lat="63.63828350" lon="-19.4428423">
        <ele>1035.1999</ele>
        <time>2010-01-01T00:38:50Z</time>
      </trkpt>
      <trkpt lat="63.63827560" lon="-19.4428241">
        <ele>1035.1999</ele>
        <time>2010-01-01T00:38:51Z</time>
      </trkpt>
      <trkpt lat="63.63826900" lon="-19.4428100">
        <ele>1035.1999</ele>
        <time>2010-01-01T00:38:51Z</time>
      </trkpt>
      <trkpt lat="63.63819330" lon="-19.4427047">
        <ele>1035.1999</ele>
        <time>2010-01-01T00:38:55Z</time>
      </trkpt>
      <trkpt lat="63.63817710" lon="-19.4426952">
        <ele>1035.1999</ele>
        <time>2010-01-01T00:38:55Z</time>
      </trkpt>
      <trkpt lat="63.63813290" lon="-19.4426782">
        <ele>1035.4000</ele>
        <time>2010-01-01T00:38:57Z</time>
      </trkpt>
      <trkpt lat="63.63811990" lon="-19.4426675">
        <ele>1035.1999</ele>
        <time>2010-01-01T00:38:58Z</time>
      </trkpt>
      <trkpt lat="63.63810630" lon="-19.4426252">
        <ele>1035.4000</ele>
        <time>2010-01-01T00:38:59Z</time>
      </trkpt>
      <trkpt lat="63.63809550" lon="-19.4426117">
        <ele>1035.5999</ele>
        <time>2010-01-01T00:38:59Z</time>
      </trkpt>
      <trkpt lat="63.63808350" lon="-19.4426076">
        <ele>1036.0000</ele>
        <time>2010-01-01T00:39:00Z</time>
      </trkpt>
      <trkpt lat="63.63806960" lon="-19.4425981">
        <ele>1036.1999</ele>
        <time>2010-01-01T00:39:00Z</time>
      </trkpt>
      <trkpt lat="63.63805510" lon="-19.4425863">
        <ele>1036.5999</ele>
        <time>2010-01-01T00:39:01Z</time>
      </trkpt>
      <trkpt lat="63.63804180" lon="-19.4425779">
        <ele>1037.0000</ele>
        <time>2010-01-01T00:39:01Z</time>
      </trkpt>
      <trkpt lat="63.63802760" lon="-19.4425685">
        <ele>1037.1999</ele>
        <time>2010-01-01T00:39:02Z</time>
      </trkpt>
      <trkpt lat="63.63801540" lon="-19.4425620">
        <ele>1037.4000</ele>
        <time>2010-01-01T00:39:02Z</time>
      </trkpt>
      <trkpt lat="63.63797720" lon="-19.4425497">
        <ele>1037.4000</ele>
        <time>2010-01-01T00:39:04Z</time>
      </trkpt>
      <trkpt lat="63.63796170" lon="-19.4425363">
        <ele>1037.4000</ele>
        <time>2010-01-01T00:39:05Z</time>
      </trkpt>
      <trkpt lat="63.63785380" lon="-19.4424825">
        <ele>1037.4000</ele>
        <time>2010-01-01T00:39:09Z</time>
      </trkpt>
      <trkpt lat="63.63783560" lon="-19.4424659">
        <ele>1037.4000</ele>
        <time>2010-01-01T00:39:10Z</time>
      </trkpt>
      <trkpt lat="63.63781820" lon="-19.4424526">
        <ele>1037.4000</ele>
        <time>2010-01-01T00:39:11Z</time>
      </trkpt>
      <trkpt lat="63.63775010" lon="-19.4424139">
        <ele>1037.4000</ele>
        <time>2010-01-01T00:39:13Z</time>
      </trkpt>
      <trkpt lat="63.63770300" lon="-19.4423834">
        <ele>1037.4000</ele>
        <time>2010-01-01T00:39:15Z</time>
      </trkpt>
      <trkpt lat="63.63768350" lon="-19.4423590">
        <ele>1037.4000</ele>
        <time>2010-01-01T00:39:16Z</time>
      </trkpt>
      <trkpt lat="63.63766000" lon="-19.4423455">
        <ele>1037.5999</ele>
        <time>2010-01-01T00:39:17Z</time>
      </trkpt>
      <trkpt lat="63.63764410" lon="-19.4423372">
        <ele>1038.0000</ele>
        <time>2010-01-01T00:39:18Z</time>
      </trkpt>
      <trkpt lat="63.63762970" lon="-19.4423281">
        <ele>1038.5999</ele>
        <time>2010-01-01T00:39:19Z</time>
      </trkpt>
      <trkpt lat="63.63761820" lon="-19.4423165">
        <ele>1039.0000</ele>
        <time>2010-01-01T00:39:19Z</time>
      </trkpt>
      <trkpt lat="63.63760620" lon="-19.4423060">
        <ele>1039.1999</ele>
        <time>2010-01-01T00:39:20Z</time>
      </trkpt>
      <trkpt lat="63.63759650" lon="-19.4422836">
        <ele>1039.4000</ele>
        <time>2010-01-01T00:39:20Z</time>
      </trkpt>
      <trkpt lat="63.63755610" lon="-19.4421554">
        <ele>1039.4000</ele>
        <time>2010-01-01T00:39:23Z</time>
      </trkpt>
      <trkpt lat="63.63748210" lon="-19.4420858">
        <ele>1039.4000</ele>
        <time>2010-01-01T00:39:26Z</time>
      </trkpt>
      <trkpt lat="63.63740360" lon="-19.4421103">
        <ele>1039.4000</ele>
        <time>2010-01-01T00:39:29Z</time>
      </trkpt>
      <trkpt lat="63.63730330" lon="-19.4421404">
        <ele>1039.8000</ele>
        <time>2010-01-01T00:39:33Z</time>
      </trkpt>
      <trkpt lat="63.63727810" lon="-19.4421538">
        <ele>1040.1999</ele>
        <time>2010-01-01T00:39:34Z</time>
      </trkpt>
      <trkpt lat="63.63726270" lon="-19.4421818">
        <ele>1040.8000</ele>
        <time>2010-01-01T00:39:35Z</time>
      </trkpt>
      <trkpt lat="63.63724770" lon="-19.4422150">
        <ele>1041.1999</ele>
        <time>2010-01-01T00:39:36Z</time>
      </trkpt>
      <trkpt lat="63.63723420" lon="-19.4422560">
        <ele>1041.5999</ele>
        <time>2010-01-01T00:39:37Z</time>
      </trkpt>
      <trkpt lat="63.63722290" lon="-19.4422885">
        <ele>1041.5999</ele>
        <time>2010-01-01T00:39:38Z</time>
      </trkpt>
      <trkpt lat="63.63717750" lon="-19.4423416">
        <ele>1041.5999</ele>
        <time>2010-01-01T00:39:40Z</time>
      </trkpt>
      <trkpt lat="63.63715090" lon="-19.4423594">
        <ele>1041.5999</ele>
        <time>2010-01-01T00:39:41Z</time>
      </trkpt>
      <trkpt lat="63.63713330" lon="-19.4423787">
        <ele>1041.5999</ele>
        <time>2010-01-01T00:39:42Z</time>
      </trkpt>
      <trkpt lat="63.63712030" lon="-19.4423960">
        <ele>1041.5999</ele>
        <time>2010-01-01T00:39:42Z</time>
      </trkpt>
      <trkpt lat="63.63710780" lon="-19.4424118">
        <ele>1041.5999</ele>
        <time>2010-01-01T00:39:43Z</time>
      </trkpt>
      <trkpt lat="63.63709340" lon="-19.4424039">
        <ele>1041.5999</ele>
        <time>2010-01-01T00:39:43Z</time>
      </trkpt>
      <trkpt lat="63.63705240" lon="-19.4424812">
        <ele>1041.5999</ele>
        <time>2010-01-01T00:39:45Z</time>
      </trkpt>
      <trkpt lat="63.63704200" lon="-19.4424786">
        <ele>1041.5999</ele>
        <time>2010-01-01T00:39:46Z</time>
      </trkpt>
      <trkpt lat="63.63701350" lon="-19.4425070">
        <ele>1041.5999</ele>
        <time>2010-01-01T00:39:47Z</time>
      </trkpt>
      <trkpt lat="63.63700000" lon="-19.4425215">
        <ele>1041.5999</ele>
        <time>2010-01-01T00:39:48Z</time>
      </trkpt>
      <trkpt lat="63.63698770" lon="-19.4425408">
        <ele>1041.8000</ele>
        <time>2010-01-01T00:39:48Z</time>
      </trkpt>
      <trkpt lat="63.63698310" lon="-19.4425563">
        <ele>1042.1999</ele>
        <time>2010-01-01T00:39:49Z</time>
      </trkpt>
      <trkpt lat="63.63697730" lon="-19.4425733">
        <ele>1042.5999</ele>
        <time>2010-01-01T00:39:49Z</time>
      </trkpt>
      <trkpt lat="63.63696960" lon="-19.4425916">
        <ele>1043.1999</ele>
        <time>2010-01-01T00:39:50Z</time>
      </trkpt>
      <trkpt lat="63.63696180" lon="-19.4426103">
        <ele>1043.5999</ele>
        <time>2010-01-01T00:39:50Z</time>
      </trkpt>
      <trkpt lat="63.63691560" lon="-19.4427003">
        <ele>1043.5999</ele>
        <time>2010-01-01T00:39:52Z</time>
      </trkpt>
      <trkpt lat="63.63685240" lon="-19.4428014">
        <ele>1043.5999</ele>
        <time>2010-01-01T00:39:56Z</time>
      </trkpt>
      <trkpt lat="63.63684410" lon="-19.4428196">
        <ele>1043.8000</ele>
        <time>2010-01-01T00:39:56Z</time>
      </trkpt>
      <trkpt lat="63.63683530" lon="-19.4428306">
        <ele>1044.1999</ele>
        <time>2010-01-01T00:39:56Z</time>
      </trkpt>
      <trkpt lat="63.63682650" lon="-19.4428390">
        <ele>1044.5999</ele>
        <time>2010-01-01T00:39:57Z</time>
      </trkpt>
      <trkpt lat="63.63681820" lon="-19.4428467">
        <ele>1045.0000</ele>
        <time>2010-01-01T00:39:57Z</time>
      </trkpt>
      <trkpt lat="63.63681070" lon="-19.4428550">
        <ele>1045.4000</ele>
        <time>2010-01-01T00:39:57Z</time>
      </trkpt>
      <trkpt lat="63.63680280" lon="-19.4428604">
        <ele>1045.5999</ele>
        <time>2010-01-01T00:39:58Z</time>
      </trkpt>
      <trkpt lat="63.63678540" lon="-19.4428735">
        <ele>1045.5999</ele>
        <time>2010-01-01T00:39:59Z</time>
      </trkpt>
      <trkpt lat="63.63673170" lon="-19.4429539">
        <ele>1045.5999</ele>
        <time>2010-01-01T00:40:01Z</time>
      </trkpt>
      <trkpt lat="63.63672130" lon="-19.4429617">
        <ele>1045.5999</ele>
        <time>2010-01-01T00:40:02Z</time>
      </trkpt>
      <trkpt lat="63.63667590" lon="-19.4429011">
        <ele>1045.8000</ele>
        <time>2010-01-01T00:40:04Z</time>
      </trkpt>
      <trkpt lat="63.63666940" lon="-19.4428771">
        <ele>1046.1999</ele>
        <time>2010-01-01T00:40:04Z</time>
      </trkpt>
      <trkpt lat="63.63666440" lon="-19.4428559">
        <ele>1046.5999</ele>
        <time>2010-01-01T00:40:05Z</time>
      </trkpt>
      <trkpt lat="63.63666010" lon="-19.4428404">
        <ele>1047.0000</ele>
        <time>2010-01-01T00:40:05Z</time>
      </trkpt>
      <trkpt lat="63.63665590" lon="-19.4428272">
        <ele>1047.4000</ele>
        <time>2010-01-01T00:40:05Z</time>
      </trkpt>
      <trkpt lat="63.63665050" lon="-19.4428169">
        <ele>1047.5999</ele>
        <time>2010-01-01T00:40:05Z</time>
      </trkpt>
      <trkpt lat="63.63664190" lon="-19.4428122">
        <ele>1047.5999</ele>
        <time>2010-01-01T00:40:06Z</time>
      </trkpt>
      <trkpt lat="63.63661940" lon="-19.4428187">
        <ele>1047.8000</ele>
        <time>2010-01-01T00:40:07Z</time>
      </trkpt>
      <trkpt lat="63.63660730" lon="-19.4428178">
        <ele>1048.1999</ele>
        <time>2010-01-01T00:40:07Z</time>
      </trkpt>
      <trkpt lat="63.63659650" lon="-19.4428174">
        <ele>1048.5999</ele>
        <time>2010-01-01T00:40:08Z</time>
      </trkpt>
      <trkpt lat="63.63658600" lon="-19.4428195">
        <ele>1049.0000</ele>
        <time>2010-01-01T00:40:08Z</time>
      </trkpt>
      <trkpt lat="63.63657500" lon="-19.4428377">
        <ele>1049.4000</ele>
        <time>2010-01-01T00:40:09Z</time>
      </trkpt>
      <trkpt lat="63.63656230" lon="-19.4428538">
        <ele>1049.8000</ele>
        <time>2010-01-01T00:40:09Z</time>
      </trkpt>
      <trkpt lat="63.63651440" lon="-19.4429024">
        <ele>1049.8000</ele>
        <time>2010-01-01T00:40:11Z</time>
      </trkpt>
      <trkpt lat="63.63644160" lon="-19.4428511">
        <ele>1049.8000</ele>
        <time>2010-01-01T00:40:14Z</time>
      </trkpt>
      <trkpt lat="63.63641260" lon="-19.4428243">
        <ele>1048.8000</ele>
        <time>2010-01-01T00:40:16Z</time>
      </trkpt>
      <trkpt lat="63.63638570" lon="-19.4428019">
        <ele>1048.5999</ele>
        <time>2010-01-01T00:40:17Z</time>
      </trkpt>
      <trkpt lat="63.63636760" lon="-19.4427764">
        <ele>1048.8000</ele>
        <time>2010-01-01T00:40:18Z</time>
      </trkpt>
      <trkpt lat="63.63631610" lon="-19.4427694">
        <ele>1048.8000</ele>
        <time>2010-01-01T00:40:20Z</time>
      </trkpt>
      <trkpt lat="63.63628090" lon="-19.4427816">
        <ele>1048.4000</ele>
        <time>2010-01-01T00:40:21Z</time>
      </trkpt>
      <trkpt lat="63.63624310" lon="-19.4427938">
        <ele>1048.1999</ele>
        <time>2010-01-01T00:40:23Z</time>
      </trkpt>
      <trkpt lat="63.63620380" lon="-19.4427901">
        <ele>1048.0000</ele>
        <time>2010-01-01T00:40:24Z</time>
      </trkpt>
      <trkpt lat="63.63616440" lon="-19.4427997">
        <ele>1047.5999</ele>
        <time>2010-01-01T00:40:26Z</time>
      </trkpt>
      <trkpt lat="63.63612820" lon="-19.4428006">
        <ele>1047.1999</ele>
        <time>2010-01-01T00:40:27Z</time>
      </trkpt>
      <trkpt lat="63.63608810" lon="-19.4428019">
        <ele>1047.0000</ele>
        <time>2010-01-01T00:40:29Z</time>
      </trkpt>
      <trkpt lat="63.63604700" lon="-19.4428040">
        <ele>1046.1999</ele>
        <time>2010-01-01T00:40:30Z</time>
      </trkpt>
      <trkpt lat="63.63599530" lon="-19.4428028">
        <ele>1045.5999</ele>
        <time>2010-01-01T00:40:33Z</time>
      </trkpt>
      <trkpt lat="63.63595250" lon="-19.4428029">
        <ele>1044.8000</ele>
        <time>2010-01-01T00:40:34Z</time>
      </trkpt>
      <trkpt lat="63.63591610" lon="-19.4428037">
        <ele>1043.5999</ele>
        <time>2010-01-01T00:40:36Z</time>
      </trkpt>
      <trkpt lat="63.63587560" lon="-19.4428031">
        <ele>1042.5999</ele>
        <time>2010-01-01T00:40:37Z</time>
      </trkpt>
      <trkpt lat="63.63583710" lon="-19.4428012">
        <ele>1041.4000</ele>
        <time>2010-01-01T00:40:39Z</time>
      </trkpt>
      <trkpt lat="63.63579600" lon="-19.4427983">
        <ele>1040.4000</ele>
        <time>2010-01-01T00:40:41Z</time>
      </trkpt>
      <trkpt lat="63.63575840" lon="-19.4427937">
        <ele>1039.8000</ele>
        <time>2010-01-01T00:40:42Z</time>
      </trkpt>
      <trkpt lat="63.63572360" lon="-19.4427878">
        <ele>1039.1999</ele>
        <time>2010-01-01T00:40:43Z</time>
      </trkpt>
      <trkpt lat="63.63569490" lon="-19.4427901">
        <ele>1038.5999</ele>
        <time>2010-01-01T00:40:45Z</time>
      </trkpt>
      <trkpt lat="63.63566910" lon="-19.4428091">
        <ele>1038.0000</ele>
        <time>2010-01-01T00:40:46Z</time>
      </trkpt>
      <trkpt lat="63.63564360" lon="-19.4428392">
        <ele>1037.4000</ele>
        <time>2010-01-01T00:40:47Z</time>
      </trkpt>
      <trkpt lat="63.63559240" lon="-19.4428995">
        <ele>1037.1999</ele>
        <time>2010-01-01T00:40:49Z</time>
      </trkpt>
      <trkpt lat="63.63555710" lon="-19.4429191">
        <ele>1037.4000</ele>
        <time>2010-01-01T00:40:51Z</time>
      </trkpt>
      <trkpt lat="63.63548490" lon="-19.4429251">
        <ele>1037.0000</ele>
        <time>2010-01-01T00:40:54Z</time>
      </trkpt>
      <trkpt lat="63.63544760" lon="-19.4429148">
        <ele>1036.4000</ele>
        <time>2010-01-01T00:40:55Z</time>
      </trkpt>
      <trkpt lat="63.63541250" lon="-19.4429022">
        <ele>1036.0000</ele>
        <time>2010-01-01T00:40:56Z</time>
      </trkpt>
      <trkpt lat="63.63538040" lon="-19.4428881">
        <ele>1035.1999</ele>
        <time>2010-01-01T00:40:58Z</time>
      </trkpt>
      <trkpt lat="63.63535270" lon="-19.4428773">
        <ele>1034.5999</ele>
        <time>2010-01-01T00:40:59Z</time>
      </trkpt>
      <trkpt lat="63.63532270" lon="-19.4428698">
        <ele>1033.8000</ele>
        <time>2010-01-01T00:41:00Z</time>
      </trkpt>
      <trkpt lat="63.63529480" lon="-19.4428646">
        <ele>1032.8000</ele>
        <time>2010-01-01T00:41:01Z</time>
      </trkpt>
      <trkpt lat="63.63526700" lon="-19.4428586">
        <ele>1031.8000</ele>
        <time>2010-01-01T00:41:02Z</time>
      </trkpt>
      <trkpt lat="63.63524010" lon="-19.4428479">
        <ele>1030.8000</ele>
        <time>2010-01-01T00:41:03Z</time>
      </trkpt>
      <trkpt lat="63.63521340" lon="-19.4428402">
        <ele>1029.8000</ele>
        <time>2010-01-01T00:41:04Z</time>
      </trkpt>
      <trkpt lat="63.63518660" lon="-19.4428319">
        <ele>1029.1999</ele>
        <time>2010-01-01T00:41:06Z</time>
      </trkpt>
      <trkpt lat="63.63515900" lon="-19.4428208">
        <ele>1028.4000</ele>
        <time>2010-01-01T00:41:07Z</time>
      </trkpt>
      <trkpt lat="63.63513140" lon="-19.4428112">
        <ele>1027.5999</ele>
        <time>2010-01-01T00:41:08Z</time>
      </trkpt>
      <trkpt lat="63.63510210" lon="-19.4428018">
        <ele>1026.8000</ele>
        <time>2010-01-01T00:41:09Z</time>
      </trkpt>
      <trkpt lat="63.63507980" lon="-19.4427915">
        <ele>1026.4000</ele>
        <time>2010-01-01T00:41:10Z</time>
      </trkpt>
      <trkpt lat="63.63502760" lon="-19.4427702">
        <ele>1026.8000</ele>
        <time>2010-01-01T00:41:12Z</time>
      </trkpt>
      <trkpt lat="63.63497460" lon="-19.4427612">
        <ele>1026.8000</ele>
        <time>2010-01-01T00:41:14Z</time>
      </trkpt>
      <trkpt lat="63.63481680" lon="-19.4426874">
        <ele>1026.5999</ele>
        <time>2010-01-01T00:41:21Z</time>
      </trkpt>
      <trkpt lat="63.63479090" lon="-19.4426754">
        <ele>1026.4000</ele>
        <time>2010-01-01T00:41:22Z</time>
      </trkpt>
      <trkpt lat="63.63476800" lon="-19.4426746">
        <ele>1026.1999</ele>
        <time>2010-01-01T00:41:23Z</time>
      </trkpt>
      <trkpt lat="63.63474390" lon="-19.4426735">
        <ele>1025.8000</ele>
        <time>2010-01-01T00:41:24Z</time>
      </trkpt>
      <trkpt lat="63.63471630" lon="-19.4426708">
        <ele>1025.5999</ele>
        <time>2010-01-01T00:41:25Z</time>
      </trkpt>
      <trkpt lat="63.63468590" lon="-19.4426705">
        <ele>1025.4000</ele>
        <time>2010-01-01T00:41:26Z</time>
      </trkpt>
      <trkpt lat="63.63466440" lon="-19.4426612">
        <ele>1025.0000</ele>
        <time>2010-01-01T00:41:27Z</time>
      </trkpt>
      <trkpt lat="63.63464080" lon="-19.4426568">
        <ele>1024.8000</ele>
        <time>2010-01-01T00:41:28Z</time>
      </trkpt>
      <trkpt lat="63.63461540" lon="-19.4426514">
        <ele>1024.8000</ele>
        <time>2010-01-01T00:41:29Z</time>
      </trkpt>
      <trkpt lat="63.63459170" lon="-19.4426525">
        <ele>1024.8000</ele>
        <time>2010-01-01T00:41:30Z</time>
      </trkpt>
      <trkpt lat="63.63456840" lon="-19.4426603">
        <ele>1024.8000</ele>
        <time>2010-01-01T00:41:31Z</time>
      </trkpt>
      <trkpt lat="63.63454650" lon="-19.4426528">
        <ele>1024.8000</ele>
        <time>2010-01-01T00:41:31Z</time>
      </trkpt>
      <trkpt lat="63.63452400" lon="-19.4426469">
        <ele>1024.8000</ele>
        <time>2010-01-01T00:41:32Z</time>
      </trkpt>
      <trkpt lat="63.63450120" lon="-19.4426414">
        <ele>1024.8000</ele>
        <time>2010-01-01T00:41:33Z</time>
      </trkpt>
      <trkpt lat="63.63447970" lon="-19.4426392">
        <ele>1024.8000</ele>
        <time>2010-01-01T00:41:34Z</time>
      </trkpt>
      <trkpt lat="63.63446030" lon="-19.4426314">
        <ele>1024.8000</ele>
        <time>2010-01-01T00:41:35Z</time>
      </trkpt>
      <trkpt lat="63.63438870" lon="-19.4426368">
        <ele>1024.5999</ele>
        <time>2010-01-01T00:41:38Z</time>
      </trkpt>
      <trkpt lat="63.63436820" lon="-19.4426329">
        <ele>1024.1999</ele>
        <time>2010-01-01T00:41:39Z</time>
      </trkpt>
      <trkpt lat="63.63434960" lon="-19.4426240">
        <ele>1023.7999</ele>
        <time>2010-01-01T00:41:39Z</time>
      </trkpt>
      <trkpt lat="63.63432720" lon="-19.4426211">
        <ele>1023.4000</ele>
        <time>2010-01-01T00:41:40Z</time>
      </trkpt>
      <trkpt lat="63.63430830" lon="-19.4426206">
        <ele>1023.0000</ele>
        <time>2010-01-01T00:41:41Z</time>
      </trkpt>
      <trkpt lat="63.63429130" lon="-19.4426190">
        <ele>1022.7999</ele>
        <time>2010-01-01T00:41:42Z</time>
      </trkpt>
      <trkpt lat="63.63425480" lon="-19.4426109">
        <ele>1022.7999</ele>
        <time>2010-01-01T00:41:43Z</time>
      </trkpt>
      <trkpt lat="63.63425110" lon="-19.4426071">
        <ele>1022.7999</ele>
        <time>2010-01-01T00:41:43Z</time>
      </trkpt>
      <trkpt lat="63.63422110" lon="-19.4425957">
        <ele>1022.7999</ele>
        <time>2010-01-01T00:41:45Z</time>
      </trkpt>
      <trkpt lat="63.63415190" lon="-19.4425503">
        <ele>1022.7999</ele>
        <time>2010-01-01T00:41:47Z</time>
      </trkpt>
      <trkpt lat="63.63413170" lon="-19.4425440">
        <ele>1022.7999</ele>
        <time>2010-01-01T00:41:48Z</time>
      </trkpt>
      <trkpt lat="63.63412330" lon="-19.4425381">
        <ele>1023.0000</ele>
        <time>2010-01-01T00:41:49Z</time>
      </trkpt>
      <trkpt lat="63.63411280" lon="-19.4425282">
        <ele>1023.5999</ele>
        <time>2010-01-01T00:41:49Z</time>
      </trkpt>
      <trkpt lat="63.63410380" lon="-19.4425193">
        <ele>1024.0000</ele>
        <time>2010-01-01T00:41:50Z</time>
      </trkpt>
      <trkpt lat="63.63409680" lon="-19.4425144">
        <ele>1024.4000</ele>
        <time>2010-01-01T00:41:50Z</time>
      </trkpt>
      <trkpt lat="63.63409040" lon="-19.4425113">
        <ele>1024.5999</ele>
        <time>2010-01-01T00:41:50Z</time>
      </trkpt>
      <trkpt lat="63.63408260" lon="-19.4425107">
        <ele>1024.8000</ele>
        <time>2010-01-01T00:41:50Z</time>
      </trkpt>
      <trkpt lat="63.63403190" lon="-19.4424949">
        <ele>1025.0000</ele>
        <time>2010-01-01T00:41:52Z</time>
      </trkpt>
      <trkpt lat="63.63402440" lon="-19.4424931">
        <ele>1025.4000</ele>
        <time>2010-01-01T00:41:53Z</time>
      </trkpt>
      <trkpt lat="63.63401620" lon="-19.4424897">
        <ele>1025.8000</ele>
        <time>2010-01-01T00:41:53Z</time>
      </trkpt>
      <trkpt lat="63.63400750" lon="-19.4424838">
        <ele>1026.1999</ele>
        <time>2010-01-01T00:41:53Z</time>
      </trkpt>
      <trkpt lat="63.63399800" lon="-19.4424767">
        <ele>1026.4000</ele>
        <time>2010-01-01T00:41:54Z</time>
      </trkpt>
      <trkpt lat="63.63398760" lon="-19.4424691">
        <ele>1026.8000</ele>
        <time>2010-01-01T00:41:54Z</time>
      </trkpt>
      <trkpt lat="63.63397810" lon="-19.4424656">
        <ele>1026.8000</ele>
        <time>2010-01-01T00:41:55Z</time>
      </trkpt>
      <trkpt lat="63.63396310" lon="-19.4424681">
        <ele>1027.0000</ele>
        <time>2010-01-01T00:41:55Z</time>
      </trkpt>
      <trkpt lat="63.63395470" lon="-19.4424684">
        <ele>1027.4000</ele>
        <time>2010-01-01T00:41:56Z</time>
      </trkpt>
      <trkpt lat="63.63394630" lon="-19.4424658">
        <ele>1027.8000</ele>
        <time>2010-01-01T00:41:56Z</time>
      </trkpt>
      <trkpt lat="63.63393870" lon="-19.4424596">
        <ele>1028.1999</ele>
        <time>2010-01-01T00:41:56Z</time>
      </trkpt>
      <trkpt lat="63.63393130" lon="-19.4424551">
        <ele>1028.5999</ele>
        <time>2010-01-01T00:41:57Z</time>
      </trkpt>
      <trkpt lat="63.63392320" lon="-19.4424499">
        <ele>1029.0000</ele>
        <time>2010-01-01T00:41:57Z</time>
      </trkpt>
      <trkpt lat="63.63390670" lon="-19.4424440">
        <ele>1029.0000</ele>
        <time>2010-01-01T00:41:58Z</time>
      </trkpt>
      <trkpt lat="63.63389960" lon="-19.4424438">
        <ele>1029.0000</ele>
        <time>2010-01-01T00:41:58Z</time>
      </trkpt>
      <trkpt lat="63.63389260" lon="-19.4424413">
        <ele>1029.4000</ele>
        <time>2010-01-01T00:41:58Z</time>
      </trkpt>
      <trkpt lat="63.63388640" lon="-19.4424373">
        <ele>1029.8000</ele>
        <time>2010-01-01T00:41:58Z</time>
      </trkpt>
      <trkpt lat="63.63388000" lon="-19.4424305">
        <ele>1030.1999</ele>
        <time>2010-01-01T00:41:59Z</time>
      </trkpt>
      <trkpt lat="63.63387270" lon="-19.4424222">
        <ele>1030.5999</ele>
        <time>2010-01-01T00:41:59Z</time>
      </trkpt>
      <trkpt lat="63.63386460" lon="-19.4424205">
        <ele>1031.0000</ele>
        <time>2010-01-01T00:41:59Z</time>
      </trkpt>
      <trkpt lat="63.63384560" lon="-19.4424149">
        <ele>1031.0000</ele>
        <time>2010-01-01T00:42:00Z</time>
      </trkpt>
      <trkpt lat="63.63384000" lon="-19.4424132">
        <ele>1031.4000</ele>
        <time>2010-01-01T00:42:00Z</time>
      </trkpt>
      <trkpt lat="63.63383290" lon="-19.4424098">
        <ele>1031.8000</ele>
        <time>2010-01-01T00:42:01Z</time>
      </trkpt>
      <trkpt lat="63.63382470" lon="-19.4424056">
        <ele>1032.1999</ele>
        <time>2010-01-01T00:42:01Z</time>
      </trkpt>
      <trkpt lat="63.63381740" lon="-19.4424036">
        <ele>1032.5999</ele>
        <time>2010-01-01T00:42:01Z</time>
      </trkpt>
      <trkpt lat="63.63381400" lon="-19.4423977">
        <ele>1032.8000</ele>
        <time>2010-01-01T00:42:01Z</time>
      </trkpt>
      <trkpt lat="63.63380620" lon="-19.4423942">
        <ele>1033.0000</ele>
        <time>2010-01-01T00:42:02Z</time>
      </trkpt>
      <trkpt lat="63.63379230" lon="-19.4423906">
        <ele>1033.0000</ele>
        <time>2010-01-01T00:42:02Z</time>
      </trkpt>
      <trkpt lat="63.63378540" lon="-19.4423859">
        <ele>1033.1999</ele>
        <time>2010-01-01T00:42:03Z</time>
      </trkpt>
      <trkpt lat="63.63377850" lon="-19.4423818">
        <ele>1033.1999</ele>
        <time>2010-01-01T00:42:03Z</time>
      </trkpt>
      <trkpt lat="63.63376520" lon="-19.4423745">
        <ele>1033.8000</ele>
        <time>2010-01-01T00:42:03Z</time>
      </trkpt>
      <trkpt lat="63.63375920" lon="-19.4423747">
        <ele>1034.1999</ele>
        <time>2010-01-01T00:42:04Z</time>
      </trkpt>
      <trkpt lat="63.63375140" lon="-19.4423774">
        <ele>1034.5999</ele>
        <time>2010-01-01T00:42:04Z</time>
      </trkpt>
      <trkpt lat="63.63374230" lon="-19.4423781">
        <ele>1035.0000</ele>
        <time>2010-01-01T00:42:04Z</time>
      </trkpt>
      <trkpt lat="63.63371740" lon="-19.4423610">
        <ele>1035.1999</ele>
        <time>2010-01-01T00:42:05Z</time>
      </trkpt>
      <trkpt lat="63.63371060" lon="-19.4423562">
        <ele>1035.4000</ele>
        <time>2010-01-01T00:42:06Z</time>
      </trkpt>
      <trkpt lat="63.63370080" lon="-19.4423509">
        <ele>1035.8000</ele>
        <time>2010-01-01T00:42:06Z</time>
      </trkpt>
      <trkpt lat="63.63369210" lon="-19.4423450">
        <ele>1036.1999</ele>
        <time>2010-01-01T00:42:06Z</time>
      </trkpt>
      <trkpt lat="63.63368430" lon="-19.4423388">
        <ele>1036.5999</ele>
        <time>2010-01-01T00:42:07Z</time>
      </trkpt>
      <trkpt lat="63.63367480" lon="-19.4423372">
        <ele>1037.0000</ele>
        <time>2010-01-01T00:42:07Z</time>
      </trkpt>
      <trkpt lat="63.63364480" lon="-19.4423207">
        <ele>1037.1999</ele>
        <time>2010-01-01T00:42:08Z</time>
      </trkpt>
      <trkpt lat="63.63363650" lon="-19.4423183">
        <ele>1037.5999</ele>
        <time>2010-01-01T00:42:09Z</time>
      </trkpt>
      <trkpt lat="63.63362890" lon="-19.4423146">
        <ele>1038.0000</ele>
        <time>2010-01-01T00:42:09Z</time>
      </trkpt>
      <trkpt lat="63.63362140" lon="-19.4423082">
        <ele>1038.4000</ele>
        <time>2010-01-01T00:42:09Z</time>
      </trkpt>
      <trkpt lat="63.63361430" lon="-19.4423045">
        <ele>1038.5999</ele>
        <time>2010-01-01T00:42:10Z</time>
      </trkpt>
      <trkpt lat="63.63360490" lon="-19.4423029">
        <ele>1039.0000</ele>
        <time>2010-01-01T00:42:10Z</time>
      </trkpt>
      <trkpt lat="63.63359550" lon="-19.4423015">
        <ele>1039.0000</ele>
        <time>2010-01-01T00:42:10Z</time>
      </trkpt>
      <trkpt lat="63.63358180" lon="-19.4423026">
        <ele>1039.0000</ele>
        <time>2010-01-01T00:42:11Z</time>
      </trkpt>
      <trkpt lat="63.63355420" lon="-19.4423093">
        <ele>1039.4000</ele>
        <time>2010-01-01T00:42:12Z</time>
      </trkpt>
      <trkpt lat="63.63354580" lon="-19.4423058">
        <ele>1039.8000</ele>
        <time>2010-01-01T00:42:12Z</time>
      </trkpt>
      <trkpt lat="63.63353770" lon="-19.4423046">
        <ele>1040.1999</ele>
        <time>2010-01-01T00:42:13Z</time>
      </trkpt>
      <trkpt lat="63.63352840" lon="-19.4423033">
        <ele>1040.5999</ele>
        <time>2010-01-01T00:42:13Z</time>
      </trkpt>
      <trkpt lat="63.63351970" lon="-19.4423024">
        <ele>1041.1999</ele>
        <time>2010-01-01T00:42:13Z</time>
      </trkpt>
      <trkpt lat="63.63351190" lon="-19.4422994">
        <ele>1041.1999</ele>
        <time>2010-01-01T00:42:14Z</time>
      </trkpt>
      <trkpt lat="63.63348380" lon="-19.4422882">
        <ele>1041.5999</ele>
        <time>2010-01-01T00:42:15Z</time>
      </trkpt>
      <trkpt lat="63.63347600" lon="-19.4422870">
        <ele>1042.0000</ele>
        <time>2010-01-01T00:42:15Z</time>
      </trkpt>
      <trkpt lat="63.63346770" lon="-19.4422877">
        <ele>1042.4000</ele>
        <time>2010-01-01T00:42:16Z</time>
      </trkpt>
      <trkpt lat="63.63345940" lon="-19.4422856">
        <ele>1042.8000</ele>
        <time>2010-01-01T00:42:16Z</time>
      </trkpt>
      <trkpt lat="63.63345080" lon="-19.4422775">
        <ele>1043.1999</ele>
        <time>2010-01-01T00:42:16Z</time>
      </trkpt>
      <trkpt lat="63.63344060" lon="-19.4422654">
        <ele>1043.4000</ele>
        <time>2010-01-01T00:42:17Z</time>
      </trkpt>
      <trkpt lat="63.63341280" lon="-19.4422439">
        <ele>1043.8000</ele>
        <time>2010-01-01T00:42:18Z</time>
      </trkpt>
      <trkpt lat="63.63340350" lon="-19.4422409">
        <ele>1044.1999</ele>
        <time>2010-01-01T00:42:18Z</time>
      </trkpt>
      <trkpt lat="63.63339490" lon="-19.4422356">
        <ele>1044.5999</ele>
        <time>2010-01-01T00:42:19Z</time>
      </trkpt>
      <trkpt lat="63.63338550" lon="-19.4422230">
        <ele>1045.0000</ele>
        <time>2010-01-01T00:42:19Z</time>
      </trkpt>
      <trkpt lat="63.63337590" lon="-19.4422122">
        <ele>1045.4000</ele>
        <time>2010-01-01T00:42:19Z</time>
      </trkpt>
      <trkpt lat="63.63336610" lon="-19.4421992">
        <ele>1045.4000</ele>
        <time>2010-01-01T00:42:20Z</time>
      </trkpt>
      <trkpt lat="63.63335690" lon="-19.4421875">
        <ele>1045.4000</ele>
        <time>2010-01-01T00:42:20Z</time>
      </trkpt>
      <trkpt lat="63.63334550" lon="-19.4421722">
        <ele>1045.4000</ele>
        <time>2010-01-01T00:42:21Z</time>
      </trkpt>
      <trkpt lat="63.63333850" lon="-19.4421492">
        <ele>1045.8000</ele>
        <time>2010-01-01T00:42:21Z</time>
      </trkpt>
      <trkpt lat="63.63333290" lon="-19.4421254">
        <ele>1046.1999</ele>
        <time>2010-01-01T00:42:22Z</time>
      </trkpt>
      <trkpt lat="63.63332720" lon="-19.4421036">
        <ele>1046.5999</ele>
        <time>2010-01-01T00:42:22Z</time>
      </trkpt>
      <trkpt lat="63.63332110" lon="-19.4420731">
        <ele>1047.0000</ele>
        <time>2010-01-01T00:42:23Z</time>
      </trkpt>
      <trkpt lat="63.63331600" lon="-19.4420445">
        <ele>1047.4000</ele>
        <time>2010-01-01T00:42:23Z</time>
      </trkpt>
      <trkpt lat="63.63327770" lon="-19.4419155">
        <ele>1047.4000</ele>
        <time>2010-01-01T00:42:26Z</time>
      </trkpt>
      <trkpt lat="63.63327210" lon="-19.4418460">
        <ele>1047.5999</ele>
        <time>2010-01-01T00:42:27Z</time>
      </trkpt>
      <trkpt lat="63.63326470" lon="-19.4418263">
        <ele>1048.0000</ele>
        <time>2010-01-01T00:42:28Z</time>
      </trkpt>
      <trkpt lat="63.63325640" lon="-19.4418070">
        <ele>1048.4000</ele>
        <time>2010-01-01T00:42:28Z</time>
      </trkpt>
      <trkpt lat="63.63325380" lon="-19.4417850">
        <ele>1048.8000</ele>
        <time>2010-01-01T00:42:29Z</time>
      </trkpt>
      <trkpt lat="63.63325190" lon="-19.4417709">
        <ele>1049.0000</ele>
        <time>2010-01-01T00:42:29Z</time>
      </trkpt>
      <trkpt lat="63.63324500" lon="-19.4417562">
        <ele>1049.5999</ele>
        <time>2010-01-01T00:42:29Z</time>
      </trkpt>
      <trkpt lat="63.63322430" lon="-19.4417339">
        <ele>1049.5999</ele>
        <time>2010-01-01T00:42:30Z</time>
      </trkpt>
      <trkpt lat="63.63321250" lon="-19.4417188">
        <ele>1049.5999</ele>
        <time>2010-01-01T00:42:31Z</time>
      </trkpt>
      <trkpt lat="63.63320350" lon="-19.4416977">
        <ele>1049.5999</ele>
        <time>2010-01-01T00:42:31Z</time>
      </trkpt>
      <trkpt lat="63.63319680" lon="-19.4416694">
        <ele>1050.0000</ele>
        <time>2010-01-01T00:42:32Z</time>
      </trkpt>
      <trkpt lat="63.63319160" lon="-19.4416496">
        <ele>1050.5999</ele>
        <time>2010-01-01T00:42:32Z</time>
      </trkpt>
      <trkpt lat="63.63318460" lon="-19.4416374">
        <ele>1051.0000</ele>
        <time>2010-01-01T00:42:33Z</time>
      </trkpt>
      <trkpt lat="63.63317670" lon="-19.4416275">
        <ele>1051.4000</ele>
        <time>2010-01-01T00:42:33Z</time>
      </trkpt>
      <trkpt lat="63.63317140" lon="-19.4416158">
        <ele>1051.5999</ele>
        <time>2010-01-01T00:42:33Z</time>
      </trkpt>
      <trkpt lat="63.63314830" lon="-19.4415830">
        <ele>1052.0000</ele>
        <time>2010-01-01T00:42:35Z</time>
      </trkpt>
      <trkpt lat="63.63313950" lon="-19.4415690">
        <ele>1052.4000</ele>
        <time>2010-01-01T00:42:35Z</time>
      </trkpt>
      <trkpt lat="63.63313290" lon="-19.4415519">
        <ele>1052.8000</ele>
        <time>2010-01-01T00:42:35Z</time>
      </trkpt>
      <trkpt lat="63.63312590" lon="-19.4415433">
        <ele>1053.1999</ele>
        <time>2010-01-01T00:42:36Z</time>
      </trkpt>
      <trkpt lat="63.63311410" lon="-19.4415337">
        <ele>1053.8000</ele>
        <time>2010-01-01T00:42:36Z</time>
      </trkpt>
      <trkpt lat="63.63308030" lon="-19.4414711">
        <ele>1053.8000</ele>
        <time>2010-01-01T00:42:38Z</time>
      </trkpt>
      <trkpt lat="63.63306950" lon="-19.4414601">
        <ele>1053.8000</ele>
        <time>2010-01-01T00:42:38Z</time>
      </trkpt>
      <trkpt lat="63.63306070" lon="-19.4414433">
        <ele>1054.1999</ele>
        <time>2010-01-01T00:42:39Z</time>
      </trkpt>
      <trkpt lat="63.63305200" lon="-19.4414249">
        <ele>1054.5999</ele>
        <time>2010-01-01T00:42:39Z</time>
      </trkpt>
      <trkpt lat="63.63304310" lon="-19.4414156">
        <ele>1055.0000</ele>
        <time>2010-01-01T00:42:40Z</time>
      </trkpt>
      <trkpt lat="63.63303230" lon="-19.4413975">
        <ele>1055.4000</ele>
        <time>2010-01-01T00:42:40Z</time>
      </trkpt>
      <trkpt lat="63.63302360" lon="-19.4413799">
        <ele>1055.8000</ele>
        <time>2010-01-01T00:42:41Z</time>
      </trkpt>
      <trkpt lat="63.63301590" lon="-19.4413662">
        <ele>1055.8000</ele>
        <time>2010-01-01T00:42:41Z</time>
      </trkpt>
      <trkpt lat="63.63300830" lon="-19.4413543">
        <ele>1055.8000</ele>
        <time>2010-01-01T00:42:42Z</time>
      </trkpt>
      <trkpt lat="63.63299970" lon="-19.4413373">
        <ele>1056.0000</ele>
        <time>2010-01-01T00:42:42Z</time>
      </trkpt>
      <trkpt lat="63.63299200" lon="-19.4413116">
        <ele>1056.4000</ele>
        <time>2010-01-01T00:42:43Z</time>
      </trkpt>
      <trkpt lat="63.63298730" lon="-19.4412834">
        <ele>1056.8000</ele>
        <time>2010-01-01T00:42:43Z</time>
      </trkpt>
      <trkpt lat="63.63298130" lon="-19.4412689">
        <ele>1057.1999</ele>
        <time>2010-01-01T00:42:43Z</time>
      </trkpt>
      <trkpt lat="63.63297830" lon="-19.4412569">
        <ele>1057.5999</ele>
        <time>2010-01-01T00:42:44Z</time>
      </trkpt>
      <trkpt lat="63.63297440" lon="-19.4412434">
        <ele>1057.8000</ele>
        <time>2010-01-01T00:42:44Z</time>
      </trkpt>
      <trkpt lat="63.63296530" lon="-19.4411989">
        <ele>1058.1999</ele>
        <time>2010-01-01T00:42:45Z</time>
      </trkpt>
      <trkpt lat="63.63296320" lon="-19.4411838">
        <ele>1058.5999</ele>
        <time>2010-01-01T00:42:45Z</time>
      </trkpt>
      <trkpt lat="63.63296020" lon="-19.4411691">
        <ele>1058.8000</ele>
        <time>2010-01-01T00:42:45Z</time>
      </trkpt>
      <trkpt lat="63.63295320" lon="-19.4411527">
        <ele>1059.1999</ele>
        <time>2010-01-01T00:42:46Z</time>
      </trkpt>
      <trkpt lat="63.63294600" lon="-19.4411379">
        <ele>1059.5999</ele>
        <time>2010-01-01T00:42:46Z</time>
      </trkpt>
      <trkpt lat="63.63293910" lon="-19.4411221">
        <ele>1060.0000</ele>
        <time>2010-01-01T00:42:47Z</time>
      </trkpt>
      <trkpt lat="63.63291910" lon="-19.4410557">
        <ele>1060.1999</ele>
        <time>2010-01-01T00:42:48Z</time>
      </trkpt>
      <trkpt lat="63.63291300" lon="-19.4410408">
        <ele>1060.5999</ele>
        <time>2010-01-01T00:42:48Z</time>
      </trkpt>
      <trkpt lat="63.63290550" lon="-19.4410236">
        <ele>1061.0000</ele>
        <time>2010-01-01T00:42:49Z</time>
      </trkpt>
      <trkpt lat="63.63289760" lon="-19.4410029">
        <ele>1061.4000</ele>
        <time>2010-01-01T00:42:49Z</time>
      </trkpt>
      <trkpt lat="63.63288790" lon="-19.4409820">
        <ele>1061.5999</ele>
        <time>2010-01-01T00:42:50Z</time>
      </trkpt>
      <trkpt lat="63.63287650" lon="-19.4409650">
        <ele>1061.8000</ele>
        <time>2010-01-01T00:42:50Z</time>
      </trkpt>
      <trkpt lat="63.63286450" lon="-19.4409489">
        <ele>1062.0000</ele>
        <time>2010-01-01T00:42:51Z</time>
      </trkpt>
      <trkpt lat="63.63285550" lon="-19.4409236">
        <ele>1062.0000</ele>
        <time>2010-01-01T00:42:51Z</time>
      </trkpt>
      <trkpt lat="63.63285150" lon="-19.4409101">
        <ele>1062.0000</ele>
        <time>2010-01-01T00:42:52Z</time>
      </trkpt>
      <trkpt lat="63.63284390" lon="-19.4408890">
        <ele>1062.4000</ele>
        <time>2010-01-01T00:42:52Z</time>
      </trkpt>
      <trkpt lat="63.63283360" lon="-19.4408757">
        <ele>1062.8000</ele>
        <time>2010-01-01T00:42:53Z</time>
      </trkpt>
      <trkpt lat="63.63282070" lon="-19.4408582">
        <ele>1063.1999</ele>
        <time>2010-01-01T00:42:53Z</time>
      </trkpt>
      <trkpt lat="63.63280950" lon="-19.4408383">
        <ele>1063.5999</ele>
        <time>2010-01-01T00:42:54Z</time>
      </trkpt>
      <trkpt lat="63.63279930" lon="-19.4408149">
        <ele>1064.1999</ele>
        <time>2010-01-01T00:42:54Z</time>
      </trkpt>
      <trkpt lat="63.63278830" lon="-19.4407904">
        <ele>1064.1999</ele>
        <time>2010-01-01T00:42:55Z</time>
      </trkpt>
      <trkpt lat="63.63272550" lon="-19.4407075">
        <ele>1064.1999</ele>
        <time>2010-01-01T00:42:58Z</time>
      </trkpt>
      <trkpt lat="63.63262780" lon="-19.4406690">
        <ele>1064.1999</ele>
        <time>2010-01-01T00:43:02Z</time>
      </trkpt>
      <trkpt lat="63.63260660" lon="-19.4406737">
        <ele>1064.1999</ele>
        <time>2010-01-01T00:43:03Z</time>
      </trkpt>
      <trkpt lat="63.63258400" lon="-19.4406808">
        <ele>1064.1999</ele>
        <time>2010-01-01T00:43:04Z</time>
      </trkpt>
      <trkpt lat="63.63256100" lon="-19.4406903">
        <ele>1064.1999</ele>
        <time>2010-01-01T00:43:05Z</time>
      </trkpt>
      <trkpt lat="63.63253480" lon="-19.4407007">
        <ele>1064.1999</ele>
        <time>2010-01-01T00:43:06Z</time>
      </trkpt>
      <trkpt lat="63.63250700" lon="-19.4407066">
        <ele>1064.1999</ele>
        <time>2010-01-01T00:43:07Z</time>
      </trkpt>
      <trkpt lat="63.63248240" lon="-19.4407023">
        <ele>1064.1999</ele>
        <time>2010-01-01T00:43:08Z</time>
      </trkpt>
      <trkpt lat="63.63245700" lon="-19.4406982">
        <ele>1064.5999</ele>
        <time>2010-01-01T00:43:09Z</time>
      </trkpt>
      <trkpt lat="63.63243790" lon="-19.4407072">
        <ele>1065.0000</ele>
        <time>2010-01-01T00:43:10Z</time>
      </trkpt>
      <trkpt lat="63.63242420" lon="-19.4407153">
        <ele>1065.4000</ele>
        <time>2010-01-01T00:43:10Z</time>
      </trkpt>
      <trkpt lat="63.63241170" lon="-19.4407234">
        <ele>1065.8000</ele>
        <time>2010-01-01T00:43:11Z</time>
      </trkpt>
      <trkpt lat="63.63240110" lon="-19.4407304">
        <ele>1066.0000</ele>
        <time>2010-01-01T00:43:11Z</time>
      </trkpt>
      <trkpt lat="63.63238760" lon="-19.4407408">
        <ele>1066.1999</ele>
        <time>2010-01-01T00:43:12Z</time>
      </trkpt>
      <trkpt lat="63.63237470" lon="-19.4407529">
        <ele>1066.1999</ele>
        <time>2010-01-01T00:43:12Z</time>
      </trkpt>
      <trkpt lat="63.63236090" lon="-19.4407687">
        <ele>1066.1999</ele>
        <time>2010-01-01T00:43:13Z</time>
      </trkpt>
      <trkpt lat="63.63230340" lon="-19.4407970">
        <ele>1066.1999</ele>
        <time>2010-01-01T00:43:15Z</time>
      </trkpt>
      <trkpt lat="63.63229000" lon="-19.4408064">
        <ele>1066.1999</ele>
        <time>2010-01-01T00:43:16Z</time>
      </trkpt>
      <trkpt lat="63.63227730" lon="-19.4408190">
        <ele>1066.1999</ele>
        <time>2010-01-01T00:43:16Z</time>
      </trkpt>
      <trkpt lat="63.63221240" lon="-19.4408843">
        <ele>1066.1999</ele>
        <time>2010-01-01T00:43:19Z</time>
      </trkpt>
      <trkpt lat="63.63219650" lon="-19.4408904">
        <ele>1066.1999</ele>
        <time>2010-01-01T00:43:20Z</time>
      </trkpt>
      <trkpt lat="63.63217900" lon="-19.4408946">
        <ele>1066.1999</ele>
        <time>2010-01-01T00:43:21Z</time>
      </trkpt>
      <trkpt lat="63.63216110" lon="-19.4408999">
        <ele>1066.0000</ele>
        <time>2010-01-01T00:43:21Z</time>
      </trkpt>
      <trkpt lat="63.63214160" lon="-19.4409127">
        <ele>1065.4000</ele>
        <time>2010-01-01T00:43:22Z</time>
      </trkpt>
      <trkpt lat="63.63212440" lon="-19.4409290">
        <ele>1065.1999</ele>
        <time>2010-01-01T00:43:23Z</time>
      </trkpt>
      <trkpt lat="63.63211540" lon="-19.4409401">
        <ele>1064.8000</ele>
        <time>2010-01-01T00:43:23Z</time>
      </trkpt>
      <trkpt lat="63.63209410" lon="-19.4409615">
        <ele>1064.4000</ele>
        <time>2010-01-01T00:43:24Z</time>
      </trkpt>
      <trkpt lat="63.63207700" lon="-19.4409783">
        <ele>1064.0000</ele>
        <time>2010-01-01T00:43:25Z</time>
      </trkpt>
      <trkpt lat="63.63206050" lon="-19.4409782">
        <ele>1064.0000</ele>
        <time>2010-01-01T00:43:26Z</time>
      </trkpt>
      <trkpt lat="63.63204480" lon="-19.4409697">
        <ele>1064.0000</ele>
        <time>2010-01-01T00:43:26Z</time>
      </trkpt>
      <trkpt lat="63.63202420" lon="-19.4409611">
        <ele>1064.0000</ele>
        <time>2010-01-01T00:43:27Z</time>
      </trkpt>
      <trkpt lat="63.63199460" lon="-19.4409593">
        <ele>1064.0000</ele>
        <time>2010-01-01T00:43:28Z</time>
      </trkpt>
      <trkpt lat="63.63196810" lon="-19.4409735">
        <ele>1063.8000</ele>
        <time>2010-01-01T00:43:29Z</time>
      </trkpt>
      <trkpt lat="63.63194000" lon="-19.4409822">
        <ele>1063.1999</ele>
        <time>2010-01-01T00:43:31Z</time>
      </trkpt>
      <trkpt lat="63.63191560" lon="-19.4409905">
        <ele>1062.8000</ele>
        <time>2010-01-01T00:43:32Z</time>
      </trkpt>
      <trkpt lat="63.63189460" lon="-19.4409971">
        <ele>1062.4000</ele>
        <time>2010-01-01T00:43:32Z</time>
      </trkpt>
      <trkpt lat="63.63186760" lon="-19.4410090">
        <ele>1061.5999</ele>
        <time>2010-01-01T00:43:33Z</time>
      </trkpt>
      <trkpt lat="63.63183700" lon="-19.4410289">
        <ele>1061.1999</ele>
        <time>2010-01-01T00:43:35Z</time>
      </trkpt>
      <trkpt lat="63.63180830" lon="-19.4410400">
        <ele>1060.5999</ele>
        <time>2010-01-01T00:43:36Z</time>
      </trkpt>
      <trkpt lat="63.63178400" lon="-19.4410395">
        <ele>1060.0000</ele>
        <time>2010-01-01T00:43:37Z</time>
      </trkpt>
      <trkpt lat="63.63176510" lon="-19.4410391">
        <ele>1059.5999</ele>
        <time>2010-01-01T00:43:38Z</time>
      </trkpt>
      <trkpt lat="63.63174680" lon="-19.4410456">
        <ele>1059.5999</ele>
        <time>2010-01-01T00:43:38Z</time>
      </trkpt>
      <trkpt lat="63.63170550" lon="-19.4410469">
        <ele>1059.5999</ele>
        <time>2010-01-01T00:43:40Z</time>
      </trkpt>
      <trkpt lat="63.63166190" lon="-19.4410615">
        <ele>1059.1999</ele>
        <time>2010-01-01T00:43:42Z</time>
      </trkpt>
      <trkpt lat="63.63163910" lon="-19.4410606">
        <ele>1058.8000</ele>
        <time>2010-01-01T00:43:43Z</time>
      </trkpt>
      <trkpt lat="63.63161400" lon="-19.4410649">
        <ele>1058.4000</ele>
        <time>2010-01-01T00:43:44Z</time>
      </trkpt>
      <trkpt lat="63.63158900" lon="-19.4410637">
        <ele>1058.0000</ele>
        <time>2010-01-01T00:43:45Z</time>
      </trkpt>
      <trkpt lat="63.63156990" lon="-19.4410569">
        <ele>1057.5999</ele>
        <time>2010-01-01T00:43:46Z</time>
      </trkpt>
      <trkpt lat="63.63154900" lon="-19.4410646">
        <ele>1057.1999</ele>
        <time>2010-01-01T00:43:46Z</time>
      </trkpt>
      <trkpt lat="63.63152840" lon="-19.4410798">
        <ele>1056.5999</ele>
        <time>2010-01-01T00:43:47Z</time>
      </trkpt>
      <trkpt lat="63.63149980" lon="-19.4411038">
        <ele>1056.4000</ele>
        <time>2010-01-01T00:43:48Z</time>
      </trkpt>
      <trkpt lat="63.63147140" lon="-19.4411278">
        <ele>1055.8000</ele>
        <time>2010-01-01T00:43:50Z</time>
      </trkpt>
      <trkpt lat="63.63144250" lon="-19.4411310">
        <ele>1055.4000</ele>
        <time>2010-01-01T00:43:51Z</time>
      </trkpt>
      <trkpt lat="63.63141380" lon="-19.4411267">
        <ele>1054.8000</ele>
        <time>2010-01-01T00:43:52Z</time>
      </trkpt>
      <trkpt lat="63.63138170" lon="-19.4411230">
        <ele>1054.5999</ele>
        <time>2010-01-01T00:43:53Z</time>
      </trkpt>
      <trkpt lat="63.63135780" lon="-19.4411157">
        <ele>1054.4000</ele>
        <time>2010-01-01T00:43:54Z</time>
      </trkpt>
      <trkpt lat="63.63133230" lon="-19.4411059">
        <ele>1053.8000</ele>
        <time>2010-01-01T00:43:55Z</time>
      </trkpt>
      <trkpt lat="63.63131090" lon="-19.4410759">
        <ele>1053.4000</ele>
        <time>2010-01-01T00:43:56Z</time>
      </trkpt>
      <trkpt lat="63.63129280" lon="-19.4410422">
        <ele>1053.0000</ele>
        <time>2010-01-01T00:43:57Z</time>
      </trkpt>
      <trkpt lat="63.63127750" lon="-19.4410097">
        <ele>1052.4000</ele>
        <time>2010-01-01T00:43:58Z</time>
      </trkpt>
      <trkpt lat="63.63125750" lon="-19.4409811">
        <ele>1052.0000</ele>
        <time>2010-01-01T00:43:59Z</time>
      </trkpt>
      <trkpt lat="63.63124230" lon="-19.4409496">
        <ele>1051.4000</ele>
        <time>2010-01-01T00:44:00Z</time>
      </trkpt>
      <trkpt lat="63.63123180" lon="-19.4409195">
        <ele>1050.5999</ele>
        <time>2010-01-01T00:44:01Z</time>
      </trkpt>
      <trkpt lat="63.63122190" lon="-19.4409079">
        <ele>1050.0000</ele>
        <time>2010-01-01T00:44:01Z</time>
      </trkpt>
      <trkpt lat="63.63120250" lon="-19.4409018">
        <ele>1049.1999</ele>
        <time>2010-01-01T00:44:02Z</time>
      </trkpt>
      <trkpt lat="63.63118560" lon="-19.4409028">
        <ele>1048.4000</ele>
        <time>2010-01-01T00:44:02Z</time>
      </trkpt>
      <trkpt lat="63.63117020" lon="-19.4409044">
        <ele>1047.8000</ele>
        <time>2010-01-01T00:44:03Z</time>
      </trkpt>
      <trkpt lat="63.63115160" lon="-19.4409061">
        <ele>1047.0000</ele>
        <time>2010-01-01T00:44:04Z</time>
      </trkpt>
      <trkpt lat="63.63112540" lon="-19.4409129">
        <ele>1046.4000</ele>
        <time>2010-01-01T00:44:05Z</time>
      </trkpt>
      <trkpt lat="63.63110540" lon="-19.4409054">
        <ele>1045.8000</ele>
        <time>2010-01-01T00:44:06Z</time>
      </trkpt>
      <trkpt lat="63.63107990" lon="-19.4409023">
        <ele>1045.4000</ele>
        <time>2010-01-01T00:44:07Z</time>
      </trkpt>
      <trkpt lat="63.63104630" lon="-19.4409001">
        <ele>1044.8000</ele>
        <time>2010-01-01T00:44:08Z</time>
      </trkpt>
      <trkpt lat="63.63101030" lon="-19.4408943">
        <ele>1044.1999</ele>
        <time>2010-01-01T00:44:09Z</time>
      </trkpt>
      <trkpt lat="63.63097170" lon="-19.4408922">
        <ele>1043.8000</ele>
        <time>2010-01-01T00:44:11Z</time>
      </trkpt>
      <trkpt lat="63.63093850" lon="-19.4408938">
        <ele>1043.1999</ele>
        <time>2010-01-01T00:44:12Z</time>
      </trkpt>
      <trkpt lat="63.63090070" lon="-19.4408995">
        <ele>1042.4000</ele>
        <time>2010-01-01T00:44:14Z</time>
      </trkpt>
      <trkpt lat="63.63086100" lon="-19.4409008">
        <ele>1041.8000</ele>
        <time>2010-01-01T00:44:15Z</time>
      </trkpt>
      <trkpt lat="63.63082550" lon="-19.4409040">
        <ele>1041.0000</ele>
        <time>2010-01-01T00:44:17Z</time>
      </trkpt>
      <trkpt lat="63.63079160" lon="-19.4409213">
        <ele>1040.4000</ele>
        <time>2010-01-01T00:44:18Z</time>
      </trkpt>
      <trkpt lat="63.63075860" lon="-19.4409286">
        <ele>1039.8000</ele>
        <time>2010-01-01T00:44:20Z</time>
      </trkpt>
      <trkpt lat="63.63073180" lon="-19.4409349">
        <ele>1039.4000</ele>
        <time>2010-01-01T00:44:21Z</time>
      </trkpt>
      <trkpt lat="63.63070010" lon="-19.4409514">
        <ele>1038.8000</ele>
        <time>2010-01-01T00:44:22Z</time>
      </trkpt>
      <trkpt lat="63.63066490" lon="-19.4409641">
        <ele>1038.4000</ele>
        <time>2010-01-01T00:44:23Z</time>
      </trkpt>
      <trkpt lat="63.63063400" lon="-19.4409778">
        <ele>1038.0000</ele>
        <time>2010-01-01T00:44:25Z</time>
      </trkpt>
      <trkpt lat="63.63060830" lon="-19.4409977">
        <ele>1037.5999</ele>
        <time>2010-01-01T00:44:26Z</time>
      </trkpt>
      <trkpt lat="63.63057550" lon="-19.4410168">
        <ele>1037.4000</ele>
        <time>2010-01-01T00:44:27Z</time>
      </trkpt>
      <trkpt lat="63.63054180" lon="-19.4410360">
        <ele>1037.0000</ele>
        <time>2010-01-01T00:44:28Z</time>
      </trkpt>
      <trkpt lat="63.63051490" lon="-19.4410569">
        <ele>1036.5999</ele>
        <time>2010-01-01T00:44:30Z</time>
      </trkpt>
      <trkpt lat="63.63048640" lon="-19.4410785">
        <ele>1036.1999</ele>
        <time>2010-01-01T00:44:31Z</time>
      </trkpt>
      <trkpt lat="63.63045380" lon="-19.4410991">
        <ele>1035.8000</ele>
        <time>2010-01-01T00:44:32Z</time>
      </trkpt>
      <trkpt lat="63.63042650" lon="-19.4411141">
        <ele>1035.5999</ele>
        <time>2010-01-01T00:44:33Z</time>
      </trkpt>
      <trkpt lat="63.63039080" lon="-19.4411452">
        <ele>1035.1999</ele>
        <time>2010-01-01T00:44:35Z</time>
      </trkpt>
      <trkpt lat="63.63035890" lon="-19.4411689">
        <ele>1034.8000</ele>
        <time>2010-01-01T00:44:36Z</time>
      </trkpt>
      <trkpt lat="63.63032850" lon="-19.4411905">
        <ele>1034.4000</ele>
        <time>2010-01-01T00:44:37Z</time>
      </trkpt>
      <trkpt lat="63.63030010" lon="-19.4412116">
        <ele>1034.0000</ele>
        <time>2010-01-01T00:44:39Z</time>
      </trkpt>
      <trkpt lat="63.63027310" lon="-19.4412220">
        <ele>1033.8000</ele>
        <time>2010-01-01T00:44:40Z</time>
      </trkpt>
      <trkpt lat="63.63023550" lon="-19.4412340">
        <ele>1033.4000</ele>
        <time>2010-01-01T00:44:41Z</time>
      </trkpt>
      <trkpt lat="63.63020660" lon="-19.4412455">
        <ele>1033.4000</ele>
        <time>2010-01-01T00:44:42Z</time>
      </trkpt>
      <trkpt lat="63.63017900" lon="-19.4412569">
        <ele>1033.1999</ele>
        <time>2010-01-01T00:44:44Z</time>
      </trkpt>
      <trkpt lat="63.63014950" lon="-19.4412665">
        <ele>1032.5999</ele>
        <time>2010-01-01T00:44:45Z</time>
      </trkpt>
      <trkpt lat="63.63012220" lon="-19.4412835">
        <ele>1032.4000</ele>
        <time>2010-01-01T00:44:46Z</time>
      </trkpt>
      <trkpt lat="63.63009610" lon="-19.4412939">
        <ele>1032.1999</ele>
        <time>2010-01-01T00:44:47Z</time>
      </trkpt>
      <trkpt lat="63.63007060" lon="-19.4413026">
        <ele>1031.8000</ele>
        <time>2010-01-01T00:44:48Z</time>
      </trkpt>
      <trkpt lat="63.63004520" lon="-19.4413075">
        <ele>1031.5999</ele>
        <time>2010-01-01T00:44:49Z</time>
      </trkpt>
      <trkpt lat="63.63002090" lon="-19.4413115">
        <ele>1031.4000</ele>
        <time>2010-01-01T00:44:50Z</time>
      </trkpt>
      <trkpt lat="63.62997520" lon="-19.4413354">
        <ele>1031.4000</ele>
        <time>2010-01-01T00:44:52Z</time>
      </trkpt>
      <trkpt lat="63.62994870" lon="-19.4413499">
        <ele>1031.0000</ele>
        <time>2010-01-01T00:44:53Z</time>
      </trkpt>
      <trkpt lat="63.62991920" lon="-19.4413670">
        <ele>1030.5999</ele>
        <time>2010-01-01T00:44:54Z</time>
      </trkpt>
      <trkpt lat="63.62989020" lon="-19.4413847">
        <ele>1030.0000</ele>
        <time>2010-01-01T00:44:55Z</time>
      </trkpt>
      <trkpt lat="63.62985930" lon="-19.4413966">
        <ele>1029.5999</ele>
        <time>2010-01-01T00:44:57Z</time>
      </trkpt>
      <trkpt lat="63.62982160" lon="-19.4414113">
        <ele>1029.1999</ele>
        <time>2010-01-01T00:44:58Z</time>
      </trkpt>
      <trkpt lat="63.62979350" lon="-19.4414278">
        <ele>1028.5999</ele>
        <time>2010-01-01T00:44:59Z</time>
      </trkpt>
      <trkpt lat="63.62976860" lon="-19.4414405">
        <ele>1028.1999</ele>
        <time>2010-01-01T00:45:00Z</time>
      </trkpt>
      <trkpt lat="63.62973840" lon="-19.4414547">
        <ele>1027.8000</ele>
        <time>2010-01-01T00:45:02Z</time>
      </trkpt>
      <trkpt lat="63.62970720" lon="-19.4414642">
        <ele>1027.1999</ele>
        <time>2010-01-01T00:45:03Z</time>
      </trkpt>
      <trkpt lat="63.62967660" lon="-19.4414871">
        <ele>1027.1999</ele>
        <time>2010-01-01T00:45:04Z</time>
      </trkpt>
      <trkpt lat="63.62964740" lon="-19.4415038">
        <ele>1027.1999</ele>
        <time>2010-01-01T00:45:05Z</time>
      </trkpt>
      <trkpt lat="63.62961440" lon="-19.4415228">
        <ele>1026.5999</ele>
        <time>2010-01-01T00:45:07Z</time>
      </trkpt>
      <trkpt lat="63.62958470" lon="-19.4415412">
        <ele>1026.4000</ele>
        <time>2010-01-01T00:45:08Z</time>
      </trkpt>
      <trkpt lat="63.62955570" lon="-19.4415565">
        <ele>1025.8000</ele>
        <time>2010-01-01T00:45:09Z</time>
      </trkpt>
      <trkpt lat="63.62952420" lon="-19.4415792">
        <ele>1025.4000</ele>
        <time>2010-01-01T00:45:10Z</time>
      </trkpt>
      <trkpt lat="63.62949460" lon="-19.4416047">
        <ele>1025.1999</ele>
        <time>2010-01-01T00:45:12Z</time>
      </trkpt>
      <trkpt lat="63.62947430" lon="-19.4416228">
        <ele>1025.4000</ele>
        <time>2010-01-01T00:45:13Z</time>
      </trkpt>
      <trkpt lat="63.62944870" lon="-19.4416374">
        <ele>1025.1999</ele>
        <time>2010-01-01T00:45:14Z</time>
      </trkpt>
      <trkpt lat="63.62942110" lon="-19.4416578">
        <ele>1025.1999</ele>
        <time>2010-01-01T00:45:15Z</time>
      </trkpt>
      <trkpt lat="63.62939250" lon="-19.4416846">
        <ele>1025.0000</ele>
        <time>2010-01-01T00:45:16Z</time>
      </trkpt>
      <trkpt lat="63.62936980" lon="-19.4417153">
        <ele>1024.5999</ele>
        <time>2010-01-01T00:45:17Z</time>
      </trkpt>
      <trkpt lat="63.62934580" lon="-19.4417492">
        <ele>1024.1999</ele>
        <time>2010-01-01T00:45:18Z</time>
      </trkpt>
      <trkpt lat="63.62932330" lon="-19.4417779">
        <ele>1023.7999</ele>
        <time>2010-01-01T00:45:19Z</time>
      </trkpt>
      <trkpt lat="63.62930390" lon="-19.4418078">
        <ele>1023.4000</ele>
        <time>2010-01-01T00:45:20Z</time>
      </trkpt>
      <trkpt lat="63.62928400" lon="-19.4418368">
        <ele>1023.2000</ele>
        <time>2010-01-01T00:45:21Z</time>
      </trkpt>
      <trkpt lat="63.62926380" lon="-19.4418719">
        <ele>1023.2000</ele>
        <time>2010-01-01T00:45:22Z</time>
      </trkpt>
      <trkpt lat="63.62923970" lon="-19.4419102">
        <ele>1023.2000</ele>
        <time>2010-01-01T00:45:23Z</time>
      </trkpt>
      <trkpt lat="63.62918040" lon="-19.4420050">
        <ele>1023.2000</ele>
        <time>2010-01-01T00:45:26Z</time>
      </trkpt>
      <trkpt lat="63.62916120" lon="-19.4420323">
        <ele>1023.2000</ele>
        <time>2010-01-01T00:45:27Z</time>
      </trkpt>
      <trkpt lat="63.62914240" lon="-19.4420544">
        <ele>1023.2000</ele>
        <time>2010-01-01T00:45:28Z</time>
      </trkpt>
      <trkpt lat="63.62909200" lon="-19.4421196">
        <ele>1023.2000</ele>
        <time>2010-01-01T00:45:30Z</time>
      </trkpt>
      <trkpt lat="63.62906710" lon="-19.4421466">
        <ele>1023.2000</ele>
        <time>2010-01-01T00:45:31Z</time>
      </trkpt>
      <trkpt lat="63.62904530" lon="-19.4421704">
        <ele>1023.2000</ele>
        <time>2010-01-01T00:45:32Z</time>
      </trkpt>
      <trkpt lat="63.62902500" lon="-19.4421917">
        <ele>1023.2000</ele>
        <time>2010-01-01T00:45:33Z</time>
      </trkpt>
      <trkpt lat="63.62900560" lon="-19.4422175">
        <ele>1023.2000</ele>
        <time>2010-01-01T00:45:34Z</time>
      </trkpt>
      <trkpt lat="63.62895910" lon="-19.4422673">
        <ele>1023.2000</ele>
        <time>2010-01-01T00:45:36Z</time>
      </trkpt>
      <trkpt lat="63.62893350" lon="-19.4422947">
        <ele>1023.2000</ele>
        <time>2010-01-01T00:45:37Z</time>
      </trkpt>
      <trkpt lat="63.62891350" lon="-19.4423186">
        <ele>1023.2000</ele>
        <time>2010-01-01T00:45:38Z</time>
      </trkpt>
      <trkpt lat="63.62889140" lon="-19.4423386">
        <ele>1023.2000</ele>
        <time>2010-01-01T00:45:39Z</time>
      </trkpt>
      <trkpt lat="63.62887040" lon="-19.4423585">
        <ele>1023.2000</ele>
        <time>2010-01-01T00:45:40Z</time>
      </trkpt>
      <trkpt lat="63.62884460" lon="-19.4423836">
        <ele>1023.0000</ele>
        <time>2010-01-01T00:45:41Z</time>
      </trkpt>
      <trkpt lat="63.62882200" lon="-19.4424082">
        <ele>1022.7999</ele>
        <time>2010-01-01T00:45:42Z</time>
      </trkpt>
      <trkpt lat="63.62879630" lon="-19.4424381">
        <ele>1022.4000</ele>
        <time>2010-01-01T00:45:44Z</time>
      </trkpt>
      <trkpt lat="63.62877150" lon="-19.4424679">
        <ele>1022.2000</ele>
        <time>2010-01-01T00:45:45Z</time>
      </trkpt>
      <trkpt lat="63.62875190" lon="-19.4424894">
        <ele>1021.7999</ele>
        <time>2010-01-01T00:45:46Z</time>
      </trkpt>
      <trkpt lat="63.62872870" lon="-19.4425105">
        <ele>1021.4000</ele>
        <time>2010-01-01T00:45:47Z</time>
      </trkpt>
      <trkpt lat="63.62870460" lon="-19.4425408">
        <ele>1021.2000</ele>
        <time>2010-01-01T00:45:48Z</time>
      </trkpt>
      <trkpt lat="63.62864050" lon="-19.4426278">
        <ele>1021.2000</ele>
        <time>2010-01-01T00:45:51Z</time>
      </trkpt>
      <trkpt lat="63.62861760" lon="-19.4426481">
        <ele>1021.2000</ele>
        <time>2010-01-01T00:45:52Z</time>
      </trkpt>
      <trkpt lat="63.62859830" lon="-19.4426594">
        <ele>1021.2000</ele>
        <time>2010-01-01T00:45:52Z</time>
      </trkpt>
      <trkpt lat="63.62857440" lon="-19.4426724">
        <ele>1021.2000</ele>
        <time>2010-01-01T00:45:53Z</time>
      </trkpt>
      <trkpt lat="63.62855390" lon="-19.4426923">
        <ele>1021.2000</ele>
        <time>2010-01-01T00:45:54Z</time>
      </trkpt>
      <trkpt lat="63.62851270" lon="-19.4427157">
        <ele>1021.2000</ele>
        <time>2010-01-01T00:45:56Z</time>
      </trkpt>
      <trkpt lat="63.62849040" lon="-19.4427340">
        <ele>1021.2000</ele>
        <time>2010-01-01T00:45:57Z</time>
      </trkpt>
      <trkpt lat="63.62847110" lon="-19.4427513">
        <ele>1021.2000</ele>
        <time>2010-01-01T00:45:58Z</time>
      </trkpt>
      <trkpt lat="63.62844660" lon="-19.4427692">
        <ele>1021.2000</ele>
        <time>2010-01-01T00:45:59Z</time>
      </trkpt>
      <trkpt lat="63.62842590" lon="-19.4427677">
        <ele>1021.2000</ele>
        <time>2010-01-01T00:46:00Z</time>
      </trkpt>
      <trkpt lat="63.62840170" lon="-19.4427724">
        <ele>1021.2000</ele>
        <time>2010-01-01T00:46:01Z</time>
      </trkpt>
      <trkpt lat="63.62837640" lon="-19.4427824">
        <ele>1021.2000</ele>
        <time>2010-01-01T00:46:02Z</time>
      </trkpt>
      <trkpt lat="63.62835500" lon="-19.4427934">
        <ele>1021.2000</ele>
        <time>2010-01-01T00:46:02Z</time>
      </trkpt>
      <trkpt lat="63.62833410" lon="-19.4428059">
        <ele>1021.2000</ele>
        <time>2010-01-01T00:46:03Z</time>
      </trkpt>
      <trkpt lat="63.62831310" lon="-19.4428143">
        <ele>1021.2000</ele>
        <time>2010-01-01T00:46:04Z</time>
      </trkpt>
      <trkpt lat="63.62829100" lon="-19.4428350">
        <ele>1021.2000</ele>
        <time>2010-01-01T00:46:05Z</time>
      </trkpt>
      <trkpt lat="63.62827180" lon="-19.4428553">
        <ele>1021.2000</ele>
        <time>2010-01-01T00:46:06Z</time>
      </trkpt>
      <trkpt lat="63.62824780" lon="-19.4428753">
        <ele>1021.2000</ele>
        <time>2010-01-01T00:46:07Z</time>
      </trkpt>
      <trkpt lat="63.62822810" lon="-19.4428951">
        <ele>1021.2000</ele>
        <time>2010-01-01T00:46:08Z</time>
      </trkpt>
      <trkpt lat="63.62820880" lon="-19.4429104">
        <ele>1021.2000</ele>
        <time>2010-01-01T00:46:09Z</time>
      </trkpt>
      <trkpt lat="63.62818350" lon="-19.4429311">
        <ele>1021.2000</ele>
        <time>2010-01-01T00:46:10Z</time>
      </trkpt>
      <trkpt lat="63.62816470" lon="-19.4429446">
        <ele>1021.2000</ele>
        <time>2010-01-01T00:46:11Z</time>
      </trkpt>
      <trkpt lat="63.62814340" lon="-19.4429578">
        <ele>1021.2000</ele>
        <time>2010-01-01T00:46:11Z</time>
      </trkpt>
      <trkpt lat="63.62811920" lon="-19.4429671">
        <ele>1021.2000</ele>
        <time>2010-01-01T00:46:12Z</time>
      </trkpt>
      <trkpt lat="63.62810710" lon="-19.4429717">
        <ele>1021.2000</ele>
        <time>2010-01-01T00:46:13Z</time>
      </trkpt>
      <trkpt lat="63.62804590" lon="-19.4430092">
        <ele>1021.2000</ele>
        <time>2010-01-01T00:46:15Z</time>
      </trkpt>
      <trkpt lat="63.62802410" lon="-19.4430179">
        <ele>1021.2000</ele>
        <time>2010-01-01T00:46:16Z</time>
      </trkpt>
      <trkpt lat="63.62800490" lon="-19.4430277">
        <ele>1021.2000</ele>
        <time>2010-01-01T00:46:17Z</time>
      </trkpt>
      <trkpt lat="63.62798450" lon="-19.4430381">
        <ele>1021.2000</ele>
        <time>2010-01-01T00:46:18Z</time>
      </trkpt>
      <trkpt lat="63.62796160" lon="-19.4430479">
        <ele>1021.2000</ele>
        <time>2010-01-01T00:46:19Z</time>
      </trkpt>
      <trkpt lat="63.62793960" lon="-19.4430598">
        <ele>1021.2000</ele>
        <time>2010-01-01T00:46:20Z</time>
      </trkpt>
      <trkpt lat="63.62780900" lon="-19.4430925">
        <ele>1021.2000</ele>
        <time>2010-01-01T00:46:25Z</time>
      </trkpt>
      <trkpt lat="63.62766810" lon="-19.4430596">
        <ele>1021.2000</ele>
        <time>2010-01-01T00:46:31Z</time>
      </trkpt>
      <trkpt lat="63.62755310" lon="-19.4430255">
        <ele>1021.5999</ele>
        <time>2010-01-01T00:46:35Z</time>
      </trkpt>
      <trkpt lat="63.62754250" lon="-19.4430193">
        <ele>1022.0000</ele>
        <time>2010-01-01T00:46:36Z</time>
      </trkpt>
      <trkpt lat="63.62753420" lon="-19.4430165">
        <ele>1022.4000</ele>
        <time>2010-01-01T00:46:36Z</time>
      </trkpt>
      <trkpt lat="63.62752530" lon="-19.4430126">
        <ele>1022.7999</ele>
        <time>2010-01-01T00:46:37Z</time>
      </trkpt>
      <trkpt lat="63.62751570" lon="-19.4430061">
        <ele>1023.2000</ele>
        <time>2010-01-01T00:46:37Z</time>
      </trkpt>
      <trkpt lat="63.62750650" lon="-19.4430019">
        <ele>1023.2000</ele>
        <time>2010-01-01T00:46:37Z</time>
      </trkpt>
      <trkpt lat="63.62748800" lon="-19.4429952">
        <ele>1023.2000</ele>
        <time>2010-01-01T00:46:38Z</time>
      </trkpt>
      <trkpt lat="63.62743710" lon="-19.4429633">
        <ele>1023.5999</ele>
        <time>2010-01-01T00:46:40Z</time>
      </trkpt>
      <trkpt lat="63.62742460" lon="-19.4429614">
        <ele>1023.7999</ele>
        <time>2010-01-01T00:46:41Z</time>
      </trkpt>
      <trkpt lat="63.62742080" lon="-19.4429622">
        <ele>1024.0000</ele>
        <time>2010-01-01T00:46:41Z</time>
      </trkpt>
      <trkpt lat="63.62740780" lon="-19.4429542">
        <ele>1024.5999</ele>
        <time>2010-01-01T00:46:41Z</time>
      </trkpt>
      <trkpt lat="63.62739660" lon="-19.4429451">
        <ele>1024.8000</ele>
        <time>2010-01-01T00:46:42Z</time>
      </trkpt>
      <trkpt lat="63.62738570" lon="-19.4429422">
        <ele>1025.1999</ele>
        <time>2010-01-01T00:46:42Z</time>
      </trkpt>
      <trkpt lat="63.62737480" lon="-19.4429414">
        <ele>1025.4000</ele>
        <time>2010-01-01T00:46:43Z</time>
      </trkpt>
      <trkpt lat="63.62736020" lon="-19.4429330">
        <ele>1025.4000</ele>
        <time>2010-01-01T00:46:43Z</time>
      </trkpt>
      <trkpt lat="63.62734090" lon="-19.4429281">
        <ele>1025.8000</ele>
        <time>2010-01-01T00:46:44Z</time>
      </trkpt>
      <trkpt lat="63.62733090" lon="-19.4429276">
        <ele>1026.1999</ele>
        <time>2010-01-01T00:46:45Z</time>
      </trkpt>
      <trkpt lat="63.62732040" lon="-19.4429268">
        <ele>1026.5999</ele>
        <time>2010-01-01T00:46:45Z</time>
      </trkpt>
      <trkpt lat="63.62731050" lon="-19.4429243">
        <ele>1027.0000</ele>
        <time>2010-01-01T00:46:45Z</time>
      </trkpt>
      <trkpt lat="63.62730000" lon="-19.4429220">
        <ele>1027.4000</ele>
        <time>2010-01-01T00:46:46Z</time>
      </trkpt>
      <trkpt lat="63.62724710" lon="-19.4428962">
        <ele>1027.4000</ele>
        <time>2010-01-01T00:46:48Z</time>
      </trkpt>
      <trkpt lat="63.62714050" lon="-19.4428340">
        <ele>1027.4000</ele>
        <time>2010-01-01T00:46:52Z</time>
      </trkpt>
      <trkpt lat="63.62712830" lon="-19.4428271">
        <ele>1027.5999</ele>
        <time>2010-01-01T00:46:53Z</time>
      </trkpt>
      <trkpt lat="63.62711760" lon="-19.4428173">
        <ele>1028.0000</ele>
        <time>2010-01-01T00:46:53Z</time>
      </trkpt>
      <trkpt lat="63.62710800" lon="-19.4428090">
        <ele>1028.1999</ele>
        <time>2010-01-01T00:46:54Z</time>
      </trkpt>
      <trkpt lat="63.62709590" lon="-19.4428035">
        <ele>1028.5999</ele>
        <time>2010-01-01T00:46:54Z</time>
      </trkpt>
      <trkpt lat="63.62708490" lon="-19.4427979">
        <ele>1029.0000</ele>
        <time>2010-01-01T00:46:55Z</time>
      </trkpt>
      <trkpt lat="63.62707360" lon="-19.4427903">
        <ele>1029.4000</ele>
        <time>2010-01-01T00:46:55Z</time>
      </trkpt>
      <trkpt lat="63.62706150" lon="-19.4427821">
        <ele>1029.5999</ele>
        <time>2010-01-01T00:46:56Z</time>
      </trkpt>
      <trkpt lat="63.62705050" lon="-19.4427757">
        <ele>1029.5999</ele>
        <time>2010-01-01T00:46:56Z</time>
      </trkpt>
      <trkpt lat="63.62699200" lon="-19.4427224">
        <ele>1030.0000</ele>
        <time>2010-01-01T00:46:59Z</time>
      </trkpt>
      <trkpt lat="63.62698110" lon="-19.4427148">
        <ele>1030.4000</ele>
        <time>2010-01-01T00:46:59Z</time>
      </trkpt>
      <trkpt lat="63.62697180" lon="-19.4427060">
        <ele>1030.8000</ele>
        <time>2010-01-01T00:46:59Z</time>
      </trkpt>
      <trkpt lat="63.62696220" lon="-19.4426958">
        <ele>1031.1999</ele>
        <time>2010-01-01T00:47:00Z</time>
      </trkpt>
      <trkpt lat="63.62695250" lon="-19.4426868">
        <ele>1031.5999</ele>
        <time>2010-01-01T00:47:00Z</time>
      </trkpt>
      <trkpt lat="63.62685910" lon="-19.4425881">
        <ele>1031.8000</ele>
        <time>2010-01-01T00:47:04Z</time>
      </trkpt>
      <trkpt lat="63.62684850" lon="-19.4425772">
        <ele>1032.1999</ele>
        <time>2010-01-01T00:47:05Z</time>
      </trkpt>
      <trkpt lat="63.62683790" lon="-19.4425664">
        <ele>1032.5999</ele>
        <time>2010-01-01T00:47:05Z</time>
      </trkpt>
      <trkpt lat="63.62682870" lon="-19.4425522">
        <ele>1033.0000</ele>
        <time>2010-01-01T00:47:06Z</time>
      </trkpt>
      <trkpt lat="63.62681990" lon="-19.4425381">
        <ele>1033.4000</ele>
        <time>2010-01-01T00:47:06Z</time>
      </trkpt>
      <trkpt lat="63.62681070" lon="-19.4425172">
        <ele>1033.8000</ele>
        <time>2010-01-01T00:47:07Z</time>
      </trkpt>
      <trkpt lat="63.62678250" lon="-19.4424664">
        <ele>1033.8000</ele>
        <time>2010-01-01T00:47:08Z</time>
      </trkpt>
      <trkpt lat="63.62674350" lon="-19.4424144">
        <ele>1034.0000</ele>
        <time>2010-01-01T00:47:10Z</time>
      </trkpt>
      <trkpt lat="63.62673510" lon="-19.4423983">
        <ele>1034.4000</ele>
        <time>2010-01-01T00:47:10Z</time>
      </trkpt>
      <trkpt lat="63.62672580" lon="-19.4423808">
        <ele>1034.5999</ele>
        <time>2010-01-01T00:47:11Z</time>
      </trkpt>
      <trkpt lat="63.62671700" lon="-19.4423655">
        <ele>1035.0000</ele>
        <time>2010-01-01T00:47:11Z</time>
      </trkpt>
      <trkpt lat="63.62670900" lon="-19.4423533">
        <ele>1035.1999</ele>
        <time>2010-01-01T00:47:12Z</time>
      </trkpt>
      <trkpt lat="63.62670100" lon="-19.4423403">
        <ele>1035.4000</ele>
        <time>2010-01-01T00:47:12Z</time>
      </trkpt>
      <trkpt lat="63.62669320" lon="-19.4423278">
        <ele>1035.8000</ele>
        <time>2010-01-01T00:47:13Z</time>
      </trkpt>
      <trkpt lat="63.62668450" lon="-19.4423152">
        <ele>1035.8000</ele>
        <time>2010-01-01T00:47:13Z</time>
      </trkpt>
      <trkpt lat="63.62666490" lon="-19.4422953">
        <ele>1036.0000</ele>
        <time>2010-01-01T00:47:14Z</time>
      </trkpt>
      <trkpt lat="63.62665570" lon="-19.4422837">
        <ele>1035.8000</ele>
        <time>2010-01-01T00:47:14Z</time>
      </trkpt>
      <trkpt lat="63.62664540" lon="-19.4422704">
        <ele>1035.8000</ele>
        <time>2010-01-01T00:47:15Z</time>
      </trkpt>
      <trkpt lat="63.62662440" lon="-19.4422402">
        <ele>1036.0000</ele>
        <time>2010-01-01T00:47:16Z</time>
      </trkpt>
      <trkpt lat="63.62661340" lon="-19.4422279">
        <ele>1036.1999</ele>
        <time>2010-01-01T00:47:16Z</time>
      </trkpt>
      <trkpt lat="63.62660590" lon="-19.4422095">
        <ele>1036.8000</ele>
        <time>2010-01-01T00:47:17Z</time>
      </trkpt>
      <trkpt lat="63.62659600" lon="-19.4421942">
        <ele>1037.1999</ele>
        <time>2010-01-01T00:47:17Z</time>
      </trkpt>
      <trkpt lat="63.62658750" lon="-19.4421789">
        <ele>1037.5999</ele>
        <time>2010-01-01T00:47:18Z</time>
      </trkpt>
      <trkpt lat="63.62657870" lon="-19.4421640">
        <ele>1038.0000</ele>
        <time>2010-01-01T00:47:18Z</time>
      </trkpt>
      <trkpt lat="63.62656890" lon="-19.4421505">
        <ele>1038.0000</ele>
        <time>2010-01-01T00:47:19Z</time>
      </trkpt>
      <trkpt lat="63.62647170" lon="-19.4420257">
        <ele>1038.4000</ele>
        <time>2010-01-01T00:47:23Z</time>
      </trkpt>
      <trkpt lat="63.62646080" lon="-19.4420104">
        <ele>1038.8000</ele>
        <time>2010-01-01T00:47:24Z</time>
      </trkpt>
      <trkpt lat="63.62645000" lon="-19.4419923">
        <ele>1039.1999</ele>
        <time>2010-01-01T00:47:24Z</time>
      </trkpt>
      <trkpt lat="63.62644060" lon="-19.4419751">
        <ele>1039.5999</ele>
        <time>2010-01-01T00:47:25Z</time>
      </trkpt>
      <trkpt lat="63.62642880" lon="-19.4419597">
        <ele>1040.0000</ele>
        <time>2010-01-01T00:47:25Z</time>
      </trkpt>
      <trkpt lat="63.62639630" lon="-19.4419062">
        <ele>1040.0000</ele>
        <time>2010-01-01T00:47:27Z</time>
      </trkpt>
      <trkpt lat="63.62635170" lon="-19.4418388">
        <ele>1040.0000</ele>
        <time>2010-01-01T00:47:29Z</time>
      </trkpt>
      <trkpt lat="63.62634220" lon="-19.4418330">
        <ele>1040.0000</ele>
        <time>2010-01-01T00:47:29Z</time>
      </trkpt>
      <trkpt lat="63.62633110" lon="-19.4418243">
        <ele>1040.0000</ele>
        <time>2010-01-01T00:47:30Z</time>
      </trkpt>
      <trkpt lat="63.62631830" lon="-19.4418115">
        <ele>1040.4000</ele>
        <time>2010-01-01T00:47:30Z</time>
      </trkpt>
      <trkpt lat="63.62630440" lon="-19.4418003">
        <ele>1040.8000</ele>
        <time>2010-01-01T00:47:31Z</time>
      </trkpt>
      <trkpt lat="63.62629070" lon="-19.4417926">
        <ele>1041.0000</ele>
        <time>2010-01-01T00:47:31Z</time>
      </trkpt>
      <trkpt lat="63.62628450" lon="-19.4417840">
        <ele>1041.1999</ele>
        <time>2010-01-01T00:47:32Z</time>
      </trkpt>
      <trkpt lat="63.62626200" lon="-19.4417555">
        <ele>1041.8000</ele>
        <time>2010-01-01T00:47:33Z</time>
      </trkpt>
      <trkpt lat="63.62624380" lon="-19.4417362">
        <ele>1042.0000</ele>
        <time>2010-01-01T00:47:34Z</time>
      </trkpt>
      <trkpt lat="63.62621870" lon="-19.4417179">
        <ele>1042.0000</ele>
        <time>2010-01-01T00:47:35Z</time>
      </trkpt>
      <trkpt lat="63.62619120" lon="-19.4417021">
        <ele>1042.4000</ele>
        <time>2010-01-01T00:47:36Z</time>
      </trkpt>
      <trkpt lat="63.62615600" lon="-19.4416655">
        <ele>1042.0000</ele>
        <time>2010-01-01T00:47:37Z</time>
      </trkpt>
      <trkpt lat="63.62608510" lon="-19.4416243">
        <ele>1042.0000</ele>
        <time>2010-01-01T00:47:40Z</time>
      </trkpt>
      <trkpt lat="63.62604630" lon="-19.4415830">
        <ele>1042.1999</ele>
        <time>2010-01-01T00:47:42Z</time>
      </trkpt>
      <trkpt lat="63.62603840" lon="-19.4415755">
        <ele>1042.4000</ele>
        <time>2010-01-01T00:47:42Z</time>
      </trkpt>
      <trkpt lat="63.62603090" lon="-19.4415642">
        <ele>1042.8000</ele>
        <time>2010-01-01T00:47:43Z</time>
      </trkpt>
      <trkpt lat="63.62602200" lon="-19.4415510">
        <ele>1043.0000</ele>
        <time>2010-01-01T00:47:43Z</time>
      </trkpt>
      <trkpt lat="63.62601350" lon="-19.4415379">
        <ele>1043.4000</ele>
        <time>2010-01-01T00:47:43Z</time>
      </trkpt>
      <trkpt lat="63.62600480" lon="-19.4415250">
        <ele>1043.8000</ele>
        <time>2010-01-01T00:47:44Z</time>
      </trkpt>
      <trkpt lat="63.62599610" lon="-19.4415135">
        <ele>1044.1999</ele>
        <time>2010-01-01T00:47:44Z</time>
      </trkpt>
      <trkpt lat="63.62593460" lon="-19.4414514">
        <ele>1044.5999</ele>
        <time>2010-01-01T00:47:47Z</time>
      </trkpt>
      <trkpt lat="63.62592610" lon="-19.4414354">
        <ele>1045.0000</ele>
        <time>2010-01-01T00:47:47Z</time>
      </trkpt>
      <trkpt lat="63.62591700" lon="-19.4414220">
        <ele>1045.4000</ele>
        <time>2010-01-01T00:47:48Z</time>
      </trkpt>
      <trkpt lat="63.62590810" lon="-19.4414122">
        <ele>1045.8000</ele>
        <time>2010-01-01T00:47:48Z</time>
      </trkpt>
      <trkpt lat="63.62590030" lon="-19.4414071">
        <ele>1046.1999</ele>
        <time>2010-01-01T00:47:49Z</time>
      </trkpt>
      <trkpt lat="63.62589090" lon="-19.4414027">
        <ele>1046.1999</ele>
        <time>2010-01-01T00:47:49Z</time>
      </trkpt>
      <trkpt lat="63.62588150" lon="-19.4413934">
        <ele>1046.1999</ele>
        <time>2010-01-01T00:47:49Z</time>
      </trkpt>
      <trkpt lat="63.62587470" lon="-19.4413819">
        <ele>1046.1999</ele>
        <time>2010-01-01T00:47:50Z</time>
      </trkpt>
      <trkpt lat="63.62586870" lon="-19.4413723">
        <ele>1046.1999</ele>
        <time>2010-01-01T00:47:50Z</time>
      </trkpt>
      <trkpt lat="63.62582880" lon="-19.4413426">
        <ele>1046.5999</ele>
        <time>2010-01-01T00:47:52Z</time>
      </trkpt>
      <trkpt lat="63.62582000" lon="-19.4413315">
        <ele>1047.0000</ele>
        <time>2010-01-01T00:47:52Z</time>
      </trkpt>
      <trkpt lat="63.62581150" lon="-19.4413205">
        <ele>1047.4000</ele>
        <time>2010-01-01T00:47:53Z</time>
      </trkpt>
      <trkpt lat="63.62580290" lon="-19.4413068">
        <ele>1047.8000</ele>
        <time>2010-01-01T00:47:53Z</time>
      </trkpt>
      <trkpt lat="63.62579480" lon="-19.4412959">
        <ele>1048.1999</ele>
        <time>2010-01-01T00:47:53Z</time>
      </trkpt>
      <trkpt lat="63.62572370" lon="-19.4412383">
        <ele>1048.5999</ele>
        <time>2010-01-01T00:47:56Z</time>
      </trkpt>
      <trkpt lat="63.62571450" lon="-19.4412304">
        <ele>1048.8000</ele>
        <time>2010-01-01T00:47:57Z</time>
      </trkpt>
      <trkpt lat="63.62570300" lon="-19.4412213">
        <ele>1049.1999</ele>
        <time>2010-01-01T00:47:57Z</time>
      </trkpt>
      <trkpt lat="63.62569080" lon="-19.4412116">
        <ele>1049.5999</ele>
        <time>2010-01-01T00:47:58Z</time>
      </trkpt>
      <trkpt lat="63.62567660" lon="-19.4412004">
        <ele>1050.0000</ele>
        <time>2010-01-01T00:47:58Z</time>
      </trkpt>
      <trkpt lat="63.62566440" lon="-19.4411879">
        <ele>1050.1999</ele>
        <time>2010-01-01T00:47:59Z</time>
      </trkpt>
      <trkpt lat="63.62562750" lon="-19.4411494">
        <ele>1050.1999</ele>
        <time>2010-01-01T00:48:01Z</time>
      </trkpt>
      <trkpt lat="63.62555350" lon="-19.4411103">
        <ele>1050.1999</ele>
        <time>2010-01-01T00:48:04Z</time>
      </trkpt>
      <trkpt lat="63.62547030" lon="-19.4410491">
        <ele>1050.1999</ele>
        <time>2010-01-01T00:48:07Z</time>
      </trkpt>
      <trkpt lat="63.62545580" lon="-19.4410359">
        <ele>1050.1999</ele>
        <time>2010-01-01T00:48:08Z</time>
      </trkpt>
      <trkpt lat="63.62543950" lon="-19.4410236">
        <ele>1050.1999</ele>
        <time>2010-01-01T00:48:08Z</time>
      </trkpt>
      <trkpt lat="63.62541830" lon="-19.4410056">
        <ele>1050.1999</ele>
        <time>2010-01-01T00:48:09Z</time>
      </trkpt>
      <trkpt lat="63.62539570" lon="-19.4409894">
        <ele>1050.1999</ele>
        <time>2010-01-01T00:48:10Z</time>
      </trkpt>
      <trkpt lat="63.62537510" lon="-19.4409833">
        <ele>1050.1999</ele>
        <time>2010-01-01T00:48:11Z</time>
      </trkpt>
      <trkpt lat="63.62526010" lon="-19.4409560">
        <ele>1050.1999</ele>
        <time>2010-01-01T00:48:16Z</time>
      </trkpt>
      <trkpt lat="63.62510790" lon="-19.4409266">
        <ele>1050.1999</ele>
        <time>2010-01-01T00:48:22Z</time>
      </trkpt>
      <trkpt lat="63.62499520" lon="-19.4409326">
        <ele>1050.1999</ele>
        <time>2010-01-01T00:48:26Z</time>
      </trkpt>
      <trkpt lat="63.62487600" lon="-19.4409158">
        <ele>1049.8000</ele>
        <time>2010-01-01T00:48:31Z</time>
      </trkpt>
      <trkpt lat="63.62485520" lon="-19.4409100">
        <ele>1049.4000</ele>
        <time>2010-01-01T00:48:32Z</time>
      </trkpt>
      <trkpt lat="63.62482990" lon="-19.4409042">
        <ele>1049.0000</ele>
        <time>2010-01-01T00:48:33Z</time>
      </trkpt>
      <trkpt lat="63.62480650" lon="-19.4408959">
        <ele>1048.5999</ele>
        <time>2010-01-01T00:48:34Z</time>
      </trkpt>
      <trkpt lat="63.62478210" lon="-19.4408830">
        <ele>1048.1999</ele>
        <time>2010-01-01T00:48:35Z</time>
      </trkpt>
      <trkpt lat="63.62475440" lon="-19.4408721">
        <ele>1048.1999</ele>
        <time>2010-01-01T00:48:36Z</time>
      </trkpt>
      <trkpt lat="63.62472770" lon="-19.4408572">
        <ele>1048.1999</ele>
        <time>2010-01-01T00:48:37Z</time>
      </trkpt>
      <trkpt lat="63.62469590" lon="-19.4408395">
        <ele>1048.1999</ele>
        <time>2010-01-01T00:48:38Z</time>
      </trkpt>
      <trkpt lat="63.62466630" lon="-19.4408266">
        <ele>1048.1999</ele>
        <time>2010-01-01T00:48:40Z</time>
      </trkpt>
      <trkpt lat="63.62463900" lon="-19.4408170">
        <ele>1048.1999</ele>
        <time>2010-01-01T00:48:41Z</time>
      </trkpt>
      <trkpt lat="63.62460770" lon="-19.4407922">
        <ele>1048.1999</ele>
        <time>2010-01-01T00:48:42Z</time>
      </trkpt>
      <trkpt lat="63.62458150" lon="-19.4407745">
        <ele>1048.1999</ele>
        <time>2010-01-01T00:48:43Z</time>
      </trkpt>
      <trkpt lat="63.62455300" lon="-19.4407573">
        <ele>1048.0000</ele>
        <time>2010-01-01T00:48:44Z</time>
      </trkpt>
      <trkpt lat="63.62452260" lon="-19.4407445">
        <ele>1047.5999</ele>
        <time>2010-01-01T00:48:46Z</time>
      </trkpt>
      <trkpt lat="63.62449810" lon="-19.4407312">
        <ele>1047.1999</ele>
        <time>2010-01-01T00:48:47Z</time>
      </trkpt>
      <trkpt lat="63.62447000" lon="-19.4407148">
        <ele>1046.5999</ele>
        <time>2010-01-01T00:48:48Z</time>
      </trkpt>
      <trkpt lat="63.62444200" lon="-19.4407039">
        <ele>1046.1999</ele>
        <time>2010-01-01T00:48:49Z</time>
      </trkpt>
      <trkpt lat="63.62441770" lon="-19.4407010">
        <ele>1045.8000</ele>
        <time>2010-01-01T00:48:50Z</time>
      </trkpt>
      <trkpt lat="63.62439200" lon="-19.4407001">
        <ele>1045.1999</ele>
        <time>2010-01-01T00:48:51Z</time>
      </trkpt>
      <trkpt lat="63.62436580" lon="-19.4406900">
        <ele>1044.8000</ele>
        <time>2010-01-01T00:48:52Z</time>
      </trkpt>
      <trkpt lat="63.62433690" lon="-19.4406789">
        <ele>1044.1999</ele>
        <time>2010-01-01T00:48:53Z</time>
      </trkpt>
      <trkpt lat="63.62431130" lon="-19.4406757">
        <ele>1043.8000</ele>
        <time>2010-01-01T00:48:54Z</time>
      </trkpt>
      <trkpt lat="63.62428350" lon="-19.4406730">
        <ele>1043.8000</ele>
        <time>2010-01-01T00:48:55Z</time>
      </trkpt>
      <trkpt lat="63.62413370" lon="-19.4406465">
        <ele>1043.8000</ele>
        <time>2010-01-01T00:49:01Z</time>
      </trkpt>
      <trkpt lat="63.62400750" lon="-19.4406477">
        <ele>1043.8000</ele>
        <time>2010-01-01T00:49:06Z</time>
      </trkpt>
      <trkpt lat="63.62397160" lon="-19.4406482">
        <ele>1043.8000</ele>
        <time>2010-01-01T00:49:08Z</time>
      </trkpt>
      <trkpt lat="63.62395030" lon="-19.4406511">
        <ele>1043.8000</ele>
        <time>2010-01-01T00:49:09Z</time>
      </trkpt>
      <trkpt lat="63.62393190" lon="-19.4406485">
        <ele>1043.8000</ele>
        <time>2010-01-01T00:49:09Z</time>
      </trkpt>
      <trkpt lat="63.62391640" lon="-19.4406442">
        <ele>1043.8000</ele>
        <time>2010-01-01T00:49:10Z</time>
      </trkpt>
      <trkpt lat="63.62388040" lon="-19.4406397">
        <ele>1043.8000</ele>
        <time>2010-01-01T00:49:11Z</time>
      </trkpt>
      <trkpt lat="63.62386500" lon="-19.4406396">
        <ele>1044.1999</ele>
        <time>2010-01-01T00:49:12Z</time>
      </trkpt>
      <trkpt lat="63.62384290" lon="-19.4406393">
        <ele>1044.5999</ele>
        <time>2010-01-01T00:49:13Z</time>
      </trkpt>
      <trkpt lat="63.62382210" lon="-19.4406372">
        <ele>1045.0000</ele>
        <time>2010-01-01T00:49:14Z</time>
      </trkpt>
      <trkpt lat="63.62380390" lon="-19.4406326">
        <ele>1045.4000</ele>
        <time>2010-01-01T00:49:15Z</time>
      </trkpt>
      <trkpt lat="63.62378770" lon="-19.4406331">
        <ele>1045.8000</ele>
        <time>2010-01-01T00:49:15Z</time>
      </trkpt>
      <trkpt lat="63.62377010" lon="-19.4406334">
        <ele>1046.0000</ele>
        <time>2010-01-01T00:49:16Z</time>
      </trkpt>
      <trkpt lat="63.62374970" lon="-19.4406330">
        <ele>1046.0000</ele>
        <time>2010-01-01T00:49:17Z</time>
      </trkpt>
      <trkpt lat="63.62373540" lon="-19.4406371">
        <ele>1046.0000</ele>
        <time>2010-01-01T00:49:17Z</time>
      </trkpt>
      <trkpt lat="63.62371640" lon="-19.4406392">
        <ele>1046.0000</ele>
        <time>2010-01-01T00:49:18Z</time>
      </trkpt>
      <trkpt lat="63.62360260" lon="-19.4406211">
        <ele>1046.0000</ele>
        <time>2010-01-01T00:49:23Z</time>
      </trkpt>
      <trkpt lat="63.62358260" lon="-19.4406174">
        <ele>1046.4000</ele>
        <time>2010-01-01T00:49:23Z</time>
      </trkpt>
      <trkpt lat="63.62356370" lon="-19.4406141">
        <ele>1046.5999</ele>
        <time>2010-01-01T00:49:24Z</time>
      </trkpt>
      <trkpt lat="63.62354720" lon="-19.4406163">
        <ele>1046.8000</ele>
        <time>2010-01-01T00:49:25Z</time>
      </trkpt>
      <trkpt lat="63.62352870" lon="-19.4406202">
        <ele>1047.1999</ele>
        <time>2010-01-01T00:49:26Z</time>
      </trkpt>
      <trkpt lat="63.62350770" lon="-19.4406189">
        <ele>1047.5999</ele>
        <time>2010-01-01T00:49:26Z</time>
      </trkpt>
      <trkpt lat="63.62348620" lon="-19.4406169">
        <ele>1048.0000</ele>
        <time>2010-01-01T00:49:27Z</time>
      </trkpt>
      <trkpt lat="63.62346560" lon="-19.4406229">
        <ele>1048.0000</ele>
        <time>2010-01-01T00:49:28Z</time>
      </trkpt>
      <trkpt lat="63.62341180" lon="-19.4406158">
        <ele>1048.1999</ele>
        <time>2010-01-01T00:49:30Z</time>
      </trkpt>
      <trkpt lat="63.62339040" lon="-19.4406091">
        <ele>1048.5999</ele>
        <time>2010-01-01T00:49:31Z</time>
      </trkpt>
      <trkpt lat="63.62336930" lon="-19.4406034">
        <ele>1049.0000</ele>
        <time>2010-01-01T00:49:32Z</time>
      </trkpt>
      <trkpt lat="63.62335050" lon="-19.4405977">
        <ele>1049.4000</ele>
        <time>2010-01-01T00:49:33Z</time>
      </trkpt>
      <trkpt lat="63.62332600" lon="-19.4405863">
        <ele>1049.8000</ele>
        <time>2010-01-01T00:49:34Z</time>
      </trkpt>
      <trkpt lat="63.62330640" lon="-19.4405803">
        <ele>1050.0000</ele>
        <time>2010-01-01T00:49:35Z</time>
      </trkpt>
      <trkpt lat="63.62328950" lon="-19.4405767">
        <ele>1050.0000</ele>
        <time>2010-01-01T00:49:35Z</time>
      </trkpt>
      <trkpt lat="63.62326700" lon="-19.4405704">
        <ele>1050.0000</ele>
        <time>2010-01-01T00:49:36Z</time>
      </trkpt>
      <trkpt lat="63.62324650" lon="-19.4405685">
        <ele>1050.0000</ele>
        <time>2010-01-01T00:49:37Z</time>
      </trkpt>
      <trkpt lat="63.62322100" lon="-19.4405671">
        <ele>1050.0000</ele>
        <time>2010-01-01T00:49:38Z</time>
      </trkpt>
      <trkpt lat="63.62319410" lon="-19.4405612">
        <ele>1050.0000</ele>
        <time>2010-01-01T00:49:39Z</time>
      </trkpt>
      <trkpt lat="63.62316880" lon="-19.4405561">
        <ele>1050.0000</ele>
        <time>2010-01-01T00:49:40Z</time>
      </trkpt>
      <trkpt lat="63.62314490" lon="-19.4405513">
        <ele>1050.0000</ele>
        <time>2010-01-01T00:49:41Z</time>
      </trkpt>
      <trkpt lat="63.62308300" lon="-19.4405454">
        <ele>1050.0000</ele>
        <time>2010-01-01T00:49:43Z</time>
      </trkpt>
      <trkpt lat="63.62305340" lon="-19.4405428">
        <ele>1050.0000</ele>
        <time>2010-01-01T00:49:45Z</time>
      </trkpt>
      <trkpt lat="63.62302340" lon="-19.4405354">
        <ele>1050.0000</ele>
        <time>2010-01-01T00:49:46Z</time>
      </trkpt>
      <trkpt lat="63.62299320" lon="-19.4405309">
        <ele>1050.0000</ele>
        <time>2010-01-01T00:49:47Z</time>
      </trkpt>
      <trkpt lat="63.62296720" lon="-19.4405314">
        <ele>1050.0000</ele>
        <time>2010-01-01T00:49:48Z</time>
      </trkpt>
      <trkpt lat="63.62283920" lon="-19.4404436">
        <ele>1050.0000</ele>
        <time>2010-01-01T00:49:53Z</time>
      </trkpt>
      <trkpt lat="63.62281830" lon="-19.4404164">
        <ele>1049.8000</ele>
        <time>2010-01-01T00:49:54Z</time>
      </trkpt>
      <trkpt lat="63.62279670" lon="-19.4403831">
        <ele>1049.4000</ele>
        <time>2010-01-01T00:49:56Z</time>
      </trkpt>
      <trkpt lat="63.62277570" lon="-19.4403515">
        <ele>1049.0000</ele>
        <time>2010-01-01T00:49:57Z</time>
      </trkpt>
      <trkpt lat="63.62274830" lon="-19.4403219">
        <ele>1048.5999</ele>
        <time>2010-01-01T00:49:58Z</time>
      </trkpt>
      <trkpt lat="63.62271990" lon="-19.4402953">
        <ele>1048.0000</ele>
        <time>2010-01-01T00:49:59Z</time>
      </trkpt>
      <trkpt lat="63.62269080" lon="-19.4402714">
        <ele>1047.5999</ele>
        <time>2010-01-01T00:50:00Z</time>
      </trkpt>
      <trkpt lat="63.62265930" lon="-19.4402439">
        <ele>1047.0000</ele>
        <time>2010-01-01T00:50:02Z</time>
      </trkpt>
      <trkpt lat="63.62263020" lon="-19.4402190">
        <ele>1046.4000</ele>
        <time>2010-01-01T00:50:03Z</time>
      </trkpt>
      <trkpt lat="63.62259990" lon="-19.4401779">
        <ele>1045.8000</ele>
        <time>2010-01-01T00:50:04Z</time>
      </trkpt>
      <trkpt lat="63.62256540" lon="-19.4401443">
        <ele>1045.4000</ele>
        <time>2010-01-01T00:50:06Z</time>
      </trkpt>
      <trkpt lat="63.62252490" lon="-19.4401297">
        <ele>1044.8000</ele>
        <time>2010-01-01T00:50:07Z</time>
      </trkpt>
      <trkpt lat="63.62248130" lon="-19.4401279">
        <ele>1044.0000</ele>
        <time>2010-01-01T00:50:09Z</time>
      </trkpt>
      <trkpt lat="63.62244160" lon="-19.4401243">
        <ele>1043.4000</ele>
        <time>2010-01-01T00:50:11Z</time>
      </trkpt>
      <trkpt lat="63.62240430" lon="-19.4401157">
        <ele>1042.8000</ele>
        <time>2010-01-01T00:50:12Z</time>
      </trkpt>
      <trkpt lat="63.62236820" lon="-19.4401134">
        <ele>1042.1999</ele>
        <time>2010-01-01T00:50:14Z</time>
      </trkpt>
      <trkpt lat="63.62233510" lon="-19.4401128">
        <ele>1041.5999</ele>
        <time>2010-01-01T00:50:15Z</time>
      </trkpt>
      <trkpt lat="63.62230760" lon="-19.4401161">
        <ele>1041.0000</ele>
        <time>2010-01-01T00:50:16Z</time>
      </trkpt>
      <trkpt lat="63.62228270" lon="-19.4401298">
        <ele>1040.4000</ele>
        <time>2010-01-01T00:50:17Z</time>
      </trkpt>
      <trkpt lat="63.62226840" lon="-19.4401457">
        <ele>1039.4000</ele>
        <time>2010-01-01T00:50:18Z</time>
      </trkpt>
      <trkpt lat="63.62226210" lon="-19.4401569">
        <ele>1038.4000</ele>
        <time>2010-01-01T00:50:18Z</time>
      </trkpt>
      <trkpt lat="63.62225580" lon="-19.4401722">
        <ele>1037.5999</ele>
        <time>2010-01-01T00:50:18Z</time>
      </trkpt>
      <trkpt lat="63.62224820" lon="-19.4401894">
        <ele>1036.5999</ele>
        <time>2010-01-01T00:50:19Z</time>
      </trkpt>
      <trkpt lat="63.62223600" lon="-19.4402084">
        <ele>1035.5999</ele>
        <time>2010-01-01T00:50:19Z</time>
      </trkpt>
      <trkpt lat="63.62222230" lon="-19.4402331">
        <ele>1035.5999</ele>
        <time>2010-01-01T00:50:20Z</time>
      </trkpt>
      <trkpt lat="63.62220950" lon="-19.4402567">
        <ele>1035.5999</ele>
        <time>2010-01-01T00:50:21Z</time>
      </trkpt>
      <trkpt lat="63.62219280" lon="-19.4402882">
        <ele>1035.5999</ele>
        <time>2010-01-01T00:50:22Z</time>
      </trkpt>
      <trkpt lat="63.62218230" lon="-19.4403129">
        <ele>1035.5999</ele>
        <time>2010-01-01T00:50:22Z</time>
      </trkpt>
      <trkpt lat="63.62216680" lon="-19.4403460">
        <ele>1035.5999</ele>
        <time>2010-01-01T00:50:23Z</time>
      </trkpt>
      <trkpt lat="63.62214770" lon="-19.4403843">
        <ele>1035.5999</ele>
        <time>2010-01-01T00:50:24Z</time>
      </trkpt>
      <trkpt lat="63.62213140" lon="-19.4404106">
        <ele>1035.5999</ele>
        <time>2010-01-01T00:50:25Z</time>
      </trkpt>
      <trkpt lat="63.62208150" lon="-19.4404770">
        <ele>1035.4000</ele>
        <time>2010-01-01T00:50:27Z</time>
      </trkpt>
      <trkpt lat="63.62205910" lon="-19.4405011">
        <ele>1035.0000</ele>
        <time>2010-01-01T00:50:28Z</time>
      </trkpt>
      <trkpt lat="63.62204100" lon="-19.4405189">
        <ele>1034.5999</ele>
        <time>2010-01-01T00:50:29Z</time>
      </trkpt>
      <trkpt lat="63.62202300" lon="-19.4405363">
        <ele>1034.1999</ele>
        <time>2010-01-01T00:50:30Z</time>
      </trkpt>
      <trkpt lat="63.62199560" lon="-19.4405582">
        <ele>1033.8000</ele>
        <time>2010-01-01T00:50:31Z</time>
      </trkpt>
      <trkpt lat="63.62197130" lon="-19.4405808">
        <ele>1033.5999</ele>
        <time>2010-01-01T00:50:32Z</time>
      </trkpt>
      <trkpt lat="63.62192600" lon="-19.4406324">
        <ele>1033.1999</ele>
        <time>2010-01-01T00:50:34Z</time>
      </trkpt>
      <trkpt lat="63.62190380" lon="-19.4406575">
        <ele>1032.8000</ele>
        <time>2010-01-01T00:50:35Z</time>
      </trkpt>
      <trkpt lat="63.62187810" lon="-19.4406868">
        <ele>1032.5999</ele>
        <time>2010-01-01T00:50:36Z</time>
      </trkpt>
      <trkpt lat="63.62185760" lon="-19.4406953">
        <ele>1032.0000</ele>
        <time>2010-01-01T00:50:37Z</time>
      </trkpt>
      <trkpt lat="63.62183520" lon="-19.4407174">
        <ele>1031.5999</ele>
        <time>2010-01-01T00:50:38Z</time>
      </trkpt>
      <trkpt lat="63.62180670" lon="-19.4407363">
        <ele>1031.4000</ele>
        <time>2010-01-01T00:50:39Z</time>
      </trkpt>
      <trkpt lat="63.62177670" lon="-19.4407501">
        <ele>1031.1999</ele>
        <time>2010-01-01T00:50:40Z</time>
      </trkpt>
      <trkpt lat="63.62175190" lon="-19.4407350">
        <ele>1031.0000</ele>
        <time>2010-01-01T00:50:42Z</time>
      </trkpt>
      <trkpt lat="63.62172760" lon="-19.4407460">
        <ele>1030.5999</ele>
        <time>2010-01-01T00:50:43Z</time>
      </trkpt>
      <trkpt lat="63.62170060" lon="-19.4407623">
        <ele>1030.1999</ele>
        <time>2010-01-01T00:50:44Z</time>
      </trkpt>
      <trkpt lat="63.62166890" lon="-19.4407727">
        <ele>1029.8000</ele>
        <time>2010-01-01T00:50:45Z</time>
      </trkpt>
      <trkpt lat="63.62163820" lon="-19.4407787">
        <ele>1029.4000</ele>
        <time>2010-01-01T00:50:46Z</time>
      </trkpt>
      <trkpt lat="63.62160700" lon="-19.4407836">
        <ele>1029.0000</ele>
        <time>2010-01-01T00:50:47Z</time>
      </trkpt>
      <trkpt lat="63.62158080" lon="-19.4407894">
        <ele>1028.5999</ele>
        <time>2010-01-01T00:50:48Z</time>
      </trkpt>
      <trkpt lat="63.62155150" lon="-19.4407956">
        <ele>1028.0000</ele>
        <time>2010-01-01T00:50:50Z</time>
      </trkpt>
      <trkpt lat="63.62152660" lon="-19.4408009">
        <ele>1027.5999</ele>
        <time>2010-01-01T00:50:51Z</time>
      </trkpt>
      <trkpt lat="63.62150720" lon="-19.4408076">
        <ele>1027.4000</ele>
        <time>2010-01-01T00:50:51Z</time>
      </trkpt>
      <trkpt lat="63.62148060" lon="-19.4408116">
        <ele>1027.0000</ele>
        <time>2010-01-01T00:50:52Z</time>
      </trkpt>
      <trkpt lat="63.62145250" lon="-19.4408097">
        <ele>1026.4000</ele>
        <time>2010-01-01T00:50:54Z</time>
      </trkpt>
      <trkpt lat="63.62142960" lon="-19.4408065">
        <ele>1025.8000</ele>
        <time>2010-01-01T00:50:55Z</time>
      </trkpt>
      <trkpt lat="63.62140810" lon="-19.4407988">
        <ele>1025.4000</ele>
        <time>2010-01-01T00:50:55Z</time>
      </trkpt>
      <trkpt lat="63.62138850" lon="-19.4407817">
        <ele>1025.0000</ele>
        <time>2010-01-01T00:50:56Z</time>
      </trkpt>
      <trkpt lat="63.62136860" lon="-19.4407599">
        <ele>1024.8000</ele>
        <time>2010-01-01T00:50:57Z</time>
      </trkpt>
      <trkpt lat="63.62134790" lon="-19.4407429">
        <ele>1024.4000</ele>
        <time>2010-01-01T00:50:58Z</time>
      </trkpt>
      <trkpt lat="63.62132010" lon="-19.4407349">
        <ele>1024.1999</ele>
        <time>2010-01-01T00:50:59Z</time>
      </trkpt>
      <trkpt lat="63.62128860" lon="-19.4407278">
        <ele>1023.7999</ele>
        <time>2010-01-01T00:51:00Z</time>
      </trkpt>
      <trkpt lat="63.62125980" lon="-19.4407266">
        <ele>1023.4000</ele>
        <time>2010-01-01T00:51:02Z</time>
      </trkpt>
      <trkpt lat="63.62122640" lon="-19.4407355">
        <ele>1023.0000</ele>
        <time>2010-01-01T00:51:03Z</time>
      </trkpt>
      <trkpt lat="63.62119370" lon="-19.4407495">
        <ele>1022.4000</ele>
        <time>2010-01-01T00:51:04Z</time>
      </trkpt>
      <trkpt lat="63.62116100" lon="-19.4407657">
        <ele>1021.7999</ele>
        <time>2010-01-01T00:51:06Z</time>
      </trkpt>
      <trkpt lat="63.62112720" lon="-19.4407772">
        <ele>1021.0000</ele>
        <time>2010-01-01T00:51:07Z</time>
      </trkpt>
      <trkpt lat="63.62109860" lon="-19.4407844">
        <ele>1020.2000</ele>
        <time>2010-01-01T00:51:08Z</time>
      </trkpt>
      <trkpt lat="63.62106080" lon="-19.4407985">
        <ele>1019.5999</ele>
        <time>2010-01-01T00:51:10Z</time>
      </trkpt>
      <trkpt lat="63.62102570" lon="-19.4408131">
        <ele>1018.7999</ele>
        <time>2010-01-01T00:51:11Z</time>
      </trkpt>
      <trkpt lat="63.62099440" lon="-19.4408279">
        <ele>1018.0000</ele>
        <time>2010-01-01T00:51:12Z</time>
      </trkpt>
      <trkpt lat="63.62095850" lon="-19.4408407">
        <ele>1017.2000</ele>
        <time>2010-01-01T00:51:14Z</time>
      </trkpt>
      <trkpt lat="63.62092660" lon="-19.4408417">
        <ele>1016.4000</ele>
        <time>2010-01-01T00:51:15Z</time>
      </trkpt>
      <trkpt lat="63.62088920" lon="-19.4408395">
        <ele>1015.4000</ele>
        <time>2010-01-01T00:51:17Z</time>
      </trkpt>
      <trkpt lat="63.62085470" lon="-19.4408468">
        <ele>1014.2000</ele>
        <time>2010-01-01T00:51:18Z</time>
      </trkpt>
      <trkpt lat="63.62082220" lon="-19.4408595">
        <ele>1013.2000</ele>
        <time>2010-01-01T00:51:19Z</time>
      </trkpt>
      <trkpt lat="63.62079220" lon="-19.4408790">
        <ele>1012.0000</ele>
        <time>2010-01-01T00:51:21Z</time>
      </trkpt>
      <trkpt lat="63.62076260" lon="-19.4409003">
        <ele>1011.0000</ele>
        <time>2010-01-01T00:51:22Z</time>
      </trkpt>
      <trkpt lat="63.62073160" lon="-19.4409288">
        <ele>1009.7999</ele>
        <time>2010-01-01T00:51:23Z</time>
      </trkpt>
      <trkpt lat="63.62070510" lon="-19.4409604">
        <ele>1008.5999</ele>
        <time>2010-01-01T00:51:24Z</time>
      </trkpt>
      <trkpt lat="63.62068020" lon="-19.4409959">
        <ele>1007.5999</ele>
        <time>2010-01-01T00:51:25Z</time>
      </trkpt>
      <trkpt lat="63.62065400" lon="-19.4410384">
        <ele>1006.4000</ele>
        <time>2010-01-01T00:51:27Z</time>
      </trkpt>
      <trkpt lat="63.62062550" lon="-19.4410849">
        <ele>1005.5999</ele>
        <time>2010-01-01T00:51:28Z</time>
      </trkpt>
      <trkpt lat="63.62059900" lon="-19.4411084">
        <ele>1004.4000</ele>
        <time>2010-01-01T00:51:29Z</time>
      </trkpt>
      <trkpt lat="63.62054650" lon="-19.4411609">
        <ele>1003.2000</ele>
        <time>2010-01-01T00:51:32Z</time>
      </trkpt>
      <trkpt lat="63.62051710" lon="-19.4411959">
        <ele>1002.0000</ele>
        <time>2010-01-01T00:51:33Z</time>
      </trkpt>
      <trkpt lat="63.62049240" lon="-19.4412292">
        <ele>1001.0000</ele>
        <time>2010-01-01T00:51:34Z</time>
      </trkpt>
      <trkpt lat="63.62047270" lon="-19.4412556">
        <ele>999.40002</ele>
        <time>2010-01-01T00:51:35Z</time>
      </trkpt>
      <trkpt lat="63.62045580" lon="-19.4412839">
        <ele>998.20001</ele>
        <time>2010-01-01T00:51:36Z</time>
      </trkpt>
      <trkpt lat="63.62044210" lon="-19.4413041">
        <ele>997.00000</ele>
        <time>2010-01-01T00:51:37Z</time>
      </trkpt>
      <trkpt lat="63.62042980" lon="-19.4413252">
        <ele>995.40002</ele>
        <time>2010-01-01T00:51:37Z</time>
      </trkpt>
      <trkpt lat="63.62041220" lon="-19.4413537">
        <ele>994.79998</ele>
        <time>2010-01-01T00:51:38Z</time>
      </trkpt>
      <trkpt lat="63.62040520" lon="-19.4413748">
        <ele>993.20001</ele>
        <time>2010-01-01T00:51:38Z</time>
      </trkpt>
      <trkpt lat="63.62039380" lon="-19.4414045">
        <ele>992.20001</ele>
        <time>2010-01-01T00:51:39Z</time>
      </trkpt>
      <trkpt lat="63.62038900" lon="-19.4414183">
        <ele>991.20001</ele>
        <time>2010-01-01T00:51:39Z</time>
      </trkpt>
      <trkpt lat="63.62038660" lon="-19.4414316">
        <ele>990.79998</ele>
        <time>2010-01-01T00:51:40Z</time>
      </trkpt>
      <trkpt lat="63.62038000" lon="-19.4414484">
        <ele>990.00000</ele>
        <time>2010-01-01T00:51:40Z</time>
      </trkpt>
      <trkpt lat="63.62038320" lon="-19.4414634">
        <ele>989.40002</ele>
        <time>2010-01-01T00:51:40Z</time>
      </trkpt>
      <trkpt lat="63.62038840" lon="-19.4414797">
        <ele>988.59997</ele>
        <time>2010-01-01T00:51:41Z</time>
      </trkpt>
      <trkpt lat="63.62039540" lon="-19.4414988">
        <ele>988.00000</ele>
        <time>2010-01-01T00:51:41Z</time>
      </trkpt>
      <trkpt lat="63.62040660" lon="-19.4415434">
        <ele>988.00000</ele>
        <time>2010-01-01T00:51:42Z</time>
      </trkpt>
      <trkpt lat="63.62039980" lon="-19.4415746">
        <ele>988.00000</ele>
        <time>2010-01-01T00:51:43Z</time>
      </trkpt>
      <trkpt lat="63.62036880" lon="-19.4416443">
        <ele>988.00000</ele>
        <time>2010-01-01T00:51:45Z</time>
      </trkpt>
      <trkpt lat="63.62034870" lon="-19.4416739">
        <ele>988.00000</ele>
        <time>2010-01-01T00:51:45Z</time>
      </trkpt>
      <trkpt lat="63.62033190" lon="-19.4416840">
        <ele>987.79998</ele>
        <time>2010-01-01T00:51:46Z</time>
      </trkpt>
      <trkpt lat="63.62030080" lon="-19.4416860">
        <ele>987.40002</ele>
        <time>2010-01-01T00:51:47Z</time>
      </trkpt>
      <trkpt lat="63.62027380" lon="-19.4416985">
        <ele>987.20001</ele>
        <time>2010-01-01T00:51:49Z</time>
      </trkpt>
      <trkpt lat="63.62023870" lon="-19.4417236">
        <ele>986.59997</ele>
        <time>2010-01-01T00:51:50Z</time>
      </trkpt>
      <trkpt lat="63.62020370" lon="-19.4417465">
        <ele>985.79998</ele>
        <time>2010-01-01T00:51:51Z</time>
      </trkpt>
      <trkpt lat="63.62018380" lon="-19.4417644">
        <ele>984.00000</ele>
        <time>2010-01-01T00:51:52Z</time>
      </trkpt>
      <trkpt lat="63.62015050" lon="-19.4417901">
        <ele>983.59997</ele>
        <time>2010-01-01T00:51:54Z</time>
      </trkpt>
      <trkpt lat="63.62011860" lon="-19.4418234">
        <ele>983.59997</ele>
        <time>2010-01-01T00:51:55Z</time>
      </trkpt>
      <trkpt lat="63.62008960" lon="-19.4418563">
        <ele>983.20001</ele>
        <time>2010-01-01T00:51:56Z</time>
      </trkpt>
      <trkpt lat="63.62005820" lon="-19.4418924">
        <ele>982.79998</ele>
        <time>2010-01-01T00:51:58Z</time>
      </trkpt>
      <trkpt lat="63.62002740" lon="-19.4419192">
        <ele>982.00000</ele>
        <time>2010-01-01T00:51:59Z</time>
      </trkpt>
      <trkpt lat="63.61998130" lon="-19.4419456">
        <ele>981.00000</ele>
        <time>2010-01-01T00:52:01Z</time>
      </trkpt>
      <trkpt lat="63.61993840" lon="-19.4419613">
        <ele>979.40002</ele>
        <time>2010-01-01T00:52:03Z</time>
      </trkpt>
      <trkpt lat="63.61990050" lon="-19.4419796">
        <ele>978.00000</ele>
        <time>2010-01-01T00:52:04Z</time>
      </trkpt>
      <trkpt lat="63.61986630" lon="-19.4419891">
        <ele>977.20001</ele>
        <time>2010-01-01T00:52:06Z</time>
      </trkpt>
      <trkpt lat="63.61983680" lon="-19.4419912">
        <ele>976.40002</ele>
        <time>2010-01-01T00:52:07Z</time>
      </trkpt>
      <trkpt lat="63.61980830" lon="-19.4419956">
        <ele>975.20001</ele>
        <time>2010-01-01T00:52:08Z</time>
      </trkpt>
      <trkpt lat="63.61978830" lon="-19.4420013">
        <ele>974.20001</ele>
        <time>2010-01-01T00:52:09Z</time>
      </trkpt>
      <trkpt lat="63.61976560" lon="-19.4420051">
        <ele>972.79998</ele>
        <time>2010-01-01T00:52:10Z</time>
      </trkpt>
      <trkpt lat="63.61974100" lon="-19.4420121">
        <ele>971.79998</ele>
        <time>2010-01-01T00:52:11Z</time>
      </trkpt>
      <trkpt lat="63.61971880" lon="-19.4420202">
        <ele>970.79998</ele>
        <time>2010-01-01T00:52:12Z</time>
      </trkpt>
      <trkpt lat="63.61970070" lon="-19.4420364">
        <ele>970.40002</ele>
        <time>2010-01-01T00:52:12Z</time>
      </trkpt>
      <trkpt lat="63.61967570" lon="-19.4420446">
        <ele>970.00000</ele>
        <time>2010-01-01T00:52:13Z</time>
      </trkpt>
      <trkpt lat="63.61965060" lon="-19.4420585">
        <ele>969.59997</ele>
        <time>2010-01-01T00:52:15Z</time>
      </trkpt>
      <trkpt lat="63.61962270" lon="-19.4420730">
        <ele>969.00000</ele>
        <time>2010-01-01T00:52:16Z</time>
      </trkpt>
      <trkpt lat="63.61959680" lon="-19.4420921">
        <ele>968.59997</ele>
        <time>2010-01-01T00:52:17Z</time>
      </trkpt>
      <trkpt lat="63.61956790" lon="-19.4421117">
        <ele>968.20001</ele>
        <time>2010-01-01T00:52:18Z</time>
      </trkpt>
      <trkpt lat="63.61953380" lon="-19.4421167">
        <ele>967.79998</ele>
        <time>2010-01-01T00:52:19Z</time>
      </trkpt>
      <trkpt lat="63.61950370" lon="-19.4421304">
        <ele>967.40002</ele>
        <time>2010-01-01T00:52:21Z</time>
      </trkpt>
      <trkpt lat="63.61947890" lon="-19.4421522">
        <ele>966.79998</ele>
        <time>2010-01-01T00:52:22Z</time>
      </trkpt>
      <trkpt lat="63.61945130" lon="-19.4421737">
        <ele>966.40002</ele>
        <time>2010-01-01T00:52:23Z</time>
      </trkpt>
      <trkpt lat="63.61941520" lon="-19.4421884">
        <ele>965.79998</ele>
        <time>2010-01-01T00:52:24Z</time>
      </trkpt>
      <trkpt lat="63.61938420" lon="-19.4422067">
        <ele>965.40002</ele>
        <time>2010-01-01T00:52:26Z</time>
      </trkpt>
      <trkpt lat="63.61935200" lon="-19.4422145">
        <ele>964.79998</ele>
        <time>2010-01-01T00:52:27Z</time>
      </trkpt>
      <trkpt lat="63.61931180" lon="-19.4422207">
        <ele>964.00000</ele>
        <time>2010-01-01T00:52:28Z</time>
      </trkpt>
      <trkpt lat="63.61928350" lon="-19.4422310">
        <ele>963.59997</ele>
        <time>2010-01-01T00:52:30Z</time>
      </trkpt>
      <trkpt lat="63.61924140" lon="-19.4422423">
        <ele>963.00000</ele>
        <time>2010-01-01T00:52:31Z</time>
      </trkpt>
      <trkpt lat="63.61920230" lon="-19.4422502">
        <ele>962.40002</ele>
        <time>2010-01-01T00:52:33Z</time>
      </trkpt>
      <trkpt lat="63.61915880" lon="-19.4422670">
        <ele>961.59997</ele>
        <time>2010-01-01T00:52:35Z</time>
      </trkpt>
      <trkpt lat="63.61911780" lon="-19.4422902">
        <ele>960.40002</ele>
        <time>2010-01-01T00:52:36Z</time>
      </trkpt>
      <trkpt lat="63.61908870" lon="-19.4422904">
        <ele>960.00000</ele>
        <time>2010-01-01T00:52:37Z</time>
      </trkpt>
      <trkpt lat="63.61906230" lon="-19.4422938">
        <ele>959.00000</ele>
        <time>2010-01-01T00:52:39Z</time>
      </trkpt>
      <trkpt lat="63.61903530" lon="-19.4422960">
        <ele>957.79998</ele>
        <time>2010-01-01T00:52:40Z</time>
      </trkpt>
      <trkpt lat="63.61900770" lon="-19.4422984">
        <ele>956.59997</ele>
        <time>2010-01-01T00:52:41Z</time>
      </trkpt>
      <trkpt lat="63.61899070" lon="-19.4423072">
        <ele>955.59997</ele>
        <time>2010-01-01T00:52:41Z</time>
      </trkpt>
      <trkpt lat="63.61897300" lon="-19.4423181">
        <ele>955.00000</ele>
        <time>2010-01-01T00:52:42Z</time>
      </trkpt>
      <trkpt lat="63.61895360" lon="-19.4423258">
        <ele>954.40002</ele>
        <time>2010-01-01T00:52:43Z</time>
      </trkpt>
      <trkpt lat="63.61894050" lon="-19.4423191">
        <ele>953.79998</ele>
        <time>2010-01-01T00:52:44Z</time>
      </trkpt>
      <trkpt lat="63.61893100" lon="-19.4423194">
        <ele>953.20001</ele>
        <time>2010-01-01T00:52:44Z</time>
      </trkpt>
      <trkpt lat="63.61892170" lon="-19.4423202">
        <ele>952.59997</ele>
        <time>2010-01-01T00:52:44Z</time>
      </trkpt>
      <trkpt lat="63.61891270" lon="-19.4423148">
        <ele>952.00000</ele>
        <time>2010-01-01T00:52:45Z</time>
      </trkpt>
      <trkpt lat="63.61890180" lon="-19.4423105">
        <ele>952.00000</ele>
        <time>2010-01-01T00:52:45Z</time>
      </trkpt>
      <trkpt lat="63.61888460" lon="-19.4423013">
        <ele>952.00000</ele>
        <time>2010-01-01T00:52:46Z</time>
      </trkpt>
      <trkpt lat="63.61882490" lon="-19.4422979">
        <ele>952.20001</ele>
        <time>2010-01-01T00:52:48Z</time>
      </trkpt>
      <trkpt lat="63.61881740" lon="-19.4422958">
        <ele>952.59997</ele>
        <time>2010-01-01T00:52:48Z</time>
      </trkpt>
      <trkpt lat="63.61880810" lon="-19.4422944">
        <ele>952.79998</ele>
        <time>2010-01-01T00:52:49Z</time>
      </trkpt>
      <trkpt lat="63.61879970" lon="-19.4422877">
        <ele>953.20001</ele>
        <time>2010-01-01T00:52:49Z</time>
      </trkpt>
      <trkpt lat="63.61879340" lon="-19.4422832">
        <ele>953.59997</ele>
        <time>2010-01-01T00:52:49Z</time>
      </trkpt>
      <trkpt lat="63.61878330" lon="-19.4422803">
        <ele>954.00000</ele>
        <time>2010-01-01T00:52:50Z</time>
      </trkpt>
      <trkpt lat="63.61873550" lon="-19.4422849">
        <ele>954.00000</ele>
        <time>2010-01-01T00:52:52Z</time>
      </trkpt>
      <trkpt lat="63.61872490" lon="-19.4422869">
        <ele>954.20001</ele>
        <time>2010-01-01T00:52:52Z</time>
      </trkpt>
      <trkpt lat="63.61871280" lon="-19.4422896">
        <ele>954.59997</ele>
        <time>2010-01-01T00:52:53Z</time>
      </trkpt>
      <trkpt lat="63.61870040" lon="-19.4422909">
        <ele>955.00000</ele>
        <time>2010-01-01T00:52:53Z</time>
      </trkpt>
      <trkpt lat="63.61868680" lon="-19.4422918">
        <ele>955.20001</ele>
        <time>2010-01-01T00:52:54Z</time>
      </trkpt>
      <trkpt lat="63.61867720" lon="-19.4422946">
        <ele>955.59997</ele>
        <time>2010-01-01T00:52:54Z</time>
      </trkpt>
      <trkpt lat="63.61866720" lon="-19.4422961">
        <ele>956.00000</ele>
        <time>2010-01-01T00:52:55Z</time>
      </trkpt>
      <trkpt lat="63.61865630" lon="-19.4422983">
        <ele>956.00000</ele>
        <time>2010-01-01T00:52:55Z</time>
      </trkpt>
      <trkpt lat="63.61858460" lon="-19.4423170">
        <ele>956.00000</ele>
        <time>2010-01-01T00:52:58Z</time>
      </trkpt>
      <trkpt lat="63.61854080" lon="-19.4423145">
        <ele>956.20001</ele>
        <time>2010-01-01T00:53:00Z</time>
      </trkpt>
      <trkpt lat="63.61853040" lon="-19.4423214">
        <ele>956.59997</ele>
        <time>2010-01-01T00:53:00Z</time>
      </trkpt>
      <trkpt lat="63.61852060" lon="-19.4423248">
        <ele>957.00000</ele>
        <time>2010-01-01T00:53:00Z</time>
      </trkpt>
      <trkpt lat="63.61851040" lon="-19.4423240">
        <ele>957.20001</ele>
        <time>2010-01-01T00:53:01Z</time>
      </trkpt>
      <trkpt lat="63.61849780" lon="-19.4423222">
        <ele>957.79998</ele>
        <time>2010-01-01T00:53:01Z</time>
      </trkpt>
      <trkpt lat="63.61848980" lon="-19.4423229">
        <ele>958.00000</ele>
        <time>2010-01-01T00:53:02Z</time>
      </trkpt>
      <trkpt lat="63.61843400" lon="-19.4423179">
        <ele>958.00000</ele>
        <time>2010-01-01T00:53:04Z</time>
      </trkpt>
      <trkpt lat="63.61835860" lon="-19.4423186">
        <ele>958.20001</ele>
        <time>2010-01-01T00:53:07Z</time>
      </trkpt>
      <trkpt lat="63.61834800" lon="-19.4423199">
        <ele>958.59997</ele>
        <time>2010-01-01T00:53:07Z</time>
      </trkpt>
      <trkpt lat="63.61833540" lon="-19.4423206">
        <ele>958.79998</ele>
        <time>2010-01-01T00:53:08Z</time>
      </trkpt>
      <trkpt lat="63.61832390" lon="-19.4423203">
        <ele>959.20001</ele>
        <time>2010-01-01T00:53:08Z</time>
      </trkpt>
      <trkpt lat="63.61831250" lon="-19.4423203">
        <ele>959.59997</ele>
        <time>2010-01-01T00:53:09Z</time>
      </trkpt>
      <trkpt lat="63.61830090" lon="-19.4423208">
        <ele>960.00000</ele>
        <time>2010-01-01T00:53:09Z</time>
      </trkpt>
      <trkpt lat="63.61822620" lon="-19.4423084">
        <ele>960.00000</ele>
        <time>2010-01-01T00:53:12Z</time>
      </trkpt>
      <trkpt lat="63.61818140" lon="-19.4422966">
        <ele>960.00000</ele>
        <time>2010-01-01T00:53:14Z</time>
      </trkpt>
      <trkpt lat="63.61816150" lon="-19.4422965">
        <ele>960.00000</ele>
        <time>2010-01-01T00:53:15Z</time>
      </trkpt>
      <trkpt lat="63.61808960" lon="-19.4422941">
        <ele>960.00000</ele>
        <time>2010-01-01T00:53:18Z</time>
      </trkpt>
      <trkpt lat="63.61799060" lon="-19.4422829">
        <ele>960.00000</ele>
        <time>2010-01-01T00:53:22Z</time>
      </trkpt>
      <trkpt lat="63.61796570" lon="-19.4422797">
        <ele>960.00000</ele>
        <time>2010-01-01T00:53:23Z</time>
      </trkpt>
      <trkpt lat="63.61794530" lon="-19.4422727">
        <ele>960.00000</ele>
        <time>2010-01-01T00:53:24Z</time>
      </trkpt>
      <trkpt lat="63.61784630" lon="-19.4422688">
        <ele>960.00000</ele>
        <time>2010-01-01T00:53:27Z</time>
      </trkpt>
      <trkpt lat="63.61782680" lon="-19.4422625">
        <ele>960.00000</ele>
        <time>2010-01-01T00:53:28Z</time>
      </trkpt>
      <trkpt lat="63.61780060" lon="-19.4422681">
        <ele>960.00000</ele>
        <time>2010-01-01T00:53:29Z</time>
      </trkpt>
      <trkpt lat="63.61772720" lon="-19.4422662">
        <ele>960.00000</ele>
        <time>2010-01-01T00:53:32Z</time>
      </trkpt>
      <trkpt lat="63.61769860" lon="-19.4422705">
        <ele>960.00000</ele>
        <time>2010-01-01T00:53:33Z</time>
      </trkpt>
      <trkpt lat="63.61763800" lon="-19.4422652">
        <ele>960.00000</ele>
        <time>2010-01-01T00:53:36Z</time>
      </trkpt>
      <trkpt lat="63.61763580" lon="-19.4422651">
        <ele>960.00000</ele>
        <time>2010-01-01T00:53:36Z</time>
      </trkpt>
      <trkpt lat="63.61762490" lon="-19.4422695">
        <ele>960.00000</ele>
        <time>2010-01-01T00:53:36Z</time>
      </trkpt>
      <trkpt lat="63.61759280" lon="-19.4422742">
        <ele>960.00000</ele>
        <time>2010-01-01T00:53:38Z</time>
      </trkpt>
      <trkpt lat="63.61758230" lon="-19.4422742">
        <ele>960.00000</ele>
        <time>2010-01-01T00:53:38Z</time>
      </trkpt>
      <trkpt lat="63.61756950" lon="-19.4422744">
        <ele>960.00000</ele>
        <time>2010-01-01T00:53:39Z</time>
      </trkpt>
      <trkpt lat="63.61753440" lon="-19.4422747">
        <ele>960.00000</ele>
        <time>2010-01-01T00:53:40Z</time>
      </trkpt>
      <trkpt lat="63.61752550" lon="-19.4422788">
        <ele>960.00000</ele>
        <time>2010-01-01T00:53:40Z</time>
      </trkpt>
      <trkpt lat="63.61749770" lon="-19.4422865">
        <ele>960.40002</ele>
        <time>2010-01-01T00:53:41Z</time>
      </trkpt>
      <trkpt lat="63.61748920" lon="-19.4422924">
        <ele>960.79998</ele>
        <time>2010-01-01T00:53:42Z</time>
      </trkpt>
      <trkpt lat="63.61748230" lon="-19.4422992">
        <ele>961.20001</ele>
        <time>2010-01-01T00:53:42Z</time>
      </trkpt>
      <trkpt lat="63.61747330" lon="-19.4423031">
        <ele>961.59997</ele>
        <time>2010-01-01T00:53:42Z</time>
      </trkpt>
      <trkpt lat="63.61746330" lon="-19.4423023">
        <ele>962.20001</ele>
        <time>2010-01-01T00:53:43Z</time>
      </trkpt>
      <trkpt lat="63.61744140" lon="-19.4423039">
        <ele>962.20001</ele>
        <time>2010-01-01T00:53:44Z</time>
      </trkpt>
      <trkpt lat="63.61743330" lon="-19.4423082">
        <ele>962.20001</ele>
        <time>2010-01-01T00:53:44Z</time>
      </trkpt>
      <trkpt lat="63.61742540" lon="-19.4423087">
        <ele>962.20001</ele>
        <time>2010-01-01T00:53:44Z</time>
      </trkpt>
      <trkpt lat="63.61737350" lon="-19.4422952">
        <ele>962.59997</ele>
        <time>2010-01-01T00:53:47Z</time>
      </trkpt>
      <trkpt lat="63.61736480" lon="-19.4422907">
        <ele>963.00000</ele>
        <time>2010-01-01T00:53:47Z</time>
      </trkpt>
      <trkpt lat="63.61735590" lon="-19.4422871">
        <ele>963.20001</ele>
        <time>2010-01-01T00:53:47Z</time>
      </trkpt>
      <trkpt lat="63.61734520" lon="-19.4422901">
        <ele>963.59997</ele>
        <time>2010-01-01T00:53:48Z</time>
      </trkpt>
      <trkpt lat="63.61733740" lon="-19.4422917">
        <ele>964.00000</ele>
        <time>2010-01-01T00:53:48Z</time>
      </trkpt>
      <trkpt lat="63.61733070" lon="-19.4422963">
        <ele>964.20001</ele>
        <time>2010-01-01T00:53:48Z</time>
      </trkpt>
      <trkpt lat="63.61731800" lon="-19.4423083">
        <ele>964.20001</ele>
        <time>2010-01-01T00:53:49Z</time>
      </trkpt>
      <trkpt lat="63.61730840" lon="-19.4423149">
        <ele>964.40002</ele>
        <time>2010-01-01T00:53:49Z</time>
      </trkpt>
      <trkpt lat="63.61729920" lon="-19.4423186">
        <ele>964.79998</ele>
        <time>2010-01-01T00:53:50Z</time>
      </trkpt>
      <trkpt lat="63.61729280" lon="-19.4423203">
        <ele>965.20001</ele>
        <time>2010-01-01T00:53:50Z</time>
      </trkpt>
      <trkpt lat="63.61728820" lon="-19.4423260">
        <ele>965.59997</ele>
        <time>2010-01-01T00:53:50Z</time>
      </trkpt>
      <trkpt lat="63.61728450" lon="-19.4423351">
        <ele>966.00000</ele>
        <time>2010-01-01T00:53:50Z</time>
      </trkpt>
      <trkpt lat="63.61727910" lon="-19.4423441">
        <ele>966.20001</ele>
        <time>2010-01-01T00:53:51Z</time>
      </trkpt>
      <trkpt lat="63.61726340" lon="-19.4423646">
        <ele>966.20001</ele>
        <time>2010-01-01T00:53:51Z</time>
      </trkpt>
      <trkpt lat="63.61725290" lon="-19.4423747">
        <ele>966.59997</ele>
        <time>2010-01-01T00:53:52Z</time>
      </trkpt>
      <trkpt lat="63.61724180" lon="-19.4423849">
        <ele>967.00000</ele>
        <time>2010-01-01T00:53:52Z</time>
      </trkpt>
      <trkpt lat="63.61723390" lon="-19.4423919">
        <ele>967.00000</ele>
        <time>2010-01-01T00:53:53Z</time>
      </trkpt>
      <trkpt lat="63.61722690" lon="-19.4423999">
        <ele>967.59997</ele>
        <time>2010-01-01T00:53:53Z</time>
      </trkpt>
      <trkpt lat="63.61721890" lon="-19.4424060">
        <ele>967.79998</ele>
        <time>2010-01-01T00:53:53Z</time>
      </trkpt>
      <trkpt lat="63.61721130" lon="-19.4424107">
        <ele>968.00000</ele>
        <time>2010-01-01T00:53:54Z</time>
      </trkpt>
      <trkpt lat="63.61720420" lon="-19.4424159">
        <ele>968.20001</ele>
        <time>2010-01-01T00:53:54Z</time>
      </trkpt>
      <trkpt lat="63.61718460" lon="-19.4424321">
        <ele>968.20001</ele>
        <time>2010-01-01T00:53:55Z</time>
      </trkpt>
      <trkpt lat="63.61715530" lon="-19.4424575">
        <ele>968.40002</ele>
        <time>2010-01-01T00:53:56Z</time>
      </trkpt>
      <trkpt lat="63.61714490" lon="-19.4424651">
        <ele>968.79998</ele>
        <time>2010-01-01T00:53:56Z</time>
      </trkpt>
      <trkpt lat="63.61713590" lon="-19.4424726">
        <ele>969.20001</ele>
        <time>2010-01-01T00:53:57Z</time>
      </trkpt>
      <trkpt lat="63.61712610" lon="-19.4424799">
        <ele>969.59997</ele>
        <time>2010-01-01T00:53:57Z</time>
      </trkpt>
      <trkpt lat="63.61711560" lon="-19.4424864">
        <ele>969.79998</ele>
        <time>2010-01-01T00:53:58Z</time>
      </trkpt>
      <trkpt lat="63.61710530" lon="-19.4424927">
        <ele>970.20001</ele>
        <time>2010-01-01T00:53:58Z</time>
      </trkpt>
      <trkpt lat="63.61709580" lon="-19.4425019">
        <ele>970.20001</ele>
        <time>2010-01-01T00:53:58Z</time>
      </trkpt>
      <trkpt lat="63.61708450" lon="-19.4425061">
        <ele>970.20001</ele>
        <time>2010-01-01T00:53:59Z</time>
      </trkpt>
      <trkpt lat="63.61706130" lon="-19.4425165">
        <ele>970.59997</ele>
        <time>2010-01-01T00:54:00Z</time>
      </trkpt>
      <trkpt lat="63.61705080" lon="-19.4425225">
        <ele>971.00000</ele>
        <time>2010-01-01T00:54:00Z</time>
      </trkpt>
      <trkpt lat="63.61703970" lon="-19.4425294">
        <ele>971.40002</ele>
        <time>2010-01-01T00:54:01Z</time>
      </trkpt>
      <trkpt lat="63.61702960" lon="-19.4425353">
        <ele>971.79998</ele>
        <time>2010-01-01T00:54:01Z</time>
      </trkpt>
      <trkpt lat="63.61701920" lon="-19.4425395">
        <ele>972.40002</ele>
        <time>2010-01-01T00:54:02Z</time>
      </trkpt>
      <trkpt lat="63.61700800" lon="-19.4425434">
        <ele>972.40002</ele>
        <time>2010-01-01T00:54:02Z</time>
      </trkpt>
      <trkpt lat="63.61700340" lon="-19.4425517">
        <ele>972.40002</ele>
        <time>2010-01-01T00:54:02Z</time>
      </trkpt>
      <trkpt lat="63.61698970" lon="-19.4425582">
        <ele>972.40002</ele>
        <time>2010-01-01T00:54:03Z</time>
      </trkpt>
      <trkpt lat="63.61691780" lon="-19.4425983">
        <ele>972.79998</ele>
        <time>2010-01-01T00:54:06Z</time>
      </trkpt>
      <trkpt lat="63.61690000" lon="-19.4426080">
        <ele>973.20001</ele>
        <time>2010-01-01T00:54:07Z</time>
      </trkpt>
      <trkpt lat="63.61688330" lon="-19.4426180">
        <ele>973.59997</ele>
        <time>2010-01-01T00:54:07Z</time>
      </trkpt>
      <trkpt lat="63.61686790" lon="-19.4426280">
        <ele>974.00000</ele>
        <time>2010-01-01T00:54:08Z</time>
      </trkpt>
      <trkpt lat="63.61686090" lon="-19.4426293">
        <ele>974.59997</ele>
        <time>2010-01-01T00:54:08Z</time>
      </trkpt>
      <trkpt lat="63.61685080" lon="-19.4426380">
        <ele>974.59997</ele>
        <time>2010-01-01T00:54:09Z</time>
      </trkpt>
      <trkpt lat="63.61677000" lon="-19.4426903">
        <ele>974.59997</ele>
        <time>2010-01-01T00:54:12Z</time>
      </trkpt>
      <trkpt lat="63.61672670" lon="-19.4426936">
        <ele>974.59997</ele>
        <time>2010-01-01T00:54:14Z</time>
      </trkpt>
      <trkpt lat="63.61669640" lon="-19.4426600">
        <ele>974.59997</ele>
        <time>2010-01-01T00:54:15Z</time>
      </trkpt>
      <trkpt lat="63.61664510" lon="-19.4426387">
        <ele>974.59997</ele>
        <time>2010-01-01T00:54:17Z</time>
      </trkpt>
      <trkpt lat="63.61657850" lon="-19.4426245">
        <ele>974.59997</ele>
        <time>2010-01-01T00:54:20Z</time>
      </trkpt>
      <trkpt lat="63.61654380" lon="-19.4426043">
        <ele>974.59997</ele>
        <time>2010-01-01T00:54:21Z</time>
      </trkpt>
      <trkpt lat="63.61645560" lon="-19.4425799">
        <ele>974.59997</ele>
        <time>2010-01-01T00:54:25Z</time>
      </trkpt>
      <trkpt lat="63.61642970" lon="-19.4425754">
        <ele>974.20001</ele>
        <time>2010-01-01T00:54:26Z</time>
      </trkpt>
      <trkpt lat="63.61639520" lon="-19.4425726">
        <ele>974.00000</ele>
        <time>2010-01-01T00:54:27Z</time>
      </trkpt>
      <trkpt lat="63.61636470" lon="-19.4425742">
        <ele>973.59997</ele>
        <time>2010-01-01T00:54:28Z</time>
      </trkpt>
      <trkpt lat="63.61633970" lon="-19.4425793">
        <ele>973.40002</ele>
        <time>2010-01-01T00:54:29Z</time>
      </trkpt>
      <trkpt lat="63.61631530" lon="-19.4425808">
        <ele>973.20001</ele>
        <time>2010-01-01T00:54:30Z</time>
      </trkpt>
      <trkpt lat="63.61628850" lon="-19.4425796">
        <ele>972.79998</ele>
        <time>2010-01-01T00:54:31Z</time>
      </trkpt>
      <trkpt lat="63.61626610" lon="-19.4425605">
        <ele>972.20001</ele>
        <time>2010-01-01T00:54:32Z</time>
      </trkpt>
      <trkpt lat="63.61624340" lon="-19.4425433">
        <ele>971.79998</ele>
        <time>2010-01-01T00:54:33Z</time>
      </trkpt>
      <trkpt lat="63.61622160" lon="-19.4425211">
        <ele>971.40002</ele>
        <time>2010-01-01T00:54:34Z</time>
      </trkpt>
      <trkpt lat="63.61619380" lon="-19.4424994">
        <ele>970.79998</ele>
        <time>2010-01-01T00:54:36Z</time>
      </trkpt>
      <trkpt lat="63.61616980" lon="-19.4424806">
        <ele>970.40002</ele>
        <time>2010-01-01T00:54:37Z</time>
      </trkpt>
      <trkpt lat="63.61614030" lon="-19.4424629">
        <ele>970.40002</ele>
        <time>2010-01-01T00:54:38Z</time>
      </trkpt>
      <trkpt lat="63.61611060" lon="-19.4424476">
        <ele>970.00000</ele>
        <time>2010-01-01T00:54:39Z</time>
      </trkpt>
      <trkpt lat="63.61608350" lon="-19.4424365">
        <ele>969.59997</ele>
        <time>2010-01-01T00:54:40Z</time>
      </trkpt>
      <trkpt lat="63.61606190" lon="-19.4424242">
        <ele>969.20001</ele>
        <time>2010-01-01T00:54:41Z</time>
      </trkpt>
      <trkpt lat="63.61604190" lon="-19.4424105">
        <ele>968.59997</ele>
        <time>2010-01-01T00:54:42Z</time>
      </trkpt>
      <trkpt lat="63.61602620" lon="-19.4424135">
        <ele>968.20001</ele>
        <time>2010-01-01T00:54:42Z</time>
      </trkpt>
      <trkpt lat="63.61599900" lon="-19.4423996">
        <ele>968.00000</ele>
        <time>2010-01-01T00:54:44Z</time>
      </trkpt>
      <trkpt lat="63.61592950" lon="-19.4423877">
        <ele>968.00000</ele>
        <time>2010-01-01T00:54:46Z</time>
      </trkpt>
      <trkpt lat="63.61589220" lon="-19.4423916">
        <ele>967.59997</ele>
        <time>2010-01-01T00:54:48Z</time>
      </trkpt>
      <trkpt lat="63.61586440" lon="-19.4424266">
        <ele>967.20001</ele>
        <time>2010-01-01T00:54:49Z</time>
      </trkpt>
      <trkpt lat="63.61583290" lon="-19.4424570">
        <ele>966.59997</ele>
        <time>2010-01-01T00:54:50Z</time>
      </trkpt>
      <trkpt lat="63.61579950" lon="-19.4424933">
        <ele>966.00000</ele>
        <time>2010-01-01T00:54:52Z</time>
      </trkpt>
      <trkpt lat="63.61576900" lon="-19.4425054">
        <ele>965.40002</ele>
        <time>2010-01-01T00:54:53Z</time>
      </trkpt>
      <trkpt lat="63.61573450" lon="-19.4425176">
        <ele>964.79998</ele>
        <time>2010-01-01T00:54:55Z</time>
      </trkpt>
      <trkpt lat="63.61569540" lon="-19.4425392">
        <ele>964.20001</ele>
        <time>2010-01-01T00:54:56Z</time>
      </trkpt>
      <trkpt lat="63.61565950" lon="-19.4425631">
        <ele>963.40002</ele>
        <time>2010-01-01T00:54:58Z</time>
      </trkpt>
      <trkpt lat="63.61561930" lon="-19.4425881">
        <ele>962.59997</ele>
        <time>2010-01-01T00:54:59Z</time>
      </trkpt>
      <trkpt lat="63.61557930" lon="-19.4426139">
        <ele>961.79998</ele>
        <time>2010-01-01T00:55:01Z</time>
      </trkpt>
      <trkpt lat="63.61555360" lon="-19.4426254">
        <ele>961.20001</ele>
        <time>2010-01-01T00:55:02Z</time>
      </trkpt>
      <trkpt lat="63.61552370" lon="-19.4426517">
        <ele>961.00000</ele>
        <time>2010-01-01T00:55:03Z</time>
      </trkpt>
      <trkpt lat="63.61548760" lon="-19.4426772">
        <ele>960.40002</ele>
        <time>2010-01-01T00:55:05Z</time>
      </trkpt>
      <trkpt lat="63.61545400" lon="-19.4426905">
        <ele>959.79998</ele>
        <time>2010-01-01T00:55:06Z</time>
      </trkpt>
      <trkpt lat="63.61542100" lon="-19.4426922">
        <ele>959.20001</ele>
        <time>2010-01-01T00:55:08Z</time>
      </trkpt>
      <trkpt lat="63.61538550" lon="-19.4426947">
        <ele>958.40002</ele>
        <time>2010-01-01T00:55:09Z</time>
      </trkpt>
      <trkpt lat="63.61535560" lon="-19.4426973">
        <ele>958.00000</ele>
        <time>2010-01-01T00:55:10Z</time>
      </trkpt>
      <trkpt lat="63.61532240" lon="-19.4427045">
        <ele>957.40002</ele>
        <time>2010-01-01T00:55:12Z</time>
      </trkpt>
      <trkpt lat="63.61528730" lon="-19.4427154">
        <ele>956.79998</ele>
        <time>2010-01-01T00:55:13Z</time>
      </trkpt>
      <trkpt lat="63.61525420" lon="-19.4427264">
        <ele>956.20001</ele>
        <time>2010-01-01T00:55:14Z</time>
      </trkpt>
      <trkpt lat="63.61522330" lon="-19.4427338">
        <ele>955.40002</ele>
        <time>2010-01-01T00:55:16Z</time>
      </trkpt>
      <trkpt lat="63.61518960" lon="-19.4427453">
        <ele>954.40002</ele>
        <time>2010-01-01T00:55:17Z</time>
      </trkpt>
      <trkpt lat="63.61515660" lon="-19.4427594">
        <ele>953.40002</ele>
        <time>2010-01-01T00:55:18Z</time>
      </trkpt>
      <trkpt lat="63.61512210" lon="-19.4427733">
        <ele>952.40002</ele>
        <time>2010-01-01T00:55:20Z</time>
      </trkpt>
      <trkpt lat="63.61508340" lon="-19.4427887">
        <ele>951.40002</ele>
        <time>2010-01-01T00:55:21Z</time>
      </trkpt>
      <trkpt lat="63.61504570" lon="-19.4428063">
        <ele>950.79998</ele>
        <time>2010-01-01T00:55:23Z</time>
      </trkpt>
      <trkpt lat="63.61501340" lon="-19.4428039">
        <ele>949.79998</ele>
        <time>2010-01-01T00:55:24Z</time>
      </trkpt>
      <trkpt lat="63.61497770" lon="-19.4428150">
        <ele>949.00000</ele>
        <time>2010-01-01T00:55:26Z</time>
      </trkpt>
      <trkpt lat="63.61494390" lon="-19.4428238">
        <ele>948.20001</ele>
        <time>2010-01-01T00:55:27Z</time>
      </trkpt>
      <trkpt lat="63.61490730" lon="-19.4428312">
        <ele>947.40002</ele>
        <time>2010-01-01T00:55:28Z</time>
      </trkpt>
      <trkpt lat="63.61487380" lon="-19.4428377">
        <ele>946.40002</ele>
        <time>2010-01-01T00:55:30Z</time>
      </trkpt>
      <trkpt lat="63.61483980" lon="-19.4428423">
        <ele>945.79998</ele>
        <time>2010-01-01T00:55:31Z</time>
      </trkpt>
      <trkpt lat="63.61480630" lon="-19.4428485">
        <ele>945.20001</ele>
        <time>2010-01-01T00:55:32Z</time>
      </trkpt>
      <trkpt lat="63.61477570" lon="-19.4428449">
        <ele>944.40002</ele>
        <time>2010-01-01T00:55:34Z</time>
      </trkpt>
      <trkpt lat="63.61474280" lon="-19.4428464">
        <ele>943.59997</ele>
        <time>2010-01-01T00:55:35Z</time>
      </trkpt>
      <trkpt lat="63.61470800" lon="-19.4428516">
        <ele>942.59997</ele>
        <time>2010-01-01T00:55:36Z</time>
      </trkpt>
      <trkpt lat="63.61467950" lon="-19.4428648">
        <ele>942.40002</ele>
        <time>2010-01-01T00:55:38Z</time>
      </trkpt>
      <trkpt lat="63.61464420" lon="-19.4428797">
        <ele>941.40002</ele>
        <time>2010-01-01T00:55:39Z</time>
      </trkpt>
      <trkpt lat="63.61460770" lon="-19.4428936">
        <ele>940.40002</ele>
        <time>2010-01-01T00:55:40Z</time>
      </trkpt>
      <trkpt lat="63.61457540" lon="-19.4429048">
        <ele>939.79998</ele>
        <time>2010-01-01T00:55:42Z</time>
      </trkpt>
      <trkpt lat="63.61453900" lon="-19.4429182">
        <ele>939.00000</ele>
        <time>2010-01-01T00:55:43Z</time>
      </trkpt>
      <trkpt lat="63.61451000" lon="-19.4429195">
        <ele>938.20001</ele>
        <time>2010-01-01T00:55:44Z</time>
      </trkpt>
      <trkpt lat="63.61447930" lon="-19.4429226">
        <ele>937.40002</ele>
        <time>2010-01-01T00:55:46Z</time>
      </trkpt>
      <trkpt lat="63.61444170" lon="-19.4429223">
        <ele>936.40002</ele>
        <time>2010-01-01T00:55:47Z</time>
      </trkpt>
      <trkpt lat="63.61440730" lon="-19.4429227">
        <ele>935.59997</ele>
        <time>2010-01-01T00:55:48Z</time>
      </trkpt>
      <trkpt lat="63.61436800" lon="-19.4429254">
        <ele>934.79998</ele>
        <time>2010-01-01T00:55:50Z</time>
      </trkpt>
      <trkpt lat="63.61434110" lon="-19.4429332">
        <ele>934.59997</ele>
        <time>2010-01-01T00:55:51Z</time>
      </trkpt>
      <trkpt lat="63.61430870" lon="-19.4429371">
        <ele>934.00000</ele>
        <time>2010-01-01T00:55:52Z</time>
      </trkpt>
      <trkpt lat="63.61428090" lon="-19.4429404">
        <ele>933.40002</ele>
        <time>2010-01-01T00:55:54Z</time>
      </trkpt>
      <trkpt lat="63.61425220" lon="-19.4429438">
        <ele>933.00000</ele>
        <time>2010-01-01T00:55:55Z</time>
      </trkpt>
      <trkpt lat="63.61421940" lon="-19.4429498">
        <ele>932.00000</ele>
        <time>2010-01-01T00:55:56Z</time>
      </trkpt>
      <trkpt lat="63.61420170" lon="-19.4429537">
        <ele>932.00000</ele>
        <time>2010-01-01T00:55:57Z</time>
      </trkpt>
      <trkpt lat="63.61417570" lon="-19.4429613">
        <ele>931.20001</ele>
        <time>2010-01-01T00:55:58Z</time>
      </trkpt>
      <trkpt lat="63.61414340" lon="-19.4429641">
        <ele>930.79998</ele>
        <time>2010-01-01T00:55:59Z</time>
      </trkpt>
      <trkpt lat="63.61411320" lon="-19.4429607">
        <ele>930.20001</ele>
        <time>2010-01-01T00:56:00Z</time>
      </trkpt>
      <trkpt lat="63.61408740" lon="-19.4429544">
        <ele>929.59997</ele>
        <time>2010-01-01T00:56:01Z</time>
      </trkpt>
      <trkpt lat="63.61405110" lon="-19.4429549">
        <ele>929.20001</ele>
        <time>2010-01-01T00:56:03Z</time>
      </trkpt>
      <trkpt lat="63.61402110" lon="-19.4429570">
        <ele>928.20001</ele>
        <time>2010-01-01T00:56:04Z</time>
      </trkpt>
      <trkpt lat="63.61398530" lon="-19.4429612">
        <ele>927.79998</ele>
        <time>2010-01-01T00:56:05Z</time>
      </trkpt>
      <trkpt lat="63.61396090" lon="-19.4429573">
        <ele>927.20001</ele>
        <time>2010-01-01T00:56:06Z</time>
      </trkpt>
      <trkpt lat="63.61393480" lon="-19.4429469">
        <ele>926.59997</ele>
        <time>2010-01-01T00:56:07Z</time>
      </trkpt>
      <trkpt lat="63.61390400" lon="-19.4429440">
        <ele>926.00000</ele>
        <time>2010-01-01T00:56:09Z</time>
      </trkpt>
      <trkpt lat="63.61387570" lon="-19.4429366">
        <ele>925.40002</ele>
        <time>2010-01-01T00:56:10Z</time>
      </trkpt>
      <trkpt lat="63.61385380" lon="-19.4429249">
        <ele>925.20001</ele>
        <time>2010-01-01T00:56:11Z</time>
      </trkpt>
      <trkpt lat="63.61383140" lon="-19.4429164">
        <ele>925.20001</ele>
        <time>2010-01-01T00:56:12Z</time>
      </trkpt>
      <trkpt lat="63.61380410" lon="-19.4429105">
        <ele>925.00000</ele>
        <time>2010-01-01T00:56:13Z</time>
      </trkpt>
      <trkpt lat="63.61378070" lon="-19.4429062">
        <ele>925.20001</ele>
        <time>2010-01-01T00:56:14Z</time>
      </trkpt>
      <trkpt lat="63.61368180" lon="-19.4428888">
        <ele>925.20001</ele>
        <time>2010-01-01T00:56:18Z</time>
      </trkpt>
      <trkpt lat="63.61366730" lon="-19.4428855">
        <ele>925.20001</ele>
        <time>2010-01-01T00:56:18Z</time>
      </trkpt>
      <trkpt lat="63.61364360" lon="-19.4428745">
        <ele>925.20001</ele>
        <time>2010-01-01T00:56:19Z</time>
      </trkpt>
      <trkpt lat="63.61361830" lon="-19.4428625">
        <ele>925.20001</ele>
        <time>2010-01-01T00:56:20Z</time>
      </trkpt>
      <trkpt lat="63.61359380" lon="-19.4428547">
        <ele>925.20001</ele>
        <time>2010-01-01T00:56:21Z</time>
      </trkpt>
      <trkpt lat="63.61357510" lon="-19.4428604">
        <ele>925.20001</ele>
        <time>2010-01-01T00:56:22Z</time>
      </trkpt>
      <trkpt lat="63.61354670" lon="-19.4428467">
        <ele>924.59997</ele>
        <time>2010-01-01T00:56:23Z</time>
      </trkpt>
      <trkpt lat="63.61350400" lon="-19.4428485">
        <ele>924.40002</ele>
        <time>2010-01-01T00:56:25Z</time>
      </trkpt>
      <trkpt lat="63.61348860" lon="-19.4428107">
        <ele>924.20001</ele>
        <time>2010-01-01T00:56:26Z</time>
      </trkpt>
      <trkpt lat="63.61346550" lon="-19.4428037">
        <ele>923.79998</ele>
        <time>2010-01-01T00:56:27Z</time>
      </trkpt>
      <trkpt lat="63.61344670" lon="-19.4427961">
        <ele>923.59997</ele>
        <time>2010-01-01T00:56:27Z</time>
      </trkpt>
      <trkpt lat="63.61342050" lon="-19.4427796">
        <ele>923.20001</ele>
        <time>2010-01-01T00:56:29Z</time>
      </trkpt>
      <trkpt lat="63.61339850" lon="-19.4427641">
        <ele>923.20001</ele>
        <time>2010-01-01T00:56:29Z</time>
      </trkpt>
      <trkpt lat="63.61337560" lon="-19.4427547">
        <ele>923.20001</ele>
        <time>2010-01-01T00:56:30Z</time>
      </trkpt>
      <trkpt lat="63.61327120" lon="-19.4427035">
        <ele>923.00000</ele>
        <time>2010-01-01T00:56:35Z</time>
      </trkpt>
      <trkpt lat="63.61324360" lon="-19.4426735">
        <ele>922.59997</ele>
        <time>2010-01-01T00:56:36Z</time>
      </trkpt>
      <trkpt lat="63.61321200" lon="-19.4426520">
        <ele>922.40002</ele>
        <time>2010-01-01T00:56:37Z</time>
      </trkpt>
      <trkpt lat="63.61318850" lon="-19.4426349">
        <ele>922.00000</ele>
        <time>2010-01-01T00:56:38Z</time>
      </trkpt>
      <trkpt lat="63.61315810" lon="-19.4426128">
        <ele>921.79998</ele>
        <time>2010-01-01T00:56:40Z</time>
      </trkpt>
      <trkpt lat="63.61312550" lon="-19.4425960">
        <ele>921.40002</ele>
        <time>2010-01-01T00:56:41Z</time>
      </trkpt>
      <trkpt lat="63.61310090" lon="-19.4425853">
        <ele>921.20001</ele>
        <time>2010-01-01T00:56:42Z</time>
      </trkpt>
      <trkpt lat="63.61304950" lon="-19.4425617">
        <ele>920.59997</ele>
        <time>2010-01-01T00:56:44Z</time>
      </trkpt>
      <trkpt lat="63.61301920" lon="-19.4425429">
        <ele>920.20001</ele>
        <time>2010-01-01T00:56:45Z</time>
      </trkpt>
      <trkpt lat="63.61299740" lon="-19.4425279">
        <ele>919.79998</ele>
        <time>2010-01-01T00:56:46Z</time>
      </trkpt>
      <trkpt lat="63.61297120" lon="-19.4425018">
        <ele>919.40002</ele>
        <time>2010-01-01T00:56:47Z</time>
      </trkpt>
      <trkpt lat="63.61294970" lon="-19.4424798">
        <ele>919.20001</ele>
        <time>2010-01-01T00:56:48Z</time>
      </trkpt>
      <trkpt lat="63.61293050" lon="-19.4424500">
        <ele>919.00000</ele>
        <time>2010-01-01T00:56:49Z</time>
      </trkpt>
      <trkpt lat="63.61291070" lon="-19.4424176">
        <ele>919.20001</ele>
        <time>2010-01-01T00:56:50Z</time>
      </trkpt>
      <trkpt lat="63.61288980" lon="-19.4423975">
        <ele>919.00000</ele>
        <time>2010-01-01T00:56:51Z</time>
      </trkpt>
      <trkpt lat="63.61286660" lon="-19.4423748">
        <ele>919.00000</ele>
        <time>2010-01-01T00:56:52Z</time>
      </trkpt>
      <trkpt lat="63.61284630" lon="-19.4423540">
        <ele>919.00000</ele>
        <time>2010-01-01T00:56:53Z</time>
      </trkpt>
      <trkpt lat="63.61282740" lon="-19.4423360">
        <ele>919.20001</ele>
        <time>2010-01-01T00:56:54Z</time>
      </trkpt>
      <trkpt lat="63.61280430" lon="-19.4423144">
        <ele>918.79998</ele>
        <time>2010-01-01T00:56:55Z</time>
      </trkpt>
      <trkpt lat="63.61277890" lon="-19.4422982">
        <ele>918.40002</ele>
        <time>2010-01-01T00:56:56Z</time>
      </trkpt>
      <trkpt lat="63.61275440" lon="-19.4422916">
        <ele>918.00000</ele>
        <time>2010-01-01T00:56:57Z</time>
      </trkpt>
      <trkpt lat="63.61273060" lon="-19.4422758">
        <ele>917.59997</ele>
        <time>2010-01-01T00:56:58Z</time>
      </trkpt>
      <trkpt lat="63.61270590" lon="-19.4422511">
        <ele>917.20001</ele>
        <time>2010-01-01T00:56:59Z</time>
      </trkpt>
      <trkpt lat="63.61268560" lon="-19.4422343">
        <ele>917.00000</ele>
        <time>2010-01-01T00:57:00Z</time>
      </trkpt>
      <trkpt lat="63.61266410" lon="-19.4422253">
        <ele>917.00000</ele>
        <time>2010-01-01T00:57:01Z</time>
      </trkpt>
      <trkpt lat="63.61264250" lon="-19.4422185">
        <ele>917.00000</ele>
        <time>2010-01-01T00:57:01Z</time>
      </trkpt>
      <trkpt lat="63.61261330" lon="-19.4422053">
        <ele>917.00000</ele>
        <time>2010-01-01T00:57:03Z</time>
      </trkpt>
      <trkpt lat="63.61259430" lon="-19.4421929">
        <ele>917.00000</ele>
        <time>2010-01-01T00:57:03Z</time>
      </trkpt>
      <trkpt lat="63.61256990" lon="-19.4421794">
        <ele>917.00000</ele>
        <time>2010-01-01T00:57:04Z</time>
      </trkpt>
      <trkpt lat="63.61254850" lon="-19.4421633">
        <ele>917.00000</ele>
        <time>2010-01-01T00:57:05Z</time>
      </trkpt>
      <trkpt lat="63.61252660" lon="-19.4421490">
        <ele>917.00000</ele>
        <time>2010-01-01T00:57:06Z</time>
      </trkpt>
      <trkpt lat="63.61250210" lon="-19.4421418">
        <ele>917.00000</ele>
        <time>2010-01-01T00:57:07Z</time>
      </trkpt>
      <trkpt lat="63.61247730" lon="-19.4421311">
        <ele>917.00000</ele>
        <time>2010-01-01T00:57:08Z</time>
      </trkpt>
      <trkpt lat="63.61245140" lon="-19.4421124">
        <ele>917.00000</ele>
        <time>2010-01-01T00:57:09Z</time>
      </trkpt>
      <trkpt lat="63.61242550" lon="-19.4420989">
        <ele>917.00000</ele>
        <time>2010-01-01T00:57:10Z</time>
      </trkpt>
      <trkpt lat="63.61240120" lon="-19.4420786">
        <ele>917.00000</ele>
        <time>2010-01-01T00:57:11Z</time>
      </trkpt>
      <trkpt lat="63.61237610" lon="-19.4420550">
        <ele>916.79998</ele>
        <time>2010-01-01T00:57:13Z</time>
      </trkpt>
      <trkpt lat="63.61235430" lon="-19.4420388">
        <ele>916.59997</ele>
        <time>2010-01-01T00:57:13Z</time>
      </trkpt>
      <trkpt lat="63.61232770" lon="-19.4420204">
        <ele>916.20001</ele>
        <time>2010-01-01T00:57:15Z</time>
      </trkpt>
      <trkpt lat="63.61230310" lon="-19.4420044">
        <ele>915.79998</ele>
        <time>2010-01-01T00:57:16Z</time>
      </trkpt>
      <trkpt lat="63.61227940" lon="-19.4419956">
        <ele>915.40002</ele>
        <time>2010-01-01T00:57:17Z</time>
      </trkpt>
      <trkpt lat="63.61225940" lon="-19.4419836">
        <ele>915.00000</ele>
        <time>2010-01-01T00:57:17Z</time>
      </trkpt>
      <trkpt lat="63.61223580" lon="-19.4419619">
        <ele>915.00000</ele>
        <time>2010-01-01T00:57:18Z</time>
      </trkpt>
      <trkpt lat="63.61220880" lon="-19.4419480">
        <ele>915.00000</ele>
        <time>2010-01-01T00:57:20Z</time>
      </trkpt>
      <trkpt lat="63.61216640" lon="-19.4419266">
        <ele>915.00000</ele>
        <time>2010-01-01T00:57:21Z</time>
      </trkpt>
      <trkpt lat="63.61214240" lon="-19.4419068">
        <ele>915.00000</ele>
        <time>2010-01-01T00:57:22Z</time>
      </trkpt>
      <trkpt lat="63.61212150" lon="-19.4418931">
        <ele>915.00000</ele>
        <time>2010-01-01T00:57:23Z</time>
      </trkpt>
      <trkpt lat="63.61209880" lon="-19.4418746">
        <ele>915.00000</ele>
        <time>2010-01-01T00:57:24Z</time>
      </trkpt>
      <trkpt lat="63.61207300" lon="-19.4418550">
        <ele>915.00000</ele>
        <time>2010-01-01T00:57:25Z</time>
      </trkpt>
      <trkpt lat="63.61204860" lon="-19.4418420">
        <ele>915.00000</ele>
        <time>2010-01-01T00:57:26Z</time>
      </trkpt>
      <trkpt lat="63.61202570" lon="-19.4418358">
        <ele>915.00000</ele>
        <time>2010-01-01T00:57:27Z</time>
      </trkpt>
      <trkpt lat="63.61200260" lon="-19.4418197">
        <ele>915.00000</ele>
        <time>2010-01-01T00:57:28Z</time>
      </trkpt>
      <trkpt lat="63.61197780" lon="-19.4418017">
        <ele>915.00000</ele>
        <time>2010-01-01T00:57:29Z</time>
      </trkpt>
      <trkpt lat="63.61195410" lon="-19.4417792">
        <ele>915.00000</ele>
        <time>2010-01-01T00:57:30Z</time>
      </trkpt>
      <trkpt lat="63.61192750" lon="-19.4417574">
        <ele>915.00000</ele>
        <time>2010-01-01T00:57:31Z</time>
      </trkpt>
      <trkpt lat="63.61190350" lon="-19.4417403">
        <ele>915.00000</ele>
        <time>2010-01-01T00:57:32Z</time>
      </trkpt>
      <trkpt lat="63.61188480" lon="-19.4417246">
        <ele>915.00000</ele>
        <time>2010-01-01T00:57:33Z</time>
      </trkpt>
      <trkpt lat="63.61185490" lon="-19.4417001">
        <ele>915.00000</ele>
        <time>2010-01-01T00:57:34Z</time>
      </trkpt>
      <trkpt lat="63.61183310" lon="-19.4416859">
        <ele>915.00000</ele>
        <time>2010-01-01T00:57:35Z</time>
      </trkpt>
      <trkpt lat="63.61181130" lon="-19.4416737">
        <ele>915.00000</ele>
        <time>2010-01-01T00:57:36Z</time>
      </trkpt>
      <trkpt lat="63.61179350" lon="-19.4416617">
        <ele>915.00000</ele>
        <time>2010-01-01T00:57:37Z</time>
      </trkpt>
      <trkpt lat="63.61178180" lon="-19.4416574">
        <ele>915.00000</ele>
        <time>2010-01-01T00:57:37Z</time>
      </trkpt>
      <trkpt lat="63.61176900" lon="-19.4416493">
        <ele>915.00000</ele>
        <time>2010-01-01T00:57:38Z</time>
      </trkpt>
      <trkpt lat="63.61172680" lon="-19.4416131">
        <ele>915.00000</ele>
        <time>2010-01-01T00:57:40Z</time>
      </trkpt>
      <trkpt lat="63.61171080" lon="-19.4415962">
        <ele>915.00000</ele>
        <time>2010-01-01T00:57:41Z</time>
      </trkpt>
      <trkpt lat="63.61167090" lon="-19.4415535">
        <ele>915.00000</ele>
        <time>2010-01-01T00:57:42Z</time>
      </trkpt>
      <trkpt lat="63.61165650" lon="-19.4415395">
        <ele>915.00000</ele>
        <time>2010-01-01T00:57:43Z</time>
      </trkpt>
      <trkpt lat="63.61164770" lon="-19.4415306">
        <ele>915.00000</ele>
        <time>2010-01-01T00:57:43Z</time>
      </trkpt>
      <trkpt lat="63.61164120" lon="-19.4415214">
        <ele>915.00000</ele>
        <time>2010-01-01T00:57:44Z</time>
      </trkpt>
      <trkpt lat="63.61162060" lon="-19.4414984">
        <ele>915.00000</ele>
        <time>2010-01-01T00:57:45Z</time>
      </trkpt>
      <trkpt lat="63.61159520" lon="-19.4414804">
        <ele>915.40002</ele>
        <time>2010-01-01T00:57:46Z</time>
      </trkpt>
      <trkpt lat="63.61159050" lon="-19.4414806">
        <ele>915.59997</ele>
        <time>2010-01-01T00:57:46Z</time>
      </trkpt>
      <trkpt lat="63.61158240" lon="-19.4414787">
        <ele>915.79998</ele>
        <time>2010-01-01T00:57:46Z</time>
      </trkpt>
      <trkpt lat="63.61157620" lon="-19.4414712">
        <ele>916.40002</ele>
        <time>2010-01-01T00:57:46Z</time>
      </trkpt>
      <trkpt lat="63.61157100" lon="-19.4414613">
        <ele>917.00000</ele>
        <time>2010-01-01T00:57:47Z</time>
      </trkpt>
      <trkpt lat="63.61156630" lon="-19.4414597">
        <ele>917.20001</ele>
        <time>2010-01-01T00:57:47Z</time>
      </trkpt>
      <trkpt lat="63.61154810" lon="-19.4414666">
        <ele>917.20001</ele>
        <time>2010-01-01T00:57:48Z</time>
      </trkpt>
      <trkpt lat="63.61154390" lon="-19.4414620">
        <ele>917.79998</ele>
        <time>2010-01-01T00:57:48Z</time>
      </trkpt>
      <trkpt lat="63.61153970" lon="-19.4414617">
        <ele>918.20001</ele>
        <time>2010-01-01T00:57:48Z</time>
      </trkpt>
      <trkpt lat="63.61153670" lon="-19.4414662">
        <ele>918.59997</ele>
        <time>2010-01-01T00:57:48Z</time>
      </trkpt>
      <trkpt lat="63.61153180" lon="-19.4414655">
        <ele>919.00000</ele>
        <time>2010-01-01T00:57:48Z</time>
      </trkpt>
      <trkpt lat="63.61152730" lon="-19.4414685">
        <ele>919.40002</ele>
        <time>2010-01-01T00:57:48Z</time>
      </trkpt>
      <trkpt lat="63.61152000" lon="-19.4414781">
        <ele>919.40002</ele>
        <time>2010-01-01T00:57:49Z</time>
      </trkpt>
      <trkpt lat="63.61151440" lon="-19.4414794">
        <ele>920.00000</ele>
        <time>2010-01-01T00:57:49Z</time>
      </trkpt>
      <trkpt lat="63.61151400" lon="-19.4414766">
        <ele>920.40002</ele>
        <time>2010-01-01T00:57:49Z</time>
      </trkpt>
      <trkpt lat="63.61151030" lon="-19.4414886">
        <ele>920.79998</ele>
        <time>2010-01-01T00:57:49Z</time>
      </trkpt>
      <trkpt lat="63.61150570" lon="-19.4414824">
        <ele>921.20001</ele>
        <time>2010-01-01T00:57:50Z</time>
      </trkpt>
      <trkpt lat="63.61150430" lon="-19.4414808">
        <ele>921.40002</ele>
        <time>2010-01-01T00:57:50Z</time>
      </trkpt>
      <trkpt lat="63.61150190" lon="-19.4414802">
        <ele>921.40002</ele>
        <time>2010-01-01T00:57:50Z</time>
      </trkpt>
      <trkpt lat="63.61148230" lon="-19.4414731">
        <ele>921.59997</ele>
        <time>2010-01-01T00:57:51Z</time>
      </trkpt>
      <trkpt lat="63.61147730" lon="-19.4414722">
        <ele>921.79998</ele>
        <time>2010-01-01T00:57:51Z</time>
      </trkpt>
      <trkpt lat="63.61146990" lon="-19.4414709">
        <ele>922.20001</ele>
        <time>2010-01-01T00:57:51Z</time>
      </trkpt>
      <trkpt lat="63.61146170" lon="-19.4414677">
        <ele>922.59997</ele>
        <time>2010-01-01T00:57:51Z</time>
      </trkpt>
      <trkpt lat="63.61145410" lon="-19.4414632">
        <ele>923.00000</ele>
        <time>2010-01-01T00:57:52Z</time>
      </trkpt>
      <trkpt lat="63.61144760" lon="-19.4414576">
        <ele>923.40002</ele>
        <time>2010-01-01T00:57:52Z</time>
      </trkpt>
      <trkpt lat="63.61142600" lon="-19.4414322">
        <ele>924.00000</ele>
        <time>2010-01-01T00:57:53Z</time>
      </trkpt>
      <trkpt lat="63.61141830" lon="-19.4414302">
        <ele>924.40002</ele>
        <time>2010-01-01T00:57:53Z</time>
      </trkpt>
      <trkpt lat="63.61141140" lon="-19.4414296">
        <ele>924.59997</ele>
        <time>2010-01-01T00:57:54Z</time>
      </trkpt>
      <trkpt lat="63.61140450" lon="-19.4414292">
        <ele>924.79998</ele>
        <time>2010-01-01T00:57:54Z</time>
      </trkpt>
      <trkpt lat="63.61139450" lon="-19.4414317">
        <ele>925.40002</ele>
        <time>2010-01-01T00:57:54Z</time>
      </trkpt>
      <trkpt lat="63.61138700" lon="-19.4414363">
        <ele>925.59997</ele>
        <time>2010-01-01T00:57:55Z</time>
      </trkpt>
      <trkpt lat="63.61135260" lon="-19.4414517">
        <ele>925.59997</ele>
        <time>2010-01-01T00:57:56Z</time>
      </trkpt>
      <trkpt lat="63.61131670" lon="-19.4414580">
        <ele>925.79998</ele>
        <time>2010-01-01T00:57:57Z</time>
      </trkpt>
      <trkpt lat="63.61130670" lon="-19.4414617">
        <ele>926.20001</ele>
        <time>2010-01-01T00:57:58Z</time>
      </trkpt>
      <trkpt lat="63.61129790" lon="-19.4414602">
        <ele>926.59997</ele>
        <time>2010-01-01T00:57:58Z</time>
      </trkpt>
      <trkpt lat="63.61128910" lon="-19.4414540">
        <ele>927.00000</ele>
        <time>2010-01-01T00:57:58Z</time>
      </trkpt>
      <trkpt lat="63.61127960" lon="-19.4414514">
        <ele>927.59997</ele>
        <time>2010-01-01T00:57:59Z</time>
      </trkpt>
      <trkpt lat="63.61127000" lon="-19.4414513">
        <ele>927.79998</ele>
        <time>2010-01-01T00:57:59Z</time>
      </trkpt>
      <trkpt lat="63.61116830" lon="-19.4414466">
        <ele>927.79998</ele>
        <time>2010-01-01T00:58:03Z</time>
      </trkpt>
      <trkpt lat="63.61108610" lon="-19.4415054">
        <ele>928.20001</ele>
        <time>2010-01-01T00:58:07Z</time>
      </trkpt>
      <trkpt lat="63.61107270" lon="-19.4415139">
        <ele>928.59997</ele>
        <time>2010-01-01T00:58:07Z</time>
      </trkpt>
      <trkpt lat="63.61105830" lon="-19.4415192">
        <ele>929.00000</ele>
        <time>2010-01-01T00:58:08Z</time>
      </trkpt>
      <trkpt lat="63.61104430" lon="-19.4415178">
        <ele>929.40002</ele>
        <time>2010-01-01T00:58:08Z</time>
      </trkpt>
      <trkpt lat="63.61102980" lon="-19.4415146">
        <ele>929.79998</ele>
        <time>2010-01-01T00:58:09Z</time>
      </trkpt>
      <trkpt lat="63.61101540" lon="-19.4415147">
        <ele>929.79998</ele>
        <time>2010-01-01T00:58:10Z</time>
      </trkpt>
      <trkpt lat="63.61099990" lon="-19.4415156">
        <ele>929.79998</ele>
        <time>2010-01-01T00:58:10Z</time>
      </trkpt>
      <trkpt lat="63.61098650" lon="-19.4415129">
        <ele>929.79998</ele>
        <time>2010-01-01T00:58:11Z</time>
      </trkpt>
      <trkpt lat="63.61097240" lon="-19.4415043">
        <ele>929.79998</ele>
        <time>2010-01-01T00:58:11Z</time>
      </trkpt>
      <trkpt lat="63.61095750" lon="-19.4414934">
        <ele>929.79998</ele>
        <time>2010-01-01T00:58:12Z</time>
      </trkpt>
      <trkpt lat="63.61094490" lon="-19.4414874">
        <ele>929.79998</ele>
        <time>2010-01-01T00:58:13Z</time>
      </trkpt>
      <trkpt lat="63.61090840" lon="-19.4414607">
        <ele>929.79998</ele>
        <time>2010-01-01T00:58:14Z</time>
      </trkpt>
      <trkpt lat="63.61089660" lon="-19.4414452">
        <ele>929.79998</ele>
        <time>2010-01-01T00:58:15Z</time>
      </trkpt>
      <trkpt lat="63.61088430" lon="-19.4414299">
        <ele>929.79998</ele>
        <time>2010-01-01T00:58:15Z</time>
      </trkpt>
      <trkpt lat="63.61076590" lon="-19.4412774">
        <ele>929.79998</ele>
        <time>2010-01-01T00:58:21Z</time>
      </trkpt>
      <trkpt lat="63.61073030" lon="-19.4412422">
        <ele>929.79998</ele>
        <time>2010-01-01T00:58:22Z</time>
      </trkpt>
      <trkpt lat="63.61071930" lon="-19.4412282">
        <ele>929.79998</ele>
        <time>2010-01-01T00:58:23Z</time>
      </trkpt>
      <trkpt lat="63.61070760" lon="-19.4412151">
        <ele>929.20001</ele>
        <time>2010-01-01T00:58:23Z</time>
      </trkpt>
      <trkpt lat="63.61069670" lon="-19.4412017">
        <ele>928.79998</ele>
        <time>2010-01-01T00:58:24Z</time>
      </trkpt>
      <trkpt lat="63.61068660" lon="-19.4411861">
        <ele>928.40002</ele>
        <time>2010-01-01T00:58:24Z</time>
      </trkpt>
      <trkpt lat="63.61067590" lon="-19.4411680">
        <ele>928.00000</ele>
        <time>2010-01-01T00:58:25Z</time>
      </trkpt>
      <trkpt lat="63.61066420" lon="-19.4411505">
        <ele>927.59997</ele>
        <time>2010-01-01T00:58:25Z</time>
      </trkpt>
      <trkpt lat="63.61065210" lon="-19.4411396">
        <ele>927.59997</ele>
        <time>2010-01-01T00:58:26Z</time>
      </trkpt>
      <trkpt lat="63.61058790" lon="-19.4410875">
        <ele>927.59997</ele>
        <time>2010-01-01T00:58:29Z</time>
      </trkpt>
      <trkpt lat="63.61057750" lon="-19.4410750">
        <ele>927.59997</ele>
        <time>2010-01-01T00:58:29Z</time>
      </trkpt>
      <trkpt lat="63.61056520" lon="-19.4410678">
        <ele>927.59997</ele>
        <time>2010-01-01T00:58:30Z</time>
      </trkpt>
      <trkpt lat="63.61055380" lon="-19.4410616">
        <ele>927.20001</ele>
        <time>2010-01-01T00:58:30Z</time>
      </trkpt>
      <trkpt lat="63.61054290" lon="-19.4410560">
        <ele>926.79998</ele>
        <time>2010-01-01T00:58:30Z</time>
      </trkpt>
      <trkpt lat="63.61053190" lon="-19.4410498">
        <ele>926.40002</ele>
        <time>2010-01-01T00:58:31Z</time>
      </trkpt>
      <trkpt lat="63.61052250" lon="-19.4410479">
        <ele>926.00000</ele>
        <time>2010-01-01T00:58:31Z</time>
      </trkpt>
      <trkpt lat="63.61051000" lon="-19.4410491">
        <ele>925.59997</ele>
        <time>2010-01-01T00:58:32Z</time>
      </trkpt>
      <trkpt lat="63.61049470" lon="-19.4410450">
        <ele>925.59997</ele>
        <time>2010-01-01T00:58:32Z</time>
      </trkpt>
      <trkpt lat="63.61047680" lon="-19.4410359">
        <ele>925.59997</ele>
        <time>2010-01-01T00:58:33Z</time>
      </trkpt>
      <trkpt lat="63.61046270" lon="-19.4410252">
        <ele>925.59997</ele>
        <time>2010-01-01T00:58:34Z</time>
      </trkpt>
      <trkpt lat="63.61044740" lon="-19.4410156">
        <ele>925.40002</ele>
        <time>2010-01-01T00:58:34Z</time>
      </trkpt>
      <trkpt lat="63.61043280" lon="-19.4410123">
        <ele>925.00000</ele>
        <time>2010-01-01T00:58:35Z</time>
      </trkpt>
      <trkpt lat="63.61041900" lon="-19.4410108">
        <ele>924.59997</ele>
        <time>2010-01-01T00:58:36Z</time>
      </trkpt>
      <trkpt lat="63.61040430" lon="-19.4410049">
        <ele>924.20001</ele>
        <time>2010-01-01T00:58:36Z</time>
      </trkpt>
      <trkpt lat="63.61039180" lon="-19.4409971">
        <ele>924.00000</ele>
        <time>2010-01-01T00:58:37Z</time>
      </trkpt>
      <trkpt lat="63.61037860" lon="-19.4409889">
        <ele>923.59997</ele>
        <time>2010-01-01T00:58:37Z</time>
      </trkpt>
      <trkpt lat="63.61036280" lon="-19.4409785">
        <ele>923.59997</ele>
        <time>2010-01-01T00:58:38Z</time>
      </trkpt>
      <trkpt lat="63.61032250" lon="-19.4409558">
        <ele>923.59997</ele>
        <time>2010-01-01T00:58:40Z</time>
      </trkpt>
      <trkpt lat="63.61028580" lon="-19.4409300">
        <ele>923.59997</ele>
        <time>2010-01-01T00:58:41Z</time>
      </trkpt>
      <trkpt lat="63.61026640" lon="-19.4409137">
        <ele>923.59997</ele>
        <time>2010-01-01T00:58:42Z</time>
      </trkpt>
      <trkpt lat="63.61024410" lon="-19.4409013">
        <ele>923.59997</ele>
        <time>2010-01-01T00:58:43Z</time>
      </trkpt>
      <trkpt lat="63.61022100" lon="-19.4408878">
        <ele>923.20001</ele>
        <time>2010-01-01T00:58:44Z</time>
      </trkpt>
      <trkpt lat="63.61019470" lon="-19.4408759">
        <ele>923.00000</ele>
        <time>2010-01-01T00:58:45Z</time>
      </trkpt>
      <trkpt lat="63.61016760" lon="-19.4408789">
        <ele>922.59997</ele>
        <time>2010-01-01T00:58:46Z</time>
      </trkpt>
      <trkpt lat="63.61013840" lon="-19.4408843">
        <ele>922.20001</ele>
        <time>2010-01-01T00:58:47Z</time>
      </trkpt>
      <trkpt lat="63.61010520" lon="-19.4408893">
        <ele>921.79998</ele>
        <time>2010-01-01T00:58:48Z</time>
      </trkpt>
      <trkpt lat="63.61007510" lon="-19.4408991">
        <ele>921.40002</ele>
        <time>2010-01-01T00:58:50Z</time>
      </trkpt>
      <trkpt lat="63.61005080" lon="-19.4409111">
        <ele>921.40002</ele>
        <time>2010-01-01T00:58:51Z</time>
      </trkpt>
      <trkpt lat="63.61002230" lon="-19.4409206">
        <ele>921.40002</ele>
        <time>2010-01-01T00:58:52Z</time>
      </trkpt>
      <trkpt lat="63.60999570" lon="-19.4409267">
        <ele>921.40002</ele>
        <time>2010-01-01T00:58:53Z</time>
      </trkpt>
      <trkpt lat="63.60997330" lon="-19.4409325">
        <ele>921.40002</ele>
        <time>2010-01-01T00:58:54Z</time>
      </trkpt>
      <trkpt lat="63.60996230" lon="-19.4409297">
        <ele>921.40002</ele>
        <time>2010-01-01T00:58:54Z</time>
      </trkpt>
      <trkpt lat="63.60995700" lon="-19.4409254">
        <ele>921.00000</ele>
        <time>2010-01-01T00:58:54Z</time>
      </trkpt>
      <trkpt lat="63.60993590" lon="-19.4409099">
        <ele>921.40002</ele>
        <time>2010-01-01T00:58:55Z</time>
      </trkpt>
      <trkpt lat="63.60992120" lon="-19.4408811">
        <ele>921.40002</ele>
        <time>2010-01-01T00:58:56Z</time>
      </trkpt>
      <trkpt lat="63.60991280" lon="-19.4408570">
        <ele>921.40002</ele>
        <time>2010-01-01T00:58:57Z</time>
      </trkpt>
      <trkpt lat="63.60990540" lon="-19.4408427">
        <ele>921.40002</ele>
        <time>2010-01-01T00:58:57Z</time>
      </trkpt>
      <trkpt lat="63.60989070" lon="-19.4408281">
        <ele>921.40002</ele>
        <time>2010-01-01T00:58:58Z</time>
      </trkpt>
      <trkpt lat="63.60987610" lon="-19.4408236">
        <ele>921.40002</ele>
        <time>2010-01-01T00:58:58Z</time>
      </trkpt>
      <trkpt lat="63.60986400" lon="-19.4408147">
        <ele>921.40002</ele>
        <time>2010-01-01T00:58:59Z</time>
      </trkpt>
      <trkpt lat="63.60985380" lon="-19.4408059">
        <ele>921.00000</ele>
        <time>2010-01-01T00:58:59Z</time>
      </trkpt>
      <trkpt lat="63.60983900" lon="-19.4408111">
        <ele>920.40002</ele>
        <time>2010-01-01T00:59:00Z</time>
      </trkpt>
      <trkpt lat="63.60982710" lon="-19.4408215">
        <ele>920.00000</ele>
        <time>2010-01-01T00:59:00Z</time>
      </trkpt>
      <trkpt lat="63.60981430" lon="-19.4408420">
        <ele>919.59997</ele>
        <time>2010-01-01T00:59:01Z</time>
      </trkpt>
      <trkpt lat="63.60980080" lon="-19.4408582">
        <ele>919.20001</ele>
        <time>2010-01-01T00:59:02Z</time>
      </trkpt>
      <trkpt lat="63.60978440" lon="-19.4408612">
        <ele>918.59997</ele>
        <time>2010-01-01T00:59:02Z</time>
      </trkpt>
      <trkpt lat="63.60977710" lon="-19.4408340">
        <ele>918.20001</ele>
        <time>2010-01-01T00:59:03Z</time>
      </trkpt>
      <trkpt lat="63.60977080" lon="-19.4408151">
        <ele>917.79998</ele>
        <time>2010-01-01T00:59:03Z</time>
      </trkpt>
      <trkpt lat="63.60976050" lon="-19.4407972">
        <ele>917.20001</ele>
        <time>2010-01-01T00:59:04Z</time>
      </trkpt>
      <trkpt lat="63.60974490" lon="-19.4407759">
        <ele>916.79998</ele>
        <time>2010-01-01T00:59:04Z</time>
      </trkpt>
      <trkpt lat="63.60973120" lon="-19.4407668">
        <ele>916.20001</ele>
        <time>2010-01-01T00:59:05Z</time>
      </trkpt>
      <trkpt lat="63.60971150" lon="-19.4407656">
        <ele>915.59997</ele>
        <time>2010-01-01T00:59:06Z</time>
      </trkpt>
      <trkpt lat="63.60969420" lon="-19.4407646">
        <ele>915.40002</ele>
        <time>2010-01-01T00:59:07Z</time>
      </trkpt>
      <trkpt lat="63.60967680" lon="-19.4407598">
        <ele>915.00000</ele>
        <time>2010-01-01T00:59:07Z</time>
      </trkpt>
      <trkpt lat="63.60966380" lon="-19.4407536">
        <ele>914.59997</ele>
        <time>2010-01-01T00:59:08Z</time>
      </trkpt>
      <trkpt lat="63.60963960" lon="-19.4407200">
        <ele>914.00000</ele>
        <time>2010-01-01T00:59:09Z</time>
      </trkpt>
      <trkpt lat="63.60962360" lon="-19.4406928">
        <ele>913.20001</ele>
        <time>2010-01-01T00:59:10Z</time>
      </trkpt>
      <trkpt lat="63.60960100" lon="-19.4406773">
        <ele>912.59997</ele>
        <time>2010-01-01T00:59:11Z</time>
      </trkpt>
      <trkpt lat="63.60958060" lon="-19.4406566">
        <ele>911.79998</ele>
        <time>2010-01-01T00:59:12Z</time>
      </trkpt>
      <trkpt lat="63.60954870" lon="-19.4406273">
        <ele>911.20001</ele>
        <time>2010-01-01T00:59:13Z</time>
      </trkpt>
      <trkpt lat="63.60951120" lon="-19.4405879">
        <ele>910.40002</ele>
        <time>2010-01-01T00:59:15Z</time>
      </trkpt>
      <trkpt lat="63.60946640" lon="-19.4405320">
        <ele>909.40002</ele>
        <time>2010-01-01T00:59:17Z</time>
      </trkpt>
      <trkpt lat="63.60943590" lon="-19.4404781">
        <ele>908.40002</ele>
        <time>2010-01-01T00:59:18Z</time>
      </trkpt>
      <trkpt lat="63.60940440" lon="-19.4404307">
        <ele>907.40002</ele>
        <time>2010-01-01T00:59:20Z</time>
      </trkpt>
      <trkpt lat="63.60937950" lon="-19.4403858">
        <ele>906.20001</ele>
        <time>2010-01-01T00:59:21Z</time>
      </trkpt>
      <trkpt lat="63.60934500" lon="-19.4403336">
        <ele>905.20001</ele>
        <time>2010-01-01T00:59:23Z</time>
      </trkpt>
      <trkpt lat="63.60931770" lon="-19.4402926">
        <ele>904.00000</ele>
        <time>2010-01-01T00:59:24Z</time>
      </trkpt>
      <trkpt lat="63.60929110" lon="-19.4402393">
        <ele>902.79998</ele>
        <time>2010-01-01T00:59:25Z</time>
      </trkpt>
      <trkpt lat="63.60926530" lon="-19.4401773">
        <ele>901.79998</ele>
        <time>2010-01-01T00:59:27Z</time>
      </trkpt>
      <trkpt lat="63.60924370" lon="-19.4401170">
        <ele>900.59997</ele>
        <time>2010-01-01T00:59:28Z</time>
      </trkpt>
      <trkpt lat="63.60921860" lon="-19.4400706">
        <ele>899.20001</ele>
        <time>2010-01-01T00:59:30Z</time>
      </trkpt>
      <trkpt lat="63.60919340" lon="-19.4400328">
        <ele>898.40002</ele>
        <time>2010-01-01T00:59:31Z</time>
      </trkpt>
      <trkpt lat="63.60917000" lon="-19.4399940">
        <ele>897.59997</ele>
        <time>2010-01-01T00:59:32Z</time>
      </trkpt>
      <trkpt lat="63.60914820" lon="-19.4399628">
        <ele>897.00000</ele>
        <time>2010-01-01T00:59:33Z</time>
      </trkpt>
      <trkpt lat="63.60912510" lon="-19.4399216">
        <ele>896.40002</ele>
        <time>2010-01-01T00:59:34Z</time>
      </trkpt>
      <trkpt lat="63.60910440" lon="-19.4398820">
        <ele>895.59997</ele>
        <time>2010-01-01T00:59:35Z</time>
      </trkpt>
      <trkpt lat="63.60908740" lon="-19.4398580">
        <ele>895.20001</ele>
        <time>2010-01-01T00:59:36Z</time>
      </trkpt>
      <trkpt lat="63.60906590" lon="-19.4398322">
        <ele>895.20001</ele>
        <time>2010-01-01T00:59:37Z</time>
      </trkpt>
      <trkpt lat="63.60904710" lon="-19.4397950">
        <ele>895.20001</ele>
        <time>2010-01-01T00:59:38Z</time>
      </trkpt>
      <trkpt lat="63.60902720" lon="-19.4397568">
        <ele>895.20001</ele>
        <time>2010-01-01T00:59:39Z</time>
      </trkpt>
      <trkpt lat="63.60901130" lon="-19.4397365">
        <ele>895.20001</ele>
        <time>2010-01-01T00:59:40Z</time>
      </trkpt>
      <trkpt lat="63.60899450" lon="-19.4397114">
        <ele>895.20001</ele>
        <time>2010-01-01T00:59:41Z</time>
      </trkpt>
      <trkpt lat="63.60897780" lon="-19.4396793">
        <ele>895.20001</ele>
        <time>2010-01-01T00:59:41Z</time>
      </trkpt>
      <trkpt lat="63.60896310" lon="-19.4396508">
        <ele>895.20001</ele>
        <time>2010-01-01T00:59:42Z</time>
      </trkpt>
      <trkpt lat="63.60894520" lon="-19.4396305">
        <ele>895.40002</ele>
        <time>2010-01-01T00:59:43Z</time>
      </trkpt>
      <trkpt lat="63.60892550" lon="-19.4396114">
        <ele>895.40002</ele>
        <time>2010-01-01T00:59:44Z</time>
      </trkpt>
      <trkpt lat="63.60890680" lon="-19.4395672">
        <ele>895.40002</ele>
        <time>2010-01-01T00:59:45Z</time>
      </trkpt>
      <trkpt lat="63.60889120" lon="-19.4395385">
        <ele>895.20001</ele>
        <time>2010-01-01T00:59:46Z</time>
      </trkpt>
      <trkpt lat="63.60887510" lon="-19.4395103">
        <ele>895.40002</ele>
        <time>2010-01-01T00:59:47Z</time>
      </trkpt>
      <trkpt lat="63.60885620" lon="-19.4394679">
        <ele>895.20001</ele>
        <time>2010-01-01T00:59:48Z</time>
      </trkpt>
      <trkpt lat="63.60874150" lon="-19.4391984">
        <ele>895.20001</ele>
        <time>2010-01-01T00:59:54Z</time>
      </trkpt>
      <trkpt lat="63.60872210" lon="-19.4391668">
        <ele>895.40002</ele>
        <time>2010-01-01T00:59:55Z</time>
      </trkpt>
      <trkpt lat="63.60870440" lon="-19.4391510">
        <ele>895.40002</ele>
        <time>2010-01-01T00:59:56Z</time>
      </trkpt>
      <trkpt lat="63.60867980" lon="-19.4391439">
        <ele>895.20001</ele>
        <time>2010-01-01T00:59:57Z</time>
      </trkpt>
      <trkpt lat="63.60865750" lon="-19.4391447">
        <ele>895.40002</ele>
        <time>2010-01-01T00:59:58Z</time>
      </trkpt>
      <trkpt lat="63.60863640" lon="-19.4391363">
        <ele>895.40002</ele>
        <time>2010-01-01T00:59:59Z</time>
      </trkpt>
      <trkpt lat="63.60861930" lon="-19.4391355">
        <ele>895.20001</ele>
        <time>2010-01-01T00:59:59Z</time>
      </trkpt>
      <trkpt lat="63.60859910" lon="-19.4391196">
        <ele>895.20001</ele>
        <time>2010-01-01T01:00:00Z</time>
      </trkpt>
      <trkpt lat="63.60858340" lon="-19.4391079">
        <ele>895.40002</ele>
        <time>2010-01-01T01:00:01Z</time>
      </trkpt>
      <trkpt lat="63.60857110" lon="-19.4390906">
        <ele>895.40002</ele>
        <time>2010-01-01T01:00:02Z</time>
      </trkpt>
      <trkpt lat="63.60856440" lon="-19.4390787">
        <ele>895.20001</ele>
        <time>2010-01-01T01:00:02Z</time>
      </trkpt>
      <trkpt lat="63.60849770" lon="-19.4389451">
        <ele>895.20001</ele>
        <time>2010-01-01T01:00:05Z</time>
      </trkpt>
      <trkpt lat="63.60848350" lon="-19.4389215">
        <ele>895.20001</ele>
        <time>2010-01-01T01:00:06Z</time>
      </trkpt>
      <trkpt lat="63.60847250" lon="-19.4389229">
        <ele>895.20001</ele>
        <time>2010-01-01T01:00:07Z</time>
      </trkpt>
      <trkpt lat="63.60844940" lon="-19.4389098">
        <ele>895.20001</ele>
        <time>2010-01-01T01:00:08Z</time>
      </trkpt>
      <trkpt lat="63.60843090" lon="-19.4389103">
        <ele>895.20001</ele>
        <time>2010-01-01T01:00:08Z</time>
      </trkpt>
      <trkpt lat="63.60840930" lon="-19.4389257">
        <ele>895.00000</ele>
        <time>2010-01-01T01:00:09Z</time>
      </trkpt>
      <trkpt lat="63.60838830" lon="-19.4389273">
        <ele>894.40002</ele>
        <time>2010-01-01T01:00:10Z</time>
      </trkpt>
      <trkpt lat="63.60836550" lon="-19.4389266">
        <ele>894.00000</ele>
        <time>2010-01-01T01:00:11Z</time>
      </trkpt>
      <trkpt lat="63.60834270" lon="-19.4389277">
        <ele>893.59997</ele>
        <time>2010-01-01T01:00:12Z</time>
      </trkpt>
      <trkpt lat="63.60831320" lon="-19.4389447">
        <ele>893.20001</ele>
        <time>2010-01-01T01:00:13Z</time>
      </trkpt>
      <trkpt lat="63.60828590" lon="-19.4389755">
        <ele>892.59997</ele>
        <time>2010-01-01T01:00:14Z</time>
      </trkpt>
      <trkpt lat="63.60825530" lon="-19.4390024">
        <ele>892.20001</ele>
        <time>2010-01-01T01:00:16Z</time>
      </trkpt>
      <trkpt lat="63.60822290" lon="-19.4390247">
        <ele>891.59997</ele>
        <time>2010-01-01T01:00:17Z</time>
      </trkpt>
      <trkpt lat="63.60819170" lon="-19.4390339">
        <ele>891.20001</ele>
        <time>2010-01-01T01:00:18Z</time>
      </trkpt>
      <trkpt lat="63.60816170" lon="-19.4390326">
        <ele>891.00000</ele>
        <time>2010-01-01T01:00:19Z</time>
      </trkpt>
      <trkpt lat="63.60813150" lon="-19.4390164">
        <ele>890.59997</ele>
        <time>2010-01-01T01:00:21Z</time>
      </trkpt>
      <trkpt lat="63.60810620" lon="-19.4390099">
        <ele>889.79998</ele>
        <time>2010-01-01T01:00:22Z</time>
      </trkpt>
      <trkpt lat="63.60807900" lon="-19.4390019">
        <ele>889.40002</ele>
        <time>2010-01-01T01:00:23Z</time>
      </trkpt>
      <trkpt lat="63.60805120" lon="-19.4389893">
        <ele>888.79998</ele>
        <time>2010-01-01T01:00:24Z</time>
      </trkpt>
      <trkpt lat="63.60802270" lon="-19.4389640">
        <ele>888.20001</ele>
        <time>2010-01-01T01:00:25Z</time>
      </trkpt>
      <trkpt lat="63.60799400" lon="-19.4389477">
        <ele>887.59997</ele>
        <time>2010-01-01T01:00:26Z</time>
      </trkpt>
      <trkpt lat="63.60795410" lon="-19.4389316">
        <ele>887.00000</ele>
        <time>2010-01-01T01:00:28Z</time>
      </trkpt>
      <trkpt lat="63.60792420" lon="-19.4389289">
        <ele>886.40002</ele>
        <time>2010-01-01T01:00:29Z</time>
      </trkpt>
      <trkpt lat="63.60783800" lon="-19.4389178">
        <ele>886.00000</ele>
        <time>2010-01-01T01:00:33Z</time>
      </trkpt>
      <trkpt lat="63.60780560" lon="-19.4388999">
        <ele>885.40002</ele>
        <time>2010-01-01T01:00:34Z</time>
      </trkpt>
      <trkpt lat="63.60777210" lon="-19.4388966">
        <ele>885.00000</ele>
        <time>2010-01-01T01:00:35Z</time>
      </trkpt>
      <trkpt lat="63.60774750" lon="-19.4388970">
        <ele>884.59997</ele>
        <time>2010-01-01T01:00:36Z</time>
      </trkpt>
      <trkpt lat="63.60771930" lon="-19.4389003">
        <ele>883.79998</ele>
        <time>2010-01-01T01:00:37Z</time>
      </trkpt>
      <trkpt lat="63.60767910" lon="-19.4389152">
        <ele>883.40002</ele>
        <time>2010-01-01T01:00:39Z</time>
      </trkpt>
      <trkpt lat="63.60764800" lon="-19.4389274">
        <ele>882.79998</ele>
        <time>2010-01-01T01:00:40Z</time>
      </trkpt>
      <trkpt lat="63.60762120" lon="-19.4389224">
        <ele>882.20001</ele>
        <time>2010-01-01T01:00:41Z</time>
      </trkpt>
      <trkpt lat="63.60759660" lon="-19.4389127">
        <ele>881.79998</ele>
        <time>2010-01-01T01:00:42Z</time>
      </trkpt>
      <trkpt lat="63.60757060" lon="-19.4389039">
        <ele>881.40002</ele>
        <time>2010-01-01T01:00:43Z</time>
      </trkpt>
      <trkpt lat="63.60753770" lon="-19.4389033">
        <ele>880.79998</ele>
        <time>2010-01-01T01:00:45Z</time>
      </trkpt>
      <trkpt lat="63.60751130" lon="-19.4388861">
        <ele>880.40002</ele>
        <time>2010-01-01T01:00:46Z</time>
      </trkpt>
      <trkpt lat="63.60748280" lon="-19.4388706">
        <ele>879.79998</ele>
        <time>2010-01-01T01:00:47Z</time>
      </trkpt>
      <trkpt lat="63.60745720" lon="-19.4388572">
        <ele>879.40002</ele>
        <time>2010-01-01T01:00:48Z</time>
      </trkpt>
      <trkpt lat="63.60743370" lon="-19.4388495">
        <ele>879.00000</ele>
        <time>2010-01-01T01:00:49Z</time>
      </trkpt>
      <trkpt lat="63.60740870" lon="-19.4388351">
        <ele>878.59997</ele>
        <time>2010-01-01T01:00:50Z</time>
      </trkpt>
      <trkpt lat="63.60737910" lon="-19.4388156">
        <ele>878.20001</ele>
        <time>2010-01-01T01:00:51Z</time>
      </trkpt>
      <trkpt lat="63.60735050" lon="-19.4388069">
        <ele>877.79998</ele>
        <time>2010-01-01T01:00:52Z</time>
      </trkpt>
      <trkpt lat="63.60729150" lon="-19.4387977">
        <ele>877.79998</ele>
        <time>2010-01-01T01:00:55Z</time>
      </trkpt>
      <trkpt lat="63.60726430" lon="-19.4387850">
        <ele>877.59997</ele>
        <time>2010-01-01T01:00:56Z</time>
      </trkpt>
      <trkpt lat="63.60723880" lon="-19.4387718">
        <ele>877.20001</ele>
        <time>2010-01-01T01:00:57Z</time>
      </trkpt>
      <trkpt lat="63.60721020" lon="-19.4387580">
        <ele>876.79998</ele>
        <time>2010-01-01T01:00:58Z</time>
      </trkpt>
      <trkpt lat="63.60718210" lon="-19.4387390">
        <ele>876.40002</ele>
        <time>2010-01-01T01:00:59Z</time>
      </trkpt>
      <trkpt lat="63.60715560" lon="-19.4387289">
        <ele>876.00000</ele>
        <time>2010-01-01T01:01:00Z</time>
      </trkpt>
      <trkpt lat="63.60712700" lon="-19.4387137">
        <ele>875.79998</ele>
        <time>2010-01-01T01:01:02Z</time>
      </trkpt>
      <trkpt lat="63.60710150" lon="-19.4386920">
        <ele>875.59997</ele>
        <time>2010-01-01T01:01:03Z</time>
      </trkpt>
      <trkpt lat="63.60707520" lon="-19.4386745">
        <ele>875.59997</ele>
        <time>2010-01-01T01:01:04Z</time>
      </trkpt>
      <trkpt lat="63.60705040" lon="-19.4386578">
        <ele>875.20001</ele>
        <time>2010-01-01T01:01:05Z</time>
      </trkpt>
      <trkpt lat="63.60702700" lon="-19.4386318">
        <ele>875.00000</ele>
        <time>2010-01-01T01:01:06Z</time>
      </trkpt>
      <trkpt lat="63.60700000" lon="-19.4386024">
        <ele>874.59997</ele>
        <time>2010-01-01T01:01:07Z</time>
      </trkpt>
      <trkpt lat="63.60697050" lon="-19.4385687">
        <ele>874.20001</ele>
        <time>2010-01-01T01:01:08Z</time>
      </trkpt>
      <trkpt lat="63.60693850" lon="-19.4385397">
        <ele>873.59997</ele>
        <time>2010-01-01T01:01:10Z</time>
      </trkpt>
      <trkpt lat="63.60691350" lon="-19.4385175">
        <ele>873.59997</ele>
        <time>2010-01-01T01:01:11Z</time>
      </trkpt>
      <trkpt lat="63.60688990" lon="-19.4385109">
        <ele>873.59997</ele>
        <time>2010-01-01T01:01:12Z</time>
      </trkpt>
      <trkpt lat="63.60686610" lon="-19.4384918">
        <ele>873.59997</ele>
        <time>2010-01-01T01:01:13Z</time>
      </trkpt>
      <trkpt lat="63.60684170" lon="-19.4384778">
        <ele>873.59997</ele>
        <time>2010-01-01T01:01:14Z</time>
      </trkpt>
      <trkpt lat="63.60679140" lon="-19.4384465">
        <ele>873.59997</ele>
        <time>2010-01-01T01:01:16Z</time>
      </trkpt>
      <trkpt lat="63.60677290" lon="-19.4384294">
        <ele>873.59997</ele>
        <time>2010-01-01T01:01:17Z</time>
      </trkpt>
      <trkpt lat="63.60674720" lon="-19.4384101">
        <ele>873.59997</ele>
        <time>2010-01-01T01:01:18Z</time>
      </trkpt>
      <trkpt lat="63.60672650" lon="-19.4384044">
        <ele>873.59997</ele>
        <time>2010-01-01T01:01:19Z</time>
      </trkpt>
      <trkpt lat="63.60670220" lon="-19.4383944">
        <ele>873.59997</ele>
        <time>2010-01-01T01:01:20Z</time>
      </trkpt>
      <trkpt lat="63.60667880" lon="-19.4383810">
        <ele>873.59997</ele>
        <time>2010-01-01T01:01:21Z</time>
      </trkpt>
      <trkpt lat="63.60666000" lon="-19.4383732">
        <ele>873.40002</ele>
        <time>2010-01-01T01:01:21Z</time>
      </trkpt>
      <trkpt lat="63.60663950" lon="-19.4383648">
        <ele>873.00000</ele>
        <time>2010-01-01T01:01:22Z</time>
      </trkpt>
      <trkpt lat="63.60661360" lon="-19.4383548">
        <ele>872.59997</ele>
        <time>2010-01-01T01:01:23Z</time>
      </trkpt>
      <trkpt lat="63.60658930" lon="-19.4383504">
        <ele>872.20001</ele>
        <time>2010-01-01T01:01:24Z</time>
      </trkpt>
      <trkpt lat="63.60652040" lon="-19.4383062">
        <ele>871.59997</ele>
        <time>2010-01-01T01:01:27Z</time>
      </trkpt>
      <trkpt lat="63.60649750" lon="-19.4382877">
        <ele>871.59997</ele>
        <time>2010-01-01T01:01:28Z</time>
      </trkpt>
      <trkpt lat="63.60639530" lon="-19.4382332">
        <ele>871.59997</ele>
        <time>2010-01-01T01:01:32Z</time>
      </trkpt>
      <trkpt lat="63.60636800" lon="-19.4382344">
        <ele>871.59997</ele>
        <time>2010-01-01T01:01:33Z</time>
      </trkpt>
      <trkpt lat="63.60634270" lon="-19.4382186">
        <ele>871.59997</ele>
        <time>2010-01-01T01:01:34Z</time>
      </trkpt>
      <trkpt lat="63.60631480" lon="-19.4382078">
        <ele>871.59997</ele>
        <time>2010-01-01T01:01:36Z</time>
      </trkpt>
      <trkpt lat="63.60630770" lon="-19.4382073">
        <ele>871.59997</ele>
        <time>2010-01-01T01:01:36Z</time>
      </trkpt>
      <trkpt lat="63.60627170" lon="-19.4381962">
        <ele>871.59997</ele>
        <time>2010-01-01T01:01:37Z</time>
      </trkpt>
      <trkpt lat="63.60624770" lon="-19.4381805">
        <ele>871.59997</ele>
        <time>2010-01-01T01:01:38Z</time>
      </trkpt>
      <trkpt lat="63.60622650" lon="-19.4381619">
        <ele>871.59997</ele>
        <time>2010-01-01T01:01:39Z</time>
      </trkpt>
      <trkpt lat="63.60618940" lon="-19.4381596">
        <ele>871.59997</ele>
        <time>2010-01-01T01:01:41Z</time>
      </trkpt>
      <trkpt lat="63.60616560" lon="-19.4382006">
        <ele>871.40002</ele>
        <time>2010-01-01T01:01:42Z</time>
      </trkpt>
      <trkpt lat="63.60614530" lon="-19.4382447">
        <ele>871.00000</ele>
        <time>2010-01-01T01:01:43Z</time>
      </trkpt>
      <trkpt lat="63.60611720" lon="-19.4382662">
        <ele>870.59997</ele>
        <time>2010-01-01T01:01:44Z</time>
      </trkpt>
      <trkpt lat="63.60609280" lon="-19.4382824">
        <ele>870.20001</ele>
        <time>2010-01-01T01:01:45Z</time>
      </trkpt>
      <trkpt lat="63.60607280" lon="-19.4382905">
        <ele>869.79998</ele>
        <time>2010-01-01T01:01:46Z</time>
      </trkpt>
      <trkpt lat="63.60604530" lon="-19.4382915">
        <ele>869.59997</ele>
        <time>2010-01-01T01:01:47Z</time>
      </trkpt>
      <trkpt lat="63.60601420" lon="-19.4382871">
        <ele>869.40002</ele>
        <time>2010-01-01T01:01:48Z</time>
      </trkpt>
      <trkpt lat="63.60598720" lon="-19.4382845">
        <ele>869.40002</ele>
        <time>2010-01-01T01:01:49Z</time>
      </trkpt>
      <trkpt lat="63.60590320" lon="-19.4382440">
        <ele>869.20001</ele>
        <time>2010-01-01T01:01:53Z</time>
      </trkpt>
      <trkpt lat="63.60587850" lon="-19.4382328">
        <ele>868.79998</ele>
        <time>2010-01-01T01:01:54Z</time>
      </trkpt>
      <trkpt lat="63.60585930" lon="-19.4382140">
        <ele>868.40002</ele>
        <time>2010-01-01T01:01:55Z</time>
      </trkpt>
      <trkpt lat="63.60582860" lon="-19.4381869">
        <ele>868.00000</ele>
        <time>2010-01-01T01:01:56Z</time>
      </trkpt>
      <trkpt lat="63.60581040" lon="-19.4381589">
        <ele>867.59997</ele>
        <time>2010-01-01T01:01:57Z</time>
      </trkpt>
      <trkpt lat="63.60579530" lon="-19.4381290">
        <ele>867.40002</ele>
        <time>2010-01-01T01:01:58Z</time>
      </trkpt>
      <trkpt lat="63.60570140" lon="-19.4380480">
        <ele>867.20001</ele>
        <time>2010-01-01T01:02:02Z</time>
      </trkpt>
      <trkpt lat="63.60567310" lon="-19.4380325">
        <ele>866.79998</ele>
        <time>2010-01-01T01:02:03Z</time>
      </trkpt>
      <trkpt lat="63.60564890" lon="-19.4380053">
        <ele>866.40002</ele>
        <time>2010-01-01T01:02:04Z</time>
      </trkpt>
      <trkpt lat="63.60563170" lon="-19.4379952">
        <ele>866.00000</ele>
        <time>2010-01-01T01:02:05Z</time>
      </trkpt>
      <trkpt lat="63.60561000" lon="-19.4379731">
        <ele>865.59997</ele>
        <time>2010-01-01T01:02:06Z</time>
      </trkpt>
      <trkpt lat="63.60559260" lon="-19.4379280">
        <ele>865.20001</ele>
        <time>2010-01-01T01:02:07Z</time>
      </trkpt>
      <trkpt lat="63.60557140" lon="-19.4379055">
        <ele>865.20001</ele>
        <time>2010-01-01T01:02:08Z</time>
      </trkpt>
      <trkpt lat="63.60553170" lon="-19.4378631">
        <ele>865.20001</ele>
        <time>2010-01-01T01:02:09Z</time>
      </trkpt>
      <trkpt lat="63.60552190" lon="-19.4378346">
        <ele>865.20001</ele>
        <time>2010-01-01T01:02:10Z</time>
      </trkpt>
      <trkpt lat="63.60551540" lon="-19.4378094">
        <ele>865.20001</ele>
        <time>2010-01-01T01:02:11Z</time>
      </trkpt>
      <trkpt lat="63.60546210" lon="-19.4376822">
        <ele>865.40002</ele>
        <time>2010-01-01T01:02:14Z</time>
      </trkpt>
      <trkpt lat="63.60542130" lon="-19.4376492">
        <ele>865.40002</ele>
        <time>2010-01-01T01:02:15Z</time>
      </trkpt>
      <trkpt lat="63.60537920" lon="-19.4376168">
        <ele>865.20001</ele>
        <time>2010-01-01T01:02:17Z</time>
      </trkpt>
      <trkpt lat="63.60535470" lon="-19.4375794">
        <ele>865.20001</ele>
        <time>2010-01-01T01:02:18Z</time>
      </trkpt>
      <trkpt lat="63.60533480" lon="-19.4375560">
        <ele>864.59997</ele>
        <time>2010-01-01T01:02:19Z</time>
      </trkpt>
      <trkpt lat="63.60530820" lon="-19.4375251">
        <ele>864.20001</ele>
        <time>2010-01-01T01:02:21Z</time>
      </trkpt>
      <trkpt lat="63.60528680" lon="-19.4374969">
        <ele>864.20001</ele>
        <time>2010-01-01T01:02:22Z</time>
      </trkpt>
      <trkpt lat="63.60526360" lon="-19.4374680">
        <ele>863.59997</ele>
        <time>2010-01-01T01:02:23Z</time>
      </trkpt>
      <trkpt lat="63.60524320" lon="-19.4374554">
        <ele>862.79998</ele>
        <time>2010-01-01T01:02:23Z</time>
      </trkpt>
      <trkpt lat="63.60522360" lon="-19.4374258">
        <ele>862.40002</ele>
        <time>2010-01-01T01:02:24Z</time>
      </trkpt>
      <trkpt lat="63.60520620" lon="-19.4373920">
        <ele>862.20001</ele>
        <time>2010-01-01T01:02:25Z</time>
      </trkpt>
      <trkpt lat="63.60518280" lon="-19.4373733">
        <ele>861.79998</ele>
        <time>2010-01-01T01:02:26Z</time>
      </trkpt>
      <trkpt lat="63.60515880" lon="-19.4373561">
        <ele>861.40002</ele>
        <time>2010-01-01T01:02:27Z</time>
      </trkpt>
      <trkpt lat="63.60512840" lon="-19.4373312">
        <ele>861.00000</ele>
        <time>2010-01-01T01:02:29Z</time>
      </trkpt>
      <trkpt lat="63.60510070" lon="-19.4373032">
        <ele>861.00000</ele>
        <time>2010-01-01T01:02:30Z</time>
      </trkpt>
      <trkpt lat="63.60507710" lon="-19.4372840">
        <ele>860.79998</ele>
        <time>2010-01-01T01:02:31Z</time>
      </trkpt>
      <trkpt lat="63.60505800" lon="-19.4372703">
        <ele>860.59997</ele>
        <time>2010-01-01T01:02:32Z</time>
      </trkpt>
      <trkpt lat="63.60503670" lon="-19.4372493">
        <ele>860.20001</ele>
        <time>2010-01-01T01:02:33Z</time>
      </trkpt>
      <trkpt lat="63.60501140" lon="-19.4372248">
        <ele>860.00000</ele>
        <time>2010-01-01T01:02:34Z</time>
      </trkpt>
      <trkpt lat="63.60499030" lon="-19.4372052">
        <ele>859.59997</ele>
        <time>2010-01-01T01:02:35Z</time>
      </trkpt>
      <trkpt lat="63.60497330" lon="-19.4371918">
        <ele>859.20001</ele>
        <time>2010-01-01T01:02:35Z</time>
      </trkpt>
      <trkpt lat="63.60494730" lon="-19.4371695">
        <ele>859.00000</ele>
        <time>2010-01-01T01:02:36Z</time>
      </trkpt>
      <trkpt lat="63.60489780" lon="-19.4371263">
        <ele>859.00000</ele>
        <time>2010-01-01T01:02:39Z</time>
      </trkpt>
      <trkpt lat="63.60487820" lon="-19.4371132">
        <ele>859.00000</ele>
        <time>2010-01-01T01:02:39Z</time>
      </trkpt>
      <trkpt lat="63.60481100" lon="-19.4370406">
        <ele>858.59997</ele>
        <time>2010-01-01T01:02:42Z</time>
      </trkpt>
      <trkpt lat="63.60478760" lon="-19.4370246">
        <ele>858.20001</ele>
        <time>2010-01-01T01:02:43Z</time>
      </trkpt>
      <trkpt lat="63.60476230" lon="-19.4370093">
        <ele>857.79998</ele>
        <time>2010-01-01T01:02:44Z</time>
      </trkpt>
      <trkpt lat="63.60474070" lon="-19.4369905">
        <ele>857.40002</ele>
        <time>2010-01-01T01:02:45Z</time>
      </trkpt>
      <trkpt lat="63.60471570" lon="-19.4369885">
        <ele>857.00000</ele>
        <time>2010-01-01T01:02:46Z</time>
      </trkpt>
      <trkpt lat="63.60466780" lon="-19.4369504">
        <ele>856.79998</ele>
        <time>2010-01-01T01:02:48Z</time>
      </trkpt>
      <trkpt lat="63.60463930" lon="-19.4369334">
        <ele>857.00000</ele>
        <time>2010-01-01T01:02:50Z</time>
      </trkpt>
      <trkpt lat="63.60461580" lon="-19.4369203">
        <ele>856.79998</ele>
        <time>2010-01-01T01:02:50Z</time>
      </trkpt>
      <trkpt lat="63.60459440" lon="-19.4369168">
        <ele>857.00000</ele>
        <time>2010-01-01T01:02:51Z</time>
      </trkpt>
      <trkpt lat="63.60456600" lon="-19.4369002">
        <ele>856.79998</ele>
        <time>2010-01-01T01:02:53Z</time>
      </trkpt>
      <trkpt lat="63.60453430" lon="-19.4368852">
        <ele>856.40002</ele>
        <time>2010-01-01T01:02:54Z</time>
      </trkpt>
      <trkpt lat="63.60451190" lon="-19.4368738">
        <ele>856.00000</ele>
        <time>2010-01-01T01:02:55Z</time>
      </trkpt>
      <trkpt lat="63.60448850" lon="-19.4368619">
        <ele>855.40002</ele>
        <time>2010-01-01T01:02:56Z</time>
      </trkpt>
      <trkpt lat="63.60446340" lon="-19.4368414">
        <ele>855.00000</ele>
        <time>2010-01-01T01:02:57Z</time>
      </trkpt>
      <trkpt lat="63.60443820" lon="-19.4368319">
        <ele>854.79998</ele>
        <time>2010-01-01T01:02:58Z</time>
      </trkpt>
      <trkpt lat="63.60441200" lon="-19.4368275">
        <ele>854.79998</ele>
        <time>2010-01-01T01:02:59Z</time>
      </trkpt>
      <trkpt lat="63.60439050" lon="-19.4368219">
        <ele>854.79998</ele>
        <time>2010-01-01T01:03:00Z</time>
      </trkpt>
      <trkpt lat="63.60436680" lon="-19.4368168">
        <ele>854.79998</ele>
        <time>2010-01-01T01:03:01Z</time>
      </trkpt>
      <trkpt lat="63.60433740" lon="-19.4368059">
        <ele>854.79998</ele>
        <time>2010-01-01T01:03:02Z</time>
      </trkpt>
      <trkpt lat="63.60431630" lon="-19.4367916">
        <ele>854.40002</ele>
        <time>2010-01-01T01:03:03Z</time>
      </trkpt>
      <trkpt lat="63.60430070" lon="-19.4367825">
        <ele>854.20001</ele>
        <time>2010-01-01T01:03:03Z</time>
      </trkpt>
      <trkpt lat="63.60427530" lon="-19.4367719">
        <ele>853.79998</ele>
        <time>2010-01-01T01:03:04Z</time>
      </trkpt>
      <trkpt lat="63.60425340" lon="-19.4367624">
        <ele>853.40002</ele>
        <time>2010-01-01T01:03:05Z</time>
      </trkpt>
      <trkpt lat="63.60422740" lon="-19.4367467">
        <ele>853.00000</ele>
        <time>2010-01-01T01:03:06Z</time>
      </trkpt>
      <trkpt lat="63.60420690" lon="-19.4367396">
        <ele>852.79998</ele>
        <time>2010-01-01T01:03:07Z</time>
      </trkpt>
      <trkpt lat="63.60418460" lon="-19.4367287">
        <ele>852.79998</ele>
        <time>2010-01-01T01:03:08Z</time>
      </trkpt>
      <trkpt lat="63.60416550" lon="-19.4367231">
        <ele>852.79998</ele>
        <time>2010-01-01T01:03:09Z</time>
      </trkpt>
      <trkpt lat="63.60414210" lon="-19.4367038">
        <ele>852.79998</ele>
        <time>2010-01-01T01:03:10Z</time>
      </trkpt>
      <trkpt lat="63.60411570" lon="-19.4366897">
        <ele>852.79998</ele>
        <time>2010-01-01T01:03:11Z</time>
      </trkpt>
      <trkpt lat="63.60409560" lon="-19.4366748">
        <ele>852.79998</ele>
        <time>2010-01-01T01:03:12Z</time>
      </trkpt>
      <trkpt lat="63.60405820" lon="-19.4366599">
        <ele>852.79998</ele>
        <time>2010-01-01T01:03:13Z</time>
      </trkpt>
      <trkpt lat="63.60403930" lon="-19.4366542">
        <ele>852.79998</ele>
        <time>2010-01-01T01:03:14Z</time>
      </trkpt>
      <trkpt lat="63.60401630" lon="-19.4366430">
        <ele>852.79998</ele>
        <time>2010-01-01T01:03:15Z</time>
      </trkpt>
      <trkpt lat="63.60399650" lon="-19.4366236">
        <ele>852.79998</ele>
        <time>2010-01-01T01:03:16Z</time>
      </trkpt>
      <trkpt lat="63.60397810" lon="-19.4366165">
        <ele>852.79998</ele>
        <time>2010-01-01T01:03:17Z</time>
      </trkpt>
      <trkpt lat="63.60395720" lon="-19.4366060">
        <ele>852.59997</ele>
        <time>2010-01-01T01:03:18Z</time>
      </trkpt>
      <trkpt lat="63.60393790" lon="-19.4365916">
        <ele>852.20001</ele>
        <time>2010-01-01T01:03:18Z</time>
      </trkpt>
      <trkpt lat="63.60391550" lon="-19.4365755">
        <ele>851.79998</ele>
        <time>2010-01-01T01:03:19Z</time>
      </trkpt>
      <trkpt lat="63.60389660" lon="-19.4365645">
        <ele>851.40002</ele>
        <time>2010-01-01T01:03:20Z</time>
      </trkpt>
      <trkpt lat="63.60387800" lon="-19.4365538">
        <ele>851.00000</ele>
        <time>2010-01-01T01:03:21Z</time>
      </trkpt>
      <trkpt lat="63.60385610" lon="-19.4365373">
        <ele>850.79998</ele>
        <time>2010-01-01T01:03:22Z</time>
      </trkpt>
      <trkpt lat="63.60376920" lon="-19.4364934">
        <ele>850.79998</ele>
        <time>2010-01-01T01:03:25Z</time>
      </trkpt>
      <trkpt lat="63.60372360" lon="-19.4364666">
        <ele>850.40002</ele>
        <time>2010-01-01T01:03:27Z</time>
      </trkpt>
      <trkpt lat="63.60369940" lon="-19.4364635">
        <ele>850.00000</ele>
        <time>2010-01-01T01:03:28Z</time>
      </trkpt>
      <trkpt lat="63.60367800" lon="-19.4364436">
        <ele>849.59997</ele>
        <time>2010-01-01T01:03:29Z</time>
      </trkpt>
      <trkpt lat="63.60365350" lon="-19.4364383">
        <ele>849.20001</ele>
        <time>2010-01-01T01:03:30Z</time>
      </trkpt>
      <trkpt lat="63.60362690" lon="-19.4364253">
        <ele>848.79998</ele>
        <time>2010-01-01T01:03:31Z</time>
      </trkpt>
      <trkpt lat="63.60351230" lon="-19.4363630">
        <ele>848.79998</ele>
        <time>2010-01-01T01:03:36Z</time>
      </trkpt>
      <trkpt lat="63.60349180" lon="-19.4363474">
        <ele>848.40002</ele>
        <time>2010-01-01T01:03:37Z</time>
      </trkpt>
      <trkpt lat="63.60346710" lon="-19.4363362">
        <ele>848.00000</ele>
        <time>2010-01-01T01:03:38Z</time>
      </trkpt>
      <trkpt lat="63.60344350" lon="-19.4363209">
        <ele>847.59997</ele>
        <time>2010-01-01T01:03:39Z</time>
      </trkpt>
      <trkpt lat="63.60341650" lon="-19.4363179">
        <ele>847.20001</ele>
        <time>2010-01-01T01:03:40Z</time>
      </trkpt>
      <trkpt lat="63.60339980" lon="-19.4363029">
        <ele>846.79998</ele>
        <time>2010-01-01T01:03:41Z</time>
      </trkpt>
      <trkpt lat="63.60338260" lon="-19.4362883">
        <ele>846.79998</ele>
        <time>2010-01-01T01:03:41Z</time>
      </trkpt>
      <trkpt lat="63.60335870" lon="-19.4362674">
        <ele>846.79998</ele>
        <time>2010-01-01T01:03:42Z</time>
      </trkpt>
      <trkpt lat="63.60329840" lon="-19.4362259">
        <ele>846.79998</ele>
        <time>2010-01-01T01:03:45Z</time>
      </trkpt>
      <trkpt lat="63.60327830" lon="-19.4362093">
        <ele>846.79998</ele>
        <time>2010-01-01T01:03:46Z</time>
      </trkpt>
      <trkpt lat="63.60326000" lon="-19.4362008">
        <ele>846.79998</ele>
        <time>2010-01-01T01:03:46Z</time>
      </trkpt>
      <trkpt lat="63.60324040" lon="-19.4361927">
        <ele>846.79998</ele>
        <time>2010-01-01T01:03:47Z</time>
      </trkpt>
      <trkpt lat="63.60321970" lon="-19.4361864">
        <ele>846.79998</ele>
        <time>2010-01-01T01:03:48Z</time>
      </trkpt>
      <trkpt lat="63.60319680" lon="-19.4361737">
        <ele>846.79998</ele>
        <time>2010-01-01T01:03:49Z</time>
      </trkpt>
      <trkpt lat="63.60317820" lon="-19.4361494">
        <ele>846.79998</ele>
        <time>2010-01-01T01:03:50Z</time>
      </trkpt>
      <trkpt lat="63.60315740" lon="-19.4361347">
        <ele>846.79998</ele>
        <time>2010-01-01T01:03:51Z</time>
      </trkpt>
      <trkpt lat="63.60314050" lon="-19.4361296">
        <ele>846.79998</ele>
        <time>2010-01-01T01:03:51Z</time>
      </trkpt>
      <trkpt lat="63.60311930" lon="-19.4361171">
        <ele>846.79998</ele>
        <time>2010-01-01T01:03:52Z</time>
      </trkpt>
      <trkpt lat="63.60308890" lon="-19.4361137">
        <ele>846.79998</ele>
        <time>2010-01-01T01:03:54Z</time>
      </trkpt>
      <trkpt lat="63.60307030" lon="-19.4361163">
        <ele>846.79998</ele>
        <time>2010-01-01T01:03:54Z</time>
      </trkpt>
      <trkpt lat="63.60304700" lon="-19.4361159">
        <ele>846.79998</ele>
        <time>2010-01-01T01:03:55Z</time>
      </trkpt>
      <trkpt lat="63.60301100" lon="-19.4361170">
        <ele>846.79998</ele>
        <time>2010-01-01T01:03:57Z</time>
      </trkpt>
      <trkpt lat="63.60295170" lon="-19.4360786">
        <ele>846.79998</ele>
        <time>2010-01-01T01:03:59Z</time>
      </trkpt>
      <trkpt lat="63.60289920" lon="-19.4360333">
        <ele>846.79998</ele>
        <time>2010-01-01T01:04:01Z</time>
      </trkpt>
      <trkpt lat="63.60278690" lon="-19.4359456">
        <ele>846.79998</ele>
        <time>2010-01-01T01:04:06Z</time>
      </trkpt>
      <trkpt lat="63.60276540" lon="-19.4359377">
        <ele>846.59997</ele>
        <time>2010-01-01T01:04:07Z</time>
      </trkpt>
      <trkpt lat="63.60274370" lon="-19.4359298">
        <ele>846.20001</ele>
        <time>2010-01-01T01:04:08Z</time>
      </trkpt>
      <trkpt lat="63.60272180" lon="-19.4359179">
        <ele>845.79998</ele>
        <time>2010-01-01T01:04:09Z</time>
      </trkpt>
      <trkpt lat="63.60269700" lon="-19.4358944">
        <ele>845.40002</ele>
        <time>2010-01-01T01:04:10Z</time>
      </trkpt>
      <trkpt lat="63.60267070" lon="-19.4358833">
        <ele>845.00000</ele>
        <time>2010-01-01T01:04:11Z</time>
      </trkpt>
      <trkpt lat="63.60264740" lon="-19.4358801">
        <ele>844.79998</ele>
        <time>2010-01-01T01:04:12Z</time>
      </trkpt>
      <trkpt lat="63.60261870" lon="-19.4358782">
        <ele>844.79998</ele>
        <time>2010-01-01T01:04:13Z</time>
      </trkpt>
      <trkpt lat="63.60259210" lon="-19.4358811">
        <ele>844.79998</ele>
        <time>2010-01-01T01:04:14Z</time>
      </trkpt>
      <trkpt lat="63.60256740" lon="-19.4358849">
        <ele>844.79998</ele>
        <time>2010-01-01T01:04:15Z</time>
      </trkpt>
      <trkpt lat="63.60253770" lon="-19.4358802">
        <ele>844.79998</ele>
        <time>2010-01-01T01:04:16Z</time>
      </trkpt>
      <trkpt lat="63.60251140" lon="-19.4358794">
        <ele>844.79998</ele>
        <time>2010-01-01T01:04:17Z</time>
      </trkpt>
      <trkpt lat="63.60249280" lon="-19.4358491">
        <ele>844.79998</ele>
        <time>2010-01-01T01:04:18Z</time>
      </trkpt>
      <trkpt lat="63.60247420" lon="-19.4358018">
        <ele>844.79998</ele>
        <time>2010-01-01T01:04:19Z</time>
      </trkpt>
      <trkpt lat="63.60246020" lon="-19.4357628">
        <ele>844.79998</ele>
        <time>2010-01-01T01:04:20Z</time>
      </trkpt>
      <trkpt lat="63.60243940" lon="-19.4357046">
        <ele>844.79998</ele>
        <time>2010-01-01T01:04:22Z</time>
      </trkpt>
      <trkpt lat="63.60242290" lon="-19.4356577">
        <ele>844.79998</ele>
        <time>2010-01-01T01:04:23Z</time>
      </trkpt>
      <trkpt lat="63.60240770" lon="-19.4356277">
        <ele>844.79998</ele>
        <time>2010-01-01T01:04:23Z</time>
      </trkpt>
      <trkpt lat="63.60238630" lon="-19.4356024">
        <ele>844.79998</ele>
        <time>2010-01-01T01:04:24Z</time>
      </trkpt>
      <trkpt lat="63.60236540" lon="-19.4355824">
        <ele>844.59997</ele>
        <time>2010-01-01T01:04:25Z</time>
      </trkpt>
      <trkpt lat="63.60234260" lon="-19.4355673">
        <ele>844.79998</ele>
        <time>2010-01-01T01:04:26Z</time>
      </trkpt>
      <trkpt lat="63.60231880" lon="-19.4355512">
        <ele>844.79998</ele>
        <time>2010-01-01T01:04:27Z</time>
      </trkpt>
      <trkpt lat="63.60230060" lon="-19.4355368">
        <ele>844.79998</ele>
        <time>2010-01-01T01:04:28Z</time>
      </trkpt>
      <trkpt lat="63.60227450" lon="-19.4355177">
        <ele>844.79998</ele>
        <time>2010-01-01T01:04:29Z</time>
      </trkpt>
      <trkpt lat="63.60225280" lon="-19.4355048">
        <ele>844.79998</ele>
        <time>2010-01-01T01:04:30Z</time>
      </trkpt>
      <trkpt lat="63.60223440" lon="-19.4355024">
        <ele>844.79998</ele>
        <time>2010-01-01T01:04:31Z</time>
      </trkpt>
      <trkpt lat="63.60221270" lon="-19.4355069">
        <ele>844.79998</ele>
        <time>2010-01-01T01:04:32Z</time>
      </trkpt>
      <trkpt lat="63.60218780" lon="-19.4355073">
        <ele>844.79998</ele>
        <time>2010-01-01T01:04:33Z</time>
      </trkpt>
      <trkpt lat="63.60216910" lon="-19.4355021">
        <ele>844.79998</ele>
        <time>2010-01-01T01:04:33Z</time>
      </trkpt>
      <trkpt lat="63.60214670" lon="-19.4354958">
        <ele>844.79998</ele>
        <time>2010-01-01T01:04:34Z</time>
      </trkpt>
      <trkpt lat="63.60212140" lon="-19.4354808">
        <ele>844.79998</ele>
        <time>2010-01-01T01:04:35Z</time>
      </trkpt>
      <trkpt lat="63.60210090" lon="-19.4354793">
        <ele>844.79998</ele>
        <time>2010-01-01T01:04:36Z</time>
      </trkpt>
      <trkpt lat="63.60208150" lon="-19.4354789">
        <ele>844.79998</ele>
        <time>2010-01-01T01:04:37Z</time>
      </trkpt>
      <trkpt lat="63.60206200" lon="-19.4354644">
        <ele>844.79998</ele>
        <time>2010-01-01T01:04:38Z</time>
      </trkpt>
      <trkpt lat="63.60204690" lon="-19.4354507">
        <ele>844.79998</ele>
        <time>2010-01-01T01:04:38Z</time>
      </trkpt>
      <trkpt lat="63.60203250" lon="-19.4354388">
        <ele>844.79998</ele>
        <time>2010-01-01T01:04:39Z</time>
      </trkpt>
      <trkpt lat="63.60201520" lon="-19.4354192">
        <ele>844.79998</ele>
        <time>2010-01-01T01:04:40Z</time>
      </trkpt>
      <trkpt lat="63.60200650" lon="-19.4354126">
        <ele>844.79998</ele>
        <time>2010-01-01T01:04:40Z</time>
      </trkpt>
      <trkpt lat="63.60197690" lon="-19.4353884">
        <ele>844.79998</ele>
        <time>2010-01-01T01:04:41Z</time>
      </trkpt>
      <trkpt lat="63.60196530" lon="-19.4353816">
        <ele>845.20001</ele>
        <time>2010-01-01T01:04:42Z</time>
      </trkpt>
      <trkpt lat="63.60195530" lon="-19.4353803">
        <ele>845.59997</ele>
        <time>2010-01-01T01:04:42Z</time>
      </trkpt>
      <trkpt lat="63.60194430" lon="-19.4353681">
        <ele>846.00000</ele>
        <time>2010-01-01T01:04:43Z</time>
      </trkpt>
      <trkpt lat="63.60193800" lon="-19.4353679">
        <ele>846.40002</ele>
        <time>2010-01-01T01:04:43Z</time>
      </trkpt>
      <trkpt lat="63.60193020" lon="-19.4353684">
        <ele>846.79998</ele>
        <time>2010-01-01T01:04:43Z</time>
      </trkpt>
      <trkpt lat="63.60187090" lon="-19.4353212">
        <ele>847.00000</ele>
        <time>2010-01-01T01:04:46Z</time>
      </trkpt>
      <trkpt lat="63.60186200" lon="-19.4353161">
        <ele>847.40002</ele>
        <time>2010-01-01T01:04:46Z</time>
      </trkpt>
      <trkpt lat="63.60185360" lon="-19.4353067">
        <ele>847.79998</ele>
        <time>2010-01-01T01:04:47Z</time>
      </trkpt>
      <trkpt lat="63.60184580" lon="-19.4353071">
        <ele>848.20001</ele>
        <time>2010-01-01T01:04:47Z</time>
      </trkpt>
      <trkpt lat="63.60183840" lon="-19.4353099">
        <ele>848.59997</ele>
        <time>2010-01-01T01:04:47Z</time>
      </trkpt>
      <trkpt lat="63.60182840" lon="-19.4352986">
        <ele>848.79998</ele>
        <time>2010-01-01T01:04:48Z</time>
      </trkpt>
      <trkpt lat="63.60180900" lon="-19.4352845">
        <ele>848.79998</ele>
        <time>2010-01-01T01:04:49Z</time>
      </trkpt>
      <trkpt lat="63.60177850" lon="-19.4352575">
        <ele>849.20001</ele>
        <time>2010-01-01T01:04:50Z</time>
      </trkpt>
      <trkpt lat="63.60176820" lon="-19.4352403">
        <ele>849.59997</ele>
        <time>2010-01-01T01:04:50Z</time>
      </trkpt>
      <trkpt lat="63.60175720" lon="-19.4352316">
        <ele>850.00000</ele>
        <time>2010-01-01T01:04:51Z</time>
      </trkpt>
      <trkpt lat="63.60174800" lon="-19.4352205">
        <ele>850.20001</ele>
        <time>2010-01-01T01:04:51Z</time>
      </trkpt>
      <trkpt lat="63.60173690" lon="-19.4352063">
        <ele>850.59997</ele>
        <time>2010-01-01T01:04:52Z</time>
      </trkpt>
      <trkpt lat="63.60173130" lon="-19.4351954">
        <ele>850.79998</ele>
        <time>2010-01-01T01:04:52Z</time>
      </trkpt>
      <trkpt lat="63.60167700" lon="-19.4351235">
        <ele>850.79998</ele>
        <time>2010-01-01T01:04:55Z</time>
      </trkpt>
      <trkpt lat="63.60163680" lon="-19.4350811">
        <ele>850.79998</ele>
        <time>2010-01-01T01:04:56Z</time>
      </trkpt>
      <trkpt lat="63.60161420" lon="-19.4350448">
        <ele>850.79998</ele>
        <time>2010-01-01T01:04:57Z</time>
      </trkpt>
      <trkpt lat="63.60158150" lon="-19.4350230">
        <ele>850.79998</ele>
        <time>2010-01-01T01:04:59Z</time>
      </trkpt>
      <trkpt lat="63.60153670" lon="-19.4350400">
        <ele>850.79998</ele>
        <time>2010-01-01T01:05:01Z</time>
      </trkpt>
      <trkpt lat="63.60146610" lon="-19.4350970">
        <ele>850.79998</ele>
        <time>2010-01-01T01:05:04Z</time>
      </trkpt>
      <trkpt lat="63.60143940" lon="-19.4351131">
        <ele>850.79998</ele>
        <time>2010-01-01T01:05:05Z</time>
      </trkpt>
      <trkpt lat="63.60138970" lon="-19.4351375">
        <ele>850.79998</ele>
        <time>2010-01-01T01:05:07Z</time>
      </trkpt>
      <trkpt lat="63.60126200" lon="-19.4352053">
        <ele>850.79998</ele>
        <time>2010-01-01T01:05:12Z</time>
      </trkpt>
      <trkpt lat="63.60117600" lon="-19.4352750">
        <ele>850.59997</ele>
        <time>2010-01-01T01:05:16Z</time>
      </trkpt>
      <trkpt lat="63.60114410" lon="-19.4353079">
        <ele>850.20001</ele>
        <time>2010-01-01T01:05:17Z</time>
      </trkpt>
      <trkpt lat="63.60111750" lon="-19.4353430">
        <ele>849.79998</ele>
        <time>2010-01-01T01:05:18Z</time>
      </trkpt>
      <trkpt lat="63.60108760" lon="-19.4353620">
        <ele>849.40002</ele>
        <time>2010-01-01T01:05:20Z</time>
      </trkpt>
      <trkpt lat="63.60106160" lon="-19.4353880">
        <ele>848.79998</ele>
        <time>2010-01-01T01:05:21Z</time>
      </trkpt>
      <trkpt lat="63.60103960" lon="-19.4353932">
        <ele>848.40002</ele>
        <time>2010-01-01T01:05:22Z</time>
      </trkpt>
      <trkpt lat="63.60100210" lon="-19.4354068">
        <ele>847.79998</ele>
        <time>2010-01-01T01:05:23Z</time>
      </trkpt>
      <trkpt lat="63.60097770" lon="-19.4354186">
        <ele>847.00000</ele>
        <time>2010-01-01T01:05:24Z</time>
      </trkpt>
      <trkpt lat="63.60094600" lon="-19.4354248">
        <ele>846.40002</ele>
        <time>2010-01-01T01:05:25Z</time>
      </trkpt>
      <trkpt lat="63.60092040" lon="-19.4354329">
        <ele>845.59997</ele>
        <time>2010-01-01T01:05:26Z</time>
      </trkpt>
      <trkpt lat="63.60088600" lon="-19.4354618">
        <ele>844.40002</ele>
        <time>2010-01-01T01:05:28Z</time>
      </trkpt>
      <trkpt lat="63.60086080" lon="-19.4354722">
        <ele>844.59997</ele>
        <time>2010-01-01T01:05:29Z</time>
      </trkpt>
      <trkpt lat="63.60083250" lon="-19.4354777">
        <ele>844.00000</ele>
        <time>2010-01-01T01:05:30Z</time>
      </trkpt>
      <trkpt lat="63.60080360" lon="-19.4354786">
        <ele>843.40002</ele>
        <time>2010-01-01T01:05:31Z</time>
      </trkpt>
      <trkpt lat="63.60076630" lon="-19.4354721">
        <ele>842.79998</ele>
        <time>2010-01-01T01:05:33Z</time>
      </trkpt>
      <trkpt lat="63.60073700" lon="-19.4354718">
        <ele>842.00000</ele>
        <time>2010-01-01T01:05:34Z</time>
      </trkpt>
      <trkpt lat="63.60070740" lon="-19.4354644">
        <ele>840.79998</ele>
        <time>2010-01-01T01:05:35Z</time>
      </trkpt>
      <trkpt lat="63.60068150" lon="-19.4354796">
        <ele>840.59997</ele>
        <time>2010-01-01T01:05:36Z</time>
      </trkpt>
      <trkpt lat="63.60064900" lon="-19.4354783">
        <ele>840.00000</ele>
        <time>2010-01-01T01:05:37Z</time>
      </trkpt>
      <trkpt lat="63.60061970" lon="-19.4354913">
        <ele>839.20001</ele>
        <time>2010-01-01T01:05:39Z</time>
      </trkpt>
      <trkpt lat="63.60058190" lon="-19.4355008">
        <ele>838.79998</ele>
        <time>2010-01-01T01:05:40Z</time>
      </trkpt>
      <trkpt lat="63.60054660" lon="-19.4355099">
        <ele>838.20001</ele>
        <time>2010-01-01T01:05:42Z</time>
      </trkpt>
      <trkpt lat="63.60051760" lon="-19.4355087">
        <ele>837.59997</ele>
        <time>2010-01-01T01:05:43Z</time>
      </trkpt>
      <trkpt lat="63.60048990" lon="-19.4355125">
        <ele>836.79998</ele>
        <time>2010-01-01T01:05:44Z</time>
      </trkpt>
      <trkpt lat="63.60046310" lon="-19.4355062">
        <ele>836.20001</ele>
        <time>2010-01-01T01:05:45Z</time>
      </trkpt>
      <trkpt lat="63.60043850" lon="-19.4354999">
        <ele>836.00000</ele>
        <time>2010-01-01T01:05:46Z</time>
      </trkpt>
      <trkpt lat="63.60041110" lon="-19.4354969">
        <ele>835.00000</ele>
        <time>2010-01-01T01:05:47Z</time>
      </trkpt>
      <trkpt lat="63.60036610" lon="-19.4355199">
        <ele>834.40002</ele>
        <time>2010-01-01T01:05:49Z</time>
      </trkpt>
      <trkpt lat="63.60034510" lon="-19.4355249">
        <ele>833.79998</ele>
        <time>2010-01-01T01:05:50Z</time>
      </trkpt>
      <trkpt lat="63.60031420" lon="-19.4355451">
        <ele>833.00000</ele>
        <time>2010-01-01T01:05:51Z</time>
      </trkpt>
      <trkpt lat="63.60028590" lon="-19.4355511">
        <ele>832.40002</ele>
        <time>2010-01-01T01:05:52Z</time>
      </trkpt>
      <trkpt lat="63.60026060" lon="-19.4355557">
        <ele>832.00000</ele>
        <time>2010-01-01T01:05:53Z</time>
      </trkpt>
      <trkpt lat="63.60023080" lon="-19.4355535">
        <ele>831.40002</ele>
        <time>2010-01-01T01:05:54Z</time>
      </trkpt>
      <trkpt lat="63.60020160" lon="-19.4355521">
        <ele>830.79998</ele>
        <time>2010-01-01T01:05:56Z</time>
      </trkpt>
      <trkpt lat="63.60017980" lon="-19.4355555">
        <ele>830.20001</ele>
        <time>2010-01-01T01:05:56Z</time>
      </trkpt>
      <trkpt lat="63.60015710" lon="-19.4355679">
        <ele>829.59997</ele>
        <time>2010-01-01T01:05:57Z</time>
      </trkpt>
      <trkpt lat="63.60008040" lon="-19.4355932">
        <ele>829.59997</ele>
        <time>2010-01-01T01:06:00Z</time>
      </trkpt>
      <trkpt lat="63.59996360" lon="-19.4355394">
        <ele>829.20001</ele>
        <time>2010-01-01T01:06:05Z</time>
      </trkpt>
      <trkpt lat="63.59995030" lon="-19.4355287">
        <ele>828.79998</ele>
        <time>2010-01-01T01:06:06Z</time>
      </trkpt>
      <trkpt lat="63.59992810" lon="-19.4354985">
        <ele>828.40002</ele>
        <time>2010-01-01T01:06:07Z</time>
      </trkpt>
      <trkpt lat="63.59990280" lon="-19.4354470">
        <ele>828.00000</ele>
        <time>2010-01-01T01:06:08Z</time>
      </trkpt>
      <trkpt lat="63.59988480" lon="-19.4354137">
        <ele>827.59997</ele>
        <time>2010-01-01T01:06:09Z</time>
      </trkpt>
      <trkpt lat="63.59986650" lon="-19.4353484">
        <ele>827.59997</ele>
        <time>2010-01-01T01:06:11Z</time>
      </trkpt>
      <trkpt lat="63.59978140" lon="-19.4351638">
        <ele>827.40002</ele>
        <time>2010-01-01T01:06:15Z</time>
      </trkpt>
      <trkpt lat="63.59975960" lon="-19.4351150">
        <ele>827.20001</ele>
        <time>2010-01-01T01:06:16Z</time>
      </trkpt>
      <trkpt lat="63.59973580" lon="-19.4350783">
        <ele>826.79998</ele>
        <time>2010-01-01T01:06:18Z</time>
      </trkpt>
      <trkpt lat="63.59970650" lon="-19.4350428">
        <ele>826.40002</ele>
        <time>2010-01-01T01:06:19Z</time>
      </trkpt>
      <trkpt lat="63.59968050" lon="-19.4350078">
        <ele>826.00000</ele>
        <time>2010-01-01T01:06:20Z</time>
      </trkpt>
      <trkpt lat="63.59965260" lon="-19.4349652">
        <ele>825.40002</ele>
        <time>2010-01-01T01:06:22Z</time>
      </trkpt>
      <trkpt lat="63.59962440" lon="-19.4349087">
        <ele>824.79998</ele>
        <time>2010-01-01T01:06:23Z</time>
      </trkpt>
      <trkpt lat="63.59959650" lon="-19.4348902">
        <ele>824.40002</ele>
        <time>2010-01-01T01:06:24Z</time>
      </trkpt>
      <trkpt lat="63.59956210" lon="-19.4348533">
        <ele>823.79998</ele>
        <time>2010-01-01T01:06:26Z</time>
      </trkpt>
      <trkpt lat="63.59953550" lon="-19.4348419">
        <ele>823.20001</ele>
        <time>2010-01-01T01:06:27Z</time>
      </trkpt>
      <trkpt lat="63.59950780" lon="-19.4348137">
        <ele>823.20001</ele>
        <time>2010-01-01T01:06:28Z</time>
      </trkpt>
      <trkpt lat="63.59948420" lon="-19.4347965">
        <ele>823.00000</ele>
        <time>2010-01-01T01:06:29Z</time>
      </trkpt>
      <trkpt lat="63.59945040" lon="-19.4347597">
        <ele>822.79998</ele>
        <time>2010-01-01T01:06:31Z</time>
      </trkpt>
      <trkpt lat="63.59942180" lon="-19.4347436">
        <ele>822.59997</ele>
        <time>2010-01-01T01:06:32Z</time>
      </trkpt>
      <trkpt lat="63.59939040" lon="-19.4347220">
        <ele>822.00000</ele>
        <time>2010-01-01T01:06:33Z</time>
      </trkpt>
      <trkpt lat="63.59936560" lon="-19.4346987">
        <ele>821.79998</ele>
        <time>2010-01-01T01:06:34Z</time>
      </trkpt>
      <trkpt lat="63.59933990" lon="-19.4346759">
        <ele>821.40002</ele>
        <time>2010-01-01T01:06:35Z</time>
      </trkpt>
      <trkpt lat="63.59930460" lon="-19.4346569">
        <ele>821.00000</ele>
        <time>2010-01-01T01:06:37Z</time>
      </trkpt>
      <trkpt lat="63.59927480" lon="-19.4346489">
        <ele>820.79998</ele>
        <time>2010-01-01T01:06:38Z</time>
      </trkpt>
      <trkpt lat="63.59924450" lon="-19.4346352">
        <ele>820.59997</ele>
        <time>2010-01-01T01:06:39Z</time>
      </trkpt>
      <trkpt lat="63.59921400" lon="-19.4346294">
        <ele>820.40002</ele>
        <time>2010-01-01T01:06:40Z</time>
      </trkpt>
      <trkpt lat="63.59917240" lon="-19.4346337">
        <ele>820.00000</ele>
        <time>2010-01-01T01:06:42Z</time>
      </trkpt>
      <trkpt lat="63.59913900" lon="-19.4346293">
        <ele>819.79998</ele>
        <time>2010-01-01T01:06:43Z</time>
      </trkpt>
      <trkpt lat="63.59911070" lon="-19.4346255">
        <ele>819.40002</ele>
        <time>2010-01-01T01:06:44Z</time>
      </trkpt>
      <trkpt lat="63.59908040" lon="-19.4346265">
        <ele>819.00000</ele>
        <time>2010-01-01T01:06:46Z</time>
      </trkpt>
      <trkpt lat="63.59905710" lon="-19.4346357">
        <ele>818.59997</ele>
        <time>2010-01-01T01:06:47Z</time>
      </trkpt>
      <trkpt lat="63.59902110" lon="-19.4346426">
        <ele>818.20001</ele>
        <time>2010-01-01T01:06:48Z</time>
      </trkpt>
      <trkpt lat="63.59899000" lon="-19.4346613">
        <ele>817.79998</ele>
        <time>2010-01-01T01:06:49Z</time>
      </trkpt>
      <trkpt lat="63.59896280" lon="-19.4346726">
        <ele>817.59997</ele>
        <time>2010-01-01T01:06:50Z</time>
      </trkpt>
      <trkpt lat="63.59893870" lon="-19.4346841">
        <ele>817.20001</ele>
        <time>2010-01-01T01:06:51Z</time>
      </trkpt>
      <trkpt lat="63.59891530" lon="-19.4346945">
        <ele>816.79998</ele>
        <time>2010-01-01T01:06:52Z</time>
      </trkpt>
      <trkpt lat="63.59889200" lon="-19.4347096">
        <ele>816.79998</ele>
        <time>2010-01-01T01:06:53Z</time>
      </trkpt>
      <trkpt lat="63.59886490" lon="-19.4347128">
        <ele>816.40002</ele>
        <time>2010-01-01T01:06:54Z</time>
      </trkpt>
      <trkpt lat="63.59883250" lon="-19.4347253">
        <ele>816.00000</ele>
        <time>2010-01-01T01:06:56Z</time>
      </trkpt>
      <trkpt lat="63.59880690" lon="-19.4347302">
        <ele>815.59997</ele>
        <time>2010-01-01T01:06:57Z</time>
      </trkpt>
      <trkpt lat="63.59877350" lon="-19.4347157">
        <ele>815.20001</ele>
        <time>2010-01-01T01:06:58Z</time>
      </trkpt>
      <trkpt lat="63.59874360" lon="-19.4347125">
        <ele>814.59997</ele>
        <time>2010-01-01T01:06:59Z</time>
      </trkpt>
      <trkpt lat="63.59871940" lon="-19.4347042">
        <ele>814.79998</ele>
        <time>2010-01-01T01:07:00Z</time>
      </trkpt>
      <trkpt lat="63.59860050" lon="-19.4346642">
        <ele>814.79998</ele>
        <time>2010-01-01T01:07:05Z</time>
      </trkpt>
      <trkpt lat="63.59858470" lon="-19.4346474">
        <ele>814.40002</ele>
        <time>2010-01-01T01:07:06Z</time>
      </trkpt>
      <trkpt lat="63.59857530" lon="-19.4346399">
        <ele>814.00000</ele>
        <time>2010-01-01T01:07:06Z</time>
      </trkpt>
      <trkpt lat="63.59856410" lon="-19.4346242">
        <ele>813.59997</ele>
        <time>2010-01-01T01:07:07Z</time>
      </trkpt>
      <trkpt lat="63.59854890" lon="-19.4346110">
        <ele>813.20001</ele>
        <time>2010-01-01T01:07:07Z</time>
      </trkpt>
      <trkpt lat="63.59852500" lon="-19.4346032">
        <ele>812.79998</ele>
        <time>2010-01-01T01:07:08Z</time>
      </trkpt>
      <trkpt lat="63.59850780" lon="-19.4346014">
        <ele>812.59997</ele>
        <time>2010-01-01T01:07:09Z</time>
      </trkpt>
      <trkpt lat="63.59848790" lon="-19.4346010">
        <ele>812.59997</ele>
        <time>2010-01-01T01:07:10Z</time>
      </trkpt>
      <trkpt lat="63.59846850" lon="-19.4345868">
        <ele>812.59997</ele>
        <time>2010-01-01T01:07:11Z</time>
      </trkpt>
      <trkpt lat="63.59844970" lon="-19.4345798">
        <ele>812.59997</ele>
        <time>2010-01-01T01:07:11Z</time>
      </trkpt>
      <trkpt lat="63.59842910" lon="-19.4345753">
        <ele>812.79998</ele>
        <time>2010-01-01T01:07:12Z</time>
      </trkpt>
      <trkpt lat="63.59831450" lon="-19.4345327">
        <ele>812.79998</ele>
        <time>2010-01-01T01:07:17Z</time>
      </trkpt>
      <trkpt lat="63.59827240" lon="-19.4345190">
        <ele>812.59997</ele>
        <time>2010-01-01T01:07:19Z</time>
      </trkpt>
      <trkpt lat="63.59825680" lon="-19.4345065">
        <ele>812.59997</ele>
        <time>2010-01-01T01:07:19Z</time>
      </trkpt>
      <trkpt lat="63.59823940" lon="-19.4344985">
        <ele>812.59997</ele>
        <time>2010-01-01T01:07:20Z</time>
      </trkpt>
      <trkpt lat="63.59821660" lon="-19.4344915">
        <ele>812.59997</ele>
        <time>2010-01-01T01:07:21Z</time>
      </trkpt>
      <trkpt lat="63.59819370" lon="-19.4344811">
        <ele>812.59997</ele>
        <time>2010-01-01T01:07:22Z</time>
      </trkpt>
      <trkpt lat="63.59817240" lon="-19.4344712">
        <ele>812.59997</ele>
        <time>2010-01-01T01:07:23Z</time>
      </trkpt>
      <trkpt lat="63.59815810" lon="-19.4344592">
        <ele>812.79998</ele>
        <time>2010-01-01T01:07:23Z</time>
      </trkpt>
      <trkpt lat="63.59807210" lon="-19.4344287">
        <ele>812.79998</ele>
        <time>2010-01-01T01:07:27Z</time>
      </trkpt>
      <trkpt lat="63.59805440" lon="-19.4344099">
        <ele>812.79998</ele>
        <time>2010-01-01T01:07:28Z</time>
      </trkpt>
      <trkpt lat="63.59803040" lon="-19.4343908">
        <ele>812.79998</ele>
        <time>2010-01-01T01:07:29Z</time>
      </trkpt>
      <trkpt lat="63.59800450" lon="-19.4343708">
        <ele>812.79998</ele>
        <time>2010-01-01T01:07:30Z</time>
      </trkpt>
      <trkpt lat="63.59793590" lon="-19.4343281">
        <ele>812.79998</ele>
        <time>2010-01-01T01:07:33Z</time>
      </trkpt>
      <trkpt lat="63.59778090" lon="-19.4342584">
        <ele>812.79998</ele>
        <time>2010-01-01T01:07:39Z</time>
      </trkpt>
      <trkpt lat="63.59772910" lon="-19.4342632">
        <ele>812.40002</ele>
        <time>2010-01-01T01:07:41Z</time>
      </trkpt>
      <trkpt lat="63.59770200" lon="-19.4342676">
        <ele>812.20001</ele>
        <time>2010-01-01T01:07:42Z</time>
      </trkpt>
      <trkpt lat="63.59767510" lon="-19.4342688">
        <ele>812.00000</ele>
        <time>2010-01-01T01:07:43Z</time>
      </trkpt>
      <trkpt lat="63.59764590" lon="-19.4342738">
        <ele>811.59997</ele>
        <time>2010-01-01T01:07:44Z</time>
      </trkpt>
      <trkpt lat="63.59761950" lon="-19.4342785">
        <ele>811.20001</ele>
        <time>2010-01-01T01:07:45Z</time>
      </trkpt>
      <trkpt lat="63.59759500" lon="-19.4342822">
        <ele>810.79998</ele>
        <time>2010-01-01T01:07:46Z</time>
      </trkpt>
      <trkpt lat="63.59757540" lon="-19.4342881">
        <ele>810.59997</ele>
        <time>2010-01-01T01:07:47Z</time>
      </trkpt>
      <trkpt lat="63.59749040" lon="-19.4343392">
        <ele>810.59997</ele>
        <time>2010-01-01T01:07:51Z</time>
      </trkpt>
      <trkpt lat="63.59746550" lon="-19.4343385">
        <ele>810.59997</ele>
        <time>2010-01-01T01:07:52Z</time>
      </trkpt>
      <trkpt lat="63.59744440" lon="-19.4343321">
        <ele>810.59997</ele>
        <time>2010-01-01T01:07:53Z</time>
      </trkpt>
      <trkpt lat="63.59742170" lon="-19.4343334">
        <ele>810.59997</ele>
        <time>2010-01-01T01:07:53Z</time>
      </trkpt>
      <trkpt lat="63.59740220" lon="-19.4343297">
        <ele>810.59997</ele>
        <time>2010-01-01T01:07:54Z</time>
      </trkpt>
      <trkpt lat="63.59738350" lon="-19.4343271">
        <ele>810.59997</ele>
        <time>2010-01-01T01:07:55Z</time>
      </trkpt>
      <trkpt lat="63.59736100" lon="-19.4343319">
        <ele>810.59997</ele>
        <time>2010-01-01T01:07:56Z</time>
      </trkpt>
      <trkpt lat="63.59734720" lon="-19.4343306">
        <ele>810.59997</ele>
        <time>2010-01-01T01:07:56Z</time>
      </trkpt>
      <trkpt lat="63.59732450" lon="-19.4343293">
        <ele>810.59997</ele>
        <time>2010-01-01T01:07:57Z</time>
      </trkpt>
      <trkpt lat="63.59730090" lon="-19.4343139">
        <ele>810.59997</ele>
        <time>2010-01-01T01:07:58Z</time>
      </trkpt>
      <trkpt lat="63.59728010" lon="-19.4343080">
        <ele>810.59997</ele>
        <time>2010-01-01T01:07:59Z</time>
      </trkpt>
      <trkpt lat="63.59725610" lon="-19.4343038">
        <ele>810.59997</ele>
        <time>2010-01-01T01:08:00Z</time>
      </trkpt>
      <trkpt lat="63.59723340" lon="-19.4342984">
        <ele>810.59997</ele>
        <time>2010-01-01T01:08:01Z</time>
      </trkpt>
      <trkpt lat="63.59721300" lon="-19.4342977">
        <ele>810.59997</ele>
        <time>2010-01-01T01:08:02Z</time>
      </trkpt>
      <trkpt lat="63.59719090" lon="-19.4342811">
        <ele>810.59997</ele>
        <time>2010-01-01T01:08:03Z</time>
      </trkpt>
      <trkpt lat="63.59716640" lon="-19.4342569">
        <ele>810.59997</ele>
        <time>2010-01-01T01:08:04Z</time>
      </trkpt>
      <trkpt lat="63.59714440" lon="-19.4342583">
        <ele>810.59997</ele>
        <time>2010-01-01T01:08:05Z</time>
      </trkpt>
      <trkpt lat="63.59708790" lon="-19.4342311">
        <ele>810.59997</ele>
        <time>2010-01-01T01:08:07Z</time>
      </trkpt>
      <trkpt lat="63.59705840" lon="-19.4342241">
        <ele>810.59997</ele>
        <time>2010-01-01T01:08:08Z</time>
      </trkpt>
      <trkpt lat="63.59698700" lon="-19.4342567">
        <ele>810.59997</ele>
        <time>2010-01-01T01:08:11Z</time>
      </trkpt>
      <trkpt lat="63.59692510" lon="-19.4343470">
        <ele>810.20001</ele>
        <time>2010-01-01T01:08:14Z</time>
      </trkpt>
      <trkpt lat="63.59690060" lon="-19.4344164">
        <ele>809.79998</ele>
        <time>2010-01-01T01:08:16Z</time>
      </trkpt>
      <trkpt lat="63.59690870" lon="-19.4344618">
        <ele>809.40002</ele>
        <time>2010-01-01T01:08:17Z</time>
      </trkpt>
      <trkpt lat="63.59687860" lon="-19.4345265">
        <ele>809.00000</ele>
        <time>2010-01-01T01:08:18Z</time>
      </trkpt>
      <trkpt lat="63.59686230" lon="-19.4345847">
        <ele>808.40002</ele>
        <time>2010-01-01T01:08:19Z</time>
      </trkpt>
      <trkpt lat="63.59684290" lon="-19.4346513">
        <ele>808.40002</ele>
        <time>2010-01-01T01:08:21Z</time>
      </trkpt>
      <trkpt lat="63.59682790" lon="-19.4346992">
        <ele>808.40002</ele>
        <time>2010-01-01T01:08:22Z</time>
      </trkpt>
      <trkpt lat="63.59681740" lon="-19.4347550">
        <ele>808.00000</ele>
        <time>2010-01-01T01:08:23Z</time>
      </trkpt>
      <trkpt lat="63.59680050" lon="-19.4348232">
        <ele>807.40002</ele>
        <time>2010-01-01T01:08:24Z</time>
      </trkpt>
      <trkpt lat="63.59679350" lon="-19.4348675">
        <ele>807.00000</ele>
        <time>2010-01-01T01:08:25Z</time>
      </trkpt>
      <trkpt lat="63.59677650" lon="-19.4349258">
        <ele>806.59997</ele>
        <time>2010-01-01T01:08:26Z</time>
      </trkpt>
      <trkpt lat="63.59676110" lon="-19.4349767">
        <ele>806.40002</ele>
        <time>2010-01-01T01:08:28Z</time>
      </trkpt>
      <trkpt lat="63.59674650" lon="-19.4350152">
        <ele>806.40002</ele>
        <time>2010-01-01T01:08:28Z</time>
      </trkpt>
      <trkpt lat="63.59671810" lon="-19.4350689">
        <ele>806.40002</ele>
        <time>2010-01-01T01:08:30Z</time>
      </trkpt>
      <trkpt lat="63.59669940" lon="-19.4351025">
        <ele>806.40002</ele>
        <time>2010-01-01T01:08:31Z</time>
      </trkpt>
      <trkpt lat="63.59667510" lon="-19.4351239">
        <ele>806.40002</ele>
        <time>2010-01-01T01:08:32Z</time>
      </trkpt>
      <trkpt lat="63.59663480" lon="-19.4351499">
        <ele>806.40002</ele>
        <time>2010-01-01T01:08:34Z</time>
      </trkpt>
      <trkpt lat="63.59661380" lon="-19.4351614">
        <ele>806.40002</ele>
        <time>2010-01-01T01:08:34Z</time>
      </trkpt>
      <trkpt lat="63.59657560" lon="-19.4351680">
        <ele>806.00000</ele>
        <time>2010-01-01T01:08:36Z</time>
      </trkpt>
      <trkpt lat="63.59653880" lon="-19.4351975">
        <ele>805.59997</ele>
        <time>2010-01-01T01:08:38Z</time>
      </trkpt>
      <trkpt lat="63.59651290" lon="-19.4352116">
        <ele>805.00000</ele>
        <time>2010-01-01T01:08:39Z</time>
      </trkpt>
      <trkpt lat="63.59650240" lon="-19.4352107">
        <ele>805.00000</ele>
        <time>2010-01-01T01:08:39Z</time>
      </trkpt>
      <trkpt lat="63.59646030" lon="-19.4352219">
        <ele>804.59997</ele>
        <time>2010-01-01T01:08:41Z</time>
      </trkpt>
      <trkpt lat="63.59642110" lon="-19.4352282">
        <ele>804.20001</ele>
        <time>2010-01-01T01:08:42Z</time>
      </trkpt>
      <trkpt lat="63.59639220" lon="-19.4352202">
        <ele>804.20001</ele>
        <time>2010-01-01T01:08:44Z</time>
      </trkpt>
      <trkpt lat="63.59636190" lon="-19.4352094">
        <ele>804.40002</ele>
        <time>2010-01-01T01:08:45Z</time>
      </trkpt>
      <trkpt lat="63.59633570" lon="-19.4351897">
        <ele>804.40002</ele>
        <time>2010-01-01T01:08:46Z</time>
      </trkpt>
      <trkpt lat="63.59631410" lon="-19.4351745">
        <ele>804.40002</ele>
        <time>2010-01-01T01:08:47Z</time>
      </trkpt>
      <trkpt lat="63.59626540" lon="-19.4351436">
        <ele>804.00000</ele>
        <time>2010-01-01T01:08:49Z</time>
      </trkpt>
      <trkpt lat="63.59623730" lon="-19.4351056">
        <ele>803.59997</ele>
        <time>2010-01-01T01:08:50Z</time>
      </trkpt>
      <trkpt lat="63.59620690" lon="-19.4350484">
        <ele>803.20001</ele>
        <time>2010-01-01T01:08:52Z</time>
      </trkpt>
      <trkpt lat="63.59618050" lon="-19.4350058">
        <ele>802.59997</ele>
        <time>2010-01-01T01:08:53Z</time>
      </trkpt>
      <trkpt lat="63.59615280" lon="-19.4349674">
        <ele>802.40002</ele>
        <time>2010-01-01T01:08:54Z</time>
      </trkpt>
      <trkpt lat="63.59612690" lon="-19.4349400">
        <ele>802.00000</ele>
        <time>2010-01-01T01:08:55Z</time>
      </trkpt>
      <trkpt lat="63.59610000" lon="-19.4349240">
        <ele>801.79998</ele>
        <time>2010-01-01T01:08:57Z</time>
      </trkpt>
      <trkpt lat="63.59606740" lon="-19.4348921">
        <ele>801.59997</ele>
        <time>2010-01-01T01:08:58Z</time>
      </trkpt>
      <trkpt lat="63.59604540" lon="-19.4348904">
        <ele>801.00000</ele>
        <time>2010-01-01T01:08:59Z</time>
      </trkpt>
      <trkpt lat="63.59601190" lon="-19.4348919">
        <ele>800.79998</ele>
        <time>2010-01-01T01:09:00Z</time>
      </trkpt>
      <trkpt lat="63.59598360" lon="-19.4349291">
        <ele>800.40002</ele>
        <time>2010-01-01T01:09:01Z</time>
      </trkpt>
      <trkpt lat="63.59596480" lon="-19.4349623">
        <ele>800.20001</ele>
        <time>2010-01-01T01:09:02Z</time>
      </trkpt>
      <trkpt lat="63.59593890" lon="-19.4350236">
        <ele>799.79998</ele>
        <time>2010-01-01T01:09:04Z</time>
      </trkpt>
      <trkpt lat="63.59591820" lon="-19.4350756">
        <ele>799.59997</ele>
        <time>2010-01-01T01:09:05Z</time>
      </trkpt>
      <trkpt lat="63.59589480" lon="-19.4351156">
        <ele>799.00000</ele>
        <time>2010-01-01T01:09:06Z</time>
      </trkpt>
      <trkpt lat="63.59587470" lon="-19.4351462">
        <ele>798.40002</ele>
        <time>2010-01-01T01:09:07Z</time>
      </trkpt>
      <trkpt lat="63.59584410" lon="-19.4351999">
        <ele>797.79998</ele>
        <time>2010-01-01T01:09:09Z</time>
      </trkpt>
      <trkpt lat="63.59582650" lon="-19.4352253">
        <ele>797.20001</ele>
        <time>2010-01-01T01:09:10Z</time>
      </trkpt>
      <trkpt lat="63.59579670" lon="-19.4352681">
        <ele>796.59997</ele>
        <time>2010-01-01T01:09:11Z</time>
      </trkpt>
      <trkpt lat="63.59576340" lon="-19.4352997">
        <ele>796.00000</ele>
        <time>2010-01-01T01:09:13Z</time>
      </trkpt>
      <trkpt lat="63.59572740" lon="-19.4353367">
        <ele>795.40002</ele>
        <time>2010-01-01T01:09:14Z</time>
      </trkpt>
      <trkpt lat="63.59569430" lon="-19.4353689">
        <ele>795.00000</ele>
        <time>2010-01-01T01:09:16Z</time>
      </trkpt>
      <trkpt lat="63.59566140" lon="-19.4353703">
        <ele>794.40002</ele>
        <time>2010-01-01T01:09:17Z</time>
      </trkpt>
      <trkpt lat="63.59561830" lon="-19.4353881">
        <ele>793.59997</ele>
        <time>2010-01-01T01:09:19Z</time>
      </trkpt>
      <trkpt lat="63.59558800" lon="-19.4353922">
        <ele>793.20001</ele>
        <time>2010-01-01T01:09:20Z</time>
      </trkpt>
      <trkpt lat="63.59555350" lon="-19.4354041">
        <ele>792.40002</ele>
        <time>2010-01-01T01:09:21Z</time>
      </trkpt>
      <trkpt lat="63.59553020" lon="-19.4354125">
        <ele>791.79998</ele>
        <time>2010-01-01T01:09:22Z</time>
      </trkpt>
      <trkpt lat="63.59548810" lon="-19.4354384">
        <ele>791.00000</ele>
        <time>2010-01-01T01:09:24Z</time>
      </trkpt>
      <trkpt lat="63.59546300" lon="-19.4354633">
        <ele>790.40002</ele>
        <time>2010-01-01T01:09:25Z</time>
      </trkpt>
      <trkpt lat="63.59543370" lon="-19.4354644">
        <ele>789.79998</ele>
        <time>2010-01-01T01:09:26Z</time>
      </trkpt>
      <trkpt lat="63.59540470" lon="-19.4354834">
        <ele>789.00000</ele>
        <time>2010-01-01T01:09:27Z</time>
      </trkpt>
      <trkpt lat="63.59536750" lon="-19.4354982">
        <ele>788.40002</ele>
        <time>2010-01-01T01:09:29Z</time>
      </trkpt>
      <trkpt lat="63.59533770" lon="-19.4355109">
        <ele>787.79998</ele>
        <time>2010-01-01T01:09:30Z</time>
      </trkpt>
      <trkpt lat="63.59531070" lon="-19.4355342">
        <ele>787.40002</ele>
        <time>2010-01-01T01:09:31Z</time>
      </trkpt>
      <trkpt lat="63.59525260" lon="-19.4355538">
        <ele>787.00000</ele>
        <time>2010-01-01T01:09:34Z</time>
      </trkpt>
      <trkpt lat="63.59522320" lon="-19.4355875">
        <ele>786.59997</ele>
        <time>2010-01-01T01:09:35Z</time>
      </trkpt>
      <trkpt lat="63.59520620" lon="-19.4356051">
        <ele>786.20001</ele>
        <time>2010-01-01T01:09:36Z</time>
      </trkpt>
      <trkpt lat="63.59517460" lon="-19.4356298">
        <ele>785.79998</ele>
        <time>2010-01-01T01:09:37Z</time>
      </trkpt>
      <trkpt lat="63.59515350" lon="-19.4356450">
        <ele>785.40002</ele>
        <time>2010-01-01T01:09:38Z</time>
      </trkpt>
      <trkpt lat="63.59512670" lon="-19.4356613">
        <ele>785.40002</ele>
        <time>2010-01-01T01:09:39Z</time>
      </trkpt>
      <trkpt lat="63.59510230" lon="-19.4356837">
        <ele>785.40002</ele>
        <time>2010-01-01T01:09:40Z</time>
      </trkpt>
      <trkpt lat="63.59507230" lon="-19.4357072">
        <ele>785.40002</ele>
        <time>2010-01-01T01:09:41Z</time>
      </trkpt>
      <trkpt lat="63.59503650" lon="-19.4357207">
        <ele>785.20001</ele>
        <time>2010-01-01T01:09:43Z</time>
      </trkpt>
      <trkpt lat="63.59500860" lon="-19.4357322">
        <ele>784.79998</ele>
        <time>2010-01-01T01:09:44Z</time>
      </trkpt>
      <trkpt lat="63.59498450" lon="-19.4357498">
        <ele>784.59997</ele>
        <time>2010-01-01T01:09:45Z</time>
      </trkpt>
      <trkpt lat="63.59495510" lon="-19.4357533">
        <ele>784.20001</ele>
        <time>2010-01-01T01:09:46Z</time>
      </trkpt>
      <trkpt lat="63.59493170" lon="-19.4357544">
        <ele>784.00000</ele>
        <time>2010-01-01T01:09:47Z</time>
      </trkpt>
      <trkpt lat="63.59489720" lon="-19.4357538">
        <ele>783.59997</ele>
        <time>2010-01-01T01:09:49Z</time>
      </trkpt>
      <trkpt lat="63.59486590" lon="-19.4357433">
        <ele>783.40002</ele>
        <time>2010-01-01T01:09:50Z</time>
      </trkpt>
      <trkpt lat="63.59483100" lon="-19.4357218">
        <ele>783.40002</ele>
        <time>2010-01-01T01:09:51Z</time>
      </trkpt>
      <trkpt lat="63.59475250" lon="-19.4355850">
        <ele>783.20001</ele>
        <time>2010-01-01T01:09:55Z</time>
      </trkpt>
      <trkpt lat="63.59473490" lon="-19.4355153">
        <ele>782.59997</ele>
        <time>2010-01-01T01:09:57Z</time>
      </trkpt>
      <trkpt lat="63.59471110" lon="-19.4354612">
        <ele>782.40002</ele>
        <time>2010-01-01T01:09:58Z</time>
      </trkpt>
      <trkpt lat="63.59468190" lon="-19.4354180">
        <ele>781.79998</ele>
        <time>2010-01-01T01:09:59Z</time>
      </trkpt>
      <trkpt lat="63.59466050" lon="-19.4353736">
        <ele>781.40002</ele>
        <time>2010-01-01T01:10:01Z</time>
      </trkpt>
      <trkpt lat="63.59463920" lon="-19.4353202">
        <ele>781.40002</ele>
        <time>2010-01-01T01:10:02Z</time>
      </trkpt>
      <trkpt lat="63.59462040" lon="-19.4352814">
        <ele>781.20001</ele>
        <time>2010-01-01T01:10:03Z</time>
      </trkpt>
      <trkpt lat="63.59459680" lon="-19.4352297">
        <ele>781.20001</ele>
        <time>2010-01-01T01:10:04Z</time>
      </trkpt>
      <trkpt lat="63.59457430" lon="-19.4351727">
        <ele>781.40002</ele>
        <time>2010-01-01T01:10:06Z</time>
      </trkpt>
      <trkpt lat="63.59455140" lon="-19.4351347">
        <ele>781.40002</ele>
        <time>2010-01-01T01:10:07Z</time>
      </trkpt>
      <trkpt lat="63.59452210" lon="-19.4350985">
        <ele>781.20001</ele>
        <time>2010-01-01T01:10:08Z</time>
      </trkpt>
      <trkpt lat="63.59450240" lon="-19.4350636">
        <ele>780.79998</ele>
        <time>2010-01-01T01:10:09Z</time>
      </trkpt>
      <trkpt lat="63.59447610" lon="-19.4350286">
        <ele>780.40002</ele>
        <time>2010-01-01T01:10:10Z</time>
      </trkpt>
      <trkpt lat="63.59444970" lon="-19.4349962">
        <ele>780.00000</ele>
        <time>2010-01-01T01:10:11Z</time>
      </trkpt>
      <trkpt lat="63.59442270" lon="-19.4349717">
        <ele>779.59997</ele>
        <time>2010-01-01T01:10:13Z</time>
      </trkpt>
      <trkpt lat="63.59438970" lon="-19.4349427">
        <ele>779.40002</ele>
        <time>2010-01-01T01:10:14Z</time>
      </trkpt>
      <trkpt lat="63.59430790" lon="-19.4348582">
        <ele>779.40002</ele>
        <time>2010-01-01T01:10:18Z</time>
      </trkpt>
      <trkpt lat="63.59422640" lon="-19.4347889">
        <ele>779.40002</ele>
        <time>2010-01-01T01:10:21Z</time>
      </trkpt>
      <trkpt lat="63.59420310" lon="-19.4347790">
        <ele>779.40002</ele>
        <time>2010-01-01T01:10:22Z</time>
      </trkpt>
      <trkpt lat="63.59417560" lon="-19.4347383">
        <ele>779.40002</ele>
        <time>2010-01-01T01:10:23Z</time>
      </trkpt>
      <trkpt lat="63.59415690" lon="-19.4346962">
        <ele>779.40002</ele>
        <time>2010-01-01T01:10:24Z</time>
      </trkpt>
      <trkpt lat="63.59412280" lon="-19.4346497">
        <ele>779.40002</ele>
        <time>2010-01-01T01:10:26Z</time>
      </trkpt>
      <trkpt lat="63.59409430" lon="-19.4346101">
        <ele>779.40002</ele>
        <time>2010-01-01T01:10:27Z</time>
      </trkpt>
      <trkpt lat="63.59405770" lon="-19.4345675">
        <ele>779.40002</ele>
        <time>2010-01-01T01:10:29Z</time>
      </trkpt>
      <trkpt lat="63.59402860" lon="-19.4345432">
        <ele>779.20001</ele>
        <time>2010-01-01T01:10:30Z</time>
      </trkpt>
      <trkpt lat="63.59399540" lon="-19.4344997">
        <ele>778.59997</ele>
        <time>2010-01-01T01:10:32Z</time>
      </trkpt>
      <trkpt lat="63.59397040" lon="-19.4344650">
        <ele>778.40002</ele>
        <time>2010-01-01T01:10:33Z</time>
      </trkpt>
      <trkpt lat="63.59394310" lon="-19.4344342">
        <ele>778.00000</ele>
        <time>2010-01-01T01:10:34Z</time>
      </trkpt>
      <trkpt lat="63.59391130" lon="-19.4344158">
        <ele>777.79998</ele>
        <time>2010-01-01T01:10:36Z</time>
      </trkpt>
      <trkpt lat="63.59388770" lon="-19.4343945">
        <ele>777.59997</ele>
        <time>2010-01-01T01:10:37Z</time>
      </trkpt>
      <trkpt lat="63.59386530" lon="-19.4343640">
        <ele>777.20001</ele>
        <time>2010-01-01T01:10:38Z</time>
      </trkpt>
      <trkpt lat="63.59384220" lon="-19.4343500">
        <ele>777.40002</ele>
        <time>2010-01-01T01:10:39Z</time>
      </trkpt>
      <trkpt lat="63.59382130" lon="-19.4343335">
        <ele>777.20001</ele>
        <time>2010-01-01T01:10:39Z</time>
      </trkpt>
      <trkpt lat="63.59379030" lon="-19.4343093">
        <ele>777.20001</ele>
        <time>2010-01-01T01:10:41Z</time>
      </trkpt>
      <trkpt lat="63.59376720" lon="-19.4342906">
        <ele>777.40002</ele>
        <time>2010-01-01T01:10:42Z</time>
      </trkpt>
      <trkpt lat="63.59374110" lon="-19.4342552">
        <ele>777.40002</ele>
        <time>2010-01-01T01:10:43Z</time>
      </trkpt>
      <trkpt lat="63.59371830" lon="-19.4342409">
        <ele>777.40002</ele>
        <time>2010-01-01T01:10:44Z</time>
      </trkpt>
      <trkpt lat="63.59369560" lon="-19.4342052">
        <ele>777.40002</ele>
        <time>2010-01-01T01:10:45Z</time>
      </trkpt>
      <trkpt lat="63.59367790" lon="-19.4341785">
        <ele>777.40002</ele>
        <time>2010-01-01T01:10:46Z</time>
      </trkpt>
      <trkpt lat="63.59365620" lon="-19.4341560">
        <ele>777.40002</ele>
        <time>2010-01-01T01:10:47Z</time>
      </trkpt>
      <trkpt lat="63.59359770" lon="-19.4340523">
        <ele>777.40002</ele>
        <time>2010-01-01T01:10:50Z</time>
      </trkpt>
      <trkpt lat="63.59357730" lon="-19.4340130">
        <ele>777.40002</ele>
        <time>2010-01-01T01:10:51Z</time>
      </trkpt>
      <trkpt lat="63.59356060" lon="-19.4339877">
        <ele>777.40002</ele>
        <time>2010-01-01T01:10:52Z</time>
      </trkpt>
      <trkpt lat="63.59352450" lon="-19.4339108">
        <ele>777.79998</ele>
        <time>2010-01-01T01:10:54Z</time>
      </trkpt>
      <trkpt lat="63.59350590" lon="-19.4338732">
        <ele>778.20001</ele>
        <time>2010-01-01T01:10:55Z</time>
      </trkpt>
      <trkpt lat="63.59348870" lon="-19.4338384">
        <ele>778.59997</ele>
        <time>2010-01-01T01:10:56Z</time>
      </trkpt>
      <trkpt lat="63.59346910" lon="-19.4338164">
        <ele>779.00000</ele>
        <time>2010-01-01T01:10:57Z</time>
      </trkpt>
      <trkpt lat="63.59344800" lon="-19.4337870">
        <ele>779.40002</ele>
        <time>2010-01-01T01:10:58Z</time>
      </trkpt>
      <trkpt lat="63.59340540" lon="-19.4337666">
        <ele>779.40002</ele>
        <time>2010-01-01T01:10:59Z</time>
      </trkpt>
      <trkpt lat="63.59338470" lon="-19.4337511">
        <ele>780.00000</ele>
        <time>2010-01-01T01:11:00Z</time>
      </trkpt>
      <trkpt lat="63.59337060" lon="-19.4337520">
        <ele>780.40002</ele>
        <time>2010-01-01T01:11:01Z</time>
      </trkpt>
      <trkpt lat="63.59334110" lon="-19.4337624">
        <ele>780.79998</ele>
        <time>2010-01-01T01:11:02Z</time>
      </trkpt>
      <trkpt lat="63.59332900" lon="-19.4337680">
        <ele>781.20001</ele>
        <time>2010-01-01T01:11:02Z</time>
      </trkpt>
      <trkpt lat="63.59330980" lon="-19.4337813">
        <ele>781.40002</ele>
        <time>2010-01-01T01:11:03Z</time>
      </trkpt>
      <trkpt lat="63.59323720" lon="-19.4338191">
        <ele>781.59997</ele>
        <time>2010-01-01T01:11:06Z</time>
      </trkpt>
      <trkpt lat="63.59321210" lon="-19.4338353">
        <ele>782.00000</ele>
        <time>2010-01-01T01:11:07Z</time>
      </trkpt>
      <trkpt lat="63.59319590" lon="-19.4338626">
        <ele>782.40002</ele>
        <time>2010-01-01T01:11:08Z</time>
      </trkpt>
      <trkpt lat="63.59316220" lon="-19.4338767">
        <ele>782.79998</ele>
        <time>2010-01-01T01:11:09Z</time>
      </trkpt>
      <trkpt lat="63.59313390" lon="-19.4338779">
        <ele>783.40002</ele>
        <time>2010-01-01T01:11:11Z</time>
      </trkpt>
      <trkpt lat="63.59311270" lon="-19.4338864">
        <ele>783.79998</ele>
        <time>2010-01-01T01:11:11Z</time>
      </trkpt>
      <trkpt lat="63.59308390" lon="-19.4338939">
        <ele>783.79998</ele>
        <time>2010-01-01T01:11:13Z</time>
      </trkpt>
      <trkpt lat="63.59306010" lon="-19.4338885">
        <ele>783.79998</ele>
        <time>2010-01-01T01:11:14Z</time>
      </trkpt>
      <trkpt lat="63.59304070" lon="-19.4338890">
        <ele>783.79998</ele>
        <time>2010-01-01T01:11:14Z</time>
      </trkpt>
      <trkpt lat="63.59301660" lon="-19.4338933">
        <ele>783.79998</ele>
        <time>2010-01-01T01:11:15Z</time>
      </trkpt>
      <trkpt lat="63.59298460" lon="-19.4338938">
        <ele>783.79998</ele>
        <time>2010-01-01T01:11:17Z</time>
      </trkpt>
      <trkpt lat="63.59296410" lon="-19.4338897">
        <ele>783.79998</ele>
        <time>2010-01-01T01:11:17Z</time>
      </trkpt>
      <trkpt lat="63.59293560" lon="-19.4338973">
        <ele>783.79998</ele>
        <time>2010-01-01T01:11:19Z</time>
      </trkpt>
      <trkpt lat="63.59290550" lon="-19.4339051">
        <ele>783.79998</ele>
        <time>2010-01-01T01:11:20Z</time>
      </trkpt>
      <trkpt lat="63.59288540" lon="-19.4339220">
        <ele>783.79998</ele>
        <time>2010-01-01T01:11:21Z</time>
      </trkpt>
      <trkpt lat="63.59285640" lon="-19.4339279">
        <ele>783.59997</ele>
        <time>2010-01-01T01:11:22Z</time>
      </trkpt>
      <trkpt lat="63.59282670" lon="-19.4339294">
        <ele>783.59997</ele>
        <time>2010-01-01T01:11:23Z</time>
      </trkpt>
      <trkpt lat="63.59280240" lon="-19.4339385">
        <ele>783.79998</ele>
        <time>2010-01-01T01:11:24Z</time>
      </trkpt>
      <trkpt lat="63.59277260" lon="-19.4339443">
        <ele>783.79998</ele>
        <time>2010-01-01T01:11:25Z</time>
      </trkpt>
      <trkpt lat="63.59274190" lon="-19.4339444">
        <ele>783.79998</ele>
        <time>2010-01-01T01:11:26Z</time>
      </trkpt>
      <trkpt lat="63.59272210" lon="-19.4339445">
        <ele>783.79998</ele>
        <time>2010-01-01T01:11:27Z</time>
      </trkpt>
      <trkpt lat="63.59269720" lon="-19.4339397">
        <ele>783.59997</ele>
        <time>2010-01-01T01:11:28Z</time>
      </trkpt>
      <trkpt lat="63.59267110" lon="-19.4339439">
        <ele>783.20001</ele>
        <time>2010-01-01T01:11:29Z</time>
      </trkpt>
      <trkpt lat="63.59263810" lon="-19.4339548">
        <ele>782.79998</ele>
        <time>2010-01-01T01:11:31Z</time>
      </trkpt>
      <trkpt lat="63.59260670" lon="-19.4339513">
        <ele>782.40002</ele>
        <time>2010-01-01T01:11:32Z</time>
      </trkpt>
      <trkpt lat="63.59257990" lon="-19.4339379">
        <ele>782.00000</ele>
        <time>2010-01-01T01:11:33Z</time>
      </trkpt>
      <trkpt lat="63.59255320" lon="-19.4339168">
        <ele>781.40002</ele>
        <time>2010-01-01T01:11:34Z</time>
      </trkpt>
      <trkpt lat="63.59252210" lon="-19.4339011">
        <ele>780.79998</ele>
        <time>2010-01-01T01:11:35Z</time>
      </trkpt>
      <trkpt lat="63.59249520" lon="-19.4338859">
        <ele>780.20001</ele>
        <time>2010-01-01T01:11:36Z</time>
      </trkpt>
      <trkpt lat="63.59246200" lon="-19.4338784">
        <ele>779.59997</ele>
        <time>2010-01-01T01:11:38Z</time>
      </trkpt>
      <trkpt lat="63.59243560" lon="-19.4338704">
        <ele>779.00000</ele>
        <time>2010-01-01T01:11:39Z</time>
      </trkpt>
      <trkpt lat="63.59240800" lon="-19.4338522">
        <ele>778.40002</ele>
        <time>2010-01-01T01:11:40Z</time>
      </trkpt>
      <trkpt lat="63.59238120" lon="-19.4338341">
        <ele>778.00000</ele>
        <time>2010-01-01T01:11:41Z</time>
      </trkpt>
      <trkpt lat="63.59234980" lon="-19.4338192">
        <ele>777.40002</ele>
        <time>2010-01-01T01:11:42Z</time>
      </trkpt>
      <trkpt lat="63.59232170" lon="-19.4337952">
        <ele>776.79998</ele>
        <time>2010-01-01T01:11:44Z</time>
      </trkpt>
      <trkpt lat="63.59230010" lon="-19.4337696">
        <ele>776.20001</ele>
        <time>2010-01-01T01:11:45Z</time>
      </trkpt>
      <trkpt lat="63.59222030" lon="-19.4337151">
        <ele>775.59997</ele>
        <time>2010-01-01T01:11:48Z</time>
      </trkpt>
      <trkpt lat="63.59219140" lon="-19.4336854">
        <ele>775.00000</ele>
        <time>2010-01-01T01:11:49Z</time>
      </trkpt>
      <trkpt lat="63.59216360" lon="-19.4336557">
        <ele>774.59997</ele>
        <time>2010-01-01T01:11:50Z</time>
      </trkpt>
      <trkpt lat="63.59213410" lon="-19.4336226">
        <ele>774.20001</ele>
        <time>2010-01-01T01:11:52Z</time>
      </trkpt>
      <trkpt lat="63.59211050" lon="-19.4335956">
        <ele>773.59997</ele>
        <time>2010-01-01T01:11:53Z</time>
      </trkpt>
      <trkpt lat="63.59207680" lon="-19.4335518">
        <ele>772.79998</ele>
        <time>2010-01-01T01:11:54Z</time>
      </trkpt>
      <trkpt lat="63.59205290" lon="-19.4335272">
        <ele>772.20001</ele>
        <time>2010-01-01T01:11:55Z</time>
      </trkpt>
      <trkpt lat="63.59202030" lon="-19.4334911">
        <ele>771.59997</ele>
        <time>2010-01-01T01:11:57Z</time>
      </trkpt>
      <trkpt lat="63.59198860" lon="-19.4334694">
        <ele>770.59997</ele>
        <time>2010-01-01T01:11:58Z</time>
      </trkpt>
      <trkpt lat="63.59195940" lon="-19.4334566">
        <ele>770.40002</ele>
        <time>2010-01-01T01:11:59Z</time>
      </trkpt>
      <trkpt lat="63.59192640" lon="-19.4334475">
        <ele>770.00000</ele>
        <time>2010-01-01T01:12:01Z</time>
      </trkpt>
      <trkpt lat="63.59189510" lon="-19.4334456">
        <ele>769.20001</ele>
        <time>2010-01-01T01:12:02Z</time>
      </trkpt>
      <trkpt lat="63.59186410" lon="-19.4334552">
        <ele>768.79998</ele>
        <time>2010-01-01T01:12:03Z</time>
      </trkpt>
      <trkpt lat="63.59183390" lon="-19.4334826">
        <ele>768.00000</ele>
        <time>2010-01-01T01:12:04Z</time>
      </trkpt>
      <trkpt lat="63.59178340" lon="-19.4335467">
        <ele>767.79998</ele>
        <time>2010-01-01T01:12:07Z</time>
      </trkpt>
      <trkpt lat="63.59176390" lon="-19.4335797">
        <ele>767.59997</ele>
        <time>2010-01-01T01:12:08Z</time>
      </trkpt>
      <trkpt lat="63.59173980" lon="-19.4336127">
        <ele>767.20001</ele>
        <time>2010-01-01T01:12:09Z</time>
      </trkpt>
      <trkpt lat="63.59172600" lon="-19.4336428">
        <ele>766.79998</ele>
        <time>2010-01-01T01:12:10Z</time>
      </trkpt>
      <trkpt lat="63.59170900" lon="-19.4336799">
        <ele>766.59997</ele>
        <time>2010-01-01T01:12:11Z</time>
      </trkpt>
      <trkpt lat="63.59168250" lon="-19.4337212">
        <ele>766.40002</ele>
        <time>2010-01-01T01:12:12Z</time>
      </trkpt>
      <trkpt lat="63.59164540" lon="-19.4337658">
        <ele>766.00000</ele>
        <time>2010-01-01T01:12:14Z</time>
      </trkpt>
      <trkpt lat="63.59161730" lon="-19.4338028">
        <ele>765.79998</ele>
        <time>2010-01-01T01:12:15Z</time>
      </trkpt>
      <trkpt lat="63.59158470" lon="-19.4338233">
        <ele>765.40002</ele>
        <time>2010-01-01T01:12:16Z</time>
      </trkpt>
      <trkpt lat="63.59155950" lon="-19.4338478">
        <ele>764.79998</ele>
        <time>2010-01-01T01:12:17Z</time>
      </trkpt>
      <trkpt lat="63.59152200" lon="-19.4338765">
        <ele>764.40002</ele>
        <time>2010-01-01T01:12:19Z</time>
      </trkpt>
      <trkpt lat="63.59149400" lon="-19.4338947">
        <ele>763.79998</ele>
        <time>2010-01-01T01:12:20Z</time>
      </trkpt>
      <trkpt lat="63.59145820" lon="-19.4339080">
        <ele>763.00000</ele>
        <time>2010-01-01T01:12:22Z</time>
      </trkpt>
      <trkpt lat="63.59142680" lon="-19.4339109">
        <ele>762.20001</ele>
        <time>2010-01-01T01:12:23Z</time>
      </trkpt>
      <trkpt lat="63.59139530" lon="-19.4339136">
        <ele>761.59997</ele>
        <time>2010-01-01T01:12:24Z</time>
      </trkpt>
      <trkpt lat="63.59136400" lon="-19.4339106">
        <ele>761.59997</ele>
        <time>2010-01-01T01:12:25Z</time>
      </trkpt>
      <trkpt lat="63.59133380" lon="-19.4338934">
        <ele>761.20001</ele>
        <time>2010-01-01T01:12:27Z</time>
      </trkpt>
      <trkpt lat="63.59130690" lon="-19.4338769">
        <ele>760.79998</ele>
        <time>2010-01-01T01:12:28Z</time>
      </trkpt>
      <trkpt lat="63.59127630" lon="-19.4338570">
        <ele>760.40002</ele>
        <time>2010-01-01T01:12:29Z</time>
      </trkpt>
      <trkpt lat="63.59125450" lon="-19.4338167">
        <ele>760.00000</ele>
        <time>2010-01-01T01:12:30Z</time>
      </trkpt>
      <trkpt lat="63.59122510" lon="-19.4337813">
        <ele>759.79998</ele>
        <time>2010-01-01T01:12:31Z</time>
      </trkpt>
      <trkpt lat="63.59117930" lon="-19.4337056">
        <ele>759.59997</ele>
        <time>2010-01-01T01:12:34Z</time>
      </trkpt>
      <trkpt lat="63.59115590" lon="-19.4336730">
        <ele>759.20001</ele>
        <time>2010-01-01T01:12:35Z</time>
      </trkpt>
      <trkpt lat="63.59113170" lon="-19.4336347">
        <ele>758.79998</ele>
        <time>2010-01-01T01:12:36Z</time>
      </trkpt>
      <trkpt lat="63.59110280" lon="-19.4335936">
        <ele>758.40002</ele>
        <time>2010-01-01T01:12:37Z</time>
      </trkpt>
      <trkpt lat="63.59108050" lon="-19.4335632">
        <ele>758.00000</ele>
        <time>2010-01-01T01:12:38Z</time>
      </trkpt>
      <trkpt lat="63.59105510" lon="-19.4335274">
        <ele>757.59997</ele>
        <time>2010-01-01T01:12:40Z</time>
      </trkpt>
      <trkpt lat="63.59100510" lon="-19.4334743">
        <ele>757.59997</ele>
        <time>2010-01-01T01:12:42Z</time>
      </trkpt>
      <trkpt lat="63.59095520" lon="-19.4334264">
        <ele>757.40002</ele>
        <time>2010-01-01T01:12:44Z</time>
      </trkpt>
      <trkpt lat="63.59092660" lon="-19.4334062">
        <ele>756.79998</ele>
        <time>2010-01-01T01:12:45Z</time>
      </trkpt>
      <trkpt lat="63.59090600" lon="-19.4333914">
        <ele>756.40002</ele>
        <time>2010-01-01T01:12:46Z</time>
      </trkpt>
      <trkpt lat="63.59087660" lon="-19.4333638">
        <ele>756.00000</ele>
        <time>2010-01-01T01:12:47Z</time>
      </trkpt>
      <trkpt lat="63.59084460" lon="-19.4333472">
        <ele>755.59997</ele>
        <time>2010-01-01T01:12:49Z</time>
      </trkpt>
      <trkpt lat="63.59081200" lon="-19.4333188">
        <ele>755.20001</ele>
        <time>2010-01-01T01:12:50Z</time>
      </trkpt>
      <trkpt lat="63.59078110" lon="-19.4333028">
        <ele>755.00000</ele>
        <time>2010-01-01T01:12:51Z</time>
      </trkpt>
      <trkpt lat="63.59075090" lon="-19.4332685">
        <ele>754.40002</ele>
        <time>2010-01-01T01:12:53Z</time>
      </trkpt>
      <trkpt lat="63.59072820" lon="-19.4332481">
        <ele>754.20001</ele>
        <time>2010-01-01T01:12:54Z</time>
      </trkpt>
      <trkpt lat="63.59069670" lon="-19.4332125">
        <ele>753.59997</ele>
        <time>2010-01-01T01:12:55Z</time>
      </trkpt>
      <trkpt lat="63.59067120" lon="-19.4331868">
        <ele>753.00000</ele>
        <time>2010-01-01T01:12:56Z</time>
      </trkpt>
      <trkpt lat="63.59064660" lon="-19.4331671">
        <ele>753.00000</ele>
        <time>2010-01-01T01:12:57Z</time>
      </trkpt>
      <trkpt lat="63.59061490" lon="-19.4331368">
        <ele>752.40002</ele>
        <time>2010-01-01T01:12:59Z</time>
      </trkpt>
      <trkpt lat="63.59058980" lon="-19.4331241">
        <ele>752.20001</ele>
        <time>2010-01-01T01:13:00Z</time>
      </trkpt>
      <trkpt lat="63.59055990" lon="-19.4331048">
        <ele>752.00000</ele>
        <time>2010-01-01T01:13:01Z</time>
      </trkpt>
      <trkpt lat="63.59053000" lon="-19.4330915">
        <ele>751.40002</ele>
        <time>2010-01-01T01:13:02Z</time>
      </trkpt>
      <trkpt lat="63.59049870" lon="-19.4330768">
        <ele>751.20001</ele>
        <time>2010-01-01T01:13:03Z</time>
      </trkpt>
      <trkpt lat="63.59046740" lon="-19.4330648">
        <ele>750.79998</ele>
        <time>2010-01-01T01:13:05Z</time>
      </trkpt>
      <trkpt lat="63.59044240" lon="-19.4330586">
        <ele>751.00000</ele>
        <time>2010-01-01T01:13:06Z</time>
      </trkpt>
      <trkpt lat="63.59041010" lon="-19.4330418">
        <ele>750.59997</ele>
        <time>2010-01-01T01:13:07Z</time>
      </trkpt>
      <trkpt lat="63.59038550" lon="-19.4330402">
        <ele>750.20001</ele>
        <time>2010-01-01T01:13:08Z</time>
      </trkpt>
      <trkpt lat="63.59035440" lon="-19.4330250">
        <ele>750.00000</ele>
        <time>2010-01-01T01:13:09Z</time>
      </trkpt>
      <trkpt lat="63.59032630" lon="-19.4330189">
        <ele>749.59997</ele>
        <time>2010-01-01T01:13:10Z</time>
      </trkpt>
      <trkpt lat="63.59030230" lon="-19.4330151">
        <ele>749.20001</ele>
        <time>2010-01-01T01:13:11Z</time>
      </trkpt>
      <trkpt lat="63.59027140" lon="-19.4330047">
        <ele>748.59997</ele>
        <time>2010-01-01T01:13:13Z</time>
      </trkpt>
      <trkpt lat="63.59024300" lon="-19.4329958">
        <ele>748.00000</ele>
        <time>2010-01-01T01:13:14Z</time>
      </trkpt>
      <trkpt lat="63.59021380" lon="-19.4329877">
        <ele>747.40002</ele>
        <time>2010-01-01T01:13:15Z</time>
      </trkpt>
      <trkpt lat="63.59018610" lon="-19.4329851">
        <ele>747.00000</ele>
        <time>2010-01-01T01:13:16Z</time>
      </trkpt>
      <trkpt lat="63.59015800" lon="-19.4329910">
        <ele>746.79998</ele>
        <time>2010-01-01T01:13:17Z</time>
      </trkpt>
      <trkpt lat="63.59012990" lon="-19.4330009">
        <ele>746.40002</ele>
        <time>2010-01-01T01:13:18Z</time>
      </trkpt>
      <trkpt lat="63.59010450" lon="-19.4330036">
        <ele>745.79998</ele>
        <time>2010-01-01T01:13:19Z</time>
      </trkpt>
      <trkpt lat="63.59007920" lon="-19.4330072">
        <ele>745.40002</ele>
        <time>2010-01-01T01:13:20Z</time>
      </trkpt>
      <trkpt lat="63.59005420" lon="-19.4330217">
        <ele>744.79998</ele>
        <time>2010-01-01T01:13:21Z</time>
      </trkpt>
      <trkpt lat="63.59002510" lon="-19.4330312">
        <ele>744.40002</ele>
        <time>2010-01-01T01:13:23Z</time>
      </trkpt>
      <trkpt lat="63.59000200" lon="-19.4330431">
        <ele>744.20001</ele>
        <time>2010-01-01T01:13:23Z</time>
      </trkpt>
      <trkpt lat="63.58997180" lon="-19.4330576">
        <ele>743.79998</ele>
        <time>2010-01-01T01:13:25Z</time>
      </trkpt>
      <trkpt lat="63.58994550" lon="-19.4330706">
        <ele>743.40002</ele>
        <time>2010-01-01T01:13:26Z</time>
      </trkpt>
      <trkpt lat="63.58991750" lon="-19.4330851">
        <ele>742.79998</ele>
        <time>2010-01-01T01:13:27Z</time>
      </trkpt>
      <trkpt lat="63.58989350" lon="-19.4330939">
        <ele>742.40002</ele>
        <time>2010-01-01T01:13:28Z</time>
      </trkpt>
      <trkpt lat="63.58986490" lon="-19.4331165">
        <ele>741.79998</ele>
        <time>2010-01-01T01:13:29Z</time>
      </trkpt>
      <trkpt lat="63.58983300" lon="-19.4331363">
        <ele>741.20001</ele>
        <time>2010-01-01T01:13:30Z</time>
      </trkpt>
      <trkpt lat="63.58980580" lon="-19.4331505">
        <ele>740.59997</ele>
        <time>2010-01-01T01:13:32Z</time>
      </trkpt>
      <trkpt lat="63.58977510" lon="-19.4331731">
        <ele>740.20001</ele>
        <time>2010-01-01T01:13:33Z</time>
      </trkpt>
      <trkpt lat="63.58974640" lon="-19.4331897">
        <ele>740.00000</ele>
        <time>2010-01-01T01:13:34Z</time>
      </trkpt>
      <trkpt lat="63.58972150" lon="-19.4332000">
        <ele>740.00000</ele>
        <time>2010-01-01T01:13:35Z</time>
      </trkpt>
      <trkpt lat="63.58968710" lon="-19.4332145">
        <ele>739.59997</ele>
        <time>2010-01-01T01:13:36Z</time>
      </trkpt>
      <trkpt lat="63.58965960" lon="-19.4332321">
        <ele>739.20001</ele>
        <time>2010-01-01T01:13:38Z</time>
      </trkpt>
      <trkpt lat="63.58962910" lon="-19.4332560">
        <ele>738.79998</ele>
        <time>2010-01-01T01:13:39Z</time>
      </trkpt>
      <trkpt lat="63.58958040" lon="-19.4332871">
        <ele>738.59997</ele>
        <time>2010-01-01T01:13:41Z</time>
      </trkpt>
      <trkpt lat="63.58954120" lon="-19.4333028">
        <ele>738.20001</ele>
        <time>2010-01-01T01:13:43Z</time>
      </trkpt>
      <trkpt lat="63.58951310" lon="-19.4333249">
        <ele>738.00000</ele>
        <time>2010-01-01T01:13:44Z</time>
      </trkpt>
      <trkpt lat="63.58948480" lon="-19.4333473">
        <ele>738.00000</ele>
        <time>2010-01-01T01:13:45Z</time>
      </trkpt>
      <trkpt lat="63.58945980" lon="-19.4333699">
        <ele>738.00000</ele>
        <time>2010-01-01T01:13:46Z</time>
      </trkpt>
      <trkpt lat="63.58942240" lon="-19.4333844">
        <ele>737.59997</ele>
        <time>2010-01-01T01:13:48Z</time>
      </trkpt>
      <trkpt lat="63.58940280" lon="-19.4333933">
        <ele>737.00000</ele>
        <time>2010-01-01T01:13:48Z</time>
      </trkpt>
      <trkpt lat="63.58937590" lon="-19.4334155">
        <ele>736.79998</ele>
        <time>2010-01-01T01:13:49Z</time>
      </trkpt>
      <trkpt lat="63.58934920" lon="-19.4334459">
        <ele>736.40002</ele>
        <time>2010-01-01T01:13:51Z</time>
      </trkpt>
      <trkpt lat="63.58932830" lon="-19.4334850">
        <ele>736.00000</ele>
        <time>2010-01-01T01:13:52Z</time>
      </trkpt>
      <trkpt lat="63.58929560" lon="-19.4335300">
        <ele>735.20001</ele>
        <time>2010-01-01T01:13:53Z</time>
      </trkpt>
      <trkpt lat="63.58927910" lon="-19.4335715">
        <ele>734.79998</ele>
        <time>2010-01-01T01:13:54Z</time>
      </trkpt>
      <trkpt lat="63.58926060" lon="-19.4336279">
        <ele>734.20001</ele>
        <time>2010-01-01T01:13:56Z</time>
      </trkpt>
      <trkpt lat="63.58924680" lon="-19.4336739">
        <ele>733.59997</ele>
        <time>2010-01-01T01:13:57Z</time>
      </trkpt>
      <trkpt lat="63.58922610" lon="-19.4337190">
        <ele>733.20001</ele>
        <time>2010-01-01T01:13:58Z</time>
      </trkpt>
      <trkpt lat="63.58921220" lon="-19.4337541">
        <ele>733.00000</ele>
        <time>2010-01-01T01:13:59Z</time>
      </trkpt>
      <trkpt lat="63.58919080" lon="-19.4337976">
        <ele>732.79998</ele>
        <time>2010-01-01T01:14:00Z</time>
      </trkpt>
      <trkpt lat="63.58917230" lon="-19.4338342">
        <ele>732.40002</ele>
        <time>2010-01-01T01:14:01Z</time>
      </trkpt>
      <trkpt lat="63.58914790" lon="-19.4338698">
        <ele>732.20001</ele>
        <time>2010-01-01T01:14:02Z</time>
      </trkpt>
      <trkpt lat="63.58912870" lon="-19.4338911">
        <ele>731.59997</ele>
        <time>2010-01-01T01:14:03Z</time>
      </trkpt>
      <trkpt lat="63.58909610" lon="-19.4339232">
        <ele>731.00000</ele>
        <time>2010-01-01T01:14:04Z</time>
      </trkpt>
      <trkpt lat="63.58907160" lon="-19.4339521">
        <ele>730.40002</ele>
        <time>2010-01-01T01:14:05Z</time>
      </trkpt>
      <trkpt lat="63.58903930" lon="-19.4339781">
        <ele>729.79998</ele>
        <time>2010-01-01T01:14:07Z</time>
      </trkpt>
      <trkpt lat="63.58900920" lon="-19.4340137">
        <ele>729.20001</ele>
        <time>2010-01-01T01:14:08Z</time>
      </trkpt>
      <trkpt lat="63.58897250" lon="-19.4340135">
        <ele>728.40002</ele>
        <time>2010-01-01T01:14:09Z</time>
      </trkpt>
      <trkpt lat="63.58893990" lon="-19.4340069">
        <ele>727.79998</ele>
        <time>2010-01-01T01:14:11Z</time>
      </trkpt>
      <trkpt lat="63.58890210" lon="-19.4339974">
        <ele>727.20001</ele>
        <time>2010-01-01T01:14:12Z</time>
      </trkpt>
      <trkpt lat="63.58887190" lon="-19.4340045">
        <ele>726.59997</ele>
        <time>2010-01-01T01:14:13Z</time>
      </trkpt>
      <trkpt lat="63.58883530" lon="-19.4339951">
        <ele>726.00000</ele>
        <time>2010-01-01T01:14:15Z</time>
      </trkpt>
      <trkpt lat="63.58880850" lon="-19.4339826">
        <ele>725.40002</ele>
        <time>2010-01-01T01:14:16Z</time>
      </trkpt>
      <trkpt lat="63.58877070" lon="-19.4339575">
        <ele>724.79998</ele>
        <time>2010-01-01T01:14:18Z</time>
      </trkpt>
      <trkpt lat="63.58874170" lon="-19.4339501">
        <ele>724.79998</ele>
        <time>2010-01-01T01:14:19Z</time>
      </trkpt>
      <trkpt lat="63.58869800" lon="-19.4339220">
        <ele>724.40002</ele>
        <time>2010-01-01T01:14:21Z</time>
      </trkpt>
      <trkpt lat="63.58867040" lon="-19.4339053">
        <ele>724.00000</ele>
        <time>2010-01-01T01:14:22Z</time>
      </trkpt>
      <trkpt lat="63.58863860" lon="-19.4338773">
        <ele>723.20001</ele>
        <time>2010-01-01T01:14:23Z</time>
      </trkpt>
      <trkpt lat="63.58861170" lon="-19.4338718">
        <ele>723.00000</ele>
        <time>2010-01-01T01:14:24Z</time>
      </trkpt>
      <trkpt lat="63.58857600" lon="-19.4338373">
        <ele>722.40002</ele>
        <time>2010-01-01T01:14:26Z</time>
      </trkpt>
      <trkpt lat="63.58854290" lon="-19.4338189">
        <ele>722.00000</ele>
        <time>2010-01-01T01:14:27Z</time>
      </trkpt>
      <trkpt lat="63.58851380" lon="-19.4338009">
        <ele>721.59997</ele>
        <time>2010-01-01T01:14:28Z</time>
      </trkpt>
      <trkpt lat="63.58848580" lon="-19.4337859">
        <ele>721.00000</ele>
        <time>2010-01-01T01:14:29Z</time>
      </trkpt>
      <trkpt lat="63.58845930" lon="-19.4337793">
        <ele>720.79998</ele>
        <time>2010-01-01T01:14:31Z</time>
      </trkpt>
      <trkpt lat="63.58843160" lon="-19.4337624">
        <ele>720.40002</ele>
        <time>2010-01-01T01:14:32Z</time>
      </trkpt>
      <trkpt lat="63.58833050" lon="-19.4337297">
        <ele>720.40002</ele>
        <time>2010-01-01T01:14:36Z</time>
      </trkpt>
      <trkpt lat="63.58827600" lon="-19.4337290">
        <ele>720.40002</ele>
        <time>2010-01-01T01:14:38Z</time>
      </trkpt>
      <trkpt lat="63.58825320" lon="-19.4337311">
        <ele>720.40002</ele>
        <time>2010-01-01T01:14:39Z</time>
      </trkpt>
      <trkpt lat="63.58822980" lon="-19.4337406">
        <ele>720.40002</ele>
        <time>2010-01-01T01:14:40Z</time>
      </trkpt>
      <trkpt lat="63.58819690" lon="-19.4337493">
        <ele>720.40002</ele>
        <time>2010-01-01T01:14:41Z</time>
      </trkpt>
      <trkpt lat="63.58816900" lon="-19.4337619">
        <ele>720.40002</ele>
        <time>2010-01-01T01:14:42Z</time>
      </trkpt>
      <trkpt lat="63.58813820" lon="-19.4337719">
        <ele>720.40002</ele>
        <time>2010-01-01T01:14:44Z</time>
      </trkpt>
      <trkpt lat="63.58811480" lon="-19.4337887">
        <ele>720.40002</ele>
        <time>2010-01-01T01:14:45Z</time>
      </trkpt>
      <trkpt lat="63.58808750" lon="-19.4337978">
        <ele>720.40002</ele>
        <time>2010-01-01T01:14:46Z</time>
      </trkpt>
      <trkpt lat="63.58806190" lon="-19.4338104">
        <ele>720.20001</ele>
        <time>2010-01-01T01:14:47Z</time>
      </trkpt>
      <trkpt lat="63.58803120" lon="-19.4338196">
        <ele>720.20001</ele>
        <time>2010-01-01T01:14:48Z</time>
      </trkpt>
      <trkpt lat="63.58799730" lon="-19.4338340">
        <ele>720.00000</ele>
        <time>2010-01-01T01:14:49Z</time>
      </trkpt>
      <trkpt lat="63.58796810" lon="-19.4338518">
        <ele>719.59997</ele>
        <time>2010-01-01T01:14:51Z</time>
      </trkpt>
      <trkpt lat="63.58793940" lon="-19.4338682">
        <ele>719.40002</ele>
        <time>2010-01-01T01:14:52Z</time>
      </trkpt>
      <trkpt lat="63.58790990" lon="-19.4338914">
        <ele>719.00000</ele>
        <time>2010-01-01T01:14:53Z</time>
      </trkpt>
      <trkpt lat="63.58787840" lon="-19.4339041">
        <ele>718.79998</ele>
        <time>2010-01-01T01:14:54Z</time>
      </trkpt>
      <trkpt lat="63.58784960" lon="-19.4339268">
        <ele>718.40002</ele>
        <time>2010-01-01T01:14:55Z</time>
      </trkpt>
      <trkpt lat="63.58782520" lon="-19.4339449">
        <ele>718.00000</ele>
        <time>2010-01-01T01:14:56Z</time>
      </trkpt>
      <trkpt lat="63.58779550" lon="-19.4339734">
        <ele>718.00000</ele>
        <time>2010-01-01T01:14:58Z</time>
      </trkpt>
      <trkpt lat="63.58776730" lon="-19.4339916">
        <ele>717.59997</ele>
        <time>2010-01-01T01:14:59Z</time>
      </trkpt>
      <trkpt lat="63.58773590" lon="-19.4340182">
        <ele>717.20001</ele>
        <time>2010-01-01T01:15:00Z</time>
      </trkpt>
      <trkpt lat="63.58771350" lon="-19.4340361">
        <ele>716.79998</ele>
        <time>2010-01-01T01:15:01Z</time>
      </trkpt>
      <trkpt lat="63.58768320" lon="-19.4340544">
        <ele>716.40002</ele>
        <time>2010-01-01T01:15:02Z</time>
      </trkpt>
      <trkpt lat="63.58765750" lon="-19.4340946">
        <ele>716.00000</ele>
        <time>2010-01-01T01:15:04Z</time>
      </trkpt>
      <trkpt lat="63.58763470" lon="-19.4341252">
        <ele>715.59997</ele>
        <time>2010-01-01T01:15:05Z</time>
      </trkpt>
      <trkpt lat="63.58760720" lon="-19.4341561">
        <ele>715.20001</ele>
        <time>2010-01-01T01:15:06Z</time>
      </trkpt>
      <trkpt lat="63.58758910" lon="-19.4341822">
        <ele>714.79998</ele>
        <time>2010-01-01T01:15:07Z</time>
      </trkpt>
      <trkpt lat="63.58756380" lon="-19.4342142">
        <ele>714.40002</ele>
        <time>2010-01-01T01:15:08Z</time>
      </trkpt>
      <trkpt lat="63.58752700" lon="-19.4342427">
        <ele>714.00000</ele>
        <time>2010-01-01T01:15:10Z</time>
      </trkpt>
      <trkpt lat="63.58750320" lon="-19.4342647">
        <ele>713.59997</ele>
        <time>2010-01-01T01:15:11Z</time>
      </trkpt>
      <trkpt lat="63.58747240" lon="-19.4343011">
        <ele>713.20001</ele>
        <time>2010-01-01T01:15:12Z</time>
      </trkpt>
      <trkpt lat="63.58744630" lon="-19.4343277">
        <ele>712.79998</ele>
        <time>2010-01-01T01:15:13Z</time>
      </trkpt>
      <trkpt lat="63.58741980" lon="-19.4343647">
        <ele>712.40002</ele>
        <time>2010-01-01T01:15:14Z</time>
      </trkpt>
      <trkpt lat="63.58739670" lon="-19.4343957">
        <ele>712.00000</ele>
        <time>2010-01-01T01:15:16Z</time>
      </trkpt>
      <trkpt lat="63.58731920" lon="-19.4344917">
        <ele>712.00000</ele>
        <time>2010-01-01T01:15:19Z</time>
      </trkpt>
      <trkpt lat="63.58729080" lon="-19.4345141">
        <ele>712.00000</ele>
        <time>2010-01-01T01:15:20Z</time>
      </trkpt>
      <trkpt lat="63.58726550" lon="-19.4345432">
        <ele>712.00000</ele>
        <time>2010-01-01T01:15:21Z</time>
      </trkpt>
      <trkpt lat="63.58723960" lon="-19.4345700">
        <ele>711.59997</ele>
        <time>2010-01-01T01:15:23Z</time>
      </trkpt>
      <trkpt lat="63.58720850" lon="-19.4346006">
        <ele>711.20001</ele>
        <time>2010-01-01T01:15:24Z</time>
      </trkpt>
      <trkpt lat="63.58718810" lon="-19.4346207">
        <ele>710.79998</ele>
        <time>2010-01-01T01:15:25Z</time>
      </trkpt>
      <trkpt lat="63.58716080" lon="-19.4346531">
        <ele>710.40002</ele>
        <time>2010-01-01T01:15:26Z</time>
      </trkpt>
      <trkpt lat="63.58714320" lon="-19.4346775">
        <ele>709.79998</ele>
        <time>2010-01-01T01:15:27Z</time>
      </trkpt>
      <trkpt lat="63.58711830" lon="-19.4347092">
        <ele>709.79998</ele>
        <time>2010-01-01T01:15:28Z</time>
      </trkpt>
      <trkpt lat="63.58708870" lon="-19.4347358">
        <ele>710.00000</ele>
        <time>2010-01-01T01:15:29Z</time>
      </trkpt>
      <trkpt lat="63.58706610" lon="-19.4347660">
        <ele>710.00000</ele>
        <time>2010-01-01T01:15:30Z</time>
      </trkpt>
      <trkpt lat="63.58703450" lon="-19.4347953">
        <ele>709.40002</ele>
        <time>2010-01-01T01:15:32Z</time>
      </trkpt>
      <trkpt lat="63.58701050" lon="-19.4348236">
        <ele>709.00000</ele>
        <time>2010-01-01T01:15:33Z</time>
      </trkpt>
      <trkpt lat="63.58698420" lon="-19.4348583">
        <ele>708.79998</ele>
        <time>2010-01-01T01:15:34Z</time>
      </trkpt>
      <trkpt lat="63.58696150" lon="-19.4348878">
        <ele>708.20001</ele>
        <time>2010-01-01T01:15:35Z</time>
      </trkpt>
      <trkpt lat="63.58693190" lon="-19.4349250">
        <ele>707.79998</ele>
        <time>2010-01-01T01:15:36Z</time>
      </trkpt>
      <trkpt lat="63.58690440" lon="-19.4349570">
        <ele>707.79998</ele>
        <time>2010-01-01T01:15:38Z</time>
      </trkpt>
      <trkpt lat="63.58688330" lon="-19.4349780">
        <ele>707.79998</ele>
        <time>2010-01-01T01:15:39Z</time>
      </trkpt>
      <trkpt lat="63.58685280" lon="-19.4350136">
        <ele>707.79998</ele>
        <time>2010-01-01T01:15:40Z</time>
      </trkpt>
      <trkpt lat="63.58683020" lon="-19.4350357">
        <ele>707.79998</ele>
        <time>2010-01-01T01:15:41Z</time>
      </trkpt>
      <trkpt lat="63.58679930" lon="-19.4350649">
        <ele>707.40002</ele>
        <time>2010-01-01T01:15:42Z</time>
      </trkpt>
      <trkpt lat="63.58677660" lon="-19.4350913">
        <ele>707.00000</ele>
        <time>2010-01-01T01:15:43Z</time>
      </trkpt>
      <trkpt lat="63.58675450" lon="-19.4351218">
        <ele>706.79998</ele>
        <time>2010-01-01T01:15:44Z</time>
      </trkpt>
      <trkpt lat="63.58672630" lon="-19.4351512">
        <ele>706.40002</ele>
        <time>2010-01-01T01:15:46Z</time>
      </trkpt>
      <trkpt lat="63.58670490" lon="-19.4351815">
        <ele>706.20001</ele>
        <time>2010-01-01T01:15:47Z</time>
      </trkpt>
      <trkpt lat="63.58668020" lon="-19.4352117">
        <ele>706.00000</ele>
        <time>2010-01-01T01:15:48Z</time>
      </trkpt>
      <trkpt lat="63.58665230" lon="-19.4352409">
        <ele>705.79998</ele>
        <time>2010-01-01T01:15:49Z</time>
      </trkpt>
      <trkpt lat="63.58663220" lon="-19.4352698">
        <ele>705.79998</ele>
        <time>2010-01-01T01:15:50Z</time>
      </trkpt>
      <trkpt lat="63.58660370" lon="-19.4353262">
        <ele>705.79998</ele>
        <time>2010-01-01T01:15:51Z</time>
      </trkpt>
      <trkpt lat="63.58657950" lon="-19.4353622">
        <ele>705.79998</ele>
        <time>2010-01-01T01:15:53Z</time>
      </trkpt>
      <trkpt lat="63.58655670" lon="-19.4353864">
        <ele>705.79998</ele>
        <time>2010-01-01T01:15:54Z</time>
      </trkpt>
      <trkpt lat="63.58652720" lon="-19.4354217">
        <ele>705.79998</ele>
        <time>2010-01-01T01:15:55Z</time>
      </trkpt>
      <trkpt lat="63.58647830" lon="-19.4354653">
        <ele>705.79998</ele>
        <time>2010-01-01T01:15:57Z</time>
      </trkpt>
      <trkpt lat="63.58638190" lon="-19.4355204">
        <ele>705.79998</ele>
        <time>2010-01-01T01:16:01Z</time>
      </trkpt>
      <trkpt lat="63.58635400" lon="-19.4355403">
        <ele>705.59997</ele>
        <time>2010-01-01T01:16:02Z</time>
      </trkpt>
      <trkpt lat="63.58632690" lon="-19.4355541">
        <ele>705.20001</ele>
        <time>2010-01-01T01:16:03Z</time>
      </trkpt>
      <trkpt lat="63.58629460" lon="-19.4355808">
        <ele>704.79998</ele>
        <time>2010-01-01T01:16:05Z</time>
      </trkpt>
      <trkpt lat="63.58625900" lon="-19.4356080">
        <ele>704.40002</ele>
        <time>2010-01-01T01:16:06Z</time>
      </trkpt>
      <trkpt lat="63.58623840" lon="-19.4356165">
        <ele>703.79998</ele>
        <time>2010-01-01T01:16:07Z</time>
      </trkpt>
      <trkpt lat="63.58620240" lon="-19.4356321">
        <ele>703.20001</ele>
        <time>2010-01-01T01:16:08Z</time>
      </trkpt>
      <trkpt lat="63.58617080" lon="-19.4356566">
        <ele>703.00000</ele>
        <time>2010-01-01T01:16:10Z</time>
      </trkpt>
      <trkpt lat="63.58614300" lon="-19.4356791">
        <ele>702.00000</ele>
        <time>2010-01-01T01:16:11Z</time>
      </trkpt>
      <trkpt lat="63.58609870" lon="-19.4357147">
        <ele>701.40002</ele>
        <time>2010-01-01T01:16:13Z</time>
      </trkpt>
      <trkpt lat="63.58608200" lon="-19.4357316">
        <ele>701.00000</ele>
        <time>2010-01-01T01:16:14Z</time>
      </trkpt>
      <trkpt lat="63.58604120" lon="-19.4357580">
        <ele>700.40002</ele>
        <time>2010-01-01T01:16:15Z</time>
      </trkpt>
      <trkpt lat="63.58601790" lon="-19.4357849">
        <ele>700.00000</ele>
        <time>2010-01-01T01:16:16Z</time>
      </trkpt>
      <trkpt lat="63.58598940" lon="-19.4358118">
        <ele>699.40002</ele>
        <time>2010-01-01T01:16:18Z</time>
      </trkpt>
      <trkpt lat="63.58596110" lon="-19.4358321">
        <ele>699.00000</ele>
        <time>2010-01-01T01:16:19Z</time>
      </trkpt>
      <trkpt lat="63.58594010" lon="-19.4358636">
        <ele>698.59997</ele>
        <time>2010-01-01T01:16:20Z</time>
      </trkpt>
      <trkpt lat="63.58591560" lon="-19.4358937">
        <ele>698.20001</ele>
        <time>2010-01-01T01:16:21Z</time>
      </trkpt>
      <trkpt lat="63.58588320" lon="-19.4359252">
        <ele>697.79998</ele>
        <time>2010-01-01T01:16:22Z</time>
      </trkpt>
      <trkpt lat="63.58586410" lon="-19.4359468">
        <ele>697.59997</ele>
        <time>2010-01-01T01:16:23Z</time>
      </trkpt>
      <trkpt lat="63.58584160" lon="-19.4359792">
        <ele>697.59997</ele>
        <time>2010-01-01T01:16:24Z</time>
      </trkpt>
      <trkpt lat="63.58582390" lon="-19.4360035">
        <ele>697.59997</ele>
        <time>2010-01-01T01:16:25Z</time>
      </trkpt>
      <trkpt lat="63.58579630" lon="-19.4360340">
        <ele>697.59997</ele>
        <time>2010-01-01T01:16:26Z</time>
      </trkpt>
      <trkpt lat="63.58576980" lon="-19.4360521">
        <ele>697.59997</ele>
        <time>2010-01-01T01:16:27Z</time>
      </trkpt>
      <trkpt lat="63.58575050" lon="-19.4360789">
        <ele>697.59997</ele>
        <time>2010-01-01T01:16:28Z</time>
      </trkpt>
      <trkpt lat="63.58572110" lon="-19.4361048">
        <ele>697.40002</ele>
        <time>2010-01-01T01:16:30Z</time>
      </trkpt>
      <trkpt lat="63.58570200" lon="-19.4361252">
        <ele>697.00000</ele>
        <time>2010-01-01T01:16:30Z</time>
      </trkpt>
      <trkpt lat="63.58567540" lon="-19.4361226">
        <ele>696.79998</ele>
        <time>2010-01-01T01:16:32Z</time>
      </trkpt>
      <trkpt lat="63.58564540" lon="-19.4361385">
        <ele>696.40002</ele>
        <time>2010-01-01T01:16:33Z</time>
      </trkpt>
      <trkpt lat="63.58561230" lon="-19.4361704">
        <ele>696.00000</ele>
        <time>2010-01-01T01:16:34Z</time>
      </trkpt>
      <trkpt lat="63.58558630" lon="-19.4362001">
        <ele>695.40002</ele>
        <time>2010-01-01T01:16:35Z</time>
      </trkpt>
      <trkpt lat="63.58556000" lon="-19.4362207">
        <ele>695.20001</ele>
        <time>2010-01-01T01:16:36Z</time>
      </trkpt>
      <trkpt lat="63.58552930" lon="-19.4362397">
        <ele>694.79998</ele>
        <time>2010-01-01T01:16:38Z</time>
      </trkpt>
      <trkpt lat="63.58550710" lon="-19.4362606">
        <ele>694.40002</ele>
        <time>2010-01-01T01:16:39Z</time>
      </trkpt>
      <trkpt lat="63.58547760" lon="-19.4362703">
        <ele>694.00000</ele>
        <time>2010-01-01T01:16:40Z</time>
      </trkpt>
      <trkpt lat="63.58545100" lon="-19.4362856">
        <ele>693.59997</ele>
        <time>2010-01-01T01:16:41Z</time>
      </trkpt>
      <trkpt lat="63.58541980" lon="-19.4363088">
        <ele>693.40002</ele>
        <time>2010-01-01T01:16:42Z</time>
      </trkpt>
      <trkpt lat="63.58539980" lon="-19.4363391">
        <ele>693.00000</ele>
        <time>2010-01-01T01:16:43Z</time>
      </trkpt>
      <trkpt lat="63.58536960" lon="-19.4363577">
        <ele>692.79998</ele>
        <time>2010-01-01T01:16:45Z</time>
      </trkpt>
      <trkpt lat="63.58533670" lon="-19.4363610">
        <ele>692.20001</ele>
        <time>2010-01-01T01:16:46Z</time>
      </trkpt>
      <trkpt lat="63.58530740" lon="-19.4363720">
        <ele>692.00000</ele>
        <time>2010-01-01T01:16:47Z</time>
      </trkpt>
      <trkpt lat="63.58527180" lon="-19.4363851">
        <ele>691.59997</ele>
        <time>2010-01-01T01:16:48Z</time>
      </trkpt>
      <trkpt lat="63.58524460" lon="-19.4363920">
        <ele>691.20001</ele>
        <time>2010-01-01T01:16:50Z</time>
      </trkpt>
      <trkpt lat="63.58517950" lon="-19.4364080">
        <ele>690.79998</ele>
        <time>2010-01-01T01:16:52Z</time>
      </trkpt>
      <trkpt lat="63.58515270" lon="-19.4364183">
        <ele>690.40002</ele>
        <time>2010-01-01T01:16:53Z</time>
      </trkpt>
      <trkpt lat="63.58513270" lon="-19.4364239">
        <ele>690.00000</ele>
        <time>2010-01-01T01:16:54Z</time>
      </trkpt>
      <trkpt lat="63.58510440" lon="-19.4364279">
        <ele>689.59997</ele>
        <time>2010-01-01T01:16:55Z</time>
      </trkpt>
      <trkpt lat="63.58508770" lon="-19.4364298">
        <ele>689.20001</ele>
        <time>2010-01-01T01:16:56Z</time>
      </trkpt>
      <trkpt lat="63.58505600" lon="-19.4364165">
        <ele>688.79998</ele>
        <time>2010-01-01T01:16:57Z</time>
      </trkpt>
      <trkpt lat="63.58502890" lon="-19.4364168">
        <ele>688.40002</ele>
        <time>2010-01-01T01:16:58Z</time>
      </trkpt>
      <trkpt lat="63.58500700" lon="-19.4364183">
        <ele>688.00000</ele>
        <time>2010-01-01T01:16:59Z</time>
      </trkpt>
      <trkpt lat="63.58497260" lon="-19.4364166">
        <ele>687.59997</ele>
        <time>2010-01-01T01:17:01Z</time>
      </trkpt>
      <trkpt lat="63.58494280" lon="-19.4364169">
        <ele>687.20001</ele>
        <time>2010-01-01T01:17:02Z</time>
      </trkpt>
      <trkpt lat="63.58491360" lon="-19.4364174">
        <ele>687.00000</ele>
        <time>2010-01-01T01:17:03Z</time>
      </trkpt>
      <trkpt lat="63.58489540" lon="-19.4364299">
        <ele>687.00000</ele>
        <time>2010-01-01T01:17:04Z</time>
      </trkpt>
      <trkpt lat="63.58487000" lon="-19.4364595">
        <ele>686.59997</ele>
        <time>2010-01-01T01:17:05Z</time>
      </trkpt>
      <trkpt lat="63.58483240" lon="-19.4364732">
        <ele>686.20001</ele>
        <time>2010-01-01T01:17:06Z</time>
      </trkpt>
      <trkpt lat="63.58480680" lon="-19.4364848">
        <ele>685.79998</ele>
        <time>2010-01-01T01:17:07Z</time>
      </trkpt>
      <trkpt lat="63.58477240" lon="-19.4365043">
        <ele>685.40002</ele>
        <time>2010-01-01T01:17:09Z</time>
      </trkpt>
      <trkpt lat="63.58474200" lon="-19.4365251">
        <ele>685.00000</ele>
        <time>2010-01-01T01:17:10Z</time>
      </trkpt>
      <trkpt lat="63.58471510" lon="-19.4365444">
        <ele>684.79998</ele>
        <time>2010-01-01T01:17:11Z</time>
      </trkpt>
      <trkpt lat="63.58468010" lon="-19.4365554">
        <ele>684.79998</ele>
        <time>2010-01-01T01:17:13Z</time>
      </trkpt>
      <trkpt lat="63.58459670" lon="-19.4366055">
        <ele>684.79998</ele>
        <time>2010-01-01T01:17:16Z</time>
      </trkpt>
      <trkpt lat="63.58457090" lon="-19.4366231">
        <ele>684.79998</ele>
        <time>2010-01-01T01:17:17Z</time>
      </trkpt>
      <trkpt lat="63.58454790" lon="-19.4366405">
        <ele>684.20001</ele>
        <time>2010-01-01T01:17:18Z</time>
      </trkpt>
      <trkpt lat="63.58451410" lon="-19.4366532">
        <ele>683.79998</ele>
        <time>2010-01-01T01:17:19Z</time>
      </trkpt>
      <trkpt lat="63.58448630" lon="-19.4366883">
        <ele>683.40002</ele>
        <time>2010-01-01T01:17:21Z</time>
      </trkpt>
      <trkpt lat="63.58445570" lon="-19.4367249">
        <ele>683.00000</ele>
        <time>2010-01-01T01:17:22Z</time>
      </trkpt>
      <trkpt lat="63.58442570" lon="-19.4367387">
        <ele>682.59997</ele>
        <time>2010-01-01T01:17:23Z</time>
      </trkpt>
      <trkpt lat="63.58439630" lon="-19.4367731">
        <ele>682.40002</ele>
        <time>2010-01-01T01:17:25Z</time>
      </trkpt>
      <trkpt lat="63.58437330" lon="-19.4368033">
        <ele>682.00000</ele>
        <time>2010-01-01T01:17:26Z</time>
      </trkpt>
      <trkpt lat="63.58434570" lon="-19.4368323">
        <ele>681.59997</ele>
        <time>2010-01-01T01:17:27Z</time>
      </trkpt>
      <trkpt lat="63.58432390" lon="-19.4368596">
        <ele>681.20001</ele>
        <time>2010-01-01T01:17:28Z</time>
      </trkpt>
      <trkpt lat="63.58430600" lon="-19.4368978">
        <ele>681.00000</ele>
        <time>2010-01-01T01:17:29Z</time>
      </trkpt>
      <trkpt lat="63.58427650" lon="-19.4369269">
        <ele>680.59997</ele>
        <time>2010-01-01T01:17:30Z</time>
      </trkpt>
      <trkpt lat="63.58425110" lon="-19.4369559">
        <ele>680.59997</ele>
        <time>2010-01-01T01:17:31Z</time>
      </trkpt>
      <trkpt lat="63.58423160" lon="-19.4369815">
        <ele>680.59997</ele>
        <time>2010-01-01T01:17:32Z</time>
      </trkpt>
      <trkpt lat="63.58420190" lon="-19.4370031">
        <ele>680.59997</ele>
        <time>2010-01-01T01:17:34Z</time>
      </trkpt>
      <trkpt lat="63.58418450" lon="-19.4370237">
        <ele>680.59997</ele>
        <time>2010-01-01T01:17:34Z</time>
      </trkpt>
      <trkpt lat="63.58415900" lon="-19.4370489">
        <ele>680.59997</ele>
        <time>2010-01-01T01:17:35Z</time>
      </trkpt>
      <trkpt lat="63.58412650" lon="-19.4370809">
        <ele>680.59997</ele>
        <time>2010-01-01T01:17:37Z</time>
      </trkpt>
      <trkpt lat="63.58408220" lon="-19.4371281">
        <ele>680.40002</ele>
        <time>2010-01-01T01:17:39Z</time>
      </trkpt>
      <trkpt lat="63.58406300" lon="-19.4371248">
        <ele>680.59997</ele>
        <time>2010-01-01T01:17:40Z</time>
      </trkpt>
      <trkpt lat="63.58403260" lon="-19.4371653">
        <ele>680.59997</ele>
        <time>2010-01-01T01:17:41Z</time>
      </trkpt>
      <trkpt lat="63.58400170" lon="-19.4371938">
        <ele>680.59997</ele>
        <time>2010-01-01T01:17:42Z</time>
      </trkpt>
      <trkpt lat="63.58397810" lon="-19.4372204">
        <ele>680.00000</ele>
        <time>2010-01-01T01:17:43Z</time>
      </trkpt>
      <trkpt lat="63.58395320" lon="-19.4372483">
        <ele>679.59997</ele>
        <time>2010-01-01T01:17:45Z</time>
      </trkpt>
      <trkpt lat="63.58392830" lon="-19.4372742">
        <ele>679.20001</ele>
        <time>2010-01-01T01:17:46Z</time>
      </trkpt>
      <trkpt lat="63.58390300" lon="-19.4373049">
        <ele>678.79998</ele>
        <time>2010-01-01T01:17:47Z</time>
      </trkpt>
      <trkpt lat="63.58388040" lon="-19.4373352">
        <ele>678.20001</ele>
        <time>2010-01-01T01:17:48Z</time>
      </trkpt>
      <trkpt lat="63.58383100" lon="-19.4373896">
        <ele>678.00000</ele>
        <time>2010-01-01T01:17:50Z</time>
      </trkpt>
      <trkpt lat="63.58380560" lon="-19.4374095">
        <ele>677.59997</ele>
        <time>2010-01-01T01:17:51Z</time>
      </trkpt>
      <trkpt lat="63.58378260" lon="-19.4374471">
        <ele>677.20001</ele>
        <time>2010-01-01T01:17:52Z</time>
      </trkpt>
      <trkpt lat="63.58375550" lon="-19.4374705">
        <ele>676.59997</ele>
        <time>2010-01-01T01:17:53Z</time>
      </trkpt>
      <trkpt lat="63.58373360" lon="-19.4374860">
        <ele>676.20001</ele>
        <time>2010-01-01T01:17:54Z</time>
      </trkpt>
      <trkpt lat="63.58370410" lon="-19.4374921">
        <ele>676.20001</ele>
        <time>2010-01-01T01:17:56Z</time>
      </trkpt>
      <trkpt lat="63.58364810" lon="-19.4375327">
        <ele>675.79998</ele>
        <time>2010-01-01T01:17:58Z</time>
      </trkpt>
      <trkpt lat="63.58362120" lon="-19.4375564">
        <ele>675.40002</ele>
        <time>2010-01-01T01:17:59Z</time>
      </trkpt>
      <trkpt lat="63.58359550" lon="-19.4375915">
        <ele>675.00000</ele>
        <time>2010-01-01T01:18:00Z</time>
      </trkpt>
      <trkpt lat="63.58357220" lon="-19.4376269">
        <ele>674.59997</ele>
        <time>2010-01-01T01:18:01Z</time>
      </trkpt>
      <trkpt lat="63.58355230" lon="-19.4376663">
        <ele>674.20001</ele>
        <time>2010-01-01T01:18:02Z</time>
      </trkpt>
      <trkpt lat="63.58353570" lon="-19.4377119">
        <ele>674.20001</ele>
        <time>2010-01-01T01:18:03Z</time>
      </trkpt>
      <trkpt lat="63.58352090" lon="-19.4377671">
        <ele>673.79998</ele>
        <time>2010-01-01T01:18:05Z</time>
      </trkpt>
      <trkpt lat="63.58351260" lon="-19.4378222">
        <ele>673.40002</ele>
        <time>2010-01-01T01:18:06Z</time>
      </trkpt>
      <trkpt lat="63.58350710" lon="-19.4378849">
        <ele>673.00000</ele>
        <time>2010-01-01T01:18:07Z</time>
      </trkpt>
      <trkpt lat="63.58350550" lon="-19.4379390">
        <ele>672.79998</ele>
        <time>2010-01-01T01:18:08Z</time>
      </trkpt>
      <trkpt lat="63.58350760" lon="-19.4380113">
        <ele>672.20001</ele>
        <time>2010-01-01T01:18:09Z</time>
      </trkpt>
      <trkpt lat="63.58350630" lon="-19.4380785">
        <ele>672.00000</ele>
        <time>2010-01-01T01:18:10Z</time>
      </trkpt>
      <trkpt lat="63.58350670" lon="-19.4381416">
        <ele>672.00000</ele>
        <time>2010-01-01T01:18:11Z</time>
      </trkpt>
      <trkpt lat="63.58351140" lon="-19.4382107">
        <ele>672.00000</ele>
        <time>2010-01-01T01:18:13Z</time>
      </trkpt>
      <trkpt lat="63.58351710" lon="-19.4382733">
        <ele>671.59997</ele>
        <time>2010-01-01T01:18:14Z</time>
      </trkpt>
      <trkpt lat="63.58352310" lon="-19.4383385">
        <ele>671.20001</ele>
        <time>2010-01-01T01:18:15Z</time>
      </trkpt>
      <trkpt lat="63.58352870" lon="-19.4384126">
        <ele>670.79998</ele>
        <time>2010-01-01T01:18:16Z</time>
      </trkpt>
      <trkpt lat="63.58353240" lon="-19.4384721">
        <ele>670.40002</ele>
        <time>2010-01-01T01:18:17Z</time>
      </trkpt>
      <trkpt lat="63.58353580" lon="-19.4385425">
        <ele>670.00000</ele>
        <time>2010-01-01T01:18:19Z</time>
      </trkpt>
      <trkpt lat="63.58353970" lon="-19.4386057">
        <ele>669.79998</ele>
        <time>2010-01-01T01:18:20Z</time>
      </trkpt>
      <trkpt lat="63.58354170" lon="-19.4386723">
        <ele>669.79998</ele>
        <time>2010-01-01T01:18:21Z</time>
      </trkpt>
      <trkpt lat="63.58354350" lon="-19.4387376">
        <ele>669.79998</ele>
        <time>2010-01-01T01:18:22Z</time>
      </trkpt>
      <trkpt lat="63.58354660" lon="-19.4388070">
        <ele>669.79998</ele>
        <time>2010-01-01T01:18:23Z</time>
      </trkpt>
      <trkpt lat="63.58355110" lon="-19.4388759">
        <ele>669.79998</ele>
        <time>2010-01-01T01:18:25Z</time>
      </trkpt>
      <trkpt lat="63.58355180" lon="-19.4389406">
        <ele>669.59997</ele>
        <time>2010-01-01T01:18:26Z</time>
      </trkpt>
      <trkpt lat="63.58355280" lon="-19.4390121">
        <ele>669.20001</ele>
        <time>2010-01-01T01:18:27Z</time>
      </trkpt>
      <trkpt lat="63.58355180" lon="-19.4390801">
        <ele>668.79998</ele>
        <time>2010-01-01T01:18:28Z</time>
      </trkpt>
      <trkpt lat="63.58355130" lon="-19.4391401">
        <ele>668.40002</ele>
        <time>2010-01-01T01:18:29Z</time>
      </trkpt>
      <trkpt lat="63.58354940" lon="-19.4392048">
        <ele>668.00000</ele>
        <time>2010-01-01T01:18:30Z</time>
      </trkpt>
      <trkpt lat="63.58354320" lon="-19.4392676">
        <ele>667.79998</ele>
        <time>2010-01-01T01:18:32Z</time>
      </trkpt>
      <trkpt lat="63.58353520" lon="-19.4393317">
        <ele>667.79998</ele>
        <time>2010-01-01T01:18:33Z</time>
      </trkpt>
      <trkpt lat="63.58352230" lon="-19.4393991">
        <ele>667.79998</ele>
        <time>2010-01-01T01:18:34Z</time>
      </trkpt>
      <trkpt lat="63.58350470" lon="-19.4394665">
        <ele>667.79998</ele>
        <time>2010-01-01T01:18:35Z</time>
      </trkpt>
      <trkpt lat="63.58347430" lon="-19.4395973">
        <ele>667.59997</ele>
        <time>2010-01-01T01:18:38Z</time>
      </trkpt>
      <trkpt lat="63.58345990" lon="-19.4396685">
        <ele>667.20001</ele>
        <time>2010-01-01T01:18:40Z</time>
      </trkpt>
      <trkpt lat="63.58344550" lon="-19.4397325">
        <ele>666.79998</ele>
        <time>2010-01-01T01:18:41Z</time>
      </trkpt>
      <trkpt lat="63.58342920" lon="-19.4397975">
        <ele>666.20001</ele>
        <time>2010-01-01T01:18:42Z</time>
      </trkpt>
      <trkpt lat="63.58341600" lon="-19.4398640">
        <ele>665.79998</ele>
        <time>2010-01-01T01:18:43Z</time>
      </trkpt>
      <trkpt lat="63.58340500" lon="-19.4399190">
        <ele>665.40002</ele>
        <time>2010-01-01T01:18:44Z</time>
      </trkpt>
      <trkpt lat="63.58338800" lon="-19.4399907">
        <ele>664.79998</ele>
        <time>2010-01-01T01:18:46Z</time>
      </trkpt>
      <trkpt lat="63.58337240" lon="-19.4400440">
        <ele>664.40002</ele>
        <time>2010-01-01T01:18:47Z</time>
      </trkpt>
      <trkpt lat="63.58335470" lon="-19.4401121">
        <ele>663.79998</ele>
        <time>2010-01-01T01:18:48Z</time>
      </trkpt>
      <trkpt lat="63.58334200" lon="-19.4401704">
        <ele>663.59997</ele>
        <time>2010-01-01T01:18:50Z</time>
      </trkpt>
      <trkpt lat="63.58332950" lon="-19.4402206">
        <ele>663.40002</ele>
        <time>2010-01-01T01:18:51Z</time>
      </trkpt>
      <trkpt lat="63.58331400" lon="-19.4402770">
        <ele>663.40002</ele>
        <time>2010-01-01T01:18:52Z</time>
      </trkpt>
      <trkpt lat="63.58329740" lon="-19.4403304">
        <ele>663.40002</ele>
        <time>2010-01-01T01:18:53Z</time>
      </trkpt>
      <trkpt lat="63.58328270" lon="-19.4403817">
        <ele>663.40002</ele>
        <time>2010-01-01T01:18:54Z</time>
      </trkpt>
      <trkpt lat="63.58326790" lon="-19.4404299">
        <ele>663.40002</ele>
        <time>2010-01-01T01:18:55Z</time>
      </trkpt>
      <trkpt lat="63.58325370" lon="-19.4404740">
        <ele>663.40002</ele>
        <time>2010-01-01T01:18:56Z</time>
      </trkpt>
      <trkpt lat="63.58323730" lon="-19.4405211">
        <ele>663.59997</ele>
        <time>2010-01-01T01:18:57Z</time>
      </trkpt>
      <trkpt lat="63.58322400" lon="-19.4405714">
        <ele>663.59997</ele>
        <time>2010-01-01T01:18:58Z</time>
      </trkpt>
      <trkpt lat="63.58321110" lon="-19.4406267">
        <ele>663.59997</ele>
        <time>2010-01-01T01:18:59Z</time>
      </trkpt>
      <trkpt lat="63.58319620" lon="-19.4406787">
        <ele>663.59997</ele>
        <time>2010-01-01T01:19:00Z</time>
      </trkpt>
      <trkpt lat="63.58318070" lon="-19.4407262">
        <ele>663.59997</ele>
        <time>2010-01-01T01:19:01Z</time>
      </trkpt>
      <trkpt lat="63.58316450" lon="-19.4407762">
        <ele>663.59997</ele>
        <time>2010-01-01T01:19:03Z</time>
      </trkpt>
      <trkpt lat="63.58314730" lon="-19.4408263">
        <ele>663.40002</ele>
        <time>2010-01-01T01:19:04Z</time>
      </trkpt>
      <trkpt lat="63.58312930" lon="-19.4408703">
        <ele>663.40002</ele>
        <time>2010-01-01T01:19:05Z</time>
      </trkpt>
      <trkpt lat="63.58310890" lon="-19.4409225">
        <ele>663.59997</ele>
        <time>2010-01-01T01:19:06Z</time>
      </trkpt>
      <trkpt lat="63.58309000" lon="-19.4409692">
        <ele>663.40002</ele>
        <time>2010-01-01T01:19:07Z</time>
      </trkpt>
      <trkpt lat="63.58307180" lon="-19.4410209">
        <ele>663.40002</ele>
        <time>2010-01-01T01:19:08Z</time>
      </trkpt>
      <trkpt lat="63.58305570" lon="-19.4410716">
        <ele>663.40002</ele>
        <time>2010-01-01T01:19:09Z</time>
      </trkpt>
      <trkpt lat="63.58303940" lon="-19.4411214">
        <ele>663.40002</ele>
        <time>2010-01-01T01:19:11Z</time>
      </trkpt>
      <trkpt lat="63.58302690" lon="-19.4411599">
        <ele>663.59997</ele>
        <time>2010-01-01T01:19:11Z</time>
      </trkpt>
      <trkpt lat="63.58301060" lon="-19.4412220">
        <ele>663.40002</ele>
        <time>2010-01-01T01:19:13Z</time>
      </trkpt>
      <trkpt lat="63.58299310" lon="-19.4412819">
        <ele>663.40002</ele>
        <time>2010-01-01T01:19:14Z</time>
      </trkpt>
      <trkpt lat="63.58297320" lon="-19.4413355">
        <ele>663.00000</ele>
        <time>2010-01-01T01:19:15Z</time>
      </trkpt>
      <trkpt lat="63.58294880" lon="-19.4413883">
        <ele>662.59997</ele>
        <time>2010-01-01T01:19:17Z</time>
      </trkpt>
      <trkpt lat="63.58292020" lon="-19.4414338">
        <ele>662.20001</ele>
        <time>2010-01-01T01:19:18Z</time>
      </trkpt>
      <trkpt lat="63.58289860" lon="-19.4414623">
        <ele>661.79998</ele>
        <time>2010-01-01T01:19:19Z</time>
      </trkpt>
      <trkpt lat="63.58286540" lon="-19.4414993">
        <ele>661.40002</ele>
        <time>2010-01-01T01:19:20Z</time>
      </trkpt>
      <trkpt lat="63.58283670" lon="-19.4415354">
        <ele>661.40002</ele>
        <time>2010-01-01T01:19:22Z</time>
      </trkpt>
      <trkpt lat="63.58280360" lon="-19.4415780">
        <ele>661.40002</ele>
        <time>2010-01-01T01:19:23Z</time>
      </trkpt>
      <trkpt lat="63.58277270" lon="-19.4416056">
        <ele>661.40002</ele>
        <time>2010-01-01T01:19:25Z</time>
      </trkpt>
      <trkpt lat="63.58274520" lon="-19.4416281">
        <ele>661.40002</ele>
        <time>2010-01-01T01:19:26Z</time>
      </trkpt>
      <trkpt lat="63.58271730" lon="-19.4416498">
        <ele>661.40002</ele>
        <time>2010-01-01T01:19:27Z</time>
      </trkpt>
      <trkpt lat="63.58268710" lon="-19.4416736">
        <ele>661.40002</ele>
        <time>2010-01-01T01:19:28Z</time>
      </trkpt>
      <trkpt lat="63.58266110" lon="-19.4417032">
        <ele>661.40002</ele>
        <time>2010-01-01T01:19:29Z</time>
      </trkpt>
      <trkpt lat="63.58263360" lon="-19.4417268">
        <ele>661.40002</ele>
        <time>2010-01-01T01:19:31Z</time>
      </trkpt>
      <trkpt lat="63.58261150" lon="-19.4417607">
        <ele>661.40002</ele>
        <time>2010-01-01T01:19:32Z</time>
      </trkpt>
      <trkpt lat="63.58257870" lon="-19.4418229">
        <ele>661.40002</ele>
        <time>2010-01-01T01:19:33Z</time>
      </trkpt>
      <trkpt lat="63.58252330" lon="-19.4419419">
        <ele>661.40002</ele>
        <time>2010-01-01T01:19:36Z</time>
      </trkpt>
      <trkpt lat="63.58250820" lon="-19.4419924">
        <ele>661.40002</ele>
        <time>2010-01-01T01:19:38Z</time>
      </trkpt>
      <trkpt lat="63.58249050" lon="-19.4420374">
        <ele>661.40002</ele>
        <time>2010-01-01T01:19:39Z</time>
      </trkpt>
      <trkpt lat="63.58240470" lon="-19.4423394">
        <ele>661.40002</ele>
        <time>2010-01-01T01:19:45Z</time>
      </trkpt>
      <trkpt lat="63.58232510" lon="-19.4426053">
        <ele>661.40002</ele>
        <time>2010-01-01T01:19:51Z</time>
      </trkpt>
      <trkpt lat="63.58221480" lon="-19.4429215">
        <ele>661.40002</ele>
        <time>2010-01-01T01:19:58Z</time>
      </trkpt>
      <trkpt lat="63.58217210" lon="-19.4430240">
        <ele>661.40002</ele>
        <time>2010-01-01T01:20:00Z</time>
      </trkpt>
      <trkpt lat="63.58216300" lon="-19.4430729">
        <ele>661.40002</ele>
        <time>2010-01-01T01:20:01Z</time>
      </trkpt>
      <trkpt lat="63.58214120" lon="-19.4431187">
        <ele>661.40002</ele>
        <time>2010-01-01T01:20:02Z</time>
      </trkpt>
      <trkpt lat="63.58212440" lon="-19.4431590">
        <ele>661.40002</ele>
        <time>2010-01-01T01:20:03Z</time>
      </trkpt>
      <trkpt lat="63.58208950" lon="-19.4432406">
        <ele>661.40002</ele>
        <time>2010-01-01T01:20:05Z</time>
      </trkpt>
      <trkpt lat="63.58207370" lon="-19.4432901">
        <ele>661.40002</ele>
        <time>2010-01-01T01:20:07Z</time>
      </trkpt>
      <trkpt lat="63.58205360" lon="-19.4433292">
        <ele>661.40002</ele>
        <time>2010-01-01T01:20:08Z</time>
      </trkpt>
      <trkpt lat="63.58202310" lon="-19.4433776">
        <ele>661.40002</ele>
        <time>2010-01-01T01:20:09Z</time>
      </trkpt>
      <trkpt lat="63.58198320" lon="-19.4434613">
        <ele>661.00000</ele>
        <time>2010-01-01T01:20:11Z</time>
      </trkpt>
      <trkpt lat="63.58195470" lon="-19.4435010">
        <ele>660.59997</ele>
        <time>2010-01-01T01:20:13Z</time>
      </trkpt>
      <trkpt lat="63.58193400" lon="-19.4435385">
        <ele>660.20001</ele>
        <time>2010-01-01T01:20:14Z</time>
      </trkpt>
      <trkpt lat="63.58191430" lon="-19.4435786">
        <ele>660.00000</ele>
        <time>2010-01-01T01:20:15Z</time>
      </trkpt>
      <trkpt lat="63.58189450" lon="-19.4436165">
        <ele>659.40002</ele>
        <time>2010-01-01T01:20:16Z</time>
      </trkpt>
      <trkpt lat="63.58187870" lon="-19.4436622">
        <ele>659.20001</ele>
        <time>2010-01-01T01:20:17Z</time>
      </trkpt>
      <trkpt lat="63.58185700" lon="-19.4437054">
        <ele>659.20001</ele>
        <time>2010-01-01T01:20:18Z</time>
      </trkpt>
      <trkpt lat="63.58180380" lon="-19.4438498">
        <ele>659.20001</ele>
        <time>2010-01-01T01:20:21Z</time>
      </trkpt>
      <trkpt lat="63.58177900" lon="-19.4438972">
        <ele>659.20001</ele>
        <time>2010-01-01T01:20:23Z</time>
      </trkpt>
      <trkpt lat="63.58176050" lon="-19.4439473">
        <ele>659.20001</ele>
        <time>2010-01-01T01:20:24Z</time>
      </trkpt>
      <trkpt lat="63.58174540" lon="-19.4439980">
        <ele>659.20001</ele>
        <time>2010-01-01T01:20:25Z</time>
      </trkpt>
      <trkpt lat="63.58172550" lon="-19.4440439">
        <ele>659.00000</ele>
        <time>2010-01-01T01:20:26Z</time>
      </trkpt>
      <trkpt lat="63.58171020" lon="-19.4440875">
        <ele>658.59997</ele>
        <time>2010-01-01T01:20:27Z</time>
      </trkpt>
      <trkpt lat="63.58169630" lon="-19.4441358">
        <ele>658.40002</ele>
        <time>2010-01-01T01:20:28Z</time>
      </trkpt>
      <trkpt lat="63.58167340" lon="-19.4441877">
        <ele>657.79998</ele>
        <time>2010-01-01T01:20:29Z</time>
      </trkpt>
      <trkpt lat="63.58165590" lon="-19.4442412">
        <ele>657.40002</ele>
        <time>2010-01-01T01:20:31Z</time>
      </trkpt>
      <trkpt lat="63.58163510" lon="-19.4442947">
        <ele>657.20001</ele>
        <time>2010-01-01T01:20:32Z</time>
      </trkpt>
      <trkpt lat="63.58159940" lon="-19.4444001">
        <ele>657.00000</ele>
        <time>2010-01-01T01:20:34Z</time>
      </trkpt>
      <trkpt lat="63.58158260" lon="-19.4444528">
        <ele>656.40002</ele>
        <time>2010-01-01T01:20:35Z</time>
      </trkpt>
      <trkpt lat="63.58156360" lon="-19.4445009">
        <ele>656.00000</ele>
        <time>2010-01-01T01:20:36Z</time>
      </trkpt>
      <trkpt lat="63.58154860" lon="-19.4445546">
        <ele>655.59997</ele>
        <time>2010-01-01T01:20:38Z</time>
      </trkpt>
      <trkpt lat="63.58153360" lon="-19.4446091">
        <ele>655.20001</ele>
        <time>2010-01-01T01:20:39Z</time>
      </trkpt>
      <trkpt lat="63.58151810" lon="-19.4446652">
        <ele>655.20001</ele>
        <time>2010-01-01T01:20:40Z</time>
      </trkpt>
      <trkpt lat="63.58150030" lon="-19.4446974">
        <ele>655.20001</ele>
        <time>2010-01-01T01:20:41Z</time>
      </trkpt>
      <trkpt lat="63.58148270" lon="-19.4447518">
        <ele>655.20001</ele>
        <time>2010-01-01T01:20:42Z</time>
      </trkpt>
      <trkpt lat="63.58146630" lon="-19.4447992">
        <ele>655.20001</ele>
        <time>2010-01-01T01:20:43Z</time>
      </trkpt>
      <trkpt lat="63.58141590" lon="-19.4449487">
        <ele>655.00000</ele>
        <time>2010-01-01T01:20:46Z</time>
      </trkpt>
      <trkpt lat="63.58139700" lon="-19.4449962">
        <ele>654.59997</ele>
        <time>2010-01-01T01:20:48Z</time>
      </trkpt>
      <trkpt lat="63.58138080" lon="-19.4450522">
        <ele>654.20001</ele>
        <time>2010-01-01T01:20:49Z</time>
      </trkpt>
      <trkpt lat="63.58135940" lon="-19.4451015">
        <ele>653.59997</ele>
        <time>2010-01-01T01:20:50Z</time>
      </trkpt>
      <trkpt lat="63.58134550" lon="-19.4451596">
        <ele>653.40002</ele>
        <time>2010-01-01T01:20:51Z</time>
      </trkpt>
      <trkpt lat="63.58132700" lon="-19.4452020">
        <ele>653.00000</ele>
        <time>2010-01-01T01:20:52Z</time>
      </trkpt>
      <trkpt lat="63.58128440" lon="-19.4453600">
        <ele>653.00000</ele>
        <time>2010-01-01T01:20:55Z</time>
      </trkpt>
      <trkpt lat="63.58126760" lon="-19.4454133">
        <ele>652.79998</ele>
        <time>2010-01-01T01:20:57Z</time>
      </trkpt>
      <trkpt lat="63.58124540" lon="-19.4454557">
        <ele>652.40002</ele>
        <time>2010-01-01T01:20:58Z</time>
      </trkpt>
      <trkpt lat="63.58122420" lon="-19.4455086">
        <ele>652.00000</ele>
        <time>2010-01-01T01:20:59Z</time>
      </trkpt>
      <trkpt lat="63.58120520" lon="-19.4455518">
        <ele>651.40002</ele>
        <time>2010-01-01T01:21:00Z</time>
      </trkpt>
      <trkpt lat="63.58118390" lon="-19.4455928">
        <ele>651.00000</ele>
        <time>2010-01-01T01:21:01Z</time>
      </trkpt>
      <trkpt lat="63.58116300" lon="-19.4456402">
        <ele>650.79998</ele>
        <time>2010-01-01T01:21:02Z</time>
      </trkpt>
      <trkpt lat="63.58113680" lon="-19.4456744">
        <ele>650.79998</ele>
        <time>2010-01-01T01:21:04Z</time>
      </trkpt>
      <trkpt lat="63.58105570" lon="-19.4458402">
        <ele>650.79998</ele>
        <time>2010-01-01T01:21:08Z</time>
      </trkpt>
      <trkpt lat="63.58103010" lon="-19.4458717">
        <ele>650.79998</ele>
        <time>2010-01-01T01:21:09Z</time>
      </trkpt>
      <trkpt lat="63.58100420" lon="-19.4459098">
        <ele>650.59997</ele>
        <time>2010-01-01T01:21:10Z</time>
      </trkpt>
      <trkpt lat="63.58097670" lon="-19.4459506">
        <ele>650.20001</ele>
        <time>2010-01-01T01:21:12Z</time>
      </trkpt>
      <trkpt lat="63.58095240" lon="-19.4459877">
        <ele>650.00000</ele>
        <time>2010-01-01T01:21:13Z</time>
      </trkpt>
      <trkpt lat="63.58093340" lon="-19.4460302">
        <ele>649.59997</ele>
        <time>2010-01-01T01:21:14Z</time>
      </trkpt>
      <trkpt lat="63.58090470" lon="-19.4460659">
        <ele>649.40002</ele>
        <time>2010-01-01T01:21:15Z</time>
      </trkpt>
      <trkpt lat="63.58088240" lon="-19.4461090">
        <ele>649.00000</ele>
        <time>2010-01-01T01:21:17Z</time>
      </trkpt>
      <trkpt lat="63.58085560" lon="-19.4461404">
        <ele>648.59997</ele>
        <time>2010-01-01T01:21:18Z</time>
      </trkpt>
      <trkpt lat="63.58083130" lon="-19.4461845">
        <ele>648.40002</ele>
        <time>2010-01-01T01:21:19Z</time>
      </trkpt>
      <trkpt lat="63.58080720" lon="-19.4462185">
        <ele>648.20001</ele>
        <time>2010-01-01T01:21:20Z</time>
      </trkpt>
      <trkpt lat="63.58078100" lon="-19.4462518">
        <ele>647.79998</ele>
        <time>2010-01-01T01:21:21Z</time>
      </trkpt>
      <trkpt lat="63.58075400" lon="-19.4462880">
        <ele>647.40002</ele>
        <time>2010-01-01T01:21:23Z</time>
      </trkpt>
      <trkpt lat="63.58073070" lon="-19.4463300">
        <ele>647.00000</ele>
        <time>2010-01-01T01:21:24Z</time>
      </trkpt>
      <trkpt lat="63.58069960" lon="-19.4463698">
        <ele>646.59997</ele>
        <time>2010-01-01T01:21:25Z</time>
      </trkpt>
      <trkpt lat="63.58067420" lon="-19.4464031">
        <ele>646.40002</ele>
        <time>2010-01-01T01:21:26Z</time>
      </trkpt>
      <trkpt lat="63.58064290" lon="-19.4464321">
        <ele>646.40002</ele>
        <time>2010-01-01T01:21:28Z</time>
      </trkpt>
      <trkpt lat="63.58055790" lon="-19.4465082">
        <ele>646.40002</ele>
        <time>2010-01-01T01:21:31Z</time>
      </trkpt>
      <trkpt lat="63.58052230" lon="-19.4465243">
        <ele>646.40002</ele>
        <time>2010-01-01T01:21:33Z</time>
      </trkpt>
      <trkpt lat="63.58049120" lon="-19.4465417">
        <ele>646.40002</ele>
        <time>2010-01-01T01:21:34Z</time>
      </trkpt>
      <trkpt lat="63.58037160" lon="-19.4465751">
        <ele>646.40002</ele>
        <time>2010-01-01T01:21:39Z</time>
      </trkpt>
      <trkpt lat="63.58033370" lon="-19.4465762">
        <ele>646.20001</ele>
        <time>2010-01-01T01:21:41Z</time>
      </trkpt>
      <trkpt lat="63.58030150" lon="-19.4465839">
        <ele>645.79998</ele>
        <time>2010-01-01T01:21:42Z</time>
      </trkpt>
      <trkpt lat="63.58026900" lon="-19.4465921">
        <ele>645.40002</ele>
        <time>2010-01-01T01:21:43Z</time>
      </trkpt>
      <trkpt lat="63.58023780" lon="-19.4465996">
        <ele>645.00000</ele>
        <time>2010-01-01T01:21:44Z</time>
      </trkpt>
      <trkpt lat="63.58020660" lon="-19.4466108">
        <ele>644.40002</ele>
        <time>2010-01-01T01:21:46Z</time>
      </trkpt>
      <trkpt lat="63.58017470" lon="-19.4465992">
        <ele>644.20001</ele>
        <time>2010-01-01T01:21:47Z</time>
      </trkpt>
      <trkpt lat="63.58014360" lon="-19.4466056">
        <ele>644.40002</ele>
        <time>2010-01-01T01:21:48Z</time>
      </trkpt>
      <trkpt lat="63.58011310" lon="-19.4466128">
        <ele>644.00000</ele>
        <time>2010-01-01T01:21:49Z</time>
      </trkpt>
      <trkpt lat="63.58008200" lon="-19.4466247">
        <ele>643.59997</ele>
        <time>2010-01-01T01:21:51Z</time>
      </trkpt>
      <trkpt lat="63.58005270" lon="-19.4466460">
        <ele>643.00000</ele>
        <time>2010-01-01T01:21:52Z</time>
      </trkpt>
      <trkpt lat="63.58002270" lon="-19.4466505">
        <ele>642.79998</ele>
        <time>2010-01-01T01:21:53Z</time>
      </trkpt>
      <trkpt lat="63.57997680" lon="-19.4466836">
        <ele>642.40002</ele>
        <time>2010-01-01T01:21:55Z</time>
      </trkpt>
      <trkpt lat="63.57989360" lon="-19.4467396">
        <ele>642.20001</ele>
        <time>2010-01-01T01:21:59Z</time>
      </trkpt>
      <trkpt lat="63.57986380" lon="-19.4467614">
        <ele>642.20001</ele>
        <time>2010-01-01T01:22:00Z</time>
      </trkpt>
      <trkpt lat="63.57983960" lon="-19.4467792">
        <ele>642.20001</ele>
        <time>2010-01-01T01:22:01Z</time>
      </trkpt>
      <trkpt lat="63.57981170" lon="-19.4468009">
        <ele>642.20001</ele>
        <time>2010-01-01T01:22:02Z</time>
      </trkpt>
      <trkpt lat="63.57978640" lon="-19.4468205">
        <ele>642.20001</ele>
        <time>2010-01-01T01:22:03Z</time>
      </trkpt>
      <trkpt lat="63.57976250" lon="-19.4468444">
        <ele>641.79998</ele>
        <time>2010-01-01T01:22:04Z</time>
      </trkpt>
      <trkpt lat="63.57972930" lon="-19.4468680">
        <ele>641.40002</ele>
        <time>2010-01-01T01:22:05Z</time>
      </trkpt>
      <trkpt lat="63.57969930" lon="-19.4468760">
        <ele>641.40002</ele>
        <time>2010-01-01T01:22:07Z</time>
      </trkpt>
      <trkpt lat="63.57967980" lon="-19.4468914">
        <ele>641.00000</ele>
        <time>2010-01-01T01:22:08Z</time>
      </trkpt>
      <trkpt lat="63.57964890" lon="-19.4469104">
        <ele>640.59997</ele>
        <time>2010-01-01T01:22:09Z</time>
      </trkpt>
      <trkpt lat="63.57962540" lon="-19.4469238">
        <ele>640.20001</ele>
        <time>2010-01-01T01:22:10Z</time>
      </trkpt>
      <trkpt lat="63.57959570" lon="-19.4469530">
        <ele>639.79998</ele>
        <time>2010-01-01T01:22:11Z</time>
      </trkpt>
      <trkpt lat="63.57956520" lon="-19.4469636">
        <ele>639.79998</ele>
        <time>2010-01-01T01:22:12Z</time>
      </trkpt>
      <trkpt lat="63.57953680" lon="-19.4469820">
        <ele>639.59997</ele>
        <time>2010-01-01T01:22:13Z</time>
      </trkpt>
      <trkpt lat="63.57950850" lon="-19.4469998">
        <ele>639.40002</ele>
        <time>2010-01-01T01:22:15Z</time>
      </trkpt>
      <trkpt lat="63.57948160" lon="-19.4470197">
        <ele>638.79998</ele>
        <time>2010-01-01T01:22:16Z</time>
      </trkpt>
      <trkpt lat="63.57944410" lon="-19.4470364">
        <ele>638.59997</ele>
        <time>2010-01-01T01:22:17Z</time>
      </trkpt>
      <trkpt lat="63.57941620" lon="-19.4470611">
        <ele>638.00000</ele>
        <time>2010-01-01T01:22:19Z</time>
      </trkpt>
      <trkpt lat="63.57938960" lon="-19.4470807">
        <ele>637.59997</ele>
        <time>2010-01-01T01:22:20Z</time>
      </trkpt>
      <trkpt lat="63.57936180" lon="-19.4471026">
        <ele>637.20001</ele>
        <time>2010-01-01T01:22:21Z</time>
      </trkpt>
      <trkpt lat="63.57932800" lon="-19.4471090">
        <ele>636.79998</ele>
        <time>2010-01-01T01:22:22Z</time>
      </trkpt>
      <trkpt lat="63.57930630" lon="-19.4471481">
        <ele>636.20001</ele>
        <time>2010-01-01T01:22:23Z</time>
      </trkpt>
      <trkpt lat="63.57926990" lon="-19.4471672">
        <ele>635.79998</ele>
        <time>2010-01-01T01:22:25Z</time>
      </trkpt>
      <trkpt lat="63.57924140" lon="-19.4471892">
        <ele>636.00000</ele>
        <time>2010-01-01T01:22:26Z</time>
      </trkpt>
      <trkpt lat="63.57921850" lon="-19.4472144">
        <ele>636.00000</ele>
        <time>2010-01-01T01:22:27Z</time>
      </trkpt>
      <trkpt lat="63.57918890" lon="-19.4472365">
        <ele>635.79998</ele>
        <time>2010-01-01T01:22:28Z</time>
      </trkpt>
      <trkpt lat="63.57916260" lon="-19.4472720">
        <ele>636.00000</ele>
        <time>2010-01-01T01:22:29Z</time>
      </trkpt>
      <trkpt lat="63.57914230" lon="-19.4472875">
        <ele>636.00000</ele>
        <time>2010-01-01T01:22:30Z</time>
      </trkpt>
      <trkpt lat="63.57910900" lon="-19.4473086">
        <ele>635.59997</ele>
        <time>2010-01-01T01:22:32Z</time>
      </trkpt>
      <trkpt lat="63.57908860" lon="-19.4473414">
        <ele>635.20001</ele>
        <time>2010-01-01T01:22:33Z</time>
      </trkpt>
      <trkpt lat="63.57905950" lon="-19.4473620">
        <ele>634.79998</ele>
        <time>2010-01-01T01:22:34Z</time>
      </trkpt>
      <trkpt lat="63.57902720" lon="-19.4473842">
        <ele>634.40002</ele>
        <time>2010-01-01T01:22:35Z</time>
      </trkpt>
      <trkpt lat="63.57900440" lon="-19.4474043">
        <ele>634.00000</ele>
        <time>2010-01-01T01:22:36Z</time>
      </trkpt>
      <trkpt lat="63.57898150" lon="-19.4474220">
        <ele>633.79998</ele>
        <time>2010-01-01T01:22:37Z</time>
      </trkpt>
      <trkpt lat="63.57895380" lon="-19.4474503">
        <ele>633.79998</ele>
        <time>2010-01-01T01:22:38Z</time>
      </trkpt>
      <trkpt lat="63.57893060" lon="-19.4474700">
        <ele>633.79998</ele>
        <time>2010-01-01T01:22:39Z</time>
      </trkpt>
      <trkpt lat="63.57889180" lon="-19.4475077">
        <ele>633.79998</ele>
        <time>2010-01-01T01:22:41Z</time>
      </trkpt>
      <trkpt lat="63.57886220" lon="-19.4475033">
        <ele>633.79998</ele>
        <time>2010-01-01T01:22:42Z</time>
      </trkpt>
      <trkpt lat="63.57883130" lon="-19.4474879">
        <ele>633.79998</ele>
        <time>2010-01-01T01:22:44Z</time>
      </trkpt>
      <trkpt lat="63.57880290" lon="-19.4474875">
        <ele>633.79998</ele>
        <time>2010-01-01T01:22:45Z</time>
      </trkpt>
      <trkpt lat="63.57877810" lon="-19.4474880">
        <ele>633.20001</ele>
        <time>2010-01-01T01:22:46Z</time>
      </trkpt>
      <trkpt lat="63.57873900" lon="-19.4474811">
        <ele>632.79998</ele>
        <time>2010-01-01T01:22:47Z</time>
      </trkpt>
      <trkpt lat="63.57871100" lon="-19.4474598">
        <ele>632.40002</ele>
        <time>2010-01-01T01:22:48Z</time>
      </trkpt>
      <trkpt lat="63.57868300" lon="-19.4474391">
        <ele>632.00000</ele>
        <time>2010-01-01T01:22:50Z</time>
      </trkpt>
      <trkpt lat="63.57865300" lon="-19.4474088">
        <ele>631.59997</ele>
        <time>2010-01-01T01:22:51Z</time>
      </trkpt>
      <trkpt lat="63.57862380" lon="-19.4473924">
        <ele>631.40002</ele>
        <time>2010-01-01T01:22:52Z</time>
      </trkpt>
      <trkpt lat="63.57859130" lon="-19.4473702">
        <ele>631.59997</ele>
        <time>2010-01-01T01:22:54Z</time>
      </trkpt>
      <trkpt lat="63.57856070" lon="-19.4473454">
        <ele>631.59997</ele>
        <time>2010-01-01T01:22:55Z</time>
      </trkpt>
      <trkpt lat="63.57853230" lon="-19.4473022">
        <ele>631.40002</ele>
        <time>2010-01-01T01:22:56Z</time>
      </trkpt>
      <trkpt lat="63.57850380" lon="-19.4472857">
        <ele>631.40002</ele>
        <time>2010-01-01T01:22:57Z</time>
      </trkpt>
      <trkpt lat="63.57847530" lon="-19.4472646">
        <ele>631.20001</ele>
        <time>2010-01-01T01:22:59Z</time>
      </trkpt>
      <trkpt lat="63.57844850" lon="-19.4472446">
        <ele>631.00000</ele>
        <time>2010-01-01T01:23:00Z</time>
      </trkpt>
      <trkpt lat="63.57841780" lon="-19.4472203">
        <ele>630.59997</ele>
        <time>2010-01-01T01:23:01Z</time>
      </trkpt>
      <trkpt lat="63.57839020" lon="-19.4472000">
        <ele>630.40002</ele>
        <time>2010-01-01T01:23:02Z</time>
      </trkpt>
      <trkpt lat="63.57836700" lon="-19.4471962">
        <ele>630.00000</ele>
        <time>2010-01-01T01:23:03Z</time>
      </trkpt>
      <trkpt lat="63.57833380" lon="-19.4472040">
        <ele>629.79998</ele>
        <time>2010-01-01T01:23:04Z</time>
      </trkpt>
      <trkpt lat="63.57830960" lon="-19.4472070">
        <ele>629.40002</ele>
        <time>2010-01-01T01:23:05Z</time>
      </trkpt>
      <trkpt lat="63.57828870" lon="-19.4472140">
        <ele>629.20001</ele>
        <time>2010-01-01T01:23:06Z</time>
      </trkpt>
      <trkpt lat="63.57825070" lon="-19.4472305">
        <ele>629.20001</ele>
        <time>2010-01-01T01:23:08Z</time>
      </trkpt>
      <trkpt lat="63.57822500" lon="-19.4472297">
        <ele>629.40002</ele>
        <time>2010-01-01T01:23:09Z</time>
      </trkpt>
      <trkpt lat="63.57821210" lon="-19.4472329">
        <ele>629.40002</ele>
        <time>2010-01-01T01:23:09Z</time>
      </trkpt>
      <trkpt lat="63.57820750" lon="-19.4472249">
        <ele>629.40002</ele>
        <time>2010-01-01T01:23:10Z</time>
      </trkpt>
      <trkpt lat="63.57817520" lon="-19.4472329">
        <ele>629.40002</ele>
        <time>2010-01-01T01:23:11Z</time>
      </trkpt>
      <trkpt lat="63.57814170" lon="-19.4472524">
        <ele>629.40002</ele>
        <time>2010-01-01T01:23:12Z</time>
      </trkpt>
      <trkpt lat="63.57812040" lon="-19.4472898">
        <ele>629.40002</ele>
        <time>2010-01-01T01:23:13Z</time>
      </trkpt>
      <trkpt lat="63.57809290" lon="-19.4473205">
        <ele>629.40002</ele>
        <time>2010-01-01T01:23:15Z</time>
      </trkpt>
      <trkpt lat="63.57806560" lon="-19.4473565">
        <ele>629.20001</ele>
        <time>2010-01-01T01:23:16Z</time>
      </trkpt>
      <trkpt lat="63.57805210" lon="-19.4473601">
        <ele>629.00000</ele>
        <time>2010-01-01T01:23:16Z</time>
      </trkpt>
      <trkpt lat="63.57802130" lon="-19.4473987">
        <ele>628.59997</ele>
        <time>2010-01-01T01:23:18Z</time>
      </trkpt>
      <trkpt lat="63.57799160" lon="-19.4474334">
        <ele>628.00000</ele>
        <time>2010-01-01T01:23:19Z</time>
      </trkpt>
      <trkpt lat="63.57796080" lon="-19.4474602">
        <ele>627.59997</ele>
        <time>2010-01-01T01:23:21Z</time>
      </trkpt>
      <trkpt lat="63.57792610" lon="-19.4474693">
        <ele>627.00000</ele>
        <time>2010-01-01T01:23:22Z</time>
      </trkpt>
      <trkpt lat="63.57789820" lon="-19.4474840">
        <ele>627.20001</ele>
        <time>2010-01-01T01:23:23Z</time>
      </trkpt>
      <trkpt lat="63.57788560" lon="-19.4474977">
        <ele>627.20001</ele>
        <time>2010-01-01T01:23:24Z</time>
      </trkpt>
      <trkpt lat="63.57783980" lon="-19.4475363">
        <ele>627.20001</ele>
        <time>2010-01-01T01:23:26Z</time>
      </trkpt>
      <trkpt lat="63.57781480" lon="-19.4475491">
        <ele>627.20001</ele>
        <time>2010-01-01T01:23:27Z</time>
      </trkpt>
      <trkpt lat="63.57778870" lon="-19.4475604">
        <ele>627.20001</ele>
        <time>2010-01-01T01:23:28Z</time>
      </trkpt>
      <trkpt lat="63.57775350" lon="-19.4475614">
        <ele>627.20001</ele>
        <time>2010-01-01T01:23:29Z</time>
      </trkpt>
      <trkpt lat="63.57772780" lon="-19.4475577">
        <ele>627.20001</ele>
        <time>2010-01-01T01:23:30Z</time>
      </trkpt>
      <trkpt lat="63.57769680" lon="-19.4475441">
        <ele>627.20001</ele>
        <time>2010-01-01T01:23:31Z</time>
      </trkpt>
      <trkpt lat="63.57766410" lon="-19.4475564">
        <ele>627.20001</ele>
        <time>2010-01-01T01:23:33Z</time>
      </trkpt>
      <trkpt lat="63.57763320" lon="-19.4475567">
        <ele>627.20001</ele>
        <time>2010-01-01T01:23:34Z</time>
      </trkpt>
      <trkpt lat="63.57759840" lon="-19.4475605">
        <ele>627.20001</ele>
        <time>2010-01-01T01:23:35Z</time>
      </trkpt>
      <trkpt lat="63.57757650" lon="-19.4475626">
        <ele>627.00000</ele>
        <time>2010-01-01T01:23:36Z</time>
      </trkpt>
      <trkpt lat="63.57754240" lon="-19.4475532">
        <ele>626.59997</ele>
        <time>2010-01-01T01:23:38Z</time>
      </trkpt>
      <trkpt lat="63.57751200" lon="-19.4475545">
        <ele>626.20001</ele>
        <time>2010-01-01T01:23:39Z</time>
      </trkpt>
      <trkpt lat="63.57748770" lon="-19.4475356">
        <ele>625.79998</ele>
        <time>2010-01-01T01:23:40Z</time>
      </trkpt>
      <trkpt lat="63.57745900" lon="-19.4475272">
        <ele>625.40002</ele>
        <time>2010-01-01T01:23:41Z</time>
      </trkpt>
      <trkpt lat="63.57743360" lon="-19.4475360">
        <ele>625.00000</ele>
        <time>2010-01-01T01:23:42Z</time>
      </trkpt>
      <trkpt lat="63.57739990" lon="-19.4475278">
        <ele>624.79998</ele>
        <time>2010-01-01T01:23:43Z</time>
      </trkpt>
      <trkpt lat="63.57736350" lon="-19.4475218">
        <ele>625.00000</ele>
        <time>2010-01-01T01:23:45Z</time>
      </trkpt>
      <trkpt lat="63.57734350" lon="-19.4475037">
        <ele>625.00000</ele>
        <time>2010-01-01T01:23:46Z</time>
      </trkpt>
      <trkpt lat="63.57730880" lon="-19.4474833">
        <ele>625.00000</ele>
        <time>2010-01-01T01:23:47Z</time>
      </trkpt>
      <trkpt lat="63.57728590" lon="-19.4474820">
        <ele>624.59997</ele>
        <time>2010-01-01T01:23:48Z</time>
      </trkpt>
      <trkpt lat="63.57726000" lon="-19.4474314">
        <ele>624.20001</ele>
        <time>2010-01-01T01:23:49Z</time>
      </trkpt>
      <trkpt lat="63.57722940" lon="-19.4473889">
        <ele>624.00000</ele>
        <time>2010-01-01T01:23:51Z</time>
      </trkpt>
      <trkpt lat="63.57720900" lon="-19.4473567">
        <ele>623.79998</ele>
        <time>2010-01-01T01:23:52Z</time>
      </trkpt>
      <trkpt lat="63.57718450" lon="-19.4473238">
        <ele>623.59997</ele>
        <time>2010-01-01T01:23:53Z</time>
      </trkpt>
      <trkpt lat="63.57716180" lon="-19.4472790">
        <ele>623.20001</ele>
        <time>2010-01-01T01:23:54Z</time>
      </trkpt>
      <trkpt lat="63.57713920" lon="-19.4472549">
        <ele>622.79998</ele>
        <time>2010-01-01T01:23:55Z</time>
      </trkpt>
      <trkpt lat="63.57711330" lon="-19.4472099">
        <ele>622.79998</ele>
        <time>2010-01-01T01:23:57Z</time>
      </trkpt>
      <trkpt lat="63.57709170" lon="-19.4471939">
        <ele>622.79998</ele>
        <time>2010-01-01T01:23:57Z</time>
      </trkpt>
      <trkpt lat="63.57707400" lon="-19.4471749">
        <ele>623.00000</ele>
        <time>2010-01-01T01:23:58Z</time>
      </trkpt>
      <trkpt lat="63.57705620" lon="-19.4471633">
        <ele>622.59997</ele>
        <time>2010-01-01T01:23:59Z</time>
      </trkpt>
      <trkpt lat="63.57703570" lon="-19.4471359">
        <ele>622.20001</ele>
        <time>2010-01-01T01:24:00Z</time>
      </trkpt>
      <trkpt lat="63.57702110" lon="-19.4471395">
        <ele>622.00000</ele>
        <time>2010-01-01T01:24:00Z</time>
      </trkpt>
      <trkpt lat="63.57700780" lon="-19.4471241">
        <ele>621.59997</ele>
        <time>2010-01-01T01:24:01Z</time>
      </trkpt>
      <trkpt lat="63.57699230" lon="-19.4470826">
        <ele>621.20001</ele>
        <time>2010-01-01T01:24:02Z</time>
      </trkpt>
      <trkpt lat="63.57698310" lon="-19.4470611">
        <ele>620.79998</ele>
        <time>2010-01-01T01:24:03Z</time>
      </trkpt>
      <trkpt lat="63.57697870" lon="-19.4470113">
        <ele>620.79998</ele>
        <time>2010-01-01T01:24:03Z</time>
      </trkpt>
      <trkpt lat="63.57697400" lon="-19.4469638">
        <ele>620.79998</ele>
        <time>2010-01-01T01:24:04Z</time>
      </trkpt>
      <trkpt lat="63.57696490" lon="-19.4469395">
        <ele>620.79998</ele>
        <time>2010-01-01T01:24:05Z</time>
      </trkpt>
      <trkpt lat="63.57695750" lon="-19.4469038">
        <ele>620.40002</ele>
        <time>2010-01-01T01:24:06Z</time>
      </trkpt>
      <trkpt lat="63.57694480" lon="-19.4468481">
        <ele>620.00000</ele>
        <time>2010-01-01T01:24:07Z</time>
      </trkpt>
      <trkpt lat="63.57693540" lon="-19.4468179">
        <ele>619.59997</ele>
        <time>2010-01-01T01:24:07Z</time>
      </trkpt>
      <trkpt lat="63.57692620" lon="-19.4467809">
        <ele>619.20001</ele>
        <time>2010-01-01T01:24:08Z</time>
      </trkpt>
      <trkpt lat="63.57692010" lon="-19.4467531">
        <ele>618.79998</ele>
        <time>2010-01-01T01:24:09Z</time>
      </trkpt>
      <trkpt lat="63.57691940" lon="-19.4467416">
        <ele>618.79998</ele>
        <time>2010-01-01T01:24:09Z</time>
      </trkpt>
      <trkpt lat="63.57692270" lon="-19.4467559">
        <ele>618.79998</ele>
        <time>2010-01-01T01:24:09Z</time>
      </trkpt>
      <trkpt lat="63.57692540" lon="-19.4467218">
        <ele>618.79998</ele>
        <time>2010-01-01T01:24:10Z</time>
      </trkpt>
      <trkpt lat="63.57694000" lon="-19.4467213">
        <ele>618.79998</ele>
        <time>2010-01-01T01:24:10Z</time>
      </trkpt>
      <trkpt lat="63.57695580" lon="-19.4467139">
        <ele>618.79998</ele>
        <time>2010-01-01T01:24:11Z</time>
      </trkpt>
      <trkpt lat="63.57696470" lon="-19.4467077">
        <ele>618.79998</ele>
        <time>2010-01-01T01:24:11Z</time>
      </trkpt>
      <trkpt lat="63.57692410" lon="-19.4466870">
        <ele>618.79998</ele>
        <time>2010-01-01T01:24:13Z</time>
      </trkpt>
      <trkpt lat="63.57690690" lon="-19.4466846">
        <ele>618.59997</ele>
        <time>2010-01-01T01:24:14Z</time>
      </trkpt>
      <trkpt lat="63.57688990" lon="-19.4467238">
        <ele>618.20001</ele>
        <time>2010-01-01T01:24:15Z</time>
      </trkpt>
      <trkpt lat="63.57686990" lon="-19.4467680">
        <ele>617.59997</ele>
        <time>2010-01-01T01:24:16Z</time>
      </trkpt>
      <trkpt lat="63.57685390" lon="-19.4467898">
        <ele>617.20001</ele>
        <time>2010-01-01T01:24:17Z</time>
      </trkpt>
      <trkpt lat="63.57682190" lon="-19.4468207">
        <ele>616.59997</ele>
        <time>2010-01-01T01:24:18Z</time>
      </trkpt>
      <trkpt lat="63.57679860" lon="-19.4468522">
        <ele>616.59997</ele>
        <time>2010-01-01T01:24:19Z</time>
      </trkpt>
      <trkpt lat="63.57677700" lon="-19.4468681">
        <ele>616.59997</ele>
        <time>2010-01-01T01:24:20Z</time>
      </trkpt>
      <trkpt lat="63.57675390" lon="-19.4468621">
        <ele>616.20001</ele>
        <time>2010-01-01T01:24:21Z</time>
      </trkpt>
      <trkpt lat="63.57672210" lon="-19.4468520">
        <ele>615.79998</ele>
        <time>2010-01-01T01:24:22Z</time>
      </trkpt>
      <trkpt lat="63.57670000" lon="-19.4468264">
        <ele>615.40002</ele>
        <time>2010-01-01T01:24:23Z</time>
      </trkpt>
      <trkpt lat="63.57667690" lon="-19.4468496">
        <ele>614.79998</ele>
        <time>2010-01-01T01:24:24Z</time>
      </trkpt>
      <trkpt lat="63.57665060" lon="-19.4468914">
        <ele>614.59997</ele>
        <time>2010-01-01T01:24:26Z</time>
      </trkpt>
      <trkpt lat="63.57663600" lon="-19.4469130">
        <ele>614.40002</ele>
        <time>2010-01-01T01:24:26Z</time>
      </trkpt>
      <trkpt lat="63.57661550" lon="-19.4469511">
        <ele>614.40002</ele>
        <time>2010-01-01T01:24:27Z</time>
      </trkpt>
      <trkpt lat="63.57659700" lon="-19.4469921">
        <ele>614.40002</ele>
        <time>2010-01-01T01:24:28Z</time>
      </trkpt>
      <trkpt lat="63.57656900" lon="-19.4470195">
        <ele>614.40002</ele>
        <time>2010-01-01T01:24:30Z</time>
      </trkpt>
      <trkpt lat="63.57653990" lon="-19.4470392">
        <ele>614.40002</ele>
        <time>2010-01-01T01:24:31Z</time>
      </trkpt>
      <trkpt lat="63.57651500" lon="-19.4470387">
        <ele>614.40002</ele>
        <time>2010-01-01T01:24:32Z</time>
      </trkpt>
      <trkpt lat="63.57649090" lon="-19.4470596">
        <ele>614.40002</ele>
        <time>2010-01-01T01:24:33Z</time>
      </trkpt>
      <trkpt lat="63.57647160" lon="-19.4470780">
        <ele>614.40002</ele>
        <time>2010-01-01T01:24:34Z</time>
      </trkpt>
      <trkpt lat="63.57644870" lon="-19.4471290">
        <ele>614.40002</ele>
        <time>2010-01-01T01:24:35Z</time>
      </trkpt>
      <trkpt lat="63.57642740" lon="-19.4471625">
        <ele>614.40002</ele>
        <time>2010-01-01T01:24:36Z</time>
      </trkpt>
      <trkpt lat="63.57640490" lon="-19.4471834">
        <ele>614.40002</ele>
        <time>2010-01-01T01:24:37Z</time>
      </trkpt>
      <trkpt lat="63.57638950" lon="-19.4472122">
        <ele>614.40002</ele>
        <time>2010-01-01T01:24:38Z</time>
      </trkpt>
      <trkpt lat="63.57636240" lon="-19.4472507">
        <ele>614.40002</ele>
        <time>2010-01-01T01:24:39Z</time>
      </trkpt>
      <trkpt lat="63.57633890" lon="-19.4472522">
        <ele>614.40002</ele>
        <time>2010-01-01T01:24:40Z</time>
      </trkpt>
      <trkpt lat="63.57632050" lon="-19.4472744">
        <ele>614.40002</ele>
        <time>2010-01-01T01:24:41Z</time>
      </trkpt>
      <trkpt lat="63.57630070" lon="-19.4472978">
        <ele>614.40002</ele>
        <time>2010-01-01T01:24:42Z</time>
      </trkpt>
      <trkpt lat="63.57628460" lon="-19.4473176">
        <ele>614.40002</ele>
        <time>2010-01-01T01:24:42Z</time>
      </trkpt>
      <trkpt lat="63.57627230" lon="-19.4473386">
        <ele>614.40002</ele>
        <time>2010-01-01T01:24:43Z</time>
      </trkpt>
      <trkpt lat="63.57624700" lon="-19.4473634">
        <ele>614.40002</ele>
        <time>2010-01-01T01:24:44Z</time>
      </trkpt>
      <trkpt lat="63.57623070" lon="-19.4473995">
        <ele>614.40002</ele>
        <time>2010-01-01T01:24:45Z</time>
      </trkpt>
      <trkpt lat="63.57620950" lon="-19.4474199">
        <ele>614.40002</ele>
        <time>2010-01-01T01:24:46Z</time>
      </trkpt>
      <trkpt lat="63.57619300" lon="-19.4474513">
        <ele>614.40002</ele>
        <time>2010-01-01T01:24:47Z</time>
      </trkpt>
      <trkpt lat="63.57617060" lon="-19.4474665">
        <ele>614.40002</ele>
        <time>2010-01-01T01:24:48Z</time>
      </trkpt>
      <trkpt lat="63.57614330" lon="-19.4474707">
        <ele>614.40002</ele>
        <time>2010-01-01T01:24:49Z</time>
      </trkpt>
      <trkpt lat="63.57611640" lon="-19.4474671">
        <ele>614.40002</ele>
        <time>2010-01-01T01:24:50Z</time>
      </trkpt>
      <trkpt lat="63.57609000" lon="-19.4474753">
        <ele>614.40002</ele>
        <time>2010-01-01T01:24:51Z</time>
      </trkpt>
      <trkpt lat="63.57606650" lon="-19.4474852">
        <ele>614.40002</ele>
        <time>2010-01-01T01:24:52Z</time>
      </trkpt>
      <trkpt lat="63.57605240" lon="-19.4475190">
        <ele>614.00000</ele>
        <time>2010-01-01T01:24:53Z</time>
      </trkpt>
      <trkpt lat="63.57602610" lon="-19.4475655">
        <ele>613.79998</ele>
        <time>2010-01-01T01:24:54Z</time>
      </trkpt>
      <trkpt lat="63.57601330" lon="-19.4476183">
        <ele>613.59997</ele>
        <time>2010-01-01T01:24:55Z</time>
      </trkpt>
      <trkpt lat="63.57599420" lon="-19.4476779">
        <ele>613.20001</ele>
        <time>2010-01-01T01:24:57Z</time>
      </trkpt>
      <trkpt lat="63.57597280" lon="-19.4477158">
        <ele>612.59997</ele>
        <time>2010-01-01T01:24:58Z</time>
      </trkpt>
      <trkpt lat="63.57595760" lon="-19.4477642">
        <ele>612.20001</ele>
        <time>2010-01-01T01:24:59Z</time>
      </trkpt>
      <trkpt lat="63.57594010" lon="-19.4478130">
        <ele>612.20001</ele>
        <time>2010-01-01T01:25:00Z</time>
      </trkpt>
      <trkpt lat="63.57592410" lon="-19.4478566">
        <ele>612.20001</ele>
        <time>2010-01-01T01:25:01Z</time>
      </trkpt>
      <trkpt lat="63.57590850" lon="-19.4479000">
        <ele>612.20001</ele>
        <time>2010-01-01T01:25:02Z</time>
      </trkpt>
      <trkpt lat="63.57589300" lon="-19.4479595">
        <ele>612.20001</ele>
        <time>2010-01-01T01:25:03Z</time>
      </trkpt>
      <trkpt lat="63.57588760" lon="-19.4480131">
        <ele>612.40002</ele>
        <time>2010-01-01T01:25:04Z</time>
      </trkpt>
      <trkpt lat="63.57588330" lon="-19.4480742">
        <ele>612.20001</ele>
        <time>2010-01-01T01:25:05Z</time>
      </trkpt>
      <trkpt lat="63.57586530" lon="-19.4481396">
        <ele>612.20001</ele>
        <time>2010-01-01T01:25:07Z</time>
      </trkpt>
      <trkpt lat="63.57586150" lon="-19.4481762">
        <ele>612.20001</ele>
        <time>2010-01-01T01:25:07Z</time>
      </trkpt>
      <trkpt lat="63.57584400" lon="-19.4482254">
        <ele>612.20001</ele>
        <time>2010-01-01T01:25:08Z</time>
      </trkpt>
      <trkpt lat="63.57580730" lon="-19.4482827">
        <ele>612.20001</ele>
        <time>2010-01-01T01:25:10Z</time>
      </trkpt>
      <trkpt lat="63.57578210" lon="-19.4483347">
        <ele>612.20001</ele>
        <time>2010-01-01T01:25:11Z</time>
      </trkpt>
      <trkpt lat="63.57576140" lon="-19.4483750">
        <ele>612.20001</ele>
        <time>2010-01-01T01:25:13Z</time>
      </trkpt>
      <trkpt lat="63.57574120" lon="-19.4484482">
        <ele>612.20001</ele>
        <time>2010-01-01T01:25:14Z</time>
      </trkpt>
      <trkpt lat="63.57571800" lon="-19.4484946">
        <ele>611.79998</ele>
        <time>2010-01-01T01:25:15Z</time>
      </trkpt>
      <trkpt lat="63.57568460" lon="-19.4485116">
        <ele>611.59997</ele>
        <time>2010-01-01T01:25:17Z</time>
      </trkpt>
      <trkpt lat="63.57566020" lon="-19.4485432">
        <ele>611.20001</ele>
        <time>2010-01-01T01:25:18Z</time>
      </trkpt>
      <trkpt lat="63.57563250" lon="-19.4485915">
        <ele>610.79998</ele>
        <time>2010-01-01T01:25:19Z</time>
      </trkpt>
      <trkpt lat="63.57561200" lon="-19.4486311">
        <ele>610.40002</ele>
        <time>2010-01-01T01:25:20Z</time>
      </trkpt>
      <trkpt lat="63.57559550" lon="-19.4486748">
        <ele>609.79998</ele>
        <time>2010-01-01T01:25:21Z</time>
      </trkpt>
      <trkpt lat="63.57557500" lon="-19.4487157">
        <ele>609.40002</ele>
        <time>2010-01-01T01:25:22Z</time>
      </trkpt>
      <trkpt lat="63.57555470" lon="-19.4487471">
        <ele>609.00000</ele>
        <time>2010-01-01T01:25:23Z</time>
      </trkpt>
      <trkpt lat="63.57554260" lon="-19.4487929">
        <ele>608.59997</ele>
        <time>2010-01-01T01:25:24Z</time>
      </trkpt>
      <trkpt lat="63.57551690" lon="-19.4488633">
        <ele>608.00000</ele>
        <time>2010-01-01T01:25:26Z</time>
      </trkpt>
      <trkpt lat="63.57550350" lon="-19.4489210">
        <ele>608.00000</ele>
        <time>2010-01-01T01:25:27Z</time>
      </trkpt>
      <trkpt lat="63.57548380" lon="-19.4489657">
        <ele>608.00000</ele>
        <time>2010-01-01T01:25:28Z</time>
      </trkpt>
      <trkpt lat="63.57546550" lon="-19.4490095">
        <ele>608.00000</ele>
        <time>2010-01-01T01:25:29Z</time>
      </trkpt>
      <trkpt lat="63.57544230" lon="-19.4490545">
        <ele>608.00000</ele>
        <time>2010-01-01T01:25:31Z</time>
      </trkpt>
      <trkpt lat="63.57541990" lon="-19.4490935">
        <ele>608.00000</ele>
        <time>2010-01-01T01:25:32Z</time>
      </trkpt>
      <trkpt lat="63.57539120" lon="-19.4491232">
        <ele>608.00000</ele>
        <time>2010-01-01T01:25:33Z</time>
      </trkpt>
      <trkpt lat="63.57536880" lon="-19.4491613">
        <ele>608.00000</ele>
        <time>2010-01-01T01:25:34Z</time>
      </trkpt>
      <trkpt lat="63.57535200" lon="-19.4491967">
        <ele>608.00000</ele>
        <time>2010-01-01T01:25:35Z</time>
      </trkpt>
      <trkpt lat="63.57532010" lon="-19.4492257">
        <ele>608.00000</ele>
        <time>2010-01-01T01:25:36Z</time>
      </trkpt>
      <trkpt lat="63.57527940" lon="-19.4493020">
        <ele>608.00000</ele>
        <time>2010-01-01T01:25:39Z</time>
      </trkpt>
      <trkpt lat="63.57526020" lon="-19.4493483">
        <ele>608.00000</ele>
        <time>2010-01-01T01:25:40Z</time>
      </trkpt>
      <trkpt lat="63.57523800" lon="-19.4493927">
        <ele>608.00000</ele>
        <time>2010-01-01T01:25:41Z</time>
      </trkpt>
      <trkpt lat="63.57523560" lon="-19.4494586">
        <ele>608.00000</ele>
        <time>2010-01-01T01:25:42Z</time>
      </trkpt>
      <trkpt lat="63.57522540" lon="-19.4495305">
        <ele>608.00000</ele>
        <time>2010-01-01T01:25:43Z</time>
      </trkpt>
      <trkpt lat="63.57521490" lon="-19.4495812">
        <ele>607.59997</ele>
        <time>2010-01-01T01:25:44Z</time>
      </trkpt>
      <trkpt lat="63.57520000" lon="-19.4496259">
        <ele>607.20001</ele>
        <time>2010-01-01T01:25:45Z</time>
      </trkpt>
      <trkpt lat="63.57517600" lon="-19.4496919">
        <ele>607.00000</ele>
        <time>2010-01-01T01:25:47Z</time>
      </trkpt>
      <trkpt lat="63.57516220" lon="-19.4497490">
        <ele>606.59997</ele>
        <time>2010-01-01T01:25:48Z</time>
      </trkpt>
      <trkpt lat="63.57515580" lon="-19.4498221">
        <ele>606.40002</ele>
        <time>2010-01-01T01:25:49Z</time>
      </trkpt>
      <trkpt lat="63.57513630" lon="-19.4498772">
        <ele>606.00000</ele>
        <time>2010-01-01T01:25:51Z</time>
      </trkpt>
      <trkpt lat="63.57511840" lon="-19.4499363">
        <ele>605.79998</ele>
        <time>2010-01-01T01:25:52Z</time>
      </trkpt>
      <trkpt lat="63.57509980" lon="-19.4499916">
        <ele>605.20001</ele>
        <time>2010-01-01T01:25:53Z</time>
      </trkpt>
      <trkpt lat="63.57508610" lon="-19.4500291">
        <ele>604.79998</ele>
        <time>2010-01-01T01:25:54Z</time>
      </trkpt>
      <trkpt lat="63.57507090" lon="-19.4500975">
        <ele>604.20001</ele>
        <time>2010-01-01T01:25:55Z</time>
      </trkpt>
      <trkpt lat="63.57506800" lon="-19.4501646">
        <ele>603.79998</ele>
        <time>2010-01-01T01:25:57Z</time>
      </trkpt>
      <trkpt lat="63.57506400" lon="-19.4502224">
        <ele>604.00000</ele>
        <time>2010-01-01T01:25:58Z</time>
      </trkpt>
      <trkpt lat="63.57506320" lon="-19.4502942">
        <ele>603.79998</ele>
        <time>2010-01-01T01:25:59Z</time>
      </trkpt>
      <trkpt lat="63.57507350" lon="-19.4503459">
        <ele>603.20001</ele>
        <time>2010-01-01T01:26:00Z</time>
      </trkpt>
      <trkpt lat="63.57508050" lon="-19.4504102">
        <ele>602.79998</ele>
        <time>2010-01-01T01:26:01Z</time>
      </trkpt>
      <trkpt lat="63.57508260" lon="-19.4504560">
        <ele>602.40002</ele>
        <time>2010-01-01T01:26:02Z</time>
      </trkpt>
      <trkpt lat="63.57508890" lon="-19.4505097">
        <ele>602.00000</ele>
        <time>2010-01-01T01:26:03Z</time>
      </trkpt>
      <trkpt lat="63.57508790" lon="-19.4505529">
        <ele>602.00000</ele>
        <time>2010-01-01T01:26:04Z</time>
      </trkpt>
      <trkpt lat="63.57508520" lon="-19.4506036">
        <ele>602.00000</ele>
        <time>2010-01-01T01:26:05Z</time>
      </trkpt>
      <trkpt lat="63.57508260" lon="-19.4506517">
        <ele>601.79998</ele>
        <time>2010-01-01T01:26:05Z</time>
      </trkpt>
      <trkpt lat="63.57508850" lon="-19.4507173">
        <ele>602.00000</ele>
        <time>2010-01-01T01:26:07Z</time>
      </trkpt>
      <trkpt lat="63.57508150" lon="-19.4507809">
        <ele>602.00000</ele>
        <time>2010-01-01T01:26:08Z</time>
      </trkpt>
      <trkpt lat="63.57507960" lon="-19.4508337">
        <ele>601.79998</ele>
        <time>2010-01-01T01:26:09Z</time>
      </trkpt>
      <trkpt lat="63.57506750" lon="-19.4508798">
        <ele>601.79998</ele>
        <time>2010-01-01T01:26:10Z</time>
      </trkpt>
      <trkpt lat="63.57505750" lon="-19.4509232">
        <ele>601.79998</ele>
        <time>2010-01-01T01:26:11Z</time>
      </trkpt>
      <trkpt lat="63.57504730" lon="-19.4509701">
        <ele>601.79998</ele>
        <time>2010-01-01T01:26:11Z</time>
      </trkpt>
      <trkpt lat="63.57504160" lon="-19.4510196">
        <ele>601.79998</ele>
        <time>2010-01-01T01:26:12Z</time>
      </trkpt>
      <trkpt lat="63.57504340" lon="-19.4510720">
        <ele>601.79998</ele>
        <time>2010-01-01T01:26:13Z</time>
      </trkpt>
      <trkpt lat="63.57504300" lon="-19.4511258">
        <ele>601.79998</ele>
        <time>2010-01-01T01:26:14Z</time>
      </trkpt>
      <trkpt lat="63.57503400" lon="-19.4511888">
        <ele>601.59997</ele>
        <time>2010-01-01T01:26:15Z</time>
      </trkpt>
      <trkpt lat="63.57502740" lon="-19.4512460">
        <ele>601.40002</ele>
        <time>2010-01-01T01:26:16Z</time>
      </trkpt>
      <trkpt lat="63.57501560" lon="-19.4513014">
        <ele>601.00000</ele>
        <time>2010-01-01T01:26:18Z</time>
      </trkpt>
      <trkpt lat="63.57501220" lon="-19.4513676">
        <ele>600.59997</ele>
        <time>2010-01-01T01:26:19Z</time>
      </trkpt>
      <trkpt lat="63.57500370" lon="-19.4514342">
        <ele>600.20001</ele>
        <time>2010-01-01T01:26:20Z</time>
      </trkpt>
      <trkpt lat="63.57500250" lon="-19.4515132">
        <ele>599.59997</ele>
        <time>2010-01-01T01:26:21Z</time>
      </trkpt>
      <trkpt lat="63.57501030" lon="-19.4515904">
        <ele>599.40002</ele>
        <time>2010-01-01T01:26:23Z</time>
      </trkpt>
      <trkpt lat="63.57502440" lon="-19.4516751">
        <ele>599.20001</ele>
        <time>2010-01-01T01:26:24Z</time>
      </trkpt>
      <trkpt lat="63.57502470" lon="-19.4517172">
        <ele>599.00000</ele>
        <time>2010-01-01T01:26:25Z</time>
      </trkpt>
      <trkpt lat="63.57502330" lon="-19.4517707">
        <ele>598.40002</ele>
        <time>2010-01-01T01:26:26Z</time>
      </trkpt>
      <trkpt lat="63.57502530" lon="-19.4518344">
        <ele>598.40002</ele>
        <time>2010-01-01T01:26:27Z</time>
      </trkpt>
      <trkpt lat="63.57502340" lon="-19.4518755">
        <ele>598.00000</ele>
        <time>2010-01-01T01:26:28Z</time>
      </trkpt>
      <trkpt lat="63.57501820" lon="-19.4519429">
        <ele>597.79998</ele>
        <time>2010-01-01T01:26:29Z</time>
      </trkpt>
      <trkpt lat="63.57500350" lon="-19.4519954">
        <ele>597.79998</ele>
        <time>2010-01-01T01:26:30Z</time>
      </trkpt>
      <trkpt lat="63.57499710" lon="-19.4520476">
        <ele>597.79998</ele>
        <time>2010-01-01T01:26:31Z</time>
      </trkpt>
      <trkpt lat="63.57499580" lon="-19.4521027">
        <ele>597.59997</ele>
        <time>2010-01-01T01:26:32Z</time>
      </trkpt>
      <trkpt lat="63.57499090" lon="-19.4521606">
        <ele>597.59997</ele>
        <time>2010-01-01T01:26:33Z</time>
      </trkpt>
      <trkpt lat="63.57498480" lon="-19.4522178">
        <ele>597.59997</ele>
        <time>2010-01-01T01:26:34Z</time>
      </trkpt>
      <trkpt lat="63.57498080" lon="-19.4522695">
        <ele>597.79998</ele>
        <time>2010-01-01T01:26:35Z</time>
      </trkpt>
      <trkpt lat="63.57497230" lon="-19.4523317">
        <ele>597.79998</ele>
        <time>2010-01-01T01:26:36Z</time>
      </trkpt>
      <trkpt lat="63.57496710" lon="-19.4523884">
        <ele>597.79998</ele>
        <time>2010-01-01T01:26:38Z</time>
      </trkpt>
      <trkpt lat="63.57496370" lon="-19.4524526">
        <ele>597.79998</ele>
        <time>2010-01-01T01:26:39Z</time>
      </trkpt>
      <trkpt lat="63.57495880" lon="-19.4525244">
        <ele>597.79998</ele>
        <time>2010-01-01T01:26:40Z</time>
      </trkpt>
      <trkpt lat="63.57495080" lon="-19.4525856">
        <ele>597.79998</ele>
        <time>2010-01-01T01:26:41Z</time>
      </trkpt>
      <trkpt lat="63.57495080" lon="-19.4526374">
        <ele>597.79998</ele>
        <time>2010-01-01T01:26:42Z</time>
      </trkpt>
      <trkpt lat="63.57494860" lon="-19.4527068">
        <ele>597.79998</ele>
        <time>2010-01-01T01:26:43Z</time>
      </trkpt>
      <trkpt lat="63.57493880" lon="-19.4527596">
        <ele>597.79998</ele>
        <time>2010-01-01T01:26:44Z</time>
      </trkpt>
      <trkpt lat="63.57493500" lon="-19.4528138">
        <ele>597.79998</ele>
        <time>2010-01-01T01:26:45Z</time>
      </trkpt>
      <trkpt lat="63.57492390" lon="-19.4528691">
        <ele>597.79998</ele>
        <time>2010-01-01T01:26:46Z</time>
      </trkpt>
      <trkpt lat="63.57491040" lon="-19.4529103">
        <ele>597.79998</ele>
        <time>2010-01-01T01:26:47Z</time>
      </trkpt>
      <trkpt lat="63.57489430" lon="-19.4529549">
        <ele>597.79998</ele>
        <time>2010-01-01T01:26:48Z</time>
      </trkpt>
      <trkpt lat="63.57487050" lon="-19.4529773">
        <ele>597.79998</ele>
        <time>2010-01-01T01:26:49Z</time>
      </trkpt>
      <trkpt lat="63.57485440" lon="-19.4529931">
        <ele>597.79998</ele>
        <time>2010-01-01T01:26:50Z</time>
      </trkpt>
      <trkpt lat="63.57483590" lon="-19.4530315">
        <ele>597.79998</ele>
        <time>2010-01-01T01:26:51Z</time>
      </trkpt>
      <trkpt lat="63.57482020" lon="-19.4530646">
        <ele>597.79998</ele>
        <time>2010-01-01T01:26:52Z</time>
      </trkpt>
      <trkpt lat="63.57479700" lon="-19.4531152">
        <ele>597.40002</ele>
        <time>2010-01-01T01:26:53Z</time>
      </trkpt>
      <trkpt lat="63.57478540" lon="-19.4531600">
        <ele>597.00000</ele>
        <time>2010-01-01T01:26:54Z</time>
      </trkpt>
      <trkpt lat="63.57477090" lon="-19.4531809">
        <ele>596.59997</ele>
        <time>2010-01-01T01:26:55Z</time>
      </trkpt>
      <trkpt lat="63.57475410" lon="-19.4532263">
        <ele>596.20001</ele>
        <time>2010-01-01T01:26:56Z</time>
      </trkpt>
      <trkpt lat="63.57473430" lon="-19.4532667">
        <ele>595.40002</ele>
        <time>2010-01-01T01:26:57Z</time>
      </trkpt>
      <trkpt lat="63.57473180" lon="-19.4533002">
        <ele>595.20001</ele>
        <time>2010-01-01T01:26:57Z</time>
      </trkpt>
      <trkpt lat="63.57472140" lon="-19.4533566">
        <ele>595.00000</ele>
        <time>2010-01-01T01:26:59Z</time>
      </trkpt>
      <trkpt lat="63.57471970" lon="-19.4533941">
        <ele>594.40002</ele>
        <time>2010-01-01T01:26:59Z</time>
      </trkpt>
      <trkpt lat="63.57471450" lon="-19.4534374">
        <ele>594.20001</ele>
        <time>2010-01-01T01:27:00Z</time>
      </trkpt>
      <trkpt lat="63.57470180" lon="-19.4534860">
        <ele>593.59997</ele>
        <time>2010-01-01T01:27:01Z</time>
      </trkpt>
      <trkpt lat="63.57468600" lon="-19.4535372">
        <ele>593.59997</ele>
        <time>2010-01-01T01:27:02Z</time>
      </trkpt>
      <trkpt lat="63.57467520" lon="-19.4535775">
        <ele>593.20001</ele>
        <time>2010-01-01T01:27:03Z</time>
      </trkpt>
      <trkpt lat="63.57466700" lon="-19.4536026">
        <ele>592.79998</ele>
        <time>2010-01-01T01:27:04Z</time>
      </trkpt>
      <trkpt lat="63.57466010" lon="-19.4536211">
        <ele>592.59997</ele>
        <time>2010-01-01T01:27:04Z</time>
      </trkpt>
      <trkpt lat="63.57465590" lon="-19.4536331">
        <ele>592.20001</ele>
        <time>2010-01-01T01:27:04Z</time>
      </trkpt>
      <trkpt lat="63.57464890" lon="-19.4536581">
        <ele>591.59997</ele>
        <time>2010-01-01T01:27:05Z</time>
      </trkpt>
      <trkpt lat="63.57463810" lon="-19.4536894">
        <ele>591.40002</ele>
        <time>2010-01-01T01:27:05Z</time>
      </trkpt>
      <trkpt lat="63.57463210" lon="-19.4537272">
        <ele>591.20001</ele>
        <time>2010-01-01T01:27:06Z</time>
      </trkpt>
      <trkpt lat="63.57463710" lon="-19.4537513">
        <ele>590.79998</ele>
        <time>2010-01-01T01:27:07Z</time>
      </trkpt>
      <trkpt lat="63.57464220" lon="-19.4537851">
        <ele>590.59997</ele>
        <time>2010-01-01T01:27:07Z</time>
      </trkpt>
      <trkpt lat="63.57464390" lon="-19.4538249">
        <ele>590.40002</ele>
        <time>2010-01-01T01:27:08Z</time>
      </trkpt>
      <trkpt lat="63.57464580" lon="-19.4538333">
        <ele>590.40002</ele>
        <time>2010-01-01T01:27:08Z</time>
      </trkpt>
      <trkpt lat="63.57465840" lon="-19.4539063">
        <ele>589.59997</ele>
        <time>2010-01-01T01:27:10Z</time>
      </trkpt>
      <trkpt lat="63.57466950" lon="-19.4539589">
        <ele>589.20001</ele>
        <time>2010-01-01T01:27:11Z</time>
      </trkpt>
      <trkpt lat="63.57467530" lon="-19.4540064">
        <ele>588.79998</ele>
        <time>2010-01-01T01:27:12Z</time>
      </trkpt>
      <trkpt lat="63.57467000" lon="-19.4540812">
        <ele>588.20001</ele>
        <time>2010-01-01T01:27:13Z</time>
      </trkpt>
      <trkpt lat="63.57466840" lon="-19.4541213">
        <ele>588.00000</ele>
        <time>2010-01-01T01:27:14Z</time>
      </trkpt>
      <trkpt lat="63.57466690" lon="-19.4541623">
        <ele>587.00000</ele>
        <time>2010-01-01T01:27:14Z</time>
      </trkpt>
      <trkpt lat="63.57467500" lon="-19.4541998">
        <ele>586.59997</ele>
        <time>2010-01-01T01:27:15Z</time>
      </trkpt>
      <trkpt lat="63.57469180" lon="-19.4542297">
        <ele>586.00000</ele>
        <time>2010-01-01T01:27:16Z</time>
      </trkpt>
      <trkpt lat="63.57471350" lon="-19.4542531">
        <ele>585.40002</ele>
        <time>2010-01-01T01:27:17Z</time>
      </trkpt>
      <trkpt lat="63.57473870" lon="-19.4542691">
        <ele>584.40002</ele>
        <time>2010-01-01T01:27:18Z</time>
      </trkpt>
      <trkpt lat="63.57476940" lon="-19.4542919">
        <ele>583.79998</ele>
        <time>2010-01-01T01:27:19Z</time>
      </trkpt>
      <trkpt lat="63.57476940" lon="-19.4543257">
        <ele>583.00000</ele>
        <time>2010-01-01T01:27:20Z</time>
      </trkpt>
      <trkpt lat="63.57478030" lon="-19.4543688">
        <ele>581.59997</ele>
        <time>2010-01-01T01:27:21Z</time>
      </trkpt>
      <trkpt lat="63.57479480" lon="-19.4544243">
        <ele>580.20001</ele>
        <time>2010-01-01T01:27:22Z</time>
      </trkpt>
      <trkpt lat="63.57478990" lon="-19.4544545">
        <ele>579.59997</ele>
        <time>2010-01-01T01:27:22Z</time>
      </trkpt>
      <trkpt lat="63.57478850" lon="-19.4544952">
        <ele>578.79998</ele>
        <time>2010-01-01T01:27:23Z</time>
      </trkpt>
      <trkpt lat="63.57479910" lon="-19.4545488">
        <ele>577.79998</ele>
        <time>2010-01-01T01:27:24Z</time>
      </trkpt>
      <trkpt lat="63.57477560" lon="-19.4545841">
        <ele>576.40002</ele>
        <time>2010-01-01T01:27:25Z</time>
      </trkpt>
      <trkpt lat="63.57476110" lon="-19.4546327">
        <ele>575.40002</ele>
        <time>2010-01-01T01:27:26Z</time>
      </trkpt>
      <trkpt lat="63.57477360" lon="-19.4546586">
        <ele>574.79998</ele>
        <time>2010-01-01T01:27:27Z</time>
      </trkpt>
      <trkpt lat="63.57480000" lon="-19.4546830">
        <ele>573.59997</ele>
        <time>2010-01-01T01:27:28Z</time>
      </trkpt>
      <trkpt lat="63.57481710" lon="-19.4547242">
        <ele>573.20001</ele>
        <time>2010-01-01T01:27:29Z</time>
      </trkpt>
      <trkpt lat="63.57483150" lon="-19.4547425">
        <ele>572.40002</ele>
        <time>2010-01-01T01:27:30Z</time>
      </trkpt>
      <trkpt lat="63.57484940" lon="-19.4547720">
        <ele>571.59997</ele>
        <time>2010-01-01T01:27:31Z</time>
      </trkpt>
      <trkpt lat="63.57486400" lon="-19.4547724">
        <ele>570.79998</ele>
        <time>2010-01-01T01:27:31Z</time>
      </trkpt>
      <trkpt lat="63.57488650" lon="-19.4548026">
        <ele>570.20001</ele>
        <time>2010-01-01T01:27:32Z</time>
      </trkpt>
      <trkpt lat="63.57490430" lon="-19.4548368">
        <ele>569.79998</ele>
        <time>2010-01-01T01:27:33Z</time>
      </trkpt>
      <trkpt lat="63.57492210" lon="-19.4548640">
        <ele>569.00000</ele>
        <time>2010-01-01T01:27:34Z</time>
      </trkpt>
      <trkpt lat="63.57494310" lon="-19.4548821">
        <ele>568.59997</ele>
        <time>2010-01-01T01:27:35Z</time>
      </trkpt>
      <trkpt lat="63.57496890" lon="-19.4548969">
        <ele>567.40002</ele>
        <time>2010-01-01T01:27:36Z</time>
      </trkpt>
      <trkpt lat="63.57499060" lon="-19.4549098">
        <ele>567.00000</ele>
        <time>2010-01-01T01:27:37Z</time>
      </trkpt>
      <trkpt lat="63.57501550" lon="-19.4549183">
        <ele>566.40002</ele>
        <time>2010-01-01T01:27:38Z</time>
      </trkpt>
      <trkpt lat="63.57504140" lon="-19.4549365">
        <ele>565.20001</ele>
        <time>2010-01-01T01:27:39Z</time>
      </trkpt>
      <trkpt lat="63.57506570" lon="-19.4549623">
        <ele>564.40002</ele>
        <time>2010-01-01T01:27:40Z</time>
      </trkpt>
      <trkpt lat="63.57508820" lon="-19.4550065">
        <ele>563.59997</ele>
        <time>2010-01-01T01:27:41Z</time>
      </trkpt>
      <trkpt lat="63.57510670" lon="-19.4550238">
        <ele>562.79998</ele>
        <time>2010-01-01T01:27:42Z</time>
      </trkpt>
      <trkpt lat="63.57512250" lon="-19.4550555">
        <ele>562.20001</ele>
        <time>2010-01-01T01:27:43Z</time>
      </trkpt>
      <trkpt lat="63.57514720" lon="-19.4550801">
        <ele>561.59997</ele>
        <time>2010-01-01T01:27:44Z</time>
      </trkpt>
      <trkpt lat="63.57517030" lon="-19.4551107">
        <ele>561.00000</ele>
        <time>2010-01-01T01:27:45Z</time>
      </trkpt>
      <trkpt lat="63.57518620" lon="-19.4551219">
        <ele>560.20001</ele>
        <time>2010-01-01T01:27:46Z</time>
      </trkpt>
      <trkpt lat="63.57520240" lon="-19.4551541">
        <ele>559.59997</ele>
        <time>2010-01-01T01:27:47Z</time>
      </trkpt>
      <trkpt lat="63.57520360" lon="-19.4552017">
        <ele>558.79998</ele>
        <time>2010-01-01T01:27:48Z</time>
      </trkpt>
      <trkpt lat="63.57518400" lon="-19.4552461">
        <ele>558.40002</ele>
        <time>2010-01-01T01:27:49Z</time>
      </trkpt>
      <trkpt lat="63.57517100" lon="-19.4552738">
        <ele>557.59997</ele>
        <time>2010-01-01T01:27:49Z</time>
      </trkpt>
      <trkpt lat="63.57516650" lon="-19.4552935">
        <ele>556.79998</ele>
        <time>2010-01-01T01:27:50Z</time>
      </trkpt>
      <trkpt lat="63.57516710" lon="-19.4553117">
        <ele>556.20001</ele>
        <time>2010-01-01T01:27:50Z</time>
      </trkpt>
      <trkpt lat="63.57517880" lon="-19.4553363">
        <ele>555.59997</ele>
        <time>2010-01-01T01:27:51Z</time>
      </trkpt>
      <trkpt lat="63.57519310" lon="-19.4553722">
        <ele>554.59997</ele>
        <time>2010-01-01T01:27:52Z</time>
      </trkpt>
      <trkpt lat="63.57520450" lon="-19.4554135">
        <ele>554.40002</ele>
        <time>2010-01-01T01:27:53Z</time>
      </trkpt>
      <trkpt lat="63.57522270" lon="-19.4554390">
        <ele>554.20001</ele>
        <time>2010-01-01T01:27:53Z</time>
      </trkpt>
      <trkpt lat="63.57523470" lon="-19.4554567">
        <ele>553.79998</ele>
        <time>2010-01-01T01:27:54Z</time>
      </trkpt>
      <trkpt lat="63.57525090" lon="-19.4554791">
        <ele>553.59997</ele>
        <time>2010-01-01T01:27:55Z</time>
      </trkpt>
      <trkpt lat="63.57526660" lon="-19.4554645">
        <ele>552.79998</ele>
        <time>2010-01-01T01:27:55Z</time>
      </trkpt>
      <trkpt lat="63.57528110" lon="-19.4555145">
        <ele>551.59997</ele>
        <time>2010-01-01T01:27:56Z</time>
      </trkpt>
      <trkpt lat="63.57529780" lon="-19.4555364">
        <ele>550.79998</ele>
        <time>2010-01-01T01:27:57Z</time>
      </trkpt>
      <trkpt lat="63.57531080" lon="-19.4555608">
        <ele>549.40002</ele>
        <time>2010-01-01T01:27:58Z</time>
      </trkpt>
      <trkpt lat="63.57532200" lon="-19.4555968">
        <ele>548.79998</ele>
        <time>2010-01-01T01:27:59Z</time>
      </trkpt>
      <trkpt lat="63.57533200" lon="-19.4556366">
        <ele>547.79998</ele>
        <time>2010-01-01T01:27:59Z</time>
      </trkpt>
      <trkpt lat="63.57534110" lon="-19.4556793">
        <ele>547.20001</ele>
        <time>2010-01-01T01:28:00Z</time>
      </trkpt>
      <trkpt lat="63.57535200" lon="-19.4557076">
        <ele>546.00000</ele>
        <time>2010-01-01T01:28:01Z</time>
      </trkpt>
      <trkpt lat="63.57536450" lon="-19.4557651">
        <ele>545.20001</ele>
        <time>2010-01-01T01:28:02Z</time>
      </trkpt>
      <trkpt lat="63.57537290" lon="-19.4557976">
        <ele>544.79998</ele>
        <time>2010-01-01T01:28:03Z</time>
      </trkpt>
      <trkpt lat="63.57537920" lon="-19.4558300">
        <ele>544.00000</ele>
        <time>2010-01-01T01:28:03Z</time>
      </trkpt>
      <trkpt lat="63.57539810" lon="-19.4558583">
        <ele>542.59997</ele>
        <time>2010-01-01T01:28:04Z</time>
      </trkpt>
      <trkpt lat="63.57541280" lon="-19.4559055">
        <ele>542.20001</ele>
        <time>2010-01-01T01:28:05Z</time>
      </trkpt>
      <trkpt lat="63.57540360" lon="-19.4559430">
        <ele>541.00000</ele>
        <time>2010-01-01T01:28:06Z</time>
      </trkpt>
      <trkpt lat="63.57538000" lon="-19.4559954">
        <ele>540.59997</ele>
        <time>2010-01-01T01:28:07Z</time>
      </trkpt>
      <trkpt lat="63.57538190" lon="-19.4560716">
        <ele>539.79998</ele>
        <time>2010-01-01T01:28:09Z</time>
      </trkpt>
      <trkpt lat="63.57538500" lon="-19.4561423">
        <ele>539.20001</ele>
        <time>2010-01-01T01:28:10Z</time>
      </trkpt>
      <trkpt lat="63.57539640" lon="-19.4561988">
        <ele>538.59997</ele>
        <time>2010-01-01T01:28:11Z</time>
      </trkpt>
      <trkpt lat="63.57541150" lon="-19.4562475">
        <ele>537.79998</ele>
        <time>2010-01-01T01:28:12Z</time>
      </trkpt>
      <trkpt lat="63.57542530" lon="-19.4562960">
        <ele>537.40002</ele>
        <time>2010-01-01T01:28:13Z</time>
      </trkpt>
      <trkpt lat="63.57543440" lon="-19.4563566">
        <ele>536.59997</ele>
        <time>2010-01-01T01:28:14Z</time>
      </trkpt>
      <trkpt lat="63.57544440" lon="-19.4564205">
        <ele>535.79998</ele>
        <time>2010-01-01T01:28:16Z</time>
      </trkpt>
      <trkpt lat="63.57547100" lon="-19.4565864">
        <ele>536.00000</ele>
        <time>2010-01-01T01:28:19Z</time>
      </trkpt>
      <trkpt lat="63.57547900" lon="-19.4566522">
        <ele>535.79998</ele>
        <time>2010-01-01T01:28:20Z</time>
      </trkpt>
      <trkpt lat="63.57548180" lon="-19.4567043">
        <ele>536.00000</ele>
        <time>2010-01-01T01:28:21Z</time>
      </trkpt>
      <trkpt lat="63.57547320" lon="-19.4567379">
        <ele>536.00000</ele>
        <time>2010-01-01T01:28:22Z</time>
      </trkpt>
      <trkpt lat="63.57547180" lon="-19.4568037">
        <ele>536.20001</ele>
        <time>2010-01-01T01:28:23Z</time>
      </trkpt>
      <trkpt lat="63.57547150" lon="-19.4568741">
        <ele>536.00000</ele>
        <time>2010-01-01T01:28:24Z</time>
      </trkpt>
      <trkpt lat="63.57547640" lon="-19.4569404">
        <ele>536.00000</ele>
        <time>2010-01-01T01:28:25Z</time>
      </trkpt>
      <trkpt lat="63.57546970" lon="-19.4569822">
        <ele>536.00000</ele>
        <time>2010-01-01T01:28:26Z</time>
      </trkpt>
      <trkpt lat="63.57544680" lon="-19.4570414">
        <ele>536.00000</ele>
        <time>2010-01-01T01:28:27Z</time>
      </trkpt>
      <trkpt lat="63.57543090" lon="-19.4571015">
        <ele>536.00000</ele>
        <time>2010-01-01T01:28:29Z</time>
      </trkpt>
      <trkpt lat="63.57541480" lon="-19.4571423">
        <ele>535.79998</ele>
        <time>2010-01-01T01:28:30Z</time>
      </trkpt>
      <trkpt lat="63.57540180" lon="-19.4572025">
        <ele>535.59997</ele>
        <time>2010-01-01T01:28:31Z</time>
      </trkpt>
      <trkpt lat="63.57538160" lon="-19.4572707">
        <ele>535.79998</ele>
        <time>2010-01-01T01:28:32Z</time>
      </trkpt>
      <trkpt lat="63.57536880" lon="-19.4573253">
        <ele>535.59997</ele>
        <time>2010-01-01T01:28:33Z</time>
      </trkpt>
      <trkpt lat="63.57535690" lon="-19.4573844">
        <ele>535.79998</ele>
        <time>2010-01-01T01:28:35Z</time>
      </trkpt>
      <trkpt lat="63.57533770" lon="-19.4574503">
        <ele>535.79998</ele>
        <time>2010-01-01T01:28:36Z</time>
      </trkpt>
      <trkpt lat="63.57531850" lon="-19.4575134">
        <ele>535.79998</ele>
        <time>2010-01-01T01:28:37Z</time>
      </trkpt>
      <trkpt lat="63.57529310" lon="-19.4575571">
        <ele>535.79998</ele>
        <time>2010-01-01T01:28:39Z</time>
      </trkpt>
      <trkpt lat="63.57527320" lon="-19.4576401">
        <ele>535.79998</ele>
        <time>2010-01-01T01:28:40Z</time>
      </trkpt>
      <trkpt lat="63.57526000" lon="-19.4576888">
        <ele>535.59997</ele>
        <time>2010-01-01T01:28:41Z</time>
      </trkpt>
      <trkpt lat="63.57525600" lon="-19.4577755">
        <ele>535.40002</ele>
        <time>2010-01-01T01:28:43Z</time>
      </trkpt>
      <trkpt lat="63.57525350" lon="-19.4578164">
        <ele>534.79998</ele>
        <time>2010-01-01T01:28:44Z</time>
      </trkpt>
      <trkpt lat="63.57524910" lon="-19.4578716">
        <ele>534.40002</ele>
        <time>2010-01-01T01:28:45Z</time>
      </trkpt>
      <trkpt lat="63.57524630" lon="-19.4579422">
        <ele>534.00000</ele>
        <time>2010-01-01T01:28:46Z</time>
      </trkpt>
      <trkpt lat="63.57524710" lon="-19.4580093">
        <ele>533.79998</ele>
        <time>2010-01-01T01:28:47Z</time>
      </trkpt>
      <trkpt lat="63.57523450" lon="-19.4581399">
        <ele>533.79998</ele>
        <time>2010-01-01T01:28:49Z</time>
      </trkpt>
      <trkpt lat="63.57522480" lon="-19.4582015">
        <ele>533.79998</ele>
        <time>2010-01-01T01:28:51Z</time>
      </trkpt>
      <trkpt lat="63.57521710" lon="-19.4582584">
        <ele>533.79998</ele>
        <time>2010-01-01T01:28:52Z</time>
      </trkpt>
      <trkpt lat="63.57520570" lon="-19.4583283">
        <ele>533.79998</ele>
        <time>2010-01-01T01:28:53Z</time>
      </trkpt>
      <trkpt lat="63.57520090" lon="-19.4583888">
        <ele>533.79998</ele>
        <time>2010-01-01T01:28:54Z</time>
      </trkpt>
      <trkpt lat="63.57518730" lon="-19.4584502">
        <ele>533.79998</ele>
        <time>2010-01-01T01:28:55Z</time>
      </trkpt>
      <trkpt lat="63.57517080" lon="-19.4585345">
        <ele>533.59997</ele>
        <time>2010-01-01T01:28:57Z</time>
      </trkpt>
      <trkpt lat="63.57516450" lon="-19.4585855">
        <ele>533.59997</ele>
        <time>2010-01-01T01:28:58Z</time>
      </trkpt>
      <trkpt lat="63.57515160" lon="-19.4586494">
        <ele>533.59997</ele>
        <time>2010-01-01T01:28:59Z</time>
      </trkpt>
      <trkpt lat="63.57512930" lon="-19.4587140">
        <ele>533.59997</ele>
        <time>2010-01-01T01:29:01Z</time>
      </trkpt>
      <trkpt lat="63.57511910" lon="-19.4587608">
        <ele>533.59997</ele>
        <time>2010-01-01T01:29:02Z</time>
      </trkpt>
      <trkpt lat="63.57510730" lon="-19.4588260">
        <ele>533.59997</ele>
        <time>2010-01-01T01:29:03Z</time>
      </trkpt>
      <trkpt lat="63.57509580" lon="-19.4588985">
        <ele>533.40002</ele>
        <time>2010-01-01T01:29:04Z</time>
      </trkpt>
      <trkpt lat="63.57508730" lon="-19.4589530">
        <ele>533.00000</ele>
        <time>2010-01-01T01:29:05Z</time>
      </trkpt>
      <trkpt lat="63.57507250" lon="-19.4590087">
        <ele>532.59997</ele>
        <time>2010-01-01T01:29:06Z</time>
      </trkpt>
      <trkpt lat="63.57505170" lon="-19.4590613">
        <ele>532.40002</ele>
        <time>2010-01-01T01:29:08Z</time>
      </trkpt>
      <trkpt lat="63.57503830" lon="-19.4591182">
        <ele>532.00000</ele>
        <time>2010-01-01T01:29:09Z</time>
      </trkpt>
      <trkpt lat="63.57502780" lon="-19.4591708">
        <ele>531.59997</ele>
        <time>2010-01-01T01:29:10Z</time>
      </trkpt>
      <trkpt lat="63.57501130" lon="-19.4592456">
        <ele>531.59997</ele>
        <time>2010-01-01T01:29:11Z</time>
      </trkpt>
      <trkpt lat="63.57499650" lon="-19.4593114">
        <ele>531.59997</ele>
        <time>2010-01-01T01:29:13Z</time>
      </trkpt>
      <trkpt lat="63.57498910" lon="-19.4593720">
        <ele>531.59997</ele>
        <time>2010-01-01T01:29:14Z</time>
      </trkpt>
      <trkpt lat="63.57498140" lon="-19.4594334">
        <ele>531.59997</ele>
        <time>2010-01-01T01:29:15Z</time>
      </trkpt>
      <trkpt lat="63.57497630" lon="-19.4594878">
        <ele>531.59997</ele>
        <time>2010-01-01T01:29:16Z</time>
      </trkpt>
      <trkpt lat="63.57497250" lon="-19.4595479">
        <ele>531.59997</ele>
        <time>2010-01-01T01:29:17Z</time>
      </trkpt>
      <trkpt lat="63.57497200" lon="-19.4596129">
        <ele>531.79998</ele>
        <time>2010-01-01T01:29:18Z</time>
      </trkpt>
      <trkpt lat="63.57497050" lon="-19.4596643">
        <ele>531.79998</ele>
        <time>2010-01-01T01:29:19Z</time>
      </trkpt>
      <trkpt lat="63.57496130" lon="-19.4597368">
        <ele>531.79998</ele>
        <time>2010-01-01T01:29:20Z</time>
      </trkpt>
      <trkpt lat="63.57493810" lon="-19.4597889">
        <ele>531.79998</ele>
        <time>2010-01-01T01:29:22Z</time>
      </trkpt>
      <trkpt lat="63.57490630" lon="-19.4598322">
        <ele>531.79998</ele>
        <time>2010-01-01T01:29:23Z</time>
      </trkpt>
      <trkpt lat="63.57488490" lon="-19.4598400">
        <ele>531.59997</ele>
        <time>2010-01-01T01:29:24Z</time>
      </trkpt>
      <trkpt lat="63.57485650" lon="-19.4598827">
        <ele>531.59997</ele>
        <time>2010-01-01T01:29:25Z</time>
      </trkpt>
      <trkpt lat="63.57482710" lon="-19.4599192">
        <ele>531.59997</ele>
        <time>2010-01-01T01:29:27Z</time>
      </trkpt>
      <trkpt lat="63.57479640" lon="-19.4599357">
        <ele>531.40002</ele>
        <time>2010-01-01T01:29:28Z</time>
      </trkpt>
      <trkpt lat="63.57477040" lon="-19.4599594">
        <ele>531.20001</ele>
        <time>2010-01-01T01:29:29Z</time>
      </trkpt>
      <trkpt lat="63.57474510" lon="-19.4599890">
        <ele>530.79998</ele>
        <time>2010-01-01T01:29:30Z</time>
      </trkpt>
      <trkpt lat="63.57470830" lon="-19.4600034">
        <ele>530.40002</ele>
        <time>2010-01-01T01:29:32Z</time>
      </trkpt>
      <trkpt lat="63.57467800" lon="-19.4600260">
        <ele>530.00000</ele>
        <time>2010-01-01T01:29:33Z</time>
      </trkpt>
      <trkpt lat="63.57465060" lon="-19.4600495">
        <ele>529.79998</ele>
        <time>2010-01-01T01:29:34Z</time>
      </trkpt>
      <trkpt lat="63.57462650" lon="-19.4600662">
        <ele>529.59997</ele>
        <time>2010-01-01T01:29:35Z</time>
      </trkpt>
      <trkpt lat="63.57460400" lon="-19.4600817">
        <ele>529.40002</ele>
        <time>2010-01-01T01:29:36Z</time>
      </trkpt>
      <trkpt lat="63.57457100" lon="-19.4601013">
        <ele>529.59997</ele>
        <time>2010-01-01T01:29:37Z</time>
      </trkpt>
      <trkpt lat="63.57448050" lon="-19.4602218">
        <ele>529.59997</ele>
        <time>2010-01-01T01:29:42Z</time>
      </trkpt>
      <trkpt lat="63.57446010" lon="-19.4602347">
        <ele>529.59997</ele>
        <time>2010-01-01T01:29:43Z</time>
      </trkpt>
      <trkpt lat="63.57443760" lon="-19.4602624">
        <ele>529.59997</ele>
        <time>2010-01-01T01:29:44Z</time>
      </trkpt>
      <trkpt lat="63.57441650" lon="-19.4602645">
        <ele>529.59997</ele>
        <time>2010-01-01T01:29:44Z</time>
      </trkpt>
      <trkpt lat="63.57438250" lon="-19.4602533">
        <ele>529.59997</ele>
        <time>2010-01-01T01:29:46Z</time>
      </trkpt>
      <trkpt lat="63.57436070" lon="-19.4602616">
        <ele>529.59997</ele>
        <time>2010-01-01T01:29:47Z</time>
      </trkpt>
      <trkpt lat="63.57433480" lon="-19.4602880">
        <ele>529.59997</ele>
        <time>2010-01-01T01:29:48Z</time>
      </trkpt>
      <trkpt lat="63.57431050" lon="-19.4603159">
        <ele>529.59997</ele>
        <time>2010-01-01T01:29:49Z</time>
      </trkpt>
      <trkpt lat="63.57428810" lon="-19.4603525">
        <ele>529.59997</ele>
        <time>2010-01-01T01:29:50Z</time>
      </trkpt>
      <trkpt lat="63.57425830" lon="-19.4603754">
        <ele>529.59997</ele>
        <time>2010-01-01T01:29:51Z</time>
      </trkpt>
      <trkpt lat="63.57423290" lon="-19.4603905">
        <ele>529.59997</ele>
        <time>2010-01-01T01:29:52Z</time>
      </trkpt>
      <trkpt lat="63.57420800" lon="-19.4604123">
        <ele>529.59997</ele>
        <time>2010-01-01T01:29:53Z</time>
      </trkpt>
      <trkpt lat="63.57416480" lon="-19.4604547">
        <ele>529.59997</ele>
        <time>2010-01-01T01:29:55Z</time>
      </trkpt>
      <trkpt lat="63.57411010" lon="-19.4605170">
        <ele>529.59997</ele>
        <time>2010-01-01T01:29:58Z</time>
      </trkpt>
      <trkpt lat="63.57409710" lon="-19.4605496">
        <ele>529.59997</ele>
        <time>2010-01-01T01:29:58Z</time>
      </trkpt>
      <trkpt lat="63.57409490" lon="-19.4605912">
        <ele>529.59997</ele>
        <time>2010-01-01T01:29:59Z</time>
      </trkpt>
      <trkpt lat="63.57410390" lon="-19.4606152">
        <ele>529.59997</ele>
        <time>2010-01-01T01:30:00Z</time>
      </trkpt>
      <trkpt lat="63.57410240" lon="-19.4606617">
        <ele>529.59997</ele>
        <time>2010-01-01T01:30:01Z</time>
      </trkpt>
      <trkpt lat="63.57407170" lon="-19.4606399">
        <ele>529.59997</ele>
        <time>2010-01-01T01:30:02Z</time>
      </trkpt>
      <trkpt lat="63.57402240" lon="-19.4605862">
        <ele>529.59997</ele>
        <time>2010-01-01T01:30:04Z</time>
      </trkpt>
      <trkpt lat="63.57401610" lon="-19.4605872">
        <ele>529.59997</ele>
        <time>2010-01-01T01:30:04Z</time>
      </trkpt>
      <trkpt lat="63.57397090" lon="-19.4606271">
        <ele>529.59997</ele>
        <time>2010-01-01T01:30:06Z</time>
      </trkpt>
      <trkpt lat="63.57397430" lon="-19.4606489">
        <ele>529.59997</ele>
        <time>2010-01-01T01:30:07Z</time>
      </trkpt>
      <trkpt lat="63.57392530" lon="-19.4607600">
        <ele>529.59997</ele>
        <time>2010-01-01T01:30:10Z</time>
      </trkpt>
      <trkpt lat="63.57391570" lon="-19.4607857">
        <ele>529.59997</ele>
        <time>2010-01-01T01:30:10Z</time>
      </trkpt>
      <trkpt lat="63.57390230" lon="-19.4608231">
        <ele>529.59997</ele>
        <time>2010-01-01T01:30:11Z</time>
      </trkpt>
      <trkpt lat="63.57388440" lon="-19.4608585">
        <ele>529.59997</ele>
        <time>2010-01-01T01:30:12Z</time>
      </trkpt>
      <trkpt lat="63.57386860" lon="-19.4608889">
        <ele>529.59997</ele>
        <time>2010-01-01T01:30:13Z</time>
      </trkpt>
      <trkpt lat="63.57383910" lon="-19.4609260">
        <ele>529.59997</ele>
        <time>2010-01-01T01:30:14Z</time>
      </trkpt>
      <trkpt lat="63.57382080" lon="-19.4609483">
        <ele>529.59997</ele>
        <time>2010-01-01T01:30:15Z</time>
      </trkpt>
      <trkpt lat="63.57379660" lon="-19.4609761">
        <ele>529.59997</ele>
        <time>2010-01-01T01:30:16Z</time>
      </trkpt>
      <trkpt lat="63.57377230" lon="-19.4609931">
        <ele>529.59997</ele>
        <time>2010-01-01T01:30:17Z</time>
      </trkpt>
      <trkpt lat="63.57375630" lon="-19.4610124">
        <ele>529.59997</ele>
        <time>2010-01-01T01:30:18Z</time>
      </trkpt>
      <trkpt lat="63.57370220" lon="-19.4610529">
        <ele>529.59997</ele>
        <time>2010-01-01T01:30:20Z</time>
      </trkpt>
      <trkpt lat="63.57368160" lon="-19.4610843">
        <ele>529.59997</ele>
        <time>2010-01-01T01:30:21Z</time>
      </trkpt>
      <trkpt lat="63.57365300" lon="-19.4611035">
        <ele>529.59997</ele>
        <time>2010-01-01T01:30:22Z</time>
      </trkpt>
      <trkpt lat="63.57363240" lon="-19.4611158">
        <ele>529.59997</ele>
        <time>2010-01-01T01:30:23Z</time>
      </trkpt>
      <trkpt lat="63.57361060" lon="-19.4611314">
        <ele>529.40002</ele>
        <time>2010-01-01T01:30:24Z</time>
      </trkpt>
      <trkpt lat="63.57358490" lon="-19.4611346">
        <ele>529.40002</ele>
        <time>2010-01-01T01:30:25Z</time>
      </trkpt>
      <trkpt lat="63.57355080" lon="-19.4611616">
        <ele>529.40002</ele>
        <time>2010-01-01T01:30:26Z</time>
      </trkpt>
      <trkpt lat="63.57353750" lon="-19.4611811">
        <ele>529.59997</ele>
        <time>2010-01-01T01:30:27Z</time>
      </trkpt>
      <trkpt lat="63.57351870" lon="-19.4611901">
        <ele>529.59997</ele>
        <time>2010-01-01T01:30:28Z</time>
      </trkpt>
      <trkpt lat="63.57350120" lon="-19.4612115">
        <ele>529.59997</ele>
        <time>2010-01-01T01:30:29Z</time>
      </trkpt>
      <trkpt lat="63.57348740" lon="-19.4612609">
        <ele>529.59997</ele>
        <time>2010-01-01T01:30:30Z</time>
      </trkpt>
      <trkpt lat="63.57343000" lon="-19.4613079">
        <ele>529.59997</ele>
        <time>2010-01-01T01:30:32Z</time>
      </trkpt>
      <trkpt lat="63.57340030" lon="-19.4613275">
        <ele>529.59997</ele>
        <time>2010-01-01T01:30:33Z</time>
      </trkpt>
      <trkpt lat="63.57338100" lon="-19.4613481">
        <ele>529.59997</ele>
        <time>2010-01-01T01:30:34Z</time>
      </trkpt>
      <trkpt lat="63.57335220" lon="-19.4613544">
        <ele>529.59997</ele>
        <time>2010-01-01T01:30:35Z</time>
      </trkpt>
      <trkpt lat="63.57332630" lon="-19.4613798">
        <ele>529.40002</ele>
        <time>2010-01-01T01:30:37Z</time>
      </trkpt>
      <trkpt lat="63.57331330" lon="-19.4614286">
        <ele>529.40002</ele>
        <time>2010-01-01T01:30:38Z</time>
      </trkpt>
      <trkpt lat="63.57329050" lon="-19.4614727">
        <ele>529.40002</ele>
        <time>2010-01-01T01:30:39Z</time>
      </trkpt>
      <trkpt lat="63.57327100" lon="-19.4614973">
        <ele>529.40002</ele>
        <time>2010-01-01T01:30:40Z</time>
      </trkpt>
      <trkpt lat="63.57325250" lon="-19.4615177">
        <ele>529.40002</ele>
        <time>2010-01-01T01:30:40Z</time>
      </trkpt>
      <trkpt lat="63.57321080" lon="-19.4615649">
        <ele>529.59997</ele>
        <time>2010-01-01T01:30:42Z</time>
      </trkpt>
      <trkpt lat="63.57318680" lon="-19.4615879">
        <ele>529.40002</ele>
        <time>2010-01-01T01:30:43Z</time>
      </trkpt>
      <trkpt lat="63.57316100" lon="-19.4615927">
        <ele>529.40002</ele>
        <time>2010-01-01T01:30:44Z</time>
      </trkpt>
      <trkpt lat="63.57313490" lon="-19.4616155">
        <ele>529.40002</ele>
        <time>2010-01-01T01:30:46Z</time>
      </trkpt>
      <trkpt lat="63.57311290" lon="-19.4616479">
        <ele>529.40002</ele>
        <time>2010-01-01T01:30:47Z</time>
      </trkpt>
      <trkpt lat="63.57309210" lon="-19.4616657">
        <ele>529.59997</ele>
        <time>2010-01-01T01:30:48Z</time>
      </trkpt>
      <trkpt lat="63.57307930" lon="-19.4616961">
        <ele>529.59997</ele>
        <time>2010-01-01T01:30:48Z</time>
      </trkpt>
      <trkpt lat="63.57305820" lon="-19.4617439">
        <ele>529.59997</ele>
        <time>2010-01-01T01:30:49Z</time>
      </trkpt>
      <trkpt lat="63.57303290" lon="-19.4617901">
        <ele>529.59997</ele>
        <time>2010-01-01T01:30:51Z</time>
      </trkpt>
      <trkpt lat="63.57301470" lon="-19.4618477">
        <ele>529.59997</ele>
        <time>2010-01-01T01:30:52Z</time>
      </trkpt>
      <trkpt lat="63.57297580" lon="-19.4618758">
        <ele>529.59997</ele>
        <time>2010-01-01T01:30:54Z</time>
      </trkpt>
      <trkpt lat="63.57295430" lon="-19.4618935">
        <ele>529.40002</ele>
        <time>2010-01-01T01:30:55Z</time>
      </trkpt>
      <trkpt lat="63.57293640" lon="-19.4619104">
        <ele>529.00000</ele>
        <time>2010-01-01T01:30:55Z</time>
      </trkpt>
      <trkpt lat="63.57291280" lon="-19.4619147">
        <ele>528.79998</ele>
        <time>2010-01-01T01:30:56Z</time>
      </trkpt>
      <trkpt lat="63.57289300" lon="-19.4619212">
        <ele>528.40002</ele>
        <time>2010-01-01T01:30:57Z</time>
      </trkpt>
      <trkpt lat="63.57285390" lon="-19.4619447">
        <ele>528.00000</ele>
        <time>2010-01-01T01:30:59Z</time>
      </trkpt>
      <trkpt lat="63.57283830" lon="-19.4619651">
        <ele>527.79998</ele>
        <time>2010-01-01T01:30:59Z</time>
      </trkpt>
      <trkpt lat="63.57281900" lon="-19.4619731">
        <ele>527.40002</ele>
        <time>2010-01-01T01:31:00Z</time>
      </trkpt>
      <trkpt lat="63.57279280" lon="-19.4619517">
        <ele>527.20001</ele>
        <time>2010-01-01T01:31:01Z</time>
      </trkpt>
      <trkpt lat="63.57272760" lon="-19.4619241">
        <ele>527.20001</ele>
        <time>2010-01-01T01:31:04Z</time>
      </trkpt>
      <trkpt lat="63.57271950" lon="-19.4619555">
        <ele>527.20001</ele>
        <time>2010-01-01T01:31:05Z</time>
      </trkpt>
      <trkpt lat="63.57270440" lon="-19.4619853">
        <ele>527.20001</ele>
        <time>2010-01-01T01:31:05Z</time>
      </trkpt>
      <trkpt lat="63.57268910" lon="-19.4620334">
        <ele>527.20001</ele>
        <time>2010-01-01T01:31:07Z</time>
      </trkpt>
      <trkpt lat="63.57267870" lon="-19.4620740">
        <ele>527.40002</ele>
        <time>2010-01-01T01:31:07Z</time>
      </trkpt>
      <trkpt lat="63.57266310" lon="-19.4621382">
        <ele>527.20001</ele>
        <time>2010-01-01T01:31:09Z</time>
      </trkpt>
      <trkpt lat="63.57263940" lon="-19.4621827">
        <ele>527.40002</ele>
        <time>2010-01-01T01:31:10Z</time>
      </trkpt>
      <trkpt lat="63.57261940" lon="-19.4622285">
        <ele>527.20001</ele>
        <time>2010-01-01T01:31:11Z</time>
      </trkpt>
      <trkpt lat="63.57259490" lon="-19.4622822">
        <ele>527.20001</ele>
        <time>2010-01-01T01:31:12Z</time>
      </trkpt>
      <trkpt lat="63.57257410" lon="-19.4623329">
        <ele>527.20001</ele>
        <time>2010-01-01T01:31:14Z</time>
      </trkpt>
      <trkpt lat="63.57254710" lon="-19.4623707">
        <ele>527.20001</ele>
        <time>2010-01-01T01:31:15Z</time>
      </trkpt>
      <trkpt lat="63.57251560" lon="-19.4623856">
        <ele>527.20001</ele>
        <time>2010-01-01T01:31:16Z</time>
      </trkpt>
      <trkpt lat="63.57249580" lon="-19.4624142">
        <ele>526.79998</ele>
        <time>2010-01-01T01:31:17Z</time>
      </trkpt>
      <trkpt lat="63.57246390" lon="-19.4624394">
        <ele>526.59997</ele>
        <time>2010-01-01T01:31:18Z</time>
      </trkpt>
      <trkpt lat="63.57243920" lon="-19.4624681">
        <ele>526.20001</ele>
        <time>2010-01-01T01:31:20Z</time>
      </trkpt>
      <trkpt lat="63.57241450" lon="-19.4625092">
        <ele>525.79998</ele>
        <time>2010-01-01T01:31:21Z</time>
      </trkpt>
      <trkpt lat="63.57240070" lon="-19.4625540">
        <ele>525.20001</ele>
        <time>2010-01-01T01:31:22Z</time>
      </trkpt>
      <trkpt lat="63.57238970" lon="-19.4626346">
        <ele>525.00000</ele>
        <time>2010-01-01T01:31:23Z</time>
      </trkpt>
      <trkpt lat="63.57237880" lon="-19.4626440">
        <ele>525.00000</ele>
        <time>2010-01-01T01:31:24Z</time>
      </trkpt>
      <trkpt lat="63.57236420" lon="-19.4626763">
        <ele>525.00000</ele>
        <time>2010-01-01T01:31:25Z</time>
      </trkpt>
      <trkpt lat="63.57233860" lon="-19.4627125">
        <ele>525.00000</ele>
        <time>2010-01-01T01:31:26Z</time>
      </trkpt>
      <trkpt lat="63.57232030" lon="-19.4627590">
        <ele>525.00000</ele>
        <time>2010-01-01T01:31:27Z</time>
      </trkpt>
      <trkpt lat="63.57230860" lon="-19.4627976">
        <ele>525.00000</ele>
        <time>2010-01-01T01:31:28Z</time>
      </trkpt>
      <trkpt lat="63.57228670" lon="-19.4628525">
        <ele>525.00000</ele>
        <time>2010-01-01T01:31:29Z</time>
      </trkpt>
      <trkpt lat="63.57226920" lon="-19.4628817">
        <ele>524.79998</ele>
        <time>2010-01-01T01:31:30Z</time>
      </trkpt>
      <trkpt lat="63.57223760" lon="-19.4629048">
        <ele>525.00000</ele>
        <time>2010-01-01T01:31:31Z</time>
      </trkpt>
      <trkpt lat="63.57224360" lon="-19.4629592">
        <ele>525.20001</ele>
        <time>2010-01-01T01:31:32Z</time>
      </trkpt>
      <trkpt lat="63.57225640" lon="-19.4629895">
        <ele>525.00000</ele>
        <time>2010-01-01T01:31:33Z</time>
      </trkpt>
      <trkpt lat="63.57227230" lon="-19.4630575">
        <ele>525.00000</ele>
        <time>2010-01-01T01:31:34Z</time>
      </trkpt>
      <trkpt lat="63.57228270" lon="-19.4631104">
        <ele>524.79998</ele>
        <time>2010-01-01T01:31:35Z</time>
      </trkpt>
      <trkpt lat="63.57228570" lon="-19.4631799">
        <ele>525.00000</ele>
        <time>2010-01-01T01:31:37Z</time>
      </trkpt>
      <trkpt lat="63.57227690" lon="-19.4632373">
        <ele>525.00000</ele>
        <time>2010-01-01T01:31:38Z</time>
      </trkpt>
      <trkpt lat="63.57226520" lon="-19.4633051">
        <ele>525.00000</ele>
        <time>2010-01-01T01:31:39Z</time>
      </trkpt>
      <trkpt lat="63.57225910" lon="-19.4633677">
        <ele>525.00000</ele>
        <time>2010-01-01T01:31:40Z</time>
      </trkpt>
      <trkpt lat="63.57225140" lon="-19.4634125">
        <ele>525.00000</ele>
        <time>2010-01-01T01:31:41Z</time>
      </trkpt>
      <trkpt lat="63.57223470" lon="-19.4634692">
        <ele>525.00000</ele>
        <time>2010-01-01T01:31:42Z</time>
      </trkpt>
      <trkpt lat="63.57222760" lon="-19.4635213">
        <ele>525.00000</ele>
        <time>2010-01-01T01:31:43Z</time>
      </trkpt>
      <trkpt lat="63.57222270" lon="-19.4635881">
        <ele>525.00000</ele>
        <time>2010-01-01T01:31:44Z</time>
      </trkpt>
      <trkpt lat="63.57221700" lon="-19.4636622">
        <ele>525.00000</ele>
        <time>2010-01-01T01:31:46Z</time>
      </trkpt>
      <trkpt lat="63.57220930" lon="-19.4637227">
        <ele>525.00000</ele>
        <time>2010-01-01T01:31:47Z</time>
      </trkpt>
      <trkpt lat="63.57219600" lon="-19.4637941">
        <ele>524.79998</ele>
        <time>2010-01-01T01:31:48Z</time>
      </trkpt>
      <trkpt lat="63.57218480" lon="-19.4638502">
        <ele>524.59997</ele>
        <time>2010-01-01T01:31:49Z</time>
      </trkpt>
      <trkpt lat="63.57217390" lon="-19.4639077">
        <ele>524.20001</ele>
        <time>2010-01-01T01:31:50Z</time>
      </trkpt>
      <trkpt lat="63.57216060" lon="-19.4639621">
        <ele>524.00000</ele>
        <time>2010-01-01T01:31:52Z</time>
      </trkpt>
      <trkpt lat="63.57215110" lon="-19.4640179">
        <ele>523.59997</ele>
        <time>2010-01-01T01:31:53Z</time>
      </trkpt>
      <trkpt lat="63.57214360" lon="-19.4640890">
        <ele>523.40002</ele>
        <time>2010-01-01T01:31:54Z</time>
      </trkpt>
      <trkpt lat="63.57214160" lon="-19.4641507">
        <ele>523.00000</ele>
        <time>2010-01-01T01:31:55Z</time>
      </trkpt>
      <trkpt lat="63.57213800" lon="-19.4642171">
        <ele>523.00000</ele>
        <time>2010-01-01T01:31:56Z</time>
      </trkpt>
      <trkpt lat="63.57212290" lon="-19.4643260">
        <ele>523.00000</ele>
        <time>2010-01-01T01:31:58Z</time>
      </trkpt>
      <trkpt lat="63.57211290" lon="-19.4643773">
        <ele>522.59997</ele>
        <time>2010-01-01T01:31:59Z</time>
      </trkpt>
      <trkpt lat="63.57210430" lon="-19.4644286">
        <ele>522.20001</ele>
        <time>2010-01-01T01:32:00Z</time>
      </trkpt>
      <trkpt lat="63.57211610" lon="-19.4644895">
        <ele>521.79998</ele>
        <time>2010-01-01T01:32:01Z</time>
      </trkpt>
      <trkpt lat="63.57213360" lon="-19.4645686">
        <ele>521.40002</ele>
        <time>2010-01-01T01:32:03Z</time>
      </trkpt>
      <trkpt lat="63.57213330" lon="-19.4645850">
        <ele>521.00000</ele>
        <time>2010-01-01T01:32:03Z</time>
      </trkpt>
      <trkpt lat="63.57212700" lon="-19.4646443">
        <ele>520.79998</ele>
        <time>2010-01-01T01:32:04Z</time>
      </trkpt>
      <trkpt lat="63.57212540" lon="-19.4646842">
        <ele>520.79998</ele>
        <time>2010-01-01T01:32:05Z</time>
      </trkpt>
      <trkpt lat="63.57212260" lon="-19.4647400">
        <ele>521.00000</ele>
        <time>2010-01-01T01:32:06Z</time>
      </trkpt>
      <trkpt lat="63.57211880" lon="-19.4648053">
        <ele>521.00000</ele>
        <time>2010-01-01T01:32:07Z</time>
      </trkpt>
      <trkpt lat="63.57210740" lon="-19.4649440">
        <ele>521.00000</ele>
        <time>2010-01-01T01:32:10Z</time>
      </trkpt>
      <trkpt lat="63.57210560" lon="-19.4650084">
        <ele>521.00000</ele>
        <time>2010-01-01T01:32:11Z</time>
      </trkpt>
      <trkpt lat="63.57210400" lon="-19.4650683">
        <ele>521.00000</ele>
        <time>2010-01-01T01:32:12Z</time>
      </trkpt>
      <trkpt lat="63.57210690" lon="-19.4651250">
        <ele>521.00000</ele>
        <time>2010-01-01T01:32:13Z</time>
      </trkpt>
      <trkpt lat="63.57210380" lon="-19.4652526">
        <ele>521.00000</ele>
        <time>2010-01-01T01:32:15Z</time>
      </trkpt>
      <trkpt lat="63.57210780" lon="-19.4653220">
        <ele>521.00000</ele>
        <time>2010-01-01T01:32:17Z</time>
      </trkpt>
      <trkpt lat="63.57211610" lon="-19.4654628">
        <ele>520.79998</ele>
        <time>2010-01-01T01:32:19Z</time>
      </trkpt>
      <trkpt lat="63.57211650" lon="-19.4655290">
        <ele>520.20001</ele>
        <time>2010-01-01T01:32:20Z</time>
      </trkpt>
      <trkpt lat="63.57211630" lon="-19.4655953">
        <ele>519.79998</ele>
        <time>2010-01-01T01:32:21Z</time>
      </trkpt>
      <trkpt lat="63.57211840" lon="-19.4656608">
        <ele>519.59997</ele>
        <time>2010-01-01T01:32:23Z</time>
      </trkpt>
      <trkpt lat="63.57210920" lon="-19.4657233">
        <ele>519.00000</ele>
        <time>2010-01-01T01:32:24Z</time>
      </trkpt>
      <trkpt lat="63.57210660" lon="-19.4657741">
        <ele>518.79998</ele>
        <time>2010-01-01T01:32:25Z</time>
      </trkpt>
      <trkpt lat="63.57209390" lon="-19.4658307">
        <ele>519.00000</ele>
        <time>2010-01-01T01:32:26Z</time>
      </trkpt>
      <trkpt lat="63.57205350" lon="-19.4659834">
        <ele>519.00000</ele>
        <time>2010-01-01T01:32:29Z</time>
      </trkpt>
      <trkpt lat="63.57204210" lon="-19.4660301">
        <ele>519.00000</ele>
        <time>2010-01-01T01:32:30Z</time>
      </trkpt>
      <trkpt lat="63.57202530" lon="-19.4660832">
        <ele>519.00000</ele>
        <time>2010-01-01T01:32:31Z</time>
      </trkpt>
      <trkpt lat="63.57201530" lon="-19.4661209">
        <ele>518.79998</ele>
        <time>2010-01-01T01:32:32Z</time>
      </trkpt>
      <trkpt lat="63.57201340" lon="-19.4661724">
        <ele>519.00000</ele>
        <time>2010-01-01T01:32:33Z</time>
      </trkpt>
      <trkpt lat="63.57200430" lon="-19.4662708">
        <ele>519.00000</ele>
        <time>2010-01-01T01:32:35Z</time>
      </trkpt>
      <trkpt lat="63.57200040" lon="-19.4663180">
        <ele>519.00000</ele>
        <time>2010-01-01T01:32:35Z</time>
      </trkpt>
      <trkpt lat="63.57199710" lon="-19.4664967">
        <ele>519.00000</ele>
        <time>2010-01-01T01:32:39Z</time>
      </trkpt>
      <trkpt lat="63.57199580" lon="-19.4665456">
        <ele>519.00000</ele>
        <time>2010-01-01T01:32:39Z</time>
      </trkpt>
      <trkpt lat="63.57199970" lon="-19.4665998">
        <ele>519.20001</ele>
        <time>2010-01-01T01:32:40Z</time>
      </trkpt>
      <trkpt lat="63.57200120" lon="-19.4666511">
        <ele>519.40002</ele>
        <time>2010-01-01T01:32:41Z</time>
      </trkpt>
      <trkpt lat="63.57199960" lon="-19.4666981">
        <ele>519.79998</ele>
        <time>2010-01-01T01:32:42Z</time>
      </trkpt>
      <trkpt lat="63.57199960" lon="-19.4667472">
        <ele>520.20001</ele>
        <time>2010-01-01T01:32:43Z</time>
      </trkpt>
      <trkpt lat="63.57199160" lon="-19.4667883">
        <ele>520.20001</ele>
        <time>2010-01-01T01:32:44Z</time>
      </trkpt>
      <trkpt lat="63.57198770" lon="-19.4668222">
        <ele>520.59997</ele>
        <time>2010-01-01T01:32:44Z</time>
      </trkpt>
      <trkpt lat="63.57198140" lon="-19.4668610">
        <ele>521.00000</ele>
        <time>2010-01-01T01:32:45Z</time>
      </trkpt>
      <trkpt lat="63.57197640" lon="-19.4669004">
        <ele>521.20001</ele>
        <time>2010-01-01T01:32:46Z</time>
      </trkpt>
      <trkpt lat="63.57197400" lon="-19.4669356">
        <ele>521.40002</ele>
        <time>2010-01-01T01:32:47Z</time>
      </trkpt>
      <trkpt lat="63.57197320" lon="-19.4669802">
        <ele>522.00000</ele>
        <time>2010-01-01T01:32:47Z</time>
      </trkpt>
      <trkpt lat="63.57197180" lon="-19.4670211">
        <ele>522.20001</ele>
        <time>2010-01-01T01:32:48Z</time>
      </trkpt>
      <trkpt lat="63.57195800" lon="-19.4670442">
        <ele>522.59997</ele>
        <time>2010-01-01T01:32:49Z</time>
      </trkpt>
      <trkpt lat="63.57194470" lon="-19.4670860">
        <ele>523.20001</ele>
        <time>2010-01-01T01:32:50Z</time>
      </trkpt>
      <trkpt lat="63.57193850" lon="-19.4671405">
        <ele>523.59997</ele>
        <time>2010-01-01T01:32:51Z</time>
      </trkpt>
      <trkpt lat="63.57193390" lon="-19.4671901">
        <ele>524.00000</ele>
        <time>2010-01-01T01:32:52Z</time>
      </trkpt>
      <trkpt lat="63.57191940" lon="-19.4672369">
        <ele>524.59997</ele>
        <time>2010-01-01T01:32:53Z</time>
      </trkpt>
      <trkpt lat="63.57191250" lon="-19.4672776">
        <ele>525.00000</ele>
        <time>2010-01-01T01:32:53Z</time>
      </trkpt>
      <trkpt lat="63.57189380" lon="-19.4673308">
        <ele>525.20001</ele>
        <time>2010-01-01T01:32:55Z</time>
      </trkpt>
      <trkpt lat="63.57186980" lon="-19.4673649">
        <ele>525.20001</ele>
        <time>2010-01-01T01:32:56Z</time>
      </trkpt>
      <trkpt lat="63.57185230" lon="-19.4673940">
        <ele>525.20001</ele>
        <time>2010-01-01T01:32:57Z</time>
      </trkpt>
      <trkpt lat="63.57183230" lon="-19.4674438">
        <ele>525.20001</ele>
        <time>2010-01-01T01:32:58Z</time>
      </trkpt>
      <trkpt lat="63.57181420" lon="-19.4674885">
        <ele>525.20001</ele>
        <time>2010-01-01T01:32:59Z</time>
      </trkpt>
      <trkpt lat="63.57179570" lon="-19.4675459">
        <ele>525.00000</ele>
        <time>2010-01-01T01:33:00Z</time>
      </trkpt>
      <trkpt lat="63.57178290" lon="-19.4675793">
        <ele>525.20001</ele>
        <time>2010-01-01T01:33:01Z</time>
      </trkpt>
      <trkpt lat="63.57177330" lon="-19.4675928">
        <ele>525.00000</ele>
        <time>2010-01-01T01:33:01Z</time>
      </trkpt>
      <trkpt lat="63.57174960" lon="-19.4676139">
        <ele>525.00000</ele>
        <time>2010-01-01T01:33:02Z</time>
      </trkpt>
      <trkpt lat="63.57173140" lon="-19.4676339">
        <ele>525.20001</ele>
        <time>2010-01-01T01:33:03Z</time>
      </trkpt>
      <trkpt lat="63.57172490" lon="-19.4676717">
        <ele>525.20001</ele>
        <time>2010-01-01T01:33:04Z</time>
      </trkpt>
      <trkpt lat="63.57171030" lon="-19.4676959">
        <ele>525.20001</ele>
        <time>2010-01-01T01:33:05Z</time>
      </trkpt>
      <trkpt lat="63.57170090" lon="-19.4677047">
        <ele>525.20001</ele>
        <time>2010-01-01T01:33:05Z</time>
      </trkpt>
      <trkpt lat="63.57169230" lon="-19.4677174">
        <ele>525.59997</ele>
        <time>2010-01-01T01:33:06Z</time>
      </trkpt>
      <trkpt lat="63.57168420" lon="-19.4677291">
        <ele>526.00000</ele>
        <time>2010-01-01T01:33:06Z</time>
      </trkpt>
      <trkpt lat="63.57167430" lon="-19.4677413">
        <ele>526.40002</ele>
        <time>2010-01-01T01:33:06Z</time>
      </trkpt>
      <trkpt lat="63.57166390" lon="-19.4677508">
        <ele>526.79998</ele>
        <time>2010-01-01T01:33:07Z</time>
      </trkpt>
      <trkpt lat="63.57165630" lon="-19.4677549">
        <ele>527.20001</ele>
        <time>2010-01-01T01:33:07Z</time>
      </trkpt>
      <trkpt lat="63.57164800" lon="-19.4677593">
        <ele>527.59997</ele>
        <time>2010-01-01T01:33:07Z</time>
      </trkpt>
      <trkpt lat="63.57163950" lon="-19.4677746">
        <ele>528.00000</ele>
        <time>2010-01-01T01:33:08Z</time>
      </trkpt>
      <trkpt lat="63.57163000" lon="-19.4677824">
        <ele>528.40002</ele>
        <time>2010-01-01T01:33:08Z</time>
      </trkpt>
      <trkpt lat="63.57161560" lon="-19.4677976">
        <ele>528.79998</ele>
        <time>2010-01-01T01:33:09Z</time>
      </trkpt>
      <trkpt lat="63.57160580" lon="-19.4678121">
        <ele>529.20001</ele>
        <time>2010-01-01T01:33:09Z</time>
      </trkpt>
      <trkpt lat="63.57159350" lon="-19.4678309">
        <ele>529.20001</ele>
        <time>2010-01-01T01:33:10Z</time>
      </trkpt>
      <trkpt lat="63.57157410" lon="-19.4678634">
        <ele>529.40002</ele>
        <time>2010-01-01T01:33:11Z</time>
      </trkpt>
      <trkpt lat="63.57156290" lon="-19.4678878">
        <ele>529.59997</ele>
        <time>2010-01-01T01:33:12Z</time>
      </trkpt>
      <trkpt lat="63.57154830" lon="-19.4679214">
        <ele>530.00000</ele>
        <time>2010-01-01T01:33:12Z</time>
      </trkpt>
      <trkpt lat="63.57152620" lon="-19.4679521">
        <ele>530.40002</ele>
        <time>2010-01-01T01:33:13Z</time>
      </trkpt>
      <trkpt lat="63.57151680" lon="-19.4679784">
        <ele>530.59997</ele>
        <time>2010-01-01T01:33:14Z</time>
      </trkpt>
      <trkpt lat="63.57149900" lon="-19.4680087">
        <ele>531.00000</ele>
        <time>2010-01-01T01:33:15Z</time>
      </trkpt>
      <trkpt lat="63.57148230" lon="-19.4680429">
        <ele>531.20001</ele>
        <time>2010-01-01T01:33:16Z</time>
      </trkpt>
      <trkpt lat="63.57147250" lon="-19.4680843">
        <ele>531.40002</ele>
        <time>2010-01-01T01:33:17Z</time>
      </trkpt>
      <trkpt lat="63.57145380" lon="-19.4681233">
        <ele>531.40002</ele>
        <time>2010-01-01T01:33:18Z</time>
      </trkpt>
      <trkpt lat="63.57143640" lon="-19.4681612">
        <ele>531.40002</ele>
        <time>2010-01-01T01:33:19Z</time>
      </trkpt>
      <trkpt lat="63.57142260" lon="-19.4681976">
        <ele>531.40002</ele>
        <time>2010-01-01T01:33:20Z</time>
      </trkpt>
      <trkpt lat="63.57140090" lon="-19.4682315">
        <ele>531.20001</ele>
        <time>2010-01-01T01:33:21Z</time>
      </trkpt>
      <trkpt lat="63.57138800" lon="-19.4682667">
        <ele>531.40002</ele>
        <time>2010-01-01T01:33:21Z</time>
      </trkpt>
      <trkpt lat="63.57137340" lon="-19.4683051">
        <ele>531.40002</ele>
        <time>2010-01-01T01:33:22Z</time>
      </trkpt>
      <trkpt lat="63.57136050" lon="-19.4683388">
        <ele>531.40002</ele>
        <time>2010-01-01T01:33:23Z</time>
      </trkpt>
      <trkpt lat="63.57134390" lon="-19.4683760">
        <ele>531.40002</ele>
        <time>2010-01-01T01:33:24Z</time>
      </trkpt>
      <trkpt lat="63.57133180" lon="-19.4684138">
        <ele>531.20001</ele>
        <time>2010-01-01T01:33:25Z</time>
      </trkpt>
      <trkpt lat="63.57128350" lon="-19.4685215">
        <ele>531.59997</ele>
        <time>2010-01-01T01:33:28Z</time>
      </trkpt>
      <trkpt lat="63.57127100" lon="-19.4685542">
        <ele>532.20001</ele>
        <time>2010-01-01T01:33:28Z</time>
      </trkpt>
      <trkpt lat="63.57125730" lon="-19.4685957">
        <ele>532.40002</ele>
        <time>2010-01-01T01:33:29Z</time>
      </trkpt>
      <trkpt lat="63.57124700" lon="-19.4686524">
        <ele>533.00000</ele>
        <time>2010-01-01T01:33:30Z</time>
      </trkpt>
      <trkpt lat="63.57123580" lon="-19.4687084">
        <ele>533.20001</ele>
        <time>2010-01-01T01:33:31Z</time>
      </trkpt>
      <trkpt lat="63.57122830" lon="-19.4687496">
        <ele>533.40002</ele>
        <time>2010-01-01T01:33:32Z</time>
      </trkpt>
      <trkpt lat="63.57121970" lon="-19.4687960">
        <ele>533.40002</ele>
        <time>2010-01-01T01:33:33Z</time>
      </trkpt>
      <trkpt lat="63.57121250" lon="-19.4688363">
        <ele>533.40002</ele>
        <time>2010-01-01T01:33:34Z</time>
      </trkpt>
      <trkpt lat="63.57120830" lon="-19.4688798">
        <ele>533.40002</ele>
        <time>2010-01-01T01:33:35Z</time>
      </trkpt>
      <trkpt lat="63.57120220" lon="-19.4689381">
        <ele>533.40002</ele>
        <time>2010-01-01T01:33:36Z</time>
      </trkpt>
      <trkpt lat="63.57119970" lon="-19.4689890">
        <ele>533.40002</ele>
        <time>2010-01-01T01:33:37Z</time>
      </trkpt>
      <trkpt lat="63.57119340" lon="-19.4690381">
        <ele>533.40002</ele>
        <time>2010-01-01T01:33:38Z</time>
      </trkpt>
      <trkpt lat="63.57118510" lon="-19.4690924">
        <ele>533.40002</ele>
        <time>2010-01-01T01:33:39Z</time>
      </trkpt>
      <trkpt lat="63.57118050" lon="-19.4691358">
        <ele>533.40002</ele>
        <time>2010-01-01T01:33:39Z</time>
      </trkpt>
      <trkpt lat="63.57117440" lon="-19.4691797">
        <ele>533.40002</ele>
        <time>2010-01-01T01:33:40Z</time>
      </trkpt>
      <trkpt lat="63.57117300" lon="-19.4692197">
        <ele>533.40002</ele>
        <time>2010-01-01T01:33:41Z</time>
      </trkpt>
      <trkpt lat="63.57117440" lon="-19.4692584">
        <ele>533.40002</ele>
        <time>2010-01-01T01:33:42Z</time>
      </trkpt>
      <trkpt lat="63.57116250" lon="-19.4693052">
        <ele>533.40002</ele>
        <time>2010-01-01T01:33:43Z</time>
      </trkpt>
      <trkpt lat="63.57115120" lon="-19.4693540">
        <ele>534.00000</ele>
        <time>2010-01-01T01:33:44Z</time>
      </trkpt>
      <trkpt lat="63.57114310" lon="-19.4693943">
        <ele>534.40002</ele>
        <time>2010-01-01T01:33:44Z</time>
      </trkpt>
      <trkpt lat="63.57113600" lon="-19.4694402">
        <ele>534.79998</ele>
        <time>2010-01-01T01:33:45Z</time>
      </trkpt>
      <trkpt lat="63.57112980" lon="-19.4694842">
        <ele>535.20001</ele>
        <time>2010-01-01T01:33:46Z</time>
      </trkpt>
      <trkpt lat="63.57112530" lon="-19.4695271">
        <ele>535.40002</ele>
        <time>2010-01-01T01:33:47Z</time>
      </trkpt>
      <trkpt lat="63.57111640" lon="-19.4695720">
        <ele>535.40002</ele>
        <time>2010-01-01T01:33:48Z</time>
      </trkpt>
      <trkpt lat="63.57109650" lon="-19.4696475">
        <ele>535.40002</ele>
        <time>2010-01-01T01:33:49Z</time>
      </trkpt>
      <trkpt lat="63.57107910" lon="-19.4697374">
        <ele>535.59997</ele>
        <time>2010-01-01T01:33:51Z</time>
      </trkpt>
      <trkpt lat="63.57106740" lon="-19.4697830">
        <ele>535.40002</ele>
        <time>2010-01-01T01:33:52Z</time>
      </trkpt>
      <trkpt lat="63.57104700" lon="-19.4698652">
        <ele>535.59997</ele>
        <time>2010-01-01T01:33:54Z</time>
      </trkpt>
      <trkpt lat="63.57103920" lon="-19.4699038">
        <ele>536.00000</ele>
        <time>2010-01-01T01:33:54Z</time>
      </trkpt>
      <trkpt lat="63.57102870" lon="-19.4699398">
        <ele>536.20001</ele>
        <time>2010-01-01T01:33:55Z</time>
      </trkpt>
      <trkpt lat="63.57101760" lon="-19.4699778">
        <ele>536.59997</ele>
        <time>2010-01-01T01:33:56Z</time>
      </trkpt>
      <trkpt lat="63.57100690" lon="-19.4700168">
        <ele>537.00000</ele>
        <time>2010-01-01T01:33:57Z</time>
      </trkpt>
      <trkpt lat="63.57099560" lon="-19.4700551">
        <ele>537.40002</ele>
        <time>2010-01-01T01:33:58Z</time>
      </trkpt>
      <trkpt lat="63.57098190" lon="-19.4700943">
        <ele>537.40002</ele>
        <time>2010-01-01T01:33:59Z</time>
      </trkpt>
      <trkpt lat="63.57092120" lon="-19.4702779">
        <ele>537.40002</ele>
        <time>2010-01-01T01:34:03Z</time>
      </trkpt>
      <trkpt lat="63.57088240" lon="-19.4703974">
        <ele>537.59997</ele>
        <time>2010-01-01T01:34:05Z</time>
      </trkpt>
      <trkpt lat="63.57087140" lon="-19.4704370">
        <ele>538.00000</ele>
        <time>2010-01-01T01:34:06Z</time>
      </trkpt>
      <trkpt lat="63.57085790" lon="-19.4704740">
        <ele>538.20001</ele>
        <time>2010-01-01T01:34:07Z</time>
      </trkpt>
      <trkpt lat="63.57084300" lon="-19.4705073">
        <ele>538.40002</ele>
        <time>2010-01-01T01:34:08Z</time>
      </trkpt>
      <trkpt lat="63.57082560" lon="-19.4705200">
        <ele>538.79998</ele>
        <time>2010-01-01T01:34:08Z</time>
      </trkpt>
      <trkpt lat="63.57081090" lon="-19.4705441">
        <ele>539.20001</ele>
        <time>2010-01-01T01:34:09Z</time>
      </trkpt>
      <trkpt lat="63.57079940" lon="-19.4705781">
        <ele>539.40002</ele>
        <time>2010-01-01T01:34:10Z</time>
      </trkpt>
      <trkpt lat="63.57079010" lon="-19.4706206">
        <ele>539.59997</ele>
        <time>2010-01-01T01:34:11Z</time>
      </trkpt>
      <trkpt lat="63.57078570" lon="-19.4706633">
        <ele>539.59997</ele>
        <time>2010-01-01T01:34:12Z</time>
      </trkpt>
      <trkpt lat="63.57078540" lon="-19.4707126">
        <ele>539.59997</ele>
        <time>2010-01-01T01:34:12Z</time>
      </trkpt>
      <trkpt lat="63.57078900" lon="-19.4707703">
        <ele>540.00000</ele>
        <time>2010-01-01T01:34:14Z</time>
      </trkpt>
      <trkpt lat="63.57079350" lon="-19.4708171">
        <ele>540.40002</ele>
        <time>2010-01-01T01:34:14Z</time>
      </trkpt>
      <trkpt lat="63.57079900" lon="-19.4708700">
        <ele>540.79998</ele>
        <time>2010-01-01T01:34:15Z</time>
      </trkpt>
      <trkpt lat="63.57080430" lon="-19.4709211">
        <ele>541.20001</ele>
        <time>2010-01-01T01:34:16Z</time>
      </trkpt>
      <trkpt lat="63.57081210" lon="-19.4709795">
        <ele>541.59997</ele>
        <time>2010-01-01T01:34:17Z</time>
      </trkpt>
      <trkpt lat="63.57081860" lon="-19.4710343">
        <ele>541.59997</ele>
        <time>2010-01-01T01:34:18Z</time>
      </trkpt>
      <trkpt lat="63.57083190" lon="-19.4711386">
        <ele>541.59997</ele>
        <time>2010-01-01T01:34:20Z</time>
      </trkpt>
      <trkpt lat="63.57086380" lon="-19.4713600">
        <ele>541.59997</ele>
        <time>2010-01-01T01:34:24Z</time>
      </trkpt>
      <trkpt lat="63.57089670" lon="-19.4716041">
        <ele>541.59997</ele>
        <time>2010-01-01T01:34:29Z</time>
      </trkpt>
      <trkpt lat="63.57091030" lon="-19.4717171">
        <ele>542.00000</ele>
        <time>2010-01-01T01:34:31Z</time>
      </trkpt>
      <trkpt lat="63.57091760" lon="-19.4717777">
        <ele>542.40002</ele>
        <time>2010-01-01T01:34:32Z</time>
      </trkpt>
      <trkpt lat="63.57093050" lon="-19.4718363">
        <ele>542.79998</ele>
        <time>2010-01-01T01:34:33Z</time>
      </trkpt>
      <trkpt lat="63.57094300" lon="-19.4718988">
        <ele>543.20001</ele>
        <time>2010-01-01T01:34:35Z</time>
      </trkpt>
      <trkpt lat="63.57095340" lon="-19.4719627">
        <ele>543.40002</ele>
        <time>2010-01-01T01:34:36Z</time>
      </trkpt>
      <trkpt lat="63.57095460" lon="-19.4720182">
        <ele>543.59997</ele>
        <time>2010-01-01T01:34:37Z</time>
      </trkpt>
      <trkpt lat="63.57095470" lon="-19.4721993">
        <ele>543.59997</ele>
        <time>2010-01-01T01:34:40Z</time>
      </trkpt>
      <trkpt lat="63.57095430" lon="-19.4722527">
        <ele>543.59997</ele>
        <time>2010-01-01T01:34:41Z</time>
      </trkpt>
      <trkpt lat="63.57095590" lon="-19.4723785">
        <ele>543.59997</ele>
        <time>2010-01-01T01:34:43Z</time>
      </trkpt>
      <trkpt lat="63.57096150" lon="-19.4724359">
        <ele>543.59997</ele>
        <time>2010-01-01T01:34:44Z</time>
      </trkpt>
      <trkpt lat="63.57097230" lon="-19.4724972">
        <ele>543.59997</ele>
        <time>2010-01-01T01:34:45Z</time>
      </trkpt>
      <trkpt lat="63.57097840" lon="-19.4725604">
        <ele>543.59997</ele>
        <time>2010-01-01T01:34:47Z</time>
      </trkpt>
      <trkpt lat="63.57098320" lon="-19.4726270">
        <ele>543.59997</ele>
        <time>2010-01-01T01:34:48Z</time>
      </trkpt>
      <trkpt lat="63.57098590" lon="-19.4726805">
        <ele>543.59997</ele>
        <time>2010-01-01T01:34:49Z</time>
      </trkpt>
      <trkpt lat="63.57098690" lon="-19.4727351">
        <ele>543.40002</ele>
        <time>2010-01-01T01:34:50Z</time>
      </trkpt>
      <trkpt lat="63.57098860" lon="-19.4727841">
        <ele>543.00000</ele>
        <time>2010-01-01T01:34:51Z</time>
      </trkpt>
      <trkpt lat="63.57099360" lon="-19.4728388">
        <ele>542.79998</ele>
        <time>2010-01-01T01:34:52Z</time>
      </trkpt>
      <trkpt lat="63.57099910" lon="-19.4729104">
        <ele>542.40002</ele>
        <time>2010-01-01T01:34:53Z</time>
      </trkpt>
      <trkpt lat="63.57100140" lon="-19.4729667">
        <ele>542.20001</ele>
        <time>2010-01-01T01:34:54Z</time>
      </trkpt>
      <trkpt lat="63.57100350" lon="-19.4730278">
        <ele>541.59997</ele>
        <time>2010-01-01T01:34:55Z</time>
      </trkpt>
      <trkpt lat="63.57100670" lon="-19.4731021">
        <ele>541.40002</ele>
        <time>2010-01-01T01:34:56Z</time>
      </trkpt>
      <trkpt lat="63.57100950" lon="-19.4731646">
        <ele>541.20001</ele>
        <time>2010-01-01T01:34:57Z</time>
      </trkpt>
      <trkpt lat="63.57102690" lon="-19.4734114">
        <ele>541.00000</ele>
        <time>2010-01-01T01:35:02Z</time>
      </trkpt>
      <trkpt lat="63.57103280" lon="-19.4734717">
        <ele>540.79998</ele>
        <time>2010-01-01T01:35:03Z</time>
      </trkpt>
      <trkpt lat="63.57104150" lon="-19.4735395">
        <ele>540.20001</ele>
        <time>2010-01-01T01:35:04Z</time>
      </trkpt>
      <trkpt lat="63.57104680" lon="-19.4736044">
        <ele>539.79998</ele>
        <time>2010-01-01T01:35:05Z</time>
      </trkpt>
      <trkpt lat="63.57105350" lon="-19.4736640">
        <ele>539.40002</ele>
        <time>2010-01-01T01:35:07Z</time>
      </trkpt>
      <trkpt lat="63.57105900" lon="-19.4737203">
        <ele>539.00000</ele>
        <time>2010-01-01T01:35:08Z</time>
      </trkpt>
      <trkpt lat="63.57106480" lon="-19.4737731">
        <ele>539.00000</ele>
        <time>2010-01-01T01:35:09Z</time>
      </trkpt>
      <trkpt lat="63.57105550" lon="-19.4738390">
        <ele>539.00000</ele>
        <time>2010-01-01T01:35:10Z</time>
      </trkpt>
      <trkpt lat="63.57105320" lon="-19.4739059">
        <ele>539.00000</ele>
        <time>2010-01-01T01:35:11Z</time>
      </trkpt>
      <trkpt lat="63.57104560" lon="-19.4740999">
        <ele>538.59997</ele>
        <time>2010-01-01T01:35:14Z</time>
      </trkpt>
      <trkpt lat="63.57104490" lon="-19.4741658">
        <ele>538.20001</ele>
        <time>2010-01-01T01:35:16Z</time>
      </trkpt>
      <trkpt lat="63.57103300" lon="-19.4742375">
        <ele>538.00000</ele>
        <time>2010-01-01T01:35:17Z</time>
      </trkpt>
      <trkpt lat="63.57102290" lon="-19.4742984">
        <ele>537.40002</ele>
        <time>2010-01-01T01:35:18Z</time>
      </trkpt>
      <trkpt lat="63.57101520" lon="-19.4743595">
        <ele>537.00000</ele>
        <time>2010-01-01T01:35:19Z</time>
      </trkpt>
      <trkpt lat="63.57100890" lon="-19.4744184">
        <ele>537.00000</ele>
        <time>2010-01-01T01:35:20Z</time>
      </trkpt>
      <trkpt lat="63.57100290" lon="-19.4745254">
        <ele>536.79998</ele>
        <time>2010-01-01T01:35:22Z</time>
      </trkpt>
      <trkpt lat="63.57100170" lon="-19.4745833">
        <ele>536.20001</ele>
        <time>2010-01-01T01:35:23Z</time>
      </trkpt>
      <trkpt lat="63.57099960" lon="-19.4746329">
        <ele>535.79998</ele>
        <time>2010-01-01T01:35:24Z</time>
      </trkpt>
      <trkpt lat="63.57099670" lon="-19.4746825">
        <ele>535.59997</ele>
        <time>2010-01-01T01:35:25Z</time>
      </trkpt>
      <trkpt lat="63.57099210" lon="-19.4747469">
        <ele>535.20001</ele>
        <time>2010-01-01T01:35:26Z</time>
      </trkpt>
      <trkpt lat="63.57098780" lon="-19.4748039">
        <ele>534.79998</ele>
        <time>2010-01-01T01:35:27Z</time>
      </trkpt>
      <trkpt lat="63.57098610" lon="-19.4748610">
        <ele>534.79998</ele>
        <time>2010-01-01T01:35:28Z</time>
      </trkpt>
      <trkpt lat="63.57099420" lon="-19.4749880">
        <ele>534.59997</ele>
        <time>2010-01-01T01:35:31Z</time>
      </trkpt>
      <trkpt lat="63.57100020" lon="-19.4750107">
        <ele>534.20001</ele>
        <time>2010-01-01T01:35:31Z</time>
      </trkpt>
      <trkpt lat="63.57101150" lon="-19.4750296">
        <ele>533.79998</ele>
        <time>2010-01-01T01:35:32Z</time>
      </trkpt>
      <trkpt lat="63.57102000" lon="-19.4750532">
        <ele>533.40002</ele>
        <time>2010-01-01T01:35:32Z</time>
      </trkpt>
      <trkpt lat="63.57102690" lon="-19.4750863">
        <ele>533.20001</ele>
        <time>2010-01-01T01:35:33Z</time>
      </trkpt>
      <trkpt lat="63.57103380" lon="-19.4751214">
        <ele>532.59997</ele>
        <time>2010-01-01T01:35:33Z</time>
      </trkpt>
      <trkpt lat="63.57103990" lon="-19.4751530">
        <ele>532.20001</ele>
        <time>2010-01-01T01:35:34Z</time>
      </trkpt>
      <trkpt lat="63.57104300" lon="-19.4751852">
        <ele>531.79998</ele>
        <time>2010-01-01T01:35:35Z</time>
      </trkpt>
      <trkpt lat="63.57104210" lon="-19.4752212">
        <ele>531.20001</ele>
        <time>2010-01-01T01:35:35Z</time>
      </trkpt>
      <trkpt lat="63.57104220" lon="-19.4752395">
        <ele>530.79998</ele>
        <time>2010-01-01T01:35:36Z</time>
      </trkpt>
      <trkpt lat="63.57104840" lon="-19.4752582">
        <ele>530.20001</ele>
        <time>2010-01-01T01:35:36Z</time>
      </trkpt>
      <trkpt lat="63.57105330" lon="-19.4752785">
        <ele>530.00000</ele>
        <time>2010-01-01T01:35:36Z</time>
      </trkpt>
      <trkpt lat="63.57105550" lon="-19.4753049">
        <ele>529.59997</ele>
        <time>2010-01-01T01:35:37Z</time>
      </trkpt>
      <trkpt lat="63.57106150" lon="-19.4753362">
        <ele>529.40002</ele>
        <time>2010-01-01T01:35:38Z</time>
      </trkpt>
      <trkpt lat="63.57106380" lon="-19.4753799">
        <ele>529.00000</ele>
        <time>2010-01-01T01:35:38Z</time>
      </trkpt>
      <trkpt lat="63.57106170" lon="-19.4754308">
        <ele>528.40002</ele>
        <time>2010-01-01T01:35:39Z</time>
      </trkpt>
      <trkpt lat="63.57105900" lon="-19.4754900">
        <ele>527.79998</ele>
        <time>2010-01-01T01:35:40Z</time>
      </trkpt>
      <trkpt lat="63.57105820" lon="-19.4755544">
        <ele>527.20001</ele>
        <time>2010-01-01T01:35:41Z</time>
      </trkpt>
      <trkpt lat="63.57105590" lon="-19.4756234">
        <ele>526.40002</ele>
        <time>2010-01-01T01:35:43Z</time>
      </trkpt>
      <trkpt lat="63.57105490" lon="-19.4756980">
        <ele>525.59997</ele>
        <time>2010-01-01T01:35:44Z</time>
      </trkpt>
      <trkpt lat="63.57105160" lon="-19.4757823">
        <ele>524.79998</ele>
        <time>2010-01-01T01:35:46Z</time>
      </trkpt>
      <trkpt lat="63.57104630" lon="-19.4758416">
        <ele>524.00000</ele>
        <time>2010-01-01T01:35:47Z</time>
      </trkpt>
      <trkpt lat="63.57103610" lon="-19.4758923">
        <ele>523.20001</ele>
        <time>2010-01-01T01:35:48Z</time>
      </trkpt>
      <trkpt lat="63.57102290" lon="-19.4759410">
        <ele>522.40002</ele>
        <time>2010-01-01T01:35:49Z</time>
      </trkpt>
      <trkpt lat="63.57101270" lon="-19.4759878">
        <ele>521.79998</ele>
        <time>2010-01-01T01:35:50Z</time>
      </trkpt>
      <trkpt lat="63.57100610" lon="-19.4760449">
        <ele>520.79998</ele>
        <time>2010-01-01T01:35:51Z</time>
      </trkpt>
      <trkpt lat="63.57100710" lon="-19.4761069">
        <ele>520.00000</ele>
        <time>2010-01-01T01:35:52Z</time>
      </trkpt>
      <trkpt lat="63.57100800" lon="-19.4761762">
        <ele>519.20001</ele>
        <time>2010-01-01T01:35:53Z</time>
      </trkpt>
      <trkpt lat="63.57100980" lon="-19.4762540">
        <ele>518.40002</ele>
        <time>2010-01-01T01:35:54Z</time>
      </trkpt>
      <trkpt lat="63.57100340" lon="-19.4763078">
        <ele>517.59997</ele>
        <time>2010-01-01T01:35:55Z</time>
      </trkpt>
      <trkpt lat="63.57099190" lon="-19.4763924">
        <ele>517.40002</ele>
        <time>2010-01-01T01:35:57Z</time>
      </trkpt>
      <trkpt lat="63.57098120" lon="-19.4764559">
        <ele>516.79998</ele>
        <time>2010-01-01T01:35:58Z</time>
      </trkpt>
      <trkpt lat="63.57097030" lon="-19.4765158">
        <ele>516.20001</ele>
        <time>2010-01-01T01:35:59Z</time>
      </trkpt>
      <trkpt lat="63.57095740" lon="-19.4765670">
        <ele>515.59997</ele>
        <time>2010-01-01T01:36:00Z</time>
      </trkpt>
      <trkpt lat="63.57094090" lon="-19.4766242">
        <ele>515.20001</ele>
        <time>2010-01-01T01:36:01Z</time>
      </trkpt>
      <trkpt lat="63.57092220" lon="-19.4766786">
        <ele>514.59997</ele>
        <time>2010-01-01T01:36:03Z</time>
      </trkpt>
      <trkpt lat="63.57089790" lon="-19.4767347">
        <ele>514.20001</ele>
        <time>2010-01-01T01:36:04Z</time>
      </trkpt>
      <trkpt lat="63.57087590" lon="-19.4767938">
        <ele>513.59997</ele>
        <time>2010-01-01T01:36:05Z</time>
      </trkpt>
      <trkpt lat="63.57085430" lon="-19.4768508">
        <ele>513.20001</ele>
        <time>2010-01-01T01:36:07Z</time>
      </trkpt>
      <trkpt lat="63.57083150" lon="-19.4768989">
        <ele>512.79998</ele>
        <time>2010-01-01T01:36:08Z</time>
      </trkpt>
      <trkpt lat="63.57080000" lon="-19.4769595">
        <ele>512.59997</ele>
        <time>2010-01-01T01:36:10Z</time>
      </trkpt>
      <trkpt lat="63.57077240" lon="-19.4770115">
        <ele>512.20001</ele>
        <time>2010-01-01T01:36:11Z</time>
      </trkpt>
      <trkpt lat="63.57073940" lon="-19.4770639">
        <ele>511.79998</ele>
        <time>2010-01-01T01:36:13Z</time>
      </trkpt>
      <trkpt lat="63.57071240" lon="-19.4771160">
        <ele>511.39999</ele>
        <time>2010-01-01T01:36:14Z</time>
      </trkpt>
      <trkpt lat="63.57068950" lon="-19.4771655">
        <ele>511.00000</ele>
        <time>2010-01-01T01:36:15Z</time>
      </trkpt>
      <trkpt lat="63.57065950" lon="-19.4772391">
        <ele>510.39999</ele>
        <time>2010-01-01T01:36:17Z</time>
      </trkpt>
      <trkpt lat="63.57063090" lon="-19.4773127">
        <ele>510.00000</ele>
        <time>2010-01-01T01:36:19Z</time>
      </trkpt>
      <trkpt lat="63.57060630" lon="-19.4773716">
        <ele>509.39999</ele>
        <time>2010-01-01T01:36:20Z</time>
      </trkpt>
      <trkpt lat="63.57058200" lon="-19.4774236">
        <ele>509.00000</ele>
        <time>2010-01-01T01:36:22Z</time>
      </trkpt>
      <trkpt lat="63.57056270" lon="-19.4774655">
        <ele>508.79998</ele>
        <time>2010-01-01T01:36:23Z</time>
      </trkpt>
      <trkpt lat="63.57053510" lon="-19.4775210">
        <ele>508.39999</ele>
        <time>2010-01-01T01:36:24Z</time>
      </trkpt>
      <trkpt lat="63.57051020" lon="-19.4775760">
        <ele>508.00000</ele>
        <time>2010-01-01T01:36:26Z</time>
      </trkpt>
      <trkpt lat="63.57047810" lon="-19.4776290">
        <ele>507.60000</ele>
        <time>2010-01-01T01:36:27Z</time>
      </trkpt>
      <trkpt lat="63.57044640" lon="-19.4776401">
        <ele>507.20001</ele>
        <time>2010-01-01T01:36:29Z</time>
      </trkpt>
      <trkpt lat="63.57042180" lon="-19.4776681">
        <ele>506.79998</ele>
        <time>2010-01-01T01:36:30Z</time>
      </trkpt>
      <trkpt lat="63.57039480" lon="-19.4777143">
        <ele>506.79998</ele>
        <time>2010-01-01T01:36:31Z</time>
      </trkpt>
      <trkpt lat="63.57034480" lon="-19.4777808">
        <ele>506.79998</ele>
        <time>2010-01-01T01:36:33Z</time>
      </trkpt>
      <trkpt lat="63.57032060" lon="-19.4778159">
        <ele>506.79998</ele>
        <time>2010-01-01T01:36:35Z</time>
      </trkpt>
      <trkpt lat="63.57029980" lon="-19.4778499">
        <ele>506.79998</ele>
        <time>2010-01-01T01:36:36Z</time>
      </trkpt>
      <trkpt lat="63.57027500" lon="-19.4778889">
        <ele>506.79998</ele>
        <time>2010-01-01T01:36:37Z</time>
      </trkpt>
      <trkpt lat="63.57025130" lon="-19.4779251">
        <ele>506.79998</ele>
        <time>2010-01-01T01:36:38Z</time>
      </trkpt>
      <trkpt lat="63.57022610" lon="-19.4779712">
        <ele>506.79998</ele>
        <time>2010-01-01T01:36:39Z</time>
      </trkpt>
      <trkpt lat="63.57020730" lon="-19.4780130">
        <ele>506.79998</ele>
        <time>2010-01-01T01:36:40Z</time>
      </trkpt>
      <trkpt lat="63.57019140" lon="-19.4780618">
        <ele>506.79998</ele>
        <time>2010-01-01T01:36:41Z</time>
      </trkpt>
      <trkpt lat="63.57017710" lon="-19.4781133">
        <ele>506.79998</ele>
        <time>2010-01-01T01:36:42Z</time>
      </trkpt>
      <trkpt lat="63.57016430" lon="-19.4781621">
        <ele>506.79998</ele>
        <time>2010-01-01T01:36:43Z</time>
      </trkpt>
      <trkpt lat="63.57014620" lon="-19.4782079">
        <ele>506.79998</ele>
        <time>2010-01-01T01:36:45Z</time>
      </trkpt>
      <trkpt lat="63.57012960" lon="-19.4782445">
        <ele>506.79998</ele>
        <time>2010-01-01T01:36:46Z</time>
      </trkpt>
      <trkpt lat="63.57011460" lon="-19.4782783">
        <ele>506.79998</ele>
        <time>2010-01-01T01:36:46Z</time>
      </trkpt>
      <trkpt lat="63.57009400" lon="-19.4783311">
        <ele>506.79998</ele>
        <time>2010-01-01T01:36:48Z</time>
      </trkpt>
      <trkpt lat="63.57007690" lon="-19.4783774">
        <ele>506.79998</ele>
        <time>2010-01-01T01:36:49Z</time>
      </trkpt>
      <trkpt lat="63.57006180" lon="-19.4784282">
        <ele>506.79998</ele>
        <time>2010-01-01T01:36:50Z</time>
      </trkpt>
      <trkpt lat="63.57003500" lon="-19.4785295">
        <ele>506.79998</ele>
        <time>2010-01-01T01:36:52Z</time>
      </trkpt>
      <trkpt lat="63.56997240" lon="-19.4787155">
        <ele>506.79998</ele>
        <time>2010-01-01T01:36:56Z</time>
      </trkpt>
      <trkpt lat="63.56995410" lon="-19.4787605">
        <ele>506.39999</ele>
        <time>2010-01-01T01:36:57Z</time>
      </trkpt>
      <trkpt lat="63.56993880" lon="-19.4788151">
        <ele>506.00000</ele>
        <time>2010-01-01T01:36:58Z</time>
      </trkpt>
      <trkpt lat="63.56993170" lon="-19.4788594">
        <ele>505.60000</ele>
        <time>2010-01-01T01:36:59Z</time>
      </trkpt>
      <trkpt lat="63.56991570" lon="-19.4789182">
        <ele>505.20001</ele>
        <time>2010-01-01T01:37:00Z</time>
      </trkpt>
      <trkpt lat="63.56989280" lon="-19.4789785">
        <ele>504.79998</ele>
        <time>2010-01-01T01:37:02Z</time>
      </trkpt>
      <trkpt lat="63.56987200" lon="-19.4790451">
        <ele>504.20001</ele>
        <time>2010-01-01T01:37:03Z</time>
      </trkpt>
      <trkpt lat="63.56985080" lon="-19.4790878">
        <ele>504.00000</ele>
        <time>2010-01-01T01:37:04Z</time>
      </trkpt>
      <trkpt lat="63.56983330" lon="-19.4791354">
        <ele>503.60000</ele>
        <time>2010-01-01T01:37:05Z</time>
      </trkpt>
      <trkpt lat="63.56981650" lon="-19.4791835">
        <ele>503.00000</ele>
        <time>2010-01-01T01:37:07Z</time>
      </trkpt>
      <trkpt lat="63.56979500" lon="-19.4792328">
        <ele>502.39999</ele>
        <time>2010-01-01T01:37:08Z</time>
      </trkpt>
      <trkpt lat="63.56977310" lon="-19.4792722">
        <ele>501.79998</ele>
        <time>2010-01-01T01:37:09Z</time>
      </trkpt>
      <trkpt lat="63.56974230" lon="-19.4793264">
        <ele>501.20001</ele>
        <time>2010-01-01T01:37:10Z</time>
      </trkpt>
      <trkpt lat="63.56971470" lon="-19.4793715">
        <ele>500.60000</ele>
        <time>2010-01-01T01:37:12Z</time>
      </trkpt>
      <trkpt lat="63.56966250" lon="-19.4794434">
        <ele>500.60000</ele>
        <time>2010-01-01T01:37:14Z</time>
      </trkpt>
      <trkpt lat="63.56963600" lon="-19.4794867">
        <ele>500.60000</ele>
        <time>2010-01-01T01:37:16Z</time>
      </trkpt>
      <trkpt lat="63.56960950" lon="-19.4795357">
        <ele>500.60000</ele>
        <time>2010-01-01T01:37:17Z</time>
      </trkpt>
      <trkpt lat="63.56958550" lon="-19.4795738">
        <ele>500.60000</ele>
        <time>2010-01-01T01:37:18Z</time>
      </trkpt>
      <trkpt lat="63.56956000" lon="-19.4796076">
        <ele>500.60000</ele>
        <time>2010-01-01T01:37:19Z</time>
      </trkpt>
      <trkpt lat="63.56953600" lon="-19.4796536">
        <ele>500.60000</ele>
        <time>2010-01-01T01:37:21Z</time>
      </trkpt>
      <trkpt lat="63.56951560" lon="-19.4796853">
        <ele>500.60000</ele>
        <time>2010-01-01T01:37:22Z</time>
      </trkpt>
      <trkpt lat="63.56948490" lon="-19.4797372">
        <ele>500.60000</ele>
        <time>2010-01-01T01:37:23Z</time>
      </trkpt>
      <trkpt lat="63.56945920" lon="-19.4797802">
        <ele>500.60000</ele>
        <time>2010-01-01T01:37:24Z</time>
      </trkpt>
      <trkpt lat="63.56943630" lon="-19.4798214">
        <ele>500.60000</ele>
        <time>2010-01-01T01:37:26Z</time>
      </trkpt>
      <trkpt lat="63.56941190" lon="-19.4798667">
        <ele>500.60000</ele>
        <time>2010-01-01T01:37:27Z</time>
      </trkpt>
      <trkpt lat="63.56939170" lon="-19.4799063">
        <ele>500.60000</ele>
        <time>2010-01-01T01:37:28Z</time>
      </trkpt>
      <trkpt lat="63.56937210" lon="-19.4799482">
        <ele>500.20001</ele>
        <time>2010-01-01T01:37:29Z</time>
      </trkpt>
      <trkpt lat="63.56934520" lon="-19.4799940">
        <ele>499.79998</ele>
        <time>2010-01-01T01:37:30Z</time>
      </trkpt>
      <trkpt lat="63.56932150" lon="-19.4800404">
        <ele>499.60000</ele>
        <time>2010-01-01T01:37:32Z</time>
      </trkpt>
      <trkpt lat="63.56929550" lon="-19.4800919">
        <ele>499.39999</ele>
        <time>2010-01-01T01:37:33Z</time>
      </trkpt>
      <trkpt lat="63.56927360" lon="-19.4801442">
        <ele>499.00000</ele>
        <time>2010-01-01T01:37:34Z</time>
      </trkpt>
      <trkpt lat="63.56924800" lon="-19.4802011">
        <ele>498.79998</ele>
        <time>2010-01-01T01:37:36Z</time>
      </trkpt>
      <trkpt lat="63.56922310" lon="-19.4802452">
        <ele>498.60000</ele>
        <time>2010-01-01T01:37:37Z</time>
      </trkpt>
      <trkpt lat="63.56916840" lon="-19.4803466">
        <ele>498.20001</ele>
        <time>2010-01-01T01:37:40Z</time>
      </trkpt>
      <trkpt lat="63.56914400" lon="-19.4804027">
        <ele>497.79998</ele>
        <time>2010-01-01T01:37:41Z</time>
      </trkpt>
      <trkpt lat="63.56912490" lon="-19.4804666">
        <ele>497.39999</ele>
        <time>2010-01-01T01:37:43Z</time>
      </trkpt>
      <trkpt lat="63.56911170" lon="-19.4805197">
        <ele>497.00000</ele>
        <time>2010-01-01T01:37:44Z</time>
      </trkpt>
      <trkpt lat="63.56909960" lon="-19.4805763">
        <ele>496.60000</ele>
        <time>2010-01-01T01:37:45Z</time>
      </trkpt>
      <trkpt lat="63.56908600" lon="-19.4806445">
        <ele>496.60000</ele>
        <time>2010-01-01T01:37:46Z</time>
      </trkpt>
      <trkpt lat="63.56901640" lon="-19.4809419">
        <ele>496.60000</ele>
        <time>2010-01-01T01:37:52Z</time>
      </trkpt>
      <trkpt lat="63.56894600" lon="-19.4812256">
        <ele>496.60000</ele>
        <time>2010-01-01T01:37:58Z</time>
      </trkpt>
      <trkpt lat="63.56892320" lon="-19.4812826">
        <ele>496.79998</ele>
        <time>2010-01-01T01:37:59Z</time>
      </trkpt>
      <trkpt lat="63.56891160" lon="-19.4813128">
        <ele>496.60000</ele>
        <time>2010-01-01T01:38:00Z</time>
      </trkpt>
      <trkpt lat="63.56889600" lon="-19.4813560">
        <ele>496.60000</ele>
        <time>2010-01-01T01:38:01Z</time>
      </trkpt>
      <trkpt lat="63.56885480" lon="-19.4814806">
        <ele>496.60000</ele>
        <time>2010-01-01T01:38:04Z</time>
      </trkpt>
      <trkpt lat="63.56879440" lon="-19.4817406">
        <ele>496.60000</ele>
        <time>2010-01-01T01:38:09Z</time>
      </trkpt>
      <trkpt lat="63.56879000" lon="-19.4818329">
        <ele>496.79998</ele>
        <time>2010-01-01T01:38:11Z</time>
      </trkpt>
      <trkpt lat="63.56878910" lon="-19.4818717">
        <ele>497.20001</ele>
        <time>2010-01-01T01:38:11Z</time>
      </trkpt>
      <trkpt lat="63.56879040" lon="-19.4819229">
        <ele>497.60000</ele>
        <time>2010-01-01T01:38:12Z</time>
      </trkpt>
      <trkpt lat="63.56879050" lon="-19.4819814">
        <ele>498.00000</ele>
        <time>2010-01-01T01:38:13Z</time>
      </trkpt>
      <trkpt lat="63.56878790" lon="-19.4820396">
        <ele>498.39999</ele>
        <time>2010-01-01T01:38:14Z</time>
      </trkpt>
      <trkpt lat="63.56878180" lon="-19.4820883">
        <ele>498.60000</ele>
        <time>2010-01-01T01:38:15Z</time>
      </trkpt>
      <trkpt lat="63.56876660" lon="-19.4823164">
        <ele>498.79998</ele>
        <time>2010-01-01T01:38:19Z</time>
      </trkpt>
      <trkpt lat="63.56876050" lon="-19.4823636">
        <ele>499.20001</ele>
        <time>2010-01-01T01:38:20Z</time>
      </trkpt>
      <trkpt lat="63.56875190" lon="-19.4824027">
        <ele>499.60000</ele>
        <time>2010-01-01T01:38:21Z</time>
      </trkpt>
      <trkpt lat="63.56873940" lon="-19.4824473">
        <ele>499.79998</ele>
        <time>2010-01-01T01:38:22Z</time>
      </trkpt>
      <trkpt lat="63.56873100" lon="-19.4824934">
        <ele>500.20001</ele>
        <time>2010-01-01T01:38:23Z</time>
      </trkpt>
      <trkpt lat="63.56872260" lon="-19.4825427">
        <ele>500.60000</ele>
        <time>2010-01-01T01:38:24Z</time>
      </trkpt>
      <trkpt lat="63.56871270" lon="-19.4825882">
        <ele>500.79998</ele>
        <time>2010-01-01T01:38:25Z</time>
      </trkpt>
      <trkpt lat="63.56867870" lon="-19.4828200">
        <ele>500.79998</ele>
        <time>2010-01-01T01:38:29Z</time>
      </trkpt>
      <trkpt lat="63.56866930" lon="-19.4828625">
        <ele>500.79998</ele>
        <time>2010-01-01T01:38:30Z</time>
      </trkpt>
      <trkpt lat="63.56866130" lon="-19.4828996">
        <ele>501.00000</ele>
        <time>2010-01-01T01:38:31Z</time>
      </trkpt>
      <trkpt lat="63.56864560" lon="-19.4829492">
        <ele>501.39999</ele>
        <time>2010-01-01T01:38:32Z</time>
      </trkpt>
      <trkpt lat="63.56862980" lon="-19.4829875">
        <ele>501.79998</ele>
        <time>2010-01-01T01:38:33Z</time>
      </trkpt>
      <trkpt lat="63.56861340" lon="-19.4830196">
        <ele>502.20001</ele>
        <time>2010-01-01T01:38:33Z</time>
      </trkpt>
      <trkpt lat="63.56859600" lon="-19.4830543">
        <ele>502.60000</ele>
        <time>2010-01-01T01:38:34Z</time>
      </trkpt>
      <trkpt lat="63.56858350" lon="-19.4830917">
        <ele>502.79998</ele>
        <time>2010-01-01T01:38:35Z</time>
      </trkpt>
      <trkpt lat="63.56856780" lon="-19.4831380">
        <ele>502.79998</ele>
        <time>2010-01-01T01:38:36Z</time>
      </trkpt>
      <trkpt lat="63.56855120" lon="-19.4831777">
        <ele>502.79998</ele>
        <time>2010-01-01T01:38:37Z</time>
      </trkpt>
      <trkpt lat="63.56853240" lon="-19.4832220">
        <ele>502.79998</ele>
        <time>2010-01-01T01:38:38Z</time>
      </trkpt>
      <trkpt lat="63.56851530" lon="-19.4832673">
        <ele>502.79998</ele>
        <time>2010-01-01T01:38:39Z</time>
      </trkpt>
      <trkpt lat="63.56849450" lon="-19.4833009">
        <ele>502.79998</ele>
        <time>2010-01-01T01:38:40Z</time>
      </trkpt>
      <trkpt lat="63.56847090" lon="-19.4833324">
        <ele>502.79998</ele>
        <time>2010-01-01T01:38:41Z</time>
      </trkpt>
      <trkpt lat="63.56839170" lon="-19.4835304">
        <ele>502.79998</ele>
        <time>2010-01-01T01:38:46Z</time>
      </trkpt>
      <trkpt lat="63.56835420" lon="-19.4836076">
        <ele>502.79998</ele>
        <time>2010-01-01T01:38:48Z</time>
      </trkpt>
      <trkpt lat="63.56834470" lon="-19.4836371">
        <ele>502.60000</ele>
        <time>2010-01-01T01:38:49Z</time>
      </trkpt>
      <trkpt lat="63.56834090" lon="-19.4836733">
        <ele>502.20001</ele>
        <time>2010-01-01T01:38:50Z</time>
      </trkpt>
      <trkpt lat="63.56833970" lon="-19.4837071">
        <ele>501.79998</ele>
        <time>2010-01-01T01:38:50Z</time>
      </trkpt>
      <trkpt lat="63.56833420" lon="-19.4837386">
        <ele>501.20001</ele>
        <time>2010-01-01T01:38:51Z</time>
      </trkpt>
      <trkpt lat="63.56831970" lon="-19.4837639">
        <ele>500.79998</ele>
        <time>2010-01-01T01:38:52Z</time>
      </trkpt>
      <trkpt lat="63.56830570" lon="-19.4837798">
        <ele>500.39999</ele>
        <time>2010-01-01T01:38:52Z</time>
      </trkpt>
      <trkpt lat="63.56828450" lon="-19.4837980">
        <ele>500.00000</ele>
        <time>2010-01-01T01:38:53Z</time>
      </trkpt>
      <trkpt lat="63.56826690" lon="-19.4838179">
        <ele>499.39999</ele>
        <time>2010-01-01T01:38:54Z</time>
      </trkpt>
      <trkpt lat="63.56824860" lon="-19.4838499">
        <ele>498.79998</ele>
        <time>2010-01-01T01:38:55Z</time>
      </trkpt>
      <trkpt lat="63.56822550" lon="-19.4838990">
        <ele>498.20001</ele>
        <time>2010-01-01T01:38:56Z</time>
      </trkpt>
      <trkpt lat="63.56820170" lon="-19.4839572">
        <ele>497.79998</ele>
        <time>2010-01-01T01:38:57Z</time>
      </trkpt>
      <trkpt lat="63.56817920" lon="-19.4840160">
        <ele>497.39999</ele>
        <time>2010-01-01T01:38:59Z</time>
      </trkpt>
      <trkpt lat="63.56815170" lon="-19.4840831">
        <ele>496.79998</ele>
        <time>2010-01-01T01:39:00Z</time>
      </trkpt>
      <trkpt lat="63.56812470" lon="-19.4841487">
        <ele>496.20001</ele>
        <time>2010-01-01T01:39:02Z</time>
      </trkpt>
      <trkpt lat="63.56810300" lon="-19.4842162">
        <ele>495.39999</ele>
        <time>2010-01-01T01:39:04Z</time>
      </trkpt>
      <trkpt lat="63.56809100" lon="-19.4842859">
        <ele>495.00000</ele>
        <time>2010-01-01T01:39:05Z</time>
      </trkpt>
      <trkpt lat="63.56807920" lon="-19.4843668">
        <ele>494.39999</ele>
        <time>2010-01-01T01:39:06Z</time>
      </trkpt>
      <trkpt lat="63.56805980" lon="-19.4844385">
        <ele>493.79998</ele>
        <time>2010-01-01T01:39:08Z</time>
      </trkpt>
      <trkpt lat="63.56803740" lon="-19.4845167">
        <ele>491.20001</ele>
        <time>2010-01-01T01:39:10Z</time>
      </trkpt>
      <trkpt lat="63.56801610" lon="-19.4845890">
        <ele>491.20001</ele>
        <time>2010-01-01T01:39:11Z</time>
      </trkpt>
      <trkpt lat="63.56799600" lon="-19.4846603">
        <ele>491.20001</ele>
        <time>2010-01-01T01:39:13Z</time>
      </trkpt>
      <trkpt lat="63.56797780" lon="-19.4847282">
        <ele>491.20001</ele>
        <time>2010-01-01T01:39:14Z</time>
      </trkpt>
      <trkpt lat="63.56796370" lon="-19.4847898">
        <ele>491.20001</ele>
        <time>2010-01-01T01:39:15Z</time>
      </trkpt>
      <trkpt lat="63.56795080" lon="-19.4848489">
        <ele>491.20001</ele>
        <time>2010-01-01T01:39:16Z</time>
      </trkpt>
      <trkpt lat="63.56793770" lon="-19.4849165">
        <ele>491.20001</ele>
        <time>2010-01-01T01:39:18Z</time>
      </trkpt>
      <trkpt lat="63.56791930" lon="-19.4849800">
        <ele>490.79998</ele>
        <time>2010-01-01T01:39:19Z</time>
      </trkpt>
      <trkpt lat="63.56789330" lon="-19.4850571">
        <ele>490.39999</ele>
        <time>2010-01-01T01:39:21Z</time>
      </trkpt>
      <trkpt lat="63.56786750" lon="-19.4851201">
        <ele>490.00000</ele>
        <time>2010-01-01T01:39:22Z</time>
      </trkpt>
      <trkpt lat="63.56784570" lon="-19.4851783">
        <ele>489.60000</ele>
        <time>2010-01-01T01:39:24Z</time>
      </trkpt>
      <trkpt lat="63.56782900" lon="-19.4852380">
        <ele>489.20001</ele>
        <time>2010-01-01T01:39:25Z</time>
      </trkpt>
      <trkpt lat="63.56778840" lon="-19.4854522">
        <ele>489.00000</ele>
        <time>2010-01-01T01:39:29Z</time>
      </trkpt>
      <trkpt lat="63.56778290" lon="-19.4855134">
        <ele>488.60000</ele>
        <time>2010-01-01T01:39:30Z</time>
      </trkpt>
      <trkpt lat="63.56777470" lon="-19.4855754">
        <ele>488.00000</ele>
        <time>2010-01-01T01:39:31Z</time>
      </trkpt>
      <trkpt lat="63.56776410" lon="-19.4856359">
        <ele>487.60000</ele>
        <time>2010-01-01T01:39:32Z</time>
      </trkpt>
      <trkpt lat="63.56775130" lon="-19.4857075">
        <ele>487.20001</ele>
        <time>2010-01-01T01:39:34Z</time>
      </trkpt>
      <trkpt lat="63.56773950" lon="-19.4857725">
        <ele>487.00000</ele>
        <time>2010-01-01T01:39:35Z</time>
      </trkpt>
      <trkpt lat="63.56771940" lon="-19.4859030">
        <ele>487.00000</ele>
        <time>2010-01-01T01:39:38Z</time>
      </trkpt>
      <trkpt lat="63.56768050" lon="-19.4860815">
        <ele>486.79998</ele>
        <time>2010-01-01T01:39:41Z</time>
      </trkpt>
      <trkpt lat="63.56766590" lon="-19.4861410">
        <ele>486.20001</ele>
        <time>2010-01-01T01:39:42Z</time>
      </trkpt>
      <trkpt lat="63.56765020" lon="-19.4861967">
        <ele>485.79998</ele>
        <time>2010-01-01T01:39:43Z</time>
      </trkpt>
      <trkpt lat="63.56763290" lon="-19.4862464">
        <ele>485.39999</ele>
        <time>2010-01-01T01:39:45Z</time>
      </trkpt>
      <trkpt lat="63.56761310" lon="-19.4863008">
        <ele>485.00000</ele>
        <time>2010-01-01T01:39:46Z</time>
      </trkpt>
      <trkpt lat="63.56753510" lon="-19.4865748">
        <ele>485.00000</ele>
        <time>2010-01-01T01:39:52Z</time>
      </trkpt>
      <trkpt lat="63.56751730" lon="-19.4866266">
        <ele>485.00000</ele>
        <time>2010-01-01T01:39:53Z</time>
      </trkpt>
      <trkpt lat="63.56749920" lon="-19.4866753">
        <ele>485.00000</ele>
        <time>2010-01-01T01:39:54Z</time>
      </trkpt>
      <trkpt lat="63.56748190" lon="-19.4867369">
        <ele>485.00000</ele>
        <time>2010-01-01T01:39:55Z</time>
      </trkpt>
      <trkpt lat="63.56746800" lon="-19.4867851">
        <ele>485.00000</ele>
        <time>2010-01-01T01:39:56Z</time>
      </trkpt>
      <trkpt lat="63.56745000" lon="-19.4868356">
        <ele>485.00000</ele>
        <time>2010-01-01T01:39:57Z</time>
      </trkpt>
      <trkpt lat="63.56743330" lon="-19.4868901">
        <ele>485.00000</ele>
        <time>2010-01-01T01:39:59Z</time>
      </trkpt>
      <trkpt lat="63.56741680" lon="-19.4869560">
        <ele>485.00000</ele>
        <time>2010-01-01T01:40:00Z</time>
      </trkpt>
      <trkpt lat="63.56739950" lon="-19.4870041">
        <ele>482.79998</ele>
        <time>2010-01-01T01:40:01Z</time>
      </trkpt>
      <trkpt lat="63.56738130" lon="-19.4870556">
        <ele>482.79998</ele>
        <time>2010-01-01T01:40:02Z</time>
      </trkpt>
      <trkpt lat="63.56735620" lon="-19.4871171">
        <ele>482.79998</ele>
        <time>2010-01-01T01:40:04Z</time>
      </trkpt>
      <trkpt lat="63.56733750" lon="-19.4871653">
        <ele>482.79998</ele>
        <time>2010-01-01T01:40:05Z</time>
      </trkpt>
      <trkpt lat="63.56728510" lon="-19.4872592">
        <ele>482.79998</ele>
        <time>2010-01-01T01:40:08Z</time>
      </trkpt>
      <trkpt lat="63.56725920" lon="-19.4873076">
        <ele>482.60000</ele>
        <time>2010-01-01T01:40:09Z</time>
      </trkpt>
      <trkpt lat="63.56722720" lon="-19.4873673">
        <ele>482.20001</ele>
        <time>2010-01-01T01:40:11Z</time>
      </trkpt>
      <trkpt lat="63.56719650" lon="-19.4874098">
        <ele>481.79998</ele>
        <time>2010-01-01T01:40:12Z</time>
      </trkpt>
      <trkpt lat="63.56716860" lon="-19.4874460">
        <ele>481.20001</ele>
        <time>2010-01-01T01:40:13Z</time>
      </trkpt>
      <trkpt lat="63.56713800" lon="-19.4874948">
        <ele>480.79998</ele>
        <time>2010-01-01T01:40:15Z</time>
      </trkpt>
      <trkpt lat="63.56711510" lon="-19.4875395">
        <ele>480.20001</ele>
        <time>2010-01-01T01:40:16Z</time>
      </trkpt>
      <trkpt lat="63.56709190" lon="-19.4875797">
        <ele>479.79998</ele>
        <time>2010-01-01T01:40:17Z</time>
      </trkpt>
      <trkpt lat="63.56706590" lon="-19.4876278">
        <ele>479.20001</ele>
        <time>2010-01-01T01:40:19Z</time>
      </trkpt>
      <trkpt lat="63.56704250" lon="-19.4876822">
        <ele>478.79998</ele>
        <time>2010-01-01T01:40:20Z</time>
      </trkpt>
      <trkpt lat="63.56701340" lon="-19.4877609">
        <ele>478.20001</ele>
        <time>2010-01-01T01:40:22Z</time>
      </trkpt>
      <trkpt lat="63.56698450" lon="-19.4878153">
        <ele>477.79998</ele>
        <time>2010-01-01T01:40:23Z</time>
      </trkpt>
      <trkpt lat="63.56695280" lon="-19.4878652">
        <ele>477.20001</ele>
        <time>2010-01-01T01:40:25Z</time>
      </trkpt>
      <trkpt lat="63.56692960" lon="-19.4879124">
        <ele>476.79998</ele>
        <time>2010-01-01T01:40:26Z</time>
      </trkpt>
      <trkpt lat="63.56690190" lon="-19.4879663">
        <ele>476.20001</ele>
        <time>2010-01-01T01:40:27Z</time>
      </trkpt>
      <trkpt lat="63.56687440" lon="-19.4880007">
        <ele>475.79998</ele>
        <time>2010-01-01T01:40:29Z</time>
      </trkpt>
      <trkpt lat="63.56684770" lon="-19.4880285">
        <ele>475.39999</ele>
        <time>2010-01-01T01:40:30Z</time>
      </trkpt>
      <trkpt lat="63.56682030" lon="-19.4880690">
        <ele>475.00000</ele>
        <time>2010-01-01T01:40:31Z</time>
      </trkpt>
      <trkpt lat="63.56679290" lon="-19.4881177">
        <ele>474.60000</ele>
        <time>2010-01-01T01:40:33Z</time>
      </trkpt>
      <trkpt lat="63.56676880" lon="-19.4881635">
        <ele>474.39999</ele>
        <time>2010-01-01T01:40:34Z</time>
      </trkpt>
      <trkpt lat="63.56674120" lon="-19.4882060">
        <ele>474.39999</ele>
        <time>2010-01-01T01:40:35Z</time>
      </trkpt>
      <trkpt lat="63.56671650" lon="-19.4882365">
        <ele>474.39999</ele>
        <time>2010-01-01T01:40:36Z</time>
      </trkpt>
      <trkpt lat="63.56669070" lon="-19.4882719">
        <ele>474.39999</ele>
        <time>2010-01-01T01:40:38Z</time>
      </trkpt>
      <trkpt lat="63.56667110" lon="-19.4883049">
        <ele>474.39999</ele>
        <time>2010-01-01T01:40:39Z</time>
      </trkpt>
      <trkpt lat="63.56656750" lon="-19.4885099">
        <ele>474.39999</ele>
        <time>2010-01-01T01:40:44Z</time>
      </trkpt>
      <trkpt lat="63.56648290" lon="-19.4886758">
        <ele>474.39999</ele>
        <time>2010-01-01T01:40:49Z</time>
      </trkpt>
      <trkpt lat="63.56646900" lon="-19.4887211">
        <ele>474.39999</ele>
        <time>2010-01-01T01:40:50Z</time>
      </trkpt>
      <trkpt lat="63.56643470" lon="-19.4888466">
        <ele>474.39999</ele>
        <time>2010-01-01T01:40:52Z</time>
      </trkpt>
      <trkpt lat="63.56641760" lon="-19.4888975">
        <ele>474.39999</ele>
        <time>2010-01-01T01:40:53Z</time>
      </trkpt>
      <trkpt lat="63.56634890" lon="-19.4890629">
        <ele>474.00000</ele>
        <time>2010-01-01T01:40:57Z</time>
      </trkpt>
      <trkpt lat="63.56633310" lon="-19.4891305">
        <ele>473.60000</ele>
        <time>2010-01-01T01:40:59Z</time>
      </trkpt>
      <trkpt lat="63.56631560" lon="-19.4892110">
        <ele>473.20001</ele>
        <time>2010-01-01T01:41:00Z</time>
      </trkpt>
      <trkpt lat="63.56630440" lon="-19.4892793">
        <ele>472.39999</ele>
        <time>2010-01-01T01:41:02Z</time>
      </trkpt>
      <trkpt lat="63.56629320" lon="-19.4893572">
        <ele>471.79998</ele>
        <time>2010-01-01T01:41:03Z</time>
      </trkpt>
      <trkpt lat="63.56628500" lon="-19.4894284">
        <ele>471.39999</ele>
        <time>2010-01-01T01:41:04Z</time>
      </trkpt>
      <trkpt lat="63.56627460" lon="-19.4894871">
        <ele>470.79998</ele>
        <time>2010-01-01T01:41:06Z</time>
      </trkpt>
      <trkpt lat="63.56626060" lon="-19.4895553">
        <ele>470.20001</ele>
        <time>2010-01-01T01:41:07Z</time>
      </trkpt>
      <trkpt lat="63.56624680" lon="-19.4896107">
        <ele>469.39999</ele>
        <time>2010-01-01T01:41:08Z</time>
      </trkpt>
      <trkpt lat="63.56622850" lon="-19.4896579">
        <ele>469.00000</ele>
        <time>2010-01-01T01:41:09Z</time>
      </trkpt>
      <trkpt lat="63.56621180" lon="-19.4897040">
        <ele>468.60000</ele>
        <time>2010-01-01T01:41:10Z</time>
      </trkpt>
      <trkpt lat="63.56619820" lon="-19.4897436">
        <ele>468.00000</ele>
        <time>2010-01-01T01:41:11Z</time>
      </trkpt>
      <trkpt lat="63.56618200" lon="-19.4897869">
        <ele>467.39999</ele>
        <time>2010-01-01T01:41:12Z</time>
      </trkpt>
      <trkpt lat="63.56616370" lon="-19.4898253">
        <ele>466.79998</ele>
        <time>2010-01-01T01:41:13Z</time>
      </trkpt>
      <trkpt lat="63.56614590" lon="-19.4898559">
        <ele>466.20001</ele>
        <time>2010-01-01T01:41:14Z</time>
      </trkpt>
      <trkpt lat="63.56612240" lon="-19.4898728">
        <ele>465.60000</ele>
        <time>2010-01-01T01:41:15Z</time>
      </trkpt>
      <trkpt lat="63.56609740" lon="-19.4898802">
        <ele>465.20001</ele>
        <time>2010-01-01T01:41:16Z</time>
      </trkpt>
      <trkpt lat="63.56607280" lon="-19.4898838">
        <ele>464.60000</ele>
        <time>2010-01-01T01:41:17Z</time>
      </trkpt>
      <trkpt lat="63.56604360" lon="-19.4898854">
        <ele>463.79998</ele>
        <time>2010-01-01T01:41:18Z</time>
      </trkpt>
      <trkpt lat="63.56601460" lon="-19.4898842">
        <ele>463.39999</ele>
        <time>2010-01-01T01:41:19Z</time>
      </trkpt>
      <trkpt lat="63.56598350" lon="-19.4898889">
        <ele>462.79998</ele>
        <time>2010-01-01T01:41:21Z</time>
      </trkpt>
      <trkpt lat="63.56595650" lon="-19.4898817">
        <ele>462.39999</ele>
        <time>2010-01-01T01:41:22Z</time>
      </trkpt>
      <trkpt lat="63.56592030" lon="-19.4898657">
        <ele>461.60000</ele>
        <time>2010-01-01T01:41:23Z</time>
      </trkpt>
      <trkpt lat="63.56589100" lon="-19.4898695">
        <ele>461.00000</ele>
        <time>2010-01-01T01:41:24Z</time>
      </trkpt>
      <trkpt lat="63.56586470" lon="-19.4898917">
        <ele>460.39999</ele>
        <time>2010-01-01T01:41:25Z</time>
      </trkpt>
      <trkpt lat="63.56583510" lon="-19.4899199">
        <ele>459.60000</ele>
        <time>2010-01-01T01:41:27Z</time>
      </trkpt>
      <trkpt lat="63.56580850" lon="-19.4899469">
        <ele>459.00000</ele>
        <time>2010-01-01T01:41:28Z</time>
      </trkpt>
      <trkpt lat="63.56578370" lon="-19.4899752">
        <ele>458.39999</ele>
        <time>2010-01-01T01:41:29Z</time>
      </trkpt>
      <trkpt lat="63.56575550" lon="-19.4900139">
        <ele>457.79998</ele>
        <time>2010-01-01T01:41:30Z</time>
      </trkpt>
      <trkpt lat="63.56573010" lon="-19.4900607">
        <ele>457.20001</ele>
        <time>2010-01-01T01:41:32Z</time>
      </trkpt>
      <trkpt lat="63.56570370" lon="-19.4901101">
        <ele>456.39999</ele>
        <time>2010-01-01T01:41:33Z</time>
      </trkpt>
      <trkpt lat="63.56567650" lon="-19.4901449">
        <ele>455.79998</ele>
        <time>2010-01-01T01:41:34Z</time>
      </trkpt>
      <trkpt lat="63.56564610" lon="-19.4901932">
        <ele>455.39999</ele>
        <time>2010-01-01T01:41:36Z</time>
      </trkpt>
      <trkpt lat="63.56562290" lon="-19.4902363">
        <ele>454.79998</ele>
        <time>2010-01-01T01:41:37Z</time>
      </trkpt>
      <trkpt lat="63.56559790" lon="-19.4902838">
        <ele>454.20001</ele>
        <time>2010-01-01T01:41:38Z</time>
      </trkpt>
      <trkpt lat="63.56557450" lon="-19.4903263">
        <ele>453.60000</ele>
        <time>2010-01-01T01:41:39Z</time>
      </trkpt>
      <trkpt lat="63.56555160" lon="-19.4903581">
        <ele>453.00000</ele>
        <time>2010-01-01T01:41:40Z</time>
      </trkpt>
      <trkpt lat="63.56552210" lon="-19.4903912">
        <ele>452.39999</ele>
        <time>2010-01-01T01:41:42Z</time>
      </trkpt>
      <trkpt lat="63.56550070" lon="-19.4904148">
        <ele>452.20001</ele>
        <time>2010-01-01T01:41:43Z</time>
      </trkpt>
      <trkpt lat="63.56547960" lon="-19.4904421">
        <ele>452.20001</ele>
        <time>2010-01-01T01:41:44Z</time>
      </trkpt>
      <trkpt lat="63.56545370" lon="-19.4904561">
        <ele>451.60000</ele>
        <time>2010-01-01T01:41:45Z</time>
      </trkpt>
      <trkpt lat="63.56543550" lon="-19.4904585">
        <ele>451.20001</ele>
        <time>2010-01-01T01:41:46Z</time>
      </trkpt>
      <trkpt lat="63.56541490" lon="-19.4904584">
        <ele>450.79998</ele>
        <time>2010-01-01T01:41:46Z</time>
      </trkpt>
      <trkpt lat="63.56539790" lon="-19.4904514">
        <ele>450.39999</ele>
        <time>2010-01-01T01:41:47Z</time>
      </trkpt>
      <trkpt lat="63.56538430" lon="-19.4904344">
        <ele>450.00000</ele>
        <time>2010-01-01T01:41:48Z</time>
      </trkpt>
      <trkpt lat="63.56533050" lon="-19.4903483">
        <ele>449.39999</ele>
        <time>2010-01-01T01:41:50Z</time>
      </trkpt>
      <trkpt lat="63.56530800" lon="-19.4903194">
        <ele>449.00000</ele>
        <time>2010-01-01T01:41:51Z</time>
      </trkpt>
      <trkpt lat="63.56528210" lon="-19.4902817">
        <ele>448.60000</ele>
        <time>2010-01-01T01:41:53Z</time>
      </trkpt>
      <trkpt lat="63.56525860" lon="-19.4902531">
        <ele>448.00000</ele>
        <time>2010-01-01T01:41:54Z</time>
      </trkpt>
      <trkpt lat="63.56523860" lon="-19.4902410">
        <ele>447.60000</ele>
        <time>2010-01-01T01:41:55Z</time>
      </trkpt>
      <trkpt lat="63.56521250" lon="-19.4902423">
        <ele>447.00000</ele>
        <time>2010-01-01T01:41:56Z</time>
      </trkpt>
      <trkpt lat="63.56518730" lon="-19.4902425">
        <ele>446.60000</ele>
        <time>2010-01-01T01:41:57Z</time>
      </trkpt>
      <trkpt lat="63.56516280" lon="-19.4902268">
        <ele>446.00000</ele>
        <time>2010-01-01T01:41:58Z</time>
      </trkpt>
      <trkpt lat="63.56514240" lon="-19.4902190">
        <ele>445.39999</ele>
        <time>2010-01-01T01:41:58Z</time>
      </trkpt>
      <trkpt lat="63.56512330" lon="-19.4902164">
        <ele>445.20001</ele>
        <time>2010-01-01T01:41:59Z</time>
      </trkpt>
      <trkpt lat="63.56509670" lon="-19.4902092">
        <ele>444.39999</ele>
        <time>2010-01-01T01:42:00Z</time>
      </trkpt>
      <trkpt lat="63.56506720" lon="-19.4902236">
        <ele>443.60000</ele>
        <time>2010-01-01T01:42:01Z</time>
      </trkpt>
      <trkpt lat="63.56504580" lon="-19.4902629">
        <ele>443.00000</ele>
        <time>2010-01-01T01:42:03Z</time>
      </trkpt>
      <trkpt lat="63.56501640" lon="-19.4903005">
        <ele>442.20001</ele>
        <time>2010-01-01T01:42:04Z</time>
      </trkpt>
      <trkpt lat="63.56498240" lon="-19.4903390">
        <ele>441.60000</ele>
        <time>2010-01-01T01:42:05Z</time>
      </trkpt>
      <trkpt lat="63.56494750" lon="-19.4903772">
        <ele>440.79998</ele>
        <time>2010-01-01T01:42:07Z</time>
      </trkpt>
      <trkpt lat="63.56491780" lon="-19.4904040">
        <ele>440.20001</ele>
        <time>2010-01-01T01:42:08Z</time>
      </trkpt>
      <trkpt lat="63.56488260" lon="-19.4904338">
        <ele>439.39999</ele>
        <time>2010-01-01T01:42:10Z</time>
      </trkpt>
      <trkpt lat="63.56484950" lon="-19.4904692">
        <ele>438.60000</ele>
        <time>2010-01-01T01:42:11Z</time>
      </trkpt>
      <trkpt lat="63.56482080" lon="-19.4904885">
        <ele>438.00000</ele>
        <time>2010-01-01T01:42:12Z</time>
      </trkpt>
      <trkpt lat="63.56478020" lon="-19.4905033">
        <ele>437.20001</ele>
        <time>2010-01-01T01:42:14Z</time>
      </trkpt>
      <trkpt lat="63.56474290" lon="-19.4905090">
        <ele>436.60000</ele>
        <time>2010-01-01T01:42:16Z</time>
      </trkpt>
      <trkpt lat="63.56470520" lon="-19.4905141">
        <ele>436.00000</ele>
        <time>2010-01-01T01:42:17Z</time>
      </trkpt>
      <trkpt lat="63.56466880" lon="-19.4905150">
        <ele>435.39999</ele>
        <time>2010-01-01T01:42:19Z</time>
      </trkpt>
      <trkpt lat="63.56463600" lon="-19.4905147">
        <ele>435.00000</ele>
        <time>2010-01-01T01:42:20Z</time>
      </trkpt>
      <trkpt lat="63.56458980" lon="-19.4905101">
        <ele>434.39999</ele>
        <time>2010-01-01T01:42:22Z</time>
      </trkpt>
      <trkpt lat="63.56454420" lon="-19.4904867">
        <ele>434.00000</ele>
        <time>2010-01-01T01:42:24Z</time>
      </trkpt>
      <trkpt lat="63.56451080" lon="-19.4904365">
        <ele>433.39999</ele>
        <time>2010-01-01T01:42:25Z</time>
      </trkpt>
      <trkpt lat="63.56448160" lon="-19.4903823">
        <ele>433.00000</ele>
        <time>2010-01-01T01:42:27Z</time>
      </trkpt>
      <trkpt lat="63.56445980" lon="-19.4903202">
        <ele>432.39999</ele>
        <time>2010-01-01T01:42:28Z</time>
      </trkpt>
      <trkpt lat="63.56443200" lon="-19.4902465">
        <ele>431.39999</ele>
        <time>2010-01-01T01:42:30Z</time>
      </trkpt>
      <trkpt lat="63.56440540" lon="-19.4901816">
        <ele>430.79998</ele>
        <time>2010-01-01T01:42:31Z</time>
      </trkpt>
      <trkpt lat="63.56437460" lon="-19.4901267">
        <ele>430.00000</ele>
        <time>2010-01-01T01:42:33Z</time>
      </trkpt>
      <trkpt lat="63.56434460" lon="-19.4900812">
        <ele>429.20001</ele>
        <time>2010-01-01T01:42:34Z</time>
      </trkpt>
      <trkpt lat="63.56431560" lon="-19.4900396">
        <ele>428.60000</ele>
        <time>2010-01-01T01:42:36Z</time>
      </trkpt>
      <trkpt lat="63.56427600" lon="-19.4899962">
        <ele>428.20001</ele>
        <time>2010-01-01T01:42:38Z</time>
      </trkpt>
      <trkpt lat="63.56424490" lon="-19.4899414">
        <ele>427.79998</ele>
        <time>2010-01-01T01:42:39Z</time>
      </trkpt>
      <trkpt lat="63.56422030" lon="-19.4898811">
        <ele>427.39999</ele>
        <time>2010-01-01T01:42:41Z</time>
      </trkpt>
      <trkpt lat="63.56420050" lon="-19.4898422">
        <ele>426.79998</ele>
        <time>2010-01-01T01:42:42Z</time>
      </trkpt>
      <trkpt lat="63.56417730" lon="-19.4898142">
        <ele>426.39999</ele>
        <time>2010-01-01T01:42:43Z</time>
      </trkpt>
      <trkpt lat="63.56415740" lon="-19.4897828">
        <ele>425.79998</ele>
        <time>2010-01-01T01:42:44Z</time>
      </trkpt>
      <trkpt lat="63.56414450" lon="-19.4897467">
        <ele>425.39999</ele>
        <time>2010-01-01T01:42:45Z</time>
      </trkpt>
      <trkpt lat="63.56412780" lon="-19.4897039">
        <ele>424.79998</ele>
        <time>2010-01-01T01:42:46Z</time>
      </trkpt>
      <trkpt lat="63.56411190" lon="-19.4896740">
        <ele>424.60000</ele>
        <time>2010-01-01T01:42:46Z</time>
      </trkpt>
      <trkpt lat="63.56409410" lon="-19.4896471">
        <ele>424.60000</ele>
        <time>2010-01-01T01:42:47Z</time>
      </trkpt>
      <trkpt lat="63.56407240" lon="-19.4896185">
        <ele>424.60000</ele>
        <time>2010-01-01T01:42:48Z</time>
      </trkpt>
      <trkpt lat="63.56405770" lon="-19.4895695">
        <ele>424.60000</ele>
        <time>2010-01-01T01:42:49Z</time>
      </trkpt>
      <trkpt lat="63.56405310" lon="-19.4895118">
        <ele>424.60000</ele>
        <time>2010-01-01T01:42:50Z</time>
      </trkpt>
      <trkpt lat="63.56405850" lon="-19.4894467">
        <ele>424.20001</ele>
        <time>2010-01-01T01:42:52Z</time>
      </trkpt>
      <trkpt lat="63.56406220" lon="-19.4893915">
        <ele>423.79998</ele>
        <time>2010-01-01T01:42:53Z</time>
      </trkpt>
      <trkpt lat="63.56406810" lon="-19.4893351">
        <ele>423.39999</ele>
        <time>2010-01-01T01:42:54Z</time>
      </trkpt>
      <trkpt lat="63.56408060" lon="-19.4892746">
        <ele>423.00000</ele>
        <time>2010-01-01T01:42:55Z</time>
      </trkpt>
      <trkpt lat="63.56409270" lon="-19.4892151">
        <ele>422.60000</ele>
        <time>2010-01-01T01:42:56Z</time>
      </trkpt>
      <trkpt lat="63.56409230" lon="-19.4891345">
        <ele>422.60000</ele>
        <time>2010-01-01T01:42:57Z</time>
      </trkpt>
      <trkpt lat="63.56409040" lon="-19.4890873">
        <ele>422.60000</ele>
        <time>2010-01-01T01:42:58Z</time>
      </trkpt>
      <trkpt lat="63.56407740" lon="-19.4890296">
        <ele>422.60000</ele>
        <time>2010-01-01T01:42:59Z</time>
      </trkpt>
      <trkpt lat="63.56406220" lon="-19.4889870">
        <ele>422.60000</ele>
        <time>2010-01-01T01:43:00Z</time>
      </trkpt>
      <trkpt lat="63.56403780" lon="-19.4889550">
        <ele>422.60000</ele>
        <time>2010-01-01T01:43:01Z</time>
      </trkpt>
      <trkpt lat="63.56401450" lon="-19.4889116">
        <ele>422.60000</ele>
        <time>2010-01-01T01:43:03Z</time>
      </trkpt>
      <trkpt lat="63.56399070" lon="-19.4888763">
        <ele>422.60000</ele>
        <time>2010-01-01T01:43:04Z</time>
      </trkpt>
      <trkpt lat="63.56395700" lon="-19.4888575">
        <ele>422.60000</ele>
        <time>2010-01-01T01:43:05Z</time>
      </trkpt>
      <trkpt lat="63.56392730" lon="-19.4888260">
        <ele>422.60000</ele>
        <time>2010-01-01T01:43:06Z</time>
      </trkpt>
      <trkpt lat="63.56390520" lon="-19.4888022">
        <ele>422.60000</ele>
        <time>2010-01-01T01:43:07Z</time>
      </trkpt>
      <trkpt lat="63.56388400" lon="-19.4887789">
        <ele>422.60000</ele>
        <time>2010-01-01T01:43:08Z</time>
      </trkpt>
      <trkpt lat="63.56386740" lon="-19.4887566">
        <ele>422.60000</ele>
        <time>2010-01-01T01:43:09Z</time>
      </trkpt>
      <trkpt lat="63.56374800" lon="-19.4885927">
        <ele>422.60000</ele>
        <time>2010-01-01T01:43:15Z</time>
      </trkpt>
      <trkpt lat="63.56366180" lon="-19.4885225">
        <ele>422.60000</ele>
        <time>2010-01-01T01:43:18Z</time>
      </trkpt>
      <trkpt lat="63.56363120" lon="-19.4884814">
        <ele>422.60000</ele>
        <time>2010-01-01T01:43:20Z</time>
      </trkpt>
      <trkpt lat="63.56360110" lon="-19.4884251">
        <ele>422.60000</ele>
        <time>2010-01-01T01:43:21Z</time>
      </trkpt>
      <trkpt lat="63.56357370" lon="-19.4883647">
        <ele>422.60000</ele>
        <time>2010-01-01T01:43:23Z</time>
      </trkpt>
      <trkpt lat="63.56354160" lon="-19.4882987">
        <ele>422.60000</ele>
        <time>2010-01-01T01:43:25Z</time>
      </trkpt>
      <trkpt lat="63.56350990" lon="-19.4882370">
        <ele>422.60000</ele>
        <time>2010-01-01T01:43:26Z</time>
      </trkpt>
      <trkpt lat="63.56335570" lon="-19.4880364">
        <ele>422.39999</ele>
        <time>2010-01-01T01:43:34Z</time>
      </trkpt>
      <trkpt lat="63.56332450" lon="-19.4880060">
        <ele>422.00000</ele>
        <time>2010-01-01T01:43:35Z</time>
      </trkpt>
      <trkpt lat="63.56329260" lon="-19.4879678">
        <ele>421.60000</ele>
        <time>2010-01-01T01:43:36Z</time>
      </trkpt>
      <trkpt lat="63.56326680" lon="-19.4879209">
        <ele>421.20001</ele>
        <time>2010-01-01T01:43:38Z</time>
      </trkpt>
      <trkpt lat="63.56323630" lon="-19.4878539">
        <ele>420.60000</ele>
        <time>2010-01-01T01:43:39Z</time>
      </trkpt>
      <trkpt lat="63.56320590" lon="-19.4877868">
        <ele>420.39999</ele>
        <time>2010-01-01T01:43:41Z</time>
      </trkpt>
      <trkpt lat="63.56306870" lon="-19.4875850">
        <ele>420.39999</ele>
        <time>2010-01-01T01:43:48Z</time>
      </trkpt>
      <trkpt lat="63.56298410" lon="-19.4874295">
        <ele>420.39999</ele>
        <time>2010-01-01T01:43:52Z</time>
      </trkpt>
      <trkpt lat="63.56295380" lon="-19.4874241">
        <ele>420.39999</ele>
        <time>2010-01-01T01:43:53Z</time>
      </trkpt>
      <trkpt lat="63.56288570" lon="-19.4874130">
        <ele>420.39999</ele>
        <time>2010-01-01T01:43:56Z</time>
      </trkpt>
      <trkpt lat="63.56286760" lon="-19.4874171">
        <ele>420.39999</ele>
        <time>2010-01-01T01:43:57Z</time>
      </trkpt>
      <trkpt lat="63.56284360" lon="-19.4874145">
        <ele>420.39999</ele>
        <time>2010-01-01T01:43:58Z</time>
      </trkpt>
      <trkpt lat="63.56281270" lon="-19.4874082">
        <ele>420.39999</ele>
        <time>2010-01-01T01:43:59Z</time>
      </trkpt>
      <trkpt lat="63.56278630" lon="-19.4874216">
        <ele>420.39999</ele>
        <time>2010-01-01T01:44:00Z</time>
      </trkpt>
      <trkpt lat="63.56276570" lon="-19.4874296">
        <ele>420.39999</ele>
        <time>2010-01-01T01:44:01Z</time>
      </trkpt>
      <trkpt lat="63.56272430" lon="-19.4874359">
        <ele>420.39999</ele>
        <time>2010-01-01T01:44:03Z</time>
      </trkpt>
      <trkpt lat="63.56270270" lon="-19.4874201">
        <ele>420.39999</ele>
        <time>2010-01-01T01:44:03Z</time>
      </trkpt>
      <trkpt lat="63.56267070" lon="-19.4874245">
        <ele>420.39999</ele>
        <time>2010-01-01T01:44:05Z</time>
      </trkpt>
      <trkpt lat="63.56263770" lon="-19.4874090">
        <ele>420.39999</ele>
        <time>2010-01-01T01:44:06Z</time>
      </trkpt>
      <trkpt lat="63.56261210" lon="-19.4873939">
        <ele>420.39999</ele>
        <time>2010-01-01T01:44:07Z</time>
      </trkpt>
      <trkpt lat="63.56258930" lon="-19.4873704">
        <ele>420.39999</ele>
        <time>2010-01-01T01:44:08Z</time>
      </trkpt>
      <trkpt lat="63.56258010" lon="-19.4873494">
        <ele>420.39999</ele>
        <time>2010-01-01T01:44:09Z</time>
      </trkpt>
      <trkpt lat="63.56256700" lon="-19.4873088">
        <ele>420.39999</ele>
        <time>2010-01-01T01:44:10Z</time>
      </trkpt>
      <trkpt lat="63.56255260" lon="-19.4872596">
        <ele>420.39999</ele>
        <time>2010-01-01T01:44:11Z</time>
      </trkpt>
      <trkpt lat="63.56253350" lon="-19.4872378">
        <ele>420.39999</ele>
        <time>2010-01-01T01:44:11Z</time>
      </trkpt>
      <trkpt lat="63.56250970" lon="-19.4872208">
        <ele>420.39999</ele>
        <time>2010-01-01T01:44:12Z</time>
      </trkpt>
      <trkpt lat="63.56248550" lon="-19.4872036">
        <ele>420.79998</ele>
        <time>2010-01-01T01:44:13Z</time>
      </trkpt>
      <trkpt lat="63.56246540" lon="-19.4871966">
        <ele>421.00000</ele>
        <time>2010-01-01T01:44:14Z</time>
      </trkpt>
      <trkpt lat="63.56244890" lon="-19.4871915">
        <ele>421.60000</ele>
        <time>2010-01-01T01:44:15Z</time>
      </trkpt>
      <trkpt lat="63.56242720" lon="-19.4871828">
        <ele>422.00000</ele>
        <time>2010-01-01T01:44:16Z</time>
      </trkpt>
      <trkpt lat="63.56240000" lon="-19.4871750">
        <ele>422.39999</ele>
        <time>2010-01-01T01:44:17Z</time>
      </trkpt>
      <trkpt lat="63.56237800" lon="-19.4871731">
        <ele>422.60000</ele>
        <time>2010-01-01T01:44:18Z</time>
      </trkpt>
      <trkpt lat="63.56235400" lon="-19.4871559">
        <ele>422.60000</ele>
        <time>2010-01-01T01:44:19Z</time>
      </trkpt>
      <trkpt lat="63.56233120" lon="-19.4871467">
        <ele>422.79998</ele>
        <time>2010-01-01T01:44:20Z</time>
      </trkpt>
      <trkpt lat="63.56231420" lon="-19.4871279">
        <ele>423.00000</ele>
        <time>2010-01-01T01:44:20Z</time>
      </trkpt>
      <trkpt lat="63.56228690" lon="-19.4870984">
        <ele>423.60000</ele>
        <time>2010-01-01T01:44:22Z</time>
      </trkpt>
      <trkpt lat="63.56226480" lon="-19.4870783">
        <ele>424.00000</ele>
        <time>2010-01-01T01:44:23Z</time>
      </trkpt>
      <trkpt lat="63.56224370" lon="-19.4870624">
        <ele>424.39999</ele>
        <time>2010-01-01T01:44:24Z</time>
      </trkpt>
      <trkpt lat="63.56221130" lon="-19.4870275">
        <ele>424.79998</ele>
        <time>2010-01-01T01:44:25Z</time>
      </trkpt>
      <trkpt lat="63.56218760" lon="-19.4869996">
        <ele>424.79998</ele>
        <time>2010-01-01T01:44:26Z</time>
      </trkpt>
      <trkpt lat="63.56215850" lon="-19.4869757">
        <ele>425.20001</ele>
        <time>2010-01-01T01:44:27Z</time>
      </trkpt>
      <trkpt lat="63.56212720" lon="-19.4869569">
        <ele>425.60000</ele>
        <time>2010-01-01T01:44:29Z</time>
      </trkpt>
      <trkpt lat="63.56209920" lon="-19.4869534">
        <ele>426.00000</ele>
        <time>2010-01-01T01:44:30Z</time>
      </trkpt>
      <trkpt lat="63.56207090" lon="-19.4869314">
        <ele>426.39999</ele>
        <time>2010-01-01T01:44:31Z</time>
      </trkpt>
      <trkpt lat="63.56205000" lon="-19.4869016">
        <ele>426.79998</ele>
        <time>2010-01-01T01:44:32Z</time>
      </trkpt>
      <trkpt lat="63.56201710" lon="-19.4868568">
        <ele>427.00000</ele>
        <time>2010-01-01T01:44:33Z</time>
      </trkpt>
      <trkpt lat="63.56199220" lon="-19.4868340">
        <ele>427.00000</ele>
        <time>2010-01-01T01:44:35Z</time>
      </trkpt>
      <trkpt lat="63.56195910" lon="-19.4868071">
        <ele>426.79998</ele>
        <time>2010-01-01T01:44:36Z</time>
      </trkpt>
      <trkpt lat="63.56193440" lon="-19.4867914">
        <ele>426.79998</ele>
        <time>2010-01-01T01:44:37Z</time>
      </trkpt>
      <trkpt lat="63.56191450" lon="-19.4867955">
        <ele>426.79998</ele>
        <time>2010-01-01T01:44:38Z</time>
      </trkpt>
      <trkpt lat="63.56188320" lon="-19.4867927">
        <ele>426.39999</ele>
        <time>2010-01-01T01:44:39Z</time>
      </trkpt>
      <trkpt lat="63.56186120" lon="-19.4867860">
        <ele>426.00000</ele>
        <time>2010-01-01T01:44:40Z</time>
      </trkpt>
      <trkpt lat="63.56183810" lon="-19.4867777">
        <ele>426.00000</ele>
        <time>2010-01-01T01:44:41Z</time>
      </trkpt>
      <trkpt lat="63.56182020" lon="-19.4867763">
        <ele>425.60000</ele>
        <time>2010-01-01T01:44:42Z</time>
      </trkpt>
      <trkpt lat="63.56180810" lon="-19.4867908">
        <ele>425.00000</ele>
        <time>2010-01-01T01:44:42Z</time>
      </trkpt>
      <trkpt lat="63.56179180" lon="-19.4868239">
        <ele>424.60000</ele>
        <time>2010-01-01T01:44:43Z</time>
      </trkpt>
      <trkpt lat="63.56176920" lon="-19.4868415">
        <ele>424.00000</ele>
        <time>2010-01-01T01:44:44Z</time>
      </trkpt>
      <trkpt lat="63.56174820" lon="-19.4868599">
        <ele>423.60000</ele>
        <time>2010-01-01T01:44:45Z</time>
      </trkpt>
      <trkpt lat="63.56172540" lon="-19.4868799">
        <ele>423.00000</ele>
        <time>2010-01-01T01:44:46Z</time>
      </trkpt>
      <trkpt lat="63.56169630" lon="-19.4868892">
        <ele>422.60000</ele>
        <time>2010-01-01T01:44:47Z</time>
      </trkpt>
      <trkpt lat="63.56166210" lon="-19.4869066">
        <ele>421.79998</ele>
        <time>2010-01-01T01:44:48Z</time>
      </trkpt>
      <trkpt lat="63.56163610" lon="-19.4869232">
        <ele>420.79998</ele>
        <time>2010-01-01T01:44:49Z</time>
      </trkpt>
      <trkpt lat="63.56161470" lon="-19.4869329">
        <ele>420.00000</ele>
        <time>2010-01-01T01:44:50Z</time>
      </trkpt>
      <trkpt lat="63.56159190" lon="-19.4869875">
        <ele>418.79998</ele>
        <time>2010-01-01T01:44:52Z</time>
      </trkpt>
      <trkpt lat="63.56157240" lon="-19.4870368">
        <ele>418.00000</ele>
        <time>2010-01-01T01:44:53Z</time>
      </trkpt>
      <trkpt lat="63.56154290" lon="-19.4870907">
        <ele>417.00000</ele>
        <time>2010-01-01T01:44:54Z</time>
      </trkpt>
      <trkpt lat="63.56151260" lon="-19.4871475">
        <ele>416.20001</ele>
        <time>2010-01-01T01:44:56Z</time>
      </trkpt>
      <trkpt lat="63.56148010" lon="-19.4871907">
        <ele>415.20001</ele>
        <time>2010-01-01T01:44:57Z</time>
      </trkpt>
      <trkpt lat="63.56145150" lon="-19.4872243">
        <ele>414.20001</ele>
        <time>2010-01-01T01:44:59Z</time>
      </trkpt>
      <trkpt lat="63.56142400" lon="-19.4872637">
        <ele>413.20001</ele>
        <time>2010-01-01T01:45:00Z</time>
      </trkpt>
      <trkpt lat="63.56139860" lon="-19.4873025">
        <ele>412.39999</ele>
        <time>2010-01-01T01:45:01Z</time>
      </trkpt>
      <trkpt lat="63.56137180" lon="-19.4873523">
        <ele>411.60000</ele>
        <time>2010-01-01T01:45:03Z</time>
      </trkpt>
      <trkpt lat="63.56133660" lon="-19.4874026">
        <ele>411.20001</ele>
        <time>2010-01-01T01:45:04Z</time>
      </trkpt>
      <trkpt lat="63.56130430" lon="-19.4874334">
        <ele>410.60000</ele>
        <time>2010-01-01T01:45:06Z</time>
      </trkpt>
      <trkpt lat="63.56127840" lon="-19.4874786">
        <ele>410.00000</ele>
        <time>2010-01-01T01:45:07Z</time>
      </trkpt>
      <trkpt lat="63.56124850" lon="-19.4875469">
        <ele>409.39999</ele>
        <time>2010-01-01T01:45:09Z</time>
      </trkpt>
      <trkpt lat="63.56122410" lon="-19.4875843">
        <ele>409.00000</ele>
        <time>2010-01-01T01:45:10Z</time>
      </trkpt>
      <trkpt lat="63.56119830" lon="-19.4876433">
        <ele>408.20001</ele>
        <time>2010-01-01T01:45:11Z</time>
      </trkpt>
      <trkpt lat="63.56116720" lon="-19.4876829">
        <ele>407.60000</ele>
        <time>2010-01-01T01:45:13Z</time>
      </trkpt>
      <trkpt lat="63.56114120" lon="-19.4877252">
        <ele>407.20001</ele>
        <time>2010-01-01T01:45:14Z</time>
      </trkpt>
      <trkpt lat="63.56110790" lon="-19.4877771">
        <ele>406.60000</ele>
        <time>2010-01-01T01:45:16Z</time>
      </trkpt>
      <trkpt lat="63.56107740" lon="-19.4878208">
        <ele>406.00000</ele>
        <time>2010-01-01T01:45:17Z</time>
      </trkpt>
      <trkpt lat="63.56105300" lon="-19.4878491">
        <ele>405.79998</ele>
        <time>2010-01-01T01:45:18Z</time>
      </trkpt>
      <trkpt lat="63.56102980" lon="-19.4878841">
        <ele>405.00000</ele>
        <time>2010-01-01T01:45:19Z</time>
      </trkpt>
      <trkpt lat="63.56100280" lon="-19.4879075">
        <ele>404.79998</ele>
        <time>2010-01-01T01:45:21Z</time>
      </trkpt>
      <trkpt lat="63.56096410" lon="-19.4879149">
        <ele>404.00000</ele>
        <time>2010-01-01T01:45:22Z</time>
      </trkpt>
      <trkpt lat="63.56093340" lon="-19.4879534">
        <ele>403.39999</ele>
        <time>2010-01-01T01:45:24Z</time>
      </trkpt>
      <trkpt lat="63.56090980" lon="-19.4880044">
        <ele>402.79998</ele>
        <time>2010-01-01T01:45:25Z</time>
      </trkpt>
      <trkpt lat="63.56088420" lon="-19.4880548">
        <ele>402.20001</ele>
        <time>2010-01-01T01:45:26Z</time>
      </trkpt>
      <trkpt lat="63.56086200" lon="-19.4881193">
        <ele>401.39999</ele>
        <time>2010-01-01T01:45:28Z</time>
      </trkpt>
      <trkpt lat="63.56083540" lon="-19.4881800">
        <ele>400.39999</ele>
        <time>2010-01-01T01:45:29Z</time>
      </trkpt>
      <trkpt lat="63.56081740" lon="-19.4882487">
        <ele>399.79998</ele>
        <time>2010-01-01T01:45:31Z</time>
      </trkpt>
      <trkpt lat="63.56079600" lon="-19.4882951">
        <ele>399.00000</ele>
        <time>2010-01-01T01:45:32Z</time>
      </trkpt>
      <trkpt lat="63.56075880" lon="-19.4883054">
        <ele>398.79998</ele>
        <time>2010-01-01T01:45:33Z</time>
      </trkpt>
      <trkpt lat="63.56073650" lon="-19.4882977">
        <ele>399.00000</ele>
        <time>2010-01-01T01:45:34Z</time>
      </trkpt>
      <trkpt lat="63.56070420" lon="-19.4883168">
        <ele>398.60000</ele>
        <time>2010-01-01T01:45:36Z</time>
      </trkpt>
      <trkpt lat="63.56068240" lon="-19.4883460">
        <ele>397.79998</ele>
        <time>2010-01-01T01:45:37Z</time>
      </trkpt>
      <trkpt lat="63.56065060" lon="-19.4883880">
        <ele>397.00000</ele>
        <time>2010-01-01T01:45:38Z</time>
      </trkpt>
      <trkpt lat="63.56061760" lon="-19.4884195">
        <ele>396.20001</ele>
        <time>2010-01-01T01:45:40Z</time>
      </trkpt>
      <trkpt lat="63.56059420" lon="-19.4884702">
        <ele>395.39999</ele>
        <time>2010-01-01T01:45:41Z</time>
      </trkpt>
      <trkpt lat="63.56057150" lon="-19.4885497">
        <ele>394.79998</ele>
        <time>2010-01-01T01:45:42Z</time>
      </trkpt>
      <trkpt lat="63.56055760" lon="-19.4886240">
        <ele>394.20001</ele>
        <time>2010-01-01T01:45:44Z</time>
      </trkpt>
      <trkpt lat="63.56054870" lon="-19.4886767">
        <ele>393.39999</ele>
        <time>2010-01-01T01:45:45Z</time>
      </trkpt>
      <trkpt lat="63.56054240" lon="-19.4887265">
        <ele>392.79998</ele>
        <time>2010-01-01T01:45:46Z</time>
      </trkpt>
      <trkpt lat="63.56053720" lon="-19.4887722">
        <ele>392.39999</ele>
        <time>2010-01-01T01:45:47Z</time>
      </trkpt>
      <trkpt lat="63.56053230" lon="-19.4888392">
        <ele>392.00000</ele>
        <time>2010-01-01T01:45:48Z</time>
      </trkpt>
      <trkpt lat="63.56052670" lon="-19.4888949">
        <ele>392.00000</ele>
        <time>2010-01-01T01:45:49Z</time>
      </trkpt>
      <trkpt lat="63.56051740" lon="-19.4889686">
        <ele>392.20001</ele>
        <time>2010-01-01T01:45:50Z</time>
      </trkpt>
      <trkpt lat="63.56051030" lon="-19.4890293">
        <ele>392.00000</ele>
        <time>2010-01-01T01:45:51Z</time>
      </trkpt>
      <trkpt lat="63.56047410" lon="-19.4891405">
        <ele>391.60000</ele>
        <time>2010-01-01T01:45:54Z</time>
      </trkpt>
      <trkpt lat="63.56045630" lon="-19.4891914">
        <ele>391.20001</ele>
        <time>2010-01-01T01:45:55Z</time>
      </trkpt>
      <trkpt lat="63.56043950" lon="-19.4892470">
        <ele>391.00000</ele>
        <time>2010-01-01T01:45:56Z</time>
      </trkpt>
      <trkpt lat="63.56043780" lon="-19.4893150">
        <ele>390.60000</ele>
        <time>2010-01-01T01:45:57Z</time>
      </trkpt>
      <trkpt lat="63.56042850" lon="-19.4893806">
        <ele>390.00000</ele>
        <time>2010-01-01T01:45:59Z</time>
      </trkpt>
      <trkpt lat="63.56041490" lon="-19.4894483">
        <ele>389.39999</ele>
        <time>2010-01-01T01:46:00Z</time>
      </trkpt>
      <trkpt lat="63.56040510" lon="-19.4894917">
        <ele>388.79998</ele>
        <time>2010-01-01T01:46:01Z</time>
      </trkpt>
      <trkpt lat="63.56038780" lon="-19.4895367">
        <ele>388.20001</ele>
        <time>2010-01-01T01:46:02Z</time>
      </trkpt>
      <trkpt lat="63.56036430" lon="-19.4895725">
        <ele>387.39999</ele>
        <time>2010-01-01T01:46:03Z</time>
      </trkpt>
      <trkpt lat="63.56033920" lon="-19.4896134">
        <ele>387.00000</ele>
        <time>2010-01-01T01:46:04Z</time>
      </trkpt>
      <trkpt lat="63.56031300" lon="-19.4896560">
        <ele>386.20001</ele>
        <time>2010-01-01T01:46:06Z</time>
      </trkpt>
      <trkpt lat="63.56029000" lon="-19.4896948">
        <ele>385.20001</ele>
        <time>2010-01-01T01:46:07Z</time>
      </trkpt>
      <trkpt lat="63.56026680" lon="-19.4897409">
        <ele>384.39999</ele>
        <time>2010-01-01T01:46:08Z</time>
      </trkpt>
      <trkpt lat="63.56024660" lon="-19.4897983">
        <ele>383.60000</ele>
        <time>2010-01-01T01:46:09Z</time>
      </trkpt>
      <trkpt lat="63.56022920" lon="-19.4898346">
        <ele>383.00000</ele>
        <time>2010-01-01T01:46:10Z</time>
      </trkpt>
      <trkpt lat="63.56019900" lon="-19.4898780">
        <ele>381.79998</ele>
        <time>2010-01-01T01:46:12Z</time>
      </trkpt>
      <trkpt lat="63.56016820" lon="-19.4899213">
        <ele>381.00000</ele>
        <time>2010-01-01T01:46:13Z</time>
      </trkpt>
      <trkpt lat="63.56014900" lon="-19.4899444">
        <ele>380.39999</ele>
        <time>2010-01-01T01:46:14Z</time>
      </trkpt>
      <trkpt lat="63.56012740" lon="-19.4899755">
        <ele>379.60000</ele>
        <time>2010-01-01T01:46:15Z</time>
      </trkpt>
      <trkpt lat="63.56011150" lon="-19.4900070">
        <ele>379.00000</ele>
        <time>2010-01-01T01:46:16Z</time>
      </trkpt>
      <trkpt lat="63.56009110" lon="-19.4900396">
        <ele>379.20001</ele>
        <time>2010-01-01T01:46:17Z</time>
      </trkpt>
      <trkpt lat="63.56007160" lon="-19.4900658">
        <ele>379.20001</ele>
        <time>2010-01-01T01:46:18Z</time>
      </trkpt>
      <trkpt lat="63.56004660" lon="-19.4900744">
        <ele>379.20001</ele>
        <time>2010-01-01T01:46:19Z</time>
      </trkpt>
      <trkpt lat="63.56000780" lon="-19.4900507">
        <ele>379.20001</ele>
        <time>2010-01-01T01:46:20Z</time>
      </trkpt>
      <trkpt lat="63.55998090" lon="-19.4900363">
        <ele>379.20001</ele>
        <time>2010-01-01T01:46:22Z</time>
      </trkpt>
      <trkpt lat="63.55994860" lon="-19.4900101">
        <ele>379.20001</ele>
        <time>2010-01-01T01:46:23Z</time>
      </trkpt>
      <trkpt lat="63.55992140" lon="-19.4900065">
        <ele>379.20001</ele>
        <time>2010-01-01T01:46:24Z</time>
      </trkpt>
      <trkpt lat="63.55989530" lon="-19.4900247">
        <ele>379.20001</ele>
        <time>2010-01-01T01:46:25Z</time>
      </trkpt>
      <trkpt lat="63.55986730" lon="-19.4900344">
        <ele>379.20001</ele>
        <time>2010-01-01T01:46:26Z</time>
      </trkpt>
      <trkpt lat="63.55984740" lon="-19.4900382">
        <ele>379.20001</ele>
        <time>2010-01-01T01:46:27Z</time>
      </trkpt>
      <trkpt lat="63.55982030" lon="-19.4900576">
        <ele>379.20001</ele>
        <time>2010-01-01T01:46:28Z</time>
      </trkpt>
      <trkpt lat="63.55977390" lon="-19.4901204">
        <ele>379.39999</ele>
        <time>2010-01-01T01:46:30Z</time>
      </trkpt>
      <trkpt lat="63.55974820" lon="-19.4901578">
        <ele>379.79998</ele>
        <time>2010-01-01T01:46:32Z</time>
      </trkpt>
      <trkpt lat="63.55972590" lon="-19.4901803">
        <ele>380.39999</ele>
        <time>2010-01-01T01:46:33Z</time>
      </trkpt>
      <trkpt lat="63.55969900" lon="-19.4902184">
        <ele>380.79998</ele>
        <time>2010-01-01T01:46:34Z</time>
      </trkpt>
      <trkpt lat="63.55967120" lon="-19.4902354">
        <ele>381.20001</ele>
        <time>2010-01-01T01:46:35Z</time>
      </trkpt>
      <trkpt lat="63.55964110" lon="-19.4902514">
        <ele>381.39999</ele>
        <time>2010-01-01T01:46:36Z</time>
      </trkpt>
      <trkpt lat="63.55953890" lon="-19.4903046">
        <ele>381.39999</ele>
        <time>2010-01-01T01:46:40Z</time>
      </trkpt>
      <trkpt lat="63.55950740" lon="-19.4903110">
        <ele>381.39999</ele>
        <time>2010-01-01T01:46:42Z</time>
      </trkpt>
      <trkpt lat="63.55947530" lon="-19.4903170">
        <ele>381.39999</ele>
        <time>2010-01-01T01:46:43Z</time>
      </trkpt>
      <trkpt lat="63.55944150" lon="-19.4903127">
        <ele>381.39999</ele>
        <time>2010-01-01T01:46:44Z</time>
      </trkpt>
      <trkpt lat="63.55941190" lon="-19.4903135">
        <ele>381.39999</ele>
        <time>2010-01-01T01:46:45Z</time>
      </trkpt>
      <trkpt lat="63.55937130" lon="-19.4903163">
        <ele>381.39999</ele>
        <time>2010-01-01T01:46:47Z</time>
      </trkpt>
      <trkpt lat="63.55933950" lon="-19.4903209">
        <ele>381.39999</ele>
        <time>2010-01-01T01:46:48Z</time>
      </trkpt>
      <trkpt lat="63.55931090" lon="-19.4903312">
        <ele>381.39999</ele>
        <time>2010-01-01T01:46:50Z</time>
      </trkpt>
      <trkpt lat="63.55927890" lon="-19.4903402">
        <ele>381.39999</ele>
        <time>2010-01-01T01:46:51Z</time>
      </trkpt>
      <trkpt lat="63.55925280" lon="-19.4903593">
        <ele>381.39999</ele>
        <time>2010-01-01T01:46:52Z</time>
      </trkpt>
      <trkpt lat="63.55922280" lon="-19.4903777">
        <ele>381.39999</ele>
        <time>2010-01-01T01:46:53Z</time>
      </trkpt>
      <trkpt lat="63.55919410" lon="-19.4903934">
        <ele>381.39999</ele>
        <time>2010-01-01T01:46:54Z</time>
      </trkpt>
      <trkpt lat="63.55916640" lon="-19.4904091">
        <ele>381.39999</ele>
        <time>2010-01-01T01:46:56Z</time>
      </trkpt>
      <trkpt lat="63.55913530" lon="-19.4904343">
        <ele>381.39999</ele>
        <time>2010-01-01T01:46:57Z</time>
      </trkpt>
      <trkpt lat="63.55910960" lon="-19.4904546">
        <ele>381.39999</ele>
        <time>2010-01-01T01:46:58Z</time>
      </trkpt>
      <trkpt lat="63.55908100" lon="-19.4904779">
        <ele>381.39999</ele>
        <time>2010-01-01T01:46:59Z</time>
      </trkpt>
      <trkpt lat="63.55905730" lon="-19.4904868">
        <ele>381.79998</ele>
        <time>2010-01-01T01:47:00Z</time>
      </trkpt>
      <trkpt lat="63.55902730" lon="-19.4904923">
        <ele>382.20001</ele>
        <time>2010-01-01T01:47:01Z</time>
      </trkpt>
      <trkpt lat="63.55900020" lon="-19.4905017">
        <ele>382.60000</ele>
        <time>2010-01-01T01:47:02Z</time>
      </trkpt>
      <trkpt lat="63.55897600" lon="-19.4905123">
        <ele>383.00000</ele>
        <time>2010-01-01T01:47:03Z</time>
      </trkpt>
      <trkpt lat="63.55894700" lon="-19.4905167">
        <ele>383.60000</ele>
        <time>2010-01-01T01:47:05Z</time>
      </trkpt>
      <trkpt lat="63.55892030" lon="-19.4905309">
        <ele>383.39999</ele>
        <time>2010-01-01T01:47:06Z</time>
      </trkpt>
      <trkpt lat="63.55889760" lon="-19.4905437">
        <ele>383.60000</ele>
        <time>2010-01-01T01:47:07Z</time>
      </trkpt>
      <trkpt lat="63.55886630" lon="-19.4905636">
        <ele>383.60000</ele>
        <time>2010-01-01T01:47:08Z</time>
      </trkpt>
      <trkpt lat="63.55884460" lon="-19.4905867">
        <ele>383.60000</ele>
        <time>2010-01-01T01:47:09Z</time>
      </trkpt>
      <trkpt lat="63.55881910" lon="-19.4906106">
        <ele>383.60000</ele>
        <time>2010-01-01T01:47:10Z</time>
      </trkpt>
      <trkpt lat="63.55878930" lon="-19.4906318">
        <ele>383.60000</ele>
        <time>2010-01-01T01:47:11Z</time>
      </trkpt>
      <trkpt lat="63.55876360" lon="-19.4906525">
        <ele>383.60000</ele>
        <time>2010-01-01T01:47:12Z</time>
      </trkpt>
      <trkpt lat="63.55874000" lon="-19.4906817">
        <ele>383.60000</ele>
        <time>2010-01-01T01:47:13Z</time>
      </trkpt>
      <trkpt lat="63.55871480" lon="-19.4907157">
        <ele>383.60000</ele>
        <time>2010-01-01T01:47:15Z</time>
      </trkpt>
      <trkpt lat="63.55869080" lon="-19.4907406">
        <ele>383.60000</ele>
        <time>2010-01-01T01:47:16Z</time>
      </trkpt>
      <trkpt lat="63.55866330" lon="-19.4907670">
        <ele>383.60000</ele>
        <time>2010-01-01T01:47:17Z</time>
      </trkpt>
      <trkpt lat="63.55863510" lon="-19.4907991">
        <ele>383.60000</ele>
        <time>2010-01-01T01:47:18Z</time>
      </trkpt>
      <trkpt lat="63.55860810" lon="-19.4908305">
        <ele>383.60000</ele>
        <time>2010-01-01T01:47:19Z</time>
      </trkpt>
      <trkpt lat="63.55858980" lon="-19.4908423">
        <ele>383.60000</ele>
        <time>2010-01-01T01:47:20Z</time>
      </trkpt>
      <trkpt lat="63.55855990" lon="-19.4908739">
        <ele>383.60000</ele>
        <time>2010-01-01T01:47:21Z</time>
      </trkpt>
      <trkpt lat="63.55853510" lon="-19.4908863">
        <ele>383.39999</ele>
        <time>2010-01-01T01:47:22Z</time>
      </trkpt>
      <trkpt lat="63.55851530" lon="-19.4908986">
        <ele>383.60000</ele>
        <time>2010-01-01T01:47:23Z</time>
      </trkpt>
      <trkpt lat="63.55848590" lon="-19.4909061">
        <ele>383.39999</ele>
        <time>2010-01-01T01:47:24Z</time>
      </trkpt>
      <trkpt lat="63.55845370" lon="-19.4909166">
        <ele>383.39999</ele>
        <time>2010-01-01T01:47:26Z</time>
      </trkpt>
      <trkpt lat="63.55841320" lon="-19.4909265">
        <ele>383.39999</ele>
        <time>2010-01-01T01:47:27Z</time>
      </trkpt>
      <trkpt lat="63.55837050" lon="-19.4909326">
        <ele>383.20001</ele>
        <time>2010-01-01T01:47:29Z</time>
      </trkpt>
      <trkpt lat="63.55832620" lon="-19.4909526">
        <ele>382.79998</ele>
        <time>2010-01-01T01:47:31Z</time>
      </trkpt>
      <trkpt lat="63.55828320" lon="-19.4909628">
        <ele>382.20001</ele>
        <time>2010-01-01T01:47:33Z</time>
      </trkpt>
      <trkpt lat="63.55824740" lon="-19.4909560">
        <ele>381.79998</ele>
        <time>2010-01-01T01:47:34Z</time>
      </trkpt>
      <trkpt lat="63.55819830" lon="-19.4909543">
        <ele>381.00000</ele>
        <time>2010-01-01T01:47:36Z</time>
      </trkpt>
      <trkpt lat="63.55815630" lon="-19.4909350">
        <ele>380.20001</ele>
        <time>2010-01-01T01:47:38Z</time>
      </trkpt>
      <trkpt lat="63.55811000" lon="-19.4909253">
        <ele>379.39999</ele>
        <time>2010-01-01T01:47:40Z</time>
      </trkpt>
      <trkpt lat="63.55807030" lon="-19.4909255">
        <ele>377.60000</ele>
        <time>2010-01-01T01:47:41Z</time>
      </trkpt>
      <trkpt lat="63.55803700" lon="-19.4909345">
        <ele>377.60000</ele>
        <time>2010-01-01T01:47:43Z</time>
      </trkpt>
      <trkpt lat="63.55796440" lon="-19.4909662">
        <ele>377.60000</ele>
        <time>2010-01-01T01:47:45Z</time>
      </trkpt>
      <trkpt lat="63.55793260" lon="-19.4909761">
        <ele>377.60000</ele>
        <time>2010-01-01T01:47:47Z</time>
      </trkpt>
      <trkpt lat="63.55790390" lon="-19.4909513">
        <ele>377.60000</ele>
        <time>2010-01-01T01:47:48Z</time>
      </trkpt>
      <trkpt lat="63.55787920" lon="-19.4909380">
        <ele>377.60000</ele>
        <time>2010-01-01T01:47:49Z</time>
      </trkpt>
      <trkpt lat="63.55784760" lon="-19.4909407">
        <ele>377.60000</ele>
        <time>2010-01-01T01:47:50Z</time>
      </trkpt>
      <trkpt lat="63.55782900" lon="-19.4909837">
        <ele>377.60000</ele>
        <time>2010-01-01T01:47:51Z</time>
      </trkpt>
      <trkpt lat="63.55780570" lon="-19.4910167">
        <ele>377.60000</ele>
        <time>2010-01-01T01:47:52Z</time>
      </trkpt>
      <trkpt lat="63.55778660" lon="-19.4910504">
        <ele>377.20001</ele>
        <time>2010-01-01T01:47:53Z</time>
      </trkpt>
      <trkpt lat="63.55776420" lon="-19.4910692">
        <ele>376.79998</ele>
        <time>2010-01-01T01:47:54Z</time>
      </trkpt>
      <trkpt lat="63.55774480" lon="-19.4910546">
        <ele>376.39999</ele>
        <time>2010-01-01T01:47:55Z</time>
      </trkpt>
      <trkpt lat="63.55772080" lon="-19.4910479">
        <ele>376.00000</ele>
        <time>2010-01-01T01:47:56Z</time>
      </trkpt>
      <trkpt lat="63.55769790" lon="-19.4910292">
        <ele>375.60000</ele>
        <time>2010-01-01T01:47:57Z</time>
      </trkpt>
      <trkpt lat="63.55768030" lon="-19.4910182">
        <ele>375.60000</ele>
        <time>2010-01-01T01:47:58Z</time>
      </trkpt>
      <trkpt lat="63.55763350" lon="-19.4910336">
        <ele>375.60000</ele>
        <time>2010-01-01T01:48:00Z</time>
      </trkpt>
      <trkpt lat="63.55761400" lon="-19.4910571">
        <ele>375.60000</ele>
        <time>2010-01-01T01:48:01Z</time>
      </trkpt>
      <trkpt lat="63.55759950" lon="-19.4910905">
        <ele>375.00000</ele>
        <time>2010-01-01T01:48:01Z</time>
      </trkpt>
      <trkpt lat="63.55757770" lon="-19.4911365">
        <ele>374.60000</ele>
        <time>2010-01-01T01:48:03Z</time>
      </trkpt>
      <trkpt lat="63.55755340" lon="-19.4911814">
        <ele>374.00000</ele>
        <time>2010-01-01T01:48:04Z</time>
      </trkpt>
      <trkpt lat="63.55753180" lon="-19.4912216">
        <ele>373.60000</ele>
        <time>2010-01-01T01:48:05Z</time>
      </trkpt>
      <trkpt lat="63.55749980" lon="-19.4912607">
        <ele>373.20001</ele>
        <time>2010-01-01T01:48:07Z</time>
      </trkpt>
      <trkpt lat="63.55746530" lon="-19.4912847">
        <ele>373.00000</ele>
        <time>2010-01-01T01:48:08Z</time>
      </trkpt>
      <trkpt lat="63.55743110" lon="-19.4913081">
        <ele>372.60000</ele>
        <time>2010-01-01T01:48:09Z</time>
      </trkpt>
      <trkpt lat="63.55739430" lon="-19.4913155">
        <ele>372.20001</ele>
        <time>2010-01-01T01:48:11Z</time>
      </trkpt>
      <trkpt lat="63.55734940" lon="-19.4913392">
        <ele>371.79998</ele>
        <time>2010-01-01T01:48:13Z</time>
      </trkpt>
      <trkpt lat="63.55731730" lon="-19.4913228">
        <ele>371.39999</ele>
        <time>2010-01-01T01:48:14Z</time>
      </trkpt>
      <trkpt lat="63.55727960" lon="-19.4912991">
        <ele>371.00000</ele>
        <time>2010-01-01T01:48:16Z</time>
      </trkpt>
      <trkpt lat="63.55724160" lon="-19.4913035">
        <ele>370.39999</ele>
        <time>2010-01-01T01:48:17Z</time>
      </trkpt>
      <trkpt lat="63.55721060" lon="-19.4913044">
        <ele>370.00000</ele>
        <time>2010-01-01T01:48:18Z</time>
      </trkpt>
      <trkpt lat="63.55717880" lon="-19.4912836">
        <ele>369.39999</ele>
        <time>2010-01-01T01:48:20Z</time>
      </trkpt>
      <trkpt lat="63.55713970" lon="-19.4912362">
        <ele>369.20001</ele>
        <time>2010-01-01T01:48:21Z</time>
      </trkpt>
      <trkpt lat="63.55709170" lon="-19.4911337">
        <ele>368.60000</ele>
        <time>2010-01-01T01:48:24Z</time>
      </trkpt>
      <trkpt lat="63.55705960" lon="-19.4911083">
        <ele>368.20001</ele>
        <time>2010-01-01T01:48:25Z</time>
      </trkpt>
      <trkpt lat="63.55702560" lon="-19.4911051">
        <ele>367.60000</ele>
        <time>2010-01-01T01:48:27Z</time>
      </trkpt>
      <trkpt lat="63.55698830" lon="-19.4910897">
        <ele>367.20001</ele>
        <time>2010-01-01T01:48:28Z</time>
      </trkpt>
      <trkpt lat="63.55696190" lon="-19.4910845">
        <ele>366.39999</ele>
        <time>2010-01-01T01:48:29Z</time>
      </trkpt>
      <trkpt lat="63.55693330" lon="-19.4910952">
        <ele>363.60000</ele>
        <time>2010-01-01T01:48:31Z</time>
      </trkpt>
      <trkpt lat="63.55684640" lon="-19.4911576">
        <ele>363.20001</ele>
        <time>2010-01-01T01:48:34Z</time>
      </trkpt>
      <trkpt lat="63.55681680" lon="-19.4911793">
        <ele>362.79998</ele>
        <time>2010-01-01T01:48:35Z</time>
      </trkpt>
      <trkpt lat="63.55678600" lon="-19.4911846">
        <ele>362.20001</ele>
        <time>2010-01-01T01:48:37Z</time>
      </trkpt>
      <trkpt lat="63.55675670" lon="-19.4911805">
        <ele>361.60000</ele>
        <time>2010-01-01T01:48:38Z</time>
      </trkpt>
      <trkpt lat="63.55671730" lon="-19.4911866">
        <ele>361.00000</ele>
        <time>2010-01-01T01:48:39Z</time>
      </trkpt>
      <trkpt lat="63.55668850" lon="-19.4911782">
        <ele>360.20001</ele>
        <time>2010-01-01T01:48:41Z</time>
      </trkpt>
      <trkpt lat="63.55665480" lon="-19.4911613">
        <ele>359.20001</ele>
        <time>2010-01-01T01:48:42Z</time>
      </trkpt>
      <trkpt lat="63.55663030" lon="-19.4911366">
        <ele>358.60000</ele>
        <time>2010-01-01T01:48:43Z</time>
      </trkpt>
      <trkpt lat="63.55659560" lon="-19.4910923">
        <ele>357.79998</ele>
        <time>2010-01-01T01:48:45Z</time>
      </trkpt>
      <trkpt lat="63.55656330" lon="-19.4910565">
        <ele>356.79998</ele>
        <time>2010-01-01T01:48:46Z</time>
      </trkpt>
      <trkpt lat="63.55652430" lon="-19.4910213">
        <ele>356.00000</ele>
        <time>2010-01-01T01:48:48Z</time>
      </trkpt>
      <trkpt lat="63.55648470" lon="-19.4910219">
        <ele>355.39999</ele>
        <time>2010-01-01T01:48:49Z</time>
      </trkpt>
      <trkpt lat="63.55643910" lon="-19.4910504">
        <ele>354.39999</ele>
        <time>2010-01-01T01:48:51Z</time>
      </trkpt>
      <trkpt lat="63.55641030" lon="-19.4910844">
        <ele>353.60000</ele>
        <time>2010-01-01T01:48:53Z</time>
      </trkpt>
      <trkpt lat="63.55637020" lon="-19.4911022">
        <ele>352.39999</ele>
        <time>2010-01-01T01:48:54Z</time>
      </trkpt>
      <trkpt lat="63.55634380" lon="-19.4911144">
        <ele>351.39999</ele>
        <time>2010-01-01T01:48:55Z</time>
      </trkpt>
      <trkpt lat="63.55630910" lon="-19.4911407">
        <ele>350.60000</ele>
        <time>2010-01-01T01:48:57Z</time>
      </trkpt>
      <trkpt lat="63.55627850" lon="-19.4911555">
        <ele>350.20001</ele>
        <time>2010-01-01T01:48:58Z</time>
      </trkpt>
      <trkpt lat="63.55625260" lon="-19.4911804">
        <ele>349.39999</ele>
        <time>2010-01-01T01:48:59Z</time>
      </trkpt>
      <trkpt lat="63.55621720" lon="-19.4912102">
        <ele>349.00000</ele>
        <time>2010-01-01T01:49:01Z</time>
      </trkpt>
      <trkpt lat="63.55618560" lon="-19.4912363">
        <ele>348.20001</ele>
        <time>2010-01-01T01:49:02Z</time>
      </trkpt>
      <trkpt lat="63.55615260" lon="-19.4912695">
        <ele>348.00000</ele>
        <time>2010-01-01T01:49:03Z</time>
      </trkpt>
      <trkpt lat="63.55611630" lon="-19.4913056">
        <ele>348.20001</ele>
        <time>2010-01-01T01:49:05Z</time>
      </trkpt>
      <trkpt lat="63.55608130" lon="-19.4913230">
        <ele>347.60000</ele>
        <time>2010-01-01T01:49:06Z</time>
      </trkpt>
      <trkpt lat="63.55604960" lon="-19.4913435">
        <ele>347.20001</ele>
        <time>2010-01-01T01:49:08Z</time>
      </trkpt>
      <trkpt lat="63.55601190" lon="-19.4913641">
        <ele>346.60000</ele>
        <time>2010-01-01T01:49:09Z</time>
      </trkpt>
      <trkpt lat="63.55598480" lon="-19.4914003">
        <ele>345.79998</ele>
        <time>2010-01-01T01:49:11Z</time>
      </trkpt>
      <trkpt lat="63.55595780" lon="-19.4914302">
        <ele>345.20001</ele>
        <time>2010-01-01T01:49:12Z</time>
      </trkpt>
      <trkpt lat="63.55592470" lon="-19.4914631">
        <ele>344.60000</ele>
        <time>2010-01-01T01:49:13Z</time>
      </trkpt>
      <trkpt lat="63.55589290" lon="-19.4914938">
        <ele>344.00000</ele>
        <time>2010-01-01T01:49:15Z</time>
      </trkpt>
      <trkpt lat="63.55585840" lon="-19.4915274">
        <ele>343.39999</ele>
        <time>2010-01-01T01:49:16Z</time>
      </trkpt>
      <trkpt lat="63.55582650" lon="-19.4915396">
        <ele>343.20001</ele>
        <time>2010-01-01T01:49:17Z</time>
      </trkpt>
      <trkpt lat="63.55579380" lon="-19.4915321">
        <ele>343.00000</ele>
        <time>2010-01-01T01:49:19Z</time>
      </trkpt>
      <trkpt lat="63.55576800" lon="-19.4915238">
        <ele>342.60000</ele>
        <time>2010-01-01T01:49:20Z</time>
      </trkpt>
      <trkpt lat="63.55573310" lon="-19.4915092">
        <ele>342.20001</ele>
        <time>2010-01-01T01:49:21Z</time>
      </trkpt>
      <trkpt lat="63.55569930" lon="-19.4914766">
        <ele>341.79998</ele>
        <time>2010-01-01T01:49:23Z</time>
      </trkpt>
      <trkpt lat="63.55566570" lon="-19.4914409">
        <ele>341.39999</ele>
        <time>2010-01-01T01:49:24Z</time>
      </trkpt>
      <trkpt lat="63.55563160" lon="-19.4914016">
        <ele>341.20001</ele>
        <time>2010-01-01T01:49:26Z</time>
      </trkpt>
      <trkpt lat="63.55560390" lon="-19.4913731">
        <ele>340.79998</ele>
        <time>2010-01-01T01:49:27Z</time>
      </trkpt>
      <trkpt lat="63.55557420" lon="-19.4913548">
        <ele>340.60000</ele>
        <time>2010-01-01T01:49:28Z</time>
      </trkpt>
      <trkpt lat="63.55553970" lon="-19.4913418">
        <ele>340.00000</ele>
        <time>2010-01-01T01:49:30Z</time>
      </trkpt>
      <trkpt lat="63.55551210" lon="-19.4913550">
        <ele>339.39999</ele>
        <time>2010-01-01T01:49:31Z</time>
      </trkpt>
      <trkpt lat="63.55548900" lon="-19.4913961">
        <ele>338.60000</ele>
        <time>2010-01-01T01:49:32Z</time>
      </trkpt>
      <trkpt lat="63.55546500" lon="-19.4914434">
        <ele>338.20001</ele>
        <time>2010-01-01T01:49:33Z</time>
      </trkpt>
      <trkpt lat="63.55543380" lon="-19.4914674">
        <ele>337.39999</ele>
        <time>2010-01-01T01:49:35Z</time>
      </trkpt>
      <trkpt lat="63.55540620" lon="-19.4914492">
        <ele>336.79998</ele>
        <time>2010-01-01T01:49:36Z</time>
      </trkpt>
      <trkpt lat="63.55536940" lon="-19.4914517">
        <ele>336.20001</ele>
        <time>2010-01-01T01:49:37Z</time>
      </trkpt>
      <trkpt lat="63.55534540" lon="-19.4914861">
        <ele>335.39999</ele>
        <time>2010-01-01T01:49:38Z</time>
      </trkpt>
      <trkpt lat="63.55531790" lon="-19.4915102">
        <ele>334.79998</ele>
        <time>2010-01-01T01:49:39Z</time>
      </trkpt>
      <trkpt lat="63.55528780" lon="-19.4915220">
        <ele>334.20001</ele>
        <time>2010-01-01T01:49:41Z</time>
      </trkpt>
      <trkpt lat="63.55525630" lon="-19.4915187">
        <ele>334.00000</ele>
        <time>2010-01-01T01:49:42Z</time>
      </trkpt>
      <trkpt lat="63.55522030" lon="-19.4915163">
        <ele>333.60000</ele>
        <time>2010-01-01T01:49:43Z</time>
      </trkpt>
      <trkpt lat="63.55518500" lon="-19.4915193">
        <ele>333.20001</ele>
        <time>2010-01-01T01:49:45Z</time>
      </trkpt>
      <trkpt lat="63.55515190" lon="-19.4915015">
        <ele>333.00000</ele>
        <time>2010-01-01T01:49:46Z</time>
      </trkpt>
      <trkpt lat="63.55512560" lon="-19.4915027">
        <ele>332.60000</ele>
        <time>2010-01-01T01:49:47Z</time>
      </trkpt>
      <trkpt lat="63.55510450" lon="-19.4914856">
        <ele>332.39999</ele>
        <time>2010-01-01T01:49:48Z</time>
      </trkpt>
      <trkpt lat="63.55507580" lon="-19.4914343">
        <ele>332.00000</ele>
        <time>2010-01-01T01:49:50Z</time>
      </trkpt>
      <trkpt lat="63.55505470" lon="-19.4914075">
        <ele>331.60000</ele>
        <time>2010-01-01T01:49:51Z</time>
      </trkpt>
      <trkpt lat="63.55503740" lon="-19.4913708">
        <ele>331.00000</ele>
        <time>2010-01-01T01:49:51Z</time>
      </trkpt>
      <trkpt lat="63.55501990" lon="-19.4913518">
        <ele>330.79998</ele>
        <time>2010-01-01T01:49:52Z</time>
      </trkpt>
      <trkpt lat="63.55499900" lon="-19.4913364">
        <ele>330.39999</ele>
        <time>2010-01-01T01:49:53Z</time>
      </trkpt>
      <trkpt lat="63.55497320" lon="-19.4913250">
        <ele>330.39999</ele>
        <time>2010-01-01T01:49:54Z</time>
      </trkpt>
      <trkpt lat="63.55494790" lon="-19.4913213">
        <ele>330.39999</ele>
        <time>2010-01-01T01:49:55Z</time>
      </trkpt>
      <trkpt lat="63.55492020" lon="-19.4913157">
        <ele>330.39999</ele>
        <time>2010-01-01T01:49:56Z</time>
      </trkpt>
      <trkpt lat="63.55489240" lon="-19.4913045">
        <ele>330.39999</ele>
        <time>2010-01-01T01:49:57Z</time>
      </trkpt>
      <trkpt lat="63.55486770" lon="-19.4912990">
        <ele>330.39999</ele>
        <time>2010-01-01T01:49:58Z</time>
      </trkpt>
      <trkpt lat="63.55484390" lon="-19.4912927">
        <ele>330.39999</ele>
        <time>2010-01-01T01:49:59Z</time>
      </trkpt>
      <trkpt lat="63.55481650" lon="-19.4912902">
        <ele>330.39999</ele>
        <time>2010-01-01T01:50:01Z</time>
      </trkpt>
      <trkpt lat="63.55478620" lon="-19.4912953">
        <ele>330.39999</ele>
        <time>2010-01-01T01:50:02Z</time>
      </trkpt>
      <trkpt lat="63.55476380" lon="-19.4913066">
        <ele>330.39999</ele>
        <time>2010-01-01T01:50:03Z</time>
      </trkpt>
      <trkpt lat="63.55471700" lon="-19.4913112">
        <ele>330.39999</ele>
        <time>2010-01-01T01:50:05Z</time>
      </trkpt>
      <trkpt lat="63.55468490" lon="-19.4913062">
        <ele>331.00000</ele>
        <time>2010-01-01T01:50:06Z</time>
      </trkpt>
      <trkpt lat="63.55465060" lon="-19.4912957">
        <ele>331.20001</ele>
        <time>2010-01-01T01:50:07Z</time>
      </trkpt>
      <trkpt lat="63.55461920" lon="-19.4912920">
        <ele>331.60000</ele>
        <time>2010-01-01T01:50:08Z</time>
      </trkpt>
      <trkpt lat="63.55458450" lon="-19.4912867">
        <ele>331.60000</ele>
        <time>2010-01-01T01:50:10Z</time>
      </trkpt>
      <trkpt lat="63.55456190" lon="-19.4913261">
        <ele>332.20001</ele>
        <time>2010-01-01T01:50:11Z</time>
      </trkpt>
      <trkpt lat="63.55453140" lon="-19.4913612">
        <ele>332.60000</ele>
        <time>2010-01-01T01:50:12Z</time>
      </trkpt>
      <trkpt lat="63.55450000" lon="-19.4914010">
        <ele>332.39999</ele>
        <time>2010-01-01T01:50:14Z</time>
      </trkpt>
      <trkpt lat="63.55447730" lon="-19.4914297">
        <ele>332.60000</ele>
        <time>2010-01-01T01:50:15Z</time>
      </trkpt>
      <trkpt lat="63.55443400" lon="-19.4914676">
        <ele>332.39999</ele>
        <time>2010-01-01T01:50:17Z</time>
      </trkpt>
      <trkpt lat="63.55439840" lon="-19.4914865">
        <ele>332.39999</ele>
        <time>2010-01-01T01:50:18Z</time>
      </trkpt>
      <trkpt lat="63.55437180" lon="-19.4914955">
        <ele>332.39999</ele>
        <time>2010-01-01T01:50:19Z</time>
      </trkpt>
      <trkpt lat="63.55433550" lon="-19.4915086">
        <ele>332.39999</ele>
        <time>2010-01-01T01:50:21Z</time>
      </trkpt>
      <trkpt lat="63.55431010" lon="-19.4915176">
        <ele>332.39999</ele>
        <time>2010-01-01T01:50:22Z</time>
      </trkpt>
      <trkpt lat="63.55427820" lon="-19.4915261">
        <ele>332.20001</ele>
        <time>2010-01-01T01:50:23Z</time>
      </trkpt>
      <trkpt lat="63.55424860" lon="-19.4915216">
        <ele>331.79998</ele>
        <time>2010-01-01T01:50:24Z</time>
      </trkpt>
      <trkpt lat="63.55422050" lon="-19.4915304">
        <ele>331.39999</ele>
        <time>2010-01-01T01:50:25Z</time>
      </trkpt>
      <trkpt lat="63.55419720" lon="-19.4915413">
        <ele>331.20001</ele>
        <time>2010-01-01T01:50:26Z</time>
      </trkpt>
      <trkpt lat="63.55417130" lon="-19.4915585">
        <ele>331.00000</ele>
        <time>2010-01-01T01:50:27Z</time>
      </trkpt>
      <trkpt lat="63.55414100" lon="-19.4915748">
        <ele>330.60000</ele>
        <time>2010-01-01T01:50:29Z</time>
      </trkpt>
      <trkpt lat="63.55411420" lon="-19.4915611">
        <ele>330.39999</ele>
        <time>2010-01-01T01:50:30Z</time>
      </trkpt>
      <trkpt lat="63.55408610" lon="-19.4915350">
        <ele>330.39999</ele>
        <time>2010-01-01T01:50:31Z</time>
      </trkpt>
      <trkpt lat="63.55405300" lon="-19.4914928">
        <ele>330.39999</ele>
        <time>2010-01-01T01:50:32Z</time>
      </trkpt>
      <trkpt lat="63.55402470" lon="-19.4914632">
        <ele>330.39999</ele>
        <time>2010-01-01T01:50:34Z</time>
      </trkpt>
      <trkpt lat="63.55399650" lon="-19.4914314">
        <ele>330.00000</ele>
        <time>2010-01-01T01:50:35Z</time>
      </trkpt>
      <trkpt lat="63.55397170" lon="-19.4914233">
        <ele>329.39999</ele>
        <time>2010-01-01T01:50:36Z</time>
      </trkpt>
      <trkpt lat="63.55394620" lon="-19.4914187">
        <ele>329.00000</ele>
        <time>2010-01-01T01:50:37Z</time>
      </trkpt>
      <trkpt lat="63.55392420" lon="-19.4914023">
        <ele>329.00000</ele>
        <time>2010-01-01T01:50:38Z</time>
      </trkpt>
      <trkpt lat="63.55390610" lon="-19.4913790">
        <ele>328.60000</ele>
        <time>2010-01-01T01:50:39Z</time>
      </trkpt>
      <trkpt lat="63.55388890" lon="-19.4913524">
        <ele>328.20001</ele>
        <time>2010-01-01T01:50:40Z</time>
      </trkpt>
      <trkpt lat="63.55387320" lon="-19.4913334">
        <ele>328.20001</ele>
        <time>2010-01-01T01:50:40Z</time>
      </trkpt>
      <trkpt lat="63.55385640" lon="-19.4913247">
        <ele>327.79998</ele>
        <time>2010-01-01T01:50:41Z</time>
      </trkpt>
      <trkpt lat="63.55384390" lon="-19.4913110">
        <ele>327.39999</ele>
        <time>2010-01-01T01:50:42Z</time>
      </trkpt>
      <trkpt lat="63.55382790" lon="-19.4912974">
        <ele>327.00000</ele>
        <time>2010-01-01T01:50:42Z</time>
      </trkpt>
      <trkpt lat="63.55381310" lon="-19.4912747">
        <ele>326.60000</ele>
        <time>2010-01-01T01:50:43Z</time>
      </trkpt>
      <trkpt lat="63.55380270" lon="-19.4912483">
        <ele>326.00000</ele>
        <time>2010-01-01T01:50:44Z</time>
      </trkpt>
      <trkpt lat="63.55378900" lon="-19.4912206">
        <ele>325.60000</ele>
        <time>2010-01-01T01:50:44Z</time>
      </trkpt>
      <trkpt lat="63.55376590" lon="-19.4911888">
        <ele>325.00000</ele>
        <time>2010-01-01T01:50:45Z</time>
      </trkpt>
      <trkpt lat="63.55374670" lon="-19.4911662">
        <ele>324.60000</ele>
        <time>2010-01-01T01:50:46Z</time>
      </trkpt>
      <trkpt lat="63.55372320" lon="-19.4911378">
        <ele>324.00000</ele>
        <time>2010-01-01T01:50:47Z</time>
      </trkpt>
      <trkpt lat="63.55370270" lon="-19.4911155">
        <ele>324.00000</ele>
        <time>2010-01-01T01:50:48Z</time>
      </trkpt>
      <trkpt lat="63.55368600" lon="-19.4911035">
        <ele>324.20001</ele>
        <time>2010-01-01T01:50:49Z</time>
      </trkpt>
      <trkpt lat="63.55366420" lon="-19.4910941">
        <ele>324.20001</ele>
        <time>2010-01-01T01:50:50Z</time>
      </trkpt>
      <trkpt lat="63.55361700" lon="-19.4911013">
        <ele>324.20001</ele>
        <time>2010-01-01T01:50:52Z</time>
      </trkpt>
      <trkpt lat="63.55359040" lon="-19.4911001">
        <ele>324.20001</ele>
        <time>2010-01-01T01:50:53Z</time>
      </trkpt>
      <trkpt lat="63.55356380" lon="-19.4911073">
        <ele>324.20001</ele>
        <time>2010-01-01T01:50:54Z</time>
      </trkpt>
      <trkpt lat="63.55354600" lon="-19.4911229">
        <ele>324.20001</ele>
        <time>2010-01-01T01:50:55Z</time>
      </trkpt>
      <trkpt lat="63.55352390" lon="-19.4911353">
        <ele>324.39999</ele>
        <time>2010-01-01T01:50:56Z</time>
      </trkpt>
      <trkpt lat="63.55349540" lon="-19.4911622">
        <ele>325.00000</ele>
        <time>2010-01-01T01:50:57Z</time>
      </trkpt>
      <trkpt lat="63.55346540" lon="-19.4911746">
        <ele>325.39999</ele>
        <time>2010-01-01T01:50:58Z</time>
      </trkpt>
      <trkpt lat="63.55343210" lon="-19.4911816">
        <ele>325.79998</ele>
        <time>2010-01-01T01:50:59Z</time>
      </trkpt>
      <trkpt lat="63.55339990" lon="-19.4911884">
        <ele>326.20001</ele>
        <time>2010-01-01T01:51:01Z</time>
      </trkpt>
      <trkpt lat="63.55337740" lon="-19.4912000">
        <ele>326.20001</ele>
        <time>2010-01-01T01:51:02Z</time>
      </trkpt>
      <trkpt lat="63.55334600" lon="-19.4912256">
        <ele>326.20001</ele>
        <time>2010-01-01T01:51:03Z</time>
      </trkpt>
      <trkpt lat="63.55332590" lon="-19.4912578">
        <ele>326.20001</ele>
        <time>2010-01-01T01:51:04Z</time>
      </trkpt>
      <trkpt lat="63.55330210" lon="-19.4912997">
        <ele>326.20001</ele>
        <time>2010-01-01T01:51:05Z</time>
      </trkpt>
      <trkpt lat="63.55327320" lon="-19.4913425">
        <ele>326.20001</ele>
        <time>2010-01-01T01:51:07Z</time>
      </trkpt>
      <trkpt lat="63.55324820" lon="-19.4913700">
        <ele>326.20001</ele>
        <time>2010-01-01T01:51:08Z</time>
      </trkpt>
      <trkpt lat="63.55321610" lon="-19.4913674">
        <ele>326.20001</ele>
        <time>2010-01-01T01:51:09Z</time>
      </trkpt>
      <trkpt lat="63.55318090" lon="-19.4913680">
        <ele>326.20001</ele>
        <time>2010-01-01T01:51:10Z</time>
      </trkpt>
      <trkpt lat="63.55314630" lon="-19.4913622">
        <ele>325.79998</ele>
        <time>2010-01-01T01:51:12Z</time>
      </trkpt>
      <trkpt lat="63.55312180" lon="-19.4913719">
        <ele>325.20001</ele>
        <time>2010-01-01T01:51:13Z</time>
      </trkpt>
      <trkpt lat="63.55309740" lon="-19.4913958">
        <ele>325.00000</ele>
        <time>2010-01-01T01:51:14Z</time>
      </trkpt>
      <trkpt lat="63.55305600" lon="-19.4914168">
        <ele>324.60000</ele>
        <time>2010-01-01T01:51:15Z</time>
      </trkpt>
      <trkpt lat="63.55302640" lon="-19.4914315">
        <ele>324.20001</ele>
        <time>2010-01-01T01:51:17Z</time>
      </trkpt>
      <trkpt lat="63.55299460" lon="-19.4914515">
        <ele>324.00000</ele>
        <time>2010-01-01T01:51:18Z</time>
      </trkpt>
      <trkpt lat="63.55295120" lon="-19.4914306">
        <ele>324.00000</ele>
        <time>2010-01-01T01:51:20Z</time>
      </trkpt>
      <trkpt lat="63.55288780" lon="-19.4913340">
        <ele>324.00000</ele>
        <time>2010-01-01T01:51:23Z</time>
      </trkpt>
      <trkpt lat="63.55277240" lon="-19.4914281">
        <ele>324.00000</ele>
        <time>2010-01-01T01:51:28Z</time>
      </trkpt>
      <trkpt lat="63.55274950" lon="-19.4914755">
        <ele>324.00000</ele>
        <time>2010-01-01T01:51:29Z</time>
      </trkpt>
      <trkpt lat="63.55272850" lon="-19.4915089">
        <ele>324.00000</ele>
        <time>2010-01-01T01:51:30Z</time>
      </trkpt>
      <trkpt lat="63.55264520" lon="-19.4915855">
        <ele>324.00000</ele>
        <time>2010-01-01T01:51:34Z</time>
      </trkpt>
      <trkpt lat="63.55252510" lon="-19.4916342">
        <ele>324.00000</ele>
        <time>2010-01-01T01:51:39Z</time>
      </trkpt>
      <trkpt lat="63.55250070" lon="-19.4916509">
        <ele>324.00000</ele>
        <time>2010-01-01T01:51:40Z</time>
      </trkpt>
      <trkpt lat="63.55247690" lon="-19.4916715">
        <ele>324.00000</ele>
        <time>2010-01-01T01:51:41Z</time>
      </trkpt>
      <trkpt lat="63.55244630" lon="-19.4916869">
        <ele>324.00000</ele>
        <time>2010-01-01T01:51:42Z</time>
      </trkpt>
      <trkpt lat="63.55242250" lon="-19.4916987">
        <ele>324.00000</ele>
        <time>2010-01-01T01:51:43Z</time>
      </trkpt>
      <trkpt lat="63.55239750" lon="-19.4917087">
        <ele>324.00000</ele>
        <time>2010-01-01T01:51:44Z</time>
      </trkpt>
      <trkpt lat="63.55237350" lon="-19.4917158">
        <ele>324.20001</ele>
        <time>2010-01-01T01:51:45Z</time>
      </trkpt>
      <trkpt lat="63.55235280" lon="-19.4917120">
        <ele>324.00000</ele>
        <time>2010-01-01T01:51:46Z</time>
      </trkpt>
      <trkpt lat="63.55233040" lon="-19.4917129">
        <ele>324.00000</ele>
        <time>2010-01-01T01:51:47Z</time>
      </trkpt>
      <trkpt lat="63.55230990" lon="-19.4917195">
        <ele>324.00000</ele>
        <time>2010-01-01T01:51:47Z</time>
      </trkpt>
      <trkpt lat="63.55227810" lon="-19.4917298">
        <ele>324.20001</ele>
        <time>2010-01-01T01:51:49Z</time>
      </trkpt>
      <trkpt lat="63.55226010" lon="-19.4917451">
        <ele>324.60000</ele>
        <time>2010-01-01T01:51:49Z</time>
      </trkpt>
      <trkpt lat="63.55223660" lon="-19.4917760">
        <ele>325.00000</ele>
        <time>2010-01-01T01:51:51Z</time>
      </trkpt>
      <trkpt lat="63.55221290" lon="-19.4918113">
        <ele>325.39999</ele>
        <time>2010-01-01T01:51:52Z</time>
      </trkpt>
      <trkpt lat="63.55219040" lon="-19.4918396">
        <ele>325.60000</ele>
        <time>2010-01-01T01:51:53Z</time>
      </trkpt>
      <trkpt lat="63.55216550" lon="-19.4918783">
        <ele>326.00000</ele>
        <time>2010-01-01T01:51:54Z</time>
      </trkpt>
      <trkpt lat="63.55214130" lon="-19.4919165">
        <ele>326.00000</ele>
        <time>2010-01-01T01:51:55Z</time>
      </trkpt>
      <trkpt lat="63.55208310" lon="-19.4920078">
        <ele>326.00000</ele>
        <time>2010-01-01T01:51:58Z</time>
      </trkpt>
      <trkpt lat="63.55205880" lon="-19.4920075">
        <ele>326.00000</ele>
        <time>2010-01-01T01:51:59Z</time>
      </trkpt>
      <trkpt lat="63.55202540" lon="-19.4920453">
        <ele>325.39999</ele>
        <time>2010-01-01T01:52:00Z</time>
      </trkpt>
      <trkpt lat="63.55200070" lon="-19.4920851">
        <ele>325.00000</ele>
        <time>2010-01-01T01:52:02Z</time>
      </trkpt>
      <trkpt lat="63.55197650" lon="-19.4921274">
        <ele>324.60000</ele>
        <time>2010-01-01T01:52:03Z</time>
      </trkpt>
      <trkpt lat="63.55194690" lon="-19.4921278">
        <ele>324.39999</ele>
        <time>2010-01-01T01:52:04Z</time>
      </trkpt>
      <trkpt lat="63.55192270" lon="-19.4921382">
        <ele>324.00000</ele>
        <time>2010-01-01T01:52:05Z</time>
      </trkpt>
      <trkpt lat="63.55189760" lon="-19.4921483">
        <ele>323.60000</ele>
        <time>2010-01-01T01:52:06Z</time>
      </trkpt>
      <trkpt lat="63.55186040" lon="-19.4921378">
        <ele>323.39999</ele>
        <time>2010-01-01T01:52:08Z</time>
      </trkpt>
      <trkpt lat="63.55183890" lon="-19.4921480">
        <ele>322.79998</ele>
        <time>2010-01-01T01:52:08Z</time>
      </trkpt>
      <trkpt lat="63.55181450" lon="-19.4921544">
        <ele>322.20001</ele>
        <time>2010-01-01T01:52:09Z</time>
      </trkpt>
      <trkpt lat="63.55178060" lon="-19.4921483">
        <ele>321.79998</ele>
        <time>2010-01-01T01:52:11Z</time>
      </trkpt>
      <trkpt lat="63.55173970" lon="-19.4921541">
        <ele>321.39999</ele>
        <time>2010-01-01T01:52:12Z</time>
      </trkpt>
      <trkpt lat="63.55170040" lon="-19.4921615">
        <ele>321.00000</ele>
        <time>2010-01-01T01:52:14Z</time>
      </trkpt>
      <trkpt lat="63.55167130" lon="-19.4921884">
        <ele>320.39999</ele>
        <time>2010-01-01T01:52:15Z</time>
      </trkpt>
      <trkpt lat="63.55162300" lon="-19.4922036">
        <ele>320.00000</ele>
        <time>2010-01-01T01:52:17Z</time>
      </trkpt>
      <trkpt lat="63.55158700" lon="-19.4922223">
        <ele>319.39999</ele>
        <time>2010-01-01T01:52:19Z</time>
      </trkpt>
      <trkpt lat="63.55154820" lon="-19.4922646">
        <ele>318.79998</ele>
        <time>2010-01-01T01:52:20Z</time>
      </trkpt>
      <trkpt lat="63.55151230" lon="-19.4922883">
        <ele>318.20001</ele>
        <time>2010-01-01T01:52:22Z</time>
      </trkpt>
      <trkpt lat="63.55147770" lon="-19.4923093">
        <ele>317.60000</ele>
        <time>2010-01-01T01:52:23Z</time>
      </trkpt>
      <trkpt lat="63.55144860" lon="-19.4923210">
        <ele>316.79998</ele>
        <time>2010-01-01T01:52:25Z</time>
      </trkpt>
      <trkpt lat="63.55142380" lon="-19.4923371">
        <ele>316.00000</ele>
        <time>2010-01-01T01:52:26Z</time>
      </trkpt>
      <trkpt lat="63.55138880" lon="-19.4923524">
        <ele>315.00000</ele>
        <time>2010-01-01T01:52:27Z</time>
      </trkpt>
      <trkpt lat="63.55136330" lon="-19.4923738">
        <ele>314.20001</ele>
        <time>2010-01-01T01:52:28Z</time>
      </trkpt>
      <trkpt lat="63.55133120" lon="-19.4924131">
        <ele>313.39999</ele>
        <time>2010-01-01T01:52:30Z</time>
      </trkpt>
      <trkpt lat="63.55130930" lon="-19.4924516">
        <ele>313.00000</ele>
        <time>2010-01-01T01:52:31Z</time>
      </trkpt>
      <trkpt lat="63.55128690" lon="-19.4925143">
        <ele>313.00000</ele>
        <time>2010-01-01T01:52:32Z</time>
      </trkpt>
      <trkpt lat="63.55127250" lon="-19.4925543">
        <ele>312.79998</ele>
        <time>2010-01-01T01:52:33Z</time>
      </trkpt>
      <trkpt lat="63.55125740" lon="-19.4926061">
        <ele>312.39999</ele>
        <time>2010-01-01T01:52:34Z</time>
      </trkpt>
      <trkpt lat="63.55123360" lon="-19.4926296">
        <ele>312.00000</ele>
        <time>2010-01-01T01:52:35Z</time>
      </trkpt>
      <trkpt lat="63.55120980" lon="-19.4926495">
        <ele>311.39999</ele>
        <time>2010-01-01T01:52:36Z</time>
      </trkpt>
      <trkpt lat="63.55117290" lon="-19.4926520">
        <ele>311.00000</ele>
        <time>2010-01-01T01:52:38Z</time>
      </trkpt>
      <trkpt lat="63.55114610" lon="-19.4926364">
        <ele>310.39999</ele>
        <time>2010-01-01T01:52:39Z</time>
      </trkpt>
      <trkpt lat="63.55110310" lon="-19.4926298">
        <ele>309.79998</ele>
        <time>2010-01-01T01:52:40Z</time>
      </trkpt>
      <trkpt lat="63.55107880" lon="-19.4926337">
        <ele>309.39999</ele>
        <time>2010-01-01T01:52:41Z</time>
      </trkpt>
      <trkpt lat="63.55105080" lon="-19.4926543">
        <ele>309.00000</ele>
        <time>2010-01-01T01:52:43Z</time>
      </trkpt>
      <trkpt lat="63.55101730" lon="-19.4926737">
        <ele>308.60000</ele>
        <time>2010-01-01T01:52:44Z</time>
      </trkpt>
      <trkpt lat="63.55098610" lon="-19.4926992">
        <ele>308.20001</ele>
        <time>2010-01-01T01:52:45Z</time>
      </trkpt>
      <trkpt lat="63.55094990" lon="-19.4927226">
        <ele>308.20001</ele>
        <time>2010-01-01T01:52:47Z</time>
      </trkpt>
      <trkpt lat="63.55091380" lon="-19.4927334">
        <ele>308.20001</ele>
        <time>2010-01-01T01:52:48Z</time>
      </trkpt>
      <trkpt lat="63.55088230" lon="-19.4927294">
        <ele>308.20001</ele>
        <time>2010-01-01T01:52:50Z</time>
      </trkpt>
      <trkpt lat="63.55085260" lon="-19.4927116">
        <ele>308.20001</ele>
        <time>2010-01-01T01:52:51Z</time>
      </trkpt>
      <trkpt lat="63.55082480" lon="-19.4926991">
        <ele>308.20001</ele>
        <time>2010-01-01T01:52:52Z</time>
      </trkpt>
      <trkpt lat="63.55079450" lon="-19.4927080">
        <ele>308.20001</ele>
        <time>2010-01-01T01:52:53Z</time>
      </trkpt>
      <trkpt lat="63.55076030" lon="-19.4927243">
        <ele>308.20001</ele>
        <time>2010-01-01T01:52:55Z</time>
      </trkpt>
      <trkpt lat="63.55072900" lon="-19.4927478">
        <ele>308.39999</ele>
        <time>2010-01-01T01:52:56Z</time>
      </trkpt>
      <trkpt lat="63.55071330" lon="-19.4927734">
        <ele>308.39999</ele>
        <time>2010-01-01T01:52:57Z</time>
      </trkpt>
      <trkpt lat="63.55068140" lon="-19.4927886">
        <ele>308.20001</ele>
        <time>2010-01-01T01:52:58Z</time>
      </trkpt>
      <trkpt lat="63.55066150" lon="-19.4928157">
        <ele>308.20001</ele>
        <time>2010-01-01T01:52:59Z</time>
      </trkpt>
      <trkpt lat="63.55064040" lon="-19.4928546">
        <ele>308.20001</ele>
        <time>2010-01-01T01:53:00Z</time>
      </trkpt>
      <trkpt lat="63.55062030" lon="-19.4928919">
        <ele>308.20001</ele>
        <time>2010-01-01T01:53:01Z</time>
      </trkpt>
      <trkpt lat="63.55059730" lon="-19.4929297">
        <ele>308.20001</ele>
        <time>2010-01-01T01:53:02Z</time>
      </trkpt>
      <trkpt lat="63.55057320" lon="-19.4929628">
        <ele>308.20001</ele>
        <time>2010-01-01T01:53:03Z</time>
      </trkpt>
      <trkpt lat="63.55055190" lon="-19.4930009">
        <ele>308.20001</ele>
        <time>2010-01-01T01:53:04Z</time>
      </trkpt>
      <trkpt lat="63.55052270" lon="-19.4930390">
        <ele>308.20001</ele>
        <time>2010-01-01T01:53:06Z</time>
      </trkpt>
      <trkpt lat="63.55050100" lon="-19.4930789">
        <ele>308.20001</ele>
        <time>2010-01-01T01:53:07Z</time>
      </trkpt>
      <trkpt lat="63.55047030" lon="-19.4931187">
        <ele>308.20001</ele>
        <time>2010-01-01T01:53:08Z</time>
      </trkpt>
      <trkpt lat="63.55044290" lon="-19.4931559">
        <ele>308.20001</ele>
        <time>2010-01-01T01:53:10Z</time>
      </trkpt>
      <trkpt lat="63.55041780" lon="-19.4931820">
        <ele>308.20001</ele>
        <time>2010-01-01T01:53:11Z</time>
      </trkpt>
      <trkpt lat="63.55039060" lon="-19.4932060">
        <ele>308.39999</ele>
        <time>2010-01-01T01:53:12Z</time>
      </trkpt>
      <trkpt lat="63.55036530" lon="-19.4932384">
        <ele>308.20001</ele>
        <time>2010-01-01T01:53:13Z</time>
      </trkpt>
      <trkpt lat="63.55034210" lon="-19.4932720">
        <ele>308.20001</ele>
        <time>2010-01-01T01:53:14Z</time>
      </trkpt>
      <trkpt lat="63.55031010" lon="-19.4933332">
        <ele>308.39999</ele>
        <time>2010-01-01T01:53:16Z</time>
      </trkpt>
      <trkpt lat="63.55027670" lon="-19.4933834">
        <ele>308.20001</ele>
        <time>2010-01-01T01:53:17Z</time>
      </trkpt>
      <trkpt lat="63.55026290" lon="-19.4934114">
        <ele>308.20001</ele>
        <time>2010-01-01T01:53:18Z</time>
      </trkpt>
      <trkpt lat="63.55020560" lon="-19.4935501">
        <ele>308.00000</ele>
        <time>2010-01-01T01:53:22Z</time>
      </trkpt>
      <trkpt lat="63.55018050" lon="-19.4935917">
        <ele>307.60000</ele>
        <time>2010-01-01T01:53:23Z</time>
      </trkpt>
      <trkpt lat="63.55016450" lon="-19.4936151">
        <ele>307.39999</ele>
        <time>2010-01-01T01:53:24Z</time>
      </trkpt>
      <trkpt lat="63.55013450" lon="-19.4936607">
        <ele>307.00000</ele>
        <time>2010-01-01T01:53:25Z</time>
      </trkpt>
      <trkpt lat="63.55010060" lon="-19.4936821">
        <ele>306.60000</ele>
        <time>2010-01-01T01:53:26Z</time>
      </trkpt>
      <trkpt lat="63.55007940" lon="-19.4937183">
        <ele>306.20001</ele>
        <time>2010-01-01T01:53:27Z</time>
      </trkpt>
      <trkpt lat="63.55005260" lon="-19.4937377">
        <ele>305.79998</ele>
        <time>2010-01-01T01:53:29Z</time>
      </trkpt>
      <trkpt lat="63.55002310" lon="-19.4937687">
        <ele>305.39999</ele>
        <time>2010-01-01T01:53:30Z</time>
      </trkpt>
      <trkpt lat="63.54999510" lon="-19.4937803">
        <ele>305.00000</ele>
        <time>2010-01-01T01:53:31Z</time>
      </trkpt>
      <trkpt lat="63.54996040" lon="-19.4938032">
        <ele>304.39999</ele>
        <time>2010-01-01T01:53:32Z</time>
      </trkpt>
      <trkpt lat="63.54993800" lon="-19.4938025">
        <ele>304.20001</ele>
        <time>2010-01-01T01:53:33Z</time>
      </trkpt>
      <trkpt lat="63.54988500" lon="-19.4938297">
        <ele>304.20001</ele>
        <time>2010-01-01T01:53:36Z</time>
      </trkpt>
      <trkpt lat="63.54984460" lon="-19.4938172">
        <ele>303.79998</ele>
        <time>2010-01-01T01:53:37Z</time>
      </trkpt>
      <trkpt lat="63.54982160" lon="-19.4938269">
        <ele>303.39999</ele>
        <time>2010-01-01T01:53:38Z</time>
      </trkpt>
      <trkpt lat="63.54979170" lon="-19.4938332">
        <ele>303.00000</ele>
        <time>2010-01-01T01:53:39Z</time>
      </trkpt>
      <trkpt lat="63.54976330" lon="-19.4938472">
        <ele>302.60000</ele>
        <time>2010-01-01T01:53:40Z</time>
      </trkpt>
      <trkpt lat="63.54974390" lon="-19.4938682">
        <ele>302.20001</ele>
        <time>2010-01-01T01:53:41Z</time>
      </trkpt>
      <trkpt lat="63.54969560" lon="-19.4939213">
        <ele>302.00000</ele>
        <time>2010-01-01T01:53:43Z</time>
      </trkpt>
      <trkpt lat="63.54968420" lon="-19.4939300">
        <ele>302.20001</ele>
        <time>2010-01-01T01:53:44Z</time>
      </trkpt>
      <trkpt lat="63.54965770" lon="-19.4939627">
        <ele>301.79998</ele>
        <time>2010-01-01T01:53:45Z</time>
      </trkpt>
      <trkpt lat="63.54963120" lon="-19.4939546">
        <ele>301.39999</ele>
        <time>2010-01-01T01:53:46Z</time>
      </trkpt>
      <trkpt lat="63.54960420" lon="-19.4939463">
        <ele>301.00000</ele>
        <time>2010-01-01T01:53:47Z</time>
      </trkpt>
      <trkpt lat="63.54958290" lon="-19.4939387">
        <ele>300.39999</ele>
        <time>2010-01-01T01:53:48Z</time>
      </trkpt>
      <trkpt lat="63.54956390" lon="-19.4939380">
        <ele>300.00000</ele>
        <time>2010-01-01T01:53:49Z</time>
      </trkpt>
      <trkpt lat="63.54953420" lon="-19.4939264">
        <ele>299.79998</ele>
        <time>2010-01-01T01:53:50Z</time>
      </trkpt>
      <trkpt lat="63.54951530" lon="-19.4939158">
        <ele>299.79998</ele>
        <time>2010-01-01T01:53:51Z</time>
      </trkpt>
      <trkpt lat="63.54949240" lon="-19.4939134">
        <ele>300.00000</ele>
        <time>2010-01-01T01:53:52Z</time>
      </trkpt>
      <trkpt lat="63.54946950" lon="-19.4939208">
        <ele>300.00000</ele>
        <time>2010-01-01T01:53:53Z</time>
      </trkpt>
      <trkpt lat="63.54944430" lon="-19.4939235">
        <ele>300.00000</ele>
        <time>2010-01-01T01:53:54Z</time>
      </trkpt>
      <trkpt lat="63.54942010" lon="-19.4939338">
        <ele>299.79998</ele>
        <time>2010-01-01T01:53:55Z</time>
      </trkpt>
      <trkpt lat="63.54940410" lon="-19.4939388">
        <ele>300.00000</ele>
        <time>2010-01-01T01:53:55Z</time>
      </trkpt>
      <trkpt lat="63.54938860" lon="-19.4939673">
        <ele>299.79998</ele>
        <time>2010-01-01T01:53:56Z</time>
      </trkpt>
      <trkpt lat="63.54938740" lon="-19.4940043">
        <ele>299.79998</ele>
        <time>2010-01-01T01:53:57Z</time>
      </trkpt>
      <trkpt lat="63.54938520" lon="-19.4940179">
        <ele>299.79998</ele>
        <time>2010-01-01T01:53:57Z</time>
      </trkpt>
      <trkpt lat="63.54938090" lon="-19.4940546">
        <ele>299.79998</ele>
        <time>2010-01-01T01:53:58Z</time>
      </trkpt>
      <trkpt lat="63.54936520" lon="-19.4940693">
        <ele>299.79998</ele>
        <time>2010-01-01T01:53:59Z</time>
      </trkpt>
      <trkpt lat="63.54934560" lon="-19.4940999">
        <ele>300.00000</ele>
        <time>2010-01-01T01:53:59Z</time>
      </trkpt>
      <trkpt lat="63.54930720" lon="-19.4940992">
        <ele>299.79998</ele>
        <time>2010-01-01T01:54:01Z</time>
      </trkpt>
      <trkpt lat="63.54927440" lon="-19.4941119">
        <ele>299.79998</ele>
        <time>2010-01-01T01:54:02Z</time>
      </trkpt>
      <trkpt lat="63.54924490" lon="-19.4941208">
        <ele>299.39999</ele>
        <time>2010-01-01T01:54:04Z</time>
      </trkpt>
      <trkpt lat="63.54921910" lon="-19.4941276">
        <ele>299.00000</ele>
        <time>2010-01-01T01:54:05Z</time>
      </trkpt>
      <trkpt lat="63.54919270" lon="-19.4941467">
        <ele>298.39999</ele>
        <time>2010-01-01T01:54:06Z</time>
      </trkpt>
      <trkpt lat="63.54916210" lon="-19.4941518">
        <ele>298.00000</ele>
        <time>2010-01-01T01:54:07Z</time>
      </trkpt>
      <trkpt lat="63.54913630" lon="-19.4941702">
        <ele>297.79998</ele>
        <time>2010-01-01T01:54:08Z</time>
      </trkpt>
      <trkpt lat="63.54911160" lon="-19.4941869">
        <ele>297.60000</ele>
        <time>2010-01-01T01:54:09Z</time>
      </trkpt>
      <trkpt lat="63.54908240" lon="-19.4941983">
        <ele>297.20001</ele>
        <time>2010-01-01T01:54:10Z</time>
      </trkpt>
      <trkpt lat="63.54905130" lon="-19.4942234">
        <ele>296.79998</ele>
        <time>2010-01-01T01:54:12Z</time>
      </trkpt>
      <trkpt lat="63.54901390" lon="-19.4942415">
        <ele>296.20001</ele>
        <time>2010-01-01T01:54:13Z</time>
      </trkpt>
      <trkpt lat="63.54899020" lon="-19.4942679">
        <ele>296.00000</ele>
        <time>2010-01-01T01:54:14Z</time>
      </trkpt>
      <trkpt lat="63.54897400" lon="-19.4943366">
        <ele>295.79998</ele>
        <time>2010-01-01T01:54:16Z</time>
      </trkpt>
      <trkpt lat="63.54897420" lon="-19.4943858">
        <ele>295.60000</ele>
        <time>2010-01-01T01:54:16Z</time>
      </trkpt>
      <trkpt lat="63.54896830" lon="-19.4944666">
        <ele>295.20001</ele>
        <time>2010-01-01T01:54:18Z</time>
      </trkpt>
      <trkpt lat="63.54895180" lon="-19.4945275">
        <ele>294.79998</ele>
        <time>2010-01-01T01:54:19Z</time>
      </trkpt>
      <trkpt lat="63.54892860" lon="-19.4945743">
        <ele>294.39999</ele>
        <time>2010-01-01T01:54:20Z</time>
      </trkpt>
      <trkpt lat="63.54890090" lon="-19.4946208">
        <ele>294.00000</ele>
        <time>2010-01-01T01:54:22Z</time>
      </trkpt>
      <trkpt lat="63.54887940" lon="-19.4946304">
        <ele>293.79998</ele>
        <time>2010-01-01T01:54:23Z</time>
      </trkpt>
      <trkpt lat="63.54885790" lon="-19.4946564">
        <ele>293.79998</ele>
        <time>2010-01-01T01:54:24Z</time>
      </trkpt>
      <trkpt lat="63.54882020" lon="-19.4947191">
        <ele>293.79998</ele>
        <time>2010-01-01T01:54:25Z</time>
      </trkpt>
      <trkpt lat="63.54877830" lon="-19.4946956">
        <ele>293.60000</ele>
        <time>2010-01-01T01:54:27Z</time>
      </trkpt>
      <trkpt lat="63.54875770" lon="-19.4946661">
        <ele>293.60000</ele>
        <time>2010-01-01T01:54:28Z</time>
      </trkpt>
      <trkpt lat="63.54871410" lon="-19.4946539">
        <ele>293.60000</ele>
        <time>2010-01-01T01:54:30Z</time>
      </trkpt>
      <trkpt lat="63.54867860" lon="-19.4946495">
        <ele>293.00000</ele>
        <time>2010-01-01T01:54:31Z</time>
      </trkpt>
      <trkpt lat="63.54865120" lon="-19.4946576">
        <ele>292.60000</ele>
        <time>2010-01-01T01:54:32Z</time>
      </trkpt>
      <trkpt lat="63.54862420" lon="-19.4946849">
        <ele>292.20001</ele>
        <time>2010-01-01T01:54:34Z</time>
      </trkpt>
      <trkpt lat="63.54860730" lon="-19.4947180">
        <ele>291.79998</ele>
        <time>2010-01-01T01:54:35Z</time>
      </trkpt>
      <trkpt lat="63.54859400" lon="-19.4947477">
        <ele>291.39999</ele>
        <time>2010-01-01T01:54:35Z</time>
      </trkpt>
      <trkpt lat="63.54857060" lon="-19.4947667">
        <ele>291.39999</ele>
        <time>2010-01-01T01:54:36Z</time>
      </trkpt>
      <trkpt lat="63.54855870" lon="-19.4947899">
        <ele>291.39999</ele>
        <time>2010-01-01T01:54:37Z</time>
      </trkpt>
      <trkpt lat="63.54854740" lon="-19.4948333">
        <ele>291.20001</ele>
        <time>2010-01-01T01:54:38Z</time>
      </trkpt>
      <trkpt lat="63.54853290" lon="-19.4948629">
        <ele>290.60000</ele>
        <time>2010-01-01T01:54:39Z</time>
      </trkpt>
      <trkpt lat="63.54851420" lon="-19.4948832">
        <ele>290.20001</ele>
        <time>2010-01-01T01:54:39Z</time>
      </trkpt>
      <trkpt lat="63.54850060" lon="-19.4949049">
        <ele>289.79998</ele>
        <time>2010-01-01T01:54:40Z</time>
      </trkpt>
      <trkpt lat="63.54848270" lon="-19.4949438">
        <ele>289.39999</ele>
        <time>2010-01-01T01:54:41Z</time>
      </trkpt>
      <trkpt lat="63.54847100" lon="-19.4949778">
        <ele>289.00000</ele>
        <time>2010-01-01T01:54:42Z</time>
      </trkpt>
      <trkpt lat="63.54845150" lon="-19.4950214">
        <ele>288.60000</ele>
        <time>2010-01-01T01:54:43Z</time>
      </trkpt>
      <trkpt lat="63.54842310" lon="-19.4950468">
        <ele>288.20001</ele>
        <time>2010-01-01T01:54:44Z</time>
      </trkpt>
      <trkpt lat="63.54839620" lon="-19.4950641">
        <ele>287.60000</ele>
        <time>2010-01-01T01:54:45Z</time>
      </trkpt>
      <trkpt lat="63.54836920" lon="-19.4950895">
        <ele>287.20001</ele>
        <time>2010-01-01T01:54:47Z</time>
      </trkpt>
      <trkpt lat="63.54833970" lon="-19.4951044">
        <ele>286.39999</ele>
        <time>2010-01-01T01:54:48Z</time>
      </trkpt>
      <trkpt lat="63.54830870" lon="-19.4951283">
        <ele>285.79998</ele>
        <time>2010-01-01T01:54:49Z</time>
      </trkpt>
      <trkpt lat="63.54828770" lon="-19.4951685">
        <ele>285.20001</ele>
        <time>2010-01-01T01:54:50Z</time>
      </trkpt>
      <trkpt lat="63.54825290" lon="-19.4951748">
        <ele>284.39999</ele>
        <time>2010-01-01T01:54:52Z</time>
      </trkpt>
      <trkpt lat="63.54823200" lon="-19.4952072">
        <ele>283.60000</ele>
        <time>2010-01-01T01:54:53Z</time>
      </trkpt>
      <trkpt lat="63.54821040" lon="-19.4952101">
        <ele>283.00000</ele>
        <time>2010-01-01T01:54:53Z</time>
      </trkpt>
      <trkpt lat="63.54818270" lon="-19.4952266">
        <ele>282.60000</ele>
        <time>2010-01-01T01:54:55Z</time>
      </trkpt>
      <trkpt lat="63.54816080" lon="-19.4952328">
        <ele>282.20001</ele>
        <time>2010-01-01T01:54:55Z</time>
      </trkpt>
      <trkpt lat="63.54813540" lon="-19.4952495">
        <ele>282.00000</ele>
        <time>2010-01-01T01:54:57Z</time>
      </trkpt>
      <trkpt lat="63.54811990" lon="-19.4952862">
        <ele>281.79998</ele>
        <time>2010-01-01T01:54:57Z</time>
      </trkpt>
      <trkpt lat="63.54809140" lon="-19.4952918">
        <ele>281.39999</ele>
        <time>2010-01-01T01:54:59Z</time>
      </trkpt>
      <trkpt lat="63.54806840" lon="-19.4952566">
        <ele>281.00000</ele>
        <time>2010-01-01T01:55:00Z</time>
      </trkpt>
      <trkpt lat="63.54804530" lon="-19.4952564">
        <ele>280.39999</ele>
        <time>2010-01-01T01:55:01Z</time>
      </trkpt>
      <trkpt lat="63.54802210" lon="-19.4952797">
        <ele>280.00000</ele>
        <time>2010-01-01T01:55:02Z</time>
      </trkpt>
      <trkpt lat="63.54800150" lon="-19.4953151">
        <ele>279.39999</ele>
        <time>2010-01-01T01:55:03Z</time>
      </trkpt>
      <trkpt lat="63.54796570" lon="-19.4953303">
        <ele>278.60000</ele>
        <time>2010-01-01T01:55:04Z</time>
      </trkpt>
      <trkpt lat="63.54794640" lon="-19.4953519">
        <ele>278.00000</ele>
        <time>2010-01-01T01:55:05Z</time>
      </trkpt>
      <trkpt lat="63.54791990" lon="-19.4953913">
        <ele>277.00000</ele>
        <time>2010-01-01T01:55:06Z</time>
      </trkpt>
      <trkpt lat="63.54789350" lon="-19.4954209">
        <ele>276.39999</ele>
        <time>2010-01-01T01:55:07Z</time>
      </trkpt>
      <trkpt lat="63.54786030" lon="-19.4954076">
        <ele>275.79998</ele>
        <time>2010-01-01T01:55:09Z</time>
      </trkpt>
      <trkpt lat="63.54783010" lon="-19.4954245">
        <ele>275.00000</ele>
        <time>2010-01-01T01:55:10Z</time>
      </trkpt>
      <trkpt lat="63.54780440" lon="-19.4954441">
        <ele>274.39999</ele>
        <time>2010-01-01T01:55:11Z</time>
      </trkpt>
      <trkpt lat="63.54778100" lon="-19.4954777">
        <ele>273.79998</ele>
        <time>2010-01-01T01:55:12Z</time>
      </trkpt>
      <trkpt lat="63.54775380" lon="-19.4955042">
        <ele>273.60000</ele>
        <time>2010-01-01T01:55:13Z</time>
      </trkpt>
      <trkpt lat="63.54772840" lon="-19.4955391">
        <ele>273.20001</ele>
        <time>2010-01-01T01:55:15Z</time>
      </trkpt>
      <trkpt lat="63.54769970" lon="-19.4955646">
        <ele>272.60000</ele>
        <time>2010-01-01T01:55:16Z</time>
      </trkpt>
      <trkpt lat="63.54767080" lon="-19.4955609">
        <ele>272.20001</ele>
        <time>2010-01-01T01:55:17Z</time>
      </trkpt>
      <trkpt lat="63.54763870" lon="-19.4955801">
        <ele>271.60000</ele>
        <time>2010-01-01T01:55:18Z</time>
      </trkpt>
      <trkpt lat="63.54761100" lon="-19.4955837">
        <ele>271.39999</ele>
        <time>2010-01-01T01:55:19Z</time>
      </trkpt>
      <trkpt lat="63.54758890" lon="-19.4955798">
        <ele>270.79998</ele>
        <time>2010-01-01T01:55:20Z</time>
      </trkpt>
      <trkpt lat="63.54756510" lon="-19.4955824">
        <ele>270.39999</ele>
        <time>2010-01-01T01:55:21Z</time>
      </trkpt>
      <trkpt lat="63.54753450" lon="-19.4956078">
        <ele>270.20001</ele>
        <time>2010-01-01T01:55:23Z</time>
      </trkpt>
      <trkpt lat="63.54751010" lon="-19.4956089">
        <ele>269.79998</ele>
        <time>2010-01-01T01:55:24Z</time>
      </trkpt>
      <trkpt lat="63.54747950" lon="-19.4956224">
        <ele>269.20001</ele>
        <time>2010-01-01T01:55:25Z</time>
      </trkpt>
      <trkpt lat="63.54745840" lon="-19.4956306">
        <ele>268.79998</ele>
        <time>2010-01-01T01:55:26Z</time>
      </trkpt>
      <trkpt lat="63.54743690" lon="-19.4956578">
        <ele>268.20001</ele>
        <time>2010-01-01T01:55:27Z</time>
      </trkpt>
      <trkpt lat="63.54741750" lon="-19.4956820">
        <ele>267.60000</ele>
        <time>2010-01-01T01:55:28Z</time>
      </trkpt>
      <trkpt lat="63.54739210" lon="-19.4957194">
        <ele>267.00000</ele>
        <time>2010-01-01T01:55:29Z</time>
      </trkpt>
      <trkpt lat="63.54737350" lon="-19.4957689">
        <ele>266.39999</ele>
        <time>2010-01-01T01:55:30Z</time>
      </trkpt>
      <trkpt lat="63.54735440" lon="-19.4958060">
        <ele>266.00000</ele>
        <time>2010-01-01T01:55:31Z</time>
      </trkpt>
      <trkpt lat="63.54730890" lon="-19.4958192">
        <ele>265.39999</ele>
        <time>2010-01-01T01:55:33Z</time>
      </trkpt>
      <trkpt lat="63.54728360" lon="-19.4958386">
        <ele>265.00000</ele>
        <time>2010-01-01T01:55:34Z</time>
      </trkpt>
      <trkpt lat="63.54725570" lon="-19.4958903">
        <ele>264.60000</ele>
        <time>2010-01-01T01:55:35Z</time>
      </trkpt>
      <trkpt lat="63.54723270" lon="-19.4959520">
        <ele>264.00000</ele>
        <time>2010-01-01T01:55:37Z</time>
      </trkpt>
      <trkpt lat="63.54720930" lon="-19.4960023">
        <ele>263.39999</ele>
        <time>2010-01-01T01:55:38Z</time>
      </trkpt>
      <trkpt lat="63.54718810" lon="-19.4960566">
        <ele>262.79998</ele>
        <time>2010-01-01T01:55:39Z</time>
      </trkpt>
      <trkpt lat="63.54717380" lon="-19.4961071">
        <ele>262.39999</ele>
        <time>2010-01-01T01:55:40Z</time>
      </trkpt>
      <trkpt lat="63.54715890" lon="-19.4961675">
        <ele>262.00000</ele>
        <time>2010-01-01T01:55:42Z</time>
      </trkpt>
      <trkpt lat="63.54714650" lon="-19.4962361">
        <ele>261.39999</ele>
        <time>2010-01-01T01:55:43Z</time>
      </trkpt>
      <trkpt lat="63.54713860" lon="-19.4962853">
        <ele>260.60000</ele>
        <time>2010-01-01T01:55:44Z</time>
      </trkpt>
      <trkpt lat="63.54713520" lon="-19.4963427">
        <ele>260.20001</ele>
        <time>2010-01-01T01:55:45Z</time>
      </trkpt>
      <trkpt lat="63.54712590" lon="-19.4963841">
        <ele>259.79998</ele>
        <time>2010-01-01T01:55:46Z</time>
      </trkpt>
      <trkpt lat="63.54710570" lon="-19.4964431">
        <ele>259.60000</ele>
        <time>2010-01-01T01:55:47Z</time>
      </trkpt>
      <trkpt lat="63.54707240" lon="-19.4964603">
        <ele>259.00000</ele>
        <time>2010-01-01T01:55:48Z</time>
      </trkpt>
      <trkpt lat="63.54705000" lon="-19.4964664">
        <ele>258.79998</ele>
        <time>2010-01-01T01:55:49Z</time>
      </trkpt>
      <trkpt lat="63.54701560" lon="-19.4964314">
        <ele>258.20001</ele>
        <time>2010-01-01T01:55:51Z</time>
      </trkpt>
      <trkpt lat="63.54699200" lon="-19.4964056">
        <ele>258.00000</ele>
        <time>2010-01-01T01:55:52Z</time>
      </trkpt>
      <trkpt lat="63.54694120" lon="-19.4963895">
        <ele>257.39999</ele>
        <time>2010-01-01T01:55:54Z</time>
      </trkpt>
      <trkpt lat="63.54690450" lon="-19.4963803">
        <ele>256.60000</ele>
        <time>2010-01-01T01:55:55Z</time>
      </trkpt>
      <trkpt lat="63.54687820" lon="-19.4963633">
        <ele>256.00000</ele>
        <time>2010-01-01T01:55:56Z</time>
      </trkpt>
      <trkpt lat="63.54684770" lon="-19.4963720">
        <ele>255.39999</ele>
        <time>2010-01-01T01:55:58Z</time>
      </trkpt>
      <trkpt lat="63.54682760" lon="-19.4963892">
        <ele>255.00000</ele>
        <time>2010-01-01T01:55:59Z</time>
      </trkpt>
      <trkpt lat="63.54680380" lon="-19.4964095">
        <ele>254.60000</ele>
        <time>2010-01-01T01:56:00Z</time>
      </trkpt>
      <trkpt lat="63.54677810" lon="-19.4964323">
        <ele>254.00000</ele>
        <time>2010-01-01T01:56:01Z</time>
      </trkpt>
      <trkpt lat="63.54674860" lon="-19.4964419">
        <ele>253.60000</ele>
        <time>2010-01-01T01:56:02Z</time>
      </trkpt>
      <trkpt lat="63.54672540" lon="-19.4964556">
        <ele>253.19999</ele>
        <time>2010-01-01T01:56:03Z</time>
      </trkpt>
      <trkpt lat="63.54670520" lon="-19.4964444">
        <ele>253.00000</ele>
        <time>2010-01-01T01:56:04Z</time>
      </trkpt>
      <trkpt lat="63.54667310" lon="-19.4964499">
        <ele>252.60000</ele>
        <time>2010-01-01T01:56:05Z</time>
      </trkpt>
      <trkpt lat="63.54664480" lon="-19.4964540">
        <ele>252.00000</ele>
        <time>2010-01-01T01:56:06Z</time>
      </trkpt>
      <trkpt lat="63.54662100" lon="-19.4964457">
        <ele>251.60000</ele>
        <time>2010-01-01T01:56:07Z</time>
      </trkpt>
      <trkpt lat="63.54659750" lon="-19.4964352">
        <ele>251.00000</ele>
        <time>2010-01-01T01:56:08Z</time>
      </trkpt>
      <trkpt lat="63.54657670" lon="-19.4964428">
        <ele>250.60000</ele>
        <time>2010-01-01T01:56:09Z</time>
      </trkpt>
      <trkpt lat="63.54654070" lon="-19.4964534">
        <ele>250.00000</ele>
        <time>2010-01-01T01:56:10Z</time>
      </trkpt>
      <trkpt lat="63.54651870" lon="-19.4964310">
        <ele>249.39999</ele>
        <time>2010-01-01T01:56:11Z</time>
      </trkpt>
      <trkpt lat="63.54648390" lon="-19.4963790">
        <ele>249.00000</ele>
        <time>2010-01-01T01:56:13Z</time>
      </trkpt>
      <trkpt lat="63.54645690" lon="-19.4963859">
        <ele>249.00000</ele>
        <time>2010-01-01T01:56:14Z</time>
      </trkpt>
      <trkpt lat="63.54643040" lon="-19.4964163">
        <ele>248.60000</ele>
        <time>2010-01-01T01:56:15Z</time>
      </trkpt>
      <trkpt lat="63.54641440" lon="-19.4964475">
        <ele>248.19999</ele>
        <time>2010-01-01T01:56:16Z</time>
      </trkpt>
      <trkpt lat="63.54638700" lon="-19.4964841">
        <ele>247.80000</ele>
        <time>2010-01-01T01:56:17Z</time>
      </trkpt>
      <trkpt lat="63.54636540" lon="-19.4965423">
        <ele>247.39999</ele>
        <time>2010-01-01T01:56:19Z</time>
      </trkpt>
      <trkpt lat="63.54633950" lon="-19.4965955">
        <ele>247.00000</ele>
        <time>2010-01-01T01:56:20Z</time>
      </trkpt>
      <trkpt lat="63.54631340" lon="-19.4966174">
        <ele>246.80000</ele>
        <time>2010-01-01T01:56:21Z</time>
      </trkpt>
      <trkpt lat="63.54628610" lon="-19.4966519">
        <ele>246.80000</ele>
        <time>2010-01-01T01:56:23Z</time>
      </trkpt>
      <trkpt lat="63.54625090" lon="-19.4966404">
        <ele>246.80000</ele>
        <time>2010-01-01T01:56:24Z</time>
      </trkpt>
      <trkpt lat="63.54621900" lon="-19.4966563">
        <ele>246.80000</ele>
        <time>2010-01-01T01:56:25Z</time>
      </trkpt>
      <trkpt lat="63.54619190" lon="-19.4966900">
        <ele>246.60000</ele>
        <time>2010-01-01T01:56:26Z</time>
      </trkpt>
      <trkpt lat="63.54617030" lon="-19.4967356">
        <ele>246.19999</ele>
        <time>2010-01-01T01:56:28Z</time>
      </trkpt>
      <trkpt lat="63.54613380" lon="-19.4967510">
        <ele>245.80000</ele>
        <time>2010-01-01T01:56:29Z</time>
      </trkpt>
      <trkpt lat="63.54609910" lon="-19.4967584">
        <ele>245.39999</ele>
        <time>2010-01-01T01:56:31Z</time>
      </trkpt>
      <trkpt lat="63.54606830" lon="-19.4967650">
        <ele>245.00000</ele>
        <time>2010-01-01T01:56:32Z</time>
      </trkpt>
      <trkpt lat="63.54603020" lon="-19.4967615">
        <ele>244.80000</ele>
        <time>2010-01-01T01:56:33Z</time>
      </trkpt>
      <trkpt lat="63.54600380" lon="-19.4967839">
        <ele>244.80000</ele>
        <time>2010-01-01T01:56:34Z</time>
      </trkpt>
      <trkpt lat="63.54597220" lon="-19.4967982">
        <ele>244.80000</ele>
        <time>2010-01-01T01:56:36Z</time>
      </trkpt>
      <trkpt lat="63.54594060" lon="-19.4968107">
        <ele>244.80000</ele>
        <time>2010-01-01T01:56:37Z</time>
      </trkpt>
      <trkpt lat="63.54590990" lon="-19.4968236">
        <ele>244.80000</ele>
        <time>2010-01-01T01:56:38Z</time>
      </trkpt>
      <trkpt lat="63.54587790" lon="-19.4968226">
        <ele>244.39999</ele>
        <time>2010-01-01T01:56:40Z</time>
      </trkpt>
      <trkpt lat="63.54584780" lon="-19.4968220">
        <ele>244.19999</ele>
        <time>2010-01-01T01:56:41Z</time>
      </trkpt>
      <trkpt lat="63.54580890" lon="-19.4968530">
        <ele>243.80000</ele>
        <time>2010-01-01T01:56:42Z</time>
      </trkpt>
      <trkpt lat="63.54578180" lon="-19.4968956">
        <ele>243.39999</ele>
        <time>2010-01-01T01:56:44Z</time>
      </trkpt>
      <trkpt lat="63.54575110" lon="-19.4969143">
        <ele>243.00000</ele>
        <time>2010-01-01T01:56:45Z</time>
      </trkpt>
      <trkpt lat="63.54573570" lon="-19.4969525">
        <ele>242.80000</ele>
        <time>2010-01-01T01:56:46Z</time>
      </trkpt>
      <trkpt lat="63.54571410" lon="-19.4969958">
        <ele>242.80000</ele>
        <time>2010-01-01T01:56:47Z</time>
      </trkpt>
      <trkpt lat="63.54569410" lon="-19.4970451">
        <ele>242.80000</ele>
        <time>2010-01-01T01:56:48Z</time>
      </trkpt>
      <trkpt lat="63.54567100" lon="-19.4970698">
        <ele>242.80000</ele>
        <time>2010-01-01T01:56:49Z</time>
      </trkpt>
      <trkpt lat="63.54564010" lon="-19.4970862">
        <ele>242.80000</ele>
        <time>2010-01-01T01:56:51Z</time>
      </trkpt>
      <trkpt lat="63.54558070" lon="-19.4971909">
        <ele>242.80000</ele>
        <time>2010-01-01T01:56:54Z</time>
      </trkpt>
      <trkpt lat="63.54544320" lon="-19.4973431">
        <ele>242.80000</ele>
        <time>2010-01-01T01:57:00Z</time>
      </trkpt>
      <trkpt lat="63.54542250" lon="-19.4973313">
        <ele>242.39999</ele>
        <time>2010-01-01T01:57:01Z</time>
      </trkpt>
      <trkpt lat="63.54538690" lon="-19.4973456">
        <ele>242.00000</ele>
        <time>2010-01-01T01:57:02Z</time>
      </trkpt>
      <trkpt lat="63.54534940" lon="-19.4973423">
        <ele>241.60000</ele>
        <time>2010-01-01T01:57:04Z</time>
      </trkpt>
      <trkpt lat="63.54531960" lon="-19.4973206">
        <ele>241.19999</ele>
        <time>2010-01-01T01:57:05Z</time>
      </trkpt>
      <trkpt lat="63.54528110" lon="-19.4972997">
        <ele>240.80000</ele>
        <time>2010-01-01T01:57:06Z</time>
      </trkpt>
      <trkpt lat="63.54521460" lon="-19.4972274">
        <ele>240.60000</ele>
        <time>2010-01-01T01:57:09Z</time>
      </trkpt>
      <trkpt lat="63.54519000" lon="-19.4972271">
        <ele>240.19999</ele>
        <time>2010-01-01T01:57:10Z</time>
      </trkpt>
      <trkpt lat="63.54515040" lon="-19.4972238">
        <ele>239.80000</ele>
        <time>2010-01-01T01:57:12Z</time>
      </trkpt>
      <trkpt lat="63.54511850" lon="-19.4972091">
        <ele>239.39999</ele>
        <time>2010-01-01T01:57:13Z</time>
      </trkpt>
      <trkpt lat="63.54509080" lon="-19.4972241">
        <ele>239.00000</ele>
        <time>2010-01-01T01:57:14Z</time>
      </trkpt>
      <trkpt lat="63.54505530" lon="-19.4972240">
        <ele>238.80000</ele>
        <time>2010-01-01T01:57:16Z</time>
      </trkpt>
      <trkpt lat="63.54503200" lon="-19.4972335">
        <ele>238.80000</ele>
        <time>2010-01-01T01:57:17Z</time>
      </trkpt>
      <trkpt lat="63.54499940" lon="-19.4972584">
        <ele>238.80000</ele>
        <time>2010-01-01T01:57:18Z</time>
      </trkpt>
      <trkpt lat="63.54497420" lon="-19.4972655">
        <ele>238.60000</ele>
        <time>2010-01-01T01:57:19Z</time>
      </trkpt>
      <trkpt lat="63.54494390" lon="-19.4972758">
        <ele>238.80000</ele>
        <time>2010-01-01T01:57:20Z</time>
      </trkpt>
      <trkpt lat="63.54491040" lon="-19.4972915">
        <ele>238.60000</ele>
        <time>2010-01-01T01:57:22Z</time>
      </trkpt>
      <trkpt lat="63.54488490" lon="-19.4973338">
        <ele>238.19999</ele>
        <time>2010-01-01T01:57:23Z</time>
      </trkpt>
      <trkpt lat="63.54484900" lon="-19.4973718">
        <ele>237.80000</ele>
        <time>2010-01-01T01:57:25Z</time>
      </trkpt>
      <trkpt lat="63.54481880" lon="-19.4974193">
        <ele>237.39999</ele>
        <time>2010-01-01T01:57:26Z</time>
      </trkpt>
      <trkpt lat="63.54480380" lon="-19.4974719">
        <ele>237.00000</ele>
        <time>2010-01-01T01:57:27Z</time>
      </trkpt>
      <trkpt lat="63.54477880" lon="-19.4975030">
        <ele>236.39999</ele>
        <time>2010-01-01T01:57:28Z</time>
      </trkpt>
      <trkpt lat="63.54475740" lon="-19.4975476">
        <ele>235.60000</ele>
        <time>2010-01-01T01:57:29Z</time>
      </trkpt>
      <trkpt lat="63.54473050" lon="-19.4975846">
        <ele>235.19999</ele>
        <time>2010-01-01T01:57:31Z</time>
      </trkpt>
      <trkpt lat="63.54470430" lon="-19.4976140">
        <ele>234.39999</ele>
        <time>2010-01-01T01:57:32Z</time>
      </trkpt>
      <trkpt lat="63.54468550" lon="-19.4976343">
        <ele>234.19999</ele>
        <time>2010-01-01T01:57:33Z</time>
      </trkpt>
      <trkpt lat="63.54465540" lon="-19.4976234">
        <ele>233.80000</ele>
        <time>2010-01-01T01:57:34Z</time>
      </trkpt>
      <trkpt lat="63.54463690" lon="-19.4976233">
        <ele>233.39999</ele>
        <time>2010-01-01T01:57:35Z</time>
      </trkpt>
      <trkpt lat="63.54461630" lon="-19.4976259">
        <ele>233.00000</ele>
        <time>2010-01-01T01:57:36Z</time>
      </trkpt>
      <trkpt lat="63.54458500" lon="-19.4976347">
        <ele>232.60000</ele>
        <time>2010-01-01T01:57:37Z</time>
      </trkpt>
      <trkpt lat="63.54455900" lon="-19.4976374">
        <ele>232.19999</ele>
        <time>2010-01-01T01:57:38Z</time>
      </trkpt>
      <trkpt lat="63.54452970" lon="-19.4976472">
        <ele>231.60000</ele>
        <time>2010-01-01T01:57:39Z</time>
      </trkpt>
      <trkpt lat="63.54449760" lon="-19.4976783">
        <ele>231.19999</ele>
        <time>2010-01-01T01:57:40Z</time>
      </trkpt>
      <trkpt lat="63.54448610" lon="-19.4977344">
        <ele>230.80000</ele>
        <time>2010-01-01T01:57:42Z</time>
      </trkpt>
      <trkpt lat="63.54446730" lon="-19.4977995">
        <ele>230.39999</ele>
        <time>2010-01-01T01:57:43Z</time>
      </trkpt>
      <trkpt lat="63.54443740" lon="-19.4978368">
        <ele>229.80000</ele>
        <time>2010-01-01T01:57:44Z</time>
      </trkpt>
      <trkpt lat="63.54441700" lon="-19.4978771">
        <ele>229.19999</ele>
        <time>2010-01-01T01:57:45Z</time>
      </trkpt>
      <trkpt lat="63.54438310" lon="-19.4979103">
        <ele>228.39999</ele>
        <time>2010-01-01T01:57:47Z</time>
      </trkpt>
      <trkpt lat="63.54434610" lon="-19.4979260">
        <ele>227.39999</ele>
        <time>2010-01-01T01:57:48Z</time>
      </trkpt>
      <trkpt lat="63.54432220" lon="-19.4979649">
        <ele>226.60000</ele>
        <time>2010-01-01T01:57:50Z</time>
      </trkpt>
      <trkpt lat="63.54428340" lon="-19.4979998">
        <ele>226.00000</ele>
        <time>2010-01-01T01:57:51Z</time>
      </trkpt>
      <trkpt lat="63.54425450" lon="-19.4980324">
        <ele>225.60000</ele>
        <time>2010-01-01T01:57:52Z</time>
      </trkpt>
      <trkpt lat="63.54419670" lon="-19.4980840">
        <ele>225.00000</ele>
        <time>2010-01-01T01:57:55Z</time>
      </trkpt>
      <trkpt lat="63.54417890" lon="-19.4981242">
        <ele>224.60000</ele>
        <time>2010-01-01T01:57:56Z</time>
      </trkpt>
      <trkpt lat="63.54414990" lon="-19.4981735">
        <ele>224.19999</ele>
        <time>2010-01-01T01:57:57Z</time>
      </trkpt>
      <trkpt lat="63.54412600" lon="-19.4981997">
        <ele>223.80000</ele>
        <time>2010-01-01T01:57:59Z</time>
      </trkpt>
      <trkpt lat="63.54410120" lon="-19.4982376">
        <ele>223.19999</ele>
        <time>2010-01-01T01:58:00Z</time>
      </trkpt>
      <trkpt lat="63.54407790" lon="-19.4982570">
        <ele>223.19999</ele>
        <time>2010-01-01T01:58:01Z</time>
      </trkpt>
      <trkpt lat="63.54405440" lon="-19.4982896">
        <ele>223.39999</ele>
        <time>2010-01-01T01:58:02Z</time>
      </trkpt>
      <trkpt lat="63.54402480" lon="-19.4983189">
        <ele>223.39999</ele>
        <time>2010-01-01T01:58:03Z</time>
      </trkpt>
      <trkpt lat="63.54399720" lon="-19.4983606">
        <ele>223.19999</ele>
        <time>2010-01-01T01:58:04Z</time>
      </trkpt>
      <trkpt lat="63.54397320" lon="-19.4983947">
        <ele>222.60000</ele>
        <time>2010-01-01T01:58:06Z</time>
      </trkpt>
      <trkpt lat="63.54394530" lon="-19.4984297">
        <ele>222.19999</ele>
        <time>2010-01-01T01:58:07Z</time>
      </trkpt>
      <trkpt lat="63.54392480" lon="-19.4984693">
        <ele>221.80000</ele>
        <time>2010-01-01T01:58:08Z</time>
      </trkpt>
      <trkpt lat="63.54390120" lon="-19.4984881">
        <ele>221.39999</ele>
        <time>2010-01-01T01:58:09Z</time>
      </trkpt>
      <trkpt lat="63.54388640" lon="-19.4984818">
        <ele>221.00000</ele>
        <time>2010-01-01T01:58:10Z</time>
      </trkpt>
      <trkpt lat="63.54388160" lon="-19.4984667">
        <ele>221.00000</ele>
        <time>2010-01-01T01:58:10Z</time>
      </trkpt>
      <trkpt lat="63.54386610" lon="-19.4984817">
        <ele>221.00000</ele>
        <time>2010-01-01T01:58:11Z</time>
      </trkpt>
      <trkpt lat="63.54385410" lon="-19.4984607">
        <ele>220.80000</ele>
        <time>2010-01-01T01:58:11Z</time>
      </trkpt>
      <trkpt lat="63.54383520" lon="-19.4984720">
        <ele>220.60000</ele>
        <time>2010-01-01T01:58:12Z</time>
      </trkpt>
      <trkpt lat="63.54381000" lon="-19.4984606">
        <ele>219.80000</ele>
        <time>2010-01-01T01:58:13Z</time>
      </trkpt>
      <trkpt lat="63.54379250" lon="-19.4984750">
        <ele>219.60000</ele>
        <time>2010-01-01T01:58:14Z</time>
      </trkpt>
      <trkpt lat="63.54377530" lon="-19.4984743">
        <ele>219.19999</ele>
        <time>2010-01-01T01:58:14Z</time>
      </trkpt>
      <trkpt lat="63.54375470" lon="-19.4984775">
        <ele>218.60000</ele>
        <time>2010-01-01T01:58:15Z</time>
      </trkpt>
      <trkpt lat="63.54373280" lon="-19.4984823">
        <ele>218.19999</ele>
        <time>2010-01-01T01:58:16Z</time>
      </trkpt>
      <trkpt lat="63.54370070" lon="-19.4984679">
        <ele>217.80000</ele>
        <time>2010-01-01T01:58:17Z</time>
      </trkpt>
      <trkpt lat="63.54366640" lon="-19.4984597">
        <ele>217.39999</ele>
        <time>2010-01-01T01:58:19Z</time>
      </trkpt>
      <trkpt lat="63.54363170" lon="-19.4984474">
        <ele>217.00000</ele>
        <time>2010-01-01T01:58:20Z</time>
      </trkpt>
      <trkpt lat="63.54360250" lon="-19.4984416">
        <ele>216.80000</ele>
        <time>2010-01-01T01:58:21Z</time>
      </trkpt>
      <trkpt lat="63.54357550" lon="-19.4984467">
        <ele>216.80000</ele>
        <time>2010-01-01T01:58:22Z</time>
      </trkpt>
      <trkpt lat="63.54354130" lon="-19.4984485">
        <ele>216.80000</ele>
        <time>2010-01-01T01:58:24Z</time>
      </trkpt>
      <trkpt lat="63.54351630" lon="-19.4984662">
        <ele>216.80000</ele>
        <time>2010-01-01T01:58:25Z</time>
      </trkpt>
      <trkpt lat="63.54349510" lon="-19.4984930">
        <ele>216.60000</ele>
        <time>2010-01-01T01:58:26Z</time>
      </trkpt>
      <trkpt lat="63.54346680" lon="-19.4985476">
        <ele>216.80000</ele>
        <time>2010-01-01T01:58:27Z</time>
      </trkpt>
      <trkpt lat="63.54344750" lon="-19.4985916">
        <ele>216.80000</ele>
        <time>2010-01-01T01:58:28Z</time>
      </trkpt>
      <trkpt lat="63.54341610" lon="-19.4986353">
        <ele>216.60000</ele>
        <time>2010-01-01T01:58:30Z</time>
      </trkpt>
      <trkpt lat="63.54338750" lon="-19.4986840">
        <ele>216.80000</ele>
        <time>2010-01-01T01:58:31Z</time>
      </trkpt>
      <trkpt lat="63.54337340" lon="-19.4987227">
        <ele>216.80000</ele>
        <time>2010-01-01T01:58:32Z</time>
      </trkpt>
      <trkpt lat="63.54334820" lon="-19.4987961">
        <ele>216.19999</ele>
        <time>2010-01-01T01:58:34Z</time>
      </trkpt>
      <trkpt lat="63.54333400" lon="-19.4988483">
        <ele>215.80000</ele>
        <time>2010-01-01T01:58:35Z</time>
      </trkpt>
      <trkpt lat="63.54330960" lon="-19.4988956">
        <ele>215.39999</ele>
        <time>2010-01-01T01:58:36Z</time>
      </trkpt>
      <trkpt lat="63.54328600" lon="-19.4989255">
        <ele>214.60000</ele>
        <time>2010-01-01T01:58:37Z</time>
      </trkpt>
      <trkpt lat="63.54326280" lon="-19.4989621">
        <ele>214.19999</ele>
        <time>2010-01-01T01:58:39Z</time>
      </trkpt>
      <trkpt lat="63.54323880" lon="-19.4990060">
        <ele>213.60000</ele>
        <time>2010-01-01T01:58:40Z</time>
      </trkpt>
      <trkpt lat="63.54321060" lon="-19.4990554">
        <ele>213.00000</ele>
        <time>2010-01-01T01:58:41Z</time>
      </trkpt>
      <trkpt lat="63.54318880" lon="-19.4991034">
        <ele>212.60000</ele>
        <time>2010-01-01T01:58:42Z</time>
      </trkpt>
      <trkpt lat="63.54315700" lon="-19.4991587">
        <ele>212.00000</ele>
        <time>2010-01-01T01:58:44Z</time>
      </trkpt>
      <trkpt lat="63.54313340" lon="-19.4991820">
        <ele>211.19999</ele>
        <time>2010-01-01T01:58:45Z</time>
      </trkpt>
      <trkpt lat="63.54310270" lon="-19.4992358">
        <ele>210.60000</ele>
        <time>2010-01-01T01:58:47Z</time>
      </trkpt>
      <trkpt lat="63.54308210" lon="-19.4992608">
        <ele>209.80000</ele>
        <time>2010-01-01T01:58:48Z</time>
      </trkpt>
      <trkpt lat="63.54304640" lon="-19.4992536">
        <ele>209.19999</ele>
        <time>2010-01-01T01:58:49Z</time>
      </trkpt>
      <trkpt lat="63.54302280" lon="-19.4992380">
        <ele>208.39999</ele>
        <time>2010-01-01T01:58:50Z</time>
      </trkpt>
      <trkpt lat="63.54299880" lon="-19.4992141">
        <ele>207.80000</ele>
        <time>2010-01-01T01:58:51Z</time>
      </trkpt>
      <trkpt lat="63.54297710" lon="-19.4992431">
        <ele>207.00000</ele>
        <time>2010-01-01T01:58:52Z</time>
      </trkpt>
      <trkpt lat="63.54293980" lon="-19.4992410">
        <ele>206.39999</ele>
        <time>2010-01-01T01:58:54Z</time>
      </trkpt>
      <trkpt lat="63.54290070" lon="-19.4992163">
        <ele>205.80000</ele>
        <time>2010-01-01T01:58:55Z</time>
      </trkpt>
      <trkpt lat="63.54288040" lon="-19.4992323">
        <ele>205.39999</ele>
        <time>2010-01-01T01:58:56Z</time>
      </trkpt>
      <trkpt lat="63.54286490" lon="-19.4992361">
        <ele>205.19999</ele>
        <time>2010-01-01T01:58:57Z</time>
      </trkpt>
      <trkpt lat="63.54283270" lon="-19.4992698">
        <ele>204.60000</ele>
        <time>2010-01-01T01:58:58Z</time>
      </trkpt>
      <trkpt lat="63.54281280" lon="-19.4992967">
        <ele>204.19999</ele>
        <time>2010-01-01T01:58:59Z</time>
      </trkpt>
      <trkpt lat="63.54277540" lon="-19.4992887">
        <ele>204.00000</ele>
        <time>2010-01-01T01:59:00Z</time>
      </trkpt>
      <trkpt lat="63.54272320" lon="-19.4992883">
        <ele>204.00000</ele>
        <time>2010-01-01T01:59:03Z</time>
      </trkpt>
      <trkpt lat="63.54268840" lon="-19.4993090">
        <ele>204.00000</ele>
        <time>2010-01-01T01:59:04Z</time>
      </trkpt>
      <trkpt lat="63.54266730" lon="-19.4993203">
        <ele>204.00000</ele>
        <time>2010-01-01T01:59:05Z</time>
      </trkpt>
      <trkpt lat="63.54261140" lon="-19.4993700">
        <ele>204.00000</ele>
        <time>2010-01-01T01:59:07Z</time>
      </trkpt>
      <trkpt lat="63.54249790" lon="-19.4994902">
        <ele>204.00000</ele>
        <time>2010-01-01T01:59:12Z</time>
      </trkpt>
      <trkpt lat="63.54246660" lon="-19.4995084">
        <ele>203.39999</ele>
        <time>2010-01-01T01:59:14Z</time>
      </trkpt>
      <trkpt lat="63.54244100" lon="-19.4995193">
        <ele>203.00000</ele>
        <time>2010-01-01T01:59:15Z</time>
      </trkpt>
      <trkpt lat="63.54240910" lon="-19.4995074">
        <ele>202.80000</ele>
        <time>2010-01-01T01:59:16Z</time>
      </trkpt>
      <trkpt lat="63.54238090" lon="-19.4995290">
        <ele>202.39999</ele>
        <time>2010-01-01T01:59:17Z</time>
      </trkpt>
      <trkpt lat="63.54235280" lon="-19.4995486">
        <ele>202.00000</ele>
        <time>2010-01-01T01:59:18Z</time>
      </trkpt>
      <trkpt lat="63.54233180" lon="-19.4995750">
        <ele>201.60000</ele>
        <time>2010-01-01T01:59:19Z</time>
      </trkpt>
      <trkpt lat="63.54230090" lon="-19.4996066">
        <ele>201.60000</ele>
        <time>2010-01-01T01:59:21Z</time>
      </trkpt>
      <trkpt lat="63.54227240" lon="-19.4996574">
        <ele>201.19999</ele>
        <time>2010-01-01T01:59:22Z</time>
      </trkpt>
      <trkpt lat="63.54223790" lon="-19.4996801">
        <ele>200.60000</ele>
        <time>2010-01-01T01:59:24Z</time>
      </trkpt>
      <trkpt lat="63.54221050" lon="-19.4997180">
        <ele>200.19999</ele>
        <time>2010-01-01T01:59:25Z</time>
      </trkpt>
      <trkpt lat="63.54218510" lon="-19.4997427">
        <ele>199.80000</ele>
        <time>2010-01-01T01:59:26Z</time>
      </trkpt>
      <trkpt lat="63.54215570" lon="-19.4997552">
        <ele>199.80000</ele>
        <time>2010-01-01T01:59:27Z</time>
      </trkpt>
      <trkpt lat="63.54213090" lon="-19.4997757">
        <ele>199.80000</ele>
        <time>2010-01-01T01:59:28Z</time>
      </trkpt>
      <trkpt lat="63.54209920" lon="-19.4997996">
        <ele>199.60000</ele>
        <time>2010-01-01T01:59:30Z</time>
      </trkpt>
      <trkpt lat="63.54207120" lon="-19.4998239">
        <ele>199.39999</ele>
        <time>2010-01-01T01:59:31Z</time>
      </trkpt>
      <trkpt lat="63.54205660" lon="-19.4998625">
        <ele>199.39999</ele>
        <time>2010-01-01T01:59:32Z</time>
      </trkpt>
      <trkpt lat="63.54201710" lon="-19.4998848">
        <ele>199.19999</ele>
        <time>2010-01-01T01:59:33Z</time>
      </trkpt>
      <trkpt lat="63.54198240" lon="-19.4998695">
        <ele>198.80000</ele>
        <time>2010-01-01T01:59:35Z</time>
      </trkpt>
      <trkpt lat="63.54194810" lon="-19.4998456">
        <ele>198.60000</ele>
        <time>2010-01-01T01:59:36Z</time>
      </trkpt>
      <trkpt lat="63.54192030" lon="-19.4998476">
        <ele>198.19999</ele>
        <time>2010-01-01T01:59:37Z</time>
      </trkpt>
      <trkpt lat="63.54188740" lon="-19.4998368">
        <ele>197.80000</ele>
        <time>2010-01-01T01:59:39Z</time>
      </trkpt>
      <trkpt lat="63.54178930" lon="-19.4998006">
        <ele>197.80000</ele>
        <time>2010-01-01T01:59:43Z</time>
      </trkpt>
      <trkpt lat="63.54166500" lon="-19.4997486">
        <ele>197.60000</ele>
        <time>2010-01-01T01:59:48Z</time>
      </trkpt>
      <trkpt lat="63.54164010" lon="-19.4997299">
        <ele>197.19999</ele>
        <time>2010-01-01T01:59:49Z</time>
      </trkpt>
      <trkpt lat="63.54161860" lon="-19.4997692">
        <ele>196.80000</ele>
        <time>2010-01-01T01:59:50Z</time>
      </trkpt>
      <trkpt lat="63.54160140" lon="-19.4998075">
        <ele>196.39999</ele>
        <time>2010-01-01T01:59:51Z</time>
      </trkpt>
      <trkpt lat="63.54158090" lon="-19.4998123">
        <ele>196.00000</ele>
        <time>2010-01-01T01:59:52Z</time>
      </trkpt>
      <trkpt lat="63.54154520" lon="-19.4998112">
        <ele>195.60000</ele>
        <time>2010-01-01T01:59:53Z</time>
      </trkpt>
      <trkpt lat="63.54150900" lon="-19.4997856">
        <ele>195.60000</ele>
        <time>2010-01-01T01:59:55Z</time>
      </trkpt>
      <trkpt lat="63.54150230" lon="-19.4997658">
        <ele>195.60000</ele>
        <time>2010-01-01T01:59:55Z</time>
      </trkpt>
      <trkpt lat="63.54147900" lon="-19.4997415">
        <ele>195.00000</ele>
        <time>2010-01-01T01:59:56Z</time>
      </trkpt>
      <trkpt lat="63.54145190" lon="-19.4997329">
        <ele>194.60000</ele>
        <time>2010-01-01T01:59:57Z</time>
      </trkpt>
      <trkpt lat="63.54143670" lon="-19.4997443">
        <ele>194.19999</ele>
        <time>2010-01-01T01:59:58Z</time>
      </trkpt>
      <trkpt lat="63.54142790" lon="-19.4997856">
        <ele>193.60000</ele>
        <time>2010-01-01T01:59:59Z</time>
      </trkpt>
      <trkpt lat="63.54140990" lon="-19.4998335">
        <ele>193.19999</ele>
        <time>2010-01-01T02:00:00Z</time>
      </trkpt>
      <trkpt lat="63.54139530" lon="-19.4998736">
        <ele>193.19999</ele>
        <time>2010-01-01T02:00:01Z</time>
      </trkpt>
      <trkpt lat="63.54136450" lon="-19.4998928">
        <ele>193.19999</ele>
        <time>2010-01-01T02:00:02Z</time>
      </trkpt>
      <trkpt lat="63.54134440" lon="-19.4999018">
        <ele>193.19999</ele>
        <time>2010-01-01T02:00:03Z</time>
      </trkpt>
      <trkpt lat="63.54133140" lon="-19.4999185">
        <ele>193.19999</ele>
        <time>2010-01-01T02:00:03Z</time>
      </trkpt>
      <trkpt lat="63.54130070" lon="-19.4999391">
        <ele>193.39999</ele>
        <time>2010-01-01T02:00:05Z</time>
      </trkpt>
      <trkpt lat="63.54127700" lon="-19.4999565">
        <ele>193.39999</ele>
        <time>2010-01-01T02:00:06Z</time>
      </trkpt>
      <trkpt lat="63.54125000" lon="-19.4999807">
        <ele>193.39999</ele>
        <time>2010-01-01T02:00:07Z</time>
      </trkpt>
      <trkpt lat="63.54122030" lon="-19.5000132">
        <ele>193.19999</ele>
        <time>2010-01-01T02:00:08Z</time>
      </trkpt>
      <trkpt lat="63.54119500" lon="-19.5000192">
        <ele>193.19999</ele>
        <time>2010-01-01T02:00:09Z</time>
      </trkpt>
      <trkpt lat="63.54116970" lon="-19.5000088">
        <ele>193.19999</ele>
        <time>2010-01-01T02:00:10Z</time>
      </trkpt>
      <trkpt lat="63.54114470" lon="-19.5000258">
        <ele>193.19999</ele>
        <time>2010-01-01T02:00:11Z</time>
      </trkpt>
      <trkpt lat="63.54111740" lon="-19.5000369">
        <ele>193.19999</ele>
        <time>2010-01-01T02:00:12Z</time>
      </trkpt>
      <trkpt lat="63.54109300" lon="-19.5000464">
        <ele>193.19999</ele>
        <time>2010-01-01T02:00:13Z</time>
      </trkpt>
      <trkpt lat="63.54107760" lon="-19.5000736">
        <ele>193.60000</ele>
        <time>2010-01-01T02:00:14Z</time>
      </trkpt>
      <trkpt lat="63.54105790" lon="-19.5001159">
        <ele>194.00000</ele>
        <time>2010-01-01T02:00:15Z</time>
      </trkpt>
      <trkpt lat="63.54104250" lon="-19.5001402">
        <ele>194.19999</ele>
        <time>2010-01-01T02:00:16Z</time>
      </trkpt>
      <trkpt lat="63.54101900" lon="-19.5001578">
        <ele>194.60000</ele>
        <time>2010-01-01T02:00:17Z</time>
      </trkpt>
      <trkpt lat="63.54099310" lon="-19.5001945">
        <ele>195.00000</ele>
        <time>2010-01-01T02:00:18Z</time>
      </trkpt>
      <trkpt lat="63.54096670" lon="-19.5002356">
        <ele>195.19999</ele>
        <time>2010-01-01T02:00:19Z</time>
      </trkpt>
      <trkpt lat="63.54093630" lon="-19.5002550">
        <ele>195.19999</ele>
        <time>2010-01-01T02:00:21Z</time>
      </trkpt>
      <trkpt lat="63.54091330" lon="-19.5002632">
        <ele>195.19999</ele>
        <time>2010-01-01T02:00:22Z</time>
      </trkpt>
      <trkpt lat="63.54087880" lon="-19.5002606">
        <ele>195.19999</ele>
        <time>2010-01-01T02:00:23Z</time>
      </trkpt>
      <trkpt lat="63.54085360" lon="-19.5002600">
        <ele>195.19999</ele>
        <time>2010-01-01T02:00:24Z</time>
      </trkpt>
      <trkpt lat="63.54082650" lon="-19.5002574">
        <ele>195.19999</ele>
        <time>2010-01-01T02:00:25Z</time>
      </trkpt>
      <trkpt lat="63.54075360" lon="-19.5003019">
        <ele>195.19999</ele>
        <time>2010-01-01T02:00:28Z</time>
      </trkpt>
      <trkpt lat="63.54065860" lon="-19.5004419">
        <ele>195.00000</ele>
        <time>2010-01-01T02:00:33Z</time>
      </trkpt>
      <trkpt lat="63.54063210" lon="-19.5004586">
        <ele>194.60000</ele>
        <time>2010-01-01T02:00:34Z</time>
      </trkpt>
      <trkpt lat="63.54059750" lon="-19.5004556">
        <ele>194.19999</ele>
        <time>2010-01-01T02:00:35Z</time>
      </trkpt>
      <trkpt lat="63.54057640" lon="-19.5004507">
        <ele>193.80000</ele>
        <time>2010-01-01T02:00:36Z</time>
      </trkpt>
      <trkpt lat="63.54056250" lon="-19.5004606">
        <ele>193.19999</ele>
        <time>2010-01-01T02:00:37Z</time>
      </trkpt>
      <trkpt lat="63.54055070" lon="-19.5004660">
        <ele>193.00000</ele>
        <time>2010-01-01T02:00:37Z</time>
      </trkpt>
      <trkpt lat="63.54054470" lon="-19.5004765">
        <ele>193.00000</ele>
        <time>2010-01-01T02:00:37Z</time>
      </trkpt>
      <trkpt lat="63.54053840" lon="-19.5004898">
        <ele>193.00000</ele>
        <time>2010-01-01T02:00:38Z</time>
      </trkpt>
      <trkpt lat="63.54053790" lon="-19.5005067">
        <ele>192.80000</ele>
        <time>2010-01-01T02:00:38Z</time>
      </trkpt>
      <trkpt lat="63.54053230" lon="-19.5005304">
        <ele>193.00000</ele>
        <time>2010-01-01T02:00:38Z</time>
      </trkpt>
      <trkpt lat="63.54052140" lon="-19.5005314">
        <ele>193.00000</ele>
        <time>2010-01-01T02:00:39Z</time>
      </trkpt>
      <trkpt lat="63.54050930" lon="-19.5005195">
        <ele>193.00000</ele>
        <time>2010-01-01T02:00:39Z</time>
      </trkpt>
      <trkpt lat="63.54049590" lon="-19.5005172">
        <ele>192.19999</ele>
        <time>2010-01-01T02:00:40Z</time>
      </trkpt>
      <trkpt lat="63.54048800" lon="-19.5005227">
        <ele>191.80000</ele>
        <time>2010-01-01T02:00:40Z</time>
      </trkpt>
      <trkpt lat="63.54048340" lon="-19.5005289">
        <ele>191.39999</ele>
        <time>2010-01-01T02:00:41Z</time>
      </trkpt>
      <trkpt lat="63.54047350" lon="-19.5005432">
        <ele>190.80000</ele>
        <time>2010-01-01T02:00:41Z</time>
      </trkpt>
      <trkpt lat="63.54047590" lon="-19.5005558">
        <ele>190.00000</ele>
        <time>2010-01-01T02:00:41Z</time>
      </trkpt>
      <trkpt lat="63.54046050" lon="-19.5005835">
        <ele>189.39999</ele>
        <time>2010-01-01T02:00:42Z</time>
      </trkpt>
      <trkpt lat="63.54044770" lon="-19.5005845">
        <ele>188.60000</ele>
        <time>2010-01-01T02:00:43Z</time>
      </trkpt>
      <trkpt lat="63.54043090" lon="-19.5005714">
        <ele>188.60000</ele>
        <time>2010-01-01T02:00:43Z</time>
      </trkpt>
      <trkpt lat="63.54041960" lon="-19.5005793">
        <ele>188.39999</ele>
        <time>2010-01-01T02:00:44Z</time>
      </trkpt>
      <trkpt lat="63.54040620" lon="-19.5005639">
        <ele>187.80000</ele>
        <time>2010-01-01T02:00:44Z</time>
      </trkpt>
      <trkpt lat="63.54039200" lon="-19.5005600">
        <ele>187.39999</ele>
        <time>2010-01-01T02:00:45Z</time>
      </trkpt>
      <trkpt lat="63.54037450" lon="-19.5005672">
        <ele>186.80000</ele>
        <time>2010-01-01T02:00:46Z</time>
      </trkpt>
      <trkpt lat="63.54035500" lon="-19.5005780">
        <ele>186.39999</ele>
        <time>2010-01-01T02:00:46Z</time>
      </trkpt>
      <trkpt lat="63.54034770" lon="-19.5005847">
        <ele>185.80000</ele>
        <time>2010-01-01T02:00:47Z</time>
      </trkpt>
      <trkpt lat="63.54033540" lon="-19.5005846">
        <ele>185.39999</ele>
        <time>2010-01-01T02:00:47Z</time>
      </trkpt>
      <trkpt lat="63.54033320" lon="-19.5005841">
        <ele>184.39999</ele>
        <time>2010-01-01T02:00:47Z</time>
      </trkpt>
      <trkpt lat="63.54032840" lon="-19.5005927">
        <ele>183.80000</ele>
        <time>2010-01-01T02:00:48Z</time>
      </trkpt>
      <trkpt lat="63.54032260" lon="-19.5006016">
        <ele>183.39999</ele>
        <time>2010-01-01T02:00:48Z</time>
      </trkpt>
      <trkpt lat="63.54032140" lon="-19.5006076">
        <ele>182.60000</ele>
        <time>2010-01-01T02:00:48Z</time>
      </trkpt>
      <trkpt lat="63.54031040" lon="-19.5005905">
        <ele>182.60000</ele>
        <time>2010-01-01T02:00:48Z</time>
      </trkpt>
      <trkpt lat="63.54031040" lon="-19.5005901">
        <ele>182.19999</ele>
        <time>2010-01-01T02:00:48Z</time>
      </trkpt>
      <trkpt lat="63.54030610" lon="-19.5005997">
        <ele>181.80000</ele>
        <time>2010-01-01T02:00:49Z</time>
      </trkpt>
      <trkpt lat="63.54030000" lon="-19.5006151">
        <ele>181.19999</ele>
        <time>2010-01-01T02:00:49Z</time>
      </trkpt>
      <trkpt lat="63.54030040" lon="-19.5006139">
        <ele>180.80000</ele>
        <time>2010-01-01T02:00:49Z</time>
      </trkpt>
      <trkpt lat="63.54030360" lon="-19.5006516">
        <ele>180.39999</ele>
        <time>2010-01-01T02:00:50Z</time>
      </trkpt>
      <trkpt lat="63.54032020" lon="-19.5007184">
        <ele>180.39999</ele>
        <time>2010-01-01T02:00:51Z</time>
      </trkpt>
      <trkpt lat="63.54037050" lon="-19.5007559">
        <ele>180.39999</ele>
        <time>2010-01-01T02:00:53Z</time>
      </trkpt>
      <trkpt lat="63.54035900" lon="-19.5007873">
        <ele>180.39999</ele>
        <time>2010-01-01T02:00:54Z</time>
      </trkpt>
      <trkpt lat="63.54034210" lon="-19.5008312">
        <ele>180.60000</ele>
        <time>2010-01-01T02:00:55Z</time>
      </trkpt>
      <trkpt lat="63.54034140" lon="-19.5008481">
        <ele>180.80000</ele>
        <time>2010-01-01T02:00:55Z</time>
      </trkpt>
      <trkpt lat="63.54034760" lon="-19.5008657">
        <ele>181.39999</ele>
        <time>2010-01-01T02:00:56Z</time>
      </trkpt>
      <trkpt lat="63.54034710" lon="-19.5008835">
        <ele>181.60000</ele>
        <time>2010-01-01T02:00:56Z</time>
      </trkpt>
      <trkpt lat="63.54033930" lon="-19.5009034">
        <ele>182.00000</ele>
        <time>2010-01-01T02:00:57Z</time>
      </trkpt>
      <trkpt lat="63.54032610" lon="-19.5009190">
        <ele>182.39999</ele>
        <time>2010-01-01T02:00:57Z</time>
      </trkpt>
      <trkpt lat="63.54031210" lon="-19.5009288">
        <ele>182.39999</ele>
        <time>2010-01-01T02:00:58Z</time>
      </trkpt>
      <trkpt lat="63.54029380" lon="-19.5009361">
        <ele>183.00000</ele>
        <time>2010-01-01T02:00:58Z</time>
      </trkpt>
      <trkpt lat="63.54027360" lon="-19.5009458">
        <ele>183.39999</ele>
        <time>2010-01-01T02:00:59Z</time>
      </trkpt>
      <trkpt lat="63.54025200" lon="-19.5009577">
        <ele>183.80000</ele>
        <time>2010-01-01T02:01:00Z</time>
      </trkpt>
      <trkpt lat="63.54023190" lon="-19.5009653">
        <ele>184.19999</ele>
        <time>2010-01-01T02:01:01Z</time>
      </trkpt>
      <trkpt lat="63.54021750" lon="-19.5009705">
        <ele>184.39999</ele>
        <time>2010-01-01T02:01:02Z</time>
      </trkpt>
      <trkpt lat="63.54016760" lon="-19.5009963">
        <ele>184.39999</ele>
        <time>2010-01-01T02:01:04Z</time>
      </trkpt>
      <trkpt lat="63.54015000" lon="-19.5010090">
        <ele>184.39999</ele>
        <time>2010-01-01T02:01:04Z</time>
      </trkpt>
      <trkpt lat="63.54012690" lon="-19.5010237">
        <ele>184.60000</ele>
        <time>2010-01-01T02:01:05Z</time>
      </trkpt>
      <trkpt lat="63.54011990" lon="-19.5010276">
        <ele>185.00000</ele>
        <time>2010-01-01T02:01:06Z</time>
      </trkpt>
      <trkpt lat="63.54011430" lon="-19.5010352">
        <ele>185.39999</ele>
        <time>2010-01-01T02:01:06Z</time>
      </trkpt>
      <trkpt lat="63.54011080" lon="-19.5010391">
        <ele>185.80000</ele>
        <time>2010-01-01T02:01:06Z</time>
      </trkpt>
      <trkpt lat="63.54010470" lon="-19.5010490">
        <ele>186.00000</ele>
        <time>2010-01-01T02:01:06Z</time>
      </trkpt>
      <trkpt lat="63.54009830" lon="-19.5010619">
        <ele>186.19999</ele>
        <time>2010-01-01T02:01:07Z</time>
      </trkpt>
      <trkpt lat="63.54009190" lon="-19.5010698">
        <ele>186.39999</ele>
        <time>2010-01-01T02:01:07Z</time>
      </trkpt>
      <trkpt lat="63.54008620" lon="-19.5010764">
        <ele>186.60000</ele>
        <time>2010-01-01T02:01:07Z</time>
      </trkpt>
      <trkpt lat="63.54006480" lon="-19.5010770">
        <ele>187.00000</ele>
        <time>2010-01-01T02:01:08Z</time>
      </trkpt>
      <trkpt lat="63.54006060" lon="-19.5010743">
        <ele>187.19999</ele>
        <time>2010-01-01T02:01:08Z</time>
      </trkpt>
      <trkpt lat="63.54005460" lon="-19.5010723">
        <ele>187.60000</ele>
        <time>2010-01-01T02:01:09Z</time>
      </trkpt>
      <trkpt lat="63.54005210" lon="-19.5010772">
        <ele>188.00000</ele>
        <time>2010-01-01T02:01:09Z</time>
      </trkpt>
      <trkpt lat="63.54004720" lon="-19.5010846">
        <ele>188.19999</ele>
        <time>2010-01-01T02:01:09Z</time>
      </trkpt>
      <trkpt lat="63.54004330" lon="-19.5010905">
        <ele>188.60000</ele>
        <time>2010-01-01T02:01:09Z</time>
      </trkpt>
      <trkpt lat="63.54003990" lon="-19.5010946">
        <ele>189.00000</ele>
        <time>2010-01-01T02:01:09Z</time>
      </trkpt>
      <trkpt lat="63.54003550" lon="-19.5011022">
        <ele>189.39999</ele>
        <time>2010-01-01T02:01:09Z</time>
      </trkpt>
      <trkpt lat="63.54003170" lon="-19.5011126">
        <ele>189.80000</ele>
        <time>2010-01-01T02:01:10Z</time>
      </trkpt>
      <trkpt lat="63.54002600" lon="-19.5011230">
        <ele>190.19999</ele>
        <time>2010-01-01T02:01:10Z</time>
      </trkpt>
      <trkpt lat="63.54001810" lon="-19.5011365">
        <ele>190.60000</ele>
        <time>2010-01-01T02:01:10Z</time>
      </trkpt>
      <trkpt lat="63.54001010" lon="-19.5011510">
        <ele>190.80000</ele>
        <time>2010-01-01T02:01:11Z</time>
      </trkpt>
      <trkpt lat="63.54000010" lon="-19.5011453">
        <ele>190.80000</ele>
        <time>2010-01-01T02:01:11Z</time>
      </trkpt>
      <trkpt lat="63.53998960" lon="-19.5011446">
        <ele>190.80000</ele>
        <time>2010-01-01T02:01:12Z</time>
      </trkpt>
      <trkpt lat="63.53997860" lon="-19.5011457">
        <ele>190.80000</ele>
        <time>2010-01-01T02:01:12Z</time>
      </trkpt>
      <trkpt lat="63.53996970" lon="-19.5011532">
        <ele>191.00000</ele>
        <time>2010-01-01T02:01:12Z</time>
      </trkpt>
      <trkpt lat="63.53995750" lon="-19.5011628">
        <ele>191.39999</ele>
        <time>2010-01-01T02:01:13Z</time>
      </trkpt>
      <trkpt lat="63.53994620" lon="-19.5011738">
        <ele>191.80000</ele>
        <time>2010-01-01T02:01:13Z</time>
      </trkpt>
      <trkpt lat="63.53993700" lon="-19.5011871">
        <ele>192.19999</ele>
        <time>2010-01-01T02:01:14Z</time>
      </trkpt>
      <trkpt lat="63.53992770" lon="-19.5011926">
        <ele>192.60000</ele>
        <time>2010-01-01T02:01:14Z</time>
      </trkpt>
      <trkpt lat="63.53991770" lon="-19.5011963">
        <ele>192.80000</ele>
        <time>2010-01-01T02:01:15Z</time>
      </trkpt>
      <trkpt lat="63.53985460" lon="-19.5012236">
        <ele>193.00000</ele>
        <time>2010-01-01T02:01:17Z</time>
      </trkpt>
      <trkpt lat="63.53984430" lon="-19.5012265">
        <ele>193.39999</ele>
        <time>2010-01-01T02:01:18Z</time>
      </trkpt>
      <trkpt lat="63.53983330" lon="-19.5012346">
        <ele>193.80000</ele>
        <time>2010-01-01T02:01:18Z</time>
      </trkpt>
      <trkpt lat="63.53982420" lon="-19.5012451">
        <ele>194.19999</ele>
        <time>2010-01-01T02:01:19Z</time>
      </trkpt>
      <trkpt lat="63.53981380" lon="-19.5012601">
        <ele>194.60000</ele>
        <time>2010-01-01T02:01:19Z</time>
      </trkpt>
      <trkpt lat="63.53980410" lon="-19.5012764">
        <ele>194.80000</ele>
        <time>2010-01-01T02:01:20Z</time>
      </trkpt>
      <trkpt lat="63.53977880" lon="-19.5013004">
        <ele>194.80000</ele>
        <time>2010-01-01T02:01:21Z</time>
      </trkpt>
      <trkpt lat="63.53975200" lon="-19.5013087">
        <ele>194.80000</ele>
        <time>2010-01-01T02:01:22Z</time>
      </trkpt>
      <trkpt lat="63.53967280" lon="-19.5012999">
        <ele>194.80000</ele>
        <time>2010-01-01T02:01:25Z</time>
      </trkpt>
      <trkpt lat="63.53964590" lon="-19.5012950">
        <ele>194.80000</ele>
        <time>2010-01-01T02:01:26Z</time>
      </trkpt>
      <trkpt lat="63.53961980" lon="-19.5012894">
        <ele>195.19999</ele>
        <time>2010-01-01T02:01:27Z</time>
      </trkpt>
      <trkpt lat="63.53959980" lon="-19.5012811">
        <ele>195.60000</ele>
        <time>2010-01-01T02:01:28Z</time>
      </trkpt>
      <trkpt lat="63.53957730" lon="-19.5012812">
        <ele>195.80000</ele>
        <time>2010-01-01T02:01:29Z</time>
      </trkpt>
      <trkpt lat="63.53955470" lon="-19.5012869">
        <ele>196.19999</ele>
        <time>2010-01-01T02:01:30Z</time>
      </trkpt>
      <trkpt lat="63.53953420" lon="-19.5012945">
        <ele>196.60000</ele>
        <time>2010-01-01T02:01:30Z</time>
      </trkpt>
      <trkpt lat="63.53951580" lon="-19.5012957">
        <ele>197.00000</ele>
        <time>2010-01-01T02:01:31Z</time>
      </trkpt>
      <trkpt lat="63.53944760" lon="-19.5012768">
        <ele>197.00000</ele>
        <time>2010-01-01T02:01:34Z</time>
      </trkpt>
      <trkpt lat="63.53942960" lon="-19.5012587">
        <ele>197.00000</ele>
        <time>2010-01-01T02:01:35Z</time>
      </trkpt>
      <trkpt lat="63.53941520" lon="-19.5012391">
        <ele>197.00000</ele>
        <time>2010-01-01T02:01:35Z</time>
      </trkpt>
      <trkpt lat="63.53940300" lon="-19.5012277">
        <ele>197.00000</ele>
        <time>2010-01-01T02:01:36Z</time>
      </trkpt>
      <trkpt lat="63.53939070" lon="-19.5012380">
        <ele>197.00000</ele>
        <time>2010-01-01T02:01:36Z</time>
      </trkpt>
      <trkpt lat="63.53937880" lon="-19.5012604">
        <ele>196.60000</ele>
        <time>2010-01-01T02:01:37Z</time>
      </trkpt>
      <trkpt lat="63.53936390" lon="-19.5012799">
        <ele>196.19999</ele>
        <time>2010-01-01T02:01:38Z</time>
      </trkpt>
      <trkpt lat="63.53934470" lon="-19.5012941">
        <ele>195.80000</ele>
        <time>2010-01-01T02:01:39Z</time>
      </trkpt>
      <trkpt lat="63.53931840" lon="-19.5012987">
        <ele>195.39999</ele>
        <time>2010-01-01T02:01:40Z</time>
      </trkpt>
      <trkpt lat="63.53929280" lon="-19.5012976">
        <ele>195.00000</ele>
        <time>2010-01-01T02:01:41Z</time>
      </trkpt>
      <trkpt lat="63.53926090" lon="-19.5012972">
        <ele>194.39999</ele>
        <time>2010-01-01T02:01:42Z</time>
      </trkpt>
      <trkpt lat="63.53923280" lon="-19.5012979">
        <ele>193.80000</ele>
        <time>2010-01-01T02:01:43Z</time>
      </trkpt>
      <trkpt lat="63.53920110" lon="-19.5012988">
        <ele>193.19999</ele>
        <time>2010-01-01T02:01:44Z</time>
      </trkpt>
      <trkpt lat="63.53917090" lon="-19.5013196">
        <ele>192.60000</ele>
        <time>2010-01-01T02:01:46Z</time>
      </trkpt>
      <trkpt lat="63.53914650" lon="-19.5013463">
        <ele>191.80000</ele>
        <time>2010-01-01T02:01:47Z</time>
      </trkpt>
      <trkpt lat="63.53912630" lon="-19.5013852">
        <ele>191.00000</ele>
        <time>2010-01-01T02:01:48Z</time>
      </trkpt>
      <trkpt lat="63.53910790" lon="-19.5014416">
        <ele>190.00000</ele>
        <time>2010-01-01T02:01:49Z</time>
      </trkpt>
      <trkpt lat="63.53908880" lon="-19.5014990">
        <ele>189.19999</ele>
        <time>2010-01-01T02:01:50Z</time>
      </trkpt>
      <trkpt lat="63.53906940" lon="-19.5015572">
        <ele>188.60000</ele>
        <time>2010-01-01T02:01:52Z</time>
      </trkpt>
      <trkpt lat="63.53904300" lon="-19.5015924">
        <ele>188.00000</ele>
        <time>2010-01-01T02:01:53Z</time>
      </trkpt>
      <trkpt lat="63.53901020" lon="-19.5016255">
        <ele>187.19999</ele>
        <time>2010-01-01T02:01:54Z</time>
      </trkpt>
      <trkpt lat="63.53898160" lon="-19.5016490">
        <ele>186.39999</ele>
        <time>2010-01-01T02:01:55Z</time>
      </trkpt>
      <trkpt lat="63.53894970" lon="-19.5016531">
        <ele>185.60000</ele>
        <time>2010-01-01T02:01:57Z</time>
      </trkpt>
      <trkpt lat="63.53891020" lon="-19.5016416">
        <ele>184.80000</ele>
        <time>2010-01-01T02:01:58Z</time>
      </trkpt>
      <trkpt lat="63.53887140" lon="-19.5016229">
        <ele>184.00000</ele>
        <time>2010-01-01T02:02:00Z</time>
      </trkpt>
      <trkpt lat="63.53884030" lon="-19.5016100">
        <ele>183.19999</ele>
        <time>2010-01-01T02:02:01Z</time>
      </trkpt>
      <trkpt lat="63.53881100" lon="-19.5015972">
        <ele>182.39999</ele>
        <time>2010-01-01T02:02:02Z</time>
      </trkpt>
      <trkpt lat="63.53878120" lon="-19.5015810">
        <ele>181.60000</ele>
        <time>2010-01-01T02:02:04Z</time>
      </trkpt>
      <trkpt lat="63.53874490" lon="-19.5015611">
        <ele>181.39999</ele>
        <time>2010-01-01T02:02:05Z</time>
      </trkpt>
      <trkpt lat="63.53857650" lon="-19.5015047">
        <ele>181.39999</ele>
        <time>2010-01-01T02:02:12Z</time>
      </trkpt>
      <trkpt lat="63.53854650" lon="-19.5015119">
        <ele>181.39999</ele>
        <time>2010-01-01T02:02:13Z</time>
      </trkpt>
      <trkpt lat="63.53851800" lon="-19.5015239">
        <ele>181.39999</ele>
        <time>2010-01-01T02:02:14Z</time>
      </trkpt>
      <trkpt lat="63.53849000" lon="-19.5015343">
        <ele>181.39999</ele>
        <time>2010-01-01T02:02:15Z</time>
      </trkpt>
      <trkpt lat="63.53846120" lon="-19.5015384">
        <ele>181.39999</ele>
        <time>2010-01-01T02:02:17Z</time>
      </trkpt>
      <trkpt lat="63.53842200" lon="-19.5015360">
        <ele>181.39999</ele>
        <time>2010-01-01T02:02:18Z</time>
      </trkpt>
      <trkpt lat="63.53838320" lon="-19.5015221">
        <ele>181.39999</ele>
        <time>2010-01-01T02:02:20Z</time>
      </trkpt>
      <trkpt lat="63.53835230" lon="-19.5014997">
        <ele>181.39999</ele>
        <time>2010-01-01T02:02:21Z</time>
      </trkpt>
      <trkpt lat="63.53832870" lon="-19.5014690">
        <ele>181.00000</ele>
        <time>2010-01-01T02:02:22Z</time>
      </trkpt>
      <trkpt lat="63.53831660" lon="-19.5014422">
        <ele>180.60000</ele>
        <time>2010-01-01T02:02:23Z</time>
      </trkpt>
      <trkpt lat="63.53830260" lon="-19.5013839">
        <ele>180.39999</ele>
        <time>2010-01-01T02:02:24Z</time>
      </trkpt>
      <trkpt lat="63.53830230" lon="-19.5013250">
        <ele>180.00000</ele>
        <time>2010-01-01T02:02:25Z</time>
      </trkpt>
      <trkpt lat="63.53829210" lon="-19.5012616">
        <ele>179.60000</ele>
        <time>2010-01-01T02:02:26Z</time>
      </trkpt>
      <trkpt lat="63.53827700" lon="-19.5012044">
        <ele>179.39999</ele>
        <time>2010-01-01T02:02:27Z</time>
      </trkpt>
      <trkpt lat="63.53824150" lon="-19.5011564">
        <ele>179.39999</ele>
        <time>2010-01-01T02:02:29Z</time>
      </trkpt>
      <trkpt lat="63.53821040" lon="-19.5011236">
        <ele>179.39999</ele>
        <time>2010-01-01T02:02:30Z</time>
      </trkpt>
      <trkpt lat="63.53818400" lon="-19.5010993">
        <ele>179.39999</ele>
        <time>2010-01-01T02:02:32Z</time>
      </trkpt>
      <trkpt lat="63.53814820" lon="-19.5010701">
        <ele>179.39999</ele>
        <time>2010-01-01T02:02:33Z</time>
      </trkpt>
      <trkpt lat="63.53805070" lon="-19.5009860">
        <ele>179.39999</ele>
        <time>2010-01-01T02:02:37Z</time>
      </trkpt>
      <trkpt lat="63.53793220" lon="-19.5007817">
        <ele>179.39999</ele>
        <time>2010-01-01T02:02:43Z</time>
      </trkpt>
      <trkpt lat="63.53787980" lon="-19.5006737">
        <ele>179.19999</ele>
        <time>2010-01-01T02:02:46Z</time>
      </trkpt>
      <trkpt lat="63.53785340" lon="-19.5006185">
        <ele>179.00000</ele>
        <time>2010-01-01T02:02:48Z</time>
      </trkpt>
      <trkpt lat="63.53783440" lon="-19.5005721">
        <ele>178.39999</ele>
        <time>2010-01-01T02:02:49Z</time>
      </trkpt>
      <trkpt lat="63.53780130" lon="-19.5005085">
        <ele>178.00000</ele>
        <time>2010-01-01T02:02:50Z</time>
      </trkpt>
      <trkpt lat="63.53777460" lon="-19.5004538">
        <ele>177.39999</ele>
        <time>2010-01-01T02:02:52Z</time>
      </trkpt>
      <trkpt lat="63.53775680" lon="-19.5004238">
        <ele>176.80000</ele>
        <time>2010-01-01T02:02:53Z</time>
      </trkpt>
      <trkpt lat="63.53773530" lon="-19.5003961">
        <ele>176.00000</ele>
        <time>2010-01-01T02:02:54Z</time>
      </trkpt>
      <trkpt lat="63.53771520" lon="-19.5003590">
        <ele>175.39999</ele>
        <time>2010-01-01T02:02:55Z</time>
      </trkpt>
      <trkpt lat="63.53768740" lon="-19.5003388">
        <ele>174.80000</ele>
        <time>2010-01-01T02:02:56Z</time>
      </trkpt>
      <trkpt lat="63.53765880" lon="-19.5003279">
        <ele>174.80000</ele>
        <time>2010-01-01T02:02:57Z</time>
      </trkpt>
      <trkpt lat="63.53763140" lon="-19.5003176">
        <ele>174.39999</ele>
        <time>2010-01-01T02:02:58Z</time>
      </trkpt>
      <trkpt lat="63.53761190" lon="-19.5003031">
        <ele>174.00000</ele>
        <time>2010-01-01T02:02:59Z</time>
      </trkpt>
      <trkpt lat="63.53759500" lon="-19.5002694">
        <ele>173.60000</ele>
        <time>2010-01-01T02:03:00Z</time>
      </trkpt>
      <trkpt lat="63.53758100" lon="-19.5002388">
        <ele>173.19999</ele>
        <time>2010-01-01T02:03:01Z</time>
      </trkpt>
      <trkpt lat="63.53756520" lon="-19.5002245">
        <ele>172.80000</ele>
        <time>2010-01-01T02:03:01Z</time>
      </trkpt>
      <trkpt lat="63.53754940" lon="-19.5002095">
        <ele>172.80000</ele>
        <time>2010-01-01T02:03:02Z</time>
      </trkpt>
      <trkpt lat="63.53753370" lon="-19.5001978">
        <ele>172.80000</ele>
        <time>2010-01-01T02:03:03Z</time>
      </trkpt>
      <trkpt lat="63.53751090" lon="-19.5001691">
        <ele>172.80000</ele>
        <time>2010-01-01T02:03:04Z</time>
      </trkpt>
      <trkpt lat="63.53748450" lon="-19.5001358">
        <ele>172.80000</ele>
        <time>2010-01-01T02:03:05Z</time>
      </trkpt>
      <trkpt lat="63.53747080" lon="-19.5001215">
        <ele>172.80000</ele>
        <time>2010-01-01T02:03:06Z</time>
      </trkpt>
      <trkpt lat="63.53746240" lon="-19.5001113">
        <ele>172.80000</ele>
        <time>2010-01-01T02:03:06Z</time>
      </trkpt>
      <trkpt lat="63.53744840" lon="-19.5001161">
        <ele>172.80000</ele>
        <time>2010-01-01T02:03:07Z</time>
      </trkpt>
      <trkpt lat="63.53742560" lon="-19.5001303">
        <ele>172.80000</ele>
        <time>2010-01-01T02:03:08Z</time>
      </trkpt>
      <trkpt lat="63.53741280" lon="-19.5001437">
        <ele>172.80000</ele>
        <time>2010-01-01T02:03:08Z</time>
      </trkpt>
      <trkpt lat="63.53739710" lon="-19.5001546">
        <ele>173.00000</ele>
        <time>2010-01-01T02:03:09Z</time>
      </trkpt>
      <trkpt lat="63.53738130" lon="-19.5001504">
        <ele>173.00000</ele>
        <time>2010-01-01T02:03:09Z</time>
      </trkpt>
      <trkpt lat="63.53736600" lon="-19.5001549">
        <ele>173.00000</ele>
        <time>2010-01-01T02:03:10Z</time>
      </trkpt>
      <trkpt lat="63.53734320" lon="-19.5001561">
        <ele>173.00000</ele>
        <time>2010-01-01T02:03:11Z</time>
      </trkpt>
      <trkpt lat="63.53732760" lon="-19.5001532">
        <ele>172.80000</ele>
        <time>2010-01-01T02:03:12Z</time>
      </trkpt>
      <trkpt lat="63.53731420" lon="-19.5001445">
        <ele>173.00000</ele>
        <time>2010-01-01T02:03:12Z</time>
      </trkpt>
      <trkpt lat="63.53730240" lon="-19.5001428">
        <ele>173.00000</ele>
        <time>2010-01-01T02:03:13Z</time>
      </trkpt>
      <trkpt lat="63.53729160" lon="-19.5001374">
        <ele>173.39999</ele>
        <time>2010-01-01T02:03:13Z</time>
      </trkpt>
      <trkpt lat="63.53727940" lon="-19.5001343">
        <ele>174.00000</ele>
        <time>2010-01-01T02:03:14Z</time>
      </trkpt>
      <trkpt lat="63.53726520" lon="-19.5001327">
        <ele>174.39999</ele>
        <time>2010-01-01T02:03:14Z</time>
      </trkpt>
      <trkpt lat="63.53725140" lon="-19.5001320">
        <ele>174.80000</ele>
        <time>2010-01-01T02:03:15Z</time>
      </trkpt>
      <trkpt lat="63.53723780" lon="-19.5001386">
        <ele>175.19999</ele>
        <time>2010-01-01T02:03:15Z</time>
      </trkpt>
      <trkpt lat="63.53722650" lon="-19.5001439">
        <ele>175.00000</ele>
        <time>2010-01-01T02:03:16Z</time>
      </trkpt>
      <trkpt lat="63.53720940" lon="-19.5001406">
        <ele>175.39999</ele>
        <time>2010-01-01T02:03:16Z</time>
      </trkpt>
      <trkpt lat="63.53719750" lon="-19.5001373">
        <ele>175.80000</ele>
        <time>2010-01-01T02:03:17Z</time>
      </trkpt>
      <trkpt lat="63.53718490" lon="-19.5001322">
        <ele>176.19999</ele>
        <time>2010-01-01T02:03:17Z</time>
      </trkpt>
      <trkpt lat="63.53717170" lon="-19.5001266">
        <ele>176.80000</ele>
        <time>2010-01-01T02:03:18Z</time>
      </trkpt>
      <trkpt lat="63.53716040" lon="-19.5001219">
        <ele>177.00000</ele>
        <time>2010-01-01T02:03:18Z</time>
      </trkpt>
      <trkpt lat="63.53714830" lon="-19.5001172">
        <ele>177.19999</ele>
        <time>2010-01-01T02:03:19Z</time>
      </trkpt>
      <trkpt lat="63.53712270" lon="-19.5001045">
        <ele>177.19999</ele>
        <time>2010-01-01T02:03:20Z</time>
      </trkpt>
      <trkpt lat="63.53710910" lon="-19.5000963">
        <ele>177.60000</ele>
        <time>2010-01-01T02:03:20Z</time>
      </trkpt>
      <trkpt lat="63.53709790" lon="-19.5000881">
        <ele>178.00000</ele>
        <time>2010-01-01T02:03:21Z</time>
      </trkpt>
      <trkpt lat="63.53708380" lon="-19.5000756">
        <ele>178.39999</ele>
        <time>2010-01-01T02:03:22Z</time>
      </trkpt>
      <trkpt lat="63.53706800" lon="-19.5000586">
        <ele>179.00000</ele>
        <time>2010-01-01T02:03:22Z</time>
      </trkpt>
      <trkpt lat="63.53705250" lon="-19.5000411">
        <ele>179.39999</ele>
        <time>2010-01-01T02:03:23Z</time>
      </trkpt>
      <trkpt lat="63.53703640" lon="-19.5000213">
        <ele>179.19999</ele>
        <time>2010-01-01T02:03:24Z</time>
      </trkpt>
      <trkpt lat="63.53701210" lon="-19.4999953">
        <ele>179.19999</ele>
        <time>2010-01-01T02:03:25Z</time>
      </trkpt>
      <trkpt lat="63.53696300" lon="-19.4999462">
        <ele>179.19999</ele>
        <time>2010-01-01T02:03:27Z</time>
      </trkpt>
      <trkpt lat="63.53692870" lon="-19.4999239">
        <ele>179.19999</ele>
        <time>2010-01-01T02:03:28Z</time>
      </trkpt>
      <trkpt lat="63.53690450" lon="-19.4999100">
        <ele>179.19999</ele>
        <time>2010-01-01T02:03:29Z</time>
      </trkpt>
      <trkpt lat="63.53688490" lon="-19.4999004">
        <ele>179.19999</ele>
        <time>2010-01-01T02:03:30Z</time>
      </trkpt>
      <trkpt lat="63.53685440" lon="-19.4998943">
        <ele>179.19999</ele>
        <time>2010-01-01T02:03:31Z</time>
      </trkpt>
      <trkpt lat="63.53683220" lon="-19.4998964">
        <ele>179.19999</ele>
        <time>2010-01-01T02:03:32Z</time>
      </trkpt>
      <trkpt lat="63.53680910" lon="-19.4999059">
        <ele>179.60000</ele>
        <time>2010-01-01T02:03:33Z</time>
      </trkpt>
      <trkpt lat="63.53678590" lon="-19.4999198">
        <ele>180.00000</ele>
        <time>2010-01-01T02:03:34Z</time>
      </trkpt>
      <trkpt lat="63.53676850" lon="-19.4999299">
        <ele>180.39999</ele>
        <time>2010-01-01T02:03:35Z</time>
      </trkpt>
      <trkpt lat="63.53674630" lon="-19.4999369">
        <ele>180.80000</ele>
        <time>2010-01-01T02:03:36Z</time>
      </trkpt>
      <trkpt lat="63.53672200" lon="-19.4999404">
        <ele>181.19999</ele>
        <time>2010-01-01T02:03:37Z</time>
      </trkpt>
      <trkpt lat="63.53670120" lon="-19.4999498">
        <ele>181.19999</ele>
        <time>2010-01-01T02:03:38Z</time>
      </trkpt>
      <trkpt lat="63.53668090" lon="-19.4999682">
        <ele>181.19999</ele>
        <time>2010-01-01T02:03:38Z</time>
      </trkpt>
      <trkpt lat="63.53666430" lon="-19.5000031">
        <ele>181.19999</ele>
        <time>2010-01-01T02:03:39Z</time>
      </trkpt>
      <trkpt lat="63.53664740" lon="-19.5000428">
        <ele>181.19999</ele>
        <time>2010-01-01T02:03:40Z</time>
      </trkpt>
      <trkpt lat="63.53663440" lon="-19.5000810">
        <ele>181.19999</ele>
        <time>2010-01-01T02:03:41Z</time>
      </trkpt>
      <trkpt lat="63.53661540" lon="-19.5001110">
        <ele>181.19999</ele>
        <time>2010-01-01T02:03:42Z</time>
      </trkpt>
      <trkpt lat="63.53659520" lon="-19.5001326">
        <ele>181.19999</ele>
        <time>2010-01-01T02:03:43Z</time>
      </trkpt>
      <trkpt lat="63.53657600" lon="-19.5001549">
        <ele>181.19999</ele>
        <time>2010-01-01T02:03:44Z</time>
      </trkpt>
      <trkpt lat="63.53655430" lon="-19.5001924">
        <ele>181.19999</ele>
        <time>2010-01-01T02:03:45Z</time>
      </trkpt>
      <trkpt lat="63.53653400" lon="-19.5002322">
        <ele>181.00000</ele>
        <time>2010-01-01T02:03:46Z</time>
      </trkpt>
      <trkpt lat="63.53651600" lon="-19.5002655">
        <ele>180.39999</ele>
        <time>2010-01-01T02:03:47Z</time>
      </trkpt>
      <trkpt lat="63.53648160" lon="-19.5003278">
        <ele>180.00000</ele>
        <time>2010-01-01T02:03:49Z</time>
      </trkpt>
      <trkpt lat="63.53645130" lon="-19.5003730">
        <ele>180.19999</ele>
        <time>2010-01-01T02:03:50Z</time>
      </trkpt>
      <trkpt lat="63.53643080" lon="-19.5004065">
        <ele>179.80000</ele>
        <time>2010-01-01T02:03:51Z</time>
      </trkpt>
      <trkpt lat="63.53640910" lon="-19.5004429">
        <ele>179.39999</ele>
        <time>2010-01-01T02:03:52Z</time>
      </trkpt>
      <trkpt lat="63.53635090" lon="-19.5005454">
        <ele>178.60000</ele>
        <time>2010-01-01T02:03:55Z</time>
      </trkpt>
      <trkpt lat="63.53632790" lon="-19.5005705">
        <ele>177.80000</ele>
        <time>2010-01-01T02:03:56Z</time>
      </trkpt>
      <trkpt lat="63.53630500" lon="-19.5005911">
        <ele>177.00000</ele>
        <time>2010-01-01T02:03:57Z</time>
      </trkpt>
      <trkpt lat="63.53628490" lon="-19.5006128">
        <ele>176.00000</ele>
        <time>2010-01-01T02:03:58Z</time>
      </trkpt>
      <trkpt lat="63.53626560" lon="-19.5006326">
        <ele>175.00000</ele>
        <time>2010-01-01T02:03:59Z</time>
      </trkpt>
      <trkpt lat="63.53624380" lon="-19.5006563">
        <ele>174.39999</ele>
        <time>2010-01-01T02:04:00Z</time>
      </trkpt>
      <trkpt lat="63.53623230" lon="-19.5006957">
        <ele>173.39999</ele>
        <time>2010-01-01T02:04:01Z</time>
      </trkpt>
      <trkpt lat="63.53620720" lon="-19.5007340">
        <ele>172.60000</ele>
        <time>2010-01-01T02:04:02Z</time>
      </trkpt>
      <trkpt lat="63.53618030" lon="-19.5007573">
        <ele>171.80000</ele>
        <time>2010-01-01T02:04:03Z</time>
      </trkpt>
      <trkpt lat="63.53614820" lon="-19.5007541">
        <ele>171.00000</ele>
        <time>2010-01-01T02:04:05Z</time>
      </trkpt>
      <trkpt lat="63.53611500" lon="-19.5007528">
        <ele>170.39999</ele>
        <time>2010-01-01T02:04:06Z</time>
      </trkpt>
      <trkpt lat="63.53608130" lon="-19.5007472">
        <ele>169.80000</ele>
        <time>2010-01-01T02:04:07Z</time>
      </trkpt>
      <trkpt lat="63.53605630" lon="-19.5007594">
        <ele>169.00000</ele>
        <time>2010-01-01T02:04:08Z</time>
      </trkpt>
      <trkpt lat="63.53603260" lon="-19.5007854">
        <ele>168.19999</ele>
        <time>2010-01-01T02:04:09Z</time>
      </trkpt>
      <trkpt lat="63.53600930" lon="-19.5008124">
        <ele>168.19999</ele>
        <time>2010-01-01T02:04:10Z</time>
      </trkpt>
      <trkpt lat="63.53598440" lon="-19.5008382">
        <ele>168.19999</ele>
        <time>2010-01-01T02:04:11Z</time>
      </trkpt>
      <trkpt lat="63.53596050" lon="-19.5008485">
        <ele>168.19999</ele>
        <time>2010-01-01T02:04:12Z</time>
      </trkpt>
      <trkpt lat="63.53593560" lon="-19.5008548">
        <ele>168.19999</ele>
        <time>2010-01-01T02:04:13Z</time>
      </trkpt>
      <trkpt lat="63.53591560" lon="-19.5008763">
        <ele>168.19999</ele>
        <time>2010-01-01T02:04:14Z</time>
      </trkpt>
      <trkpt lat="63.53589850" lon="-19.5008950">
        <ele>168.19999</ele>
        <time>2010-01-01T02:04:15Z</time>
      </trkpt>
      <trkpt lat="63.53587390" lon="-19.5009112">
        <ele>167.80000</ele>
        <time>2010-01-01T02:04:16Z</time>
      </trkpt>
      <trkpt lat="63.53584340" lon="-19.5009415">
        <ele>167.19999</ele>
        <time>2010-01-01T02:04:17Z</time>
      </trkpt>
      <trkpt lat="63.53581040" lon="-19.5009816">
        <ele>166.80000</ele>
        <time>2010-01-01T02:04:19Z</time>
      </trkpt>
      <trkpt lat="63.53577390" lon="-19.5010273">
        <ele>166.39999</ele>
        <time>2010-01-01T02:04:21Z</time>
      </trkpt>
      <trkpt lat="63.53574520" lon="-19.5010666">
        <ele>165.80000</ele>
        <time>2010-01-01T02:04:22Z</time>
      </trkpt>
      <trkpt lat="63.53571890" lon="-19.5011094">
        <ele>165.19999</ele>
        <time>2010-01-01T02:04:23Z</time>
      </trkpt>
      <trkpt lat="63.53568790" lon="-19.5011455">
        <ele>164.60000</ele>
        <time>2010-01-01T02:04:25Z</time>
      </trkpt>
      <trkpt lat="63.53566280" lon="-19.5011842">
        <ele>163.80000</ele>
        <time>2010-01-01T02:04:26Z</time>
      </trkpt>
      <trkpt lat="63.53563630" lon="-19.5012174">
        <ele>163.19999</ele>
        <time>2010-01-01T02:04:27Z</time>
      </trkpt>
      <trkpt lat="63.53560850" lon="-19.5012547">
        <ele>162.39999</ele>
        <time>2010-01-01T02:04:28Z</time>
      </trkpt>
      <trkpt lat="63.53558170" lon="-19.5012929">
        <ele>162.00000</ele>
        <time>2010-01-01T02:04:30Z</time>
      </trkpt>
      <trkpt lat="63.53553170" lon="-19.5013668">
        <ele>162.00000</ele>
        <time>2010-01-01T02:04:32Z</time>
      </trkpt>
      <trkpt lat="63.53550700" lon="-19.5014009">
        <ele>161.80000</ele>
        <time>2010-01-01T02:04:33Z</time>
      </trkpt>
      <trkpt lat="63.53548730" lon="-19.5014346">
        <ele>161.39999</ele>
        <time>2010-01-01T02:04:34Z</time>
      </trkpt>
      <trkpt lat="63.53546300" lon="-19.5014748">
        <ele>161.00000</ele>
        <time>2010-01-01T02:04:35Z</time>
      </trkpt>
      <trkpt lat="63.53544160" lon="-19.5015013">
        <ele>160.60000</ele>
        <time>2010-01-01T02:04:36Z</time>
      </trkpt>
      <trkpt lat="63.53541750" lon="-19.5015214">
        <ele>160.00000</ele>
        <time>2010-01-01T02:04:37Z</time>
      </trkpt>
      <trkpt lat="63.53539200" lon="-19.5015538">
        <ele>159.60000</ele>
        <time>2010-01-01T02:04:39Z</time>
      </trkpt>
      <trkpt lat="63.53536760" lon="-19.5015972">
        <ele>159.19999</ele>
        <time>2010-01-01T02:04:40Z</time>
      </trkpt>
      <trkpt lat="63.53534640" lon="-19.5016437">
        <ele>158.60000</ele>
        <time>2010-01-01T02:04:41Z</time>
      </trkpt>
      <trkpt lat="63.53532370" lon="-19.5017078">
        <ele>157.80000</ele>
        <time>2010-01-01T02:04:42Z</time>
      </trkpt>
      <trkpt lat="63.53530290" lon="-19.5017680">
        <ele>157.00000</ele>
        <time>2010-01-01T02:04:44Z</time>
      </trkpt>
      <trkpt lat="63.53528190" lon="-19.5018292">
        <ele>156.39999</ele>
        <time>2010-01-01T02:04:45Z</time>
      </trkpt>
      <trkpt lat="63.53526240" lon="-19.5018929">
        <ele>155.80000</ele>
        <time>2010-01-01T02:04:47Z</time>
      </trkpt>
      <trkpt lat="63.53523960" lon="-19.5019625">
        <ele>155.19999</ele>
        <time>2010-01-01T02:04:48Z</time>
      </trkpt>
      <trkpt lat="63.53521920" lon="-19.5020184">
        <ele>154.60000</ele>
        <time>2010-01-01T02:04:49Z</time>
      </trkpt>
      <trkpt lat="63.53519810" lon="-19.5020814">
        <ele>154.19999</ele>
        <time>2010-01-01T02:04:51Z</time>
      </trkpt>
      <trkpt lat="63.53518120" lon="-19.5021383">
        <ele>153.60000</ele>
        <time>2010-01-01T02:04:52Z</time>
      </trkpt>
      <trkpt lat="63.53516300" lon="-19.5021927">
        <ele>153.19999</ele>
        <time>2010-01-01T02:04:53Z</time>
      </trkpt>
      <trkpt lat="63.53512990" lon="-19.5023240">
        <ele>152.80000</ele>
        <time>2010-01-01T02:04:56Z</time>
      </trkpt>
      <trkpt lat="63.53511170" lon="-19.5023856">
        <ele>152.39999</ele>
        <time>2010-01-01T02:04:57Z</time>
      </trkpt>
      <trkpt lat="63.53509070" lon="-19.5024484">
        <ele>151.80000</ele>
        <time>2010-01-01T02:04:59Z</time>
      </trkpt>
      <trkpt lat="63.53507290" lon="-19.5025059">
        <ele>151.39999</ele>
        <time>2010-01-01T02:05:00Z</time>
      </trkpt>
      <trkpt lat="63.53505340" lon="-19.5025684">
        <ele>151.00000</ele>
        <time>2010-01-01T02:05:01Z</time>
      </trkpt>
      <trkpt lat="63.53503630" lon="-19.5026331">
        <ele>151.00000</ele>
        <time>2010-01-01T02:05:03Z</time>
      </trkpt>
      <trkpt lat="63.53496760" lon="-19.5028826">
        <ele>151.00000</ele>
        <time>2010-01-01T02:05:08Z</time>
      </trkpt>
      <trkpt lat="63.53495070" lon="-19.5029344">
        <ele>151.00000</ele>
        <time>2010-01-01T02:05:09Z</time>
      </trkpt>
      <trkpt lat="63.53490510" lon="-19.5030888">
        <ele>150.60000</ele>
        <time>2010-01-01T02:05:12Z</time>
      </trkpt>
      <trkpt lat="63.53488600" lon="-19.5031550">
        <ele>150.00000</ele>
        <time>2010-01-01T02:05:14Z</time>
      </trkpt>
      <trkpt lat="63.53487050" lon="-19.5032154">
        <ele>149.60000</ele>
        <time>2010-01-01T02:05:15Z</time>
      </trkpt>
      <trkpt lat="63.53485510" lon="-19.5032714">
        <ele>149.00000</ele>
        <time>2010-01-01T02:05:16Z</time>
      </trkpt>
      <trkpt lat="63.53484080" lon="-19.5033332">
        <ele>148.60000</ele>
        <time>2010-01-01T02:05:17Z</time>
      </trkpt>
      <trkpt lat="63.53482880" lon="-19.5033933">
        <ele>148.60000</ele>
        <time>2010-01-01T02:05:19Z</time>
      </trkpt>
      <trkpt lat="63.53481790" lon="-19.5034577">
        <ele>148.39999</ele>
        <time>2010-01-01T02:05:20Z</time>
      </trkpt>
      <trkpt lat="63.53480670" lon="-19.5035227">
        <ele>148.00000</ele>
        <time>2010-01-01T02:05:21Z</time>
      </trkpt>
      <trkpt lat="63.53479520" lon="-19.5035787">
        <ele>147.39999</ele>
        <time>2010-01-01T02:05:22Z</time>
      </trkpt>
      <trkpt lat="63.53478440" lon="-19.5036344">
        <ele>146.80000</ele>
        <time>2010-01-01T02:05:23Z</time>
      </trkpt>
      <trkpt lat="63.53477470" lon="-19.5036832">
        <ele>146.00000</ele>
        <time>2010-01-01T02:05:24Z</time>
      </trkpt>
      <trkpt lat="63.53476080" lon="-19.5037425">
        <ele>145.39999</ele>
        <time>2010-01-01T02:05:25Z</time>
      </trkpt>
      <trkpt lat="63.53474810" lon="-19.5038016">
        <ele>144.80000</ele>
        <time>2010-01-01T02:05:27Z</time>
      </trkpt>
      <trkpt lat="63.53473010" lon="-19.5038700">
        <ele>144.19999</ele>
        <time>2010-01-01T02:05:28Z</time>
      </trkpt>
      <trkpt lat="63.53471380" lon="-19.5039253">
        <ele>144.19999</ele>
        <time>2010-01-01T02:05:29Z</time>
      </trkpt>
      <trkpt lat="63.53470550" lon="-19.5039746">
        <ele>144.19999</ele>
        <time>2010-01-01T02:05:30Z</time>
      </trkpt>
      <trkpt lat="63.53469200" lon="-19.5040480">
        <ele>143.80000</ele>
        <time>2010-01-01T02:05:31Z</time>
      </trkpt>
      <trkpt lat="63.53467390" lon="-19.5041083">
        <ele>143.39999</ele>
        <time>2010-01-01T02:05:33Z</time>
      </trkpt>
      <trkpt lat="63.53464840" lon="-19.5041533">
        <ele>143.00000</ele>
        <time>2010-01-01T02:05:34Z</time>
      </trkpt>
      <trkpt lat="63.53461960" lon="-19.5041993">
        <ele>142.60000</ele>
        <time>2010-01-01T02:05:36Z</time>
      </trkpt>
      <trkpt lat="63.53459570" lon="-19.5042288">
        <ele>142.19999</ele>
        <time>2010-01-01T02:05:37Z</time>
      </trkpt>
      <trkpt lat="63.53457000" lon="-19.5042700">
        <ele>141.60000</ele>
        <time>2010-01-01T02:05:38Z</time>
      </trkpt>
      <trkpt lat="63.53454720" lon="-19.5043061">
        <ele>141.19999</ele>
        <time>2010-01-01T02:05:39Z</time>
      </trkpt>
      <trkpt lat="63.53452590" lon="-19.5043480">
        <ele>140.60000</ele>
        <time>2010-01-01T02:05:40Z</time>
      </trkpt>
      <trkpt lat="63.53450390" lon="-19.5043908">
        <ele>140.19999</ele>
        <time>2010-01-01T02:05:41Z</time>
      </trkpt>
      <trkpt lat="63.53447860" lon="-19.5044160">
        <ele>140.19999</ele>
        <time>2010-01-01T02:05:42Z</time>
      </trkpt>
      <trkpt lat="63.53443110" lon="-19.5044920">
        <ele>139.80000</ele>
        <time>2010-01-01T02:05:45Z</time>
      </trkpt>
      <trkpt lat="63.53441380" lon="-19.5045421">
        <ele>139.39999</ele>
        <time>2010-01-01T02:05:46Z</time>
      </trkpt>
      <trkpt lat="63.53439600" lon="-19.5045999">
        <ele>139.00000</ele>
        <time>2010-01-01T02:05:47Z</time>
      </trkpt>
      <trkpt lat="63.53437930" lon="-19.5046487">
        <ele>138.60000</ele>
        <time>2010-01-01T02:05:48Z</time>
      </trkpt>
      <trkpt lat="63.53435990" lon="-19.5047152">
        <ele>138.19999</ele>
        <time>2010-01-01T02:05:50Z</time>
      </trkpt>
      <trkpt lat="63.53434200" lon="-19.5047733">
        <ele>138.00000</ele>
        <time>2010-01-01T02:05:51Z</time>
      </trkpt>
      <trkpt lat="63.53431780" lon="-19.5048320">
        <ele>137.60000</ele>
        <time>2010-01-01T02:05:52Z</time>
      </trkpt>
      <trkpt lat="63.53428980" lon="-19.5048852">
        <ele>137.19999</ele>
        <time>2010-01-01T02:05:54Z</time>
      </trkpt>
      <trkpt lat="63.53426070" lon="-19.5049308">
        <ele>136.60000</ele>
        <time>2010-01-01T02:05:55Z</time>
      </trkpt>
      <trkpt lat="63.53423090" lon="-19.5049811">
        <ele>136.00000</ele>
        <time>2010-01-01T02:05:57Z</time>
      </trkpt>
      <trkpt lat="63.53420050" lon="-19.5050378">
        <ele>135.39999</ele>
        <time>2010-01-01T02:05:58Z</time>
      </trkpt>
      <trkpt lat="63.53416880" lon="-19.5050839">
        <ele>134.60000</ele>
        <time>2010-01-01T02:06:00Z</time>
      </trkpt>
      <trkpt lat="63.53413880" lon="-19.5051171">
        <ele>134.19999</ele>
        <time>2010-01-01T02:06:01Z</time>
      </trkpt>
      <trkpt lat="63.53410560" lon="-19.5051506">
        <ele>133.60000</ele>
        <time>2010-01-01T02:06:03Z</time>
      </trkpt>
      <trkpt lat="63.53407110" lon="-19.5051715">
        <ele>133.00000</ele>
        <time>2010-01-01T02:06:04Z</time>
      </trkpt>
      <trkpt lat="63.53403580" lon="-19.5051910">
        <ele>132.39999</ele>
        <time>2010-01-01T02:06:05Z</time>
      </trkpt>
      <trkpt lat="63.53399760" lon="-19.5052107">
        <ele>131.80000</ele>
        <time>2010-01-01T02:06:07Z</time>
      </trkpt>
      <trkpt lat="63.53396030" lon="-19.5052112">
        <ele>131.80000</ele>
        <time>2010-01-01T02:06:09Z</time>
      </trkpt>
      <trkpt lat="63.53392930" lon="-19.5052031">
        <ele>131.80000</ele>
        <time>2010-01-01T02:06:10Z</time>
      </trkpt>
      <trkpt lat="63.53389170" lon="-19.5051972">
        <ele>131.19999</ele>
        <time>2010-01-01T02:06:11Z</time>
      </trkpt>
      <trkpt lat="63.53385650" lon="-19.5052026">
        <ele>130.80000</ele>
        <time>2010-01-01T02:06:13Z</time>
      </trkpt>
      <trkpt lat="63.53382280" lon="-19.5052134">
        <ele>130.39999</ele>
        <time>2010-01-01T02:06:14Z</time>
      </trkpt>
      <trkpt lat="63.53378660" lon="-19.5052270">
        <ele>129.80000</ele>
        <time>2010-01-01T02:06:16Z</time>
      </trkpt>
      <trkpt lat="63.53376080" lon="-19.5052569">
        <ele>129.39999</ele>
        <time>2010-01-01T02:06:17Z</time>
      </trkpt>
      <trkpt lat="63.53373440" lon="-19.5053060">
        <ele>129.00000</ele>
        <time>2010-01-01T02:06:18Z</time>
      </trkpt>
      <trkpt lat="63.53370370" lon="-19.5053510">
        <ele>128.60000</ele>
        <time>2010-01-01T02:06:20Z</time>
      </trkpt>
      <trkpt lat="63.53367600" lon="-19.5053899">
        <ele>128.19999</ele>
        <time>2010-01-01T02:06:21Z</time>
      </trkpt>
      <trkpt lat="63.53364830" lon="-19.5054184">
        <ele>127.59999</ele>
        <time>2010-01-01T02:06:22Z</time>
      </trkpt>
      <trkpt lat="63.53362290" lon="-19.5054505">
        <ele>127.40000</ele>
        <time>2010-01-01T02:06:23Z</time>
      </trkpt>
      <trkpt lat="63.53360540" lon="-19.5054912">
        <ele>127.40000</ele>
        <time>2010-01-01T02:06:24Z</time>
      </trkpt>
      <trkpt lat="63.53359590" lon="-19.5055429">
        <ele>127.40000</ele>
        <time>2010-01-01T02:06:25Z</time>
      </trkpt>
      <trkpt lat="63.53359060" lon="-19.5056104">
        <ele>127.19999</ele>
        <time>2010-01-01T02:06:26Z</time>
      </trkpt>
      <trkpt lat="63.53357730" lon="-19.5056800">
        <ele>126.80000</ele>
        <time>2010-01-01T02:06:28Z</time>
      </trkpt>
      <trkpt lat="63.53356330" lon="-19.5057209">
        <ele>126.40000</ele>
        <time>2010-01-01T02:06:29Z</time>
      </trkpt>
      <trkpt lat="63.53353960" lon="-19.5057793">
        <ele>126.00000</ele>
        <time>2010-01-01T02:06:30Z</time>
      </trkpt>
      <trkpt lat="63.53351840" lon="-19.5058264">
        <ele>125.59999</ele>
        <time>2010-01-01T02:06:31Z</time>
      </trkpt>
      <trkpt lat="63.53350290" lon="-19.5058750">
        <ele>125.40000</ele>
        <time>2010-01-01T02:06:32Z</time>
      </trkpt>
      <trkpt lat="63.53348610" lon="-19.5059297">
        <ele>125.40000</ele>
        <time>2010-01-01T02:06:34Z</time>
      </trkpt>
      <trkpt lat="63.53347140" lon="-19.5059815">
        <ele>125.00000</ele>
        <time>2010-01-01T02:06:35Z</time>
      </trkpt>
      <trkpt lat="63.53345570" lon="-19.5060419">
        <ele>124.59999</ele>
        <time>2010-01-01T02:06:36Z</time>
      </trkpt>
      <trkpt lat="63.53343730" lon="-19.5061111">
        <ele>124.19999</ele>
        <time>2010-01-01T02:06:37Z</time>
      </trkpt>
      <trkpt lat="63.53342810" lon="-19.5061716">
        <ele>123.80000</ele>
        <time>2010-01-01T02:06:39Z</time>
      </trkpt>
      <trkpt lat="63.53341940" lon="-19.5062247">
        <ele>123.40000</ele>
        <time>2010-01-01T02:06:40Z</time>
      </trkpt>
      <trkpt lat="63.53340510" lon="-19.5062766">
        <ele>123.40000</ele>
        <time>2010-01-01T02:06:41Z</time>
      </trkpt>
      <trkpt lat="63.53335040" lon="-19.5065081">
        <ele>123.40000</ele>
        <time>2010-01-01T02:06:45Z</time>
      </trkpt>
      <trkpt lat="63.53334200" lon="-19.5065562">
        <ele>123.40000</ele>
        <time>2010-01-01T02:06:46Z</time>
      </trkpt>
      <trkpt lat="63.53333070" lon="-19.5066058">
        <ele>123.40000</ele>
        <time>2010-01-01T02:06:47Z</time>
      </trkpt>
      <trkpt lat="63.53331520" lon="-19.5066464">
        <ele>123.40000</ele>
        <time>2010-01-01T02:06:48Z</time>
      </trkpt>
      <trkpt lat="63.53329080" lon="-19.5066869">
        <ele>123.40000</ele>
        <time>2010-01-01T02:06:49Z</time>
      </trkpt>
      <trkpt lat="63.53327110" lon="-19.5067081">
        <ele>123.40000</ele>
        <time>2010-01-01T02:06:50Z</time>
      </trkpt>
      <trkpt lat="63.53324790" lon="-19.5067352">
        <ele>123.40000</ele>
        <time>2010-01-01T02:06:51Z</time>
      </trkpt>
      <trkpt lat="63.53322490" lon="-19.5067595">
        <ele>123.40000</ele>
        <time>2010-01-01T02:06:52Z</time>
      </trkpt>
      <trkpt lat="63.53319910" lon="-19.5068005">
        <ele>123.40000</ele>
        <time>2010-01-01T02:06:54Z</time>
      </trkpt>
      <trkpt lat="63.53317210" lon="-19.5068356">
        <ele>123.40000</ele>
        <time>2010-01-01T02:06:55Z</time>
      </trkpt>
      <trkpt lat="63.53314560" lon="-19.5068640">
        <ele>123.40000</ele>
        <time>2010-01-01T02:06:56Z</time>
      </trkpt>
      <trkpt lat="63.53311620" lon="-19.5068901">
        <ele>123.40000</ele>
        <time>2010-01-01T02:06:57Z</time>
      </trkpt>
      <trkpt lat="63.53308910" lon="-19.5069050">
        <ele>123.40000</ele>
        <time>2010-01-01T02:06:58Z</time>
      </trkpt>
      <trkpt lat="63.53303470" lon="-19.5069409">
        <ele>123.40000</ele>
        <time>2010-01-01T02:07:01Z</time>
      </trkpt>
      <trkpt lat="63.53301260" lon="-19.5069701">
        <ele>123.40000</ele>
        <time>2010-01-01T02:07:02Z</time>
      </trkpt>
      <trkpt lat="63.53296130" lon="-19.5070567">
        <ele>123.40000</ele>
        <time>2010-01-01T02:07:04Z</time>
      </trkpt>
      <trkpt lat="63.53293550" lon="-19.5071092">
        <ele>123.40000</ele>
        <time>2010-01-01T02:07:06Z</time>
      </trkpt>
      <trkpt lat="63.53291620" lon="-19.5071571">
        <ele>123.40000</ele>
        <time>2010-01-01T02:07:07Z</time>
      </trkpt>
      <trkpt lat="63.53290120" lon="-19.5072055">
        <ele>123.00000</ele>
        <time>2010-01-01T02:07:08Z</time>
      </trkpt>
      <trkpt lat="63.53288580" lon="-19.5072651">
        <ele>122.59999</ele>
        <time>2010-01-01T02:07:09Z</time>
      </trkpt>
      <trkpt lat="63.53287330" lon="-19.5073325">
        <ele>122.19999</ele>
        <time>2010-01-01T02:07:10Z</time>
      </trkpt>
      <trkpt lat="63.53286290" lon="-19.5074029">
        <ele>121.80000</ele>
        <time>2010-01-01T02:07:12Z</time>
      </trkpt>
      <trkpt lat="63.53285700" lon="-19.5074657">
        <ele>121.19999</ele>
        <time>2010-01-01T02:07:13Z</time>
      </trkpt>
      <trkpt lat="63.53285150" lon="-19.5075200">
        <ele>120.80000</ele>
        <time>2010-01-01T02:07:14Z</time>
      </trkpt>
      <trkpt lat="63.53284650" lon="-19.5075763">
        <ele>120.40000</ele>
        <time>2010-01-01T02:07:15Z</time>
      </trkpt>
      <trkpt lat="63.53284630" lon="-19.5076295">
        <ele>119.80000</ele>
        <time>2010-01-01T02:07:16Z</time>
      </trkpt>
      <trkpt lat="63.53284540" lon="-19.5076983">
        <ele>119.40000</ele>
        <time>2010-01-01T02:07:17Z</time>
      </trkpt>
      <trkpt lat="63.53284650" lon="-19.5077628">
        <ele>119.19999</ele>
        <time>2010-01-01T02:07:18Z</time>
      </trkpt>
      <trkpt lat="63.53284900" lon="-19.5078947">
        <ele>119.19999</ele>
        <time>2010-01-01T02:07:21Z</time>
      </trkpt>
      <trkpt lat="63.53284320" lon="-19.5080044">
        <ele>119.19999</ele>
        <time>2010-01-01T02:07:23Z</time>
      </trkpt>
      <trkpt lat="63.53284020" lon="-19.5080675">
        <ele>118.80000</ele>
        <time>2010-01-01T02:07:24Z</time>
      </trkpt>
      <trkpt lat="63.53283910" lon="-19.5081137">
        <ele>118.40000</ele>
        <time>2010-01-01T02:07:24Z</time>
      </trkpt>
      <trkpt lat="63.53283500" lon="-19.5081693">
        <ele>118.00000</ele>
        <time>2010-01-01T02:07:25Z</time>
      </trkpt>
      <trkpt lat="63.53283540" lon="-19.5082180">
        <ele>117.59999</ele>
        <time>2010-01-01T02:07:26Z</time>
      </trkpt>
      <trkpt lat="63.53283410" lon="-19.5082776">
        <ele>117.19999</ele>
        <time>2010-01-01T02:07:27Z</time>
      </trkpt>
      <trkpt lat="63.53283340" lon="-19.5083334">
        <ele>117.00000</ele>
        <time>2010-01-01T02:07:28Z</time>
      </trkpt>
      <trkpt lat="63.53283360" lon="-19.5083870">
        <ele>117.00000</ele>
        <time>2010-01-01T02:07:29Z</time>
      </trkpt>
      <trkpt lat="63.53282880" lon="-19.5084486">
        <ele>117.00000</ele>
        <time>2010-01-01T02:07:30Z</time>
      </trkpt>
      <trkpt lat="63.53282050" lon="-19.5085047">
        <ele>117.00000</ele>
        <time>2010-01-01T02:07:32Z</time>
      </trkpt>
      <trkpt lat="63.53281220" lon="-19.5085631">
        <ele>117.00000</ele>
        <time>2010-01-01T02:07:33Z</time>
      </trkpt>
      <trkpt lat="63.53278340" lon="-19.5086809">
        <ele>117.00000</ele>
        <time>2010-01-01T02:07:35Z</time>
      </trkpt>
      <trkpt lat="63.53278580" lon="-19.5086964">
        <ele>117.00000</ele>
        <time>2010-01-01T02:07:35Z</time>
      </trkpt>
      <trkpt lat="63.53276100" lon="-19.5088143">
        <ele>117.00000</ele>
        <time>2010-01-01T02:07:38Z</time>
      </trkpt>
      <trkpt lat="63.53272980" lon="-19.5089361">
        <ele>117.00000</ele>
        <time>2010-01-01T02:07:40Z</time>
      </trkpt>
      <trkpt lat="63.53271580" lon="-19.5089903">
        <ele>116.59999</ele>
        <time>2010-01-01T02:07:41Z</time>
      </trkpt>
      <trkpt lat="63.53270600" lon="-19.5090575">
        <ele>116.19999</ele>
        <time>2010-01-01T02:07:43Z</time>
      </trkpt>
      <trkpt lat="63.53269840" lon="-19.5091191">
        <ele>115.80000</ele>
        <time>2010-01-01T02:07:44Z</time>
      </trkpt>
      <trkpt lat="63.53269120" lon="-19.5091744">
        <ele>115.19999</ele>
        <time>2010-01-01T02:07:45Z</time>
      </trkpt>
      <trkpt lat="63.53268660" lon="-19.5092315">
        <ele>114.80000</ele>
        <time>2010-01-01T02:07:46Z</time>
      </trkpt>
      <trkpt lat="63.53266400" lon="-19.5093438">
        <ele>114.80000</ele>
        <time>2010-01-01T02:07:48Z</time>
      </trkpt>
      <trkpt lat="63.53262360" lon="-19.5094358">
        <ele>114.80000</ele>
        <time>2010-01-01T02:07:50Z</time>
      </trkpt>
      <trkpt lat="63.53255920" lon="-19.5095590">
        <ele>114.80000</ele>
        <time>2010-01-01T02:07:54Z</time>
      </trkpt>
      <trkpt lat="63.53253420" lon="-19.5095919">
        <ele>114.40000</ele>
        <time>2010-01-01T02:07:55Z</time>
      </trkpt>
      <trkpt lat="63.53251060" lon="-19.5096267">
        <ele>114.19999</ele>
        <time>2010-01-01T02:07:56Z</time>
      </trkpt>
      <trkpt lat="63.53249180" lon="-19.5096858">
        <ele>113.80000</ele>
        <time>2010-01-01T02:07:57Z</time>
      </trkpt>
      <trkpt lat="63.53247110" lon="-19.5097407">
        <ele>113.59999</ele>
        <time>2010-01-01T02:07:58Z</time>
      </trkpt>
      <trkpt lat="63.53244580" lon="-19.5097992">
        <ele>113.19999</ele>
        <time>2010-01-01T02:08:00Z</time>
      </trkpt>
      <trkpt lat="63.53242680" lon="-19.5098422">
        <ele>112.80000</ele>
        <time>2010-01-01T02:08:01Z</time>
      </trkpt>
      <trkpt lat="63.53240480" lon="-19.5098772">
        <ele>112.80000</ele>
        <time>2010-01-01T02:08:02Z</time>
      </trkpt>
      <trkpt lat="63.53237810" lon="-19.5099291">
        <ele>112.80000</ele>
        <time>2010-01-01T02:08:04Z</time>
      </trkpt>
      <trkpt lat="63.53235320" lon="-19.5099712">
        <ele>112.40000</ele>
        <time>2010-01-01T02:08:05Z</time>
      </trkpt>
      <trkpt lat="63.53232530" lon="-19.5100095">
        <ele>112.00000</ele>
        <time>2010-01-01T02:08:06Z</time>
      </trkpt>
      <trkpt lat="63.53230120" lon="-19.5100483">
        <ele>111.59999</ele>
        <time>2010-01-01T02:08:07Z</time>
      </trkpt>
      <trkpt lat="63.53227660" lon="-19.5100993">
        <ele>111.19999</ele>
        <time>2010-01-01T02:08:09Z</time>
      </trkpt>
      <trkpt lat="63.53225400" lon="-19.5101510">
        <ele>110.80000</ele>
        <time>2010-01-01T02:08:10Z</time>
      </trkpt>
      <trkpt lat="63.53223010" lon="-19.5102097">
        <ele>110.59999</ele>
        <time>2010-01-01T02:08:11Z</time>
      </trkpt>
      <trkpt lat="63.53220740" lon="-19.5102610">
        <ele>110.80000</ele>
        <time>2010-01-01T02:08:13Z</time>
      </trkpt>
      <trkpt lat="63.53218280" lon="-19.5103188">
        <ele>110.80000</ele>
        <time>2010-01-01T02:08:14Z</time>
      </trkpt>
      <trkpt lat="63.53215690" lon="-19.5103659">
        <ele>110.80000</ele>
        <time>2010-01-01T02:08:15Z</time>
      </trkpt>
      <trkpt lat="63.53212900" lon="-19.5104131">
        <ele>110.80000</ele>
        <time>2010-01-01T02:08:17Z</time>
      </trkpt>
      <trkpt lat="63.53210310" lon="-19.5104472">
        <ele>110.80000</ele>
        <time>2010-01-01T02:08:18Z</time>
      </trkpt>
      <trkpt lat="63.53207650" lon="-19.5104881">
        <ele>110.80000</ele>
        <time>2010-01-01T02:08:19Z</time>
      </trkpt>
      <trkpt lat="63.53204770" lon="-19.5105348">
        <ele>110.80000</ele>
        <time>2010-01-01T02:08:21Z</time>
      </trkpt>
      <trkpt lat="63.53202750" lon="-19.5105743">
        <ele>110.80000</ele>
        <time>2010-01-01T02:08:22Z</time>
      </trkpt>
      <trkpt lat="63.53200550" lon="-19.5106144">
        <ele>110.80000</ele>
        <time>2010-01-01T02:08:23Z</time>
      </trkpt>
      <trkpt lat="63.53198360" lon="-19.5106273">
        <ele>110.80000</ele>
        <time>2010-01-01T02:08:24Z</time>
      </trkpt>
      <trkpt lat="63.53196480" lon="-19.5106412">
        <ele>110.80000</ele>
        <time>2010-01-01T02:08:25Z</time>
      </trkpt>
      <trkpt lat="63.53194650" lon="-19.5106563">
        <ele>110.80000</ele>
        <time>2010-01-01T02:08:25Z</time>
      </trkpt>
      <trkpt lat="63.53192860" lon="-19.5106797">
        <ele>110.80000</ele>
        <time>2010-01-01T02:08:26Z</time>
      </trkpt>
      <trkpt lat="63.53190630" lon="-19.5106921">
        <ele>110.80000</ele>
        <time>2010-01-01T02:08:27Z</time>
      </trkpt>
      <trkpt lat="63.53185730" lon="-19.5106893">
        <ele>110.80000</ele>
        <time>2010-01-01T02:08:29Z</time>
      </trkpt>
      <trkpt lat="63.53183060" lon="-19.5106651">
        <ele>110.59999</ele>
        <time>2010-01-01T02:08:30Z</time>
      </trkpt>
      <trkpt lat="63.53180580" lon="-19.5106218">
        <ele>110.19999</ele>
        <time>2010-01-01T02:08:31Z</time>
      </trkpt>
      <trkpt lat="63.53178480" lon="-19.5105582">
        <ele>109.80000</ele>
        <time>2010-01-01T02:08:33Z</time>
      </trkpt>
      <trkpt lat="63.53177290" lon="-19.5105037">
        <ele>109.19999</ele>
        <time>2010-01-01T02:08:34Z</time>
      </trkpt>
      <trkpt lat="63.53176370" lon="-19.5104554">
        <ele>108.80000</ele>
        <time>2010-01-01T02:08:35Z</time>
      </trkpt>
      <trkpt lat="63.53175440" lon="-19.5104211">
        <ele>108.59999</ele>
        <time>2010-01-01T02:08:36Z</time>
      </trkpt>
      <trkpt lat="63.53174460" lon="-19.5103883">
        <ele>108.59999</ele>
        <time>2010-01-01T02:08:36Z</time>
      </trkpt>
      <trkpt lat="63.53172380" lon="-19.5103307">
        <ele>108.19999</ele>
        <time>2010-01-01T02:08:38Z</time>
      </trkpt>
      <trkpt lat="63.53171210" lon="-19.5103001">
        <ele>107.80000</ele>
        <time>2010-01-01T02:08:38Z</time>
      </trkpt>
      <trkpt lat="63.53170120" lon="-19.5102708">
        <ele>107.40000</ele>
        <time>2010-01-01T02:08:39Z</time>
      </trkpt>
      <trkpt lat="63.53168970" lon="-19.5102451">
        <ele>107.00000</ele>
        <time>2010-01-01T02:08:40Z</time>
      </trkpt>
      <trkpt lat="63.53167580" lon="-19.5102215">
        <ele>106.40000</ele>
        <time>2010-01-01T02:08:40Z</time>
      </trkpt>
      <trkpt lat="63.53166470" lon="-19.5102025">
        <ele>106.00000</ele>
        <time>2010-01-01T02:08:41Z</time>
      </trkpt>
      <trkpt lat="63.53165180" lon="-19.5101811">
        <ele>105.40000</ele>
        <time>2010-01-01T02:08:42Z</time>
      </trkpt>
      <trkpt lat="63.53163940" lon="-19.5101640">
        <ele>104.80000</ele>
        <time>2010-01-01T02:08:42Z</time>
      </trkpt>
      <trkpt lat="63.53162800" lon="-19.5101477">
        <ele>104.19999</ele>
        <time>2010-01-01T02:08:43Z</time>
      </trkpt>
      <trkpt lat="63.53161620" lon="-19.5101314">
        <ele>103.59999</ele>
        <time>2010-01-01T02:08:43Z</time>
      </trkpt>
      <trkpt lat="63.53160480" lon="-19.5101126">
        <ele>103.00000</ele>
        <time>2010-01-01T02:08:44Z</time>
      </trkpt>
      <trkpt lat="63.53159350" lon="-19.5100904">
        <ele>102.59999</ele>
        <time>2010-01-01T02:08:44Z</time>
      </trkpt>
      <trkpt lat="63.53158380" lon="-19.5100748">
        <ele>102.00000</ele>
        <time>2010-01-01T02:08:45Z</time>
      </trkpt>
      <trkpt lat="63.53157490" lon="-19.5100581">
        <ele>101.40000</ele>
        <time>2010-01-01T02:08:45Z</time>
      </trkpt>
      <trkpt lat="63.53156560" lon="-19.5100422">
        <ele>101.00000</ele>
        <time>2010-01-01T02:08:46Z</time>
      </trkpt>
      <trkpt lat="63.53155910" lon="-19.5100373">
        <ele>100.40000</ele>
        <time>2010-01-01T02:08:46Z</time>
      </trkpt>
      <trkpt lat="63.53155310" lon="-19.5100444">
        <ele>100.00000</ele>
        <time>2010-01-01T02:08:46Z</time>
      </trkpt>
      <trkpt lat="63.53154650" lon="-19.5100551">
        <ele>99.599998</ele>
        <time>2010-01-01T02:08:47Z</time>
      </trkpt>
      <trkpt lat="63.53153870" lon="-19.5100680">
        <ele>99.199996</ele>
        <time>2010-01-01T02:08:47Z</time>
      </trkpt>
      <trkpt lat="63.53153150" lon="-19.5100823">
        <ele>98.800003</ele>
        <time>2010-01-01T02:08:48Z</time>
      </trkpt>
      <trkpt lat="63.53152530" lon="-19.5100917">
        <ele>98.199996</ele>
        <time>2010-01-01T02:08:48Z</time>
      </trkpt>
      <trkpt lat="63.53151900" lon="-19.5101021">
        <ele>97.800003</ele>
        <time>2010-01-01T02:08:48Z</time>
      </trkpt>
      <trkpt lat="63.53151400" lon="-19.5101097">
        <ele>97.400001</ele>
        <time>2010-01-01T02:08:48Z</time>
      </trkpt>
      <trkpt lat="63.53151100" lon="-19.5101193">
        <ele>97.000000</ele>
        <time>2010-01-01T02:08:49Z</time>
      </trkpt>
      <trkpt lat="63.53150600" lon="-19.5101347">
        <ele>96.599998</ele>
        <time>2010-01-01T02:08:49Z</time>
      </trkpt>
      <trkpt lat="63.53150130" lon="-19.5101469">
        <ele>96.000000</ele>
        <time>2010-01-01T02:08:49Z</time>
      </trkpt>
      <trkpt lat="63.53149610" lon="-19.5101585">
        <ele>95.400001</ele>
        <time>2010-01-01T02:08:49Z</time>
      </trkpt>
      <trkpt lat="63.53149060" lon="-19.5101675">
        <ele>95.000000</ele>
        <time>2010-01-01T02:08:50Z</time>
      </trkpt>
      <trkpt lat="63.53148450" lon="-19.5101735">
        <ele>94.400001</ele>
        <time>2010-01-01T02:08:50Z</time>
      </trkpt>
      <trkpt lat="63.53148050" lon="-19.5101810">
        <ele>93.599998</ele>
        <time>2010-01-01T02:08:50Z</time>
      </trkpt>
      <trkpt lat="63.53147740" lon="-19.5101921">
        <ele>93.000000</ele>
        <time>2010-01-01T02:08:50Z</time>
      </trkpt>
      <trkpt lat="63.53147700" lon="-19.5102105">
        <ele>92.400001</ele>
        <time>2010-01-01T02:08:51Z</time>
      </trkpt>
      <trkpt lat="63.53147830" lon="-19.5102239">
        <ele>91.800003</ele>
        <time>2010-01-01T02:08:51Z</time>
      </trkpt>
      <trkpt lat="63.53147360" lon="-19.5102278">
        <ele>91.400001</ele>
        <time>2010-01-01T02:08:51Z</time>
      </trkpt>
      <trkpt lat="63.53147090" lon="-19.5102364">
        <ele>90.800003</ele>
        <time>2010-01-01T02:08:51Z</time>
      </trkpt>
      <trkpt lat="63.53146540" lon="-19.5102451">
        <ele>90.400001</ele>
        <time>2010-01-01T02:08:52Z</time>
      </trkpt>
      <trkpt lat="63.53145850" lon="-19.5102604">
        <ele>89.599998</ele>
        <time>2010-01-01T02:08:52Z</time>
      </trkpt>
      <trkpt lat="63.53145160" lon="-19.5102726">
        <ele>89.400001</ele>
        <time>2010-01-01T02:08:52Z</time>
      </trkpt>
      <trkpt lat="63.53144410" lon="-19.5102861">
        <ele>88.599998</ele>
        <time>2010-01-01T02:08:53Z</time>
      </trkpt>
      <trkpt lat="63.53143740" lon="-19.5103004">
        <ele>88.199996</ele>
        <time>2010-01-01T02:08:53Z</time>
      </trkpt>
      <trkpt lat="63.53143220" lon="-19.5103135">
        <ele>87.599998</ele>
        <time>2010-01-01T02:08:54Z</time>
      </trkpt>
      <trkpt lat="63.53142790" lon="-19.5103245">
        <ele>87.000000</ele>
        <time>2010-01-01T02:08:54Z</time>
      </trkpt>
      <trkpt lat="63.53142420" lon="-19.5103347">
        <ele>86.599998</ele>
        <time>2010-01-01T02:08:54Z</time>
      </trkpt>
      <trkpt lat="63.53142300" lon="-19.5103406">
        <ele>86.199996</ele>
        <time>2010-01-01T02:08:54Z</time>
      </trkpt>
      <trkpt lat="63.53141750" lon="-19.5103523">
        <ele>85.800003</ele>
        <time>2010-01-01T02:08:54Z</time>
      </trkpt>
      <trkpt lat="63.53141340" lon="-19.5103659">
        <ele>85.199996</ele>
        <time>2010-01-01T02:08:55Z</time>
      </trkpt>
      <trkpt lat="63.53140850" lon="-19.5103943">
        <ele>84.800003</ele>
        <time>2010-01-01T02:08:55Z</time>
      </trkpt>
      <trkpt lat="63.53140530" lon="-19.5104078">
        <ele>84.400001</ele>
        <time>2010-01-01T02:08:56Z</time>
      </trkpt>
      <trkpt lat="63.53140140" lon="-19.5104229">
        <ele>83.800003</ele>
        <time>2010-01-01T02:08:56Z</time>
      </trkpt>
      <trkpt lat="63.53139940" lon="-19.5104344">
        <ele>83.400001</ele>
        <time>2010-01-01T02:08:56Z</time>
      </trkpt>
      <trkpt lat="63.53139660" lon="-19.5104491">
        <ele>82.599998</ele>
        <time>2010-01-01T02:08:56Z</time>
      </trkpt>
      <trkpt lat="63.53139000" lon="-19.5104668">
        <ele>82.000000</ele>
        <time>2010-01-01T02:08:57Z</time>
      </trkpt>
      <trkpt lat="63.53137920" lon="-19.5104785">
        <ele>81.599998</ele>
        <time>2010-01-01T02:08:57Z</time>
      </trkpt>
      <trkpt lat="63.53137000" lon="-19.5104786">
        <ele>81.199996</ele>
        <time>2010-01-01T02:08:58Z</time>
      </trkpt>
      <trkpt lat="63.53135910" lon="-19.5104736">
        <ele>80.599998</ele>
        <time>2010-01-01T02:08:58Z</time>
      </trkpt>
      <trkpt lat="63.53134990" lon="-19.5104688">
        <ele>80.000000</ele>
        <time>2010-01-01T02:08:58Z</time>
      </trkpt>
      <trkpt lat="63.53134070" lon="-19.5104635">
        <ele>79.599998</ele>
        <time>2010-01-01T02:08:59Z</time>
      </trkpt>
      <trkpt lat="63.53132240" lon="-19.5104711">
        <ele>79.199996</ele>
        <time>2010-01-01T02:09:00Z</time>
      </trkpt>
      <trkpt lat="63.53129630" lon="-19.5104740">
        <ele>78.800003</ele>
        <time>2010-01-01T02:09:01Z</time>
      </trkpt>
      <trkpt lat="63.53127030" lon="-19.5104750">
        <ele>78.400001</ele>
        <time>2010-01-01T02:09:02Z</time>
      </trkpt>
      <trkpt lat="63.53127160" lon="-19.5104462">
        <ele>78.199996</ele>
        <time>2010-01-01T02:09:02Z</time>
      </trkpt>
      <trkpt lat="63.53125420" lon="-19.5104311">
        <ele>77.599998</ele>
        <time>2010-01-01T02:09:03Z</time>
      </trkpt>
      <trkpt lat="63.53123630" lon="-19.5104225">
        <ele>77.199996</ele>
        <time>2010-01-01T02:09:04Z</time>
      </trkpt>
      <trkpt lat="63.53121830" lon="-19.5104105">
        <ele>76.800003</ele>
        <time>2010-01-01T02:09:04Z</time>
      </trkpt>
      <trkpt lat="63.53120210" lon="-19.5103979">
        <ele>76.400001</ele>
        <time>2010-01-01T02:09:05Z</time>
      </trkpt>
      <trkpt lat="63.53117890" lon="-19.5104008">
        <ele>75.800003</ele>
        <time>2010-01-01T02:09:06Z</time>
      </trkpt>
      <trkpt lat="63.53115130" lon="-19.5104045">
        <ele>75.000000</ele>
        <time>2010-01-01T02:09:07Z</time>
      </trkpt>
      <trkpt lat="63.53113230" lon="-19.5104206">
        <ele>74.199996</ele>
        <time>2010-01-01T02:09:08Z</time>
      </trkpt>
      <trkpt lat="63.53112190" lon="-19.5104393">
        <ele>73.400001</ele>
        <time>2010-01-01T02:09:08Z</time>
      </trkpt>
      <trkpt lat="63.53111570" lon="-19.5104522">
        <ele>72.599998</ele>
        <time>2010-01-01T02:09:09Z</time>
      </trkpt>
      <trkpt lat="63.53111070" lon="-19.5104619">
        <ele>71.800003</ele>
        <time>2010-01-01T02:09:09Z</time>
      </trkpt>
      <trkpt lat="63.53110240" lon="-19.5104639">
        <ele>71.000000</ele>
        <time>2010-01-01T02:09:09Z</time>
      </trkpt>
      <trkpt lat="63.53109210" lon="-19.5104657">
        <ele>70.199996</ele>
        <time>2010-01-01T02:09:10Z</time>
      </trkpt>
      <trkpt lat="63.53107960" lon="-19.5104671">
        <ele>69.400001</ele>
        <time>2010-01-01T02:09:10Z</time>
      </trkpt>
      <trkpt lat="63.53106480" lon="-19.5104793">
        <ele>68.599998</ele>
        <time>2010-01-01T02:09:11Z</time>
      </trkpt>
      <trkpt lat="63.53105200" lon="-19.5104868">
        <ele>68.400001</ele>
        <time>2010-01-01T02:09:11Z</time>
      </trkpt>
      <trkpt lat="63.53103870" lon="-19.5104911">
        <ele>68.199996</ele>
        <time>2010-01-01T02:09:12Z</time>
      </trkpt>
      <trkpt lat="63.53102560" lon="-19.5104909">
        <ele>68.000000</ele>
        <time>2010-01-01T02:09:13Z</time>
      </trkpt>
      <trkpt lat="63.53101110" lon="-19.5104840">
        <ele>67.400001</ele>
        <time>2010-01-01T02:09:13Z</time>
      </trkpt>
      <trkpt lat="63.53099680" lon="-19.5104809">
        <ele>67.000000</ele>
        <time>2010-01-01T02:09:14Z</time>
      </trkpt>
      <trkpt lat="63.53098390" lon="-19.5104777">
        <ele>66.400001</ele>
        <time>2010-01-01T02:09:14Z</time>
      </trkpt>
      <trkpt lat="63.53097180" lon="-19.5104896">
        <ele>65.800003</ele>
        <time>2010-01-01T02:09:15Z</time>
      </trkpt>
      <trkpt lat="63.53095810" lon="-19.5105013">
        <ele>65.000000</ele>
        <time>2010-01-01T02:09:15Z</time>
      </trkpt>
      <trkpt lat="63.53094390" lon="-19.5105119">
        <ele>64.599998</ele>
        <time>2010-01-01T02:09:16Z</time>
      </trkpt>
      <trkpt lat="63.53092970" lon="-19.5105255">
        <ele>63.599998</ele>
        <time>2010-01-01T02:09:17Z</time>
      </trkpt>
      <trkpt lat="63.53091760" lon="-19.5105472">
        <ele>62.799999</ele>
        <time>2010-01-01T02:09:17Z</time>
      </trkpt>
      <trkpt lat="63.53090710" lon="-19.5105687">
        <ele>62.000000</ele>
        <time>2010-01-01T02:09:18Z</time>
      </trkpt>
      <trkpt lat="63.53089640" lon="-19.5105968">
        <ele>61.599998</ele>
        <time>2010-01-01T02:09:18Z</time>
      </trkpt>
      <trkpt lat="63.53088300" lon="-19.5106157">
        <ele>61.000000</ele>
        <time>2010-01-01T02:09:19Z</time>
      </trkpt>
      <trkpt lat="63.53086950" lon="-19.5106266">
        <ele>60.200000</ele>
        <time>2010-01-01T02:09:20Z</time>
      </trkpt>
      <trkpt lat="63.53085690" lon="-19.5106477">
        <ele>59.599998</ele>
        <time>2010-01-01T02:09:20Z</time>
      </trkpt>
      <trkpt lat="63.53084360" lon="-19.5106700">
        <ele>58.799999</ele>
        <time>2010-01-01T02:09:21Z</time>
      </trkpt>
      <trkpt lat="63.53082540" lon="-19.5106953">
        <ele>58.200000</ele>
        <time>2010-01-01T02:09:22Z</time>
      </trkpt>
      <trkpt lat="63.53081090" lon="-19.5107166">
        <ele>57.400001</ele>
        <time>2010-01-01T02:09:22Z</time>
      </trkpt>
      <trkpt lat="63.53079660" lon="-19.5107548">
        <ele>56.799999</ele>
        <time>2010-01-01T02:09:23Z</time>
      </trkpt>
      <trkpt lat="63.53078670" lon="-19.5107853">
        <ele>56.000000</ele>
        <time>2010-01-01T02:09:24Z</time>
      </trkpt>
      <trkpt lat="63.53077870" lon="-19.5108203">
        <ele>55.400001</ele>
        <time>2010-01-01T02:09:25Z</time>
      </trkpt>
      <trkpt lat="63.53077060" lon="-19.5108565">
        <ele>54.599998</ele>
        <time>2010-01-01T02:09:25Z</time>
      </trkpt>
      <trkpt lat="63.53076020" lon="-19.5108730">
        <ele>53.799999</ele>
        <time>2010-01-01T02:09:26Z</time>
      </trkpt>
      <trkpt lat="63.53074950" lon="-19.5108946">
        <ele>53.200000</ele>
        <time>2010-01-01T02:09:27Z</time>
      </trkpt>
      <trkpt lat="63.53074480" lon="-19.5109295">
        <ele>52.400001</ele>
        <time>2010-01-01T02:09:27Z</time>
      </trkpt>
      <trkpt lat="63.53073820" lon="-19.5109762">
        <ele>51.599998</ele>
        <time>2010-01-01T02:09:28Z</time>
      </trkpt>
      <trkpt lat="63.53072510" lon="-19.5110176">
        <ele>51.000000</ele>
        <time>2010-01-01T02:09:29Z</time>
      </trkpt>
      <trkpt lat="63.53070480" lon="-19.5110601">
        <ele>50.400001</ele>
        <time>2010-01-01T02:09:30Z</time>
      </trkpt>
      <trkpt lat="63.53068470" lon="-19.5111041">
        <ele>49.599998</ele>
        <time>2010-01-01T02:09:31Z</time>
      </trkpt>
      <trkpt lat="63.53066250" lon="-19.5111483">
        <ele>49.200000</ele>
        <time>2010-01-01T02:09:32Z</time>
      </trkpt>
      <trkpt lat="63.53063640" lon="-19.5111984">
        <ele>48.400001</ele>
        <time>2010-01-01T02:09:34Z</time>
      </trkpt>
      <trkpt lat="63.53061370" lon="-19.5112434">
        <ele>47.599998</ele>
        <time>2010-01-01T02:09:35Z</time>
      </trkpt>
      <trkpt lat="63.53058560" lon="-19.5112911">
        <ele>46.599998</ele>
        <time>2010-01-01T02:09:36Z</time>
      </trkpt>
      <trkpt lat="63.53055700" lon="-19.5113317">
        <ele>45.799999</ele>
        <time>2010-01-01T02:09:38Z</time>
      </trkpt>
      <trkpt lat="63.53052880" lon="-19.5113724">
        <ele>45.000000</ele>
        <time>2010-01-01T02:09:39Z</time>
      </trkpt>
      <trkpt lat="63.53049820" lon="-19.5114135">
        <ele>44.000000</ele>
        <time>2010-01-01T02:09:41Z</time>
      </trkpt>
      <trkpt lat="63.53046980" lon="-19.5114566">
        <ele>43.000000</ele>
        <time>2010-01-01T02:09:42Z</time>
      </trkpt>
      <trkpt lat="63.53044250" lon="-19.5114971">
        <ele>42.000000</ele>
        <time>2010-01-01T02:09:43Z</time>
      </trkpt>
      <trkpt lat="63.53040910" lon="-19.5115402">
        <ele>41.000000</ele>
        <time>2010-01-01T02:09:45Z</time>
      </trkpt>
      <trkpt lat="63.53038270" lon="-19.5115702">
        <ele>40.200000</ele>
        <time>2010-01-01T02:09:46Z</time>
      </trkpt>
      <trkpt lat="63.53034980" lon="-19.5115951">
        <ele>39.200000</ele>
        <time>2010-01-01T02:09:47Z</time>
      </trkpt>
      <trkpt lat="63.53031040" lon="-19.5116181">
        <ele>38.000000</ele>
        <time>2010-01-01T02:09:49Z</time>
      </trkpt>
      <trkpt lat="63.53027440" lon="-19.5116393">
        <ele>37.200000</ele>
        <time>2010-01-01T02:09:50Z</time>
      </trkpt>
      <trkpt lat="63.53024230" lon="-19.5116764">
        <ele>36.400001</ele>
        <time>2010-01-01T02:09:52Z</time>
      </trkpt>
      <trkpt lat="63.53020600" lon="-19.5117322">
        <ele>35.400001</ele>
        <time>2010-01-01T02:09:54Z</time>
      </trkpt>
      <trkpt lat="63.53017410" lon="-19.5117863">
        <ele>34.400001</ele>
        <time>2010-01-01T02:09:55Z</time>
      </trkpt>
      <trkpt lat="63.53014490" lon="-19.5118279">
        <ele>33.599998</ele>
        <time>2010-01-01T02:09:57Z</time>
      </trkpt>
      <trkpt lat="63.53012160" lon="-19.5118513">
        <ele>32.599998</ele>
        <time>2010-01-01T02:09:58Z</time>
      </trkpt>
      <trkpt lat="63.53010570" lon="-19.5118687">
        <ele>31.399999</ele>
        <time>2010-01-01T02:09:58Z</time>
      </trkpt>
      <trkpt lat="63.53009610" lon="-19.5118750">
        <ele>30.600000</ele>
        <time>2010-01-01T02:09:59Z</time>
      </trkpt>
    </trkseg>
  </trk>
</gpx>

